<?xml version="1.0" encoding="UTF-8" standalone="no" ?>
<gpx xmlns="http://www.topografix.com/GPX/1/1" xmlns:xsi="http://www.w3.org/2001/XMLSchema-instance" xsi:schemaLocation="http://www.topografix.com/GPX/1/1 http://www.topografix.com/GPX/1/1/gpx.xsd" version="1.1" creator="VisuGPX - https://www.visugpx.com">
  <metadata>
    <name>J2 Gazeran Briis</name>
  </metadata>
  <trk>
    <name><![CDATA[suuntoapp-HorsebackRiding-2022-03-27T07-47-18Z]]></name>
    <extensions>
      <line xmlns="http://www.topografix.com/GPX/gpx_style/0/2">
        <color>0000FF</color>
        <width>4</width>
      </line>
    </extensions>
    <trkseg>
      <trkpt lat="48.64501" lon="1.74379">
        <ele>169</ele>
        <time>2022-03-27T07:47:18Z</time>
      </trkpt>
      <trkpt lat="48.64501" lon="1.74376">
        <ele>169</ele>
        <time>2022-03-27T07:47:19Z</time>
      </trkpt>
      <trkpt lat="48.64501" lon="1.74373">
        <ele>169</ele>
        <time>2022-03-27T07:47:20Z</time>
      </trkpt>
      <trkpt lat="48.645" lon="1.74369">
        <ele>169</ele>
        <time>2022-03-27T07:47:22Z</time>
      </trkpt>
      <trkpt lat="48.645" lon="1.74366">
        <ele>169</ele>
        <time>2022-03-27T07:47:24Z</time>
      </trkpt>
      <trkpt lat="48.645" lon="1.74363">
        <ele>168</ele>
        <time>2022-03-27T07:47:27Z</time>
      </trkpt>
      <trkpt lat="48.64501" lon="1.74361">
        <ele>168</ele>
        <time>2022-03-27T07:47:30Z</time>
      </trkpt>
      <trkpt lat="48.64503" lon="1.7436">
        <ele>168</ele>
        <time>2022-03-27T07:47:33Z</time>
      </trkpt>
      <trkpt lat="48.64505" lon="1.74361">
        <ele>168</ele>
        <time>2022-03-27T07:47:35Z</time>
      </trkpt>
      <trkpt lat="48.64507" lon="1.74362">
        <ele>168</ele>
        <time>2022-03-27T07:47:37Z</time>
      </trkpt>
      <trkpt lat="48.64509" lon="1.74363">
        <ele>168</ele>
        <time>2022-03-27T07:47:39Z</time>
      </trkpt>
      <trkpt lat="48.64511" lon="1.74364">
        <ele>168</ele>
        <time>2022-03-27T07:47:41Z</time>
      </trkpt>
      <trkpt lat="48.64514" lon="1.74365">
        <ele>167</ele>
        <time>2022-03-27T07:47:43Z</time>
      </trkpt>
      <trkpt lat="48.64516" lon="1.74366">
        <ele>167</ele>
        <time>2022-03-27T07:47:45Z</time>
      </trkpt>
      <trkpt lat="48.64518" lon="1.74367">
        <ele>167</ele>
        <time>2022-03-27T07:47:47Z</time>
      </trkpt>
      <trkpt lat="48.64521" lon="1.74369">
        <ele>167</ele>
        <time>2022-03-27T07:47:49Z</time>
      </trkpt>
      <trkpt lat="48.64523" lon="1.7437">
        <ele>167</ele>
        <time>2022-03-27T07:47:51Z</time>
      </trkpt>
      <trkpt lat="48.64526" lon="1.74371">
        <ele>167</ele>
        <time>2022-03-27T07:47:53Z</time>
      </trkpt>
      <trkpt lat="48.64528" lon="1.74373">
        <ele>167</ele>
        <time>2022-03-27T07:47:55Z</time>
      </trkpt>
      <trkpt lat="48.6453" lon="1.74374">
        <ele>167</ele>
        <time>2022-03-27T07:47:57Z</time>
      </trkpt>
      <trkpt lat="48.64532" lon="1.74375">
        <ele>167</ele>
        <time>2022-03-27T07:47:59Z</time>
      </trkpt>
      <trkpt lat="48.64534" lon="1.74376">
        <ele>167</ele>
        <time>2022-03-27T07:48:01Z</time>
      </trkpt>
      <trkpt lat="48.64536" lon="1.74377">
        <ele>167</ele>
        <time>2022-03-27T07:48:03Z</time>
      </trkpt>
      <trkpt lat="48.64539" lon="1.74378">
        <ele>167</ele>
        <time>2022-03-27T07:48:05Z</time>
      </trkpt>
      <trkpt lat="48.64541" lon="1.7438">
        <ele>167</ele>
        <time>2022-03-27T07:48:08Z</time>
      </trkpt>
      <trkpt lat="48.64543" lon="1.74381">
        <ele>167</ele>
        <time>2022-03-27T07:48:10Z</time>
      </trkpt>
      <trkpt lat="48.64545" lon="1.74382">
        <ele>167</ele>
        <time>2022-03-27T07:48:12Z</time>
      </trkpt>
      <trkpt lat="48.64547" lon="1.74383">
        <ele>167</ele>
        <time>2022-03-27T07:48:14Z</time>
      </trkpt>
      <trkpt lat="48.6455" lon="1.74383">
        <ele>167</ele>
        <time>2022-03-27T07:48:17Z</time>
      </trkpt>
      <trkpt lat="48.64552" lon="1.74383">
        <ele>167</ele>
        <time>2022-03-27T07:48:19Z</time>
      </trkpt>
      <trkpt lat="48.64554" lon="1.74384">
        <ele>167</ele>
        <time>2022-03-27T07:48:21Z</time>
      </trkpt>
      <trkpt lat="48.64556" lon="1.74385">
        <ele>167</ele>
        <time>2022-03-27T07:48:23Z</time>
      </trkpt>
      <trkpt lat="48.64559" lon="1.74386">
        <ele>167</ele>
        <time>2022-03-27T07:48:25Z</time>
      </trkpt>
      <trkpt lat="48.64562" lon="1.74387">
        <ele>167</ele>
        <time>2022-03-27T07:48:27Z</time>
      </trkpt>
      <trkpt lat="48.64565" lon="1.74388">
        <ele>167</ele>
        <time>2022-03-27T07:48:29Z</time>
      </trkpt>
      <trkpt lat="48.64568" lon="1.74389">
        <ele>167</ele>
        <time>2022-03-27T07:48:31Z</time>
      </trkpt>
      <trkpt lat="48.6457" lon="1.74391">
        <ele>167</ele>
        <time>2022-03-27T07:48:33Z</time>
      </trkpt>
      <trkpt lat="48.64572" lon="1.74392">
        <ele>167</ele>
        <time>2022-03-27T07:48:35Z</time>
      </trkpt>
      <trkpt lat="48.64574" lon="1.74393">
        <ele>167</ele>
        <time>2022-03-27T07:48:37Z</time>
      </trkpt>
      <trkpt lat="48.64577" lon="1.74393">
        <ele>167</ele>
        <time>2022-03-27T07:48:39Z</time>
      </trkpt>
      <trkpt lat="48.64579" lon="1.74394">
        <ele>167</ele>
        <time>2022-03-27T07:48:41Z</time>
      </trkpt>
      <trkpt lat="48.64582" lon="1.74396">
        <ele>167</ele>
        <time>2022-03-27T07:48:43Z</time>
      </trkpt>
      <trkpt lat="48.64584" lon="1.74397">
        <ele>167</ele>
        <time>2022-03-27T07:48:46Z</time>
      </trkpt>
      <trkpt lat="48.64586" lon="1.74398">
        <ele>167</ele>
        <time>2022-03-27T07:48:48Z</time>
      </trkpt>
      <trkpt lat="48.64589" lon="1.74399">
        <ele>167</ele>
        <time>2022-03-27T07:48:50Z</time>
      </trkpt>
      <trkpt lat="48.64591" lon="1.74401">
        <ele>167</ele>
        <time>2022-03-27T07:48:52Z</time>
      </trkpt>
      <trkpt lat="48.64593" lon="1.74402">
        <ele>167</ele>
        <time>2022-03-27T07:48:54Z</time>
      </trkpt>
      <trkpt lat="48.64595" lon="1.74403">
        <ele>167</ele>
        <time>2022-03-27T07:48:56Z</time>
      </trkpt>
      <trkpt lat="48.64597" lon="1.74404">
        <ele>167</ele>
        <time>2022-03-27T07:48:58Z</time>
      </trkpt>
      <trkpt lat="48.64599" lon="1.74405">
        <ele>167</ele>
        <time>2022-03-27T07:49:00Z</time>
      </trkpt>
      <trkpt lat="48.64601" lon="1.74406">
        <ele>167</ele>
        <time>2022-03-27T07:49:02Z</time>
      </trkpt>
      <trkpt lat="48.64603" lon="1.74407">
        <ele>167</ele>
        <time>2022-03-27T07:49:04Z</time>
      </trkpt>
      <trkpt lat="48.64605" lon="1.74408">
        <ele>167</ele>
        <time>2022-03-27T07:49:06Z</time>
      </trkpt>
      <trkpt lat="48.64607" lon="1.74409">
        <ele>168</ele>
        <time>2022-03-27T07:49:08Z</time>
      </trkpt>
      <trkpt lat="48.6461" lon="1.7441">
        <ele>168</ele>
        <time>2022-03-27T07:49:10Z</time>
      </trkpt>
      <trkpt lat="48.64612" lon="1.74412">
        <ele>168</ele>
        <time>2022-03-27T07:49:12Z</time>
      </trkpt>
      <trkpt lat="48.64614" lon="1.74413">
        <ele>168</ele>
        <time>2022-03-27T07:49:14Z</time>
      </trkpt>
      <trkpt lat="48.64616" lon="1.74411">
        <ele>168</ele>
        <time>2022-03-27T07:49:17Z</time>
      </trkpt>
      <trkpt lat="48.64617" lon="1.74408">
        <ele>168</ele>
        <time>2022-03-27T07:49:19Z</time>
      </trkpt>
      <trkpt lat="48.64618" lon="1.74406">
        <ele>168</ele>
        <time>2022-03-27T07:49:21Z</time>
      </trkpt>
      <trkpt lat="48.64618" lon="1.74402">
        <ele>168</ele>
        <time>2022-03-27T07:49:23Z</time>
      </trkpt>
      <trkpt lat="48.64618" lon="1.74399">
        <ele>168</ele>
        <time>2022-03-27T07:49:25Z</time>
      </trkpt>
      <trkpt lat="48.64618" lon="1.74396">
        <ele>168</ele>
        <time>2022-03-27T07:49:27Z</time>
      </trkpt>
      <trkpt lat="48.64618" lon="1.74393">
        <ele>168</ele>
        <time>2022-03-27T07:49:36Z</time>
      </trkpt>
      <trkpt lat="48.64618" lon="1.74389">
        <ele>169</ele>
        <time>2022-03-27T07:49:39Z</time>
      </trkpt>
      <trkpt lat="48.64619" lon="1.74386">
        <ele>169</ele>
        <time>2022-03-27T07:49:41Z</time>
      </trkpt>
      <trkpt lat="48.64619" lon="1.74383">
        <ele>169</ele>
        <time>2022-03-27T07:49:43Z</time>
      </trkpt>
      <trkpt lat="48.6462" lon="1.74379">
        <ele>169</ele>
        <time>2022-03-27T07:49:46Z</time>
      </trkpt>
      <trkpt lat="48.64619" lon="1.74376">
        <ele>169</ele>
        <time>2022-03-27T07:49:49Z</time>
      </trkpt>
      <trkpt lat="48.64618" lon="1.74373">
        <ele>169</ele>
        <time>2022-03-27T07:49:51Z</time>
      </trkpt>
      <trkpt lat="48.64619" lon="1.74369">
        <ele>169</ele>
        <time>2022-03-27T07:49:53Z</time>
      </trkpt>
      <trkpt lat="48.64619" lon="1.74366">
        <ele>168</ele>
        <time>2022-03-27T07:49:54Z</time>
      </trkpt>
      <trkpt lat="48.6462" lon="1.74363">
        <ele>168</ele>
        <time>2022-03-27T07:49:56Z</time>
      </trkpt>
      <trkpt lat="48.64621" lon="1.74359">
        <ele>168</ele>
        <time>2022-03-27T07:49:58Z</time>
      </trkpt>
      <trkpt lat="48.64622" lon="1.74355">
        <ele>168</ele>
        <time>2022-03-27T07:50:00Z</time>
      </trkpt>
      <trkpt lat="48.64622" lon="1.74351">
        <ele>168</ele>
        <time>2022-03-27T07:50:02Z</time>
      </trkpt>
      <trkpt lat="48.64623" lon="1.74348">
        <ele>168</ele>
        <time>2022-03-27T07:50:04Z</time>
      </trkpt>
      <trkpt lat="48.64623" lon="1.74344">
        <ele>167</ele>
        <time>2022-03-27T07:50:06Z</time>
      </trkpt>
      <trkpt lat="48.64623" lon="1.74341">
        <ele>167</ele>
        <time>2022-03-27T07:50:08Z</time>
      </trkpt>
      <trkpt lat="48.64623" lon="1.74337">
        <ele>167</ele>
        <time>2022-03-27T07:50:10Z</time>
      </trkpt>
      <trkpt lat="48.64624" lon="1.74334">
        <ele>167</ele>
        <time>2022-03-27T07:50:12Z</time>
      </trkpt>
      <trkpt lat="48.64625" lon="1.7433">
        <ele>167</ele>
        <time>2022-03-27T07:50:14Z</time>
      </trkpt>
      <trkpt lat="48.64625" lon="1.74326">
        <ele>167</ele>
        <time>2022-03-27T07:50:16Z</time>
      </trkpt>
      <trkpt lat="48.64625" lon="1.74323">
        <ele>167</ele>
        <time>2022-03-27T07:50:18Z</time>
      </trkpt>
      <trkpt lat="48.64625" lon="1.7432">
        <ele>167</ele>
        <time>2022-03-27T07:50:20Z</time>
      </trkpt>
      <trkpt lat="48.64626" lon="1.74316">
        <ele>167</ele>
        <time>2022-03-27T07:50:22Z</time>
      </trkpt>
      <trkpt lat="48.64626" lon="1.74312">
        <ele>167</ele>
        <time>2022-03-27T07:50:24Z</time>
      </trkpt>
      <trkpt lat="48.64626" lon="1.74309">
        <ele>166</ele>
        <time>2022-03-27T07:50:26Z</time>
      </trkpt>
      <trkpt lat="48.64626" lon="1.74305">
        <ele>166</ele>
        <time>2022-03-27T07:50:28Z</time>
      </trkpt>
      <trkpt lat="48.64627" lon="1.74301">
        <ele>166</ele>
        <time>2022-03-27T07:50:30Z</time>
      </trkpt>
      <trkpt lat="48.64627" lon="1.74297">
        <ele>166</ele>
        <time>2022-03-27T07:50:32Z</time>
      </trkpt>
      <trkpt lat="48.64629" lon="1.74294">
        <ele>166</ele>
        <time>2022-03-27T07:50:34Z</time>
      </trkpt>
      <trkpt lat="48.6463" lon="1.7429">
        <ele>166</ele>
        <time>2022-03-27T07:50:36Z</time>
      </trkpt>
      <trkpt lat="48.64632" lon="1.74287">
        <ele>166</ele>
        <time>2022-03-27T07:50:38Z</time>
      </trkpt>
      <trkpt lat="48.64634" lon="1.74285">
        <ele>166</ele>
        <time>2022-03-27T07:50:40Z</time>
      </trkpt>
      <trkpt lat="48.64635" lon="1.74282">
        <ele>166</ele>
        <time>2022-03-27T07:50:42Z</time>
      </trkpt>
      <trkpt lat="48.64636" lon="1.74278">
        <ele>166</ele>
        <time>2022-03-27T07:50:44Z</time>
      </trkpt>
      <trkpt lat="48.64638" lon="1.74275">
        <ele>166</ele>
        <time>2022-03-27T07:50:46Z</time>
      </trkpt>
      <trkpt lat="48.6464" lon="1.74272">
        <ele>166</ele>
        <time>2022-03-27T07:50:48Z</time>
      </trkpt>
      <trkpt lat="48.64642" lon="1.74269">
        <ele>166</ele>
        <time>2022-03-27T07:50:50Z</time>
      </trkpt>
      <trkpt lat="48.64643" lon="1.74266">
        <ele>166</ele>
        <time>2022-03-27T07:50:52Z</time>
      </trkpt>
      <trkpt lat="48.64645" lon="1.74263">
        <ele>166</ele>
        <time>2022-03-27T07:50:54Z</time>
      </trkpt>
      <trkpt lat="48.64647" lon="1.74259">
        <ele>166</ele>
        <time>2022-03-27T07:50:56Z</time>
      </trkpt>
      <trkpt lat="48.64648" lon="1.74256">
        <ele>166</ele>
        <time>2022-03-27T07:50:58Z</time>
      </trkpt>
      <trkpt lat="48.6465" lon="1.74253">
        <ele>166</ele>
        <time>2022-03-27T07:51:00Z</time>
      </trkpt>
      <trkpt lat="48.64652" lon="1.74251">
        <ele>166</ele>
        <time>2022-03-27T07:51:02Z</time>
      </trkpt>
      <trkpt lat="48.64653" lon="1.74248">
        <ele>166</ele>
        <time>2022-03-27T07:51:04Z</time>
      </trkpt>
      <trkpt lat="48.64655" lon="1.74245">
        <ele>166</ele>
        <time>2022-03-27T07:51:06Z</time>
      </trkpt>
      <trkpt lat="48.64657" lon="1.74242">
        <ele>166</ele>
        <time>2022-03-27T07:51:08Z</time>
      </trkpt>
      <trkpt lat="48.64658" lon="1.74239">
        <ele>166</ele>
        <time>2022-03-27T07:51:10Z</time>
      </trkpt>
      <trkpt lat="48.6466" lon="1.74237">
        <ele>166</ele>
        <time>2022-03-27T07:51:12Z</time>
      </trkpt>
      <trkpt lat="48.64662" lon="1.74235">
        <ele>166</ele>
        <time>2022-03-27T07:51:14Z</time>
      </trkpt>
      <trkpt lat="48.64663" lon="1.74232">
        <ele>166</ele>
        <time>2022-03-27T07:51:16Z</time>
      </trkpt>
      <trkpt lat="48.64665" lon="1.74229">
        <ele>166</ele>
        <time>2022-03-27T07:51:18Z</time>
      </trkpt>
      <trkpt lat="48.64667" lon="1.74226">
        <ele>166</ele>
        <time>2022-03-27T07:51:20Z</time>
      </trkpt>
      <trkpt lat="48.64668" lon="1.74224">
        <ele>166</ele>
        <time>2022-03-27T07:51:22Z</time>
      </trkpt>
      <trkpt lat="48.6467" lon="1.74221">
        <ele>166</ele>
        <time>2022-03-27T07:51:24Z</time>
      </trkpt>
      <trkpt lat="48.64671" lon="1.74217">
        <ele>166</ele>
        <time>2022-03-27T07:51:26Z</time>
      </trkpt>
      <trkpt lat="48.64673" lon="1.74214">
        <ele>166</ele>
        <time>2022-03-27T07:51:28Z</time>
      </trkpt>
      <trkpt lat="48.64675" lon="1.74212">
        <ele>166</ele>
        <time>2022-03-27T07:51:30Z</time>
      </trkpt>
      <trkpt lat="48.64677" lon="1.74209">
        <ele>166</ele>
        <time>2022-03-27T07:51:32Z</time>
      </trkpt>
      <trkpt lat="48.64678" lon="1.74206">
        <ele>166</ele>
        <time>2022-03-27T07:51:34Z</time>
      </trkpt>
      <trkpt lat="48.6468" lon="1.74204">
        <ele>166</ele>
        <time>2022-03-27T07:51:36Z</time>
      </trkpt>
      <trkpt lat="48.64682" lon="1.74201">
        <ele>166</ele>
        <time>2022-03-27T07:51:38Z</time>
      </trkpt>
      <trkpt lat="48.64683" lon="1.74198">
        <ele>167</ele>
        <time>2022-03-27T07:51:40Z</time>
      </trkpt>
      <trkpt lat="48.64685" lon="1.74195">
        <ele>167</ele>
        <time>2022-03-27T07:51:42Z</time>
      </trkpt>
      <trkpt lat="48.64687" lon="1.74192">
        <ele>167</ele>
        <time>2022-03-27T07:51:44Z</time>
      </trkpt>
      <trkpt lat="48.64689" lon="1.74189">
        <ele>167</ele>
        <time>2022-03-27T07:51:46Z</time>
      </trkpt>
      <trkpt lat="48.64691" lon="1.74187">
        <ele>167</ele>
        <time>2022-03-27T07:51:48Z</time>
      </trkpt>
      <trkpt lat="48.64692" lon="1.74184">
        <ele>167</ele>
        <time>2022-03-27T07:51:50Z</time>
      </trkpt>
      <trkpt lat="48.64694" lon="1.74181">
        <ele>167</ele>
        <time>2022-03-27T07:51:52Z</time>
      </trkpt>
      <trkpt lat="48.64696" lon="1.74178">
        <ele>167</ele>
        <time>2022-03-27T07:51:54Z</time>
      </trkpt>
      <trkpt lat="48.64697" lon="1.74176">
        <ele>167</ele>
        <time>2022-03-27T07:51:56Z</time>
      </trkpt>
      <trkpt lat="48.64699" lon="1.74173">
        <ele>167</ele>
        <time>2022-03-27T07:51:58Z</time>
      </trkpt>
      <trkpt lat="48.64701" lon="1.7417">
        <ele>167</ele>
        <time>2022-03-27T07:52:00Z</time>
      </trkpt>
      <trkpt lat="48.64702" lon="1.74167">
        <ele>167</ele>
        <time>2022-03-27T07:52:02Z</time>
      </trkpt>
      <trkpt lat="48.64704" lon="1.74164">
        <ele>167</ele>
        <time>2022-03-27T07:52:04Z</time>
      </trkpt>
      <trkpt lat="48.64706" lon="1.7416">
        <ele>167</ele>
        <time>2022-03-27T07:52:06Z</time>
      </trkpt>
      <trkpt lat="48.64707" lon="1.74157">
        <ele>167</ele>
        <time>2022-03-27T07:52:08Z</time>
      </trkpt>
      <trkpt lat="48.64709" lon="1.74155">
        <ele>167</ele>
        <time>2022-03-27T07:52:10Z</time>
      </trkpt>
      <trkpt lat="48.64711" lon="1.74152">
        <ele>167</ele>
        <time>2022-03-27T07:52:12Z</time>
      </trkpt>
      <trkpt lat="48.64712" lon="1.7415">
        <ele>167</ele>
        <time>2022-03-27T07:52:14Z</time>
      </trkpt>
      <trkpt lat="48.64714" lon="1.74148">
        <ele>167</ele>
        <time>2022-03-27T07:52:16Z</time>
      </trkpt>
      <trkpt lat="48.64716" lon="1.74145">
        <ele>166</ele>
        <time>2022-03-27T07:52:18Z</time>
      </trkpt>
      <trkpt lat="48.64717" lon="1.74142">
        <ele>166</ele>
        <time>2022-03-27T07:52:20Z</time>
      </trkpt>
      <trkpt lat="48.64719" lon="1.74139">
        <ele>166</ele>
        <time>2022-03-27T07:52:22Z</time>
      </trkpt>
      <trkpt lat="48.6472" lon="1.74137">
        <ele>166</ele>
        <time>2022-03-27T07:52:24Z</time>
      </trkpt>
      <trkpt lat="48.64722" lon="1.74134">
        <ele>166</ele>
        <time>2022-03-27T07:52:26Z</time>
      </trkpt>
      <trkpt lat="48.64723" lon="1.74131">
        <ele>166</ele>
        <time>2022-03-27T07:52:28Z</time>
      </trkpt>
      <trkpt lat="48.64725" lon="1.74128">
        <ele>166</ele>
        <time>2022-03-27T07:52:30Z</time>
      </trkpt>
      <trkpt lat="48.64727" lon="1.74126">
        <ele>166</ele>
        <time>2022-03-27T07:52:32Z</time>
      </trkpt>
      <trkpt lat="48.64729" lon="1.74123">
        <ele>166</ele>
        <time>2022-03-27T07:52:34Z</time>
      </trkpt>
      <trkpt lat="48.6473" lon="1.7412">
        <ele>166</ele>
        <time>2022-03-27T07:52:36Z</time>
      </trkpt>
      <trkpt lat="48.64732" lon="1.74118">
        <ele>167</ele>
        <time>2022-03-27T07:52:38Z</time>
      </trkpt>
      <trkpt lat="48.64734" lon="1.74115">
        <ele>167</ele>
        <time>2022-03-27T07:52:40Z</time>
      </trkpt>
      <trkpt lat="48.64735" lon="1.74112">
        <ele>167</ele>
        <time>2022-03-27T07:52:42Z</time>
      </trkpt>
      <trkpt lat="48.64737" lon="1.74109">
        <ele>167</ele>
        <time>2022-03-27T07:52:44Z</time>
      </trkpt>
      <trkpt lat="48.64739" lon="1.74107">
        <ele>167</ele>
        <time>2022-03-27T07:52:46Z</time>
      </trkpt>
      <trkpt lat="48.64741" lon="1.74104">
        <ele>167</ele>
        <time>2022-03-27T07:52:48Z</time>
      </trkpt>
      <trkpt lat="48.64742" lon="1.74101">
        <ele>167</ele>
        <time>2022-03-27T07:52:50Z</time>
      </trkpt>
      <trkpt lat="48.64744" lon="1.74098">
        <ele>167</ele>
        <time>2022-03-27T07:52:52Z</time>
      </trkpt>
      <trkpt lat="48.64746" lon="1.74096">
        <ele>167</ele>
        <time>2022-03-27T07:52:54Z</time>
      </trkpt>
      <trkpt lat="48.64747" lon="1.74093">
        <ele>167</ele>
        <time>2022-03-27T07:52:56Z</time>
      </trkpt>
      <trkpt lat="48.64749" lon="1.7409">
        <ele>167</ele>
        <time>2022-03-27T07:52:58Z</time>
      </trkpt>
      <trkpt lat="48.64751" lon="1.74088">
        <ele>167</ele>
        <time>2022-03-27T07:53:00Z</time>
      </trkpt>
      <trkpt lat="48.64752" lon="1.74085">
        <ele>167</ele>
        <time>2022-03-27T07:53:02Z</time>
      </trkpt>
      <trkpt lat="48.64754" lon="1.74083">
        <ele>167</ele>
        <time>2022-03-27T07:53:04Z</time>
      </trkpt>
      <trkpt lat="48.64756" lon="1.7408">
        <ele>167</ele>
        <time>2022-03-27T07:53:06Z</time>
      </trkpt>
      <trkpt lat="48.64757" lon="1.74078">
        <ele>167</ele>
        <time>2022-03-27T07:53:08Z</time>
      </trkpt>
      <trkpt lat="48.64759" lon="1.74076">
        <ele>167</ele>
        <time>2022-03-27T07:53:10Z</time>
      </trkpt>
      <trkpt lat="48.64761" lon="1.74073">
        <ele>167</ele>
        <time>2022-03-27T07:53:12Z</time>
      </trkpt>
      <trkpt lat="48.64762" lon="1.7407">
        <ele>167</ele>
        <time>2022-03-27T07:53:14Z</time>
      </trkpt>
      <trkpt lat="48.64764" lon="1.74068">
        <ele>167</ele>
        <time>2022-03-27T07:53:16Z</time>
      </trkpt>
      <trkpt lat="48.64765" lon="1.74065">
        <ele>168</ele>
        <time>2022-03-27T07:53:18Z</time>
      </trkpt>
      <trkpt lat="48.64767" lon="1.74062">
        <ele>168</ele>
        <time>2022-03-27T07:53:20Z</time>
      </trkpt>
      <trkpt lat="48.64769" lon="1.74059">
        <ele>168</ele>
        <time>2022-03-27T07:53:22Z</time>
      </trkpt>
      <trkpt lat="48.6477" lon="1.74056">
        <ele>168</ele>
        <time>2022-03-27T07:53:24Z</time>
      </trkpt>
      <trkpt lat="48.64772" lon="1.74053">
        <ele>168</ele>
        <time>2022-03-27T07:53:26Z</time>
      </trkpt>
      <trkpt lat="48.64773" lon="1.7405">
        <ele>168</ele>
        <time>2022-03-27T07:53:28Z</time>
      </trkpt>
      <trkpt lat="48.64775" lon="1.74047">
        <ele>168</ele>
        <time>2022-03-27T07:53:30Z</time>
      </trkpt>
      <trkpt lat="48.64777" lon="1.74045">
        <ele>168</ele>
        <time>2022-03-27T07:53:32Z</time>
      </trkpt>
      <trkpt lat="48.64778" lon="1.74042">
        <ele>168</ele>
        <time>2022-03-27T07:53:34Z</time>
      </trkpt>
      <trkpt lat="48.6478" lon="1.74039">
        <ele>168</ele>
        <time>2022-03-27T07:53:36Z</time>
      </trkpt>
      <trkpt lat="48.64781" lon="1.74037">
        <ele>168</ele>
        <time>2022-03-27T07:53:38Z</time>
      </trkpt>
      <trkpt lat="48.64783" lon="1.74034">
        <ele>168</ele>
        <time>2022-03-27T07:53:40Z</time>
      </trkpt>
      <trkpt lat="48.64784" lon="1.74032">
        <ele>168</ele>
        <time>2022-03-27T07:53:42Z</time>
      </trkpt>
      <trkpt lat="48.64786" lon="1.74029">
        <ele>168</ele>
        <time>2022-03-27T07:53:44Z</time>
      </trkpt>
      <trkpt lat="48.64787" lon="1.74026">
        <ele>168</ele>
        <time>2022-03-27T07:53:46Z</time>
      </trkpt>
      <trkpt lat="48.64788" lon="1.74023">
        <ele>168</ele>
        <time>2022-03-27T07:53:48Z</time>
      </trkpt>
      <trkpt lat="48.6479" lon="1.7402">
        <ele>168</ele>
        <time>2022-03-27T07:53:50Z</time>
      </trkpt>
      <trkpt lat="48.64791" lon="1.74017">
        <ele>168</ele>
        <time>2022-03-27T07:53:52Z</time>
      </trkpt>
      <trkpt lat="48.64793" lon="1.74014">
        <ele>168</ele>
        <time>2022-03-27T07:53:54Z</time>
      </trkpt>
      <trkpt lat="48.64794" lon="1.74011">
        <ele>169</ele>
        <time>2022-03-27T07:53:56Z</time>
      </trkpt>
      <trkpt lat="48.64796" lon="1.74008">
        <ele>169</ele>
        <time>2022-03-27T07:53:58Z</time>
      </trkpt>
      <trkpt lat="48.64797" lon="1.74005">
        <ele>169</ele>
        <time>2022-03-27T07:54:00Z</time>
      </trkpt>
      <trkpt lat="48.64799" lon="1.74002">
        <ele>169</ele>
        <time>2022-03-27T07:54:02Z</time>
      </trkpt>
      <trkpt lat="48.64801" lon="1.74">
        <ele>170</ele>
        <time>2022-03-27T07:54:04Z</time>
      </trkpt>
      <trkpt lat="48.64802" lon="1.73999">
        <ele>170</ele>
        <time>2022-03-27T07:54:06Z</time>
      </trkpt>
      <trkpt lat="48.64804" lon="1.73996">
        <ele>170</ele>
        <time>2022-03-27T07:54:08Z</time>
      </trkpt>
      <trkpt lat="48.64806" lon="1.73994">
        <ele>171</ele>
        <time>2022-03-27T07:54:10Z</time>
      </trkpt>
      <trkpt lat="48.64808" lon="1.73993">
        <ele>171</ele>
        <time>2022-03-27T07:54:12Z</time>
      </trkpt>
      <trkpt lat="48.6481" lon="1.73995">
        <ele>171</ele>
        <time>2022-03-27T07:54:14Z</time>
      </trkpt>
      <trkpt lat="48.64812" lon="1.73998">
        <ele>171</ele>
        <time>2022-03-27T07:54:16Z</time>
      </trkpt>
      <trkpt lat="48.64814" lon="1.74">
        <ele>171</ele>
        <time>2022-03-27T07:54:17Z</time>
      </trkpt>
      <trkpt lat="48.64816" lon="1.74002">
        <ele>171</ele>
        <time>2022-03-27T07:54:18Z</time>
      </trkpt>
      <trkpt lat="48.64817" lon="1.74004">
        <ele>171</ele>
        <time>2022-03-27T07:54:19Z</time>
      </trkpt>
      <trkpt lat="48.64819" lon="1.74005">
        <ele>171</ele>
        <time>2022-03-27T07:54:20Z</time>
      </trkpt>
      <trkpt lat="48.6482" lon="1.74007">
        <ele>170</ele>
        <time>2022-03-27T07:54:21Z</time>
      </trkpt>
      <trkpt lat="48.64822" lon="1.7401">
        <ele>170</ele>
        <time>2022-03-27T07:54:23Z</time>
      </trkpt>
      <trkpt lat="48.64824" lon="1.74012">
        <ele>170</ele>
        <time>2022-03-27T07:54:25Z</time>
      </trkpt>
      <trkpt lat="48.64827" lon="1.74015">
        <ele>170</ele>
        <time>2022-03-27T07:54:27Z</time>
      </trkpt>
      <trkpt lat="48.64829" lon="1.74018">
        <ele>170</ele>
        <time>2022-03-27T07:54:29Z</time>
      </trkpt>
      <trkpt lat="48.64831" lon="1.7402">
        <ele>170</ele>
        <time>2022-03-27T07:54:31Z</time>
      </trkpt>
      <trkpt lat="48.64833" lon="1.74022">
        <ele>171</ele>
        <time>2022-03-27T07:54:33Z</time>
      </trkpt>
      <trkpt lat="48.64834" lon="1.74024">
        <ele>171</ele>
        <time>2022-03-27T07:54:35Z</time>
      </trkpt>
      <trkpt lat="48.64834" lon="1.74027">
        <ele>171</ele>
        <time>2022-03-27T07:54:38Z</time>
      </trkpt>
      <trkpt lat="48.64836" lon="1.7403">
        <ele>171</ele>
        <time>2022-03-27T07:54:41Z</time>
      </trkpt>
      <trkpt lat="48.64835" lon="1.74033">
        <ele>171</ele>
        <time>2022-03-27T07:54:43Z</time>
      </trkpt>
      <trkpt lat="48.64837" lon="1.74035">
        <ele>172</ele>
        <time>2022-03-27T07:54:47Z</time>
      </trkpt>
      <trkpt lat="48.64838" lon="1.74038">
        <ele>172</ele>
        <time>2022-03-27T07:54:49Z</time>
      </trkpt>
      <trkpt lat="48.6484" lon="1.74041">
        <ele>172</ele>
        <time>2022-03-27T07:54:51Z</time>
      </trkpt>
      <trkpt lat="48.64842" lon="1.74044">
        <ele>172</ele>
        <time>2022-03-27T07:54:53Z</time>
      </trkpt>
      <trkpt lat="48.64844" lon="1.74047">
        <ele>172</ele>
        <time>2022-03-27T07:54:55Z</time>
      </trkpt>
      <trkpt lat="48.64846" lon="1.74049">
        <ele>172</ele>
        <time>2022-03-27T07:54:57Z</time>
      </trkpt>
      <trkpt lat="48.64847" lon="1.74052">
        <ele>172</ele>
        <time>2022-03-27T07:54:59Z</time>
      </trkpt>
      <trkpt lat="48.64849" lon="1.74056">
        <ele>172</ele>
        <time>2022-03-27T07:55:01Z</time>
      </trkpt>
      <trkpt lat="48.6485" lon="1.74058">
        <ele>173</ele>
        <time>2022-03-27T07:55:03Z</time>
      </trkpt>
      <trkpt lat="48.64852" lon="1.74062">
        <ele>173</ele>
        <time>2022-03-27T07:55:05Z</time>
      </trkpt>
      <trkpt lat="48.64853" lon="1.74065">
        <ele>173</ele>
        <time>2022-03-27T07:55:07Z</time>
      </trkpt>
      <trkpt lat="48.64855" lon="1.74068">
        <ele>172</ele>
        <time>2022-03-27T07:55:09Z</time>
      </trkpt>
      <trkpt lat="48.64856" lon="1.74072">
        <ele>172</ele>
        <time>2022-03-27T07:55:11Z</time>
      </trkpt>
      <trkpt lat="48.64858" lon="1.74075">
        <ele>172</ele>
        <time>2022-03-27T07:55:13Z</time>
      </trkpt>
      <trkpt lat="48.64859" lon="1.74077">
        <ele>172</ele>
        <time>2022-03-27T07:55:15Z</time>
      </trkpt>
      <trkpt lat="48.6486" lon="1.7408">
        <ele>172</ele>
        <time>2022-03-27T07:55:17Z</time>
      </trkpt>
      <trkpt lat="48.64862" lon="1.74084">
        <ele>171</ele>
        <time>2022-03-27T07:55:19Z</time>
      </trkpt>
      <trkpt lat="48.64863" lon="1.74087">
        <ele>171</ele>
        <time>2022-03-27T07:55:21Z</time>
      </trkpt>
      <trkpt lat="48.64864" lon="1.7409">
        <ele>171</ele>
        <time>2022-03-27T07:55:23Z</time>
      </trkpt>
      <trkpt lat="48.64866" lon="1.74093">
        <ele>171</ele>
        <time>2022-03-27T07:55:25Z</time>
      </trkpt>
      <trkpt lat="48.64868" lon="1.74095">
        <ele>171</ele>
        <time>2022-03-27T07:55:27Z</time>
      </trkpt>
      <trkpt lat="48.6487" lon="1.74098">
        <ele>171</ele>
        <time>2022-03-27T07:55:29Z</time>
      </trkpt>
      <trkpt lat="48.64871" lon="1.74101">
        <ele>171</ele>
        <time>2022-03-27T07:55:31Z</time>
      </trkpt>
      <trkpt lat="48.64872" lon="1.74104">
        <ele>171</ele>
        <time>2022-03-27T07:55:33Z</time>
      </trkpt>
      <trkpt lat="48.64873" lon="1.74107">
        <ele>171</ele>
        <time>2022-03-27T07:55:35Z</time>
      </trkpt>
      <trkpt lat="48.64874" lon="1.7411">
        <ele>171</ele>
        <time>2022-03-27T07:55:37Z</time>
      </trkpt>
      <trkpt lat="48.64876" lon="1.74114">
        <ele>171</ele>
        <time>2022-03-27T07:55:39Z</time>
      </trkpt>
      <trkpt lat="48.64878" lon="1.74118">
        <ele>171</ele>
        <time>2022-03-27T07:55:41Z</time>
      </trkpt>
      <trkpt lat="48.6488" lon="1.74121">
        <ele>171</ele>
        <time>2022-03-27T07:55:43Z</time>
      </trkpt>
      <trkpt lat="48.64881" lon="1.74124">
        <ele>170</ele>
        <time>2022-03-27T07:55:45Z</time>
      </trkpt>
      <trkpt lat="48.64883" lon="1.74127">
        <ele>170</ele>
        <time>2022-03-27T07:55:47Z</time>
      </trkpt>
      <trkpt lat="48.64884" lon="1.7413">
        <ele>170</ele>
        <time>2022-03-27T07:55:49Z</time>
      </trkpt>
      <trkpt lat="48.64885" lon="1.74132">
        <ele>170</ele>
        <time>2022-03-27T07:55:51Z</time>
      </trkpt>
      <trkpt lat="48.64887" lon="1.74134">
        <ele>170</ele>
        <time>2022-03-27T07:55:53Z</time>
      </trkpt>
      <trkpt lat="48.64889" lon="1.74137">
        <ele>170</ele>
        <time>2022-03-27T07:55:55Z</time>
      </trkpt>
      <trkpt lat="48.6489" lon="1.7414">
        <ele>170</ele>
        <time>2022-03-27T07:55:57Z</time>
      </trkpt>
      <trkpt lat="48.64892" lon="1.74143">
        <ele>170</ele>
        <time>2022-03-27T07:55:59Z</time>
      </trkpt>
      <trkpt lat="48.64894" lon="1.74146">
        <ele>170</ele>
        <time>2022-03-27T07:56:01Z</time>
      </trkpt>
      <trkpt lat="48.64895" lon="1.74149">
        <ele>170</ele>
        <time>2022-03-27T07:56:03Z</time>
      </trkpt>
      <trkpt lat="48.64897" lon="1.74153">
        <ele>170</ele>
        <time>2022-03-27T07:56:05Z</time>
      </trkpt>
      <trkpt lat="48.64899" lon="1.74155">
        <ele>170</ele>
        <time>2022-03-27T07:56:07Z</time>
      </trkpt>
      <trkpt lat="48.64901" lon="1.74157">
        <ele>170</ele>
        <time>2022-03-27T07:56:09Z</time>
      </trkpt>
      <trkpt lat="48.64903" lon="1.74159">
        <ele>170</ele>
        <time>2022-03-27T07:56:11Z</time>
      </trkpt>
      <trkpt lat="48.64904" lon="1.74163">
        <ele>170</ele>
        <time>2022-03-27T07:56:13Z</time>
      </trkpt>
      <trkpt lat="48.64905" lon="1.74167">
        <ele>170</ele>
        <time>2022-03-27T07:56:15Z</time>
      </trkpt>
      <trkpt lat="48.64906" lon="1.7417">
        <ele>170</ele>
        <time>2022-03-27T07:56:17Z</time>
      </trkpt>
      <trkpt lat="48.64908" lon="1.74173">
        <ele>170</ele>
        <time>2022-03-27T07:56:19Z</time>
      </trkpt>
      <trkpt lat="48.64909" lon="1.74176">
        <ele>170</ele>
        <time>2022-03-27T07:56:21Z</time>
      </trkpt>
      <trkpt lat="48.6491" lon="1.74179">
        <ele>170</ele>
        <time>2022-03-27T07:56:23Z</time>
      </trkpt>
      <trkpt lat="48.64912" lon="1.74181">
        <ele>171</ele>
        <time>2022-03-27T07:56:25Z</time>
      </trkpt>
      <trkpt lat="48.64913" lon="1.74183">
        <ele>171</ele>
        <time>2022-03-27T07:56:27Z</time>
      </trkpt>
      <trkpt lat="48.64914" lon="1.74186">
        <ele>171</ele>
        <time>2022-03-27T07:56:29Z</time>
      </trkpt>
      <trkpt lat="48.64915" lon="1.74188">
        <ele>171</ele>
        <time>2022-03-27T07:56:31Z</time>
      </trkpt>
      <trkpt lat="48.64916" lon="1.74191">
        <ele>171</ele>
        <time>2022-03-27T07:56:33Z</time>
      </trkpt>
      <trkpt lat="48.64916" lon="1.74194">
        <ele>171</ele>
        <time>2022-03-27T07:56:35Z</time>
      </trkpt>
      <trkpt lat="48.64917" lon="1.74198">
        <ele>171</ele>
        <time>2022-03-27T07:56:37Z</time>
      </trkpt>
      <trkpt lat="48.64919" lon="1.742">
        <ele>172</ele>
        <time>2022-03-27T07:56:39Z</time>
      </trkpt>
      <trkpt lat="48.6492" lon="1.74203">
        <ele>172</ele>
        <time>2022-03-27T07:56:41Z</time>
      </trkpt>
      <trkpt lat="48.64921" lon="1.74206">
        <ele>172</ele>
        <time>2022-03-27T07:56:43Z</time>
      </trkpt>
      <trkpt lat="48.64923" lon="1.74209">
        <ele>172</ele>
        <time>2022-03-27T07:56:45Z</time>
      </trkpt>
      <trkpt lat="48.64924" lon="1.74212">
        <ele>172</ele>
        <time>2022-03-27T07:56:47Z</time>
      </trkpt>
      <trkpt lat="48.64926" lon="1.74214">
        <ele>172</ele>
        <time>2022-03-27T07:56:49Z</time>
      </trkpt>
      <trkpt lat="48.64928" lon="1.74217">
        <ele>173</ele>
        <time>2022-03-27T07:56:52Z</time>
      </trkpt>
      <trkpt lat="48.64929" lon="1.7422">
        <ele>172</ele>
        <time>2022-03-27T07:56:55Z</time>
      </trkpt>
      <trkpt lat="48.64931" lon="1.74224">
        <ele>172</ele>
        <time>2022-03-27T07:56:58Z</time>
      </trkpt>
      <trkpt lat="48.64932" lon="1.74227">
        <ele>172</ele>
        <time>2022-03-27T07:57:00Z</time>
      </trkpt>
      <trkpt lat="48.64934" lon="1.7423">
        <ele>171</ele>
        <time>2022-03-27T07:57:02Z</time>
      </trkpt>
      <trkpt lat="48.64936" lon="1.74234">
        <ele>171</ele>
        <time>2022-03-27T07:57:04Z</time>
      </trkpt>
      <trkpt lat="48.64937" lon="1.74237">
        <ele>171</ele>
        <time>2022-03-27T07:57:06Z</time>
      </trkpt>
      <trkpt lat="48.6494" lon="1.7424">
        <ele>171</ele>
        <time>2022-03-27T07:57:08Z</time>
      </trkpt>
      <trkpt lat="48.64942" lon="1.74243">
        <ele>170</ele>
        <time>2022-03-27T07:57:10Z</time>
      </trkpt>
      <trkpt lat="48.64944" lon="1.74246">
        <ele>171</ele>
        <time>2022-03-27T07:57:12Z</time>
      </trkpt>
      <trkpt lat="48.64946" lon="1.74249">
        <ele>170</ele>
        <time>2022-03-27T07:57:14Z</time>
      </trkpt>
      <trkpt lat="48.64948" lon="1.74253">
        <ele>170</ele>
        <time>2022-03-27T07:57:16Z</time>
      </trkpt>
      <trkpt lat="48.6495" lon="1.74256">
        <ele>170</ele>
        <time>2022-03-27T07:57:18Z</time>
      </trkpt>
      <trkpt lat="48.64953" lon="1.74258">
        <ele>170</ele>
        <time>2022-03-27T07:57:20Z</time>
      </trkpt>
      <trkpt lat="48.64954" lon="1.74261">
        <ele>171</ele>
        <time>2022-03-27T07:57:22Z</time>
      </trkpt>
      <trkpt lat="48.64955" lon="1.74265">
        <ele>171</ele>
        <time>2022-03-27T07:57:24Z</time>
      </trkpt>
      <trkpt lat="48.64957" lon="1.74268">
        <ele>171</ele>
        <time>2022-03-27T07:57:26Z</time>
      </trkpt>
      <trkpt lat="48.64958" lon="1.74271">
        <ele>171</ele>
        <time>2022-03-27T07:57:28Z</time>
      </trkpt>
      <trkpt lat="48.6496" lon="1.74274">
        <ele>171</ele>
        <time>2022-03-27T07:57:30Z</time>
      </trkpt>
      <trkpt lat="48.64961" lon="1.74278">
        <ele>171</ele>
        <time>2022-03-27T07:57:32Z</time>
      </trkpt>
      <trkpt lat="48.64963" lon="1.74281">
        <ele>171</ele>
        <time>2022-03-27T07:57:34Z</time>
      </trkpt>
      <trkpt lat="48.64964" lon="1.74284">
        <ele>171</ele>
        <time>2022-03-27T07:57:36Z</time>
      </trkpt>
      <trkpt lat="48.64966" lon="1.74287">
        <ele>170</ele>
        <time>2022-03-27T07:57:38Z</time>
      </trkpt>
      <trkpt lat="48.64967" lon="1.7429">
        <ele>170</ele>
        <time>2022-03-27T07:57:40Z</time>
      </trkpt>
      <trkpt lat="48.64968" lon="1.74294">
        <ele>170</ele>
        <time>2022-03-27T07:57:42Z</time>
      </trkpt>
      <trkpt lat="48.6497" lon="1.74298">
        <ele>170</ele>
        <time>2022-03-27T07:57:44Z</time>
      </trkpt>
      <trkpt lat="48.64971" lon="1.74301">
        <ele>170</ele>
        <time>2022-03-27T07:57:46Z</time>
      </trkpt>
      <trkpt lat="48.64972" lon="1.74305">
        <ele>170</ele>
        <time>2022-03-27T07:57:48Z</time>
      </trkpt>
      <trkpt lat="48.64973" lon="1.74308">
        <ele>170</ele>
        <time>2022-03-27T07:57:50Z</time>
      </trkpt>
      <trkpt lat="48.64975" lon="1.74312">
        <ele>170</ele>
        <time>2022-03-27T07:57:52Z</time>
      </trkpt>
      <trkpt lat="48.64977" lon="1.74315">
        <ele>170</ele>
        <time>2022-03-27T07:57:54Z</time>
      </trkpt>
      <trkpt lat="48.64979" lon="1.74318">
        <ele>170</ele>
        <time>2022-03-27T07:57:56Z</time>
      </trkpt>
      <trkpt lat="48.64981" lon="1.74322">
        <ele>170</ele>
        <time>2022-03-27T07:57:58Z</time>
      </trkpt>
      <trkpt lat="48.64982" lon="1.74325">
        <ele>170</ele>
        <time>2022-03-27T07:58:00Z</time>
      </trkpt>
      <trkpt lat="48.64984" lon="1.74329">
        <ele>170</ele>
        <time>2022-03-27T07:58:02Z</time>
      </trkpt>
      <trkpt lat="48.64985" lon="1.74332">
        <ele>170</ele>
        <time>2022-03-27T07:58:04Z</time>
      </trkpt>
      <trkpt lat="48.64986" lon="1.74335">
        <ele>170</ele>
        <time>2022-03-27T07:58:06Z</time>
      </trkpt>
      <trkpt lat="48.64987" lon="1.74338">
        <ele>170</ele>
        <time>2022-03-27T07:58:08Z</time>
      </trkpt>
      <trkpt lat="48.64988" lon="1.74341">
        <ele>170</ele>
        <time>2022-03-27T07:58:10Z</time>
      </trkpt>
      <trkpt lat="48.64989" lon="1.74344">
        <ele>169</ele>
        <time>2022-03-27T07:58:12Z</time>
      </trkpt>
      <trkpt lat="48.64991" lon="1.74347">
        <ele>169</ele>
        <time>2022-03-27T07:58:14Z</time>
      </trkpt>
      <trkpt lat="48.64992" lon="1.7435">
        <ele>169</ele>
        <time>2022-03-27T07:58:16Z</time>
      </trkpt>
      <trkpt lat="48.64994" lon="1.74353">
        <ele>169</ele>
        <time>2022-03-27T07:58:18Z</time>
      </trkpt>
      <trkpt lat="48.64996" lon="1.74356">
        <ele>169</ele>
        <time>2022-03-27T07:58:20Z</time>
      </trkpt>
      <trkpt lat="48.64998" lon="1.7436">
        <ele>169</ele>
        <time>2022-03-27T07:58:22Z</time>
      </trkpt>
      <trkpt lat="48.64999" lon="1.74363">
        <ele>169</ele>
        <time>2022-03-27T07:58:24Z</time>
      </trkpt>
      <trkpt lat="48.65001" lon="1.74365">
        <ele>169</ele>
        <time>2022-03-27T07:58:26Z</time>
      </trkpt>
      <trkpt lat="48.65002" lon="1.74367">
        <ele>169</ele>
        <time>2022-03-27T07:58:34Z</time>
      </trkpt>
      <trkpt lat="48.65004" lon="1.74368">
        <ele>170</ele>
        <time>2022-03-27T07:58:37Z</time>
      </trkpt>
      <trkpt lat="48.65005" lon="1.74371">
        <ele>170</ele>
        <time>2022-03-27T07:59:03Z</time>
      </trkpt>
      <trkpt lat="48.65006" lon="1.74374">
        <ele>170</ele>
        <time>2022-03-27T07:59:06Z</time>
      </trkpt>
      <trkpt lat="48.65008" lon="1.74378">
        <ele>170</ele>
        <time>2022-03-27T07:59:08Z</time>
      </trkpt>
      <trkpt lat="48.6501" lon="1.74381">
        <ele>170</ele>
        <time>2022-03-27T07:59:10Z</time>
      </trkpt>
      <trkpt lat="48.65012" lon="1.74385">
        <ele>170</ele>
        <time>2022-03-27T07:59:12Z</time>
      </trkpt>
      <trkpt lat="48.65014" lon="1.74389">
        <ele>170</ele>
        <time>2022-03-27T07:59:14Z</time>
      </trkpt>
      <trkpt lat="48.65016" lon="1.74393">
        <ele>170</ele>
        <time>2022-03-27T07:59:16Z</time>
      </trkpt>
      <trkpt lat="48.65018" lon="1.74397">
        <ele>170</ele>
        <time>2022-03-27T07:59:18Z</time>
      </trkpt>
      <trkpt lat="48.65019" lon="1.74401">
        <ele>170</ele>
        <time>2022-03-27T07:59:20Z</time>
      </trkpt>
      <trkpt lat="48.65021" lon="1.74404">
        <ele>170</ele>
        <time>2022-03-27T07:59:22Z</time>
      </trkpt>
      <trkpt lat="48.65022" lon="1.74407">
        <ele>170</ele>
        <time>2022-03-27T07:59:24Z</time>
      </trkpt>
      <trkpt lat="48.65024" lon="1.7441">
        <ele>170</ele>
        <time>2022-03-27T07:59:26Z</time>
      </trkpt>
      <trkpt lat="48.65026" lon="1.74414">
        <ele>170</ele>
        <time>2022-03-27T07:59:28Z</time>
      </trkpt>
      <trkpt lat="48.65028" lon="1.74417">
        <ele>170</ele>
        <time>2022-03-27T07:59:30Z</time>
      </trkpt>
      <trkpt lat="48.6503" lon="1.7442">
        <ele>170</ele>
        <time>2022-03-27T07:59:32Z</time>
      </trkpt>
      <trkpt lat="48.65031" lon="1.74424">
        <ele>170</ele>
        <time>2022-03-27T07:59:34Z</time>
      </trkpt>
      <trkpt lat="48.65033" lon="1.74427">
        <ele>170</ele>
        <time>2022-03-27T07:59:36Z</time>
      </trkpt>
      <trkpt lat="48.65035" lon="1.7443">
        <ele>170</ele>
        <time>2022-03-27T07:59:38Z</time>
      </trkpt>
      <trkpt lat="48.65036" lon="1.74433">
        <ele>170</ele>
        <time>2022-03-27T07:59:40Z</time>
      </trkpt>
      <trkpt lat="48.65038" lon="1.74436">
        <ele>170</ele>
        <time>2022-03-27T07:59:42Z</time>
      </trkpt>
      <trkpt lat="48.65039" lon="1.7444">
        <ele>170</ele>
        <time>2022-03-27T07:59:44Z</time>
      </trkpt>
      <trkpt lat="48.6504" lon="1.74443">
        <ele>170</ele>
        <time>2022-03-27T07:59:46Z</time>
      </trkpt>
      <trkpt lat="48.65042" lon="1.74446">
        <ele>171</ele>
        <time>2022-03-27T07:59:48Z</time>
      </trkpt>
      <trkpt lat="48.65043" lon="1.74449">
        <ele>171</ele>
        <time>2022-03-27T07:59:50Z</time>
      </trkpt>
      <trkpt lat="48.65044" lon="1.74452">
        <ele>171</ele>
        <time>2022-03-27T07:59:52Z</time>
      </trkpt>
      <trkpt lat="48.65045" lon="1.74455">
        <ele>171</ele>
        <time>2022-03-27T07:59:55Z</time>
      </trkpt>
      <trkpt lat="48.65047" lon="1.74458">
        <ele>171</ele>
        <time>2022-03-27T07:59:58Z</time>
      </trkpt>
      <trkpt lat="48.65049" lon="1.7446">
        <ele>171</ele>
        <time>2022-03-27T08:00:01Z</time>
      </trkpt>
      <trkpt lat="48.65051" lon="1.74463">
        <ele>172</ele>
        <time>2022-03-27T08:00:03Z</time>
      </trkpt>
      <trkpt lat="48.65052" lon="1.74467">
        <ele>172</ele>
        <time>2022-03-27T08:00:05Z</time>
      </trkpt>
      <trkpt lat="48.65054" lon="1.74471">
        <ele>172</ele>
        <time>2022-03-27T08:00:07Z</time>
      </trkpt>
      <trkpt lat="48.65056" lon="1.74475">
        <ele>172</ele>
        <time>2022-03-27T08:00:09Z</time>
      </trkpt>
      <trkpt lat="48.65057" lon="1.74478">
        <ele>172</ele>
        <time>2022-03-27T08:00:10Z</time>
      </trkpt>
      <trkpt lat="48.65058" lon="1.7448">
        <ele>172</ele>
        <time>2022-03-27T08:00:11Z</time>
      </trkpt>
      <trkpt lat="48.65059" lon="1.74484">
        <ele>172</ele>
        <time>2022-03-27T08:00:13Z</time>
      </trkpt>
      <trkpt lat="48.6506" lon="1.74486">
        <ele>172</ele>
        <time>2022-03-27T08:00:15Z</time>
      </trkpt>
      <trkpt lat="48.65061" lon="1.74489">
        <ele>172</ele>
        <time>2022-03-27T08:00:17Z</time>
      </trkpt>
      <trkpt lat="48.65064" lon="1.74494">
        <ele>172</ele>
        <time>2022-03-27T08:00:19Z</time>
      </trkpt>
      <trkpt lat="48.65065" lon="1.74496">
        <ele>171</ele>
        <time>2022-03-27T08:00:20Z</time>
      </trkpt>
      <trkpt lat="48.65066" lon="1.74498">
        <ele>171</ele>
        <time>2022-03-27T08:00:21Z</time>
      </trkpt>
      <trkpt lat="48.65068" lon="1.74502">
        <ele>171</ele>
        <time>2022-03-27T08:00:23Z</time>
      </trkpt>
      <trkpt lat="48.6507" lon="1.74505">
        <ele>171</ele>
        <time>2022-03-27T08:00:25Z</time>
      </trkpt>
      <trkpt lat="48.65072" lon="1.74509">
        <ele>171</ele>
        <time>2022-03-27T08:00:27Z</time>
      </trkpt>
      <trkpt lat="48.65074" lon="1.74512">
        <ele>171</ele>
        <time>2022-03-27T08:00:29Z</time>
      </trkpt>
      <trkpt lat="48.65076" lon="1.74515">
        <ele>171</ele>
        <time>2022-03-27T08:00:31Z</time>
      </trkpt>
      <trkpt lat="48.65078" lon="1.74518">
        <ele>171</ele>
        <time>2022-03-27T08:00:33Z</time>
      </trkpt>
      <trkpt lat="48.65079" lon="1.74522">
        <ele>171</ele>
        <time>2022-03-27T08:00:35Z</time>
      </trkpt>
      <trkpt lat="48.65081" lon="1.74525">
        <ele>171</ele>
        <time>2022-03-27T08:00:37Z</time>
      </trkpt>
      <trkpt lat="48.65083" lon="1.74528">
        <ele>171</ele>
        <time>2022-03-27T08:00:39Z</time>
      </trkpt>
      <trkpt lat="48.65084" lon="1.74531">
        <ele>171</ele>
        <time>2022-03-27T08:00:41Z</time>
      </trkpt>
      <trkpt lat="48.65085" lon="1.74534">
        <ele>171</ele>
        <time>2022-03-27T08:00:43Z</time>
      </trkpt>
      <trkpt lat="48.65087" lon="1.74537">
        <ele>171</ele>
        <time>2022-03-27T08:00:45Z</time>
      </trkpt>
      <trkpt lat="48.65088" lon="1.7454">
        <ele>171</ele>
        <time>2022-03-27T08:00:47Z</time>
      </trkpt>
      <trkpt lat="48.65089" lon="1.74544">
        <ele>171</ele>
        <time>2022-03-27T08:00:49Z</time>
      </trkpt>
      <trkpt lat="48.65091" lon="1.74547">
        <ele>170</ele>
        <time>2022-03-27T08:00:51Z</time>
      </trkpt>
      <trkpt lat="48.65092" lon="1.7455">
        <ele>170</ele>
        <time>2022-03-27T08:00:53Z</time>
      </trkpt>
      <trkpt lat="48.65094" lon="1.74553">
        <ele>170</ele>
        <time>2022-03-27T08:00:55Z</time>
      </trkpt>
      <trkpt lat="48.65095" lon="1.74555">
        <ele>170</ele>
        <time>2022-03-27T08:00:57Z</time>
      </trkpt>
      <trkpt lat="48.65097" lon="1.74558">
        <ele>170</ele>
        <time>2022-03-27T08:00:59Z</time>
      </trkpt>
      <trkpt lat="48.65099" lon="1.74561">
        <ele>170</ele>
        <time>2022-03-27T08:01:01Z</time>
      </trkpt>
      <trkpt lat="48.65101" lon="1.74564">
        <ele>170</ele>
        <time>2022-03-27T08:01:03Z</time>
      </trkpt>
      <trkpt lat="48.65103" lon="1.74567">
        <ele>170</ele>
        <time>2022-03-27T08:01:05Z</time>
      </trkpt>
      <trkpt lat="48.65106" lon="1.74571">
        <ele>170</ele>
        <time>2022-03-27T08:01:07Z</time>
      </trkpt>
      <trkpt lat="48.65108" lon="1.74575">
        <ele>170</ele>
        <time>2022-03-27T08:01:09Z</time>
      </trkpt>
      <trkpt lat="48.65109" lon="1.74577">
        <ele>170</ele>
        <time>2022-03-27T08:01:10Z</time>
      </trkpt>
      <trkpt lat="48.6511" lon="1.7458">
        <ele>170</ele>
        <time>2022-03-27T08:01:11Z</time>
      </trkpt>
      <trkpt lat="48.65112" lon="1.74582">
        <ele>170</ele>
        <time>2022-03-27T08:01:12Z</time>
      </trkpt>
      <trkpt lat="48.65113" lon="1.74585">
        <ele>170</ele>
        <time>2022-03-27T08:01:14Z</time>
      </trkpt>
      <trkpt lat="48.65115" lon="1.74589">
        <ele>170</ele>
        <time>2022-03-27T08:01:16Z</time>
      </trkpt>
      <trkpt lat="48.65116" lon="1.74592">
        <ele>170</ele>
        <time>2022-03-27T08:01:18Z</time>
      </trkpt>
      <trkpt lat="48.65117" lon="1.74594">
        <ele>170</ele>
        <time>2022-03-27T08:01:20Z</time>
      </trkpt>
      <trkpt lat="48.65118" lon="1.74597">
        <ele>170</ele>
        <time>2022-03-27T08:01:22Z</time>
      </trkpt>
      <trkpt lat="48.65119" lon="1.74599">
        <ele>170</ele>
        <time>2022-03-27T08:01:24Z</time>
      </trkpt>
      <trkpt lat="48.65121" lon="1.74602">
        <ele>171</ele>
        <time>2022-03-27T08:01:26Z</time>
      </trkpt>
      <trkpt lat="48.65123" lon="1.74606">
        <ele>171</ele>
        <time>2022-03-27T08:01:28Z</time>
      </trkpt>
      <trkpt lat="48.65124" lon="1.74609">
        <ele>171</ele>
        <time>2022-03-27T08:01:30Z</time>
      </trkpt>
      <trkpt lat="48.65125" lon="1.74612">
        <ele>171</ele>
        <time>2022-03-27T08:01:32Z</time>
      </trkpt>
      <trkpt lat="48.65127" lon="1.74616">
        <ele>171</ele>
        <time>2022-03-27T08:01:34Z</time>
      </trkpt>
      <trkpt lat="48.65129" lon="1.74619">
        <ele>171</ele>
        <time>2022-03-27T08:01:36Z</time>
      </trkpt>
      <trkpt lat="48.65131" lon="1.74622">
        <ele>171</ele>
        <time>2022-03-27T08:01:38Z</time>
      </trkpt>
      <trkpt lat="48.65132" lon="1.74626">
        <ele>170</ele>
        <time>2022-03-27T08:01:40Z</time>
      </trkpt>
      <trkpt lat="48.65134" lon="1.74629">
        <ele>170</ele>
        <time>2022-03-27T08:01:42Z</time>
      </trkpt>
      <trkpt lat="48.65135" lon="1.74632">
        <ele>170</ele>
        <time>2022-03-27T08:01:44Z</time>
      </trkpt>
      <trkpt lat="48.65137" lon="1.74634">
        <ele>170</ele>
        <time>2022-03-27T08:01:46Z</time>
      </trkpt>
      <trkpt lat="48.65139" lon="1.74637">
        <ele>170</ele>
        <time>2022-03-27T08:01:48Z</time>
      </trkpt>
      <trkpt lat="48.65141" lon="1.7464">
        <ele>171</ele>
        <time>2022-03-27T08:01:50Z</time>
      </trkpt>
      <trkpt lat="48.65143" lon="1.74643">
        <ele>171</ele>
        <time>2022-03-27T08:01:52Z</time>
      </trkpt>
      <trkpt lat="48.65144" lon="1.74647">
        <ele>171</ele>
        <time>2022-03-27T08:01:54Z</time>
      </trkpt>
      <trkpt lat="48.65145" lon="1.7465">
        <ele>171</ele>
        <time>2022-03-27T08:01:55Z</time>
      </trkpt>
      <trkpt lat="48.65147" lon="1.74653">
        <ele>171</ele>
        <time>2022-03-27T08:01:57Z</time>
      </trkpt>
      <trkpt lat="48.65149" lon="1.74656">
        <ele>171</ele>
        <time>2022-03-27T08:01:59Z</time>
      </trkpt>
      <trkpt lat="48.6515" lon="1.74658">
        <ele>171</ele>
        <time>2022-03-27T08:02:01Z</time>
      </trkpt>
      <trkpt lat="48.65152" lon="1.7466">
        <ele>171</ele>
        <time>2022-03-27T08:02:02Z</time>
      </trkpt>
      <trkpt lat="48.65153" lon="1.74662">
        <ele>171</ele>
        <time>2022-03-27T08:02:03Z</time>
      </trkpt>
      <trkpt lat="48.65156" lon="1.74665">
        <ele>170</ele>
        <time>2022-03-27T08:02:05Z</time>
      </trkpt>
      <trkpt lat="48.65157" lon="1.74668">
        <ele>170</ele>
        <time>2022-03-27T08:02:07Z</time>
      </trkpt>
      <trkpt lat="48.65158" lon="1.7467">
        <ele>170</ele>
        <time>2022-03-27T08:02:08Z</time>
      </trkpt>
      <trkpt lat="48.6516" lon="1.74674">
        <ele>170</ele>
        <time>2022-03-27T08:02:10Z</time>
      </trkpt>
      <trkpt lat="48.65162" lon="1.74678">
        <ele>170</ele>
        <time>2022-03-27T08:02:12Z</time>
      </trkpt>
      <trkpt lat="48.65163" lon="1.74681">
        <ele>170</ele>
        <time>2022-03-27T08:02:14Z</time>
      </trkpt>
      <trkpt lat="48.65164" lon="1.74684">
        <ele>171</ele>
        <time>2022-03-27T08:02:16Z</time>
      </trkpt>
      <trkpt lat="48.65167" lon="1.74687">
        <ele>171</ele>
        <time>2022-03-27T08:02:18Z</time>
      </trkpt>
      <trkpt lat="48.65169" lon="1.7469">
        <ele>171</ele>
        <time>2022-03-27T08:02:20Z</time>
      </trkpt>
      <trkpt lat="48.65171" lon="1.74694">
        <ele>172</ele>
        <time>2022-03-27T08:02:22Z</time>
      </trkpt>
      <trkpt lat="48.65173" lon="1.74697">
        <ele>172</ele>
        <time>2022-03-27T08:02:24Z</time>
      </trkpt>
      <trkpt lat="48.65175" lon="1.74701">
        <ele>172</ele>
        <time>2022-03-27T08:02:26Z</time>
      </trkpt>
      <trkpt lat="48.65177" lon="1.74704">
        <ele>172</ele>
        <time>2022-03-27T08:02:28Z</time>
      </trkpt>
      <trkpt lat="48.65179" lon="1.74707">
        <ele>172</ele>
        <time>2022-03-27T08:02:30Z</time>
      </trkpt>
      <trkpt lat="48.6518" lon="1.7471">
        <ele>172</ele>
        <time>2022-03-27T08:02:32Z</time>
      </trkpt>
      <trkpt lat="48.65182" lon="1.74713">
        <ele>172</ele>
        <time>2022-03-27T08:02:34Z</time>
      </trkpt>
      <trkpt lat="48.65183" lon="1.74716">
        <ele>172</ele>
        <time>2022-03-27T08:02:36Z</time>
      </trkpt>
      <trkpt lat="48.65184" lon="1.7472">
        <ele>172</ele>
        <time>2022-03-27T08:02:38Z</time>
      </trkpt>
      <trkpt lat="48.65186" lon="1.74723">
        <ele>172</ele>
        <time>2022-03-27T08:02:40Z</time>
      </trkpt>
      <trkpt lat="48.65187" lon="1.74727">
        <ele>172</ele>
        <time>2022-03-27T08:02:42Z</time>
      </trkpt>
      <trkpt lat="48.65189" lon="1.7473">
        <ele>172</ele>
        <time>2022-03-27T08:02:44Z</time>
      </trkpt>
      <trkpt lat="48.65191" lon="1.74733">
        <ele>172</ele>
        <time>2022-03-27T08:02:46Z</time>
      </trkpt>
      <trkpt lat="48.65193" lon="1.74737">
        <ele>172</ele>
        <time>2022-03-27T08:02:48Z</time>
      </trkpt>
      <trkpt lat="48.65195" lon="1.74739">
        <ele>172</ele>
        <time>2022-03-27T08:02:50Z</time>
      </trkpt>
      <trkpt lat="48.65193" lon="1.7474">
        <ele>172</ele>
        <time>2022-03-27T08:03:12Z</time>
      </trkpt>
      <trkpt lat="48.65194" lon="1.74744">
        <ele>171</ele>
        <time>2022-03-27T08:03:16Z</time>
      </trkpt>
      <trkpt lat="48.65195" lon="1.74747">
        <ele>171</ele>
        <time>2022-03-27T08:03:18Z</time>
      </trkpt>
      <trkpt lat="48.65196" lon="1.74749">
        <ele>171</ele>
        <time>2022-03-27T08:03:20Z</time>
      </trkpt>
      <trkpt lat="48.65198" lon="1.74751">
        <ele>171</ele>
        <time>2022-03-27T08:03:22Z</time>
      </trkpt>
      <trkpt lat="48.65199" lon="1.74754">
        <ele>171</ele>
        <time>2022-03-27T08:03:24Z</time>
      </trkpt>
      <trkpt lat="48.65199" lon="1.74757">
        <ele>171</ele>
        <time>2022-03-27T08:03:26Z</time>
      </trkpt>
      <trkpt lat="48.65202" lon="1.7476">
        <ele>171</ele>
        <time>2022-03-27T08:03:28Z</time>
      </trkpt>
      <trkpt lat="48.65204" lon="1.74764">
        <ele>171</ele>
        <time>2022-03-27T08:03:30Z</time>
      </trkpt>
      <trkpt lat="48.65206" lon="1.74767">
        <ele>171</ele>
        <time>2022-03-27T08:03:32Z</time>
      </trkpt>
      <trkpt lat="48.65209" lon="1.7477">
        <ele>171</ele>
        <time>2022-03-27T08:03:34Z</time>
      </trkpt>
      <trkpt lat="48.65211" lon="1.74773">
        <ele>171</ele>
        <time>2022-03-27T08:03:36Z</time>
      </trkpt>
      <trkpt lat="48.65213" lon="1.74777">
        <ele>171</ele>
        <time>2022-03-27T08:03:38Z</time>
      </trkpt>
      <trkpt lat="48.65215" lon="1.7478">
        <ele>171</ele>
        <time>2022-03-27T08:03:40Z</time>
      </trkpt>
      <trkpt lat="48.65217" lon="1.74783">
        <ele>171</ele>
        <time>2022-03-27T08:03:42Z</time>
      </trkpt>
      <trkpt lat="48.65219" lon="1.74786">
        <ele>171</ele>
        <time>2022-03-27T08:03:44Z</time>
      </trkpt>
      <trkpt lat="48.6522" lon="1.74789">
        <ele>171</ele>
        <time>2022-03-27T08:03:46Z</time>
      </trkpt>
      <trkpt lat="48.65222" lon="1.74792">
        <ele>171</ele>
        <time>2022-03-27T08:03:48Z</time>
      </trkpt>
      <trkpt lat="48.65224" lon="1.74795">
        <ele>171</ele>
        <time>2022-03-27T08:03:50Z</time>
      </trkpt>
      <trkpt lat="48.65225" lon="1.74799">
        <ele>171</ele>
        <time>2022-03-27T08:03:52Z</time>
      </trkpt>
      <trkpt lat="48.65226" lon="1.74802">
        <ele>171</ele>
        <time>2022-03-27T08:03:54Z</time>
      </trkpt>
      <trkpt lat="48.65227" lon="1.74805">
        <ele>171</ele>
        <time>2022-03-27T08:03:56Z</time>
      </trkpt>
      <trkpt lat="48.65229" lon="1.74808">
        <ele>170</ele>
        <time>2022-03-27T08:03:58Z</time>
      </trkpt>
      <trkpt lat="48.65231" lon="1.74811">
        <ele>170</ele>
        <time>2022-03-27T08:04:00Z</time>
      </trkpt>
      <trkpt lat="48.65232" lon="1.74814">
        <ele>170</ele>
        <time>2022-03-27T08:04:02Z</time>
      </trkpt>
      <trkpt lat="48.65233" lon="1.74817">
        <ele>170</ele>
        <time>2022-03-27T08:04:04Z</time>
      </trkpt>
      <trkpt lat="48.65234" lon="1.7482">
        <ele>169</ele>
        <time>2022-03-27T08:04:06Z</time>
      </trkpt>
      <trkpt lat="48.65236" lon="1.74823">
        <ele>169</ele>
        <time>2022-03-27T08:04:09Z</time>
      </trkpt>
      <trkpt lat="48.65237" lon="1.74826">
        <ele>169</ele>
        <time>2022-03-27T08:04:11Z</time>
      </trkpt>
      <trkpt lat="48.65239" lon="1.74829">
        <ele>169</ele>
        <time>2022-03-27T08:04:13Z</time>
      </trkpt>
      <trkpt lat="48.65242" lon="1.74832">
        <ele>169</ele>
        <time>2022-03-27T08:04:15Z</time>
      </trkpt>
      <trkpt lat="48.65244" lon="1.74834">
        <ele>169</ele>
        <time>2022-03-27T08:04:17Z</time>
      </trkpt>
      <trkpt lat="48.65246" lon="1.74835">
        <ele>169</ele>
        <time>2022-03-27T08:04:19Z</time>
      </trkpt>
      <trkpt lat="48.65249" lon="1.74838">
        <ele>169</ele>
        <time>2022-03-27T08:04:21Z</time>
      </trkpt>
      <trkpt lat="48.65251" lon="1.7484">
        <ele>169</ele>
        <time>2022-03-27T08:04:23Z</time>
      </trkpt>
      <trkpt lat="48.65253" lon="1.74844">
        <ele>169</ele>
        <time>2022-03-27T08:04:25Z</time>
      </trkpt>
      <trkpt lat="48.65255" lon="1.74846">
        <ele>169</ele>
        <time>2022-03-27T08:04:27Z</time>
      </trkpt>
      <trkpt lat="48.65257" lon="1.74849">
        <ele>169</ele>
        <time>2022-03-27T08:04:29Z</time>
      </trkpt>
      <trkpt lat="48.6526" lon="1.74852">
        <ele>169</ele>
        <time>2022-03-27T08:04:31Z</time>
      </trkpt>
      <trkpt lat="48.65261" lon="1.74853">
        <ele>169</ele>
        <time>2022-03-27T08:04:32Z</time>
      </trkpt>
      <trkpt lat="48.65263" lon="1.74855">
        <ele>169</ele>
        <time>2022-03-27T08:04:33Z</time>
      </trkpt>
      <trkpt lat="48.65265" lon="1.74858">
        <ele>169</ele>
        <time>2022-03-27T08:04:35Z</time>
      </trkpt>
      <trkpt lat="48.65266" lon="1.74862">
        <ele>169</ele>
        <time>2022-03-27T08:04:37Z</time>
      </trkpt>
      <trkpt lat="48.65267" lon="1.74866">
        <ele>169</ele>
        <time>2022-03-27T08:04:39Z</time>
      </trkpt>
      <trkpt lat="48.65269" lon="1.74869">
        <ele>169</ele>
        <time>2022-03-27T08:04:41Z</time>
      </trkpt>
      <trkpt lat="48.6527" lon="1.74873">
        <ele>169</ele>
        <time>2022-03-27T08:04:43Z</time>
      </trkpt>
      <trkpt lat="48.65271" lon="1.74877">
        <ele>169</ele>
        <time>2022-03-27T08:04:45Z</time>
      </trkpt>
      <trkpt lat="48.65272" lon="1.7488">
        <ele>169</ele>
        <time>2022-03-27T08:04:47Z</time>
      </trkpt>
      <trkpt lat="48.65273" lon="1.74884">
        <ele>169</ele>
        <time>2022-03-27T08:04:49Z</time>
      </trkpt>
      <trkpt lat="48.65274" lon="1.74888">
        <ele>169</ele>
        <time>2022-03-27T08:04:51Z</time>
      </trkpt>
      <trkpt lat="48.65275" lon="1.74892">
        <ele>168</ele>
        <time>2022-03-27T08:04:53Z</time>
      </trkpt>
      <trkpt lat="48.65276" lon="1.74896">
        <ele>168</ele>
        <time>2022-03-27T08:04:55Z</time>
      </trkpt>
      <trkpt lat="48.65277" lon="1.74899">
        <ele>168</ele>
        <time>2022-03-27T08:04:57Z</time>
      </trkpt>
      <trkpt lat="48.65279" lon="1.74903">
        <ele>168</ele>
        <time>2022-03-27T08:04:59Z</time>
      </trkpt>
      <trkpt lat="48.6528" lon="1.74906">
        <ele>168</ele>
        <time>2022-03-27T08:05:01Z</time>
      </trkpt>
      <trkpt lat="48.65282" lon="1.7491">
        <ele>168</ele>
        <time>2022-03-27T08:05:03Z</time>
      </trkpt>
      <trkpt lat="48.65283" lon="1.74914">
        <ele>169</ele>
        <time>2022-03-27T08:05:05Z</time>
      </trkpt>
      <trkpt lat="48.65284" lon="1.74918">
        <ele>169</ele>
        <time>2022-03-27T08:05:07Z</time>
      </trkpt>
      <trkpt lat="48.65286" lon="1.74921">
        <ele>169</ele>
        <time>2022-03-27T08:05:09Z</time>
      </trkpt>
      <trkpt lat="48.65287" lon="1.74924">
        <ele>169</ele>
        <time>2022-03-27T08:05:11Z</time>
      </trkpt>
      <trkpt lat="48.65289" lon="1.74927">
        <ele>169</ele>
        <time>2022-03-27T08:05:13Z</time>
      </trkpt>
      <trkpt lat="48.65292" lon="1.7493">
        <ele>169</ele>
        <time>2022-03-27T08:05:15Z</time>
      </trkpt>
      <trkpt lat="48.65294" lon="1.74933">
        <ele>168</ele>
        <time>2022-03-27T08:05:17Z</time>
      </trkpt>
      <trkpt lat="48.65296" lon="1.74936">
        <ele>169</ele>
        <time>2022-03-27T08:05:19Z</time>
      </trkpt>
      <trkpt lat="48.65298" lon="1.74939">
        <ele>169</ele>
        <time>2022-03-27T08:05:21Z</time>
      </trkpt>
      <trkpt lat="48.653" lon="1.74942">
        <ele>169</ele>
        <time>2022-03-27T08:05:23Z</time>
      </trkpt>
      <trkpt lat="48.65302" lon="1.74944">
        <ele>169</ele>
        <time>2022-03-27T08:05:25Z</time>
      </trkpt>
      <trkpt lat="48.65302" lon="1.74947">
        <ele>169</ele>
        <time>2022-03-27T08:05:27Z</time>
      </trkpt>
      <trkpt lat="48.65303" lon="1.7495">
        <ele>169</ele>
        <time>2022-03-27T08:05:29Z</time>
      </trkpt>
      <trkpt lat="48.65304" lon="1.74953">
        <ele>169</ele>
        <time>2022-03-27T08:05:31Z</time>
      </trkpt>
      <trkpt lat="48.65303" lon="1.74956">
        <ele>169</ele>
        <time>2022-03-27T08:05:33Z</time>
      </trkpt>
      <trkpt lat="48.65301" lon="1.74957">
        <ele>169</ele>
        <time>2022-03-27T08:05:38Z</time>
      </trkpt>
      <trkpt lat="48.65299" lon="1.74958">
        <ele>169</ele>
        <time>2022-03-27T08:05:42Z</time>
      </trkpt>
      <trkpt lat="48.65297" lon="1.7496">
        <ele>169</ele>
        <time>2022-03-27T08:05:46Z</time>
      </trkpt>
      <trkpt lat="48.65296" lon="1.74961">
        <ele>168</ele>
        <time>2022-03-27T08:05:52Z</time>
      </trkpt>
      <trkpt lat="48.65298" lon="1.7496">
        <ele>168</ele>
        <time>2022-03-27T08:05:58Z</time>
      </trkpt>
      <trkpt lat="48.65297" lon="1.74957">
        <ele>168</ele>
        <time>2022-03-27T08:06:01Z</time>
      </trkpt>
      <trkpt lat="48.65296" lon="1.74954">
        <ele>169</ele>
        <time>2022-03-27T08:06:13Z</time>
      </trkpt>
      <trkpt lat="48.65296" lon="1.74951">
        <ele>169</ele>
        <time>2022-03-27T08:06:15Z</time>
      </trkpt>
      <trkpt lat="48.65297" lon="1.74953">
        <ele>170</ele>
        <time>2022-03-27T08:08:07Z</time>
      </trkpt>
      <trkpt lat="48.65298" lon="1.74956">
        <ele>170</ele>
        <time>2022-03-27T08:08:19Z</time>
      </trkpt>
      <trkpt lat="48.653" lon="1.74954">
        <ele>170</ele>
        <time>2022-03-27T08:08:39Z</time>
      </trkpt>
      <trkpt lat="48.65298" lon="1.74951">
        <ele>170</ele>
        <time>2022-03-27T08:09:07Z</time>
      </trkpt>
      <trkpt lat="48.65299" lon="1.74954">
        <ele>169</ele>
        <time>2022-03-27T08:09:36Z</time>
      </trkpt>
      <trkpt lat="48.65301" lon="1.74954">
        <ele>169</ele>
        <time>2022-03-27T08:09:39Z</time>
      </trkpt>
      <trkpt lat="48.65303" lon="1.74951">
        <ele>169</ele>
        <time>2022-03-27T08:09:41Z</time>
      </trkpt>
      <trkpt lat="48.65304" lon="1.74949">
        <ele>169</ele>
        <time>2022-03-27T08:09:43Z</time>
      </trkpt>
      <trkpt lat="48.65305" lon="1.74946">
        <ele>169</ele>
        <time>2022-03-27T08:09:45Z</time>
      </trkpt>
      <trkpt lat="48.65307" lon="1.74943">
        <ele>169</ele>
        <time>2022-03-27T08:09:47Z</time>
      </trkpt>
      <trkpt lat="48.65308" lon="1.74939">
        <ele>169</ele>
        <time>2022-03-27T08:09:49Z</time>
      </trkpt>
      <trkpt lat="48.65309" lon="1.74936">
        <ele>170</ele>
        <time>2022-03-27T08:09:51Z</time>
      </trkpt>
      <trkpt lat="48.65309" lon="1.74932">
        <ele>170</ele>
        <time>2022-03-27T08:09:53Z</time>
      </trkpt>
      <trkpt lat="48.6531" lon="1.74929">
        <ele>171</ele>
        <time>2022-03-27T08:09:55Z</time>
      </trkpt>
      <trkpt lat="48.65309" lon="1.74925">
        <ele>171</ele>
        <time>2022-03-27T08:09:58Z</time>
      </trkpt>
      <trkpt lat="48.6531" lon="1.74922">
        <ele>172</ele>
        <time>2022-03-27T08:10:20Z</time>
      </trkpt>
      <trkpt lat="48.65311" lon="1.7492">
        <ele>172</ele>
        <time>2022-03-27T08:10:22Z</time>
      </trkpt>
      <trkpt lat="48.65313" lon="1.74917">
        <ele>173</ele>
        <time>2022-03-27T08:10:25Z</time>
      </trkpt>
      <trkpt lat="48.65315" lon="1.74916">
        <ele>173</ele>
        <time>2022-03-27T08:10:27Z</time>
      </trkpt>
      <trkpt lat="48.65318" lon="1.74916">
        <ele>172</ele>
        <time>2022-03-27T08:10:29Z</time>
      </trkpt>
      <trkpt lat="48.6532" lon="1.74919">
        <ele>172</ele>
        <time>2022-03-27T08:10:31Z</time>
      </trkpt>
      <trkpt lat="48.65319" lon="1.74922">
        <ele>171</ele>
        <time>2022-03-27T08:10:33Z</time>
      </trkpt>
      <trkpt lat="48.65319" lon="1.74925">
        <ele>171</ele>
        <time>2022-03-27T08:10:41Z</time>
      </trkpt>
      <trkpt lat="48.65318" lon="1.74928">
        <ele>170</ele>
        <time>2022-03-27T08:10:43Z</time>
      </trkpt>
      <trkpt lat="48.65316" lon="1.74932">
        <ele>170</ele>
        <time>2022-03-27T08:10:45Z</time>
      </trkpt>
      <trkpt lat="48.65314" lon="1.74935">
        <ele>170</ele>
        <time>2022-03-27T08:10:46Z</time>
      </trkpt>
      <trkpt lat="48.65313" lon="1.74939">
        <ele>170</ele>
        <time>2022-03-27T08:10:47Z</time>
      </trkpt>
      <trkpt lat="48.65311" lon="1.74942">
        <ele>170</ele>
        <time>2022-03-27T08:10:48Z</time>
      </trkpt>
      <trkpt lat="48.6531" lon="1.74946">
        <ele>169</ele>
        <time>2022-03-27T08:10:49Z</time>
      </trkpt>
      <trkpt lat="48.65309" lon="1.74949">
        <ele>169</ele>
        <time>2022-03-27T08:10:50Z</time>
      </trkpt>
      <trkpt lat="48.65308" lon="1.74952">
        <ele>169</ele>
        <time>2022-03-27T08:10:51Z</time>
      </trkpt>
      <trkpt lat="48.65306" lon="1.74956">
        <ele>169</ele>
        <time>2022-03-27T08:10:53Z</time>
      </trkpt>
      <trkpt lat="48.65304" lon="1.7496">
        <ele>169</ele>
        <time>2022-03-27T08:10:55Z</time>
      </trkpt>
      <trkpt lat="48.65302" lon="1.74964">
        <ele>169</ele>
        <time>2022-03-27T08:10:57Z</time>
      </trkpt>
      <trkpt lat="48.653" lon="1.74967">
        <ele>169</ele>
        <time>2022-03-27T08:10:59Z</time>
      </trkpt>
      <trkpt lat="48.65296" lon="1.7497">
        <ele>169</ele>
        <time>2022-03-27T08:11:01Z</time>
      </trkpt>
      <trkpt lat="48.65294" lon="1.74973">
        <ele>169</ele>
        <time>2022-03-27T08:11:03Z</time>
      </trkpt>
      <trkpt lat="48.65291" lon="1.74976">
        <ele>169</ele>
        <time>2022-03-27T08:11:05Z</time>
      </trkpt>
      <trkpt lat="48.6529" lon="1.74979">
        <ele>168</ele>
        <time>2022-03-27T08:11:07Z</time>
      </trkpt>
      <trkpt lat="48.65288" lon="1.74983">
        <ele>168</ele>
        <time>2022-03-27T08:11:09Z</time>
      </trkpt>
      <trkpt lat="48.65286" lon="1.74986">
        <ele>169</ele>
        <time>2022-03-27T08:11:11Z</time>
      </trkpt>
      <trkpt lat="48.65285" lon="1.7499">
        <ele>169</ele>
        <time>2022-03-27T08:11:13Z</time>
      </trkpt>
      <trkpt lat="48.65284" lon="1.74993">
        <ele>169</ele>
        <time>2022-03-27T08:11:15Z</time>
      </trkpt>
      <trkpt lat="48.65282" lon="1.74997">
        <ele>169</ele>
        <time>2022-03-27T08:11:17Z</time>
      </trkpt>
      <trkpt lat="48.6528" lon="1.75">
        <ele>169</ele>
        <time>2022-03-27T08:11:19Z</time>
      </trkpt>
      <trkpt lat="48.65278" lon="1.75003">
        <ele>169</ele>
        <time>2022-03-27T08:11:21Z</time>
      </trkpt>
      <trkpt lat="48.65276" lon="1.75007">
        <ele>169</ele>
        <time>2022-03-27T08:11:23Z</time>
      </trkpt>
      <trkpt lat="48.65275" lon="1.75011">
        <ele>169</ele>
        <time>2022-03-27T08:11:25Z</time>
      </trkpt>
      <trkpt lat="48.65274" lon="1.75014">
        <ele>169</ele>
        <time>2022-03-27T08:11:26Z</time>
      </trkpt>
      <trkpt lat="48.65271" lon="1.75017">
        <ele>170</ele>
        <time>2022-03-27T08:11:28Z</time>
      </trkpt>
      <trkpt lat="48.6527" lon="1.75022">
        <ele>170</ele>
        <time>2022-03-27T08:11:30Z</time>
      </trkpt>
      <trkpt lat="48.65268" lon="1.75025">
        <ele>170</ele>
        <time>2022-03-27T08:11:32Z</time>
      </trkpt>
      <trkpt lat="48.65266" lon="1.75028">
        <ele>170</ele>
        <time>2022-03-27T08:11:33Z</time>
      </trkpt>
      <trkpt lat="48.65265" lon="1.7503">
        <ele>171</ele>
        <time>2022-03-27T08:11:34Z</time>
      </trkpt>
      <trkpt lat="48.65264" lon="1.75033">
        <ele>171</ele>
        <time>2022-03-27T08:11:35Z</time>
      </trkpt>
      <trkpt lat="48.65262" lon="1.75037">
        <ele>171</ele>
        <time>2022-03-27T08:11:37Z</time>
      </trkpt>
      <trkpt lat="48.6526" lon="1.7504">
        <ele>171</ele>
        <time>2022-03-27T08:11:39Z</time>
      </trkpt>
      <trkpt lat="48.65258" lon="1.75044">
        <ele>171</ele>
        <time>2022-03-27T08:11:41Z</time>
      </trkpt>
      <trkpt lat="48.65257" lon="1.75046">
        <ele>171</ele>
        <time>2022-03-27T08:11:43Z</time>
      </trkpt>
      <trkpt lat="48.65256" lon="1.7505">
        <ele>172</ele>
        <time>2022-03-27T08:11:45Z</time>
      </trkpt>
      <trkpt lat="48.65254" lon="1.75052">
        <ele>172</ele>
        <time>2022-03-27T08:11:48Z</time>
      </trkpt>
      <trkpt lat="48.65253" lon="1.75056">
        <ele>172</ele>
        <time>2022-03-27T08:11:50Z</time>
      </trkpt>
      <trkpt lat="48.65252" lon="1.75058">
        <ele>172</ele>
        <time>2022-03-27T08:11:51Z</time>
      </trkpt>
      <trkpt lat="48.6525" lon="1.75062">
        <ele>172</ele>
        <time>2022-03-27T08:11:53Z</time>
      </trkpt>
      <trkpt lat="48.65248" lon="1.75066">
        <ele>173</ele>
        <time>2022-03-27T08:11:55Z</time>
      </trkpt>
      <trkpt lat="48.65246" lon="1.7507">
        <ele>173</ele>
        <time>2022-03-27T08:11:57Z</time>
      </trkpt>
      <trkpt lat="48.65244" lon="1.75074">
        <ele>173</ele>
        <time>2022-03-27T08:11:59Z</time>
      </trkpt>
      <trkpt lat="48.65242" lon="1.75075">
        <ele>173</ele>
        <time>2022-03-27T08:12:01Z</time>
      </trkpt>
      <trkpt lat="48.65239" lon="1.75078">
        <ele>173</ele>
        <time>2022-03-27T08:12:03Z</time>
      </trkpt>
      <trkpt lat="48.65237" lon="1.75082">
        <ele>173</ele>
        <time>2022-03-27T08:12:05Z</time>
      </trkpt>
      <trkpt lat="48.65235" lon="1.75086">
        <ele>174</ele>
        <time>2022-03-27T08:12:07Z</time>
      </trkpt>
      <trkpt lat="48.65234" lon="1.7509">
        <ele>173</ele>
        <time>2022-03-27T08:12:09Z</time>
      </trkpt>
      <trkpt lat="48.65232" lon="1.75094">
        <ele>173</ele>
        <time>2022-03-27T08:12:11Z</time>
      </trkpt>
      <trkpt lat="48.6523" lon="1.75099">
        <ele>173</ele>
        <time>2022-03-27T08:12:13Z</time>
      </trkpt>
      <trkpt lat="48.65228" lon="1.75103">
        <ele>173</ele>
        <time>2022-03-27T08:12:15Z</time>
      </trkpt>
      <trkpt lat="48.65226" lon="1.75107">
        <ele>173</ele>
        <time>2022-03-27T08:12:17Z</time>
      </trkpt>
      <trkpt lat="48.65225" lon="1.75111">
        <ele>173</ele>
        <time>2022-03-27T08:12:19Z</time>
      </trkpt>
      <trkpt lat="48.65223" lon="1.75115">
        <ele>174</ele>
        <time>2022-03-27T08:12:21Z</time>
      </trkpt>
      <trkpt lat="48.65221" lon="1.75117">
        <ele>174</ele>
        <time>2022-03-27T08:12:23Z</time>
      </trkpt>
      <trkpt lat="48.65219" lon="1.7512">
        <ele>174</ele>
        <time>2022-03-27T08:12:25Z</time>
      </trkpt>
      <trkpt lat="48.65218" lon="1.75123">
        <ele>175</ele>
        <time>2022-03-27T08:12:26Z</time>
      </trkpt>
      <trkpt lat="48.65217" lon="1.75125">
        <ele>174</ele>
        <time>2022-03-27T08:12:27Z</time>
      </trkpt>
      <trkpt lat="48.65215" lon="1.75129">
        <ele>174</ele>
        <time>2022-03-27T08:12:29Z</time>
      </trkpt>
      <trkpt lat="48.65214" lon="1.75133">
        <ele>174</ele>
        <time>2022-03-27T08:12:31Z</time>
      </trkpt>
      <trkpt lat="48.65211" lon="1.75137">
        <ele>174</ele>
        <time>2022-03-27T08:12:33Z</time>
      </trkpt>
      <trkpt lat="48.65209" lon="1.7514">
        <ele>174</ele>
        <time>2022-03-27T08:12:35Z</time>
      </trkpt>
      <trkpt lat="48.65207" lon="1.75143">
        <ele>174</ele>
        <time>2022-03-27T08:12:37Z</time>
      </trkpt>
      <trkpt lat="48.65205" lon="1.75145">
        <ele>174</ele>
        <time>2022-03-27T08:12:38Z</time>
      </trkpt>
      <trkpt lat="48.65204" lon="1.75147">
        <ele>174</ele>
        <time>2022-03-27T08:12:39Z</time>
      </trkpt>
      <trkpt lat="48.65201" lon="1.75149">
        <ele>174</ele>
        <time>2022-03-27T08:12:41Z</time>
      </trkpt>
      <trkpt lat="48.652" lon="1.75151">
        <ele>174</ele>
        <time>2022-03-27T08:12:42Z</time>
      </trkpt>
      <trkpt lat="48.65197" lon="1.75155">
        <ele>174</ele>
        <time>2022-03-27T08:12:44Z</time>
      </trkpt>
      <trkpt lat="48.65195" lon="1.75158">
        <ele>175</ele>
        <time>2022-03-27T08:12:46Z</time>
      </trkpt>
      <trkpt lat="48.65193" lon="1.75162">
        <ele>175</ele>
        <time>2022-03-27T08:12:48Z</time>
      </trkpt>
      <trkpt lat="48.65192" lon="1.75165">
        <ele>174</ele>
        <time>2022-03-27T08:12:50Z</time>
      </trkpt>
      <trkpt lat="48.6519" lon="1.7517">
        <ele>174</ele>
        <time>2022-03-27T08:12:52Z</time>
      </trkpt>
      <trkpt lat="48.65189" lon="1.75173">
        <ele>175</ele>
        <time>2022-03-27T08:12:54Z</time>
      </trkpt>
      <trkpt lat="48.65187" lon="1.75175">
        <ele>175</ele>
        <time>2022-03-27T08:12:55Z</time>
      </trkpt>
      <trkpt lat="48.65185" lon="1.75178">
        <ele>175</ele>
        <time>2022-03-27T08:12:57Z</time>
      </trkpt>
      <trkpt lat="48.65184" lon="1.75182">
        <ele>175</ele>
        <time>2022-03-27T08:12:59Z</time>
      </trkpt>
      <trkpt lat="48.65183" lon="1.75187">
        <ele>176</ele>
        <time>2022-03-27T08:13:01Z</time>
      </trkpt>
      <trkpt lat="48.65181" lon="1.75191">
        <ele>176</ele>
        <time>2022-03-27T08:13:03Z</time>
      </trkpt>
      <trkpt lat="48.6518" lon="1.75193">
        <ele>175</ele>
        <time>2022-03-27T08:13:04Z</time>
      </trkpt>
      <trkpt lat="48.65179" lon="1.75195">
        <ele>175</ele>
        <time>2022-03-27T08:13:05Z</time>
      </trkpt>
      <trkpt lat="48.65176" lon="1.752">
        <ele>176</ele>
        <time>2022-03-27T08:13:07Z</time>
      </trkpt>
      <trkpt lat="48.65175" lon="1.75202">
        <ele>176</ele>
        <time>2022-03-27T08:13:08Z</time>
      </trkpt>
      <trkpt lat="48.65173" lon="1.75206">
        <ele>176</ele>
        <time>2022-03-27T08:13:10Z</time>
      </trkpt>
      <trkpt lat="48.65172" lon="1.7521">
        <ele>176</ele>
        <time>2022-03-27T08:13:12Z</time>
      </trkpt>
      <trkpt lat="48.65171" lon="1.75214">
        <ele>175</ele>
        <time>2022-03-27T08:13:14Z</time>
      </trkpt>
      <trkpt lat="48.65169" lon="1.75217">
        <ele>175</ele>
        <time>2022-03-27T08:13:16Z</time>
      </trkpt>
      <trkpt lat="48.65167" lon="1.7522">
        <ele>175</ele>
        <time>2022-03-27T08:13:18Z</time>
      </trkpt>
      <trkpt lat="48.65165" lon="1.75224">
        <ele>175</ele>
        <time>2022-03-27T08:13:20Z</time>
      </trkpt>
      <trkpt lat="48.65163" lon="1.75227">
        <ele>175</ele>
        <time>2022-03-27T08:13:22Z</time>
      </trkpt>
      <trkpt lat="48.65162" lon="1.75231">
        <ele>175</ele>
        <time>2022-03-27T08:13:24Z</time>
      </trkpt>
      <trkpt lat="48.65159" lon="1.75236">
        <ele>175</ele>
        <time>2022-03-27T08:13:26Z</time>
      </trkpt>
      <trkpt lat="48.65158" lon="1.75238">
        <ele>175</ele>
        <time>2022-03-27T08:13:27Z</time>
      </trkpt>
      <trkpt lat="48.65157" lon="1.7524">
        <ele>176</ele>
        <time>2022-03-27T08:13:28Z</time>
      </trkpt>
      <trkpt lat="48.65155" lon="1.75242">
        <ele>176</ele>
        <time>2022-03-27T08:13:29Z</time>
      </trkpt>
      <trkpt lat="48.65153" lon="1.75246">
        <ele>176</ele>
        <time>2022-03-27T08:13:31Z</time>
      </trkpt>
      <trkpt lat="48.65151" lon="1.75248">
        <ele>176</ele>
        <time>2022-03-27T08:13:32Z</time>
      </trkpt>
      <trkpt lat="48.65149" lon="1.75252">
        <ele>177</ele>
        <time>2022-03-27T08:13:34Z</time>
      </trkpt>
      <trkpt lat="48.65147" lon="1.75255">
        <ele>177</ele>
        <time>2022-03-27T08:13:36Z</time>
      </trkpt>
      <trkpt lat="48.65145" lon="1.75259">
        <ele>176</ele>
        <time>2022-03-27T08:13:38Z</time>
      </trkpt>
      <trkpt lat="48.65144" lon="1.75261">
        <ele>177</ele>
        <time>2022-03-27T08:13:39Z</time>
      </trkpt>
      <trkpt lat="48.65142" lon="1.75264">
        <ele>177</ele>
        <time>2022-03-27T08:13:41Z</time>
      </trkpt>
      <trkpt lat="48.6514" lon="1.75268">
        <ele>177</ele>
        <time>2022-03-27T08:13:43Z</time>
      </trkpt>
      <trkpt lat="48.65138" lon="1.7527">
        <ele>177</ele>
        <time>2022-03-27T08:13:44Z</time>
      </trkpt>
      <trkpt lat="48.65137" lon="1.75273">
        <ele>177</ele>
        <time>2022-03-27T08:13:45Z</time>
      </trkpt>
      <trkpt lat="48.65135" lon="1.75277">
        <ele>176</ele>
        <time>2022-03-27T08:13:47Z</time>
      </trkpt>
      <trkpt lat="48.65133" lon="1.7528">
        <ele>176</ele>
        <time>2022-03-27T08:13:49Z</time>
      </trkpt>
      <trkpt lat="48.65131" lon="1.75283">
        <ele>176</ele>
        <time>2022-03-27T08:13:51Z</time>
      </trkpt>
      <trkpt lat="48.65128" lon="1.75286">
        <ele>175</ele>
        <time>2022-03-27T08:13:53Z</time>
      </trkpt>
      <trkpt lat="48.65125" lon="1.75289">
        <ele>175</ele>
        <time>2022-03-27T08:13:55Z</time>
      </trkpt>
      <trkpt lat="48.65123" lon="1.75292">
        <ele>175</ele>
        <time>2022-03-27T08:13:57Z</time>
      </trkpt>
      <trkpt lat="48.65122" lon="1.75296">
        <ele>175</ele>
        <time>2022-03-27T08:13:59Z</time>
      </trkpt>
      <trkpt lat="48.6512" lon="1.753">
        <ele>175</ele>
        <time>2022-03-27T08:14:01Z</time>
      </trkpt>
      <trkpt lat="48.65119" lon="1.75304">
        <ele>175</ele>
        <time>2022-03-27T08:14:03Z</time>
      </trkpt>
      <trkpt lat="48.65117" lon="1.75309">
        <ele>176</ele>
        <time>2022-03-27T08:14:05Z</time>
      </trkpt>
      <trkpt lat="48.65116" lon="1.75311">
        <ele>176</ele>
        <time>2022-03-27T08:14:06Z</time>
      </trkpt>
      <trkpt lat="48.65113" lon="1.75315">
        <ele>176</ele>
        <time>2022-03-27T08:14:08Z</time>
      </trkpt>
      <trkpt lat="48.65111" lon="1.75319">
        <ele>177</ele>
        <time>2022-03-27T08:14:10Z</time>
      </trkpt>
      <trkpt lat="48.65109" lon="1.75322">
        <ele>177</ele>
        <time>2022-03-27T08:14:12Z</time>
      </trkpt>
      <trkpt lat="48.65108" lon="1.75326">
        <ele>177</ele>
        <time>2022-03-27T08:14:14Z</time>
      </trkpt>
      <trkpt lat="48.65106" lon="1.7533">
        <ele>177</ele>
        <time>2022-03-27T08:14:16Z</time>
      </trkpt>
      <trkpt lat="48.65104" lon="1.75334">
        <ele>177</ele>
        <time>2022-03-27T08:14:18Z</time>
      </trkpt>
      <trkpt lat="48.65102" lon="1.75339">
        <ele>177</ele>
        <time>2022-03-27T08:14:20Z</time>
      </trkpt>
      <trkpt lat="48.65101" lon="1.75341">
        <ele>177</ele>
        <time>2022-03-27T08:14:21Z</time>
      </trkpt>
      <trkpt lat="48.651" lon="1.75343">
        <ele>177</ele>
        <time>2022-03-27T08:14:22Z</time>
      </trkpt>
      <trkpt lat="48.65098" lon="1.75347">
        <ele>177</ele>
        <time>2022-03-27T08:14:24Z</time>
      </trkpt>
      <trkpt lat="48.65095" lon="1.7535">
        <ele>177</ele>
        <time>2022-03-27T08:14:26Z</time>
      </trkpt>
      <trkpt lat="48.65094" lon="1.75355">
        <ele>177</ele>
        <time>2022-03-27T08:14:28Z</time>
      </trkpt>
      <trkpt lat="48.65092" lon="1.75359">
        <ele>177</ele>
        <time>2022-03-27T08:14:30Z</time>
      </trkpt>
      <trkpt lat="48.65091" lon="1.75361">
        <ele>177</ele>
        <time>2022-03-27T08:14:31Z</time>
      </trkpt>
      <trkpt lat="48.65089" lon="1.75365">
        <ele>177</ele>
        <time>2022-03-27T08:14:33Z</time>
      </trkpt>
      <trkpt lat="48.65086" lon="1.75368">
        <ele>177</ele>
        <time>2022-03-27T08:14:35Z</time>
      </trkpt>
      <trkpt lat="48.65085" lon="1.7537">
        <ele>177</ele>
        <time>2022-03-27T08:14:36Z</time>
      </trkpt>
      <trkpt lat="48.65083" lon="1.75374">
        <ele>177</ele>
        <time>2022-03-27T08:14:38Z</time>
      </trkpt>
      <trkpt lat="48.65082" lon="1.75376">
        <ele>177</ele>
        <time>2022-03-27T08:14:39Z</time>
      </trkpt>
      <trkpt lat="48.6508" lon="1.75379">
        <ele>177</ele>
        <time>2022-03-27T08:14:41Z</time>
      </trkpt>
      <trkpt lat="48.65078" lon="1.75383">
        <ele>177</ele>
        <time>2022-03-27T08:14:43Z</time>
      </trkpt>
      <trkpt lat="48.65078" lon="1.75387">
        <ele>177</ele>
        <time>2022-03-27T08:14:45Z</time>
      </trkpt>
      <trkpt lat="48.65077" lon="1.75392">
        <ele>176</ele>
        <time>2022-03-27T08:14:47Z</time>
      </trkpt>
      <trkpt lat="48.65076" lon="1.75396">
        <ele>176</ele>
        <time>2022-03-27T08:14:49Z</time>
      </trkpt>
      <trkpt lat="48.65073" lon="1.754">
        <ele>176</ele>
        <time>2022-03-27T08:14:51Z</time>
      </trkpt>
      <trkpt lat="48.65072" lon="1.75403">
        <ele>177</ele>
        <time>2022-03-27T08:14:53Z</time>
      </trkpt>
      <trkpt lat="48.6507" lon="1.75406">
        <ele>177</ele>
        <time>2022-03-27T08:14:55Z</time>
      </trkpt>
      <trkpt lat="48.65068" lon="1.75409">
        <ele>177</ele>
        <time>2022-03-27T08:14:57Z</time>
      </trkpt>
      <trkpt lat="48.65066" lon="1.75411">
        <ele>177</ele>
        <time>2022-03-27T08:14:58Z</time>
      </trkpt>
      <trkpt lat="48.65064" lon="1.75413">
        <ele>177</ele>
        <time>2022-03-27T08:14:59Z</time>
      </trkpt>
      <trkpt lat="48.65062" lon="1.75414">
        <ele>177</ele>
        <time>2022-03-27T08:15:00Z</time>
      </trkpt>
      <trkpt lat="48.6506" lon="1.75416">
        <ele>177</ele>
        <time>2022-03-27T08:15:01Z</time>
      </trkpt>
      <trkpt lat="48.65058" lon="1.7542">
        <ele>177</ele>
        <time>2022-03-27T08:15:03Z</time>
      </trkpt>
      <trkpt lat="48.65056" lon="1.75423">
        <ele>177</ele>
        <time>2022-03-27T08:15:05Z</time>
      </trkpt>
      <trkpt lat="48.65054" lon="1.75425">
        <ele>177</ele>
        <time>2022-03-27T08:15:06Z</time>
      </trkpt>
      <trkpt lat="48.65053" lon="1.75428">
        <ele>177</ele>
        <time>2022-03-27T08:15:07Z</time>
      </trkpt>
      <trkpt lat="48.65051" lon="1.7543">
        <ele>177</ele>
        <time>2022-03-27T08:15:08Z</time>
      </trkpt>
      <trkpt lat="48.6505" lon="1.75432">
        <ele>177</ele>
        <time>2022-03-27T08:15:09Z</time>
      </trkpt>
      <trkpt lat="48.65048" lon="1.75434">
        <ele>177</ele>
        <time>2022-03-27T08:15:10Z</time>
      </trkpt>
      <trkpt lat="48.65046" lon="1.75438">
        <ele>177</ele>
        <time>2022-03-27T08:15:12Z</time>
      </trkpt>
      <trkpt lat="48.65044" lon="1.75441">
        <ele>177</ele>
        <time>2022-03-27T08:15:14Z</time>
      </trkpt>
      <trkpt lat="48.65042" lon="1.75443">
        <ele>177</ele>
        <time>2022-03-27T08:15:16Z</time>
      </trkpt>
      <trkpt lat="48.65041" lon="1.75446">
        <ele>178</ele>
        <time>2022-03-27T08:15:18Z</time>
      </trkpt>
      <trkpt lat="48.6504" lon="1.7545">
        <ele>178</ele>
        <time>2022-03-27T08:15:20Z</time>
      </trkpt>
      <trkpt lat="48.65039" lon="1.75453">
        <ele>178</ele>
        <time>2022-03-27T08:15:22Z</time>
      </trkpt>
      <trkpt lat="48.65037" lon="1.75457">
        <ele>178</ele>
        <time>2022-03-27T08:15:24Z</time>
      </trkpt>
      <trkpt lat="48.65036" lon="1.75459">
        <ele>178</ele>
        <time>2022-03-27T08:15:25Z</time>
      </trkpt>
      <trkpt lat="48.65035" lon="1.75463">
        <ele>178</ele>
        <time>2022-03-27T08:15:27Z</time>
      </trkpt>
      <trkpt lat="48.65033" lon="1.75467">
        <ele>178</ele>
        <time>2022-03-27T08:15:29Z</time>
      </trkpt>
      <trkpt lat="48.65032" lon="1.75469">
        <ele>178</ele>
        <time>2022-03-27T08:15:30Z</time>
      </trkpt>
      <trkpt lat="48.6503" lon="1.75473">
        <ele>178</ele>
        <time>2022-03-27T08:15:32Z</time>
      </trkpt>
      <trkpt lat="48.65028" lon="1.75476">
        <ele>178</ele>
        <time>2022-03-27T08:15:34Z</time>
      </trkpt>
      <trkpt lat="48.65027" lon="1.75479">
        <ele>178</ele>
        <time>2022-03-27T08:15:36Z</time>
      </trkpt>
      <trkpt lat="48.65025" lon="1.75482">
        <ele>178</ele>
        <time>2022-03-27T08:15:38Z</time>
      </trkpt>
      <trkpt lat="48.65023" lon="1.75485">
        <ele>179</ele>
        <time>2022-03-27T08:15:40Z</time>
      </trkpt>
      <trkpt lat="48.65022" lon="1.75488">
        <ele>179</ele>
        <time>2022-03-27T08:15:42Z</time>
      </trkpt>
      <trkpt lat="48.6502" lon="1.75492">
        <ele>179</ele>
        <time>2022-03-27T08:15:44Z</time>
      </trkpt>
      <trkpt lat="48.65018" lon="1.75496">
        <ele>179</ele>
        <time>2022-03-27T08:15:46Z</time>
      </trkpt>
      <trkpt lat="48.65015" lon="1.755">
        <ele>179</ele>
        <time>2022-03-27T08:15:48Z</time>
      </trkpt>
      <trkpt lat="48.65013" lon="1.75504">
        <ele>179</ele>
        <time>2022-03-27T08:15:50Z</time>
      </trkpt>
      <trkpt lat="48.65012" lon="1.75506">
        <ele>180</ele>
        <time>2022-03-27T08:15:51Z</time>
      </trkpt>
      <trkpt lat="48.6501" lon="1.7551">
        <ele>180</ele>
        <time>2022-03-27T08:15:53Z</time>
      </trkpt>
      <trkpt lat="48.65009" lon="1.75514">
        <ele>180</ele>
        <time>2022-03-27T08:15:55Z</time>
      </trkpt>
      <trkpt lat="48.65007" lon="1.75518">
        <ele>180</ele>
        <time>2022-03-27T08:15:57Z</time>
      </trkpt>
      <trkpt lat="48.65005" lon="1.75522">
        <ele>180</ele>
        <time>2022-03-27T08:15:59Z</time>
      </trkpt>
      <trkpt lat="48.65003" lon="1.75526">
        <ele>181</ele>
        <time>2022-03-27T08:16:01Z</time>
      </trkpt>
      <trkpt lat="48.65001" lon="1.75529">
        <ele>180</ele>
        <time>2022-03-27T08:16:03Z</time>
      </trkpt>
      <trkpt lat="48.64999" lon="1.75533">
        <ele>181</ele>
        <time>2022-03-27T08:16:05Z</time>
      </trkpt>
      <trkpt lat="48.64997" lon="1.75537">
        <ele>181</ele>
        <time>2022-03-27T08:16:07Z</time>
      </trkpt>
      <trkpt lat="48.64996" lon="1.75539">
        <ele>181</ele>
        <time>2022-03-27T08:16:08Z</time>
      </trkpt>
      <trkpt lat="48.64994" lon="1.75542">
        <ele>181</ele>
        <time>2022-03-27T08:16:10Z</time>
      </trkpt>
      <trkpt lat="48.64992" lon="1.75546">
        <ele>181</ele>
        <time>2022-03-27T08:16:12Z</time>
      </trkpt>
      <trkpt lat="48.64991" lon="1.75549">
        <ele>181</ele>
        <time>2022-03-27T08:16:13Z</time>
      </trkpt>
      <trkpt lat="48.64989" lon="1.75551">
        <ele>181</ele>
        <time>2022-03-27T08:16:14Z</time>
      </trkpt>
      <trkpt lat="48.64987" lon="1.75553">
        <ele>181</ele>
        <time>2022-03-27T08:16:15Z</time>
      </trkpt>
      <trkpt lat="48.64985" lon="1.75557">
        <ele>182</ele>
        <time>2022-03-27T08:16:17Z</time>
      </trkpt>
      <trkpt lat="48.64983" lon="1.75561">
        <ele>182</ele>
        <time>2022-03-27T08:16:19Z</time>
      </trkpt>
      <trkpt lat="48.64982" lon="1.75566">
        <ele>182</ele>
        <time>2022-03-27T08:16:21Z</time>
      </trkpt>
      <trkpt lat="48.6498" lon="1.7557">
        <ele>182</ele>
        <time>2022-03-27T08:16:23Z</time>
      </trkpt>
      <trkpt lat="48.64978" lon="1.75574">
        <ele>182</ele>
        <time>2022-03-27T08:16:25Z</time>
      </trkpt>
      <trkpt lat="48.64977" lon="1.75578">
        <ele>182</ele>
        <time>2022-03-27T08:16:27Z</time>
      </trkpt>
      <trkpt lat="48.64975" lon="1.75582">
        <ele>182</ele>
        <time>2022-03-27T08:16:29Z</time>
      </trkpt>
      <trkpt lat="48.64974" lon="1.75584">
        <ele>182</ele>
        <time>2022-03-27T08:16:30Z</time>
      </trkpt>
      <trkpt lat="48.64972" lon="1.75588">
        <ele>182</ele>
        <time>2022-03-27T08:16:32Z</time>
      </trkpt>
      <trkpt lat="48.6497" lon="1.75592">
        <ele>182</ele>
        <time>2022-03-27T08:16:34Z</time>
      </trkpt>
      <trkpt lat="48.64969" lon="1.75595">
        <ele>182</ele>
        <time>2022-03-27T08:16:36Z</time>
      </trkpt>
      <trkpt lat="48.64967" lon="1.75599">
        <ele>182</ele>
        <time>2022-03-27T08:16:38Z</time>
      </trkpt>
      <trkpt lat="48.64965" lon="1.75601">
        <ele>182</ele>
        <time>2022-03-27T08:16:39Z</time>
      </trkpt>
      <trkpt lat="48.64964" lon="1.75603">
        <ele>182</ele>
        <time>2022-03-27T08:16:40Z</time>
      </trkpt>
      <trkpt lat="48.64961" lon="1.75608">
        <ele>183</ele>
        <time>2022-03-27T08:16:42Z</time>
      </trkpt>
      <trkpt lat="48.6496" lon="1.7561">
        <ele>182</ele>
        <time>2022-03-27T08:16:43Z</time>
      </trkpt>
      <trkpt lat="48.64958" lon="1.75615">
        <ele>182</ele>
        <time>2022-03-27T08:16:45Z</time>
      </trkpt>
      <trkpt lat="48.64956" lon="1.75619">
        <ele>183</ele>
        <time>2022-03-27T08:16:47Z</time>
      </trkpt>
      <trkpt lat="48.64953" lon="1.75626">
        <ele>183</ele>
        <time>2022-03-27T08:16:50Z</time>
      </trkpt>
      <trkpt lat="48.64952" lon="1.7563">
        <ele>183</ele>
        <time>2022-03-27T08:16:52Z</time>
      </trkpt>
      <trkpt lat="48.64951" lon="1.75634">
        <ele>183</ele>
        <time>2022-03-27T08:16:54Z</time>
      </trkpt>
      <trkpt lat="48.64952" lon="1.75638">
        <ele>183</ele>
        <time>2022-03-27T08:16:56Z</time>
      </trkpt>
      <trkpt lat="48.64952" lon="1.75642">
        <ele>183</ele>
        <time>2022-03-27T08:16:58Z</time>
      </trkpt>
      <trkpt lat="48.64951" lon="1.75647">
        <ele>183</ele>
        <time>2022-03-27T08:17:00Z</time>
      </trkpt>
      <trkpt lat="48.64952" lon="1.75651">
        <ele>182</ele>
        <time>2022-03-27T08:17:02Z</time>
      </trkpt>
      <trkpt lat="48.64953" lon="1.75655">
        <ele>183</ele>
        <time>2022-03-27T08:17:04Z</time>
      </trkpt>
      <trkpt lat="48.64954" lon="1.75658">
        <ele>182</ele>
        <time>2022-03-27T08:17:06Z</time>
      </trkpt>
      <trkpt lat="48.64955" lon="1.75661">
        <ele>181</ele>
        <time>2022-03-27T08:17:08Z</time>
      </trkpt>
      <trkpt lat="48.64957" lon="1.75664">
        <ele>181</ele>
        <time>2022-03-27T08:17:10Z</time>
      </trkpt>
      <trkpt lat="48.6496" lon="1.75666">
        <ele>180</ele>
        <time>2022-03-27T08:17:12Z</time>
      </trkpt>
      <trkpt lat="48.64962" lon="1.75669">
        <ele>180</ele>
        <time>2022-03-27T08:17:14Z</time>
      </trkpt>
      <trkpt lat="48.64964" lon="1.75673">
        <ele>179</ele>
        <time>2022-03-27T08:17:16Z</time>
      </trkpt>
      <trkpt lat="48.64966" lon="1.75676">
        <ele>179</ele>
        <time>2022-03-27T08:17:18Z</time>
      </trkpt>
      <trkpt lat="48.64966" lon="1.7568">
        <ele>179</ele>
        <time>2022-03-27T08:17:20Z</time>
      </trkpt>
      <trkpt lat="48.64968" lon="1.75682">
        <ele>178</ele>
        <time>2022-03-27T08:17:22Z</time>
      </trkpt>
      <trkpt lat="48.64969" lon="1.75684">
        <ele>178</ele>
        <time>2022-03-27T08:17:24Z</time>
      </trkpt>
      <trkpt lat="48.64969" lon="1.75688">
        <ele>178</ele>
        <time>2022-03-27T08:17:26Z</time>
      </trkpt>
      <trkpt lat="48.64968" lon="1.75692">
        <ele>178</ele>
        <time>2022-03-27T08:17:28Z</time>
      </trkpt>
      <trkpt lat="48.64968" lon="1.75695">
        <ele>178</ele>
        <time>2022-03-27T08:17:29Z</time>
      </trkpt>
      <trkpt lat="48.64968" lon="1.757">
        <ele>178</ele>
        <time>2022-03-27T08:17:30Z</time>
      </trkpt>
      <trkpt lat="48.6497" lon="1.75703">
        <ele>177</ele>
        <time>2022-03-27T08:17:32Z</time>
      </trkpt>
      <trkpt lat="48.64971" lon="1.75706">
        <ele>177</ele>
        <time>2022-03-27T08:17:34Z</time>
      </trkpt>
      <trkpt lat="48.64973" lon="1.75709">
        <ele>177</ele>
        <time>2022-03-27T08:17:36Z</time>
      </trkpt>
      <trkpt lat="48.64973" lon="1.75712">
        <ele>177</ele>
        <time>2022-03-27T08:17:38Z</time>
      </trkpt>
      <trkpt lat="48.64973" lon="1.75716">
        <ele>177</ele>
        <time>2022-03-27T08:17:40Z</time>
      </trkpt>
      <trkpt lat="48.64975" lon="1.75718">
        <ele>176</ele>
        <time>2022-03-27T08:17:42Z</time>
      </trkpt>
      <trkpt lat="48.64977" lon="1.75717">
        <ele>176</ele>
        <time>2022-03-27T08:17:45Z</time>
      </trkpt>
      <trkpt lat="48.64978" lon="1.75719">
        <ele>176</ele>
        <time>2022-03-27T08:17:47Z</time>
      </trkpt>
      <trkpt lat="48.64979" lon="1.75722">
        <ele>176</ele>
        <time>2022-03-27T08:17:49Z</time>
      </trkpt>
      <trkpt lat="48.64979" lon="1.75726">
        <ele>176</ele>
        <time>2022-03-27T08:17:51Z</time>
      </trkpt>
      <trkpt lat="48.64981" lon="1.7573">
        <ele>176</ele>
        <time>2022-03-27T08:17:53Z</time>
      </trkpt>
      <trkpt lat="48.64981" lon="1.75734">
        <ele>176</ele>
        <time>2022-03-27T08:17:54Z</time>
      </trkpt>
      <trkpt lat="48.6498" lon="1.75737">
        <ele>176</ele>
        <time>2022-03-27T08:17:55Z</time>
      </trkpt>
      <trkpt lat="48.64981" lon="1.7574">
        <ele>176</ele>
        <time>2022-03-27T08:17:57Z</time>
      </trkpt>
      <trkpt lat="48.64983" lon="1.75743">
        <ele>176</ele>
        <time>2022-03-27T08:17:59Z</time>
      </trkpt>
      <trkpt lat="48.64984" lon="1.75745">
        <ele>176</ele>
        <time>2022-03-27T08:18:01Z</time>
      </trkpt>
      <trkpt lat="48.64987" lon="1.75748">
        <ele>176</ele>
        <time>2022-03-27T08:18:03Z</time>
      </trkpt>
      <trkpt lat="48.64989" lon="1.75751">
        <ele>176</ele>
        <time>2022-03-27T08:18:05Z</time>
      </trkpt>
      <trkpt lat="48.64991" lon="1.75752">
        <ele>176</ele>
        <time>2022-03-27T08:18:07Z</time>
      </trkpt>
      <trkpt lat="48.64993" lon="1.75755">
        <ele>176</ele>
        <time>2022-03-27T08:18:09Z</time>
      </trkpt>
      <trkpt lat="48.64995" lon="1.75758">
        <ele>176</ele>
        <time>2022-03-27T08:18:11Z</time>
      </trkpt>
      <trkpt lat="48.64996" lon="1.75762">
        <ele>176</ele>
        <time>2022-03-27T08:18:13Z</time>
      </trkpt>
      <trkpt lat="48.64998" lon="1.75766">
        <ele>176</ele>
        <time>2022-03-27T08:18:15Z</time>
      </trkpt>
      <trkpt lat="48.64999" lon="1.75768">
        <ele>175</ele>
        <time>2022-03-27T08:18:16Z</time>
      </trkpt>
      <trkpt lat="48.65" lon="1.75771">
        <ele>175</ele>
        <time>2022-03-27T08:18:17Z</time>
      </trkpt>
      <trkpt lat="48.65002" lon="1.75773">
        <ele>175</ele>
        <time>2022-03-27T08:18:18Z</time>
      </trkpt>
      <trkpt lat="48.65004" lon="1.75777">
        <ele>175</ele>
        <time>2022-03-27T08:18:20Z</time>
      </trkpt>
      <trkpt lat="48.65006" lon="1.7578">
        <ele>175</ele>
        <time>2022-03-27T08:18:21Z</time>
      </trkpt>
      <trkpt lat="48.65009" lon="1.75785">
        <ele>174</ele>
        <time>2022-03-27T08:18:23Z</time>
      </trkpt>
      <trkpt lat="48.65013" lon="1.75791">
        <ele>174</ele>
        <time>2022-03-27T08:18:26Z</time>
      </trkpt>
      <trkpt lat="48.65014" lon="1.75795">
        <ele>174</ele>
        <time>2022-03-27T08:18:28Z</time>
      </trkpt>
      <trkpt lat="48.65014" lon="1.75798">
        <ele>174</ele>
        <time>2022-03-27T08:18:29Z</time>
      </trkpt>
      <trkpt lat="48.65012" lon="1.75802">
        <ele>174</ele>
        <time>2022-03-27T08:18:31Z</time>
      </trkpt>
      <trkpt lat="48.65009" lon="1.75804">
        <ele>174</ele>
        <time>2022-03-27T08:18:32Z</time>
      </trkpt>
      <trkpt lat="48.65006" lon="1.75806">
        <ele>175</ele>
        <time>2022-03-27T08:18:33Z</time>
      </trkpt>
      <trkpt lat="48.65004" lon="1.75804">
        <ele>174</ele>
        <time>2022-03-27T08:18:37Z</time>
      </trkpt>
      <trkpt lat="48.65003" lon="1.758">
        <ele>173</ele>
        <time>2022-03-27T08:18:40Z</time>
      </trkpt>
      <trkpt lat="48.65002" lon="1.75797">
        <ele>173</ele>
        <time>2022-03-27T08:18:42Z</time>
      </trkpt>
      <trkpt lat="48.65002" lon="1.75794">
        <ele>173</ele>
        <time>2022-03-27T08:18:44Z</time>
      </trkpt>
      <trkpt lat="48.65" lon="1.75791">
        <ele>173</ele>
        <time>2022-03-27T08:18:46Z</time>
      </trkpt>
      <trkpt lat="48.64998" lon="1.7579">
        <ele>172</ele>
        <time>2022-03-27T08:18:49Z</time>
      </trkpt>
      <trkpt lat="48.64996" lon="1.75792">
        <ele>172</ele>
        <time>2022-03-27T08:18:52Z</time>
      </trkpt>
      <trkpt lat="48.64995" lon="1.75795">
        <ele>172</ele>
        <time>2022-03-27T08:18:55Z</time>
      </trkpt>
      <trkpt lat="48.64994" lon="1.75798">
        <ele>172</ele>
        <time>2022-03-27T08:18:57Z</time>
      </trkpt>
      <trkpt lat="48.64992" lon="1.758">
        <ele>172</ele>
        <time>2022-03-27T08:18:59Z</time>
      </trkpt>
      <trkpt lat="48.6499" lon="1.75802">
        <ele>173</ele>
        <time>2022-03-27T08:19:01Z</time>
      </trkpt>
      <trkpt lat="48.64987" lon="1.75802">
        <ele>173</ele>
        <time>2022-03-27T08:19:03Z</time>
      </trkpt>
      <trkpt lat="48.64984" lon="1.75801">
        <ele>173</ele>
        <time>2022-03-27T08:19:05Z</time>
      </trkpt>
      <trkpt lat="48.64981" lon="1.75799">
        <ele>173</ele>
        <time>2022-03-27T08:19:07Z</time>
      </trkpt>
      <trkpt lat="48.64978" lon="1.75798">
        <ele>173</ele>
        <time>2022-03-27T08:19:09Z</time>
      </trkpt>
      <trkpt lat="48.64976" lon="1.75798">
        <ele>173</ele>
        <time>2022-03-27T08:19:11Z</time>
      </trkpt>
      <trkpt lat="48.64974" lon="1.75795">
        <ele>173</ele>
        <time>2022-03-27T08:19:13Z</time>
      </trkpt>
      <trkpt lat="48.6497" lon="1.75793">
        <ele>173</ele>
        <time>2022-03-27T08:19:15Z</time>
      </trkpt>
      <trkpt lat="48.64968" lon="1.75792">
        <ele>174</ele>
        <time>2022-03-27T08:19:16Z</time>
      </trkpt>
      <trkpt lat="48.64966" lon="1.75791">
        <ele>174</ele>
        <time>2022-03-27T08:19:18Z</time>
      </trkpt>
      <trkpt lat="48.64962" lon="1.75788">
        <ele>175</ele>
        <time>2022-03-27T08:19:20Z</time>
      </trkpt>
      <trkpt lat="48.6496" lon="1.75786">
        <ele>174</ele>
        <time>2022-03-27T08:19:22Z</time>
      </trkpt>
      <trkpt lat="48.64957" lon="1.75784">
        <ele>174</ele>
        <time>2022-03-27T08:19:24Z</time>
      </trkpt>
      <trkpt lat="48.64955" lon="1.75782">
        <ele>174</ele>
        <time>2022-03-27T08:19:26Z</time>
      </trkpt>
      <trkpt lat="48.64952" lon="1.75779">
        <ele>175</ele>
        <time>2022-03-27T08:19:28Z</time>
      </trkpt>
      <trkpt lat="48.64951" lon="1.75777">
        <ele>175</ele>
        <time>2022-03-27T08:19:29Z</time>
      </trkpt>
      <trkpt lat="48.64949" lon="1.75776">
        <ele>175</ele>
        <time>2022-03-27T08:19:30Z</time>
      </trkpt>
      <trkpt lat="48.64946" lon="1.75773">
        <ele>175</ele>
        <time>2022-03-27T08:19:32Z</time>
      </trkpt>
      <trkpt lat="48.64944" lon="1.75769">
        <ele>175</ele>
        <time>2022-03-27T08:19:34Z</time>
      </trkpt>
      <trkpt lat="48.64943" lon="1.75767">
        <ele>175</ele>
        <time>2022-03-27T08:19:35Z</time>
      </trkpt>
      <trkpt lat="48.64942" lon="1.75764">
        <ele>174</ele>
        <time>2022-03-27T08:19:36Z</time>
      </trkpt>
      <trkpt lat="48.64939" lon="1.75761">
        <ele>174</ele>
        <time>2022-03-27T08:19:38Z</time>
      </trkpt>
      <trkpt lat="48.64937" lon="1.75758">
        <ele>174</ele>
        <time>2022-03-27T08:19:40Z</time>
      </trkpt>
      <trkpt lat="48.64935" lon="1.75756">
        <ele>174</ele>
        <time>2022-03-27T08:19:42Z</time>
      </trkpt>
      <trkpt lat="48.64932" lon="1.75754">
        <ele>174</ele>
        <time>2022-03-27T08:19:44Z</time>
      </trkpt>
      <trkpt lat="48.6493" lon="1.75751">
        <ele>174</ele>
        <time>2022-03-27T08:19:46Z</time>
      </trkpt>
      <trkpt lat="48.64928" lon="1.75747">
        <ele>174</ele>
        <time>2022-03-27T08:19:48Z</time>
      </trkpt>
      <trkpt lat="48.64928" lon="1.75742">
        <ele>173</ele>
        <time>2022-03-27T08:19:50Z</time>
      </trkpt>
      <trkpt lat="48.64926" lon="1.7574">
        <ele>173</ele>
        <time>2022-03-27T08:19:54Z</time>
      </trkpt>
      <trkpt lat="48.64924" lon="1.75739">
        <ele>173</ele>
        <time>2022-03-27T08:19:56Z</time>
      </trkpt>
      <trkpt lat="48.64922" lon="1.75739">
        <ele>173</ele>
        <time>2022-03-27T08:19:59Z</time>
      </trkpt>
      <trkpt lat="48.6492" lon="1.75738">
        <ele>173</ele>
        <time>2022-03-27T08:20:08Z</time>
      </trkpt>
      <trkpt lat="48.64922" lon="1.75736">
        <ele>172</ele>
        <time>2022-03-27T08:20:26Z</time>
      </trkpt>
      <trkpt lat="48.64923" lon="1.75734">
        <ele>170</ele>
        <time>2022-03-27T08:20:32Z</time>
      </trkpt>
      <trkpt lat="48.64926" lon="1.75733">
        <ele>170</ele>
        <time>2022-03-27T08:20:36Z</time>
      </trkpt>
      <trkpt lat="48.64928" lon="1.75733">
        <ele>171</ele>
        <time>2022-03-27T08:20:39Z</time>
      </trkpt>
      <trkpt lat="48.64929" lon="1.75731">
        <ele>171</ele>
        <time>2022-03-27T08:20:41Z</time>
      </trkpt>
      <trkpt lat="48.6493" lon="1.75726">
        <ele>171</ele>
        <time>2022-03-27T08:20:43Z</time>
      </trkpt>
      <trkpt lat="48.6493" lon="1.75722">
        <ele>171</ele>
        <time>2022-03-27T08:20:45Z</time>
      </trkpt>
      <trkpt lat="48.6493" lon="1.75717">
        <ele>171</ele>
        <time>2022-03-27T08:20:47Z</time>
      </trkpt>
      <trkpt lat="48.64929" lon="1.75713">
        <ele>171</ele>
        <time>2022-03-27T08:20:49Z</time>
      </trkpt>
      <trkpt lat="48.64927" lon="1.75709">
        <ele>171</ele>
        <time>2022-03-27T08:20:51Z</time>
      </trkpt>
      <trkpt lat="48.64926" lon="1.75706">
        <ele>171</ele>
        <time>2022-03-27T08:20:53Z</time>
      </trkpt>
      <trkpt lat="48.64924" lon="1.75703">
        <ele>171</ele>
        <time>2022-03-27T08:20:55Z</time>
      </trkpt>
      <trkpt lat="48.64922" lon="1.757">
        <ele>172</ele>
        <time>2022-03-27T08:20:57Z</time>
      </trkpt>
      <trkpt lat="48.6492" lon="1.75698">
        <ele>172</ele>
        <time>2022-03-27T08:20:59Z</time>
      </trkpt>
      <trkpt lat="48.64918" lon="1.75696">
        <ele>172</ele>
        <time>2022-03-27T08:21:01Z</time>
      </trkpt>
      <trkpt lat="48.64917" lon="1.75693">
        <ele>172</ele>
        <time>2022-03-27T08:21:03Z</time>
      </trkpt>
      <trkpt lat="48.64915" lon="1.75689">
        <ele>172</ele>
        <time>2022-03-27T08:21:05Z</time>
      </trkpt>
      <trkpt lat="48.64913" lon="1.75687">
        <ele>172</ele>
        <time>2022-03-27T08:21:07Z</time>
      </trkpt>
      <trkpt lat="48.64911" lon="1.75685">
        <ele>173</ele>
        <time>2022-03-27T08:21:09Z</time>
      </trkpt>
      <trkpt lat="48.64909" lon="1.75685">
        <ele>173</ele>
        <time>2022-03-27T08:21:11Z</time>
      </trkpt>
      <trkpt lat="48.64906" lon="1.75686">
        <ele>173</ele>
        <time>2022-03-27T08:21:13Z</time>
      </trkpt>
      <trkpt lat="48.64904" lon="1.75686">
        <ele>174</ele>
        <time>2022-03-27T08:21:15Z</time>
      </trkpt>
      <trkpt lat="48.64901" lon="1.75686">
        <ele>174</ele>
        <time>2022-03-27T08:21:17Z</time>
      </trkpt>
      <trkpt lat="48.64898" lon="1.75685">
        <ele>174</ele>
        <time>2022-03-27T08:21:19Z</time>
      </trkpt>
      <trkpt lat="48.64896" lon="1.75684">
        <ele>174</ele>
        <time>2022-03-27T08:21:21Z</time>
      </trkpt>
      <trkpt lat="48.64894" lon="1.75684">
        <ele>174</ele>
        <time>2022-03-27T08:21:25Z</time>
      </trkpt>
      <trkpt lat="48.64892" lon="1.75684">
        <ele>173</ele>
        <time>2022-03-27T08:21:27Z</time>
      </trkpt>
      <trkpt lat="48.6489" lon="1.75682">
        <ele>173</ele>
        <time>2022-03-27T08:21:29Z</time>
      </trkpt>
      <trkpt lat="48.64888" lon="1.7568">
        <ele>174</ele>
        <time>2022-03-27T08:21:32Z</time>
      </trkpt>
      <trkpt lat="48.64886" lon="1.75678">
        <ele>174</ele>
        <time>2022-03-27T08:21:34Z</time>
      </trkpt>
      <trkpt lat="48.64885" lon="1.75674">
        <ele>173</ele>
        <time>2022-03-27T08:21:37Z</time>
      </trkpt>
      <trkpt lat="48.64886" lon="1.75671">
        <ele>173</ele>
        <time>2022-03-27T08:21:41Z</time>
      </trkpt>
      <trkpt lat="48.64889" lon="1.75673">
        <ele>172</ele>
        <time>2022-03-27T08:21:44Z</time>
      </trkpt>
      <trkpt lat="48.64888" lon="1.75675">
        <ele>172</ele>
        <time>2022-03-27T08:21:46Z</time>
      </trkpt>
      <trkpt lat="48.64887" lon="1.75678">
        <ele>172</ele>
        <time>2022-03-27T08:21:48Z</time>
      </trkpt>
      <trkpt lat="48.64886" lon="1.75682">
        <ele>172</ele>
        <time>2022-03-27T08:21:50Z</time>
      </trkpt>
      <trkpt lat="48.64883" lon="1.75685">
        <ele>172</ele>
        <time>2022-03-27T08:21:52Z</time>
      </trkpt>
      <trkpt lat="48.6488" lon="1.75685">
        <ele>172</ele>
        <time>2022-03-27T08:21:54Z</time>
      </trkpt>
      <trkpt lat="48.64877" lon="1.75684">
        <ele>172</ele>
        <time>2022-03-27T08:21:56Z</time>
      </trkpt>
      <trkpt lat="48.64875" lon="1.75682">
        <ele>172</ele>
        <time>2022-03-27T08:21:58Z</time>
      </trkpt>
      <trkpt lat="48.64872" lon="1.75681">
        <ele>172</ele>
        <time>2022-03-27T08:22:00Z</time>
      </trkpt>
      <trkpt lat="48.6487" lon="1.7568">
        <ele>172</ele>
        <time>2022-03-27T08:22:02Z</time>
      </trkpt>
      <trkpt lat="48.64868" lon="1.75679">
        <ele>172</ele>
        <time>2022-03-27T08:22:05Z</time>
      </trkpt>
      <trkpt lat="48.64867" lon="1.75677">
        <ele>173</ele>
        <time>2022-03-27T08:22:07Z</time>
      </trkpt>
      <trkpt lat="48.64864" lon="1.75677">
        <ele>173</ele>
        <time>2022-03-27T08:22:10Z</time>
      </trkpt>
      <trkpt lat="48.64862" lon="1.75674">
        <ele>174</ele>
        <time>2022-03-27T08:22:13Z</time>
      </trkpt>
      <trkpt lat="48.64861" lon="1.75672">
        <ele>174</ele>
        <time>2022-03-27T08:22:16Z</time>
      </trkpt>
      <trkpt lat="48.64859" lon="1.7567">
        <ele>174</ele>
        <time>2022-03-27T08:22:18Z</time>
      </trkpt>
      <trkpt lat="48.64856" lon="1.75669">
        <ele>175</ele>
        <time>2022-03-27T08:22:20Z</time>
      </trkpt>
      <trkpt lat="48.64854" lon="1.75667">
        <ele>175</ele>
        <time>2022-03-27T08:22:22Z</time>
      </trkpt>
      <trkpt lat="48.64853" lon="1.75664">
        <ele>175</ele>
        <time>2022-03-27T08:22:24Z</time>
      </trkpt>
      <trkpt lat="48.6485" lon="1.75662">
        <ele>175</ele>
        <time>2022-03-27T08:22:26Z</time>
      </trkpt>
      <trkpt lat="48.64847" lon="1.7566">
        <ele>176</ele>
        <time>2022-03-27T08:22:28Z</time>
      </trkpt>
      <trkpt lat="48.64845" lon="1.75657">
        <ele>176</ele>
        <time>2022-03-27T08:22:30Z</time>
      </trkpt>
      <trkpt lat="48.64842" lon="1.75655">
        <ele>175</ele>
        <time>2022-03-27T08:22:32Z</time>
      </trkpt>
      <trkpt lat="48.6484" lon="1.75652">
        <ele>176</ele>
        <time>2022-03-27T08:22:34Z</time>
      </trkpt>
      <trkpt lat="48.64837" lon="1.75649">
        <ele>175</ele>
        <time>2022-03-27T08:22:36Z</time>
      </trkpt>
      <trkpt lat="48.64835" lon="1.75647">
        <ele>176</ele>
        <time>2022-03-27T08:22:38Z</time>
      </trkpt>
      <trkpt lat="48.64831" lon="1.75645">
        <ele>176</ele>
        <time>2022-03-27T08:22:40Z</time>
      </trkpt>
      <trkpt lat="48.64828" lon="1.75644">
        <ele>176</ele>
        <time>2022-03-27T08:22:42Z</time>
      </trkpt>
      <trkpt lat="48.64826" lon="1.75643">
        <ele>177</ele>
        <time>2022-03-27T08:22:44Z</time>
      </trkpt>
      <trkpt lat="48.64823" lon="1.75642">
        <ele>177</ele>
        <time>2022-03-27T08:22:46Z</time>
      </trkpt>
      <trkpt lat="48.6482" lon="1.75641">
        <ele>177</ele>
        <time>2022-03-27T08:22:48Z</time>
      </trkpt>
      <trkpt lat="48.64816" lon="1.7564">
        <ele>177</ele>
        <time>2022-03-27T08:22:50Z</time>
      </trkpt>
      <trkpt lat="48.64813" lon="1.75638">
        <ele>177</ele>
        <time>2022-03-27T08:22:52Z</time>
      </trkpt>
      <trkpt lat="48.64811" lon="1.75637">
        <ele>177</ele>
        <time>2022-03-27T08:22:53Z</time>
      </trkpt>
      <trkpt lat="48.64809" lon="1.75636">
        <ele>178</ele>
        <time>2022-03-27T08:22:55Z</time>
      </trkpt>
      <trkpt lat="48.64806" lon="1.75634">
        <ele>178</ele>
        <time>2022-03-27T08:22:57Z</time>
      </trkpt>
      <trkpt lat="48.64803" lon="1.75633">
        <ele>178</ele>
        <time>2022-03-27T08:22:59Z</time>
      </trkpt>
      <trkpt lat="48.64801" lon="1.7563">
        <ele>178</ele>
        <time>2022-03-27T08:23:01Z</time>
      </trkpt>
      <trkpt lat="48.64798" lon="1.75628">
        <ele>178</ele>
        <time>2022-03-27T08:23:03Z</time>
      </trkpt>
      <trkpt lat="48.64795" lon="1.75626">
        <ele>178</ele>
        <time>2022-03-27T08:23:05Z</time>
      </trkpt>
      <trkpt lat="48.64792" lon="1.75623">
        <ele>179</ele>
        <time>2022-03-27T08:23:07Z</time>
      </trkpt>
      <trkpt lat="48.6479" lon="1.75621">
        <ele>179</ele>
        <time>2022-03-27T08:23:09Z</time>
      </trkpt>
      <trkpt lat="48.64787" lon="1.75619">
        <ele>179</ele>
        <time>2022-03-27T08:23:11Z</time>
      </trkpt>
      <trkpt lat="48.64785" lon="1.75616">
        <ele>179</ele>
        <time>2022-03-27T08:23:13Z</time>
      </trkpt>
      <trkpt lat="48.64782" lon="1.75613">
        <ele>179</ele>
        <time>2022-03-27T08:23:15Z</time>
      </trkpt>
      <trkpt lat="48.64779" lon="1.75612">
        <ele>179</ele>
        <time>2022-03-27T08:23:17Z</time>
      </trkpt>
      <trkpt lat="48.64778" lon="1.7561">
        <ele>179</ele>
        <time>2022-03-27T08:23:18Z</time>
      </trkpt>
      <trkpt lat="48.64776" lon="1.75609">
        <ele>179</ele>
        <time>2022-03-27T08:23:19Z</time>
      </trkpt>
      <trkpt lat="48.64774" lon="1.75605">
        <ele>179</ele>
        <time>2022-03-27T08:23:21Z</time>
      </trkpt>
      <trkpt lat="48.64771" lon="1.75602">
        <ele>179</ele>
        <time>2022-03-27T08:23:23Z</time>
      </trkpt>
      <trkpt lat="48.64769" lon="1.75599">
        <ele>179</ele>
        <time>2022-03-27T08:23:25Z</time>
      </trkpt>
      <trkpt lat="48.64766" lon="1.75597">
        <ele>179</ele>
        <time>2022-03-27T08:23:27Z</time>
      </trkpt>
      <trkpt lat="48.64763" lon="1.75594">
        <ele>179</ele>
        <time>2022-03-27T08:23:29Z</time>
      </trkpt>
      <trkpt lat="48.6476" lon="1.75592">
        <ele>179</ele>
        <time>2022-03-27T08:23:31Z</time>
      </trkpt>
      <trkpt lat="48.64757" lon="1.75592">
        <ele>179</ele>
        <time>2022-03-27T08:23:33Z</time>
      </trkpt>
      <trkpt lat="48.64755" lon="1.75594">
        <ele>180</ele>
        <time>2022-03-27T08:23:35Z</time>
      </trkpt>
      <trkpt lat="48.64753" lon="1.75597">
        <ele>180</ele>
        <time>2022-03-27T08:23:37Z</time>
      </trkpt>
      <trkpt lat="48.64752" lon="1.756">
        <ele>180</ele>
        <time>2022-03-27T08:23:40Z</time>
      </trkpt>
      <trkpt lat="48.64751" lon="1.75604">
        <ele>180</ele>
        <time>2022-03-27T08:23:42Z</time>
      </trkpt>
      <trkpt lat="48.6475" lon="1.75607">
        <ele>179</ele>
        <time>2022-03-27T08:23:44Z</time>
      </trkpt>
      <trkpt lat="48.6475" lon="1.7561">
        <ele>179</ele>
        <time>2022-03-27T08:23:46Z</time>
      </trkpt>
      <trkpt lat="48.6475" lon="1.75613">
        <ele>179</ele>
        <time>2022-03-27T08:23:48Z</time>
      </trkpt>
      <trkpt lat="48.64749" lon="1.75617">
        <ele>179</ele>
        <time>2022-03-27T08:23:50Z</time>
      </trkpt>
      <trkpt lat="48.64748" lon="1.7562">
        <ele>180</ele>
        <time>2022-03-27T08:23:52Z</time>
      </trkpt>
      <trkpt lat="48.64747" lon="1.75624">
        <ele>180</ele>
        <time>2022-03-27T08:23:54Z</time>
      </trkpt>
      <trkpt lat="48.64745" lon="1.75626">
        <ele>180</ele>
        <time>2022-03-27T08:23:56Z</time>
      </trkpt>
      <trkpt lat="48.64745" lon="1.75629">
        <ele>180</ele>
        <time>2022-03-27T08:23:58Z</time>
      </trkpt>
      <trkpt lat="48.64742" lon="1.75632">
        <ele>180</ele>
        <time>2022-03-27T08:24:00Z</time>
      </trkpt>
      <trkpt lat="48.64741" lon="1.75634">
        <ele>180</ele>
        <time>2022-03-27T08:24:01Z</time>
      </trkpt>
      <trkpt lat="48.64739" lon="1.75636">
        <ele>180</ele>
        <time>2022-03-27T08:24:02Z</time>
      </trkpt>
      <trkpt lat="48.64737" lon="1.75638">
        <ele>179</ele>
        <time>2022-03-27T08:24:04Z</time>
      </trkpt>
      <trkpt lat="48.64734" lon="1.75641">
        <ele>179</ele>
        <time>2022-03-27T08:24:06Z</time>
      </trkpt>
      <trkpt lat="48.64733" lon="1.75643">
        <ele>180</ele>
        <time>2022-03-27T08:24:07Z</time>
      </trkpt>
      <trkpt lat="48.6473" lon="1.75645">
        <ele>180</ele>
        <time>2022-03-27T08:24:08Z</time>
      </trkpt>
      <trkpt lat="48.64729" lon="1.75647">
        <ele>180</ele>
        <time>2022-03-27T08:24:09Z</time>
      </trkpt>
      <trkpt lat="48.64727" lon="1.75649">
        <ele>180</ele>
        <time>2022-03-27T08:24:11Z</time>
      </trkpt>
      <trkpt lat="48.64724" lon="1.75651">
        <ele>180</ele>
        <time>2022-03-27T08:24:13Z</time>
      </trkpt>
      <trkpt lat="48.64722" lon="1.75654">
        <ele>179</ele>
        <time>2022-03-27T08:24:15Z</time>
      </trkpt>
      <trkpt lat="48.6472" lon="1.75657">
        <ele>179</ele>
        <time>2022-03-27T08:24:17Z</time>
      </trkpt>
      <trkpt lat="48.64718" lon="1.7566">
        <ele>179</ele>
        <time>2022-03-27T08:24:19Z</time>
      </trkpt>
      <trkpt lat="48.64716" lon="1.75663">
        <ele>179</ele>
        <time>2022-03-27T08:24:21Z</time>
      </trkpt>
      <trkpt lat="48.64714" lon="1.75665">
        <ele>179</ele>
        <time>2022-03-27T08:24:23Z</time>
      </trkpt>
      <trkpt lat="48.64711" lon="1.75668">
        <ele>179</ele>
        <time>2022-03-27T08:24:25Z</time>
      </trkpt>
      <trkpt lat="48.64709" lon="1.7567">
        <ele>179</ele>
        <time>2022-03-27T08:24:26Z</time>
      </trkpt>
      <trkpt lat="48.64707" lon="1.75672">
        <ele>179</ele>
        <time>2022-03-27T08:24:28Z</time>
      </trkpt>
      <trkpt lat="48.64705" lon="1.75675">
        <ele>178</ele>
        <time>2022-03-27T08:24:30Z</time>
      </trkpt>
      <trkpt lat="48.64703" lon="1.75678">
        <ele>178</ele>
        <time>2022-03-27T08:24:32Z</time>
      </trkpt>
      <trkpt lat="48.64701" lon="1.75681">
        <ele>178</ele>
        <time>2022-03-27T08:24:34Z</time>
      </trkpt>
      <trkpt lat="48.64699" lon="1.75684">
        <ele>177</ele>
        <time>2022-03-27T08:24:36Z</time>
      </trkpt>
      <trkpt lat="48.64697" lon="1.75687">
        <ele>177</ele>
        <time>2022-03-27T08:24:38Z</time>
      </trkpt>
      <trkpt lat="48.64694" lon="1.7569">
        <ele>177</ele>
        <time>2022-03-27T08:24:40Z</time>
      </trkpt>
      <trkpt lat="48.64692" lon="1.75693">
        <ele>176</ele>
        <time>2022-03-27T08:24:42Z</time>
      </trkpt>
      <trkpt lat="48.6469" lon="1.75696">
        <ele>176</ele>
        <time>2022-03-27T08:24:44Z</time>
      </trkpt>
      <trkpt lat="48.64688" lon="1.75699">
        <ele>175</ele>
        <time>2022-03-27T08:24:46Z</time>
      </trkpt>
      <trkpt lat="48.64685" lon="1.75702">
        <ele>174</ele>
        <time>2022-03-27T08:24:48Z</time>
      </trkpt>
      <trkpt lat="48.64683" lon="1.75704">
        <ele>173</ele>
        <time>2022-03-27T08:24:50Z</time>
      </trkpt>
      <trkpt lat="48.6468" lon="1.75708">
        <ele>173</ele>
        <time>2022-03-27T08:24:52Z</time>
      </trkpt>
      <trkpt lat="48.64678" lon="1.75711">
        <ele>172</ele>
        <time>2022-03-27T08:24:54Z</time>
      </trkpt>
      <trkpt lat="48.64676" lon="1.75714">
        <ele>172</ele>
        <time>2022-03-27T08:24:56Z</time>
      </trkpt>
      <trkpt lat="48.64673" lon="1.75717">
        <ele>172</ele>
        <time>2022-03-27T08:24:58Z</time>
      </trkpt>
      <trkpt lat="48.64671" lon="1.7572">
        <ele>172</ele>
        <time>2022-03-27T08:25:00Z</time>
      </trkpt>
      <trkpt lat="48.64669" lon="1.75722">
        <ele>172</ele>
        <time>2022-03-27T08:25:02Z</time>
      </trkpt>
      <trkpt lat="48.64667" lon="1.75725">
        <ele>172</ele>
        <time>2022-03-27T08:25:04Z</time>
      </trkpt>
      <trkpt lat="48.64664" lon="1.75728">
        <ele>172</ele>
        <time>2022-03-27T08:25:06Z</time>
      </trkpt>
      <trkpt lat="48.64661" lon="1.75731">
        <ele>172</ele>
        <time>2022-03-27T08:25:08Z</time>
      </trkpt>
      <trkpt lat="48.64659" lon="1.75734">
        <ele>171</ele>
        <time>2022-03-27T08:25:10Z</time>
      </trkpt>
      <trkpt lat="48.64657" lon="1.75737">
        <ele>171</ele>
        <time>2022-03-27T08:25:12Z</time>
      </trkpt>
      <trkpt lat="48.64655" lon="1.75739">
        <ele>171</ele>
        <time>2022-03-27T08:25:14Z</time>
      </trkpt>
      <trkpt lat="48.64654" lon="1.75743">
        <ele>171</ele>
        <time>2022-03-27T08:25:16Z</time>
      </trkpt>
      <trkpt lat="48.64653" lon="1.75746">
        <ele>171</ele>
        <time>2022-03-27T08:25:18Z</time>
      </trkpt>
      <trkpt lat="48.64651" lon="1.75748">
        <ele>171</ele>
        <time>2022-03-27T08:25:20Z</time>
      </trkpt>
      <trkpt lat="48.64649" lon="1.75751">
        <ele>171</ele>
        <time>2022-03-27T08:25:22Z</time>
      </trkpt>
      <trkpt lat="48.64646" lon="1.75755">
        <ele>171</ele>
        <time>2022-03-27T08:25:24Z</time>
      </trkpt>
      <trkpt lat="48.64645" lon="1.75756">
        <ele>171</ele>
        <time>2022-03-27T08:25:25Z</time>
      </trkpt>
      <trkpt lat="48.64643" lon="1.7576">
        <ele>171</ele>
        <time>2022-03-27T08:25:27Z</time>
      </trkpt>
      <trkpt lat="48.64641" lon="1.75762">
        <ele>171</ele>
        <time>2022-03-27T08:25:28Z</time>
      </trkpt>
      <trkpt lat="48.6464" lon="1.75764">
        <ele>171</ele>
        <time>2022-03-27T08:25:29Z</time>
      </trkpt>
      <trkpt lat="48.64638" lon="1.75765">
        <ele>171</ele>
        <time>2022-03-27T08:25:30Z</time>
      </trkpt>
      <trkpt lat="48.64636" lon="1.75768">
        <ele>171</ele>
        <time>2022-03-27T08:25:31Z</time>
      </trkpt>
      <trkpt lat="48.64634" lon="1.7577">
        <ele>171</ele>
        <time>2022-03-27T08:25:32Z</time>
      </trkpt>
      <trkpt lat="48.64633" lon="1.75771">
        <ele>171</ele>
        <time>2022-03-27T08:25:33Z</time>
      </trkpt>
      <trkpt lat="48.6463" lon="1.75775">
        <ele>170</ele>
        <time>2022-03-27T08:25:35Z</time>
      </trkpt>
      <trkpt lat="48.64629" lon="1.75777">
        <ele>170</ele>
        <time>2022-03-27T08:25:36Z</time>
      </trkpt>
      <trkpt lat="48.64627" lon="1.75781">
        <ele>171</ele>
        <time>2022-03-27T08:25:38Z</time>
      </trkpt>
      <trkpt lat="48.64624" lon="1.75784">
        <ele>170</ele>
        <time>2022-03-27T08:25:40Z</time>
      </trkpt>
      <trkpt lat="48.64623" lon="1.75786">
        <ele>170</ele>
        <time>2022-03-27T08:25:41Z</time>
      </trkpt>
      <trkpt lat="48.64621" lon="1.75788">
        <ele>170</ele>
        <time>2022-03-27T08:25:42Z</time>
      </trkpt>
      <trkpt lat="48.64619" lon="1.75791">
        <ele>170</ele>
        <time>2022-03-27T08:25:44Z</time>
      </trkpt>
      <trkpt lat="48.64618" lon="1.75794">
        <ele>170</ele>
        <time>2022-03-27T08:25:46Z</time>
      </trkpt>
      <trkpt lat="48.64616" lon="1.75797">
        <ele>169</ele>
        <time>2022-03-27T08:25:48Z</time>
      </trkpt>
      <trkpt lat="48.64615" lon="1.758">
        <ele>169</ele>
        <time>2022-03-27T08:25:50Z</time>
      </trkpt>
      <trkpt lat="48.64614" lon="1.75803">
        <ele>169</ele>
        <time>2022-03-27T08:25:52Z</time>
      </trkpt>
      <trkpt lat="48.64612" lon="1.75806">
        <ele>169</ele>
        <time>2022-03-27T08:25:54Z</time>
      </trkpt>
      <trkpt lat="48.64611" lon="1.7581">
        <ele>169</ele>
        <time>2022-03-27T08:25:56Z</time>
      </trkpt>
      <trkpt lat="48.6461" lon="1.75813">
        <ele>168</ele>
        <time>2022-03-27T08:25:58Z</time>
      </trkpt>
      <trkpt lat="48.64608" lon="1.75815">
        <ele>168</ele>
        <time>2022-03-27T08:25:59Z</time>
      </trkpt>
      <trkpt lat="48.64606" lon="1.75819">
        <ele>167</ele>
        <time>2022-03-27T08:26:01Z</time>
      </trkpt>
      <trkpt lat="48.64604" lon="1.75823">
        <ele>167</ele>
        <time>2022-03-27T08:26:03Z</time>
      </trkpt>
      <trkpt lat="48.64602" lon="1.75826">
        <ele>166</ele>
        <time>2022-03-27T08:26:05Z</time>
      </trkpt>
      <trkpt lat="48.64601" lon="1.75828">
        <ele>166</ele>
        <time>2022-03-27T08:26:07Z</time>
      </trkpt>
      <trkpt lat="48.646" lon="1.75831">
        <ele>166</ele>
        <time>2022-03-27T08:26:09Z</time>
      </trkpt>
      <trkpt lat="48.64598" lon="1.75834">
        <ele>166</ele>
        <time>2022-03-27T08:26:11Z</time>
      </trkpt>
      <trkpt lat="48.64595" lon="1.75837">
        <ele>166</ele>
        <time>2022-03-27T08:26:13Z</time>
      </trkpt>
      <trkpt lat="48.64594" lon="1.75839">
        <ele>166</ele>
        <time>2022-03-27T08:26:14Z</time>
      </trkpt>
      <trkpt lat="48.64592" lon="1.75843">
        <ele>165</ele>
        <time>2022-03-27T08:26:16Z</time>
      </trkpt>
      <trkpt lat="48.6459" lon="1.75846">
        <ele>165</ele>
        <time>2022-03-27T08:26:17Z</time>
      </trkpt>
      <trkpt lat="48.64589" lon="1.75849">
        <ele>165</ele>
        <time>2022-03-27T08:26:18Z</time>
      </trkpt>
      <trkpt lat="48.64588" lon="1.75851">
        <ele>165</ele>
        <time>2022-03-27T08:26:19Z</time>
      </trkpt>
      <trkpt lat="48.64587" lon="1.75854">
        <ele>165</ele>
        <time>2022-03-27T08:26:20Z</time>
      </trkpt>
      <trkpt lat="48.64586" lon="1.75856">
        <ele>165</ele>
        <time>2022-03-27T08:26:21Z</time>
      </trkpt>
      <trkpt lat="48.64584" lon="1.7586">
        <ele>165</ele>
        <time>2022-03-27T08:26:23Z</time>
      </trkpt>
      <trkpt lat="48.64583" lon="1.75864">
        <ele>164</ele>
        <time>2022-03-27T08:26:25Z</time>
      </trkpt>
      <trkpt lat="48.64582" lon="1.75868">
        <ele>164</ele>
        <time>2022-03-27T08:26:27Z</time>
      </trkpt>
      <trkpt lat="48.6458" lon="1.75872">
        <ele>164</ele>
        <time>2022-03-27T08:26:29Z</time>
      </trkpt>
      <trkpt lat="48.64579" lon="1.75875">
        <ele>163</ele>
        <time>2022-03-27T08:26:30Z</time>
      </trkpt>
      <trkpt lat="48.64577" lon="1.75877">
        <ele>163</ele>
        <time>2022-03-27T08:26:31Z</time>
      </trkpt>
      <trkpt lat="48.64574" lon="1.75881">
        <ele>163</ele>
        <time>2022-03-27T08:26:33Z</time>
      </trkpt>
      <trkpt lat="48.64572" lon="1.75885">
        <ele>163</ele>
        <time>2022-03-27T08:26:35Z</time>
      </trkpt>
      <trkpt lat="48.6457" lon="1.75889">
        <ele>163</ele>
        <time>2022-03-27T08:26:37Z</time>
      </trkpt>
      <trkpt lat="48.64568" lon="1.75892">
        <ele>163</ele>
        <time>2022-03-27T08:26:39Z</time>
      </trkpt>
      <trkpt lat="48.64567" lon="1.75896">
        <ele>162</ele>
        <time>2022-03-27T08:26:41Z</time>
      </trkpt>
      <trkpt lat="48.64566" lon="1.759">
        <ele>162</ele>
        <time>2022-03-27T08:26:43Z</time>
      </trkpt>
      <trkpt lat="48.64565" lon="1.75904">
        <ele>162</ele>
        <time>2022-03-27T08:26:45Z</time>
      </trkpt>
      <trkpt lat="48.64564" lon="1.75907">
        <ele>161</ele>
        <time>2022-03-27T08:26:47Z</time>
      </trkpt>
      <trkpt lat="48.64563" lon="1.75911">
        <ele>161</ele>
        <time>2022-03-27T08:26:49Z</time>
      </trkpt>
      <trkpt lat="48.64561" lon="1.75915">
        <ele>161</ele>
        <time>2022-03-27T08:26:51Z</time>
      </trkpt>
      <trkpt lat="48.64559" lon="1.7592">
        <ele>161</ele>
        <time>2022-03-27T08:26:53Z</time>
      </trkpt>
      <trkpt lat="48.64557" lon="1.75924">
        <ele>161</ele>
        <time>2022-03-27T08:26:55Z</time>
      </trkpt>
      <trkpt lat="48.64556" lon="1.75926">
        <ele>160</ele>
        <time>2022-03-27T08:26:56Z</time>
      </trkpt>
      <trkpt lat="48.64555" lon="1.75929">
        <ele>160</ele>
        <time>2022-03-27T08:26:57Z</time>
      </trkpt>
      <trkpt lat="48.64553" lon="1.75932">
        <ele>160</ele>
        <time>2022-03-27T08:26:59Z</time>
      </trkpt>
      <trkpt lat="48.64552" lon="1.75936">
        <ele>160</ele>
        <time>2022-03-27T08:27:01Z</time>
      </trkpt>
      <trkpt lat="48.64551" lon="1.7594">
        <ele>160</ele>
        <time>2022-03-27T08:27:03Z</time>
      </trkpt>
      <trkpt lat="48.6455" lon="1.75944">
        <ele>160</ele>
        <time>2022-03-27T08:27:05Z</time>
      </trkpt>
      <trkpt lat="48.64548" lon="1.75946">
        <ele>160</ele>
        <time>2022-03-27T08:27:06Z</time>
      </trkpt>
      <trkpt lat="48.64547" lon="1.75949">
        <ele>160</ele>
        <time>2022-03-27T08:27:08Z</time>
      </trkpt>
      <trkpt lat="48.64545" lon="1.75952">
        <ele>160</ele>
        <time>2022-03-27T08:27:10Z</time>
      </trkpt>
      <trkpt lat="48.64543" lon="1.75956">
        <ele>160</ele>
        <time>2022-03-27T08:27:12Z</time>
      </trkpt>
      <trkpt lat="48.64542" lon="1.75959">
        <ele>160</ele>
        <time>2022-03-27T08:27:13Z</time>
      </trkpt>
      <trkpt lat="48.64541" lon="1.75961">
        <ele>160</ele>
        <time>2022-03-27T08:27:14Z</time>
      </trkpt>
      <trkpt lat="48.6454" lon="1.75964">
        <ele>159</ele>
        <time>2022-03-27T08:27:15Z</time>
      </trkpt>
      <trkpt lat="48.64538" lon="1.75967">
        <ele>159</ele>
        <time>2022-03-27T08:27:17Z</time>
      </trkpt>
      <trkpt lat="48.64536" lon="1.75971">
        <ele>159</ele>
        <time>2022-03-27T08:27:19Z</time>
      </trkpt>
      <trkpt lat="48.64535" lon="1.75974">
        <ele>159</ele>
        <time>2022-03-27T08:27:21Z</time>
      </trkpt>
      <trkpt lat="48.64533" lon="1.75979">
        <ele>159</ele>
        <time>2022-03-27T08:27:23Z</time>
      </trkpt>
      <trkpt lat="48.64531" lon="1.75981">
        <ele>159</ele>
        <time>2022-03-27T08:27:24Z</time>
      </trkpt>
      <trkpt lat="48.6453" lon="1.75983">
        <ele>159</ele>
        <time>2022-03-27T08:27:25Z</time>
      </trkpt>
      <trkpt lat="48.64528" lon="1.75987">
        <ele>158</ele>
        <time>2022-03-27T08:27:27Z</time>
      </trkpt>
      <trkpt lat="48.64526" lon="1.75991">
        <ele>158</ele>
        <time>2022-03-27T08:27:29Z</time>
      </trkpt>
      <trkpt lat="48.64525" lon="1.75993">
        <ele>158</ele>
        <time>2022-03-27T08:27:30Z</time>
      </trkpt>
      <trkpt lat="48.64524" lon="1.75998">
        <ele>158</ele>
        <time>2022-03-27T08:27:32Z</time>
      </trkpt>
      <trkpt lat="48.64522" lon="1.76002">
        <ele>157</ele>
        <time>2022-03-27T08:27:34Z</time>
      </trkpt>
      <trkpt lat="48.64521" lon="1.76004">
        <ele>157</ele>
        <time>2022-03-27T08:27:35Z</time>
      </trkpt>
      <trkpt lat="48.6452" lon="1.76006">
        <ele>157</ele>
        <time>2022-03-27T08:27:36Z</time>
      </trkpt>
      <trkpt lat="48.64518" lon="1.76009">
        <ele>157</ele>
        <time>2022-03-27T08:27:37Z</time>
      </trkpt>
      <trkpt lat="48.64517" lon="1.76012">
        <ele>157</ele>
        <time>2022-03-27T08:27:38Z</time>
      </trkpt>
      <trkpt lat="48.64515" lon="1.76015">
        <ele>156</ele>
        <time>2022-03-27T08:27:40Z</time>
      </trkpt>
      <trkpt lat="48.64514" lon="1.76019">
        <ele>156</ele>
        <time>2022-03-27T08:27:42Z</time>
      </trkpt>
      <trkpt lat="48.64513" lon="1.76023">
        <ele>155</ele>
        <time>2022-03-27T08:27:44Z</time>
      </trkpt>
      <trkpt lat="48.64512" lon="1.76027">
        <ele>155</ele>
        <time>2022-03-27T08:27:46Z</time>
      </trkpt>
      <trkpt lat="48.64512" lon="1.76033">
        <ele>155</ele>
        <time>2022-03-27T08:27:48Z</time>
      </trkpt>
      <trkpt lat="48.64511" lon="1.76039">
        <ele>155</ele>
        <time>2022-03-27T08:27:50Z</time>
      </trkpt>
      <trkpt lat="48.64511" lon="1.76041">
        <ele>155</ele>
        <time>2022-03-27T08:27:51Z</time>
      </trkpt>
      <trkpt lat="48.6451" lon="1.76046">
        <ele>155</ele>
        <time>2022-03-27T08:27:53Z</time>
      </trkpt>
      <trkpt lat="48.64509" lon="1.76049">
        <ele>155</ele>
        <time>2022-03-27T08:27:54Z</time>
      </trkpt>
      <trkpt lat="48.64508" lon="1.76053">
        <ele>155</ele>
        <time>2022-03-27T08:27:56Z</time>
      </trkpt>
      <trkpt lat="48.64506" lon="1.76056">
        <ele>155</ele>
        <time>2022-03-27T08:27:57Z</time>
      </trkpt>
      <trkpt lat="48.64505" lon="1.7606">
        <ele>155</ele>
        <time>2022-03-27T08:27:59Z</time>
      </trkpt>
      <trkpt lat="48.64503" lon="1.76064">
        <ele>155</ele>
        <time>2022-03-27T08:28:01Z</time>
      </trkpt>
      <trkpt lat="48.64503" lon="1.76068">
        <ele>155</ele>
        <time>2022-03-27T08:28:03Z</time>
      </trkpt>
      <trkpt lat="48.64502" lon="1.76072">
        <ele>155</ele>
        <time>2022-03-27T08:28:05Z</time>
      </trkpt>
      <trkpt lat="48.64501" lon="1.76077">
        <ele>155</ele>
        <time>2022-03-27T08:28:07Z</time>
      </trkpt>
      <trkpt lat="48.645" lon="1.76081">
        <ele>155</ele>
        <time>2022-03-27T08:28:09Z</time>
      </trkpt>
      <trkpt lat="48.64498" lon="1.76084">
        <ele>155</ele>
        <time>2022-03-27T08:28:10Z</time>
      </trkpt>
      <trkpt lat="48.64497" lon="1.76086">
        <ele>155</ele>
        <time>2022-03-27T08:28:11Z</time>
      </trkpt>
      <trkpt lat="48.64495" lon="1.7609">
        <ele>155</ele>
        <time>2022-03-27T08:28:13Z</time>
      </trkpt>
      <trkpt lat="48.64493" lon="1.76094">
        <ele>154</ele>
        <time>2022-03-27T08:28:15Z</time>
      </trkpt>
      <trkpt lat="48.64492" lon="1.76098">
        <ele>154</ele>
        <time>2022-03-27T08:28:17Z</time>
      </trkpt>
      <trkpt lat="48.64491" lon="1.76103">
        <ele>154</ele>
        <time>2022-03-27T08:28:19Z</time>
      </trkpt>
      <trkpt lat="48.6449" lon="1.76105">
        <ele>154</ele>
        <time>2022-03-27T08:28:20Z</time>
      </trkpt>
      <trkpt lat="48.64489" lon="1.7611">
        <ele>154</ele>
        <time>2022-03-27T08:28:22Z</time>
      </trkpt>
      <trkpt lat="48.64487" lon="1.76115">
        <ele>154</ele>
        <time>2022-03-27T08:28:24Z</time>
      </trkpt>
      <trkpt lat="48.64486" lon="1.7612">
        <ele>154</ele>
        <time>2022-03-27T08:28:26Z</time>
      </trkpt>
      <trkpt lat="48.64485" lon="1.76123">
        <ele>154</ele>
        <time>2022-03-27T08:28:27Z</time>
      </trkpt>
      <trkpt lat="48.64484" lon="1.76126">
        <ele>154</ele>
        <time>2022-03-27T08:28:28Z</time>
      </trkpt>
      <trkpt lat="48.64483" lon="1.7613">
        <ele>153</ele>
        <time>2022-03-27T08:28:30Z</time>
      </trkpt>
      <trkpt lat="48.64481" lon="1.76134">
        <ele>153</ele>
        <time>2022-03-27T08:28:32Z</time>
      </trkpt>
      <trkpt lat="48.6448" lon="1.76138">
        <ele>153</ele>
        <time>2022-03-27T08:28:34Z</time>
      </trkpt>
      <trkpt lat="48.64479" lon="1.76141">
        <ele>153</ele>
        <time>2022-03-27T08:28:36Z</time>
      </trkpt>
      <trkpt lat="48.64477" lon="1.76145">
        <ele>153</ele>
        <time>2022-03-27T08:28:38Z</time>
      </trkpt>
      <trkpt lat="48.64476" lon="1.76149">
        <ele>153</ele>
        <time>2022-03-27T08:28:40Z</time>
      </trkpt>
      <trkpt lat="48.64475" lon="1.76152">
        <ele>153</ele>
        <time>2022-03-27T08:28:41Z</time>
      </trkpt>
      <trkpt lat="48.64474" lon="1.76157">
        <ele>153</ele>
        <time>2022-03-27T08:28:43Z</time>
      </trkpt>
      <trkpt lat="48.64474" lon="1.76161">
        <ele>154</ele>
        <time>2022-03-27T08:28:45Z</time>
      </trkpt>
      <trkpt lat="48.64473" lon="1.76165">
        <ele>154</ele>
        <time>2022-03-27T08:28:47Z</time>
      </trkpt>
      <trkpt lat="48.64472" lon="1.76169">
        <ele>154</ele>
        <time>2022-03-27T08:28:49Z</time>
      </trkpt>
      <trkpt lat="48.64472" lon="1.76174">
        <ele>154</ele>
        <time>2022-03-27T08:28:51Z</time>
      </trkpt>
      <trkpt lat="48.64471" lon="1.76178">
        <ele>154</ele>
        <time>2022-03-27T08:28:53Z</time>
      </trkpt>
      <trkpt lat="48.64469" lon="1.76182">
        <ele>153</ele>
        <time>2022-03-27T08:28:55Z</time>
      </trkpt>
      <trkpt lat="48.64468" lon="1.76187">
        <ele>154</ele>
        <time>2022-03-27T08:28:57Z</time>
      </trkpt>
      <trkpt lat="48.64467" lon="1.76189">
        <ele>154</ele>
        <time>2022-03-27T08:28:58Z</time>
      </trkpt>
      <trkpt lat="48.64466" lon="1.76191">
        <ele>154</ele>
        <time>2022-03-27T08:28:59Z</time>
      </trkpt>
      <trkpt lat="48.64464" lon="1.76196">
        <ele>153</ele>
        <time>2022-03-27T08:29:01Z</time>
      </trkpt>
      <trkpt lat="48.64462" lon="1.762">
        <ele>153</ele>
        <time>2022-03-27T08:29:03Z</time>
      </trkpt>
      <trkpt lat="48.64461" lon="1.76204">
        <ele>153</ele>
        <time>2022-03-27T08:29:05Z</time>
      </trkpt>
      <trkpt lat="48.64459" lon="1.76208">
        <ele>153</ele>
        <time>2022-03-27T08:29:07Z</time>
      </trkpt>
      <trkpt lat="48.64457" lon="1.76211">
        <ele>153</ele>
        <time>2022-03-27T08:29:09Z</time>
      </trkpt>
      <trkpt lat="48.64456" lon="1.76213">
        <ele>153</ele>
        <time>2022-03-27T08:29:10Z</time>
      </trkpt>
      <trkpt lat="48.64455" lon="1.76216">
        <ele>153</ele>
        <time>2022-03-27T08:29:11Z</time>
      </trkpt>
      <trkpt lat="48.64453" lon="1.7622">
        <ele>153</ele>
        <time>2022-03-27T08:29:13Z</time>
      </trkpt>
      <trkpt lat="48.6445" lon="1.76224">
        <ele>153</ele>
        <time>2022-03-27T08:29:15Z</time>
      </trkpt>
      <trkpt lat="48.64448" lon="1.76228">
        <ele>153</ele>
        <time>2022-03-27T08:29:17Z</time>
      </trkpt>
      <trkpt lat="48.64447" lon="1.76231">
        <ele>152</ele>
        <time>2022-03-27T08:29:18Z</time>
      </trkpt>
      <trkpt lat="48.64444" lon="1.76235">
        <ele>152</ele>
        <time>2022-03-27T08:29:20Z</time>
      </trkpt>
      <trkpt lat="48.64442" lon="1.76238">
        <ele>152</ele>
        <time>2022-03-27T08:29:22Z</time>
      </trkpt>
      <trkpt lat="48.6444" lon="1.76242">
        <ele>152</ele>
        <time>2022-03-27T08:29:24Z</time>
      </trkpt>
      <trkpt lat="48.64438" lon="1.76246">
        <ele>152</ele>
        <time>2022-03-27T08:29:26Z</time>
      </trkpt>
      <trkpt lat="48.64435" lon="1.7625">
        <ele>151</ele>
        <time>2022-03-27T08:29:28Z</time>
      </trkpt>
      <trkpt lat="48.64432" lon="1.76252">
        <ele>151</ele>
        <time>2022-03-27T08:29:29Z</time>
      </trkpt>
      <trkpt lat="48.64431" lon="1.76254">
        <ele>151</ele>
        <time>2022-03-27T08:29:30Z</time>
      </trkpt>
      <trkpt lat="48.64429" lon="1.76256">
        <ele>151</ele>
        <time>2022-03-27T08:29:31Z</time>
      </trkpt>
      <trkpt lat="48.64427" lon="1.76258">
        <ele>151</ele>
        <time>2022-03-27T08:29:32Z</time>
      </trkpt>
      <trkpt lat="48.64424" lon="1.76261">
        <ele>150</ele>
        <time>2022-03-27T08:29:34Z</time>
      </trkpt>
      <trkpt lat="48.64422" lon="1.76264">
        <ele>150</ele>
        <time>2022-03-27T08:29:36Z</time>
      </trkpt>
      <trkpt lat="48.64419" lon="1.76266">
        <ele>150</ele>
        <time>2022-03-27T08:29:38Z</time>
      </trkpt>
      <trkpt lat="48.64417" lon="1.76269">
        <ele>150</ele>
        <time>2022-03-27T08:29:40Z</time>
      </trkpt>
      <trkpt lat="48.64414" lon="1.76271">
        <ele>150</ele>
        <time>2022-03-27T08:29:42Z</time>
      </trkpt>
      <trkpt lat="48.64411" lon="1.76274">
        <ele>150</ele>
        <time>2022-03-27T08:29:44Z</time>
      </trkpt>
      <trkpt lat="48.64408" lon="1.76277">
        <ele>150</ele>
        <time>2022-03-27T08:29:46Z</time>
      </trkpt>
      <trkpt lat="48.64406" lon="1.7628">
        <ele>150</ele>
        <time>2022-03-27T08:29:48Z</time>
      </trkpt>
      <trkpt lat="48.64403" lon="1.76283">
        <ele>150</ele>
        <time>2022-03-27T08:29:50Z</time>
      </trkpt>
      <trkpt lat="48.644" lon="1.76286">
        <ele>150</ele>
        <time>2022-03-27T08:29:52Z</time>
      </trkpt>
      <trkpt lat="48.64397" lon="1.76289">
        <ele>150</ele>
        <time>2022-03-27T08:29:54Z</time>
      </trkpt>
      <trkpt lat="48.64395" lon="1.76291">
        <ele>150</ele>
        <time>2022-03-27T08:29:56Z</time>
      </trkpt>
      <trkpt lat="48.64392" lon="1.76294">
        <ele>150</ele>
        <time>2022-03-27T08:29:58Z</time>
      </trkpt>
      <trkpt lat="48.64389" lon="1.76297">
        <ele>150</ele>
        <time>2022-03-27T08:30:00Z</time>
      </trkpt>
      <trkpt lat="48.64387" lon="1.76299">
        <ele>150</ele>
        <time>2022-03-27T08:30:02Z</time>
      </trkpt>
      <trkpt lat="48.64384" lon="1.76302">
        <ele>149</ele>
        <time>2022-03-27T08:30:04Z</time>
      </trkpt>
      <trkpt lat="48.64382" lon="1.76305">
        <ele>150</ele>
        <time>2022-03-27T08:30:06Z</time>
      </trkpt>
      <trkpt lat="48.6438" lon="1.76309">
        <ele>150</ele>
        <time>2022-03-27T08:30:08Z</time>
      </trkpt>
      <trkpt lat="48.64379" lon="1.76313">
        <ele>149</ele>
        <time>2022-03-27T08:30:10Z</time>
      </trkpt>
      <trkpt lat="48.64377" lon="1.76317">
        <ele>149</ele>
        <time>2022-03-27T08:30:12Z</time>
      </trkpt>
      <trkpt lat="48.64376" lon="1.76321">
        <ele>148</ele>
        <time>2022-03-27T08:30:14Z</time>
      </trkpt>
      <trkpt lat="48.64375" lon="1.76324">
        <ele>148</ele>
        <time>2022-03-27T08:30:16Z</time>
      </trkpt>
      <trkpt lat="48.64374" lon="1.76328">
        <ele>148</ele>
        <time>2022-03-27T08:30:18Z</time>
      </trkpt>
      <trkpt lat="48.64374" lon="1.76332">
        <ele>148</ele>
        <time>2022-03-27T08:30:20Z</time>
      </trkpt>
      <trkpt lat="48.64372" lon="1.76336">
        <ele>148</ele>
        <time>2022-03-27T08:30:22Z</time>
      </trkpt>
      <trkpt lat="48.64372" lon="1.7634">
        <ele>148</ele>
        <time>2022-03-27T08:30:24Z</time>
      </trkpt>
      <trkpt lat="48.64371" lon="1.76345">
        <ele>147</ele>
        <time>2022-03-27T08:30:26Z</time>
      </trkpt>
      <trkpt lat="48.64371" lon="1.76349">
        <ele>147</ele>
        <time>2022-03-27T08:30:28Z</time>
      </trkpt>
      <trkpt lat="48.64371" lon="1.76352">
        <ele>147</ele>
        <time>2022-03-27T08:30:30Z</time>
      </trkpt>
      <trkpt lat="48.6437" lon="1.76356">
        <ele>147</ele>
        <time>2022-03-27T08:30:32Z</time>
      </trkpt>
      <trkpt lat="48.64369" lon="1.7636">
        <ele>146</ele>
        <time>2022-03-27T08:30:34Z</time>
      </trkpt>
      <trkpt lat="48.64368" lon="1.76364">
        <ele>146</ele>
        <time>2022-03-27T08:30:36Z</time>
      </trkpt>
      <trkpt lat="48.64368" lon="1.76369">
        <ele>146</ele>
        <time>2022-03-27T08:30:38Z</time>
      </trkpt>
      <trkpt lat="48.64366" lon="1.76374">
        <ele>145</ele>
        <time>2022-03-27T08:30:40Z</time>
      </trkpt>
      <trkpt lat="48.64365" lon="1.76378">
        <ele>145</ele>
        <time>2022-03-27T08:30:42Z</time>
      </trkpt>
      <trkpt lat="48.64364" lon="1.76383">
        <ele>145</ele>
        <time>2022-03-27T08:30:44Z</time>
      </trkpt>
      <trkpt lat="48.64363" lon="1.76388">
        <ele>145</ele>
        <time>2022-03-27T08:30:46Z</time>
      </trkpt>
      <trkpt lat="48.64362" lon="1.76392">
        <ele>144</ele>
        <time>2022-03-27T08:30:48Z</time>
      </trkpt>
      <trkpt lat="48.64361" lon="1.76396">
        <ele>144</ele>
        <time>2022-03-27T08:30:50Z</time>
      </trkpt>
      <trkpt lat="48.64361" lon="1.764">
        <ele>144</ele>
        <time>2022-03-27T08:30:52Z</time>
      </trkpt>
      <trkpt lat="48.64361" lon="1.76404">
        <ele>144</ele>
        <time>2022-03-27T08:30:54Z</time>
      </trkpt>
      <trkpt lat="48.64362" lon="1.76409">
        <ele>144</ele>
        <time>2022-03-27T08:30:56Z</time>
      </trkpt>
      <trkpt lat="48.64362" lon="1.76413">
        <ele>143</ele>
        <time>2022-03-27T08:30:58Z</time>
      </trkpt>
      <trkpt lat="48.64362" lon="1.76418">
        <ele>143</ele>
        <time>2022-03-27T08:31:00Z</time>
      </trkpt>
      <trkpt lat="48.64363" lon="1.76422">
        <ele>143</ele>
        <time>2022-03-27T08:31:02Z</time>
      </trkpt>
      <trkpt lat="48.64364" lon="1.76426">
        <ele>143</ele>
        <time>2022-03-27T08:31:04Z</time>
      </trkpt>
      <trkpt lat="48.64365" lon="1.76431">
        <ele>143</ele>
        <time>2022-03-27T08:31:06Z</time>
      </trkpt>
      <trkpt lat="48.64365" lon="1.76436">
        <ele>143</ele>
        <time>2022-03-27T08:31:08Z</time>
      </trkpt>
      <trkpt lat="48.64365" lon="1.76441">
        <ele>143</ele>
        <time>2022-03-27T08:31:10Z</time>
      </trkpt>
      <trkpt lat="48.64366" lon="1.76445">
        <ele>142</ele>
        <time>2022-03-27T08:31:12Z</time>
      </trkpt>
      <trkpt lat="48.64366" lon="1.7645">
        <ele>142</ele>
        <time>2022-03-27T08:31:14Z</time>
      </trkpt>
      <trkpt lat="48.64366" lon="1.76454">
        <ele>142</ele>
        <time>2022-03-27T08:31:16Z</time>
      </trkpt>
      <trkpt lat="48.64367" lon="1.76459">
        <ele>142</ele>
        <time>2022-03-27T08:31:18Z</time>
      </trkpt>
      <trkpt lat="48.64367" lon="1.76464">
        <ele>142</ele>
        <time>2022-03-27T08:31:20Z</time>
      </trkpt>
      <trkpt lat="48.64367" lon="1.76468">
        <ele>142</ele>
        <time>2022-03-27T08:31:22Z</time>
      </trkpt>
      <trkpt lat="48.64368" lon="1.76473">
        <ele>142</ele>
        <time>2022-03-27T08:31:24Z</time>
      </trkpt>
      <trkpt lat="48.64368" lon="1.76477">
        <ele>142</ele>
        <time>2022-03-27T08:31:26Z</time>
      </trkpt>
      <trkpt lat="48.64369" lon="1.76482">
        <ele>142</ele>
        <time>2022-03-27T08:31:28Z</time>
      </trkpt>
      <trkpt lat="48.64368" lon="1.76487">
        <ele>142</ele>
        <time>2022-03-27T08:31:30Z</time>
      </trkpt>
      <trkpt lat="48.64368" lon="1.76491">
        <ele>141</ele>
        <time>2022-03-27T08:31:32Z</time>
      </trkpt>
      <trkpt lat="48.64368" lon="1.76496">
        <ele>141</ele>
        <time>2022-03-27T08:31:34Z</time>
      </trkpt>
      <trkpt lat="48.64368" lon="1.765">
        <ele>141</ele>
        <time>2022-03-27T08:31:36Z</time>
      </trkpt>
      <trkpt lat="48.64368" lon="1.76504">
        <ele>141</ele>
        <time>2022-03-27T08:31:38Z</time>
      </trkpt>
      <trkpt lat="48.64369" lon="1.76509">
        <ele>141</ele>
        <time>2022-03-27T08:31:40Z</time>
      </trkpt>
      <trkpt lat="48.64368" lon="1.76513">
        <ele>141</ele>
        <time>2022-03-27T08:31:42Z</time>
      </trkpt>
      <trkpt lat="48.64368" lon="1.76518">
        <ele>141</ele>
        <time>2022-03-27T08:31:44Z</time>
      </trkpt>
      <trkpt lat="48.64368" lon="1.76522">
        <ele>141</ele>
        <time>2022-03-27T08:31:46Z</time>
      </trkpt>
      <trkpt lat="48.64367" lon="1.76527">
        <ele>141</ele>
        <time>2022-03-27T08:31:48Z</time>
      </trkpt>
      <trkpt lat="48.64366" lon="1.76532">
        <ele>141</ele>
        <time>2022-03-27T08:31:50Z</time>
      </trkpt>
      <trkpt lat="48.64365" lon="1.76536">
        <ele>141</ele>
        <time>2022-03-27T08:31:52Z</time>
      </trkpt>
      <trkpt lat="48.64365" lon="1.76541">
        <ele>141</ele>
        <time>2022-03-27T08:31:54Z</time>
      </trkpt>
      <trkpt lat="48.64364" lon="1.76546">
        <ele>140</ele>
        <time>2022-03-27T08:31:56Z</time>
      </trkpt>
      <trkpt lat="48.64365" lon="1.7655">
        <ele>140</ele>
        <time>2022-03-27T08:31:58Z</time>
      </trkpt>
      <trkpt lat="48.64364" lon="1.76555">
        <ele>140</ele>
        <time>2022-03-27T08:32:00Z</time>
      </trkpt>
      <trkpt lat="48.64364" lon="1.7656">
        <ele>140</ele>
        <time>2022-03-27T08:32:02Z</time>
      </trkpt>
      <trkpt lat="48.64364" lon="1.76565">
        <ele>140</ele>
        <time>2022-03-27T08:32:04Z</time>
      </trkpt>
      <trkpt lat="48.64364" lon="1.76569">
        <ele>140</ele>
        <time>2022-03-27T08:32:06Z</time>
      </trkpt>
      <trkpt lat="48.64365" lon="1.76574">
        <ele>140</ele>
        <time>2022-03-27T08:32:08Z</time>
      </trkpt>
      <trkpt lat="48.64365" lon="1.76578">
        <ele>140</ele>
        <time>2022-03-27T08:32:10Z</time>
      </trkpt>
      <trkpt lat="48.64365" lon="1.76583">
        <ele>140</ele>
        <time>2022-03-27T08:32:12Z</time>
      </trkpt>
      <trkpt lat="48.64365" lon="1.76587">
        <ele>140</ele>
        <time>2022-03-27T08:32:14Z</time>
      </trkpt>
      <trkpt lat="48.64366" lon="1.76592">
        <ele>140</ele>
        <time>2022-03-27T08:32:16Z</time>
      </trkpt>
      <trkpt lat="48.64367" lon="1.76594">
        <ele>140</ele>
        <time>2022-03-27T08:32:26Z</time>
      </trkpt>
      <trkpt lat="48.64365" lon="1.76597">
        <ele>140</ele>
        <time>2022-03-27T08:32:31Z</time>
      </trkpt>
      <trkpt lat="48.64365" lon="1.766">
        <ele>140</ele>
        <time>2022-03-27T08:32:33Z</time>
      </trkpt>
      <trkpt lat="48.64365" lon="1.76604">
        <ele>140</ele>
        <time>2022-03-27T08:32:35Z</time>
      </trkpt>
      <trkpt lat="48.64365" lon="1.76608">
        <ele>140</ele>
        <time>2022-03-27T08:32:37Z</time>
      </trkpt>
      <trkpt lat="48.64365" lon="1.76612">
        <ele>140</ele>
        <time>2022-03-27T08:32:39Z</time>
      </trkpt>
      <trkpt lat="48.64365" lon="1.76617">
        <ele>140</ele>
        <time>2022-03-27T08:32:41Z</time>
      </trkpt>
      <trkpt lat="48.64364" lon="1.76622">
        <ele>140</ele>
        <time>2022-03-27T08:32:43Z</time>
      </trkpt>
      <trkpt lat="48.64363" lon="1.76627">
        <ele>140</ele>
        <time>2022-03-27T08:32:45Z</time>
      </trkpt>
      <trkpt lat="48.64363" lon="1.76632">
        <ele>140</ele>
        <time>2022-03-27T08:32:47Z</time>
      </trkpt>
      <trkpt lat="48.64362" lon="1.76636">
        <ele>140</ele>
        <time>2022-03-27T08:32:49Z</time>
      </trkpt>
      <trkpt lat="48.64361" lon="1.76641">
        <ele>140</ele>
        <time>2022-03-27T08:32:51Z</time>
      </trkpt>
      <trkpt lat="48.6436" lon="1.76645">
        <ele>140</ele>
        <time>2022-03-27T08:32:53Z</time>
      </trkpt>
      <trkpt lat="48.64359" lon="1.7665">
        <ele>140</ele>
        <time>2022-03-27T08:32:55Z</time>
      </trkpt>
      <trkpt lat="48.64358" lon="1.76654">
        <ele>140</ele>
        <time>2022-03-27T08:32:57Z</time>
      </trkpt>
      <trkpt lat="48.64357" lon="1.76658">
        <ele>140</ele>
        <time>2022-03-27T08:32:59Z</time>
      </trkpt>
      <trkpt lat="48.64355" lon="1.76662">
        <ele>140</ele>
        <time>2022-03-27T08:33:01Z</time>
      </trkpt>
      <trkpt lat="48.64353" lon="1.76665">
        <ele>140</ele>
        <time>2022-03-27T08:33:03Z</time>
      </trkpt>
      <trkpt lat="48.6435" lon="1.76669">
        <ele>140</ele>
        <time>2022-03-27T08:33:05Z</time>
      </trkpt>
      <trkpt lat="48.64348" lon="1.76672">
        <ele>140</ele>
        <time>2022-03-27T08:33:07Z</time>
      </trkpt>
      <trkpt lat="48.64345" lon="1.76675">
        <ele>140</ele>
        <time>2022-03-27T08:33:09Z</time>
      </trkpt>
      <trkpt lat="48.64343" lon="1.76677">
        <ele>141</ele>
        <time>2022-03-27T08:33:11Z</time>
      </trkpt>
      <trkpt lat="48.64341" lon="1.7668">
        <ele>140</ele>
        <time>2022-03-27T08:33:13Z</time>
      </trkpt>
      <trkpt lat="48.64338" lon="1.76683">
        <ele>141</ele>
        <time>2022-03-27T08:33:15Z</time>
      </trkpt>
      <trkpt lat="48.64336" lon="1.76686">
        <ele>141</ele>
        <time>2022-03-27T08:33:17Z</time>
      </trkpt>
      <trkpt lat="48.64334" lon="1.76689">
        <ele>141</ele>
        <time>2022-03-27T08:33:19Z</time>
      </trkpt>
      <trkpt lat="48.64332" lon="1.76692">
        <ele>141</ele>
        <time>2022-03-27T08:33:21Z</time>
      </trkpt>
      <trkpt lat="48.64329" lon="1.76696">
        <ele>141</ele>
        <time>2022-03-27T08:33:23Z</time>
      </trkpt>
      <trkpt lat="48.64327" lon="1.76699">
        <ele>142</ele>
        <time>2022-03-27T08:33:25Z</time>
      </trkpt>
      <trkpt lat="48.64325" lon="1.76702">
        <ele>142</ele>
        <time>2022-03-27T08:33:27Z</time>
      </trkpt>
      <trkpt lat="48.64322" lon="1.76705">
        <ele>142</ele>
        <time>2022-03-27T08:33:29Z</time>
      </trkpt>
      <trkpt lat="48.6432" lon="1.76709">
        <ele>142</ele>
        <time>2022-03-27T08:33:31Z</time>
      </trkpt>
      <trkpt lat="48.64318" lon="1.76712">
        <ele>143</ele>
        <time>2022-03-27T08:33:33Z</time>
      </trkpt>
      <trkpt lat="48.64316" lon="1.76714">
        <ele>143</ele>
        <time>2022-03-27T08:33:34Z</time>
      </trkpt>
      <trkpt lat="48.64315" lon="1.76715">
        <ele>143</ele>
        <time>2022-03-27T08:33:35Z</time>
      </trkpt>
      <trkpt lat="48.64313" lon="1.76719">
        <ele>143</ele>
        <time>2022-03-27T08:33:37Z</time>
      </trkpt>
      <trkpt lat="48.64311" lon="1.76722">
        <ele>143</ele>
        <time>2022-03-27T08:33:39Z</time>
      </trkpt>
      <trkpt lat="48.64309" lon="1.76725">
        <ele>143</ele>
        <time>2022-03-27T08:33:41Z</time>
      </trkpt>
      <trkpt lat="48.64307" lon="1.76729">
        <ele>143</ele>
        <time>2022-03-27T08:33:43Z</time>
      </trkpt>
      <trkpt lat="48.64305" lon="1.76732">
        <ele>143</ele>
        <time>2022-03-27T08:33:45Z</time>
      </trkpt>
      <trkpt lat="48.64303" lon="1.76736">
        <ele>144</ele>
        <time>2022-03-27T08:33:47Z</time>
      </trkpt>
      <trkpt lat="48.643" lon="1.76739">
        <ele>144</ele>
        <time>2022-03-27T08:33:49Z</time>
      </trkpt>
      <trkpt lat="48.64298" lon="1.76742">
        <ele>144</ele>
        <time>2022-03-27T08:33:51Z</time>
      </trkpt>
      <trkpt lat="48.64296" lon="1.76745">
        <ele>144</ele>
        <time>2022-03-27T08:33:53Z</time>
      </trkpt>
      <trkpt lat="48.64294" lon="1.76748">
        <ele>144</ele>
        <time>2022-03-27T08:33:55Z</time>
      </trkpt>
      <trkpt lat="48.64293" lon="1.76751">
        <ele>144</ele>
        <time>2022-03-27T08:33:57Z</time>
      </trkpt>
      <trkpt lat="48.64291" lon="1.76754">
        <ele>144</ele>
        <time>2022-03-27T08:33:59Z</time>
      </trkpt>
      <trkpt lat="48.64289" lon="1.76758">
        <ele>144</ele>
        <time>2022-03-27T08:34:01Z</time>
      </trkpt>
      <trkpt lat="48.64288" lon="1.7676">
        <ele>145</ele>
        <time>2022-03-27T08:34:03Z</time>
      </trkpt>
      <trkpt lat="48.64287" lon="1.76763">
        <ele>145</ele>
        <time>2022-03-27T08:34:05Z</time>
      </trkpt>
      <trkpt lat="48.64285" lon="1.76766">
        <ele>145</ele>
        <time>2022-03-27T08:34:07Z</time>
      </trkpt>
      <trkpt lat="48.64284" lon="1.76769">
        <ele>145</ele>
        <time>2022-03-27T08:34:09Z</time>
      </trkpt>
      <trkpt lat="48.64282" lon="1.76773">
        <ele>145</ele>
        <time>2022-03-27T08:34:11Z</time>
      </trkpt>
      <trkpt lat="48.64281" lon="1.76775">
        <ele>145</ele>
        <time>2022-03-27T08:34:12Z</time>
      </trkpt>
      <trkpt lat="48.64279" lon="1.76778">
        <ele>145</ele>
        <time>2022-03-27T08:34:14Z</time>
      </trkpt>
      <trkpt lat="48.64278" lon="1.76781">
        <ele>145</ele>
        <time>2022-03-27T08:34:16Z</time>
      </trkpt>
      <trkpt lat="48.64277" lon="1.76785">
        <ele>146</ele>
        <time>2022-03-27T08:34:18Z</time>
      </trkpt>
      <trkpt lat="48.64275" lon="1.76789">
        <ele>146</ele>
        <time>2022-03-27T08:34:20Z</time>
      </trkpt>
      <trkpt lat="48.64274" lon="1.76792">
        <ele>146</ele>
        <time>2022-03-27T08:34:22Z</time>
      </trkpt>
      <trkpt lat="48.64272" lon="1.76796">
        <ele>146</ele>
        <time>2022-03-27T08:34:24Z</time>
      </trkpt>
      <trkpt lat="48.64271" lon="1.768">
        <ele>146</ele>
        <time>2022-03-27T08:34:26Z</time>
      </trkpt>
      <trkpt lat="48.64269" lon="1.76803">
        <ele>146</ele>
        <time>2022-03-27T08:34:28Z</time>
      </trkpt>
      <trkpt lat="48.64267" lon="1.76807">
        <ele>146</ele>
        <time>2022-03-27T08:34:30Z</time>
      </trkpt>
      <trkpt lat="48.64265" lon="1.76811">
        <ele>146</ele>
        <time>2022-03-27T08:34:32Z</time>
      </trkpt>
      <trkpt lat="48.64264" lon="1.76813">
        <ele>146</ele>
        <time>2022-03-27T08:34:33Z</time>
      </trkpt>
      <trkpt lat="48.64262" lon="1.76816">
        <ele>146</ele>
        <time>2022-03-27T08:34:34Z</time>
      </trkpt>
      <trkpt lat="48.64259" lon="1.76819">
        <ele>146</ele>
        <time>2022-03-27T08:34:36Z</time>
      </trkpt>
      <trkpt lat="48.64257" lon="1.76823">
        <ele>145</ele>
        <time>2022-03-27T08:34:38Z</time>
      </trkpt>
      <trkpt lat="48.64255" lon="1.76826">
        <ele>145</ele>
        <time>2022-03-27T08:34:40Z</time>
      </trkpt>
      <trkpt lat="48.64253" lon="1.76829">
        <ele>145</ele>
        <time>2022-03-27T08:34:41Z</time>
      </trkpt>
      <trkpt lat="48.64251" lon="1.76831">
        <ele>145</ele>
        <time>2022-03-27T08:34:42Z</time>
      </trkpt>
      <trkpt lat="48.6425" lon="1.76833">
        <ele>145</ele>
        <time>2022-03-27T08:34:43Z</time>
      </trkpt>
      <trkpt lat="48.64249" lon="1.76835">
        <ele>145</ele>
        <time>2022-03-27T08:34:44Z</time>
      </trkpt>
      <trkpt lat="48.64247" lon="1.76837">
        <ele>145</ele>
        <time>2022-03-27T08:34:45Z</time>
      </trkpt>
      <trkpt lat="48.64246" lon="1.76839">
        <ele>145</ele>
        <time>2022-03-27T08:34:46Z</time>
      </trkpt>
      <trkpt lat="48.64245" lon="1.76841">
        <ele>145</ele>
        <time>2022-03-27T08:34:47Z</time>
      </trkpt>
      <trkpt lat="48.64244" lon="1.76843">
        <ele>145</ele>
        <time>2022-03-27T08:34:48Z</time>
      </trkpt>
      <trkpt lat="48.64241" lon="1.76847">
        <ele>145</ele>
        <time>2022-03-27T08:34:50Z</time>
      </trkpt>
      <trkpt lat="48.64239" lon="1.76851">
        <ele>145</ele>
        <time>2022-03-27T08:34:52Z</time>
      </trkpt>
      <trkpt lat="48.64236" lon="1.76854">
        <ele>145</ele>
        <time>2022-03-27T08:34:54Z</time>
      </trkpt>
      <trkpt lat="48.64234" lon="1.76858">
        <ele>144</ele>
        <time>2022-03-27T08:34:56Z</time>
      </trkpt>
      <trkpt lat="48.64232" lon="1.76861">
        <ele>144</ele>
        <time>2022-03-27T08:34:58Z</time>
      </trkpt>
      <trkpt lat="48.64229" lon="1.76865">
        <ele>144</ele>
        <time>2022-03-27T08:35:00Z</time>
      </trkpt>
      <trkpt lat="48.64227" lon="1.76868">
        <ele>145</ele>
        <time>2022-03-27T08:35:02Z</time>
      </trkpt>
      <trkpt lat="48.64225" lon="1.76871">
        <ele>144</ele>
        <time>2022-03-27T08:35:04Z</time>
      </trkpt>
      <trkpt lat="48.64223" lon="1.76875">
        <ele>144</ele>
        <time>2022-03-27T08:35:06Z</time>
      </trkpt>
      <trkpt lat="48.64221" lon="1.76878">
        <ele>145</ele>
        <time>2022-03-27T08:35:08Z</time>
      </trkpt>
      <trkpt lat="48.64218" lon="1.76882">
        <ele>145</ele>
        <time>2022-03-27T08:35:10Z</time>
      </trkpt>
      <trkpt lat="48.64216" lon="1.76885">
        <ele>145</ele>
        <time>2022-03-27T08:35:12Z</time>
      </trkpt>
      <trkpt lat="48.64213" lon="1.76888">
        <ele>145</ele>
        <time>2022-03-27T08:35:14Z</time>
      </trkpt>
      <trkpt lat="48.64211" lon="1.76891">
        <ele>145</ele>
        <time>2022-03-27T08:35:16Z</time>
      </trkpt>
      <trkpt lat="48.64209" lon="1.76894">
        <ele>145</ele>
        <time>2022-03-27T08:35:18Z</time>
      </trkpt>
      <trkpt lat="48.64207" lon="1.76897">
        <ele>145</ele>
        <time>2022-03-27T08:35:20Z</time>
      </trkpt>
      <trkpt lat="48.64204" lon="1.76901">
        <ele>145</ele>
        <time>2022-03-27T08:35:22Z</time>
      </trkpt>
      <trkpt lat="48.64202" lon="1.76904">
        <ele>145</ele>
        <time>2022-03-27T08:35:24Z</time>
      </trkpt>
      <trkpt lat="48.642" lon="1.76907">
        <ele>145</ele>
        <time>2022-03-27T08:35:26Z</time>
      </trkpt>
      <trkpt lat="48.64198" lon="1.7691">
        <ele>145</ele>
        <time>2022-03-27T08:35:28Z</time>
      </trkpt>
      <trkpt lat="48.64195" lon="1.76913">
        <ele>144</ele>
        <time>2022-03-27T08:35:30Z</time>
      </trkpt>
      <trkpt lat="48.64193" lon="1.76916">
        <ele>144</ele>
        <time>2022-03-27T08:35:32Z</time>
      </trkpt>
      <trkpt lat="48.64191" lon="1.76919">
        <ele>144</ele>
        <time>2022-03-27T08:35:34Z</time>
      </trkpt>
      <trkpt lat="48.64189" lon="1.76923">
        <ele>144</ele>
        <time>2022-03-27T08:35:36Z</time>
      </trkpt>
      <trkpt lat="48.64187" lon="1.76926">
        <ele>144</ele>
        <time>2022-03-27T08:35:38Z</time>
      </trkpt>
      <trkpt lat="48.64184" lon="1.76929">
        <ele>144</ele>
        <time>2022-03-27T08:35:40Z</time>
      </trkpt>
      <trkpt lat="48.64182" lon="1.76932">
        <ele>144</ele>
        <time>2022-03-27T08:35:42Z</time>
      </trkpt>
      <trkpt lat="48.6418" lon="1.76935">
        <ele>144</ele>
        <time>2022-03-27T08:35:44Z</time>
      </trkpt>
      <trkpt lat="48.64178" lon="1.76938">
        <ele>143</ele>
        <time>2022-03-27T08:35:46Z</time>
      </trkpt>
      <trkpt lat="48.64175" lon="1.76941">
        <ele>143</ele>
        <time>2022-03-27T08:35:48Z</time>
      </trkpt>
      <trkpt lat="48.64173" lon="1.76944">
        <ele>143</ele>
        <time>2022-03-27T08:35:50Z</time>
      </trkpt>
      <trkpt lat="48.6417" lon="1.76946">
        <ele>143</ele>
        <time>2022-03-27T08:35:52Z</time>
      </trkpt>
      <trkpt lat="48.64168" lon="1.76948">
        <ele>143</ele>
        <time>2022-03-27T08:35:54Z</time>
      </trkpt>
      <trkpt lat="48.64166" lon="1.76951">
        <ele>143</ele>
        <time>2022-03-27T08:35:56Z</time>
      </trkpt>
      <trkpt lat="48.64164" lon="1.76953">
        <ele>143</ele>
        <time>2022-03-27T08:35:58Z</time>
      </trkpt>
      <trkpt lat="48.64162" lon="1.76956">
        <ele>143</ele>
        <time>2022-03-27T08:36:00Z</time>
      </trkpt>
      <trkpt lat="48.6416" lon="1.76959">
        <ele>143</ele>
        <time>2022-03-27T08:36:02Z</time>
      </trkpt>
      <trkpt lat="48.64158" lon="1.76962">
        <ele>143</ele>
        <time>2022-03-27T08:36:04Z</time>
      </trkpt>
      <trkpt lat="48.64156" lon="1.76966">
        <ele>142</ele>
        <time>2022-03-27T08:36:06Z</time>
      </trkpt>
      <trkpt lat="48.64154" lon="1.76968">
        <ele>142</ele>
        <time>2022-03-27T08:36:08Z</time>
      </trkpt>
      <trkpt lat="48.64151" lon="1.76971">
        <ele>142</ele>
        <time>2022-03-27T08:36:10Z</time>
      </trkpt>
      <trkpt lat="48.64149" lon="1.76974">
        <ele>142</ele>
        <time>2022-03-27T08:36:12Z</time>
      </trkpt>
      <trkpt lat="48.64146" lon="1.76977">
        <ele>142</ele>
        <time>2022-03-27T08:36:14Z</time>
      </trkpt>
      <trkpt lat="48.64144" lon="1.7698">
        <ele>142</ele>
        <time>2022-03-27T08:36:16Z</time>
      </trkpt>
      <trkpt lat="48.64141" lon="1.76983">
        <ele>142</ele>
        <time>2022-03-27T08:36:18Z</time>
      </trkpt>
      <trkpt lat="48.64139" lon="1.76986">
        <ele>142</ele>
        <time>2022-03-27T08:36:20Z</time>
      </trkpt>
      <trkpt lat="48.64137" lon="1.76989">
        <ele>142</ele>
        <time>2022-03-27T08:36:22Z</time>
      </trkpt>
      <trkpt lat="48.64135" lon="1.76991">
        <ele>142</ele>
        <time>2022-03-27T08:36:24Z</time>
      </trkpt>
      <trkpt lat="48.64133" lon="1.76994">
        <ele>141</ele>
        <time>2022-03-27T08:36:26Z</time>
      </trkpt>
      <trkpt lat="48.64131" lon="1.76997">
        <ele>141</ele>
        <time>2022-03-27T08:36:28Z</time>
      </trkpt>
      <trkpt lat="48.64128" lon="1.77">
        <ele>141</ele>
        <time>2022-03-27T08:36:30Z</time>
      </trkpt>
      <trkpt lat="48.64126" lon="1.77003">
        <ele>141</ele>
        <time>2022-03-27T08:36:32Z</time>
      </trkpt>
      <trkpt lat="48.64124" lon="1.77006">
        <ele>141</ele>
        <time>2022-03-27T08:36:34Z</time>
      </trkpt>
      <trkpt lat="48.64121" lon="1.77009">
        <ele>141</ele>
        <time>2022-03-27T08:36:36Z</time>
      </trkpt>
      <trkpt lat="48.64119" lon="1.77012">
        <ele>141</ele>
        <time>2022-03-27T08:36:38Z</time>
      </trkpt>
      <trkpt lat="48.64116" lon="1.77015">
        <ele>141</ele>
        <time>2022-03-27T08:36:40Z</time>
      </trkpt>
      <trkpt lat="48.64114" lon="1.77019">
        <ele>141</ele>
        <time>2022-03-27T08:36:42Z</time>
      </trkpt>
      <trkpt lat="48.64111" lon="1.77022">
        <ele>141</ele>
        <time>2022-03-27T08:36:44Z</time>
      </trkpt>
      <trkpt lat="48.64109" lon="1.77024">
        <ele>140</ele>
        <time>2022-03-27T08:36:46Z</time>
      </trkpt>
      <trkpt lat="48.64107" lon="1.77027">
        <ele>140</ele>
        <time>2022-03-27T08:36:48Z</time>
      </trkpt>
      <trkpt lat="48.64104" lon="1.7703">
        <ele>140</ele>
        <time>2022-03-27T08:36:50Z</time>
      </trkpt>
      <trkpt lat="48.64102" lon="1.77032">
        <ele>140</ele>
        <time>2022-03-27T08:36:52Z</time>
      </trkpt>
      <trkpt lat="48.64099" lon="1.77035">
        <ele>140</ele>
        <time>2022-03-27T08:36:54Z</time>
      </trkpt>
      <trkpt lat="48.64097" lon="1.77038">
        <ele>140</ele>
        <time>2022-03-27T08:36:56Z</time>
      </trkpt>
      <trkpt lat="48.64095" lon="1.77041">
        <ele>140</ele>
        <time>2022-03-27T08:36:58Z</time>
      </trkpt>
      <trkpt lat="48.64092" lon="1.77044">
        <ele>140</ele>
        <time>2022-03-27T08:37:00Z</time>
      </trkpt>
      <trkpt lat="48.6409" lon="1.77046">
        <ele>140</ele>
        <time>2022-03-27T08:37:02Z</time>
      </trkpt>
      <trkpt lat="48.64088" lon="1.77049">
        <ele>140</ele>
        <time>2022-03-27T08:37:04Z</time>
      </trkpt>
      <trkpt lat="48.64085" lon="1.77051">
        <ele>140</ele>
        <time>2022-03-27T08:37:06Z</time>
      </trkpt>
      <trkpt lat="48.64083" lon="1.77054">
        <ele>140</ele>
        <time>2022-03-27T08:37:08Z</time>
      </trkpt>
      <trkpt lat="48.64081" lon="1.77056">
        <ele>140</ele>
        <time>2022-03-27T08:37:10Z</time>
      </trkpt>
      <trkpt lat="48.64079" lon="1.77059">
        <ele>140</ele>
        <time>2022-03-27T08:37:12Z</time>
      </trkpt>
      <trkpt lat="48.64076" lon="1.77062">
        <ele>140</ele>
        <time>2022-03-27T08:37:14Z</time>
      </trkpt>
      <trkpt lat="48.64074" lon="1.77065">
        <ele>140</ele>
        <time>2022-03-27T08:37:16Z</time>
      </trkpt>
      <trkpt lat="48.64072" lon="1.77068">
        <ele>140</ele>
        <time>2022-03-27T08:37:18Z</time>
      </trkpt>
      <trkpt lat="48.64069" lon="1.7707">
        <ele>140</ele>
        <time>2022-03-27T08:37:20Z</time>
      </trkpt>
      <trkpt lat="48.64067" lon="1.77073">
        <ele>140</ele>
        <time>2022-03-27T08:37:22Z</time>
      </trkpt>
      <trkpt lat="48.64064" lon="1.77076">
        <ele>140</ele>
        <time>2022-03-27T08:37:24Z</time>
      </trkpt>
      <trkpt lat="48.64062" lon="1.77079">
        <ele>140</ele>
        <time>2022-03-27T08:37:26Z</time>
      </trkpt>
      <trkpt lat="48.64059" lon="1.77082">
        <ele>140</ele>
        <time>2022-03-27T08:37:28Z</time>
      </trkpt>
      <trkpt lat="48.64057" lon="1.77084">
        <ele>140</ele>
        <time>2022-03-27T08:37:30Z</time>
      </trkpt>
      <trkpt lat="48.64055" lon="1.77083">
        <ele>140</ele>
        <time>2022-03-27T08:37:33Z</time>
      </trkpt>
      <trkpt lat="48.64054" lon="1.7708">
        <ele>140</ele>
        <time>2022-03-27T08:37:35Z</time>
      </trkpt>
      <trkpt lat="48.64052" lon="1.77077">
        <ele>140</ele>
        <time>2022-03-27T08:37:37Z</time>
      </trkpt>
      <trkpt lat="48.64049" lon="1.77076">
        <ele>140</ele>
        <time>2022-03-27T08:37:39Z</time>
      </trkpt>
      <trkpt lat="48.64046" lon="1.77076">
        <ele>140</ele>
        <time>2022-03-27T08:37:41Z</time>
      </trkpt>
      <trkpt lat="48.64043" lon="1.77075">
        <ele>140</ele>
        <time>2022-03-27T08:37:43Z</time>
      </trkpt>
      <trkpt lat="48.6404" lon="1.77075">
        <ele>140</ele>
        <time>2022-03-27T08:37:45Z</time>
      </trkpt>
      <trkpt lat="48.64037" lon="1.77074">
        <ele>140</ele>
        <time>2022-03-27T08:37:47Z</time>
      </trkpt>
      <trkpt lat="48.64034" lon="1.77073">
        <ele>140</ele>
        <time>2022-03-27T08:37:49Z</time>
      </trkpt>
      <trkpt lat="48.64031" lon="1.77073">
        <ele>140</ele>
        <time>2022-03-27T08:37:51Z</time>
      </trkpt>
      <trkpt lat="48.64027" lon="1.77073">
        <ele>140</ele>
        <time>2022-03-27T08:37:53Z</time>
      </trkpt>
      <trkpt lat="48.64024" lon="1.77072">
        <ele>140</ele>
        <time>2022-03-27T08:37:55Z</time>
      </trkpt>
      <trkpt lat="48.64021" lon="1.77072">
        <ele>140</ele>
        <time>2022-03-27T08:37:57Z</time>
      </trkpt>
      <trkpt lat="48.64018" lon="1.77072">
        <ele>140</ele>
        <time>2022-03-27T08:37:59Z</time>
      </trkpt>
      <trkpt lat="48.64015" lon="1.77072">
        <ele>141</ele>
        <time>2022-03-27T08:38:01Z</time>
      </trkpt>
      <trkpt lat="48.64012" lon="1.77071">
        <ele>141</ele>
        <time>2022-03-27T08:38:03Z</time>
      </trkpt>
      <trkpt lat="48.64008" lon="1.77071">
        <ele>141</ele>
        <time>2022-03-27T08:38:05Z</time>
      </trkpt>
      <trkpt lat="48.64005" lon="1.77071">
        <ele>142</ele>
        <time>2022-03-27T08:38:07Z</time>
      </trkpt>
      <trkpt lat="48.64002" lon="1.7707">
        <ele>142</ele>
        <time>2022-03-27T08:38:09Z</time>
      </trkpt>
      <trkpt lat="48.63999" lon="1.7707">
        <ele>142</ele>
        <time>2022-03-27T08:38:11Z</time>
      </trkpt>
      <trkpt lat="48.63995" lon="1.7707">
        <ele>143</ele>
        <time>2022-03-27T08:38:13Z</time>
      </trkpt>
      <trkpt lat="48.63992" lon="1.7707">
        <ele>143</ele>
        <time>2022-03-27T08:38:15Z</time>
      </trkpt>
      <trkpt lat="48.63989" lon="1.7707">
        <ele>143</ele>
        <time>2022-03-27T08:38:17Z</time>
      </trkpt>
      <trkpt lat="48.63986" lon="1.7707">
        <ele>143</ele>
        <time>2022-03-27T08:38:19Z</time>
      </trkpt>
      <trkpt lat="48.63983" lon="1.77069">
        <ele>143</ele>
        <time>2022-03-27T08:38:21Z</time>
      </trkpt>
      <trkpt lat="48.6398" lon="1.77069">
        <ele>143</ele>
        <time>2022-03-27T08:38:23Z</time>
      </trkpt>
      <trkpt lat="48.63977" lon="1.77069">
        <ele>144</ele>
        <time>2022-03-27T08:38:25Z</time>
      </trkpt>
      <trkpt lat="48.63974" lon="1.77069">
        <ele>144</ele>
        <time>2022-03-27T08:38:27Z</time>
      </trkpt>
      <trkpt lat="48.63971" lon="1.77069">
        <ele>144</ele>
        <time>2022-03-27T08:38:29Z</time>
      </trkpt>
      <trkpt lat="48.63968" lon="1.77069">
        <ele>144</ele>
        <time>2022-03-27T08:38:31Z</time>
      </trkpt>
      <trkpt lat="48.63965" lon="1.77069">
        <ele>144</ele>
        <time>2022-03-27T08:38:33Z</time>
      </trkpt>
      <trkpt lat="48.63962" lon="1.77069">
        <ele>144</ele>
        <time>2022-03-27T08:38:35Z</time>
      </trkpt>
      <trkpt lat="48.63959" lon="1.77069">
        <ele>144</ele>
        <time>2022-03-27T08:38:37Z</time>
      </trkpt>
      <trkpt lat="48.63956" lon="1.77068">
        <ele>144</ele>
        <time>2022-03-27T08:38:39Z</time>
      </trkpt>
      <trkpt lat="48.63953" lon="1.77068">
        <ele>144</ele>
        <time>2022-03-27T08:38:41Z</time>
      </trkpt>
      <trkpt lat="48.6395" lon="1.77067">
        <ele>144</ele>
        <time>2022-03-27T08:38:43Z</time>
      </trkpt>
      <trkpt lat="48.63947" lon="1.77067">
        <ele>144</ele>
        <time>2022-03-27T08:38:45Z</time>
      </trkpt>
      <trkpt lat="48.63944" lon="1.77067">
        <ele>144</ele>
        <time>2022-03-27T08:38:47Z</time>
      </trkpt>
      <trkpt lat="48.63941" lon="1.77067">
        <ele>144</ele>
        <time>2022-03-27T08:38:49Z</time>
      </trkpt>
      <trkpt lat="48.63938" lon="1.77068">
        <ele>144</ele>
        <time>2022-03-27T08:38:51Z</time>
      </trkpt>
      <trkpt lat="48.63935" lon="1.77068">
        <ele>144</ele>
        <time>2022-03-27T08:38:53Z</time>
      </trkpt>
      <trkpt lat="48.63933" lon="1.77068">
        <ele>144</ele>
        <time>2022-03-27T08:38:55Z</time>
      </trkpt>
      <trkpt lat="48.6393" lon="1.77068">
        <ele>144</ele>
        <time>2022-03-27T08:38:57Z</time>
      </trkpt>
      <trkpt lat="48.63927" lon="1.77069">
        <ele>144</ele>
        <time>2022-03-27T08:38:59Z</time>
      </trkpt>
      <trkpt lat="48.63924" lon="1.77068">
        <ele>144</ele>
        <time>2022-03-27T08:39:01Z</time>
      </trkpt>
      <trkpt lat="48.63921" lon="1.77069">
        <ele>144</ele>
        <time>2022-03-27T08:39:03Z</time>
      </trkpt>
      <trkpt lat="48.63918" lon="1.7707">
        <ele>144</ele>
        <time>2022-03-27T08:39:05Z</time>
      </trkpt>
      <trkpt lat="48.63916" lon="1.77072">
        <ele>145</ele>
        <time>2022-03-27T08:39:07Z</time>
      </trkpt>
      <trkpt lat="48.63913" lon="1.77074">
        <ele>144</ele>
        <time>2022-03-27T08:39:09Z</time>
      </trkpt>
      <trkpt lat="48.63911" lon="1.77077">
        <ele>144</ele>
        <time>2022-03-27T08:39:11Z</time>
      </trkpt>
      <trkpt lat="48.63908" lon="1.77079">
        <ele>145</ele>
        <time>2022-03-27T08:39:13Z</time>
      </trkpt>
      <trkpt lat="48.63906" lon="1.77082">
        <ele>144</ele>
        <time>2022-03-27T08:39:15Z</time>
      </trkpt>
      <trkpt lat="48.63903" lon="1.77084">
        <ele>144</ele>
        <time>2022-03-27T08:39:17Z</time>
      </trkpt>
      <trkpt lat="48.639" lon="1.77086">
        <ele>144</ele>
        <time>2022-03-27T08:39:19Z</time>
      </trkpt>
      <trkpt lat="48.63898" lon="1.77089">
        <ele>144</ele>
        <time>2022-03-27T08:39:21Z</time>
      </trkpt>
      <trkpt lat="48.63895" lon="1.77091">
        <ele>144</ele>
        <time>2022-03-27T08:39:23Z</time>
      </trkpt>
      <trkpt lat="48.63893" lon="1.77093">
        <ele>144</ele>
        <time>2022-03-27T08:39:25Z</time>
      </trkpt>
      <trkpt lat="48.6389" lon="1.77095">
        <ele>144</ele>
        <time>2022-03-27T08:39:27Z</time>
      </trkpt>
      <trkpt lat="48.63888" lon="1.77096">
        <ele>144</ele>
        <time>2022-03-27T08:39:29Z</time>
      </trkpt>
      <trkpt lat="48.63886" lon="1.77098">
        <ele>144</ele>
        <time>2022-03-27T08:39:31Z</time>
      </trkpt>
      <trkpt lat="48.63883" lon="1.771">
        <ele>144</ele>
        <time>2022-03-27T08:39:33Z</time>
      </trkpt>
      <trkpt lat="48.6388" lon="1.77102">
        <ele>144</ele>
        <time>2022-03-27T08:39:35Z</time>
      </trkpt>
      <trkpt lat="48.63878" lon="1.77104">
        <ele>144</ele>
        <time>2022-03-27T08:39:37Z</time>
      </trkpt>
      <trkpt lat="48.63876" lon="1.77106">
        <ele>144</ele>
        <time>2022-03-27T08:39:39Z</time>
      </trkpt>
      <trkpt lat="48.63875" lon="1.7711">
        <ele>144</ele>
        <time>2022-03-27T08:39:41Z</time>
      </trkpt>
      <trkpt lat="48.63874" lon="1.77112">
        <ele>143</ele>
        <time>2022-03-27T08:39:43Z</time>
      </trkpt>
      <trkpt lat="48.63871" lon="1.77113">
        <ele>143</ele>
        <time>2022-03-27T08:39:46Z</time>
      </trkpt>
      <trkpt lat="48.63869" lon="1.77115">
        <ele>144</ele>
        <time>2022-03-27T08:39:49Z</time>
      </trkpt>
      <trkpt lat="48.63867" lon="1.77114">
        <ele>143</ele>
        <time>2022-03-27T08:39:51Z</time>
      </trkpt>
      <trkpt lat="48.63864" lon="1.77114">
        <ele>143</ele>
        <time>2022-03-27T08:39:53Z</time>
      </trkpt>
      <trkpt lat="48.63861" lon="1.77114">
        <ele>143</ele>
        <time>2022-03-27T08:39:55Z</time>
      </trkpt>
      <trkpt lat="48.63858" lon="1.77114">
        <ele>143</ele>
        <time>2022-03-27T08:39:57Z</time>
      </trkpt>
      <trkpt lat="48.63856" lon="1.77116">
        <ele>143</ele>
        <time>2022-03-27T08:39:59Z</time>
      </trkpt>
      <trkpt lat="48.63852" lon="1.77117">
        <ele>143</ele>
        <time>2022-03-27T08:40:01Z</time>
      </trkpt>
      <trkpt lat="48.63849" lon="1.77118">
        <ele>143</ele>
        <time>2022-03-27T08:40:03Z</time>
      </trkpt>
      <trkpt lat="48.63846" lon="1.77118">
        <ele>143</ele>
        <time>2022-03-27T08:40:05Z</time>
      </trkpt>
      <trkpt lat="48.63843" lon="1.77118">
        <ele>143</ele>
        <time>2022-03-27T08:40:07Z</time>
      </trkpt>
      <trkpt lat="48.6384" lon="1.77118">
        <ele>143</ele>
        <time>2022-03-27T08:40:09Z</time>
      </trkpt>
      <trkpt lat="48.63837" lon="1.77119">
        <ele>143</ele>
        <time>2022-03-27T08:40:11Z</time>
      </trkpt>
      <trkpt lat="48.63834" lon="1.77121">
        <ele>142</ele>
        <time>2022-03-27T08:40:13Z</time>
      </trkpt>
      <trkpt lat="48.63831" lon="1.77122">
        <ele>142</ele>
        <time>2022-03-27T08:40:15Z</time>
      </trkpt>
      <trkpt lat="48.63829" lon="1.77122">
        <ele>142</ele>
        <time>2022-03-27T08:40:16Z</time>
      </trkpt>
      <trkpt lat="48.63827" lon="1.77123">
        <ele>142</ele>
        <time>2022-03-27T08:40:17Z</time>
      </trkpt>
      <trkpt lat="48.63824" lon="1.77123">
        <ele>141</ele>
        <time>2022-03-27T08:40:19Z</time>
      </trkpt>
      <trkpt lat="48.63821" lon="1.77124">
        <ele>141</ele>
        <time>2022-03-27T08:40:21Z</time>
      </trkpt>
      <trkpt lat="48.63818" lon="1.77124">
        <ele>140</ele>
        <time>2022-03-27T08:40:23Z</time>
      </trkpt>
      <trkpt lat="48.63815" lon="1.77125">
        <ele>140</ele>
        <time>2022-03-27T08:40:25Z</time>
      </trkpt>
      <trkpt lat="48.63812" lon="1.77126">
        <ele>140</ele>
        <time>2022-03-27T08:40:27Z</time>
      </trkpt>
      <trkpt lat="48.63809" lon="1.77127">
        <ele>140</ele>
        <time>2022-03-27T08:40:29Z</time>
      </trkpt>
      <trkpt lat="48.63806" lon="1.77128">
        <ele>140</ele>
        <time>2022-03-27T08:40:31Z</time>
      </trkpt>
      <trkpt lat="48.63803" lon="1.77128">
        <ele>140</ele>
        <time>2022-03-27T08:40:33Z</time>
      </trkpt>
      <trkpt lat="48.638" lon="1.7713">
        <ele>140</ele>
        <time>2022-03-27T08:40:35Z</time>
      </trkpt>
      <trkpt lat="48.63797" lon="1.77131">
        <ele>140</ele>
        <time>2022-03-27T08:40:37Z</time>
      </trkpt>
      <trkpt lat="48.63793" lon="1.77132">
        <ele>140</ele>
        <time>2022-03-27T08:40:39Z</time>
      </trkpt>
      <trkpt lat="48.6379" lon="1.77133">
        <ele>140</ele>
        <time>2022-03-27T08:40:41Z</time>
      </trkpt>
      <trkpt lat="48.63787" lon="1.77134">
        <ele>140</ele>
        <time>2022-03-27T08:40:43Z</time>
      </trkpt>
      <trkpt lat="48.63784" lon="1.77135">
        <ele>140</ele>
        <time>2022-03-27T08:40:45Z</time>
      </trkpt>
      <trkpt lat="48.63781" lon="1.77136">
        <ele>140</ele>
        <time>2022-03-27T08:40:47Z</time>
      </trkpt>
      <trkpt lat="48.63779" lon="1.77137">
        <ele>140</ele>
        <time>2022-03-27T08:40:49Z</time>
      </trkpt>
      <trkpt lat="48.63776" lon="1.77138">
        <ele>141</ele>
        <time>2022-03-27T08:40:51Z</time>
      </trkpt>
      <trkpt lat="48.63773" lon="1.77139">
        <ele>141</ele>
        <time>2022-03-27T08:40:53Z</time>
      </trkpt>
      <trkpt lat="48.63771" lon="1.7714">
        <ele>140</ele>
        <time>2022-03-27T08:40:54Z</time>
      </trkpt>
      <trkpt lat="48.63768" lon="1.77141">
        <ele>140</ele>
        <time>2022-03-27T08:40:56Z</time>
      </trkpt>
      <trkpt lat="48.63764" lon="1.77142">
        <ele>141</ele>
        <time>2022-03-27T08:40:58Z</time>
      </trkpt>
      <trkpt lat="48.63762" lon="1.77143">
        <ele>141</ele>
        <time>2022-03-27T08:40:59Z</time>
      </trkpt>
      <trkpt lat="48.63759" lon="1.77143">
        <ele>141</ele>
        <time>2022-03-27T08:41:01Z</time>
      </trkpt>
      <trkpt lat="48.63756" lon="1.77141">
        <ele>141</ele>
        <time>2022-03-27T08:41:03Z</time>
      </trkpt>
      <trkpt lat="48.63754" lon="1.77138">
        <ele>140</ele>
        <time>2022-03-27T08:41:05Z</time>
      </trkpt>
      <trkpt lat="48.63751" lon="1.77135">
        <ele>140</ele>
        <time>2022-03-27T08:41:07Z</time>
      </trkpt>
      <trkpt lat="48.63748" lon="1.77131">
        <ele>140</ele>
        <time>2022-03-27T08:41:09Z</time>
      </trkpt>
      <trkpt lat="48.63746" lon="1.77128">
        <ele>141</ele>
        <time>2022-03-27T08:41:11Z</time>
      </trkpt>
      <trkpt lat="48.63744" lon="1.77127">
        <ele>141</ele>
        <time>2022-03-27T08:41:12Z</time>
      </trkpt>
      <trkpt lat="48.63743" lon="1.77125">
        <ele>141</ele>
        <time>2022-03-27T08:41:13Z</time>
      </trkpt>
      <trkpt lat="48.63741" lon="1.77121">
        <ele>141</ele>
        <time>2022-03-27T08:41:15Z</time>
      </trkpt>
      <trkpt lat="48.6374" lon="1.77118">
        <ele>142</ele>
        <time>2022-03-27T08:41:17Z</time>
      </trkpt>
      <trkpt lat="48.63737" lon="1.77116">
        <ele>142</ele>
        <time>2022-03-27T08:41:19Z</time>
      </trkpt>
      <trkpt lat="48.63734" lon="1.77115">
        <ele>142</ele>
        <time>2022-03-27T08:41:21Z</time>
      </trkpt>
      <trkpt lat="48.63731" lon="1.77113">
        <ele>143</ele>
        <time>2022-03-27T08:41:23Z</time>
      </trkpt>
      <trkpt lat="48.63728" lon="1.7711">
        <ele>143</ele>
        <time>2022-03-27T08:41:25Z</time>
      </trkpt>
      <trkpt lat="48.63726" lon="1.77108">
        <ele>143</ele>
        <time>2022-03-27T08:41:27Z</time>
      </trkpt>
      <trkpt lat="48.63723" lon="1.77105">
        <ele>144</ele>
        <time>2022-03-27T08:41:29Z</time>
      </trkpt>
      <trkpt lat="48.63721" lon="1.77101">
        <ele>144</ele>
        <time>2022-03-27T08:41:31Z</time>
      </trkpt>
      <trkpt lat="48.63719" lon="1.77098">
        <ele>144</ele>
        <time>2022-03-27T08:41:33Z</time>
      </trkpt>
      <trkpt lat="48.63717" lon="1.77094">
        <ele>143</ele>
        <time>2022-03-27T08:41:35Z</time>
      </trkpt>
      <trkpt lat="48.63715" lon="1.7709">
        <ele>143</ele>
        <time>2022-03-27T08:41:37Z</time>
      </trkpt>
      <trkpt lat="48.63712" lon="1.77086">
        <ele>143</ele>
        <time>2022-03-27T08:41:39Z</time>
      </trkpt>
      <trkpt lat="48.6371" lon="1.77083">
        <ele>143</ele>
        <time>2022-03-27T08:41:41Z</time>
      </trkpt>
      <trkpt lat="48.63708" lon="1.7708">
        <ele>143</ele>
        <time>2022-03-27T08:41:42Z</time>
      </trkpt>
      <trkpt lat="48.63706" lon="1.77077">
        <ele>143</ele>
        <time>2022-03-27T08:41:44Z</time>
      </trkpt>
      <trkpt lat="48.63704" lon="1.77074">
        <ele>143</ele>
        <time>2022-03-27T08:41:46Z</time>
      </trkpt>
      <trkpt lat="48.63702" lon="1.77072">
        <ele>144</ele>
        <time>2022-03-27T08:41:48Z</time>
      </trkpt>
      <trkpt lat="48.637" lon="1.77069">
        <ele>144</ele>
        <time>2022-03-27T08:41:50Z</time>
      </trkpt>
      <trkpt lat="48.63698" lon="1.77067">
        <ele>144</ele>
        <time>2022-03-27T08:41:51Z</time>
      </trkpt>
      <trkpt lat="48.63695" lon="1.77064">
        <ele>145</ele>
        <time>2022-03-27T08:41:53Z</time>
      </trkpt>
      <trkpt lat="48.63692" lon="1.77063">
        <ele>145</ele>
        <time>2022-03-27T08:41:55Z</time>
      </trkpt>
      <trkpt lat="48.63689" lon="1.77063">
        <ele>145</ele>
        <time>2022-03-27T08:41:57Z</time>
      </trkpt>
      <trkpt lat="48.63685" lon="1.77064">
        <ele>145</ele>
        <time>2022-03-27T08:41:59Z</time>
      </trkpt>
      <trkpt lat="48.63684" lon="1.77065">
        <ele>145</ele>
        <time>2022-03-27T08:42:00Z</time>
      </trkpt>
      <trkpt lat="48.63682" lon="1.77066">
        <ele>145</ele>
        <time>2022-03-27T08:42:01Z</time>
      </trkpt>
      <trkpt lat="48.6368" lon="1.77066">
        <ele>145</ele>
        <time>2022-03-27T08:42:02Z</time>
      </trkpt>
      <trkpt lat="48.63678" lon="1.77066">
        <ele>146</ele>
        <time>2022-03-27T08:42:03Z</time>
      </trkpt>
      <trkpt lat="48.63675" lon="1.77066">
        <ele>146</ele>
        <time>2022-03-27T08:42:04Z</time>
      </trkpt>
      <trkpt lat="48.63673" lon="1.77066">
        <ele>146</ele>
        <time>2022-03-27T08:42:05Z</time>
      </trkpt>
      <trkpt lat="48.6367" lon="1.77066">
        <ele>146</ele>
        <time>2022-03-27T08:42:07Z</time>
      </trkpt>
      <trkpt lat="48.63667" lon="1.77065">
        <ele>146</ele>
        <time>2022-03-27T08:42:09Z</time>
      </trkpt>
      <trkpt lat="48.63665" lon="1.77063">
        <ele>146</ele>
        <time>2022-03-27T08:42:13Z</time>
      </trkpt>
      <trkpt lat="48.63663" lon="1.77063">
        <ele>146</ele>
        <time>2022-03-27T08:42:15Z</time>
      </trkpt>
      <trkpt lat="48.63661" lon="1.77064">
        <ele>147</ele>
        <time>2022-03-27T08:42:17Z</time>
      </trkpt>
      <trkpt lat="48.63658" lon="1.77064">
        <ele>147</ele>
        <time>2022-03-27T08:42:19Z</time>
      </trkpt>
      <trkpt lat="48.63656" lon="1.77065">
        <ele>147</ele>
        <time>2022-03-27T08:42:21Z</time>
      </trkpt>
      <trkpt lat="48.63653" lon="1.77066">
        <ele>147</ele>
        <time>2022-03-27T08:42:23Z</time>
      </trkpt>
      <trkpt lat="48.63651" lon="1.77067">
        <ele>146</ele>
        <time>2022-03-27T08:42:25Z</time>
      </trkpt>
      <trkpt lat="48.63649" lon="1.77069">
        <ele>146</ele>
        <time>2022-03-27T08:42:27Z</time>
      </trkpt>
      <trkpt lat="48.63647" lon="1.77071">
        <ele>146</ele>
        <time>2022-03-27T08:42:29Z</time>
      </trkpt>
      <trkpt lat="48.63645" lon="1.77072">
        <ele>146</ele>
        <time>2022-03-27T08:42:31Z</time>
      </trkpt>
      <trkpt lat="48.63642" lon="1.77074">
        <ele>146</ele>
        <time>2022-03-27T08:42:33Z</time>
      </trkpt>
      <trkpt lat="48.6364" lon="1.77075">
        <ele>146</ele>
        <time>2022-03-27T08:42:34Z</time>
      </trkpt>
      <trkpt lat="48.63637" lon="1.77075">
        <ele>145</ele>
        <time>2022-03-27T08:42:35Z</time>
      </trkpt>
      <trkpt lat="48.63636" lon="1.77076">
        <ele>145</ele>
        <time>2022-03-27T08:42:36Z</time>
      </trkpt>
      <trkpt lat="48.63633" lon="1.77077">
        <ele>145</ele>
        <time>2022-03-27T08:42:38Z</time>
      </trkpt>
      <trkpt lat="48.6363" lon="1.77078">
        <ele>145</ele>
        <time>2022-03-27T08:42:40Z</time>
      </trkpt>
      <trkpt lat="48.63628" lon="1.77077">
        <ele>145</ele>
        <time>2022-03-27T08:42:42Z</time>
      </trkpt>
      <trkpt lat="48.63624" lon="1.77079">
        <ele>145</ele>
        <time>2022-03-27T08:42:44Z</time>
      </trkpt>
      <trkpt lat="48.63621" lon="1.77081">
        <ele>145</ele>
        <time>2022-03-27T08:42:46Z</time>
      </trkpt>
      <trkpt lat="48.63618" lon="1.77083">
        <ele>145</ele>
        <time>2022-03-27T08:42:48Z</time>
      </trkpt>
      <trkpt lat="48.63617" lon="1.77084">
        <ele>145</ele>
        <time>2022-03-27T08:42:49Z</time>
      </trkpt>
      <trkpt lat="48.63614" lon="1.77085">
        <ele>145</ele>
        <time>2022-03-27T08:42:50Z</time>
      </trkpt>
      <trkpt lat="48.63612" lon="1.77085">
        <ele>145</ele>
        <time>2022-03-27T08:42:51Z</time>
      </trkpt>
      <trkpt lat="48.6361" lon="1.77086">
        <ele>145</ele>
        <time>2022-03-27T08:42:52Z</time>
      </trkpt>
      <trkpt lat="48.63607" lon="1.77087">
        <ele>145</ele>
        <time>2022-03-27T08:42:53Z</time>
      </trkpt>
      <trkpt lat="48.63605" lon="1.77088">
        <ele>145</ele>
        <time>2022-03-27T08:42:54Z</time>
      </trkpt>
      <trkpt lat="48.63603" lon="1.7709">
        <ele>145</ele>
        <time>2022-03-27T08:42:55Z</time>
      </trkpt>
      <trkpt lat="48.63601" lon="1.77091">
        <ele>146</ele>
        <time>2022-03-27T08:42:56Z</time>
      </trkpt>
      <trkpt lat="48.63599" lon="1.77091">
        <ele>146</ele>
        <time>2022-03-27T08:42:57Z</time>
      </trkpt>
      <trkpt lat="48.63597" lon="1.77092">
        <ele>146</ele>
        <time>2022-03-27T08:42:58Z</time>
      </trkpt>
      <trkpt lat="48.63595" lon="1.77093">
        <ele>146</ele>
        <time>2022-03-27T08:42:59Z</time>
      </trkpt>
      <trkpt lat="48.63593" lon="1.77094">
        <ele>146</ele>
        <time>2022-03-27T08:43:00Z</time>
      </trkpt>
      <trkpt lat="48.63592" lon="1.77095">
        <ele>146</ele>
        <time>2022-03-27T08:43:01Z</time>
      </trkpt>
      <trkpt lat="48.63588" lon="1.77097">
        <ele>146</ele>
        <time>2022-03-27T08:43:03Z</time>
      </trkpt>
      <trkpt lat="48.63585" lon="1.77099">
        <ele>146</ele>
        <time>2022-03-27T08:43:05Z</time>
      </trkpt>
      <trkpt lat="48.63583" lon="1.771">
        <ele>146</ele>
        <time>2022-03-27T08:43:06Z</time>
      </trkpt>
      <trkpt lat="48.63581" lon="1.77101">
        <ele>146</ele>
        <time>2022-03-27T08:43:07Z</time>
      </trkpt>
      <trkpt lat="48.6358" lon="1.77102">
        <ele>146</ele>
        <time>2022-03-27T08:43:08Z</time>
      </trkpt>
      <trkpt lat="48.63578" lon="1.77102">
        <ele>147</ele>
        <time>2022-03-27T08:43:09Z</time>
      </trkpt>
      <trkpt lat="48.63576" lon="1.77103">
        <ele>147</ele>
        <time>2022-03-27T08:43:10Z</time>
      </trkpt>
      <trkpt lat="48.63573" lon="1.77103">
        <ele>147</ele>
        <time>2022-03-27T08:43:12Z</time>
      </trkpt>
      <trkpt lat="48.63571" lon="1.77103">
        <ele>147</ele>
        <time>2022-03-27T08:43:14Z</time>
      </trkpt>
      <trkpt lat="48.63568" lon="1.77103">
        <ele>147</ele>
        <time>2022-03-27T08:43:16Z</time>
      </trkpt>
      <trkpt lat="48.63565" lon="1.77103">
        <ele>147</ele>
        <time>2022-03-27T08:43:18Z</time>
      </trkpt>
      <trkpt lat="48.63563" lon="1.77104">
        <ele>147</ele>
        <time>2022-03-27T08:43:19Z</time>
      </trkpt>
      <trkpt lat="48.63561" lon="1.77104">
        <ele>147</ele>
        <time>2022-03-27T08:43:20Z</time>
      </trkpt>
      <trkpt lat="48.63558" lon="1.77105">
        <ele>146</ele>
        <time>2022-03-27T08:43:22Z</time>
      </trkpt>
      <trkpt lat="48.63556" lon="1.77105">
        <ele>146</ele>
        <time>2022-03-27T08:43:24Z</time>
      </trkpt>
      <trkpt lat="48.63553" lon="1.77104">
        <ele>147</ele>
        <time>2022-03-27T08:43:26Z</time>
      </trkpt>
      <trkpt lat="48.63552" lon="1.77101">
        <ele>146</ele>
        <time>2022-03-27T08:43:28Z</time>
      </trkpt>
      <trkpt lat="48.63552" lon="1.77098">
        <ele>145</ele>
        <time>2022-03-27T08:43:30Z</time>
      </trkpt>
      <trkpt lat="48.63551" lon="1.77095">
        <ele>145</ele>
        <time>2022-03-27T08:43:34Z</time>
      </trkpt>
      <trkpt lat="48.63548" lon="1.77097">
        <ele>145</ele>
        <time>2022-03-27T08:43:40Z</time>
      </trkpt>
      <trkpt lat="48.63546" lon="1.77098">
        <ele>144</ele>
        <time>2022-03-27T08:43:42Z</time>
      </trkpt>
      <trkpt lat="48.63543" lon="1.77099">
        <ele>144</ele>
        <time>2022-03-27T08:43:44Z</time>
      </trkpt>
      <trkpt lat="48.6354" lon="1.77101">
        <ele>144</ele>
        <time>2022-03-27T08:43:46Z</time>
      </trkpt>
      <trkpt lat="48.63537" lon="1.77102">
        <ele>144</ele>
        <time>2022-03-27T08:43:48Z</time>
      </trkpt>
      <trkpt lat="48.63535" lon="1.77103">
        <ele>144</ele>
        <time>2022-03-27T08:43:50Z</time>
      </trkpt>
      <trkpt lat="48.63531" lon="1.77104">
        <ele>144</ele>
        <time>2022-03-27T08:43:52Z</time>
      </trkpt>
      <trkpt lat="48.63528" lon="1.77103">
        <ele>145</ele>
        <time>2022-03-27T08:43:54Z</time>
      </trkpt>
      <trkpt lat="48.63526" lon="1.77103">
        <ele>145</ele>
        <time>2022-03-27T08:43:56Z</time>
      </trkpt>
      <trkpt lat="48.63523" lon="1.77102">
        <ele>145</ele>
        <time>2022-03-27T08:43:58Z</time>
      </trkpt>
      <trkpt lat="48.63519" lon="1.771">
        <ele>146</ele>
        <time>2022-03-27T08:44:00Z</time>
      </trkpt>
      <trkpt lat="48.63517" lon="1.771">
        <ele>146</ele>
        <time>2022-03-27T08:44:01Z</time>
      </trkpt>
      <trkpt lat="48.63513" lon="1.77099">
        <ele>146</ele>
        <time>2022-03-27T08:44:03Z</time>
      </trkpt>
      <trkpt lat="48.63511" lon="1.77099">
        <ele>146</ele>
        <time>2022-03-27T08:44:04Z</time>
      </trkpt>
      <trkpt lat="48.63509" lon="1.77099">
        <ele>146</ele>
        <time>2022-03-27T08:44:05Z</time>
      </trkpt>
      <trkpt lat="48.63506" lon="1.77099">
        <ele>146</ele>
        <time>2022-03-27T08:44:07Z</time>
      </trkpt>
      <trkpt lat="48.63502" lon="1.77099">
        <ele>146</ele>
        <time>2022-03-27T08:44:09Z</time>
      </trkpt>
      <trkpt lat="48.63498" lon="1.77099">
        <ele>146</ele>
        <time>2022-03-27T08:44:11Z</time>
      </trkpt>
      <trkpt lat="48.63497" lon="1.77099">
        <ele>146</ele>
        <time>2022-03-27T08:44:12Z</time>
      </trkpt>
      <trkpt lat="48.63493" lon="1.77099">
        <ele>147</ele>
        <time>2022-03-27T08:44:14Z</time>
      </trkpt>
      <trkpt lat="48.6349" lon="1.77099">
        <ele>147</ele>
        <time>2022-03-27T08:44:16Z</time>
      </trkpt>
      <trkpt lat="48.63486" lon="1.77099">
        <ele>148</ele>
        <time>2022-03-27T08:44:18Z</time>
      </trkpt>
      <trkpt lat="48.63483" lon="1.77099">
        <ele>148</ele>
        <time>2022-03-27T08:44:20Z</time>
      </trkpt>
      <trkpt lat="48.6348" lon="1.77101">
        <ele>149</ele>
        <time>2022-03-27T08:44:22Z</time>
      </trkpt>
      <trkpt lat="48.63477" lon="1.77102">
        <ele>149</ele>
        <time>2022-03-27T08:44:24Z</time>
      </trkpt>
      <trkpt lat="48.63474" lon="1.77103">
        <ele>149</ele>
        <time>2022-03-27T08:44:26Z</time>
      </trkpt>
      <trkpt lat="48.63471" lon="1.77103">
        <ele>149</ele>
        <time>2022-03-27T08:44:28Z</time>
      </trkpt>
      <trkpt lat="48.63468" lon="1.77104">
        <ele>149</ele>
        <time>2022-03-27T08:44:30Z</time>
      </trkpt>
      <trkpt lat="48.63465" lon="1.77105">
        <ele>149</ele>
        <time>2022-03-27T08:44:32Z</time>
      </trkpt>
      <trkpt lat="48.63462" lon="1.77107">
        <ele>149</ele>
        <time>2022-03-27T08:44:34Z</time>
      </trkpt>
      <trkpt lat="48.63459" lon="1.77109">
        <ele>149</ele>
        <time>2022-03-27T08:44:36Z</time>
      </trkpt>
      <trkpt lat="48.63456" lon="1.7711">
        <ele>150</ele>
        <time>2022-03-27T08:44:38Z</time>
      </trkpt>
      <trkpt lat="48.63454" lon="1.7711">
        <ele>150</ele>
        <time>2022-03-27T08:44:40Z</time>
      </trkpt>
      <trkpt lat="48.63451" lon="1.77111">
        <ele>149</ele>
        <time>2022-03-27T08:44:42Z</time>
      </trkpt>
      <trkpt lat="48.63448" lon="1.77111">
        <ele>149</ele>
        <time>2022-03-27T08:44:44Z</time>
      </trkpt>
      <trkpt lat="48.63445" lon="1.77113">
        <ele>149</ele>
        <time>2022-03-27T08:44:46Z</time>
      </trkpt>
      <trkpt lat="48.63442" lon="1.77114">
        <ele>149</ele>
        <time>2022-03-27T08:44:48Z</time>
      </trkpt>
      <trkpt lat="48.63439" lon="1.77116">
        <ele>149</ele>
        <time>2022-03-27T08:44:50Z</time>
      </trkpt>
      <trkpt lat="48.63437" lon="1.77117">
        <ele>149</ele>
        <time>2022-03-27T08:44:52Z</time>
      </trkpt>
      <trkpt lat="48.63434" lon="1.77118">
        <ele>149</ele>
        <time>2022-03-27T08:44:54Z</time>
      </trkpt>
      <trkpt lat="48.63431" lon="1.7712">
        <ele>149</ele>
        <time>2022-03-27T08:44:56Z</time>
      </trkpt>
      <trkpt lat="48.63428" lon="1.77121">
        <ele>149</ele>
        <time>2022-03-27T08:44:58Z</time>
      </trkpt>
      <trkpt lat="48.63425" lon="1.77123">
        <ele>149</ele>
        <time>2022-03-27T08:45:00Z</time>
      </trkpt>
      <trkpt lat="48.63422" lon="1.77124">
        <ele>149</ele>
        <time>2022-03-27T08:45:02Z</time>
      </trkpt>
      <trkpt lat="48.63419" lon="1.77126">
        <ele>149</ele>
        <time>2022-03-27T08:45:04Z</time>
      </trkpt>
      <trkpt lat="48.63417" lon="1.77127">
        <ele>149</ele>
        <time>2022-03-27T08:45:06Z</time>
      </trkpt>
      <trkpt lat="48.63414" lon="1.77128">
        <ele>149</ele>
        <time>2022-03-27T08:45:08Z</time>
      </trkpt>
      <trkpt lat="48.63411" lon="1.7713">
        <ele>149</ele>
        <time>2022-03-27T08:45:10Z</time>
      </trkpt>
      <trkpt lat="48.63409" lon="1.77132">
        <ele>149</ele>
        <time>2022-03-27T08:45:12Z</time>
      </trkpt>
      <trkpt lat="48.63407" lon="1.77133">
        <ele>150</ele>
        <time>2022-03-27T08:45:14Z</time>
      </trkpt>
      <trkpt lat="48.63404" lon="1.77135">
        <ele>150</ele>
        <time>2022-03-27T08:45:16Z</time>
      </trkpt>
      <trkpt lat="48.63402" lon="1.77137">
        <ele>150</ele>
        <time>2022-03-27T08:45:18Z</time>
      </trkpt>
      <trkpt lat="48.63399" lon="1.77138">
        <ele>150</ele>
        <time>2022-03-27T08:45:20Z</time>
      </trkpt>
      <trkpt lat="48.63396" lon="1.77139">
        <ele>151</ele>
        <time>2022-03-27T08:45:22Z</time>
      </trkpt>
      <trkpt lat="48.63394" lon="1.7714">
        <ele>151</ele>
        <time>2022-03-27T08:45:24Z</time>
      </trkpt>
      <trkpt lat="48.63391" lon="1.77142">
        <ele>151</ele>
        <time>2022-03-27T08:45:26Z</time>
      </trkpt>
      <trkpt lat="48.63389" lon="1.77144">
        <ele>151</ele>
        <time>2022-03-27T08:45:29Z</time>
      </trkpt>
      <trkpt lat="48.63387" lon="1.77145">
        <ele>151</ele>
        <time>2022-03-27T08:45:31Z</time>
      </trkpt>
      <trkpt lat="48.63384" lon="1.77146">
        <ele>152</ele>
        <time>2022-03-27T08:45:33Z</time>
      </trkpt>
      <trkpt lat="48.63382" lon="1.77144">
        <ele>152</ele>
        <time>2022-03-27T08:45:35Z</time>
      </trkpt>
      <trkpt lat="48.63381" lon="1.77141">
        <ele>152</ele>
        <time>2022-03-27T08:45:37Z</time>
      </trkpt>
      <trkpt lat="48.6338" lon="1.77138">
        <ele>152</ele>
        <time>2022-03-27T08:45:39Z</time>
      </trkpt>
      <trkpt lat="48.63379" lon="1.77134">
        <ele>152</ele>
        <time>2022-03-27T08:45:41Z</time>
      </trkpt>
      <trkpt lat="48.63378" lon="1.7713">
        <ele>152</ele>
        <time>2022-03-27T08:45:43Z</time>
      </trkpt>
      <trkpt lat="48.63377" lon="1.77126">
        <ele>152</ele>
        <time>2022-03-27T08:45:45Z</time>
      </trkpt>
      <trkpt lat="48.63377" lon="1.77122">
        <ele>152</ele>
        <time>2022-03-27T08:45:47Z</time>
      </trkpt>
      <trkpt lat="48.63377" lon="1.77118">
        <ele>152</ele>
        <time>2022-03-27T08:45:49Z</time>
      </trkpt>
      <trkpt lat="48.63376" lon="1.77115">
        <ele>151</ele>
        <time>2022-03-27T08:45:51Z</time>
      </trkpt>
      <trkpt lat="48.63375" lon="1.7711">
        <ele>151</ele>
        <time>2022-03-27T08:45:53Z</time>
      </trkpt>
      <trkpt lat="48.63375" lon="1.77105">
        <ele>151</ele>
        <time>2022-03-27T08:45:55Z</time>
      </trkpt>
      <trkpt lat="48.63374" lon="1.771">
        <ele>151</ele>
        <time>2022-03-27T08:45:57Z</time>
      </trkpt>
      <trkpt lat="48.63373" lon="1.77096">
        <ele>151</ele>
        <time>2022-03-27T08:45:59Z</time>
      </trkpt>
      <trkpt lat="48.63373" lon="1.77091">
        <ele>151</ele>
        <time>2022-03-27T08:46:01Z</time>
      </trkpt>
      <trkpt lat="48.63372" lon="1.77087">
        <ele>151</ele>
        <time>2022-03-27T08:46:03Z</time>
      </trkpt>
      <trkpt lat="48.63372" lon="1.77083">
        <ele>151</ele>
        <time>2022-03-27T08:46:05Z</time>
      </trkpt>
      <trkpt lat="48.63371" lon="1.77078">
        <ele>151</ele>
        <time>2022-03-27T08:46:07Z</time>
      </trkpt>
      <trkpt lat="48.63371" lon="1.77074">
        <ele>151</ele>
        <time>2022-03-27T08:46:09Z</time>
      </trkpt>
      <trkpt lat="48.63371" lon="1.77071">
        <ele>152</ele>
        <time>2022-03-27T08:46:11Z</time>
      </trkpt>
      <trkpt lat="48.6337" lon="1.77067">
        <ele>152</ele>
        <time>2022-03-27T08:46:13Z</time>
      </trkpt>
      <trkpt lat="48.63369" lon="1.77064">
        <ele>152</ele>
        <time>2022-03-27T08:46:15Z</time>
      </trkpt>
      <trkpt lat="48.63368" lon="1.7706">
        <ele>152</ele>
        <time>2022-03-27T08:46:17Z</time>
      </trkpt>
      <trkpt lat="48.63368" lon="1.77055">
        <ele>152</ele>
        <time>2022-03-27T08:46:19Z</time>
      </trkpt>
      <trkpt lat="48.63368" lon="1.77051">
        <ele>151</ele>
        <time>2022-03-27T08:46:21Z</time>
      </trkpt>
      <trkpt lat="48.63367" lon="1.77046">
        <ele>151</ele>
        <time>2022-03-27T08:46:23Z</time>
      </trkpt>
      <trkpt lat="48.63366" lon="1.77041">
        <ele>151</ele>
        <time>2022-03-27T08:46:25Z</time>
      </trkpt>
      <trkpt lat="48.63365" lon="1.77036">
        <ele>151</ele>
        <time>2022-03-27T08:46:27Z</time>
      </trkpt>
      <trkpt lat="48.63365" lon="1.77032">
        <ele>151</ele>
        <time>2022-03-27T08:46:29Z</time>
      </trkpt>
      <trkpt lat="48.63364" lon="1.77027">
        <ele>151</ele>
        <time>2022-03-27T08:46:31Z</time>
      </trkpt>
      <trkpt lat="48.63364" lon="1.77022">
        <ele>151</ele>
        <time>2022-03-27T08:46:33Z</time>
      </trkpt>
      <trkpt lat="48.63363" lon="1.77018">
        <ele>151</ele>
        <time>2022-03-27T08:46:35Z</time>
      </trkpt>
      <trkpt lat="48.63363" lon="1.77013">
        <ele>151</ele>
        <time>2022-03-27T08:46:37Z</time>
      </trkpt>
      <trkpt lat="48.63363" lon="1.77009">
        <ele>151</ele>
        <time>2022-03-27T08:46:39Z</time>
      </trkpt>
      <trkpt lat="48.63363" lon="1.77005">
        <ele>151</ele>
        <time>2022-03-27T08:46:41Z</time>
      </trkpt>
      <trkpt lat="48.63362" lon="1.77001">
        <ele>151</ele>
        <time>2022-03-27T08:46:43Z</time>
      </trkpt>
      <trkpt lat="48.63362" lon="1.76996">
        <ele>151</ele>
        <time>2022-03-27T08:46:45Z</time>
      </trkpt>
      <trkpt lat="48.63361" lon="1.76992">
        <ele>151</ele>
        <time>2022-03-27T08:46:47Z</time>
      </trkpt>
      <trkpt lat="48.6336" lon="1.76988">
        <ele>150</ele>
        <time>2022-03-27T08:46:49Z</time>
      </trkpt>
      <trkpt lat="48.63359" lon="1.76984">
        <ele>150</ele>
        <time>2022-03-27T08:46:51Z</time>
      </trkpt>
      <trkpt lat="48.63357" lon="1.7698">
        <ele>150</ele>
        <time>2022-03-27T08:46:53Z</time>
      </trkpt>
      <trkpt lat="48.63356" lon="1.76976">
        <ele>150</ele>
        <time>2022-03-27T08:46:55Z</time>
      </trkpt>
      <trkpt lat="48.63354" lon="1.76971">
        <ele>150</ele>
        <time>2022-03-27T08:46:57Z</time>
      </trkpt>
      <trkpt lat="48.63353" lon="1.76967">
        <ele>150</ele>
        <time>2022-03-27T08:46:59Z</time>
      </trkpt>
      <trkpt lat="48.63351" lon="1.76963">
        <ele>150</ele>
        <time>2022-03-27T08:47:01Z</time>
      </trkpt>
      <trkpt lat="48.6335" lon="1.7696">
        <ele>151</ele>
        <time>2022-03-27T08:47:03Z</time>
      </trkpt>
      <trkpt lat="48.63348" lon="1.76956">
        <ele>151</ele>
        <time>2022-03-27T08:47:05Z</time>
      </trkpt>
      <trkpt lat="48.63347" lon="1.76952">
        <ele>151</ele>
        <time>2022-03-27T08:47:07Z</time>
      </trkpt>
      <trkpt lat="48.63346" lon="1.76948">
        <ele>151</ele>
        <time>2022-03-27T08:47:09Z</time>
      </trkpt>
      <trkpt lat="48.63344" lon="1.76944">
        <ele>151</ele>
        <time>2022-03-27T08:47:11Z</time>
      </trkpt>
      <trkpt lat="48.63343" lon="1.7694">
        <ele>151</ele>
        <time>2022-03-27T08:47:13Z</time>
      </trkpt>
      <trkpt lat="48.63341" lon="1.76936">
        <ele>151</ele>
        <time>2022-03-27T08:47:15Z</time>
      </trkpt>
      <trkpt lat="48.63339" lon="1.76932">
        <ele>151</ele>
        <time>2022-03-27T08:47:17Z</time>
      </trkpt>
      <trkpt lat="48.63338" lon="1.76928">
        <ele>151</ele>
        <time>2022-03-27T08:47:19Z</time>
      </trkpt>
      <trkpt lat="48.63336" lon="1.76925">
        <ele>151</ele>
        <time>2022-03-27T08:47:21Z</time>
      </trkpt>
      <trkpt lat="48.63335" lon="1.76921">
        <ele>151</ele>
        <time>2022-03-27T08:47:23Z</time>
      </trkpt>
      <trkpt lat="48.63334" lon="1.76917">
        <ele>151</ele>
        <time>2022-03-27T08:47:25Z</time>
      </trkpt>
      <trkpt lat="48.63332" lon="1.76914">
        <ele>151</ele>
        <time>2022-03-27T08:47:27Z</time>
      </trkpt>
      <trkpt lat="48.63331" lon="1.7691">
        <ele>151</ele>
        <time>2022-03-27T08:47:29Z</time>
      </trkpt>
      <trkpt lat="48.6333" lon="1.76907">
        <ele>151</ele>
        <time>2022-03-27T08:47:31Z</time>
      </trkpt>
      <trkpt lat="48.63328" lon="1.76903">
        <ele>151</ele>
        <time>2022-03-27T08:47:33Z</time>
      </trkpt>
      <trkpt lat="48.63327" lon="1.76898">
        <ele>151</ele>
        <time>2022-03-27T08:47:35Z</time>
      </trkpt>
      <trkpt lat="48.63325" lon="1.76894">
        <ele>151</ele>
        <time>2022-03-27T08:47:37Z</time>
      </trkpt>
      <trkpt lat="48.63324" lon="1.7689">
        <ele>152</ele>
        <time>2022-03-27T08:47:39Z</time>
      </trkpt>
      <trkpt lat="48.63323" lon="1.76887">
        <ele>152</ele>
        <time>2022-03-27T08:47:41Z</time>
      </trkpt>
      <trkpt lat="48.63321" lon="1.76883">
        <ele>152</ele>
        <time>2022-03-27T08:47:43Z</time>
      </trkpt>
      <trkpt lat="48.63319" lon="1.76879">
        <ele>152</ele>
        <time>2022-03-27T08:47:45Z</time>
      </trkpt>
      <trkpt lat="48.63318" lon="1.76875">
        <ele>152</ele>
        <time>2022-03-27T08:47:47Z</time>
      </trkpt>
      <trkpt lat="48.63316" lon="1.76871">
        <ele>152</ele>
        <time>2022-03-27T08:47:49Z</time>
      </trkpt>
      <trkpt lat="48.63314" lon="1.76868">
        <ele>152</ele>
        <time>2022-03-27T08:47:51Z</time>
      </trkpt>
      <trkpt lat="48.63313" lon="1.76865">
        <ele>152</ele>
        <time>2022-03-27T08:47:53Z</time>
      </trkpt>
      <trkpt lat="48.63311" lon="1.76861">
        <ele>152</ele>
        <time>2022-03-27T08:47:55Z</time>
      </trkpt>
      <trkpt lat="48.6331" lon="1.76858">
        <ele>152</ele>
        <time>2022-03-27T08:47:57Z</time>
      </trkpt>
      <trkpt lat="48.63309" lon="1.76855">
        <ele>152</ele>
        <time>2022-03-27T08:47:59Z</time>
      </trkpt>
      <trkpt lat="48.63308" lon="1.76852">
        <ele>152</ele>
        <time>2022-03-27T08:48:01Z</time>
      </trkpt>
      <trkpt lat="48.63307" lon="1.76849">
        <ele>152</ele>
        <time>2022-03-27T08:48:03Z</time>
      </trkpt>
      <trkpt lat="48.63306" lon="1.76847">
        <ele>151</ele>
        <time>2022-03-27T08:48:05Z</time>
      </trkpt>
      <trkpt lat="48.63305" lon="1.76843">
        <ele>151</ele>
        <time>2022-03-27T08:48:07Z</time>
      </trkpt>
      <trkpt lat="48.63303" lon="1.7684">
        <ele>151</ele>
        <time>2022-03-27T08:48:09Z</time>
      </trkpt>
      <trkpt lat="48.63301" lon="1.76837">
        <ele>151</ele>
        <time>2022-03-27T08:48:11Z</time>
      </trkpt>
      <trkpt lat="48.633" lon="1.76833">
        <ele>151</ele>
        <time>2022-03-27T08:48:13Z</time>
      </trkpt>
      <trkpt lat="48.63298" lon="1.76829">
        <ele>151</ele>
        <time>2022-03-27T08:48:15Z</time>
      </trkpt>
      <trkpt lat="48.63297" lon="1.76827">
        <ele>151</ele>
        <time>2022-03-27T08:48:16Z</time>
      </trkpt>
      <trkpt lat="48.63295" lon="1.76822">
        <ele>151</ele>
        <time>2022-03-27T08:48:18Z</time>
      </trkpt>
      <trkpt lat="48.63294" lon="1.7682">
        <ele>151</ele>
        <time>2022-03-27T08:48:19Z</time>
      </trkpt>
      <trkpt lat="48.63292" lon="1.76815">
        <ele>151</ele>
        <time>2022-03-27T08:48:21Z</time>
      </trkpt>
      <trkpt lat="48.63291" lon="1.76811">
        <ele>152</ele>
        <time>2022-03-27T08:48:23Z</time>
      </trkpt>
      <trkpt lat="48.63289" lon="1.76807">
        <ele>152</ele>
        <time>2022-03-27T08:48:25Z</time>
      </trkpt>
      <trkpt lat="48.63288" lon="1.76803">
        <ele>152</ele>
        <time>2022-03-27T08:48:27Z</time>
      </trkpt>
      <trkpt lat="48.63286" lon="1.76799">
        <ele>152</ele>
        <time>2022-03-27T08:48:29Z</time>
      </trkpt>
      <trkpt lat="48.63285" lon="1.76795">
        <ele>152</ele>
        <time>2022-03-27T08:48:31Z</time>
      </trkpt>
      <trkpt lat="48.63284" lon="1.7679">
        <ele>152</ele>
        <time>2022-03-27T08:48:33Z</time>
      </trkpt>
      <trkpt lat="48.63283" lon="1.76787">
        <ele>152</ele>
        <time>2022-03-27T08:48:35Z</time>
      </trkpt>
      <trkpt lat="48.63282" lon="1.76783">
        <ele>152</ele>
        <time>2022-03-27T08:48:37Z</time>
      </trkpt>
      <trkpt lat="48.6328" lon="1.76779">
        <ele>152</ele>
        <time>2022-03-27T08:48:39Z</time>
      </trkpt>
      <trkpt lat="48.63279" lon="1.76775">
        <ele>153</ele>
        <time>2022-03-27T08:48:41Z</time>
      </trkpt>
      <trkpt lat="48.63278" lon="1.76771">
        <ele>153</ele>
        <time>2022-03-27T08:48:43Z</time>
      </trkpt>
      <trkpt lat="48.63277" lon="1.76767">
        <ele>153</ele>
        <time>2022-03-27T08:48:45Z</time>
      </trkpt>
      <trkpt lat="48.63275" lon="1.76762">
        <ele>153</ele>
        <time>2022-03-27T08:48:47Z</time>
      </trkpt>
      <trkpt lat="48.63274" lon="1.76758">
        <ele>153</ele>
        <time>2022-03-27T08:48:49Z</time>
      </trkpt>
      <trkpt lat="48.63272" lon="1.76754">
        <ele>154</ele>
        <time>2022-03-27T08:48:51Z</time>
      </trkpt>
      <trkpt lat="48.63271" lon="1.7675">
        <ele>154</ele>
        <time>2022-03-27T08:48:53Z</time>
      </trkpt>
      <trkpt lat="48.6327" lon="1.76746">
        <ele>154</ele>
        <time>2022-03-27T08:48:55Z</time>
      </trkpt>
      <trkpt lat="48.63268" lon="1.76742">
        <ele>154</ele>
        <time>2022-03-27T08:48:57Z</time>
      </trkpt>
      <trkpt lat="48.63267" lon="1.76738">
        <ele>154</ele>
        <time>2022-03-27T08:48:59Z</time>
      </trkpt>
      <trkpt lat="48.63265" lon="1.76734">
        <ele>154</ele>
        <time>2022-03-27T08:49:01Z</time>
      </trkpt>
      <trkpt lat="48.63264" lon="1.7673">
        <ele>154</ele>
        <time>2022-03-27T08:49:03Z</time>
      </trkpt>
      <trkpt lat="48.63262" lon="1.76727">
        <ele>154</ele>
        <time>2022-03-27T08:49:05Z</time>
      </trkpt>
      <trkpt lat="48.63261" lon="1.76723">
        <ele>154</ele>
        <time>2022-03-27T08:49:07Z</time>
      </trkpt>
      <trkpt lat="48.63259" lon="1.76719">
        <ele>155</ele>
        <time>2022-03-27T08:49:09Z</time>
      </trkpt>
      <trkpt lat="48.63258" lon="1.76716">
        <ele>155</ele>
        <time>2022-03-27T08:49:11Z</time>
      </trkpt>
      <trkpt lat="48.63256" lon="1.76711">
        <ele>155</ele>
        <time>2022-03-27T08:49:13Z</time>
      </trkpt>
      <trkpt lat="48.63254" lon="1.76707">
        <ele>155</ele>
        <time>2022-03-27T08:49:15Z</time>
      </trkpt>
      <trkpt lat="48.63252" lon="1.76703">
        <ele>155</ele>
        <time>2022-03-27T08:49:17Z</time>
      </trkpt>
      <trkpt lat="48.6325" lon="1.76699">
        <ele>155</ele>
        <time>2022-03-27T08:49:19Z</time>
      </trkpt>
      <trkpt lat="48.63249" lon="1.76695">
        <ele>155</ele>
        <time>2022-03-27T08:49:21Z</time>
      </trkpt>
      <trkpt lat="48.63247" lon="1.76691">
        <ele>155</ele>
        <time>2022-03-27T08:49:23Z</time>
      </trkpt>
      <trkpt lat="48.63245" lon="1.76687">
        <ele>156</ele>
        <time>2022-03-27T08:49:25Z</time>
      </trkpt>
      <trkpt lat="48.63243" lon="1.76683">
        <ele>156</ele>
        <time>2022-03-27T08:49:27Z</time>
      </trkpt>
      <trkpt lat="48.63242" lon="1.76679">
        <ele>156</ele>
        <time>2022-03-27T08:49:29Z</time>
      </trkpt>
      <trkpt lat="48.6324" lon="1.76676">
        <ele>156</ele>
        <time>2022-03-27T08:49:31Z</time>
      </trkpt>
      <trkpt lat="48.63238" lon="1.76672">
        <ele>157</ele>
        <time>2022-03-27T08:49:33Z</time>
      </trkpt>
      <trkpt lat="48.63236" lon="1.76667">
        <ele>157</ele>
        <time>2022-03-27T08:49:35Z</time>
      </trkpt>
      <trkpt lat="48.63234" lon="1.76663">
        <ele>157</ele>
        <time>2022-03-27T08:49:37Z</time>
      </trkpt>
      <trkpt lat="48.63232" lon="1.76659">
        <ele>158</ele>
        <time>2022-03-27T08:49:39Z</time>
      </trkpt>
      <trkpt lat="48.6323" lon="1.76655">
        <ele>158</ele>
        <time>2022-03-27T08:49:41Z</time>
      </trkpt>
      <trkpt lat="48.63228" lon="1.76651">
        <ele>158</ele>
        <time>2022-03-27T08:49:43Z</time>
      </trkpt>
      <trkpt lat="48.63226" lon="1.76648">
        <ele>159</ele>
        <time>2022-03-27T08:49:45Z</time>
      </trkpt>
      <trkpt lat="48.63223" lon="1.76644">
        <ele>159</ele>
        <time>2022-03-27T08:49:47Z</time>
      </trkpt>
      <trkpt lat="48.63221" lon="1.76642">
        <ele>159</ele>
        <time>2022-03-27T08:49:49Z</time>
      </trkpt>
      <trkpt lat="48.63218" lon="1.7664">
        <ele>159</ele>
        <time>2022-03-27T08:49:51Z</time>
      </trkpt>
      <trkpt lat="48.63217" lon="1.76639">
        <ele>159</ele>
        <time>2022-03-27T08:49:53Z</time>
      </trkpt>
      <trkpt lat="48.63214" lon="1.76639">
        <ele>159</ele>
        <time>2022-03-27T08:49:55Z</time>
      </trkpt>
      <trkpt lat="48.63211" lon="1.7664">
        <ele>159</ele>
        <time>2022-03-27T08:49:57Z</time>
      </trkpt>
      <trkpt lat="48.63208" lon="1.76642">
        <ele>159</ele>
        <time>2022-03-27T08:49:59Z</time>
      </trkpt>
      <trkpt lat="48.63205" lon="1.76643">
        <ele>159</ele>
        <time>2022-03-27T08:50:01Z</time>
      </trkpt>
      <trkpt lat="48.63202" lon="1.76645">
        <ele>159</ele>
        <time>2022-03-27T08:50:03Z</time>
      </trkpt>
      <trkpt lat="48.63199" lon="1.76647">
        <ele>159</ele>
        <time>2022-03-27T08:50:05Z</time>
      </trkpt>
      <trkpt lat="48.63196" lon="1.76649">
        <ele>159</ele>
        <time>2022-03-27T08:50:07Z</time>
      </trkpt>
      <trkpt lat="48.63193" lon="1.7665">
        <ele>159</ele>
        <time>2022-03-27T08:50:09Z</time>
      </trkpt>
      <trkpt lat="48.63191" lon="1.7665">
        <ele>159</ele>
        <time>2022-03-27T08:50:11Z</time>
      </trkpt>
      <trkpt lat="48.63189" lon="1.76651">
        <ele>159</ele>
        <time>2022-03-27T08:50:14Z</time>
      </trkpt>
      <trkpt lat="48.63186" lon="1.76652">
        <ele>159</ele>
        <time>2022-03-27T08:50:16Z</time>
      </trkpt>
      <trkpt lat="48.63183" lon="1.76655">
        <ele>159</ele>
        <time>2022-03-27T08:50:18Z</time>
      </trkpt>
      <trkpt lat="48.6318" lon="1.76658">
        <ele>159</ele>
        <time>2022-03-27T08:50:20Z</time>
      </trkpt>
      <trkpt lat="48.63177" lon="1.76661">
        <ele>159</ele>
        <time>2022-03-27T08:50:22Z</time>
      </trkpt>
      <trkpt lat="48.63176" lon="1.76662">
        <ele>159</ele>
        <time>2022-03-27T08:50:23Z</time>
      </trkpt>
      <trkpt lat="48.63172" lon="1.76664">
        <ele>159</ele>
        <time>2022-03-27T08:50:25Z</time>
      </trkpt>
      <trkpt lat="48.63169" lon="1.76665">
        <ele>159</ele>
        <time>2022-03-27T08:50:27Z</time>
      </trkpt>
      <trkpt lat="48.63167" lon="1.76666">
        <ele>159</ele>
        <time>2022-03-27T08:50:28Z</time>
      </trkpt>
      <trkpt lat="48.63165" lon="1.76667">
        <ele>159</ele>
        <time>2022-03-27T08:50:29Z</time>
      </trkpt>
      <trkpt lat="48.63162" lon="1.76668">
        <ele>159</ele>
        <time>2022-03-27T08:50:31Z</time>
      </trkpt>
      <trkpt lat="48.63159" lon="1.7667">
        <ele>159</ele>
        <time>2022-03-27T08:50:33Z</time>
      </trkpt>
      <trkpt lat="48.63156" lon="1.76671">
        <ele>159</ele>
        <time>2022-03-27T08:50:35Z</time>
      </trkpt>
      <trkpt lat="48.63153" lon="1.76673">
        <ele>159</ele>
        <time>2022-03-27T08:50:37Z</time>
      </trkpt>
      <trkpt lat="48.6315" lon="1.76675">
        <ele>159</ele>
        <time>2022-03-27T08:50:39Z</time>
      </trkpt>
      <trkpt lat="48.63147" lon="1.76676">
        <ele>159</ele>
        <time>2022-03-27T08:50:41Z</time>
      </trkpt>
      <trkpt lat="48.63144" lon="1.76678">
        <ele>159</ele>
        <time>2022-03-27T08:50:43Z</time>
      </trkpt>
      <trkpt lat="48.63142" lon="1.7668">
        <ele>159</ele>
        <time>2022-03-27T08:50:45Z</time>
      </trkpt>
      <trkpt lat="48.63139" lon="1.76681">
        <ele>159</ele>
        <time>2022-03-27T08:50:47Z</time>
      </trkpt>
      <trkpt lat="48.63136" lon="1.76683">
        <ele>159</ele>
        <time>2022-03-27T08:50:49Z</time>
      </trkpt>
      <trkpt lat="48.63133" lon="1.76684">
        <ele>159</ele>
        <time>2022-03-27T08:50:51Z</time>
      </trkpt>
      <trkpt lat="48.6313" lon="1.76686">
        <ele>159</ele>
        <time>2022-03-27T08:50:53Z</time>
      </trkpt>
      <trkpt lat="48.63128" lon="1.76687">
        <ele>159</ele>
        <time>2022-03-27T08:50:55Z</time>
      </trkpt>
      <trkpt lat="48.63125" lon="1.76689">
        <ele>159</ele>
        <time>2022-03-27T08:50:57Z</time>
      </trkpt>
      <trkpt lat="48.63122" lon="1.7669">
        <ele>159</ele>
        <time>2022-03-27T08:50:59Z</time>
      </trkpt>
      <trkpt lat="48.63119" lon="1.76691">
        <ele>159</ele>
        <time>2022-03-27T08:51:01Z</time>
      </trkpt>
      <trkpt lat="48.63116" lon="1.76693">
        <ele>159</ele>
        <time>2022-03-27T08:51:03Z</time>
      </trkpt>
      <trkpt lat="48.63114" lon="1.76694">
        <ele>159</ele>
        <time>2022-03-27T08:51:05Z</time>
      </trkpt>
      <trkpt lat="48.63111" lon="1.76696">
        <ele>159</ele>
        <time>2022-03-27T08:51:07Z</time>
      </trkpt>
      <trkpt lat="48.63108" lon="1.76697">
        <ele>159</ele>
        <time>2022-03-27T08:51:09Z</time>
      </trkpt>
      <trkpt lat="48.63105" lon="1.76699">
        <ele>159</ele>
        <time>2022-03-27T08:51:11Z</time>
      </trkpt>
      <trkpt lat="48.63102" lon="1.767">
        <ele>159</ele>
        <time>2022-03-27T08:51:13Z</time>
      </trkpt>
      <trkpt lat="48.631" lon="1.76702">
        <ele>159</ele>
        <time>2022-03-27T08:51:15Z</time>
      </trkpt>
      <trkpt lat="48.63097" lon="1.76703">
        <ele>159</ele>
        <time>2022-03-27T08:51:17Z</time>
      </trkpt>
      <trkpt lat="48.63094" lon="1.76705">
        <ele>159</ele>
        <time>2022-03-27T08:51:19Z</time>
      </trkpt>
      <trkpt lat="48.63091" lon="1.76706">
        <ele>159</ele>
        <time>2022-03-27T08:51:21Z</time>
      </trkpt>
      <trkpt lat="48.63088" lon="1.76707">
        <ele>159</ele>
        <time>2022-03-27T08:51:23Z</time>
      </trkpt>
      <trkpt lat="48.63086" lon="1.76709">
        <ele>159</ele>
        <time>2022-03-27T08:51:25Z</time>
      </trkpt>
      <trkpt lat="48.63083" lon="1.7671">
        <ele>159</ele>
        <time>2022-03-27T08:51:27Z</time>
      </trkpt>
      <trkpt lat="48.63079" lon="1.76712">
        <ele>159</ele>
        <time>2022-03-27T08:51:29Z</time>
      </trkpt>
      <trkpt lat="48.63076" lon="1.76714">
        <ele>159</ele>
        <time>2022-03-27T08:51:31Z</time>
      </trkpt>
      <trkpt lat="48.63073" lon="1.76716">
        <ele>159</ele>
        <time>2022-03-27T08:51:33Z</time>
      </trkpt>
      <trkpt lat="48.6307" lon="1.76718">
        <ele>159</ele>
        <time>2022-03-27T08:51:35Z</time>
      </trkpt>
      <trkpt lat="48.63067" lon="1.76719">
        <ele>160</ele>
        <time>2022-03-27T08:51:37Z</time>
      </trkpt>
      <trkpt lat="48.63064" lon="1.76721">
        <ele>160</ele>
        <time>2022-03-27T08:51:39Z</time>
      </trkpt>
      <trkpt lat="48.63061" lon="1.76722">
        <ele>160</ele>
        <time>2022-03-27T08:51:41Z</time>
      </trkpt>
      <trkpt lat="48.63058" lon="1.76723">
        <ele>160</ele>
        <time>2022-03-27T08:51:43Z</time>
      </trkpt>
      <trkpt lat="48.63054" lon="1.76725">
        <ele>160</ele>
        <time>2022-03-27T08:51:45Z</time>
      </trkpt>
      <trkpt lat="48.63051" lon="1.76726">
        <ele>160</ele>
        <time>2022-03-27T08:51:47Z</time>
      </trkpt>
      <trkpt lat="48.63048" lon="1.76728">
        <ele>160</ele>
        <time>2022-03-27T08:51:49Z</time>
      </trkpt>
      <trkpt lat="48.63045" lon="1.76729">
        <ele>160</ele>
        <time>2022-03-27T08:51:51Z</time>
      </trkpt>
      <trkpt lat="48.63042" lon="1.7673">
        <ele>160</ele>
        <time>2022-03-27T08:51:53Z</time>
      </trkpt>
      <trkpt lat="48.63038" lon="1.7673">
        <ele>160</ele>
        <time>2022-03-27T08:51:55Z</time>
      </trkpt>
      <trkpt lat="48.63035" lon="1.76731">
        <ele>160</ele>
        <time>2022-03-27T08:51:57Z</time>
      </trkpt>
      <trkpt lat="48.63033" lon="1.76732">
        <ele>160</ele>
        <time>2022-03-27T08:51:59Z</time>
      </trkpt>
      <trkpt lat="48.6303" lon="1.76733">
        <ele>160</ele>
        <time>2022-03-27T08:52:01Z</time>
      </trkpt>
      <trkpt lat="48.63027" lon="1.76734">
        <ele>160</ele>
        <time>2022-03-27T08:52:03Z</time>
      </trkpt>
      <trkpt lat="48.63024" lon="1.76735">
        <ele>160</ele>
        <time>2022-03-27T08:52:05Z</time>
      </trkpt>
      <trkpt lat="48.63021" lon="1.76737">
        <ele>160</ele>
        <time>2022-03-27T08:52:07Z</time>
      </trkpt>
      <trkpt lat="48.63018" lon="1.76738">
        <ele>160</ele>
        <time>2022-03-27T08:52:09Z</time>
      </trkpt>
      <trkpt lat="48.63015" lon="1.76739">
        <ele>161</ele>
        <time>2022-03-27T08:52:11Z</time>
      </trkpt>
      <trkpt lat="48.63012" lon="1.76741">
        <ele>161</ele>
        <time>2022-03-27T08:52:13Z</time>
      </trkpt>
      <trkpt lat="48.63009" lon="1.76742">
        <ele>161</ele>
        <time>2022-03-27T08:52:15Z</time>
      </trkpt>
      <trkpt lat="48.63006" lon="1.76743">
        <ele>161</ele>
        <time>2022-03-27T08:52:17Z</time>
      </trkpt>
      <trkpt lat="48.63002" lon="1.76744">
        <ele>161</ele>
        <time>2022-03-27T08:52:19Z</time>
      </trkpt>
      <trkpt lat="48.62999" lon="1.76745">
        <ele>160</ele>
        <time>2022-03-27T08:52:21Z</time>
      </trkpt>
      <trkpt lat="48.62996" lon="1.76746">
        <ele>160</ele>
        <time>2022-03-27T08:52:23Z</time>
      </trkpt>
      <trkpt lat="48.62993" lon="1.76747">
        <ele>161</ele>
        <time>2022-03-27T08:52:25Z</time>
      </trkpt>
      <trkpt lat="48.6299" lon="1.76747">
        <ele>161</ele>
        <time>2022-03-27T08:52:27Z</time>
      </trkpt>
      <trkpt lat="48.62986" lon="1.76748">
        <ele>161</ele>
        <time>2022-03-27T08:52:29Z</time>
      </trkpt>
      <trkpt lat="48.62983" lon="1.7675">
        <ele>161</ele>
        <time>2022-03-27T08:52:31Z</time>
      </trkpt>
      <trkpt lat="48.6298" lon="1.76751">
        <ele>161</ele>
        <time>2022-03-27T08:52:33Z</time>
      </trkpt>
      <trkpt lat="48.62977" lon="1.76753">
        <ele>161</ele>
        <time>2022-03-27T08:52:35Z</time>
      </trkpt>
      <trkpt lat="48.62974" lon="1.76755">
        <ele>161</ele>
        <time>2022-03-27T08:52:37Z</time>
      </trkpt>
      <trkpt lat="48.62971" lon="1.76756">
        <ele>161</ele>
        <time>2022-03-27T08:52:39Z</time>
      </trkpt>
      <trkpt lat="48.62968" lon="1.76757">
        <ele>161</ele>
        <time>2022-03-27T08:52:41Z</time>
      </trkpt>
      <trkpt lat="48.62965" lon="1.76759">
        <ele>161</ele>
        <time>2022-03-27T08:52:43Z</time>
      </trkpt>
      <trkpt lat="48.62962" lon="1.7676">
        <ele>161</ele>
        <time>2022-03-27T08:52:45Z</time>
      </trkpt>
      <trkpt lat="48.62958" lon="1.76761">
        <ele>161</ele>
        <time>2022-03-27T08:52:47Z</time>
      </trkpt>
      <trkpt lat="48.62955" lon="1.76762">
        <ele>161</ele>
        <time>2022-03-27T08:52:49Z</time>
      </trkpt>
      <trkpt lat="48.62952" lon="1.76763">
        <ele>161</ele>
        <time>2022-03-27T08:52:51Z</time>
      </trkpt>
      <trkpt lat="48.62949" lon="1.76764">
        <ele>161</ele>
        <time>2022-03-27T08:52:53Z</time>
      </trkpt>
      <trkpt lat="48.62946" lon="1.76765">
        <ele>161</ele>
        <time>2022-03-27T08:52:55Z</time>
      </trkpt>
      <trkpt lat="48.62943" lon="1.76766">
        <ele>160</ele>
        <time>2022-03-27T08:52:57Z</time>
      </trkpt>
      <trkpt lat="48.6294" lon="1.76767">
        <ele>160</ele>
        <time>2022-03-27T08:52:59Z</time>
      </trkpt>
      <trkpt lat="48.62937" lon="1.76768">
        <ele>160</ele>
        <time>2022-03-27T08:53:01Z</time>
      </trkpt>
      <trkpt lat="48.62934" lon="1.76768">
        <ele>160</ele>
        <time>2022-03-27T08:53:03Z</time>
      </trkpt>
      <trkpt lat="48.6293" lon="1.76766">
        <ele>160</ele>
        <time>2022-03-27T08:53:05Z</time>
      </trkpt>
      <trkpt lat="48.62927" lon="1.76765">
        <ele>160</ele>
        <time>2022-03-27T08:53:07Z</time>
      </trkpt>
      <trkpt lat="48.62924" lon="1.76765">
        <ele>160</ele>
        <time>2022-03-27T08:53:09Z</time>
      </trkpt>
      <trkpt lat="48.6292" lon="1.76764">
        <ele>160</ele>
        <time>2022-03-27T08:53:11Z</time>
      </trkpt>
      <trkpt lat="48.62917" lon="1.76762">
        <ele>159</ele>
        <time>2022-03-27T08:53:13Z</time>
      </trkpt>
      <trkpt lat="48.62914" lon="1.76761">
        <ele>159</ele>
        <time>2022-03-27T08:53:15Z</time>
      </trkpt>
      <trkpt lat="48.6291" lon="1.7676">
        <ele>159</ele>
        <time>2022-03-27T08:53:17Z</time>
      </trkpt>
      <trkpt lat="48.62907" lon="1.76759">
        <ele>159</ele>
        <time>2022-03-27T08:53:19Z</time>
      </trkpt>
      <trkpt lat="48.62904" lon="1.76759">
        <ele>159</ele>
        <time>2022-03-27T08:53:21Z</time>
      </trkpt>
      <trkpt lat="48.62901" lon="1.76757">
        <ele>160</ele>
        <time>2022-03-27T08:53:23Z</time>
      </trkpt>
      <trkpt lat="48.62898" lon="1.76756">
        <ele>160</ele>
        <time>2022-03-27T08:53:25Z</time>
      </trkpt>
      <trkpt lat="48.62894" lon="1.76755">
        <ele>159</ele>
        <time>2022-03-27T08:53:27Z</time>
      </trkpt>
      <trkpt lat="48.62891" lon="1.76753">
        <ele>160</ele>
        <time>2022-03-27T08:53:29Z</time>
      </trkpt>
      <trkpt lat="48.62888" lon="1.76752">
        <ele>160</ele>
        <time>2022-03-27T08:53:31Z</time>
      </trkpt>
      <trkpt lat="48.62885" lon="1.76751">
        <ele>160</ele>
        <time>2022-03-27T08:53:33Z</time>
      </trkpt>
      <trkpt lat="48.62881" lon="1.76749">
        <ele>160</ele>
        <time>2022-03-27T08:53:35Z</time>
      </trkpt>
      <trkpt lat="48.62878" lon="1.76747">
        <ele>160</ele>
        <time>2022-03-27T08:53:37Z</time>
      </trkpt>
      <trkpt lat="48.62875" lon="1.76746">
        <ele>160</ele>
        <time>2022-03-27T08:53:39Z</time>
      </trkpt>
      <trkpt lat="48.62872" lon="1.76744">
        <ele>160</ele>
        <time>2022-03-27T08:53:41Z</time>
      </trkpt>
      <trkpt lat="48.62868" lon="1.76743">
        <ele>160</ele>
        <time>2022-03-27T08:53:43Z</time>
      </trkpt>
      <trkpt lat="48.62865" lon="1.76743">
        <ele>161</ele>
        <time>2022-03-27T08:53:45Z</time>
      </trkpt>
      <trkpt lat="48.62862" lon="1.76741">
        <ele>160</ele>
        <time>2022-03-27T08:53:47Z</time>
      </trkpt>
      <trkpt lat="48.62859" lon="1.7674">
        <ele>161</ele>
        <time>2022-03-27T08:53:49Z</time>
      </trkpt>
      <trkpt lat="48.62856" lon="1.76738">
        <ele>161</ele>
        <time>2022-03-27T08:53:51Z</time>
      </trkpt>
      <trkpt lat="48.62853" lon="1.76738">
        <ele>161</ele>
        <time>2022-03-27T08:53:53Z</time>
      </trkpt>
      <trkpt lat="48.6285" lon="1.76737">
        <ele>161</ele>
        <time>2022-03-27T08:53:55Z</time>
      </trkpt>
      <trkpt lat="48.62847" lon="1.76736">
        <ele>161</ele>
        <time>2022-03-27T08:53:57Z</time>
      </trkpt>
      <trkpt lat="48.62844" lon="1.76735">
        <ele>161</ele>
        <time>2022-03-27T08:53:59Z</time>
      </trkpt>
      <trkpt lat="48.62841" lon="1.76733">
        <ele>161</ele>
        <time>2022-03-27T08:54:01Z</time>
      </trkpt>
      <trkpt lat="48.62838" lon="1.76732">
        <ele>161</ele>
        <time>2022-03-27T08:54:03Z</time>
      </trkpt>
      <trkpt lat="48.62835" lon="1.7673">
        <ele>161</ele>
        <time>2022-03-27T08:54:05Z</time>
      </trkpt>
      <trkpt lat="48.62832" lon="1.76729">
        <ele>161</ele>
        <time>2022-03-27T08:54:07Z</time>
      </trkpt>
      <trkpt lat="48.62829" lon="1.76728">
        <ele>161</ele>
        <time>2022-03-27T08:54:09Z</time>
      </trkpt>
      <trkpt lat="48.62826" lon="1.76726">
        <ele>162</ele>
        <time>2022-03-27T08:54:11Z</time>
      </trkpt>
      <trkpt lat="48.62823" lon="1.76725">
        <ele>162</ele>
        <time>2022-03-27T08:54:13Z</time>
      </trkpt>
      <trkpt lat="48.62821" lon="1.76724">
        <ele>161</ele>
        <time>2022-03-27T08:54:15Z</time>
      </trkpt>
      <trkpt lat="48.62818" lon="1.76722">
        <ele>161</ele>
        <time>2022-03-27T08:54:17Z</time>
      </trkpt>
      <trkpt lat="48.62816" lon="1.76721">
        <ele>161</ele>
        <time>2022-03-27T08:54:18Z</time>
      </trkpt>
      <trkpt lat="48.62813" lon="1.76719">
        <ele>161</ele>
        <time>2022-03-27T08:54:20Z</time>
      </trkpt>
      <trkpt lat="48.6281" lon="1.76718">
        <ele>161</ele>
        <time>2022-03-27T08:54:22Z</time>
      </trkpt>
      <trkpt lat="48.62807" lon="1.76716">
        <ele>161</ele>
        <time>2022-03-27T08:54:24Z</time>
      </trkpt>
      <trkpt lat="48.62804" lon="1.76715">
        <ele>161</ele>
        <time>2022-03-27T08:54:26Z</time>
      </trkpt>
      <trkpt lat="48.62801" lon="1.76714">
        <ele>161</ele>
        <time>2022-03-27T08:54:28Z</time>
      </trkpt>
      <trkpt lat="48.62799" lon="1.76712">
        <ele>161</ele>
        <time>2022-03-27T08:54:30Z</time>
      </trkpt>
      <trkpt lat="48.62796" lon="1.76711">
        <ele>161</ele>
        <time>2022-03-27T08:54:32Z</time>
      </trkpt>
      <trkpt lat="48.62793" lon="1.76709">
        <ele>161</ele>
        <time>2022-03-27T08:54:34Z</time>
      </trkpt>
      <trkpt lat="48.62791" lon="1.76708">
        <ele>161</ele>
        <time>2022-03-27T08:54:36Z</time>
      </trkpt>
      <trkpt lat="48.62788" lon="1.76707">
        <ele>161</ele>
        <time>2022-03-27T08:54:38Z</time>
      </trkpt>
      <trkpt lat="48.62785" lon="1.76706">
        <ele>161</ele>
        <time>2022-03-27T08:54:40Z</time>
      </trkpt>
      <trkpt lat="48.62782" lon="1.76705">
        <ele>161</ele>
        <time>2022-03-27T08:54:42Z</time>
      </trkpt>
      <trkpt lat="48.62779" lon="1.76704">
        <ele>161</ele>
        <time>2022-03-27T08:54:44Z</time>
      </trkpt>
      <trkpt lat="48.62776" lon="1.76703">
        <ele>162</ele>
        <time>2022-03-27T08:54:46Z</time>
      </trkpt>
      <trkpt lat="48.62773" lon="1.76702">
        <ele>162</ele>
        <time>2022-03-27T08:54:48Z</time>
      </trkpt>
      <trkpt lat="48.6277" lon="1.76701">
        <ele>162</ele>
        <time>2022-03-27T08:54:50Z</time>
      </trkpt>
      <trkpt lat="48.62767" lon="1.767">
        <ele>162</ele>
        <time>2022-03-27T08:54:52Z</time>
      </trkpt>
      <trkpt lat="48.62764" lon="1.76699">
        <ele>162</ele>
        <time>2022-03-27T08:54:54Z</time>
      </trkpt>
      <trkpt lat="48.62762" lon="1.76698">
        <ele>163</ele>
        <time>2022-03-27T08:54:56Z</time>
      </trkpt>
      <trkpt lat="48.6276" lon="1.76698">
        <ele>163</ele>
        <time>2022-03-27T08:54:58Z</time>
      </trkpt>
      <trkpt lat="48.62757" lon="1.76697">
        <ele>163</ele>
        <time>2022-03-27T08:55:00Z</time>
      </trkpt>
      <trkpt lat="48.62755" lon="1.76696">
        <ele>163</ele>
        <time>2022-03-27T08:55:01Z</time>
      </trkpt>
      <trkpt lat="48.62752" lon="1.76696">
        <ele>163</ele>
        <time>2022-03-27T08:55:03Z</time>
      </trkpt>
      <trkpt lat="48.62749" lon="1.76694">
        <ele>163</ele>
        <time>2022-03-27T08:55:05Z</time>
      </trkpt>
      <trkpt lat="48.62746" lon="1.76691">
        <ele>163</ele>
        <time>2022-03-27T08:55:07Z</time>
      </trkpt>
      <trkpt lat="48.62744" lon="1.7669">
        <ele>163</ele>
        <time>2022-03-27T08:55:08Z</time>
      </trkpt>
      <trkpt lat="48.62741" lon="1.76687">
        <ele>162</ele>
        <time>2022-03-27T08:55:10Z</time>
      </trkpt>
      <trkpt lat="48.62738" lon="1.76685">
        <ele>162</ele>
        <time>2022-03-27T08:55:12Z</time>
      </trkpt>
      <trkpt lat="48.62736" lon="1.76681">
        <ele>161</ele>
        <time>2022-03-27T08:55:14Z</time>
      </trkpt>
      <trkpt lat="48.62734" lon="1.76679">
        <ele>160</ele>
        <time>2022-03-27T08:55:16Z</time>
      </trkpt>
      <trkpt lat="48.62732" lon="1.76677">
        <ele>160</ele>
        <time>2022-03-27T08:55:18Z</time>
      </trkpt>
      <trkpt lat="48.62729" lon="1.76673">
        <ele>160</ele>
        <time>2022-03-27T08:55:20Z</time>
      </trkpt>
      <trkpt lat="48.62727" lon="1.7667">
        <ele>159</ele>
        <time>2022-03-27T08:55:23Z</time>
      </trkpt>
      <trkpt lat="48.62726" lon="1.76666">
        <ele>158</ele>
        <time>2022-03-27T08:55:24Z</time>
      </trkpt>
      <trkpt lat="48.62726" lon="1.76663">
        <ele>158</ele>
        <time>2022-03-27T08:55:25Z</time>
      </trkpt>
      <trkpt lat="48.62725" lon="1.76658">
        <ele>158</ele>
        <time>2022-03-27T08:55:27Z</time>
      </trkpt>
      <trkpt lat="48.62724" lon="1.76654">
        <ele>158</ele>
        <time>2022-03-27T08:55:29Z</time>
      </trkpt>
      <trkpt lat="48.62723" lon="1.76651">
        <ele>157</ele>
        <time>2022-03-27T08:55:31Z</time>
      </trkpt>
      <trkpt lat="48.62723" lon="1.76648">
        <ele>157</ele>
        <time>2022-03-27T08:55:36Z</time>
      </trkpt>
      <trkpt lat="48.62723" lon="1.76644">
        <ele>158</ele>
        <time>2022-03-27T08:55:48Z</time>
      </trkpt>
      <trkpt lat="48.62722" lon="1.76641">
        <ele>158</ele>
        <time>2022-03-27T08:55:50Z</time>
      </trkpt>
      <trkpt lat="48.62721" lon="1.76637">
        <ele>158</ele>
        <time>2022-03-27T08:55:52Z</time>
      </trkpt>
      <trkpt lat="48.6272" lon="1.76632">
        <ele>158</ele>
        <time>2022-03-27T08:55:54Z</time>
      </trkpt>
      <trkpt lat="48.62719" lon="1.76628">
        <ele>158</ele>
        <time>2022-03-27T08:55:56Z</time>
      </trkpt>
      <trkpt lat="48.62719" lon="1.76624">
        <ele>158</ele>
        <time>2022-03-27T08:55:58Z</time>
      </trkpt>
      <trkpt lat="48.62718" lon="1.7662">
        <ele>158</ele>
        <time>2022-03-27T08:56:01Z</time>
      </trkpt>
      <trkpt lat="48.62717" lon="1.76615">
        <ele>158</ele>
        <time>2022-03-27T08:56:02Z</time>
      </trkpt>
      <trkpt lat="48.62717" lon="1.76611">
        <ele>158</ele>
        <time>2022-03-27T08:56:04Z</time>
      </trkpt>
      <trkpt lat="48.62716" lon="1.76607">
        <ele>158</ele>
        <time>2022-03-27T08:56:06Z</time>
      </trkpt>
      <trkpt lat="48.62715" lon="1.76602">
        <ele>158</ele>
        <time>2022-03-27T08:56:08Z</time>
      </trkpt>
      <trkpt lat="48.62714" lon="1.76598">
        <ele>157</ele>
        <time>2022-03-27T08:56:10Z</time>
      </trkpt>
      <trkpt lat="48.62713" lon="1.76594">
        <ele>158</ele>
        <time>2022-03-27T08:56:12Z</time>
      </trkpt>
      <trkpt lat="48.62712" lon="1.7659">
        <ele>158</ele>
        <time>2022-03-27T08:56:14Z</time>
      </trkpt>
      <trkpt lat="48.62711" lon="1.76585">
        <ele>158</ele>
        <time>2022-03-27T08:56:16Z</time>
      </trkpt>
      <trkpt lat="48.6271" lon="1.76581">
        <ele>158</ele>
        <time>2022-03-27T08:56:18Z</time>
      </trkpt>
      <trkpt lat="48.6271" lon="1.76576">
        <ele>158</ele>
        <time>2022-03-27T08:56:20Z</time>
      </trkpt>
      <trkpt lat="48.62708" lon="1.76571">
        <ele>158</ele>
        <time>2022-03-27T08:56:22Z</time>
      </trkpt>
      <trkpt lat="48.62707" lon="1.76567">
        <ele>158</ele>
        <time>2022-03-27T08:56:24Z</time>
      </trkpt>
      <trkpt lat="48.62706" lon="1.76562">
        <ele>158</ele>
        <time>2022-03-27T08:56:26Z</time>
      </trkpt>
      <trkpt lat="48.62705" lon="1.76557">
        <ele>158</ele>
        <time>2022-03-27T08:56:28Z</time>
      </trkpt>
      <trkpt lat="48.62704" lon="1.76553">
        <ele>158</ele>
        <time>2022-03-27T08:56:30Z</time>
      </trkpt>
      <trkpt lat="48.62703" lon="1.7655">
        <ele>158</ele>
        <time>2022-03-27T08:56:32Z</time>
      </trkpt>
      <trkpt lat="48.62702" lon="1.76546">
        <ele>158</ele>
        <time>2022-03-27T08:56:34Z</time>
      </trkpt>
      <trkpt lat="48.62701" lon="1.76541">
        <ele>158</ele>
        <time>2022-03-27T08:56:36Z</time>
      </trkpt>
      <trkpt lat="48.627" lon="1.76537">
        <ele>157</ele>
        <time>2022-03-27T08:56:39Z</time>
      </trkpt>
      <trkpt lat="48.62699" lon="1.76533">
        <ele>157</ele>
        <time>2022-03-27T08:56:40Z</time>
      </trkpt>
      <trkpt lat="48.62698" lon="1.76528">
        <ele>157</ele>
        <time>2022-03-27T08:56:42Z</time>
      </trkpt>
      <trkpt lat="48.62698" lon="1.76524">
        <ele>157</ele>
        <time>2022-03-27T08:56:44Z</time>
      </trkpt>
      <trkpt lat="48.62697" lon="1.76521">
        <ele>157</ele>
        <time>2022-03-27T08:56:45Z</time>
      </trkpt>
      <trkpt lat="48.62696" lon="1.76519">
        <ele>157</ele>
        <time>2022-03-27T08:56:46Z</time>
      </trkpt>
      <trkpt lat="48.62695" lon="1.76514">
        <ele>157</ele>
        <time>2022-03-27T08:56:48Z</time>
      </trkpt>
      <trkpt lat="48.62695" lon="1.7651">
        <ele>157</ele>
        <time>2022-03-27T08:56:50Z</time>
      </trkpt>
      <trkpt lat="48.62694" lon="1.76505">
        <ele>157</ele>
        <time>2022-03-27T08:56:52Z</time>
      </trkpt>
      <trkpt lat="48.62692" lon="1.765">
        <ele>157</ele>
        <time>2022-03-27T08:56:54Z</time>
      </trkpt>
      <trkpt lat="48.62691" lon="1.76497">
        <ele>157</ele>
        <time>2022-03-27T08:56:56Z</time>
      </trkpt>
      <trkpt lat="48.6269" lon="1.76492">
        <ele>157</ele>
        <time>2022-03-27T08:56:58Z</time>
      </trkpt>
      <trkpt lat="48.6269" lon="1.76488">
        <ele>157</ele>
        <time>2022-03-27T08:57:00Z</time>
      </trkpt>
      <trkpt lat="48.62689" lon="1.76484">
        <ele>157</ele>
        <time>2022-03-27T08:57:02Z</time>
      </trkpt>
      <trkpt lat="48.62688" lon="1.76479">
        <ele>157</ele>
        <time>2022-03-27T08:57:04Z</time>
      </trkpt>
      <trkpt lat="48.62688" lon="1.76475">
        <ele>157</ele>
        <time>2022-03-27T08:57:06Z</time>
      </trkpt>
      <trkpt lat="48.62687" lon="1.76472">
        <ele>157</ele>
        <time>2022-03-27T08:57:08Z</time>
      </trkpt>
      <trkpt lat="48.62686" lon="1.76468">
        <ele>157</ele>
        <time>2022-03-27T08:57:10Z</time>
      </trkpt>
      <trkpt lat="48.62685" lon="1.76464">
        <ele>157</ele>
        <time>2022-03-27T08:57:12Z</time>
      </trkpt>
      <trkpt lat="48.62684" lon="1.7646">
        <ele>157</ele>
        <time>2022-03-27T08:57:14Z</time>
      </trkpt>
      <trkpt lat="48.62682" lon="1.76456">
        <ele>157</ele>
        <time>2022-03-27T08:57:17Z</time>
      </trkpt>
      <trkpt lat="48.62681" lon="1.76452">
        <ele>157</ele>
        <time>2022-03-27T08:57:18Z</time>
      </trkpt>
      <trkpt lat="48.6268" lon="1.76449">
        <ele>157</ele>
        <time>2022-03-27T08:57:20Z</time>
      </trkpt>
      <trkpt lat="48.62679" lon="1.76445">
        <ele>157</ele>
        <time>2022-03-27T08:57:22Z</time>
      </trkpt>
      <trkpt lat="48.62677" lon="1.7644">
        <ele>157</ele>
        <time>2022-03-27T08:57:24Z</time>
      </trkpt>
      <trkpt lat="48.62677" lon="1.76436">
        <ele>157</ele>
        <time>2022-03-27T08:57:26Z</time>
      </trkpt>
      <trkpt lat="48.62676" lon="1.76432">
        <ele>157</ele>
        <time>2022-03-27T08:57:28Z</time>
      </trkpt>
      <trkpt lat="48.62676" lon="1.76428">
        <ele>158</ele>
        <time>2022-03-27T08:57:30Z</time>
      </trkpt>
      <trkpt lat="48.62675" lon="1.76425">
        <ele>158</ele>
        <time>2022-03-27T08:57:32Z</time>
      </trkpt>
      <trkpt lat="48.62675" lon="1.76422">
        <ele>158</ele>
        <time>2022-03-27T08:57:34Z</time>
      </trkpt>
      <trkpt lat="48.62674" lon="1.76418">
        <ele>158</ele>
        <time>2022-03-27T08:57:36Z</time>
      </trkpt>
      <trkpt lat="48.62673" lon="1.76413">
        <ele>158</ele>
        <time>2022-03-27T08:57:38Z</time>
      </trkpt>
      <trkpt lat="48.62672" lon="1.7641">
        <ele>158</ele>
        <time>2022-03-27T08:57:40Z</time>
      </trkpt>
      <trkpt lat="48.62671" lon="1.76407">
        <ele>158</ele>
        <time>2022-03-27T08:57:41Z</time>
      </trkpt>
      <trkpt lat="48.6267" lon="1.76402">
        <ele>158</ele>
        <time>2022-03-27T08:57:43Z</time>
      </trkpt>
      <trkpt lat="48.62669" lon="1.76398">
        <ele>158</ele>
        <time>2022-03-27T08:57:45Z</time>
      </trkpt>
      <trkpt lat="48.62668" lon="1.76394">
        <ele>158</ele>
        <time>2022-03-27T08:57:47Z</time>
      </trkpt>
      <trkpt lat="48.62667" lon="1.7639">
        <ele>159</ele>
        <time>2022-03-27T08:57:49Z</time>
      </trkpt>
      <trkpt lat="48.62665" lon="1.76386">
        <ele>159</ele>
        <time>2022-03-27T08:57:51Z</time>
      </trkpt>
      <trkpt lat="48.62663" lon="1.76382">
        <ele>159</ele>
        <time>2022-03-27T08:57:53Z</time>
      </trkpt>
      <trkpt lat="48.6266" lon="1.7638">
        <ele>159</ele>
        <time>2022-03-27T08:57:55Z</time>
      </trkpt>
      <trkpt lat="48.62658" lon="1.76379">
        <ele>160</ele>
        <time>2022-03-27T08:57:57Z</time>
      </trkpt>
      <trkpt lat="48.62655" lon="1.76377">
        <ele>160</ele>
        <time>2022-03-27T08:57:59Z</time>
      </trkpt>
      <trkpt lat="48.62653" lon="1.76374">
        <ele>160</ele>
        <time>2022-03-27T08:58:01Z</time>
      </trkpt>
      <trkpt lat="48.6265" lon="1.76371">
        <ele>161</ele>
        <time>2022-03-27T08:58:03Z</time>
      </trkpt>
      <trkpt lat="48.62648" lon="1.76369">
        <ele>161</ele>
        <time>2022-03-27T08:58:04Z</time>
      </trkpt>
      <trkpt lat="48.62646" lon="1.76367">
        <ele>161</ele>
        <time>2022-03-27T08:58:06Z</time>
      </trkpt>
      <trkpt lat="48.62644" lon="1.76364">
        <ele>161</ele>
        <time>2022-03-27T08:58:08Z</time>
      </trkpt>
      <trkpt lat="48.62641" lon="1.76362">
        <ele>161</ele>
        <time>2022-03-27T08:58:10Z</time>
      </trkpt>
      <trkpt lat="48.6264" lon="1.76359">
        <ele>162</ele>
        <time>2022-03-27T08:58:12Z</time>
      </trkpt>
      <trkpt lat="48.62636" lon="1.76357">
        <ele>162</ele>
        <time>2022-03-27T08:58:14Z</time>
      </trkpt>
      <trkpt lat="48.62634" lon="1.76355">
        <ele>162</ele>
        <time>2022-03-27T08:58:16Z</time>
      </trkpt>
      <trkpt lat="48.62632" lon="1.76354">
        <ele>162</ele>
        <time>2022-03-27T08:58:18Z</time>
      </trkpt>
      <trkpt lat="48.6263" lon="1.76351">
        <ele>162</ele>
        <time>2022-03-27T08:58:20Z</time>
      </trkpt>
      <trkpt lat="48.62628" lon="1.76348">
        <ele>162</ele>
        <time>2022-03-27T08:58:22Z</time>
      </trkpt>
      <trkpt lat="48.62625" lon="1.76345">
        <ele>162</ele>
        <time>2022-03-27T08:58:24Z</time>
      </trkpt>
      <trkpt lat="48.62623" lon="1.76343">
        <ele>162</ele>
        <time>2022-03-27T08:58:26Z</time>
      </trkpt>
      <trkpt lat="48.62622" lon="1.76341">
        <ele>162</ele>
        <time>2022-03-27T08:58:28Z</time>
      </trkpt>
      <trkpt lat="48.6262" lon="1.7634">
        <ele>163</ele>
        <time>2022-03-27T08:58:35Z</time>
      </trkpt>
      <trkpt lat="48.62618" lon="1.76339">
        <ele>163</ele>
        <time>2022-03-27T08:58:38Z</time>
      </trkpt>
      <trkpt lat="48.62616" lon="1.76338">
        <ele>163</ele>
        <time>2022-03-27T08:58:41Z</time>
      </trkpt>
      <trkpt lat="48.62613" lon="1.76338">
        <ele>163</ele>
        <time>2022-03-27T08:58:43Z</time>
      </trkpt>
      <trkpt lat="48.62612" lon="1.76335">
        <ele>163</ele>
        <time>2022-03-27T08:58:45Z</time>
      </trkpt>
      <trkpt lat="48.6261" lon="1.76333">
        <ele>163</ele>
        <time>2022-03-27T08:58:48Z</time>
      </trkpt>
      <trkpt lat="48.62607" lon="1.76333">
        <ele>163</ele>
        <time>2022-03-27T08:58:50Z</time>
      </trkpt>
      <trkpt lat="48.62604" lon="1.76333">
        <ele>163</ele>
        <time>2022-03-27T08:58:52Z</time>
      </trkpt>
      <trkpt lat="48.62601" lon="1.76333">
        <ele>163</ele>
        <time>2022-03-27T08:58:53Z</time>
      </trkpt>
      <trkpt lat="48.62599" lon="1.76333">
        <ele>163</ele>
        <time>2022-03-27T08:58:54Z</time>
      </trkpt>
      <trkpt lat="48.62597" lon="1.76333">
        <ele>163</ele>
        <time>2022-03-27T08:58:55Z</time>
      </trkpt>
      <trkpt lat="48.62595" lon="1.76334">
        <ele>163</ele>
        <time>2022-03-27T08:58:56Z</time>
      </trkpt>
      <trkpt lat="48.62593" lon="1.76333">
        <ele>163</ele>
        <time>2022-03-27T08:58:57Z</time>
      </trkpt>
      <trkpt lat="48.62591" lon="1.76333">
        <ele>163</ele>
        <time>2022-03-27T08:58:58Z</time>
      </trkpt>
      <trkpt lat="48.62589" lon="1.76333">
        <ele>163</ele>
        <time>2022-03-27T08:59:00Z</time>
      </trkpt>
      <trkpt lat="48.62586" lon="1.76333">
        <ele>163</ele>
        <time>2022-03-27T08:59:01Z</time>
      </trkpt>
      <trkpt lat="48.62584" lon="1.76333">
        <ele>162</ele>
        <time>2022-03-27T08:59:02Z</time>
      </trkpt>
      <trkpt lat="48.6258" lon="1.76333">
        <ele>162</ele>
        <time>2022-03-27T08:59:04Z</time>
      </trkpt>
      <trkpt lat="48.62578" lon="1.76333">
        <ele>162</ele>
        <time>2022-03-27T08:59:06Z</time>
      </trkpt>
      <trkpt lat="48.62575" lon="1.76333">
        <ele>162</ele>
        <time>2022-03-27T08:59:09Z</time>
      </trkpt>
      <trkpt lat="48.62573" lon="1.76335">
        <ele>163</ele>
        <time>2022-03-27T08:59:11Z</time>
      </trkpt>
      <trkpt lat="48.62563" lon="1.76332">
        <ele>163</ele>
        <time>2022-03-27T08:59:17Z</time>
      </trkpt>
      <trkpt lat="48.62561" lon="1.7633">
        <ele>163</ele>
        <time>2022-03-27T08:59:18Z</time>
      </trkpt>
      <trkpt lat="48.6256" lon="1.76329">
        <ele>163</ele>
        <time>2022-03-27T08:59:19Z</time>
      </trkpt>
      <trkpt lat="48.62557" lon="1.76327">
        <ele>163</ele>
        <time>2022-03-27T08:59:21Z</time>
      </trkpt>
      <trkpt lat="48.62555" lon="1.76324">
        <ele>164</ele>
        <time>2022-03-27T08:59:23Z</time>
      </trkpt>
      <trkpt lat="48.62552" lon="1.76321">
        <ele>164</ele>
        <time>2022-03-27T08:59:25Z</time>
      </trkpt>
      <trkpt lat="48.6255" lon="1.76316">
        <ele>163</ele>
        <time>2022-03-27T08:59:27Z</time>
      </trkpt>
      <trkpt lat="48.62549" lon="1.76312">
        <ele>162</ele>
        <time>2022-03-27T08:59:30Z</time>
      </trkpt>
      <trkpt lat="48.62548" lon="1.7631">
        <ele>162</ele>
        <time>2022-03-27T08:59:31Z</time>
      </trkpt>
      <trkpt lat="48.62546" lon="1.76305">
        <ele>162</ele>
        <time>2022-03-27T08:59:33Z</time>
      </trkpt>
      <trkpt lat="48.62546" lon="1.76303">
        <ele>162</ele>
        <time>2022-03-27T08:59:34Z</time>
      </trkpt>
      <trkpt lat="48.62545" lon="1.763">
        <ele>162</ele>
        <time>2022-03-27T08:59:35Z</time>
      </trkpt>
      <trkpt lat="48.62543" lon="1.76296">
        <ele>162</ele>
        <time>2022-03-27T08:59:37Z</time>
      </trkpt>
      <trkpt lat="48.62541" lon="1.76291">
        <ele>161</ele>
        <time>2022-03-27T08:59:39Z</time>
      </trkpt>
      <trkpt lat="48.6254" lon="1.76288">
        <ele>162</ele>
        <time>2022-03-27T08:59:41Z</time>
      </trkpt>
      <trkpt lat="48.62539" lon="1.76286">
        <ele>162</ele>
        <time>2022-03-27T08:59:43Z</time>
      </trkpt>
      <trkpt lat="48.62537" lon="1.76283">
        <ele>162</ele>
        <time>2022-03-27T08:59:45Z</time>
      </trkpt>
      <trkpt lat="48.62535" lon="1.76279">
        <ele>162</ele>
        <time>2022-03-27T08:59:47Z</time>
      </trkpt>
      <trkpt lat="48.62533" lon="1.76276">
        <ele>162</ele>
        <time>2022-03-27T08:59:49Z</time>
      </trkpt>
      <trkpt lat="48.6253" lon="1.76274">
        <ele>162</ele>
        <time>2022-03-27T08:59:51Z</time>
      </trkpt>
      <trkpt lat="48.62528" lon="1.76271">
        <ele>162</ele>
        <time>2022-03-27T08:59:53Z</time>
      </trkpt>
      <trkpt lat="48.62526" lon="1.76269">
        <ele>162</ele>
        <time>2022-03-27T08:59:55Z</time>
      </trkpt>
      <trkpt lat="48.62524" lon="1.76266">
        <ele>162</ele>
        <time>2022-03-27T08:59:58Z</time>
      </trkpt>
      <trkpt lat="48.62522" lon="1.76264">
        <ele>162</ele>
        <time>2022-03-27T08:59:59Z</time>
      </trkpt>
      <trkpt lat="48.62519" lon="1.76262">
        <ele>162</ele>
        <time>2022-03-27T09:00:01Z</time>
      </trkpt>
      <trkpt lat="48.62517" lon="1.7626">
        <ele>162</ele>
        <time>2022-03-27T09:00:03Z</time>
      </trkpt>
      <trkpt lat="48.62515" lon="1.76257">
        <ele>163</ele>
        <time>2022-03-27T09:00:05Z</time>
      </trkpt>
      <trkpt lat="48.62512" lon="1.76255">
        <ele>163</ele>
        <time>2022-03-27T09:00:08Z</time>
      </trkpt>
      <trkpt lat="48.6251" lon="1.76253">
        <ele>163</ele>
        <time>2022-03-27T09:00:09Z</time>
      </trkpt>
      <trkpt lat="48.62507" lon="1.76248">
        <ele>163</ele>
        <time>2022-03-27T09:00:11Z</time>
      </trkpt>
      <trkpt lat="48.62506" lon="1.76246">
        <ele>162</ele>
        <time>2022-03-27T09:00:12Z</time>
      </trkpt>
      <trkpt lat="48.62506" lon="1.76243">
        <ele>162</ele>
        <time>2022-03-27T09:00:13Z</time>
      </trkpt>
      <trkpt lat="48.62504" lon="1.76238">
        <ele>162</ele>
        <time>2022-03-27T09:00:15Z</time>
      </trkpt>
      <trkpt lat="48.62503" lon="1.76235">
        <ele>161</ele>
        <time>2022-03-27T09:00:16Z</time>
      </trkpt>
      <trkpt lat="48.62502" lon="1.76233">
        <ele>161</ele>
        <time>2022-03-27T09:00:17Z</time>
      </trkpt>
      <trkpt lat="48.625" lon="1.76232">
        <ele>161</ele>
        <time>2022-03-27T09:00:18Z</time>
      </trkpt>
      <trkpt lat="48.62497" lon="1.76231">
        <ele>161</ele>
        <time>2022-03-27T09:00:20Z</time>
      </trkpt>
      <trkpt lat="48.62495" lon="1.76232">
        <ele>161</ele>
        <time>2022-03-27T09:00:21Z</time>
      </trkpt>
      <trkpt lat="48.62494" lon="1.76234">
        <ele>161</ele>
        <time>2022-03-27T09:00:22Z</time>
      </trkpt>
      <trkpt lat="48.62491" lon="1.76237">
        <ele>161</ele>
        <time>2022-03-27T09:00:24Z</time>
      </trkpt>
      <trkpt lat="48.62489" lon="1.76239">
        <ele>161</ele>
        <time>2022-03-27T09:00:25Z</time>
      </trkpt>
      <trkpt lat="48.62487" lon="1.76241">
        <ele>161</ele>
        <time>2022-03-27T09:00:26Z</time>
      </trkpt>
      <trkpt lat="48.62485" lon="1.76244">
        <ele>161</ele>
        <time>2022-03-27T09:00:28Z</time>
      </trkpt>
      <trkpt lat="48.62483" lon="1.76246">
        <ele>160</ele>
        <time>2022-03-27T09:00:30Z</time>
      </trkpt>
      <trkpt lat="48.62482" lon="1.76249">
        <ele>160</ele>
        <time>2022-03-27T09:00:32Z</time>
      </trkpt>
      <trkpt lat="48.6248" lon="1.76251">
        <ele>159</ele>
        <time>2022-03-27T09:00:34Z</time>
      </trkpt>
      <trkpt lat="48.62479" lon="1.76253">
        <ele>159</ele>
        <time>2022-03-27T09:00:36Z</time>
      </trkpt>
      <trkpt lat="48.62477" lon="1.76257">
        <ele>158</ele>
        <time>2022-03-27T09:00:38Z</time>
      </trkpt>
      <trkpt lat="48.62475" lon="1.7626">
        <ele>158</ele>
        <time>2022-03-27T09:00:40Z</time>
      </trkpt>
      <trkpt lat="48.62473" lon="1.76264">
        <ele>158</ele>
        <time>2022-03-27T09:00:42Z</time>
      </trkpt>
      <trkpt lat="48.6247" lon="1.76268">
        <ele>158</ele>
        <time>2022-03-27T09:00:44Z</time>
      </trkpt>
      <trkpt lat="48.62468" lon="1.76272">
        <ele>158</ele>
        <time>2022-03-27T09:00:46Z</time>
      </trkpt>
      <trkpt lat="48.62467" lon="1.76274">
        <ele>158</ele>
        <time>2022-03-27T09:00:47Z</time>
      </trkpt>
      <trkpt lat="48.62464" lon="1.76277">
        <ele>157</ele>
        <time>2022-03-27T09:00:49Z</time>
      </trkpt>
      <trkpt lat="48.62462" lon="1.76281">
        <ele>157</ele>
        <time>2022-03-27T09:00:51Z</time>
      </trkpt>
      <trkpt lat="48.6246" lon="1.76285">
        <ele>157</ele>
        <time>2022-03-27T09:00:53Z</time>
      </trkpt>
      <trkpt lat="48.62458" lon="1.76287">
        <ele>156</ele>
        <time>2022-03-27T09:00:54Z</time>
      </trkpt>
      <trkpt lat="48.62456" lon="1.76289">
        <ele>156</ele>
        <time>2022-03-27T09:00:55Z</time>
      </trkpt>
      <trkpt lat="48.62453" lon="1.76293">
        <ele>156</ele>
        <time>2022-03-27T09:00:56Z</time>
      </trkpt>
      <trkpt lat="48.62451" lon="1.76296">
        <ele>156</ele>
        <time>2022-03-27T09:00:57Z</time>
      </trkpt>
      <trkpt lat="48.62448" lon="1.76299">
        <ele>156</ele>
        <time>2022-03-27T09:00:58Z</time>
      </trkpt>
      <trkpt lat="48.62446" lon="1.76303">
        <ele>156</ele>
        <time>2022-03-27T09:00:59Z</time>
      </trkpt>
      <trkpt lat="48.62444" lon="1.76306">
        <ele>156</ele>
        <time>2022-03-27T09:01:00Z</time>
      </trkpt>
      <trkpt lat="48.62441" lon="1.76309">
        <ele>156</ele>
        <time>2022-03-27T09:01:02Z</time>
      </trkpt>
      <trkpt lat="48.62439" lon="1.76312">
        <ele>156</ele>
        <time>2022-03-27T09:01:02Z</time>
      </trkpt>
      <trkpt lat="48.62437" lon="1.76315">
        <ele>156</ele>
        <time>2022-03-27T09:01:03Z</time>
      </trkpt>
      <trkpt lat="48.62434" lon="1.76319">
        <ele>156</ele>
        <time>2022-03-27T09:01:04Z</time>
      </trkpt>
      <trkpt lat="48.62432" lon="1.76322">
        <ele>156</ele>
        <time>2022-03-27T09:01:05Z</time>
      </trkpt>
      <trkpt lat="48.62429" lon="1.76325">
        <ele>156</ele>
        <time>2022-03-27T09:01:06Z</time>
      </trkpt>
      <trkpt lat="48.62426" lon="1.76329">
        <ele>156</ele>
        <time>2022-03-27T09:01:07Z</time>
      </trkpt>
      <trkpt lat="48.62424" lon="1.76333">
        <ele>156</ele>
        <time>2022-03-27T09:01:08Z</time>
      </trkpt>
      <trkpt lat="48.62421" lon="1.76336">
        <ele>156</ele>
        <time>2022-03-27T09:01:09Z</time>
      </trkpt>
      <trkpt lat="48.62418" lon="1.7634">
        <ele>156</ele>
        <time>2022-03-27T09:01:10Z</time>
      </trkpt>
      <trkpt lat="48.62415" lon="1.76343">
        <ele>156</ele>
        <time>2022-03-27T09:01:11Z</time>
      </trkpt>
      <trkpt lat="48.62412" lon="1.76347">
        <ele>156</ele>
        <time>2022-03-27T09:01:12Z</time>
      </trkpt>
      <trkpt lat="48.6241" lon="1.76351">
        <ele>156</ele>
        <time>2022-03-27T09:01:13Z</time>
      </trkpt>
      <trkpt lat="48.62407" lon="1.76354">
        <ele>156</ele>
        <time>2022-03-27T09:01:14Z</time>
      </trkpt>
      <trkpt lat="48.62404" lon="1.76358">
        <ele>156</ele>
        <time>2022-03-27T09:01:15Z</time>
      </trkpt>
      <trkpt lat="48.62401" lon="1.76361">
        <ele>156</ele>
        <time>2022-03-27T09:01:16Z</time>
      </trkpt>
      <trkpt lat="48.62398" lon="1.76365">
        <ele>156</ele>
        <time>2022-03-27T09:01:17Z</time>
      </trkpt>
      <trkpt lat="48.62395" lon="1.76368">
        <ele>156</ele>
        <time>2022-03-27T09:01:18Z</time>
      </trkpt>
      <trkpt lat="48.62392" lon="1.76371">
        <ele>156</ele>
        <time>2022-03-27T09:01:19Z</time>
      </trkpt>
      <trkpt lat="48.62389" lon="1.76375">
        <ele>156</ele>
        <time>2022-03-27T09:01:20Z</time>
      </trkpt>
      <trkpt lat="48.62386" lon="1.76379">
        <ele>156</ele>
        <time>2022-03-27T09:01:21Z</time>
      </trkpt>
      <trkpt lat="48.62383" lon="1.76382">
        <ele>156</ele>
        <time>2022-03-27T09:01:22Z</time>
      </trkpt>
      <trkpt lat="48.62379" lon="1.76386">
        <ele>156</ele>
        <time>2022-03-27T09:01:24Z</time>
      </trkpt>
      <trkpt lat="48.62376" lon="1.7639">
        <ele>156</ele>
        <time>2022-03-27T09:01:24Z</time>
      </trkpt>
      <trkpt lat="48.62373" lon="1.76393">
        <ele>156</ele>
        <time>2022-03-27T09:01:25Z</time>
      </trkpt>
      <trkpt lat="48.6237" lon="1.76397">
        <ele>156</ele>
        <time>2022-03-27T09:01:26Z</time>
      </trkpt>
      <trkpt lat="48.62367" lon="1.764">
        <ele>156</ele>
        <time>2022-03-27T09:01:27Z</time>
      </trkpt>
      <trkpt lat="48.62364" lon="1.76403">
        <ele>156</ele>
        <time>2022-03-27T09:01:28Z</time>
      </trkpt>
      <trkpt lat="48.62361" lon="1.76406">
        <ele>156</ele>
        <time>2022-03-27T09:01:30Z</time>
      </trkpt>
      <trkpt lat="48.62358" lon="1.7641">
        <ele>156</ele>
        <time>2022-03-27T09:01:30Z</time>
      </trkpt>
      <trkpt lat="48.62355" lon="1.76413">
        <ele>156</ele>
        <time>2022-03-27T09:01:31Z</time>
      </trkpt>
      <trkpt lat="48.62352" lon="1.76416">
        <ele>157</ele>
        <time>2022-03-27T09:01:32Z</time>
      </trkpt>
      <trkpt lat="48.62349" lon="1.7642">
        <ele>157</ele>
        <time>2022-03-27T09:01:33Z</time>
      </trkpt>
      <trkpt lat="48.62345" lon="1.76423">
        <ele>157</ele>
        <time>2022-03-27T09:01:34Z</time>
      </trkpt>
      <trkpt lat="48.62342" lon="1.76426">
        <ele>157</ele>
        <time>2022-03-27T09:01:35Z</time>
      </trkpt>
      <trkpt lat="48.62339" lon="1.76429">
        <ele>157</ele>
        <time>2022-03-27T09:01:36Z</time>
      </trkpt>
      <trkpt lat="48.62336" lon="1.76432">
        <ele>157</ele>
        <time>2022-03-27T09:01:37Z</time>
      </trkpt>
      <trkpt lat="48.62333" lon="1.76435">
        <ele>157</ele>
        <time>2022-03-27T09:01:38Z</time>
      </trkpt>
      <trkpt lat="48.6233" lon="1.76439">
        <ele>157</ele>
        <time>2022-03-27T09:01:39Z</time>
      </trkpt>
      <trkpt lat="48.62326" lon="1.76442">
        <ele>157</ele>
        <time>2022-03-27T09:01:40Z</time>
      </trkpt>
      <trkpt lat="48.62323" lon="1.76446">
        <ele>157</ele>
        <time>2022-03-27T09:01:41Z</time>
      </trkpt>
      <trkpt lat="48.6232" lon="1.76449">
        <ele>157</ele>
        <time>2022-03-27T09:01:43Z</time>
      </trkpt>
      <trkpt lat="48.62317" lon="1.76452">
        <ele>157</ele>
        <time>2022-03-27T09:01:43Z</time>
      </trkpt>
      <trkpt lat="48.62314" lon="1.76455">
        <ele>157</ele>
        <time>2022-03-27T09:01:44Z</time>
      </trkpt>
      <trkpt lat="48.62311" lon="1.76459">
        <ele>157</ele>
        <time>2022-03-27T09:01:45Z</time>
      </trkpt>
      <trkpt lat="48.62308" lon="1.76462">
        <ele>157</ele>
        <time>2022-03-27T09:01:46Z</time>
      </trkpt>
      <trkpt lat="48.62305" lon="1.76466">
        <ele>157</ele>
        <time>2022-03-27T09:01:47Z</time>
      </trkpt>
      <trkpt lat="48.62302" lon="1.7647">
        <ele>157</ele>
        <time>2022-03-27T09:01:48Z</time>
      </trkpt>
      <trkpt lat="48.62299" lon="1.76473">
        <ele>157</ele>
        <time>2022-03-27T09:01:49Z</time>
      </trkpt>
      <trkpt lat="48.62296" lon="1.76477">
        <ele>157</ele>
        <time>2022-03-27T09:01:50Z</time>
      </trkpt>
      <trkpt lat="48.62293" lon="1.76481">
        <ele>157</ele>
        <time>2022-03-27T09:01:51Z</time>
      </trkpt>
      <trkpt lat="48.62291" lon="1.76486">
        <ele>157</ele>
        <time>2022-03-27T09:01:52Z</time>
      </trkpt>
      <trkpt lat="48.62288" lon="1.7649">
        <ele>157</ele>
        <time>2022-03-27T09:01:53Z</time>
      </trkpt>
      <trkpt lat="48.62285" lon="1.76494">
        <ele>157</ele>
        <time>2022-03-27T09:01:54Z</time>
      </trkpt>
      <trkpt lat="48.62282" lon="1.76499">
        <ele>157</ele>
        <time>2022-03-27T09:01:55Z</time>
      </trkpt>
      <trkpt lat="48.6228" lon="1.76503">
        <ele>157</ele>
        <time>2022-03-27T09:01:56Z</time>
      </trkpt>
      <trkpt lat="48.62277" lon="1.76508">
        <ele>157</ele>
        <time>2022-03-27T09:01:57Z</time>
      </trkpt>
      <trkpt lat="48.62275" lon="1.76512">
        <ele>157</ele>
        <time>2022-03-27T09:01:58Z</time>
      </trkpt>
      <trkpt lat="48.62272" lon="1.76517">
        <ele>157</ele>
        <time>2022-03-27T09:01:59Z</time>
      </trkpt>
      <trkpt lat="48.6227" lon="1.76522">
        <ele>157</ele>
        <time>2022-03-27T09:02:00Z</time>
      </trkpt>
      <trkpt lat="48.62268" lon="1.76527">
        <ele>158</ele>
        <time>2022-03-27T09:02:02Z</time>
      </trkpt>
      <trkpt lat="48.62266" lon="1.76532">
        <ele>158</ele>
        <time>2022-03-27T09:02:02Z</time>
      </trkpt>
      <trkpt lat="48.62264" lon="1.76537">
        <ele>158</ele>
        <time>2022-03-27T09:02:03Z</time>
      </trkpt>
      <trkpt lat="48.62262" lon="1.76542">
        <ele>158</ele>
        <time>2022-03-27T09:02:04Z</time>
      </trkpt>
      <trkpt lat="48.6226" lon="1.76547">
        <ele>158</ele>
        <time>2022-03-27T09:02:05Z</time>
      </trkpt>
      <trkpt lat="48.62259" lon="1.76552">
        <ele>158</ele>
        <time>2022-03-27T09:02:06Z</time>
      </trkpt>
      <trkpt lat="48.62257" lon="1.76557">
        <ele>158</ele>
        <time>2022-03-27T09:02:07Z</time>
      </trkpt>
      <trkpt lat="48.62255" lon="1.76563">
        <ele>158</ele>
        <time>2022-03-27T09:02:09Z</time>
      </trkpt>
      <trkpt lat="48.62253" lon="1.76568">
        <ele>158</ele>
        <time>2022-03-27T09:02:09Z</time>
      </trkpt>
      <trkpt lat="48.62252" lon="1.76573">
        <ele>158</ele>
        <time>2022-03-27T09:02:10Z</time>
      </trkpt>
      <trkpt lat="48.6225" lon="1.76579">
        <ele>158</ele>
        <time>2022-03-27T09:02:11Z</time>
      </trkpt>
      <trkpt lat="48.62248" lon="1.76584">
        <ele>158</ele>
        <time>2022-03-27T09:02:12Z</time>
      </trkpt>
      <trkpt lat="48.62247" lon="1.76589">
        <ele>158</ele>
        <time>2022-03-27T09:02:13Z</time>
      </trkpt>
      <trkpt lat="48.62245" lon="1.76595">
        <ele>158</ele>
        <time>2022-03-27T09:02:14Z</time>
      </trkpt>
      <trkpt lat="48.62244" lon="1.766">
        <ele>158</ele>
        <time>2022-03-27T09:02:15Z</time>
      </trkpt>
      <trkpt lat="48.62242" lon="1.76606">
        <ele>158</ele>
        <time>2022-03-27T09:02:16Z</time>
      </trkpt>
      <trkpt lat="48.62241" lon="1.76611">
        <ele>158</ele>
        <time>2022-03-27T09:02:17Z</time>
      </trkpt>
      <trkpt lat="48.62239" lon="1.76617">
        <ele>158</ele>
        <time>2022-03-27T09:02:18Z</time>
      </trkpt>
      <trkpt lat="48.62238" lon="1.76622">
        <ele>158</ele>
        <time>2022-03-27T09:02:19Z</time>
      </trkpt>
      <trkpt lat="48.62236" lon="1.76628">
        <ele>158</ele>
        <time>2022-03-27T09:02:21Z</time>
      </trkpt>
      <trkpt lat="48.62235" lon="1.76633">
        <ele>158</ele>
        <time>2022-03-27T09:02:21Z</time>
      </trkpt>
      <trkpt lat="48.62234" lon="1.76639">
        <ele>158</ele>
        <time>2022-03-27T09:02:22Z</time>
      </trkpt>
      <trkpt lat="48.62232" lon="1.76644">
        <ele>158</ele>
        <time>2022-03-27T09:02:23Z</time>
      </trkpt>
      <trkpt lat="48.62231" lon="1.7665">
        <ele>158</ele>
        <time>2022-03-27T09:02:24Z</time>
      </trkpt>
      <trkpt lat="48.62229" lon="1.76655">
        <ele>158</ele>
        <time>2022-03-27T09:02:25Z</time>
      </trkpt>
      <trkpt lat="48.62228" lon="1.76661">
        <ele>158</ele>
        <time>2022-03-27T09:02:26Z</time>
      </trkpt>
      <trkpt lat="48.62226" lon="1.76667">
        <ele>158</ele>
        <time>2022-03-27T09:02:27Z</time>
      </trkpt>
      <trkpt lat="48.62225" lon="1.76672">
        <ele>158</ele>
        <time>2022-03-27T09:02:28Z</time>
      </trkpt>
      <trkpt lat="48.62223" lon="1.76678">
        <ele>158</ele>
        <time>2022-03-27T09:02:29Z</time>
      </trkpt>
      <trkpt lat="48.62222" lon="1.76684">
        <ele>158</ele>
        <time>2022-03-27T09:02:30Z</time>
      </trkpt>
      <trkpt lat="48.6222" lon="1.76689">
        <ele>158</ele>
        <time>2022-03-27T09:02:31Z</time>
      </trkpt>
      <trkpt lat="48.62218" lon="1.76695">
        <ele>159</ele>
        <time>2022-03-27T09:02:32Z</time>
      </trkpt>
      <trkpt lat="48.62217" lon="1.76701">
        <ele>159</ele>
        <time>2022-03-27T09:02:33Z</time>
      </trkpt>
      <trkpt lat="48.62215" lon="1.76706">
        <ele>159</ele>
        <time>2022-03-27T09:02:34Z</time>
      </trkpt>
      <trkpt lat="48.62214" lon="1.76712">
        <ele>159</ele>
        <time>2022-03-27T09:02:35Z</time>
      </trkpt>
      <trkpt lat="48.62212" lon="1.76717">
        <ele>159</ele>
        <time>2022-03-27T09:02:36Z</time>
      </trkpt>
      <trkpt lat="48.6221" lon="1.76723">
        <ele>159</ele>
        <time>2022-03-27T09:02:37Z</time>
      </trkpt>
      <trkpt lat="48.62209" lon="1.76728">
        <ele>159</ele>
        <time>2022-03-27T09:02:38Z</time>
      </trkpt>
      <trkpt lat="48.62207" lon="1.76733">
        <ele>159</ele>
        <time>2022-03-27T09:02:40Z</time>
      </trkpt>
      <trkpt lat="48.62206" lon="1.76739">
        <ele>159</ele>
        <time>2022-03-27T09:02:40Z</time>
      </trkpt>
      <trkpt lat="48.62204" lon="1.76744">
        <ele>159</ele>
        <time>2022-03-27T09:02:41Z</time>
      </trkpt>
      <trkpt lat="48.62203" lon="1.76749">
        <ele>159</ele>
        <time>2022-03-27T09:02:42Z</time>
      </trkpt>
      <trkpt lat="48.62201" lon="1.76754">
        <ele>159</ele>
        <time>2022-03-27T09:02:43Z</time>
      </trkpt>
      <trkpt lat="48.622" lon="1.76759">
        <ele>159</ele>
        <time>2022-03-27T09:02:44Z</time>
      </trkpt>
      <trkpt lat="48.62199" lon="1.76764">
        <ele>159</ele>
        <time>2022-03-27T09:02:45Z</time>
      </trkpt>
      <trkpt lat="48.62197" lon="1.76769">
        <ele>159</ele>
        <time>2022-03-27T09:02:47Z</time>
      </trkpt>
      <trkpt lat="48.62196" lon="1.76773">
        <ele>159</ele>
        <time>2022-03-27T09:02:47Z</time>
      </trkpt>
      <trkpt lat="48.62195" lon="1.76778">
        <ele>159</ele>
        <time>2022-03-27T09:02:48Z</time>
      </trkpt>
      <trkpt lat="48.62194" lon="1.76782">
        <ele>159</ele>
        <time>2022-03-27T09:02:49Z</time>
      </trkpt>
      <trkpt lat="48.62193" lon="1.76787">
        <ele>159</ele>
        <time>2022-03-27T09:02:50Z</time>
      </trkpt>
      <trkpt lat="48.62192" lon="1.76792">
        <ele>159</ele>
        <time>2022-03-27T09:02:51Z</time>
      </trkpt>
      <trkpt lat="48.62191" lon="1.76796">
        <ele>159</ele>
        <time>2022-03-27T09:02:52Z</time>
      </trkpt>
      <trkpt lat="48.6219" lon="1.768">
        <ele>159</ele>
        <time>2022-03-27T09:02:53Z</time>
      </trkpt>
      <trkpt lat="48.62189" lon="1.76805">
        <ele>159</ele>
        <time>2022-03-27T09:02:54Z</time>
      </trkpt>
      <trkpt lat="48.62188" lon="1.76808">
        <ele>159</ele>
        <time>2022-03-27T09:02:55Z</time>
      </trkpt>
      <trkpt lat="48.62187" lon="1.76812">
        <ele>159</ele>
        <time>2022-03-27T09:02:56Z</time>
      </trkpt>
      <trkpt lat="48.62186" lon="1.76817">
        <ele>159</ele>
        <time>2022-03-27T09:02:57Z</time>
      </trkpt>
      <trkpt lat="48.62185" lon="1.76821">
        <ele>159</ele>
        <time>2022-03-27T09:02:58Z</time>
      </trkpt>
      <trkpt lat="48.62184" lon="1.76825">
        <ele>160</ele>
        <time>2022-03-27T09:02:59Z</time>
      </trkpt>
      <trkpt lat="48.62183" lon="1.76828">
        <ele>160</ele>
        <time>2022-03-27T09:03:00Z</time>
      </trkpt>
      <trkpt lat="48.62182" lon="1.76832">
        <ele>160</ele>
        <time>2022-03-27T09:03:01Z</time>
      </trkpt>
      <trkpt lat="48.62182" lon="1.76836">
        <ele>160</ele>
        <time>2022-03-27T09:03:02Z</time>
      </trkpt>
      <trkpt lat="48.62181" lon="1.76839">
        <ele>160</ele>
        <time>2022-03-27T09:03:03Z</time>
      </trkpt>
      <trkpt lat="48.6218" lon="1.76842">
        <ele>160</ele>
        <time>2022-03-27T09:03:04Z</time>
      </trkpt>
      <trkpt lat="48.62179" lon="1.76847">
        <ele>160</ele>
        <time>2022-03-27T09:03:06Z</time>
      </trkpt>
      <trkpt lat="48.62178" lon="1.76852">
        <ele>160</ele>
        <time>2022-03-27T09:03:08Z</time>
      </trkpt>
      <trkpt lat="48.62178" lon="1.76857">
        <ele>160</ele>
        <time>2022-03-27T09:03:10Z</time>
      </trkpt>
      <trkpt lat="48.62176" lon="1.76862">
        <ele>160</ele>
        <time>2022-03-27T09:03:12Z</time>
      </trkpt>
      <trkpt lat="48.62175" lon="1.76866">
        <ele>161</ele>
        <time>2022-03-27T09:03:14Z</time>
      </trkpt>
      <trkpt lat="48.62174" lon="1.76871">
        <ele>161</ele>
        <time>2022-03-27T09:03:16Z</time>
      </trkpt>
      <trkpt lat="48.62173" lon="1.76874">
        <ele>161</ele>
        <time>2022-03-27T09:03:18Z</time>
      </trkpt>
      <trkpt lat="48.62172" lon="1.76876">
        <ele>161</ele>
        <time>2022-03-27T09:03:18Z</time>
      </trkpt>
      <trkpt lat="48.62171" lon="1.76881">
        <ele>161</ele>
        <time>2022-03-27T09:03:20Z</time>
      </trkpt>
      <trkpt lat="48.6217" lon="1.76886">
        <ele>161</ele>
        <time>2022-03-27T09:03:22Z</time>
      </trkpt>
      <trkpt lat="48.62169" lon="1.76891">
        <ele>161</ele>
        <time>2022-03-27T09:03:24Z</time>
      </trkpt>
      <trkpt lat="48.62168" lon="1.76896">
        <ele>161</ele>
        <time>2022-03-27T09:03:26Z</time>
      </trkpt>
      <trkpt lat="48.62167" lon="1.76901">
        <ele>161</ele>
        <time>2022-03-27T09:03:28Z</time>
      </trkpt>
      <trkpt lat="48.62166" lon="1.76906">
        <ele>162</ele>
        <time>2022-03-27T09:03:30Z</time>
      </trkpt>
      <trkpt lat="48.62165" lon="1.76911">
        <ele>162</ele>
        <time>2022-03-27T09:03:32Z</time>
      </trkpt>
      <trkpt lat="48.62164" lon="1.76915">
        <ele>162</ele>
        <time>2022-03-27T09:03:34Z</time>
      </trkpt>
      <trkpt lat="48.62163" lon="1.76918">
        <ele>162</ele>
        <time>2022-03-27T09:03:35Z</time>
      </trkpt>
      <trkpt lat="48.62162" lon="1.7692">
        <ele>162</ele>
        <time>2022-03-27T09:03:36Z</time>
      </trkpt>
      <trkpt lat="48.62161" lon="1.76925">
        <ele>162</ele>
        <time>2022-03-27T09:03:38Z</time>
      </trkpt>
      <trkpt lat="48.6216" lon="1.7693">
        <ele>162</ele>
        <time>2022-03-27T09:03:40Z</time>
      </trkpt>
      <trkpt lat="48.62159" lon="1.76935">
        <ele>162</ele>
        <time>2022-03-27T09:03:42Z</time>
      </trkpt>
      <trkpt lat="48.62158" lon="1.7694">
        <ele>162</ele>
        <time>2022-03-27T09:03:44Z</time>
      </trkpt>
      <trkpt lat="48.62157" lon="1.76945">
        <ele>162</ele>
        <time>2022-03-27T09:03:46Z</time>
      </trkpt>
      <trkpt lat="48.62155" lon="1.7695">
        <ele>162</ele>
        <time>2022-03-27T09:03:48Z</time>
      </trkpt>
      <trkpt lat="48.62154" lon="1.76954">
        <ele>162</ele>
        <time>2022-03-27T09:03:50Z</time>
      </trkpt>
      <trkpt lat="48.62153" lon="1.76959">
        <ele>162</ele>
        <time>2022-03-27T09:03:52Z</time>
      </trkpt>
      <trkpt lat="48.62152" lon="1.76964">
        <ele>162</ele>
        <time>2022-03-27T09:03:54Z</time>
      </trkpt>
      <trkpt lat="48.62151" lon="1.76968">
        <ele>162</ele>
        <time>2022-03-27T09:03:56Z</time>
      </trkpt>
      <trkpt lat="48.6215" lon="1.76973">
        <ele>162</ele>
        <time>2022-03-27T09:03:58Z</time>
      </trkpt>
      <trkpt lat="48.62149" lon="1.76977">
        <ele>162</ele>
        <time>2022-03-27T09:04:00Z</time>
      </trkpt>
      <trkpt lat="48.62148" lon="1.76982">
        <ele>162</ele>
        <time>2022-03-27T09:04:02Z</time>
      </trkpt>
      <trkpt lat="48.62147" lon="1.76988">
        <ele>162</ele>
        <time>2022-03-27T09:04:04Z</time>
      </trkpt>
      <trkpt lat="48.62146" lon="1.76992">
        <ele>162</ele>
        <time>2022-03-27T09:04:06Z</time>
      </trkpt>
      <trkpt lat="48.62145" lon="1.76997">
        <ele>162</ele>
        <time>2022-03-27T09:04:08Z</time>
      </trkpt>
      <trkpt lat="48.62144" lon="1.77002">
        <ele>162</ele>
        <time>2022-03-27T09:04:10Z</time>
      </trkpt>
      <trkpt lat="48.62142" lon="1.77005">
        <ele>163</ele>
        <time>2022-03-27T09:04:12Z</time>
      </trkpt>
      <trkpt lat="48.6214" lon="1.77008">
        <ele>163</ele>
        <time>2022-03-27T09:04:14Z</time>
      </trkpt>
      <trkpt lat="48.62137" lon="1.77008">
        <ele>163</ele>
        <time>2022-03-27T09:04:16Z</time>
      </trkpt>
      <trkpt lat="48.62134" lon="1.77009">
        <ele>163</ele>
        <time>2022-03-27T09:04:18Z</time>
      </trkpt>
      <trkpt lat="48.62131" lon="1.77007">
        <ele>163</ele>
        <time>2022-03-27T09:04:20Z</time>
      </trkpt>
      <trkpt lat="48.62128" lon="1.77006">
        <ele>163</ele>
        <time>2022-03-27T09:04:22Z</time>
      </trkpt>
      <trkpt lat="48.62125" lon="1.77005">
        <ele>163</ele>
        <time>2022-03-27T09:04:24Z</time>
      </trkpt>
      <trkpt lat="48.62123" lon="1.77003">
        <ele>163</ele>
        <time>2022-03-27T09:04:26Z</time>
      </trkpt>
      <trkpt lat="48.6212" lon="1.77002">
        <ele>163</ele>
        <time>2022-03-27T09:04:28Z</time>
      </trkpt>
      <trkpt lat="48.62118" lon="1.77">
        <ele>163</ele>
        <time>2022-03-27T09:04:30Z</time>
      </trkpt>
      <trkpt lat="48.62115" lon="1.76999">
        <ele>163</ele>
        <time>2022-03-27T09:04:32Z</time>
      </trkpt>
      <trkpt lat="48.62113" lon="1.76997">
        <ele>164</ele>
        <time>2022-03-27T09:04:34Z</time>
      </trkpt>
      <trkpt lat="48.6211" lon="1.76995">
        <ele>164</ele>
        <time>2022-03-27T09:04:36Z</time>
      </trkpt>
      <trkpt lat="48.62107" lon="1.76995">
        <ele>164</ele>
        <time>2022-03-27T09:04:38Z</time>
      </trkpt>
      <trkpt lat="48.62104" lon="1.76997">
        <ele>164</ele>
        <time>2022-03-27T09:04:40Z</time>
      </trkpt>
      <trkpt lat="48.62101" lon="1.77">
        <ele>164</ele>
        <time>2022-03-27T09:04:42Z</time>
      </trkpt>
      <trkpt lat="48.621" lon="1.77001">
        <ele>164</ele>
        <time>2022-03-27T09:04:43Z</time>
      </trkpt>
      <trkpt lat="48.62098" lon="1.77002">
        <ele>164</ele>
        <time>2022-03-27T09:04:44Z</time>
      </trkpt>
      <trkpt lat="48.62096" lon="1.77003">
        <ele>164</ele>
        <time>2022-03-27T09:04:45Z</time>
      </trkpt>
      <trkpt lat="48.62093" lon="1.77005">
        <ele>164</ele>
        <time>2022-03-27T09:04:47Z</time>
      </trkpt>
      <trkpt lat="48.6209" lon="1.77006">
        <ele>164</ele>
        <time>2022-03-27T09:04:49Z</time>
      </trkpt>
      <trkpt lat="48.62087" lon="1.77008">
        <ele>164</ele>
        <time>2022-03-27T09:04:51Z</time>
      </trkpt>
      <trkpt lat="48.62084" lon="1.77009">
        <ele>164</ele>
        <time>2022-03-27T09:04:53Z</time>
      </trkpt>
      <trkpt lat="48.62081" lon="1.77011">
        <ele>164</ele>
        <time>2022-03-27T09:04:55Z</time>
      </trkpt>
      <trkpt lat="48.6208" lon="1.77012">
        <ele>164</ele>
        <time>2022-03-27T09:04:56Z</time>
      </trkpt>
      <trkpt lat="48.62076" lon="1.77013">
        <ele>164</ele>
        <time>2022-03-27T09:04:58Z</time>
      </trkpt>
      <trkpt lat="48.62073" lon="1.77015">
        <ele>164</ele>
        <time>2022-03-27T09:05:00Z</time>
      </trkpt>
      <trkpt lat="48.6207" lon="1.77017">
        <ele>164</ele>
        <time>2022-03-27T09:05:02Z</time>
      </trkpt>
      <trkpt lat="48.62067" lon="1.77017">
        <ele>164</ele>
        <time>2022-03-27T09:05:04Z</time>
      </trkpt>
      <trkpt lat="48.62064" lon="1.77019">
        <ele>164</ele>
        <time>2022-03-27T09:05:06Z</time>
      </trkpt>
      <trkpt lat="48.62061" lon="1.7702">
        <ele>164</ele>
        <time>2022-03-27T09:05:08Z</time>
      </trkpt>
      <trkpt lat="48.62058" lon="1.77022">
        <ele>164</ele>
        <time>2022-03-27T09:05:10Z</time>
      </trkpt>
      <trkpt lat="48.62055" lon="1.77024">
        <ele>164</ele>
        <time>2022-03-27T09:05:12Z</time>
      </trkpt>
      <trkpt lat="48.62052" lon="1.77025">
        <ele>164</ele>
        <time>2022-03-27T09:05:14Z</time>
      </trkpt>
      <trkpt lat="48.62049" lon="1.77027">
        <ele>164</ele>
        <time>2022-03-27T09:05:16Z</time>
      </trkpt>
      <trkpt lat="48.62046" lon="1.77029">
        <ele>164</ele>
        <time>2022-03-27T09:05:18Z</time>
      </trkpt>
      <trkpt lat="48.62043" lon="1.7703">
        <ele>164</ele>
        <time>2022-03-27T09:05:20Z</time>
      </trkpt>
      <trkpt lat="48.6204" lon="1.77032">
        <ele>164</ele>
        <time>2022-03-27T09:05:22Z</time>
      </trkpt>
      <trkpt lat="48.62037" lon="1.77034">
        <ele>164</ele>
        <time>2022-03-27T09:05:24Z</time>
      </trkpt>
      <trkpt lat="48.62034" lon="1.77035">
        <ele>164</ele>
        <time>2022-03-27T09:05:26Z</time>
      </trkpt>
      <trkpt lat="48.62032" lon="1.77037">
        <ele>164</ele>
        <time>2022-03-27T09:05:28Z</time>
      </trkpt>
      <trkpt lat="48.62028" lon="1.77039">
        <ele>164</ele>
        <time>2022-03-27T09:05:31Z</time>
      </trkpt>
      <trkpt lat="48.62025" lon="1.77041">
        <ele>164</ele>
        <time>2022-03-27T09:05:32Z</time>
      </trkpt>
      <trkpt lat="48.62023" lon="1.77043">
        <ele>165</ele>
        <time>2022-03-27T09:05:34Z</time>
      </trkpt>
      <trkpt lat="48.6202" lon="1.77044">
        <ele>165</ele>
        <time>2022-03-27T09:05:36Z</time>
      </trkpt>
      <trkpt lat="48.62017" lon="1.77045">
        <ele>165</ele>
        <time>2022-03-27T09:05:38Z</time>
      </trkpt>
      <trkpt lat="48.62015" lon="1.77047">
        <ele>165</ele>
        <time>2022-03-27T09:05:40Z</time>
      </trkpt>
      <trkpt lat="48.62012" lon="1.77048">
        <ele>165</ele>
        <time>2022-03-27T09:05:42Z</time>
      </trkpt>
      <trkpt lat="48.62009" lon="1.7705">
        <ele>165</ele>
        <time>2022-03-27T09:05:44Z</time>
      </trkpt>
      <trkpt lat="48.62006" lon="1.77052">
        <ele>165</ele>
        <time>2022-03-27T09:05:46Z</time>
      </trkpt>
      <trkpt lat="48.62003" lon="1.77053">
        <ele>165</ele>
        <time>2022-03-27T09:05:48Z</time>
      </trkpt>
      <trkpt lat="48.62" lon="1.77055">
        <ele>165</ele>
        <time>2022-03-27T09:05:50Z</time>
      </trkpt>
      <trkpt lat="48.61997" lon="1.77057">
        <ele>165</ele>
        <time>2022-03-27T09:05:52Z</time>
      </trkpt>
      <trkpt lat="48.61994" lon="1.77058">
        <ele>165</ele>
        <time>2022-03-27T09:05:54Z</time>
      </trkpt>
      <trkpt lat="48.61991" lon="1.7706">
        <ele>165</ele>
        <time>2022-03-27T09:05:56Z</time>
      </trkpt>
      <trkpt lat="48.61988" lon="1.77061">
        <ele>165</ele>
        <time>2022-03-27T09:05:58Z</time>
      </trkpt>
      <trkpt lat="48.61985" lon="1.77063">
        <ele>165</ele>
        <time>2022-03-27T09:06:00Z</time>
      </trkpt>
      <trkpt lat="48.61982" lon="1.77064">
        <ele>165</ele>
        <time>2022-03-27T09:06:02Z</time>
      </trkpt>
      <trkpt lat="48.61979" lon="1.77066">
        <ele>165</ele>
        <time>2022-03-27T09:06:04Z</time>
      </trkpt>
      <trkpt lat="48.61976" lon="1.77067">
        <ele>165</ele>
        <time>2022-03-27T09:06:06Z</time>
      </trkpt>
      <trkpt lat="48.61973" lon="1.7707">
        <ele>165</ele>
        <time>2022-03-27T09:06:09Z</time>
      </trkpt>
      <trkpt lat="48.6197" lon="1.77071">
        <ele>165</ele>
        <time>2022-03-27T09:06:10Z</time>
      </trkpt>
      <trkpt lat="48.61967" lon="1.77073">
        <ele>165</ele>
        <time>2022-03-27T09:06:12Z</time>
      </trkpt>
      <trkpt lat="48.61966" lon="1.77074">
        <ele>165</ele>
        <time>2022-03-27T09:06:13Z</time>
      </trkpt>
      <trkpt lat="48.61964" lon="1.77075">
        <ele>165</ele>
        <time>2022-03-27T09:06:14Z</time>
      </trkpt>
      <trkpt lat="48.61962" lon="1.77076">
        <ele>165</ele>
        <time>2022-03-27T09:06:15Z</time>
      </trkpt>
      <trkpt lat="48.61959" lon="1.77078">
        <ele>165</ele>
        <time>2022-03-27T09:06:17Z</time>
      </trkpt>
      <trkpt lat="48.61956" lon="1.77079">
        <ele>165</ele>
        <time>2022-03-27T09:06:19Z</time>
      </trkpt>
      <trkpt lat="48.61953" lon="1.77081">
        <ele>165</ele>
        <time>2022-03-27T09:06:21Z</time>
      </trkpt>
      <trkpt lat="48.6195" lon="1.77082">
        <ele>165</ele>
        <time>2022-03-27T09:06:23Z</time>
      </trkpt>
      <trkpt lat="48.61946" lon="1.77084">
        <ele>165</ele>
        <time>2022-03-27T09:06:25Z</time>
      </trkpt>
      <trkpt lat="48.61943" lon="1.77086">
        <ele>165</ele>
        <time>2022-03-27T09:06:28Z</time>
      </trkpt>
      <trkpt lat="48.61941" lon="1.77087">
        <ele>165</ele>
        <time>2022-03-27T09:06:29Z</time>
      </trkpt>
      <trkpt lat="48.61938" lon="1.77089">
        <ele>165</ele>
        <time>2022-03-27T09:06:31Z</time>
      </trkpt>
      <trkpt lat="48.61935" lon="1.77091">
        <ele>165</ele>
        <time>2022-03-27T09:06:33Z</time>
      </trkpt>
      <trkpt lat="48.61933" lon="1.77092">
        <ele>165</ele>
        <time>2022-03-27T09:06:34Z</time>
      </trkpt>
      <trkpt lat="48.61931" lon="1.77093">
        <ele>165</ele>
        <time>2022-03-27T09:06:35Z</time>
      </trkpt>
      <trkpt lat="48.61928" lon="1.77095">
        <ele>165</ele>
        <time>2022-03-27T09:06:37Z</time>
      </trkpt>
      <trkpt lat="48.61924" lon="1.77097">
        <ele>165</ele>
        <time>2022-03-27T09:06:39Z</time>
      </trkpt>
      <trkpt lat="48.61921" lon="1.77099">
        <ele>165</ele>
        <time>2022-03-27T09:06:41Z</time>
      </trkpt>
      <trkpt lat="48.61918" lon="1.771">
        <ele>165</ele>
        <time>2022-03-27T09:06:43Z</time>
      </trkpt>
      <trkpt lat="48.61915" lon="1.77102">
        <ele>165</ele>
        <time>2022-03-27T09:06:45Z</time>
      </trkpt>
      <trkpt lat="48.61912" lon="1.77104">
        <ele>165</ele>
        <time>2022-03-27T09:06:47Z</time>
      </trkpt>
      <trkpt lat="48.61909" lon="1.77106">
        <ele>165</ele>
        <time>2022-03-27T09:06:49Z</time>
      </trkpt>
      <trkpt lat="48.61905" lon="1.77108">
        <ele>165</ele>
        <time>2022-03-27T09:06:51Z</time>
      </trkpt>
      <trkpt lat="48.61902" lon="1.77109">
        <ele>165</ele>
        <time>2022-03-27T09:06:53Z</time>
      </trkpt>
      <trkpt lat="48.619" lon="1.77111">
        <ele>165</ele>
        <time>2022-03-27T09:06:55Z</time>
      </trkpt>
      <trkpt lat="48.61897" lon="1.77112">
        <ele>165</ele>
        <time>2022-03-27T09:06:57Z</time>
      </trkpt>
      <trkpt lat="48.61894" lon="1.77114">
        <ele>165</ele>
        <time>2022-03-27T09:06:59Z</time>
      </trkpt>
      <trkpt lat="48.61891" lon="1.77115">
        <ele>165</ele>
        <time>2022-03-27T09:07:01Z</time>
      </trkpt>
      <trkpt lat="48.61888" lon="1.77117">
        <ele>165</ele>
        <time>2022-03-27T09:07:03Z</time>
      </trkpt>
      <trkpt lat="48.61885" lon="1.77119">
        <ele>165</ele>
        <time>2022-03-27T09:07:06Z</time>
      </trkpt>
      <trkpt lat="48.61882" lon="1.77121">
        <ele>165</ele>
        <time>2022-03-27T09:07:07Z</time>
      </trkpt>
      <trkpt lat="48.61879" lon="1.77123">
        <ele>166</ele>
        <time>2022-03-27T09:07:09Z</time>
      </trkpt>
      <trkpt lat="48.61876" lon="1.77124">
        <ele>165</ele>
        <time>2022-03-27T09:07:11Z</time>
      </trkpt>
      <trkpt lat="48.61873" lon="1.77125">
        <ele>165</ele>
        <time>2022-03-27T09:07:13Z</time>
      </trkpt>
      <trkpt lat="48.6187" lon="1.77127">
        <ele>165</ele>
        <time>2022-03-27T09:07:15Z</time>
      </trkpt>
      <trkpt lat="48.61867" lon="1.77129">
        <ele>165</ele>
        <time>2022-03-27T09:07:17Z</time>
      </trkpt>
      <trkpt lat="48.61864" lon="1.77131">
        <ele>166</ele>
        <time>2022-03-27T09:07:19Z</time>
      </trkpt>
      <trkpt lat="48.61861" lon="1.77133">
        <ele>165</ele>
        <time>2022-03-27T09:07:21Z</time>
      </trkpt>
      <trkpt lat="48.61859" lon="1.77134">
        <ele>166</ele>
        <time>2022-03-27T09:07:22Z</time>
      </trkpt>
      <trkpt lat="48.61856" lon="1.77135">
        <ele>166</ele>
        <time>2022-03-27T09:07:24Z</time>
      </trkpt>
      <trkpt lat="48.61853" lon="1.77137">
        <ele>166</ele>
        <time>2022-03-27T09:07:26Z</time>
      </trkpt>
      <trkpt lat="48.6185" lon="1.77138">
        <ele>166</ele>
        <time>2022-03-27T09:07:28Z</time>
      </trkpt>
      <trkpt lat="48.61848" lon="1.7714">
        <ele>166</ele>
        <time>2022-03-27T09:07:30Z</time>
      </trkpt>
      <trkpt lat="48.61845" lon="1.77141">
        <ele>166</ele>
        <time>2022-03-27T09:07:32Z</time>
      </trkpt>
      <trkpt lat="48.61842" lon="1.77143">
        <ele>166</ele>
        <time>2022-03-27T09:07:34Z</time>
      </trkpt>
      <trkpt lat="48.61839" lon="1.77145">
        <ele>166</ele>
        <time>2022-03-27T09:07:36Z</time>
      </trkpt>
      <trkpt lat="48.61837" lon="1.77146">
        <ele>166</ele>
        <time>2022-03-27T09:07:37Z</time>
      </trkpt>
      <trkpt lat="48.61834" lon="1.77148">
        <ele>166</ele>
        <time>2022-03-27T09:07:39Z</time>
      </trkpt>
      <trkpt lat="48.61831" lon="1.7715">
        <ele>166</ele>
        <time>2022-03-27T09:07:41Z</time>
      </trkpt>
      <trkpt lat="48.61828" lon="1.77152">
        <ele>166</ele>
        <time>2022-03-27T09:07:44Z</time>
      </trkpt>
      <trkpt lat="48.61825" lon="1.77153">
        <ele>166</ele>
        <time>2022-03-27T09:07:45Z</time>
      </trkpt>
      <trkpt lat="48.61822" lon="1.77155">
        <ele>166</ele>
        <time>2022-03-27T09:07:47Z</time>
      </trkpt>
      <trkpt lat="48.61819" lon="1.77157">
        <ele>166</ele>
        <time>2022-03-27T09:07:49Z</time>
      </trkpt>
      <trkpt lat="48.61816" lon="1.77158">
        <ele>166</ele>
        <time>2022-03-27T09:07:51Z</time>
      </trkpt>
      <trkpt lat="48.61813" lon="1.7716">
        <ele>166</ele>
        <time>2022-03-27T09:07:53Z</time>
      </trkpt>
      <trkpt lat="48.6181" lon="1.77162">
        <ele>166</ele>
        <time>2022-03-27T09:07:55Z</time>
      </trkpt>
      <trkpt lat="48.61807" lon="1.77163">
        <ele>166</ele>
        <time>2022-03-27T09:07:57Z</time>
      </trkpt>
      <trkpt lat="48.61804" lon="1.77165">
        <ele>166</ele>
        <time>2022-03-27T09:07:59Z</time>
      </trkpt>
      <trkpt lat="48.61801" lon="1.77167">
        <ele>166</ele>
        <time>2022-03-27T09:08:01Z</time>
      </trkpt>
      <trkpt lat="48.61798" lon="1.77169">
        <ele>166</ele>
        <time>2022-03-27T09:08:03Z</time>
      </trkpt>
      <trkpt lat="48.61795" lon="1.7717">
        <ele>166</ele>
        <time>2022-03-27T09:08:05Z</time>
      </trkpt>
      <trkpt lat="48.61792" lon="1.77172">
        <ele>166</ele>
        <time>2022-03-27T09:08:07Z</time>
      </trkpt>
      <trkpt lat="48.61789" lon="1.77173">
        <ele>166</ele>
        <time>2022-03-27T09:08:09Z</time>
      </trkpt>
      <trkpt lat="48.61786" lon="1.77175">
        <ele>166</ele>
        <time>2022-03-27T09:08:11Z</time>
      </trkpt>
      <trkpt lat="48.61783" lon="1.77177">
        <ele>166</ele>
        <time>2022-03-27T09:08:13Z</time>
      </trkpt>
      <trkpt lat="48.6178" lon="1.77179">
        <ele>166</ele>
        <time>2022-03-27T09:08:15Z</time>
      </trkpt>
      <trkpt lat="48.61777" lon="1.77181">
        <ele>166</ele>
        <time>2022-03-27T09:08:17Z</time>
      </trkpt>
      <trkpt lat="48.61774" lon="1.77182">
        <ele>166</ele>
        <time>2022-03-27T09:08:19Z</time>
      </trkpt>
      <trkpt lat="48.61771" lon="1.77184">
        <ele>166</ele>
        <time>2022-03-27T09:08:21Z</time>
      </trkpt>
      <trkpt lat="48.61768" lon="1.77186">
        <ele>166</ele>
        <time>2022-03-27T09:08:23Z</time>
      </trkpt>
      <trkpt lat="48.61765" lon="1.77187">
        <ele>166</ele>
        <time>2022-03-27T09:08:25Z</time>
      </trkpt>
      <trkpt lat="48.61762" lon="1.77189">
        <ele>166</ele>
        <time>2022-03-27T09:08:27Z</time>
      </trkpt>
      <trkpt lat="48.61759" lon="1.7719">
        <ele>166</ele>
        <time>2022-03-27T09:08:29Z</time>
      </trkpt>
      <trkpt lat="48.61757" lon="1.77192">
        <ele>166</ele>
        <time>2022-03-27T09:08:31Z</time>
      </trkpt>
      <trkpt lat="48.61754" lon="1.77193">
        <ele>166</ele>
        <time>2022-03-27T09:08:33Z</time>
      </trkpt>
      <trkpt lat="48.61751" lon="1.77195">
        <ele>166</ele>
        <time>2022-03-27T09:08:35Z</time>
      </trkpt>
      <trkpt lat="48.61748" lon="1.77197">
        <ele>166</ele>
        <time>2022-03-27T09:08:37Z</time>
      </trkpt>
      <trkpt lat="48.61745" lon="1.77198">
        <ele>166</ele>
        <time>2022-03-27T09:08:39Z</time>
      </trkpt>
      <trkpt lat="48.61742" lon="1.772">
        <ele>166</ele>
        <time>2022-03-27T09:08:41Z</time>
      </trkpt>
      <trkpt lat="48.61738" lon="1.77202">
        <ele>166</ele>
        <time>2022-03-27T09:08:43Z</time>
      </trkpt>
      <trkpt lat="48.61735" lon="1.77204">
        <ele>166</ele>
        <time>2022-03-27T09:08:45Z</time>
      </trkpt>
      <trkpt lat="48.61733" lon="1.77205">
        <ele>166</ele>
        <time>2022-03-27T09:08:47Z</time>
      </trkpt>
      <trkpt lat="48.6173" lon="1.77207">
        <ele>166</ele>
        <time>2022-03-27T09:08:49Z</time>
      </trkpt>
      <trkpt lat="48.61727" lon="1.77208">
        <ele>167</ele>
        <time>2022-03-27T09:08:51Z</time>
      </trkpt>
      <trkpt lat="48.61724" lon="1.7721">
        <ele>167</ele>
        <time>2022-03-27T09:08:53Z</time>
      </trkpt>
      <trkpt lat="48.61721" lon="1.77212">
        <ele>167</ele>
        <time>2022-03-27T09:08:55Z</time>
      </trkpt>
      <trkpt lat="48.61718" lon="1.77213">
        <ele>167</ele>
        <time>2022-03-27T09:08:57Z</time>
      </trkpt>
      <trkpt lat="48.61716" lon="1.77215">
        <ele>167</ele>
        <time>2022-03-27T09:08:59Z</time>
      </trkpt>
      <trkpt lat="48.61713" lon="1.77217">
        <ele>167</ele>
        <time>2022-03-27T09:09:01Z</time>
      </trkpt>
      <trkpt lat="48.6171" lon="1.77218">
        <ele>167</ele>
        <time>2022-03-27T09:09:03Z</time>
      </trkpt>
      <trkpt lat="48.61707" lon="1.7722">
        <ele>167</ele>
        <time>2022-03-27T09:09:05Z</time>
      </trkpt>
      <trkpt lat="48.61704" lon="1.77222">
        <ele>167</ele>
        <time>2022-03-27T09:09:07Z</time>
      </trkpt>
      <trkpt lat="48.61702" lon="1.77223">
        <ele>167</ele>
        <time>2022-03-27T09:09:09Z</time>
      </trkpt>
      <trkpt lat="48.61699" lon="1.77225">
        <ele>167</ele>
        <time>2022-03-27T09:09:11Z</time>
      </trkpt>
      <trkpt lat="48.61696" lon="1.77226">
        <ele>167</ele>
        <time>2022-03-27T09:09:13Z</time>
      </trkpt>
      <trkpt lat="48.61693" lon="1.77228">
        <ele>167</ele>
        <time>2022-03-27T09:09:15Z</time>
      </trkpt>
      <trkpt lat="48.6169" lon="1.7723">
        <ele>167</ele>
        <time>2022-03-27T09:09:17Z</time>
      </trkpt>
      <trkpt lat="48.61687" lon="1.77232">
        <ele>167</ele>
        <time>2022-03-27T09:09:19Z</time>
      </trkpt>
      <trkpt lat="48.61684" lon="1.77233">
        <ele>167</ele>
        <time>2022-03-27T09:09:21Z</time>
      </trkpt>
      <trkpt lat="48.61682" lon="1.77235">
        <ele>167</ele>
        <time>2022-03-27T09:09:23Z</time>
      </trkpt>
      <trkpt lat="48.61679" lon="1.77237">
        <ele>167</ele>
        <time>2022-03-27T09:09:25Z</time>
      </trkpt>
      <trkpt lat="48.61676" lon="1.77238">
        <ele>167</ele>
        <time>2022-03-27T09:09:27Z</time>
      </trkpt>
      <trkpt lat="48.61673" lon="1.7724">
        <ele>167</ele>
        <time>2022-03-27T09:09:29Z</time>
      </trkpt>
      <trkpt lat="48.6167" lon="1.77242">
        <ele>167</ele>
        <time>2022-03-27T09:09:31Z</time>
      </trkpt>
      <trkpt lat="48.61667" lon="1.77244">
        <ele>167</ele>
        <time>2022-03-27T09:09:33Z</time>
      </trkpt>
      <trkpt lat="48.61665" lon="1.77245">
        <ele>167</ele>
        <time>2022-03-27T09:09:35Z</time>
      </trkpt>
      <trkpt lat="48.61662" lon="1.77247">
        <ele>167</ele>
        <time>2022-03-27T09:09:38Z</time>
      </trkpt>
      <trkpt lat="48.61659" lon="1.77248">
        <ele>167</ele>
        <time>2022-03-27T09:09:39Z</time>
      </trkpt>
      <trkpt lat="48.61657" lon="1.7725">
        <ele>167</ele>
        <time>2022-03-27T09:09:41Z</time>
      </trkpt>
      <trkpt lat="48.61654" lon="1.77252">
        <ele>167</ele>
        <time>2022-03-27T09:09:43Z</time>
      </trkpt>
      <trkpt lat="48.61651" lon="1.77253">
        <ele>168</ele>
        <time>2022-03-27T09:09:45Z</time>
      </trkpt>
      <trkpt lat="48.61648" lon="1.77253">
        <ele>168</ele>
        <time>2022-03-27T09:09:47Z</time>
      </trkpt>
      <trkpt lat="48.61646" lon="1.77255">
        <ele>168</ele>
        <time>2022-03-27T09:09:49Z</time>
      </trkpt>
      <trkpt lat="48.61643" lon="1.77256">
        <ele>168</ele>
        <time>2022-03-27T09:09:51Z</time>
      </trkpt>
      <trkpt lat="48.6164" lon="1.77257">
        <ele>168</ele>
        <time>2022-03-27T09:09:53Z</time>
      </trkpt>
      <trkpt lat="48.61637" lon="1.77258">
        <ele>168</ele>
        <time>2022-03-27T09:09:55Z</time>
      </trkpt>
      <trkpt lat="48.61635" lon="1.7726">
        <ele>168</ele>
        <time>2022-03-27T09:09:57Z</time>
      </trkpt>
      <trkpt lat="48.61632" lon="1.77262">
        <ele>168</ele>
        <time>2022-03-27T09:09:59Z</time>
      </trkpt>
      <trkpt lat="48.61629" lon="1.77264">
        <ele>168</ele>
        <time>2022-03-27T09:10:01Z</time>
      </trkpt>
      <trkpt lat="48.61626" lon="1.77265">
        <ele>168</ele>
        <time>2022-03-27T09:10:03Z</time>
      </trkpt>
      <trkpt lat="48.61624" lon="1.77267">
        <ele>168</ele>
        <time>2022-03-27T09:10:05Z</time>
      </trkpt>
      <trkpt lat="48.61621" lon="1.77268">
        <ele>168</ele>
        <time>2022-03-27T09:10:07Z</time>
      </trkpt>
      <trkpt lat="48.61619" lon="1.7727">
        <ele>168</ele>
        <time>2022-03-27T09:10:09Z</time>
      </trkpt>
      <trkpt lat="48.61616" lon="1.77271">
        <ele>168</ele>
        <time>2022-03-27T09:10:11Z</time>
      </trkpt>
      <trkpt lat="48.61614" lon="1.77273">
        <ele>168</ele>
        <time>2022-03-27T09:10:13Z</time>
      </trkpt>
      <trkpt lat="48.61611" lon="1.77274">
        <ele>168</ele>
        <time>2022-03-27T09:10:16Z</time>
      </trkpt>
      <trkpt lat="48.61609" lon="1.77275">
        <ele>168</ele>
        <time>2022-03-27T09:10:17Z</time>
      </trkpt>
      <trkpt lat="48.61606" lon="1.77277">
        <ele>168</ele>
        <time>2022-03-27T09:10:19Z</time>
      </trkpt>
      <trkpt lat="48.61603" lon="1.77279">
        <ele>168</ele>
        <time>2022-03-27T09:10:21Z</time>
      </trkpt>
      <trkpt lat="48.616" lon="1.77281">
        <ele>168</ele>
        <time>2022-03-27T09:10:23Z</time>
      </trkpt>
      <trkpt lat="48.61597" lon="1.77282">
        <ele>168</ele>
        <time>2022-03-27T09:10:25Z</time>
      </trkpt>
      <trkpt lat="48.61594" lon="1.77284">
        <ele>168</ele>
        <time>2022-03-27T09:10:27Z</time>
      </trkpt>
      <trkpt lat="48.61591" lon="1.77285">
        <ele>168</ele>
        <time>2022-03-27T09:10:29Z</time>
      </trkpt>
      <trkpt lat="48.61589" lon="1.77286">
        <ele>168</ele>
        <time>2022-03-27T09:10:31Z</time>
      </trkpt>
      <trkpt lat="48.61587" lon="1.77288">
        <ele>168</ele>
        <time>2022-03-27T09:10:35Z</time>
      </trkpt>
      <trkpt lat="48.61585" lon="1.7729">
        <ele>168</ele>
        <time>2022-03-27T09:10:36Z</time>
      </trkpt>
      <trkpt lat="48.61582" lon="1.77292">
        <ele>168</ele>
        <time>2022-03-27T09:10:39Z</time>
      </trkpt>
      <trkpt lat="48.6158" lon="1.77294">
        <ele>168</ele>
        <time>2022-03-27T09:10:41Z</time>
      </trkpt>
      <trkpt lat="48.61578" lon="1.77296">
        <ele>168</ele>
        <time>2022-03-27T09:10:42Z</time>
      </trkpt>
      <trkpt lat="48.61575" lon="1.77298">
        <ele>168</ele>
        <time>2022-03-27T09:10:44Z</time>
      </trkpt>
      <trkpt lat="48.61571" lon="1.77301">
        <ele>168</ele>
        <time>2022-03-27T09:10:46Z</time>
      </trkpt>
      <trkpt lat="48.6157" lon="1.77302">
        <ele>168</ele>
        <time>2022-03-27T09:10:47Z</time>
      </trkpt>
      <trkpt lat="48.61567" lon="1.77305">
        <ele>168</ele>
        <time>2022-03-27T09:10:49Z</time>
      </trkpt>
      <trkpt lat="48.61564" lon="1.77307">
        <ele>168</ele>
        <time>2022-03-27T09:10:51Z</time>
      </trkpt>
      <trkpt lat="48.61562" lon="1.7731">
        <ele>168</ele>
        <time>2022-03-27T09:10:53Z</time>
      </trkpt>
      <trkpt lat="48.6156" lon="1.77313">
        <ele>168</ele>
        <time>2022-03-27T09:10:55Z</time>
      </trkpt>
      <trkpt lat="48.61559" lon="1.77316">
        <ele>168</ele>
        <time>2022-03-27T09:10:57Z</time>
      </trkpt>
      <trkpt lat="48.61558" lon="1.7732">
        <ele>168</ele>
        <time>2022-03-27T09:10:59Z</time>
      </trkpt>
      <trkpt lat="48.61558" lon="1.77324">
        <ele>168</ele>
        <time>2022-03-27T09:11:01Z</time>
      </trkpt>
      <trkpt lat="48.61559" lon="1.77329">
        <ele>168</ele>
        <time>2022-03-27T09:11:03Z</time>
      </trkpt>
      <trkpt lat="48.61561" lon="1.77333">
        <ele>168</ele>
        <time>2022-03-27T09:11:05Z</time>
      </trkpt>
      <trkpt lat="48.61562" lon="1.77337">
        <ele>168</ele>
        <time>2022-03-27T09:11:07Z</time>
      </trkpt>
      <trkpt lat="48.61564" lon="1.77341">
        <ele>168</ele>
        <time>2022-03-27T09:11:09Z</time>
      </trkpt>
      <trkpt lat="48.61566" lon="1.77345">
        <ele>168</ele>
        <time>2022-03-27T09:11:11Z</time>
      </trkpt>
      <trkpt lat="48.61567" lon="1.77349">
        <ele>169</ele>
        <time>2022-03-27T09:11:13Z</time>
      </trkpt>
      <trkpt lat="48.61569" lon="1.77353">
        <ele>169</ele>
        <time>2022-03-27T09:11:15Z</time>
      </trkpt>
      <trkpt lat="48.6157" lon="1.77358">
        <ele>169</ele>
        <time>2022-03-27T09:11:17Z</time>
      </trkpt>
      <trkpt lat="48.61572" lon="1.77362">
        <ele>169</ele>
        <time>2022-03-27T09:11:19Z</time>
      </trkpt>
      <trkpt lat="48.61573" lon="1.77366">
        <ele>168</ele>
        <time>2022-03-27T09:11:21Z</time>
      </trkpt>
      <trkpt lat="48.61575" lon="1.7737">
        <ele>168</ele>
        <time>2022-03-27T09:11:23Z</time>
      </trkpt>
      <trkpt lat="48.61576" lon="1.77374">
        <ele>169</ele>
        <time>2022-03-27T09:11:25Z</time>
      </trkpt>
      <trkpt lat="48.61578" lon="1.77378">
        <ele>169</ele>
        <time>2022-03-27T09:11:27Z</time>
      </trkpt>
      <trkpt lat="48.61579" lon="1.77382">
        <ele>169</ele>
        <time>2022-03-27T09:11:29Z</time>
      </trkpt>
      <trkpt lat="48.61581" lon="1.77386">
        <ele>169</ele>
        <time>2022-03-27T09:11:32Z</time>
      </trkpt>
      <trkpt lat="48.61582" lon="1.7739">
        <ele>169</ele>
        <time>2022-03-27T09:11:33Z</time>
      </trkpt>
      <trkpt lat="48.61584" lon="1.77394">
        <ele>169</ele>
        <time>2022-03-27T09:11:35Z</time>
      </trkpt>
      <trkpt lat="48.61585" lon="1.77398">
        <ele>169</ele>
        <time>2022-03-27T09:11:37Z</time>
      </trkpt>
      <trkpt lat="48.61586" lon="1.77402">
        <ele>169</ele>
        <time>2022-03-27T09:11:39Z</time>
      </trkpt>
      <trkpt lat="48.61588" lon="1.77406">
        <ele>169</ele>
        <time>2022-03-27T09:11:41Z</time>
      </trkpt>
      <trkpt lat="48.61589" lon="1.7741">
        <ele>170</ele>
        <time>2022-03-27T09:11:43Z</time>
      </trkpt>
      <trkpt lat="48.6159" lon="1.77415">
        <ele>170</ele>
        <time>2022-03-27T09:11:45Z</time>
      </trkpt>
      <trkpt lat="48.61591" lon="1.77419">
        <ele>169</ele>
        <time>2022-03-27T09:11:47Z</time>
      </trkpt>
      <trkpt lat="48.61593" lon="1.77423">
        <ele>169</ele>
        <time>2022-03-27T09:11:49Z</time>
      </trkpt>
      <trkpt lat="48.61594" lon="1.77427">
        <ele>169</ele>
        <time>2022-03-27T09:11:51Z</time>
      </trkpt>
      <trkpt lat="48.61595" lon="1.77431">
        <ele>169</ele>
        <time>2022-03-27T09:11:53Z</time>
      </trkpt>
      <trkpt lat="48.61597" lon="1.77435">
        <ele>169</ele>
        <time>2022-03-27T09:11:55Z</time>
      </trkpt>
      <trkpt lat="48.61598" lon="1.77439">
        <ele>169</ele>
        <time>2022-03-27T09:11:57Z</time>
      </trkpt>
      <trkpt lat="48.616" lon="1.77442">
        <ele>169</ele>
        <time>2022-03-27T09:11:59Z</time>
      </trkpt>
      <trkpt lat="48.61601" lon="1.77446">
        <ele>169</ele>
        <time>2022-03-27T09:12:01Z</time>
      </trkpt>
      <trkpt lat="48.61603" lon="1.7745">
        <ele>168</ele>
        <time>2022-03-27T09:12:03Z</time>
      </trkpt>
      <trkpt lat="48.61604" lon="1.77454">
        <ele>168</ele>
        <time>2022-03-27T09:12:05Z</time>
      </trkpt>
      <trkpt lat="48.61606" lon="1.77458">
        <ele>168</ele>
        <time>2022-03-27T09:12:07Z</time>
      </trkpt>
      <trkpt lat="48.61607" lon="1.77462">
        <ele>168</ele>
        <time>2022-03-27T09:12:09Z</time>
      </trkpt>
      <trkpt lat="48.61608" lon="1.77466">
        <ele>168</ele>
        <time>2022-03-27T09:12:11Z</time>
      </trkpt>
      <trkpt lat="48.61609" lon="1.77471">
        <ele>168</ele>
        <time>2022-03-27T09:12:13Z</time>
      </trkpt>
      <trkpt lat="48.6161" lon="1.77475">
        <ele>168</ele>
        <time>2022-03-27T09:12:15Z</time>
      </trkpt>
      <trkpt lat="48.61611" lon="1.7748">
        <ele>168</ele>
        <time>2022-03-27T09:12:17Z</time>
      </trkpt>
      <trkpt lat="48.61612" lon="1.77484">
        <ele>167</ele>
        <time>2022-03-27T09:12:19Z</time>
      </trkpt>
      <trkpt lat="48.61613" lon="1.77488">
        <ele>167</ele>
        <time>2022-03-27T09:12:21Z</time>
      </trkpt>
      <trkpt lat="48.61614" lon="1.77493">
        <ele>167</ele>
        <time>2022-03-27T09:12:23Z</time>
      </trkpt>
      <trkpt lat="48.61615" lon="1.77498">
        <ele>167</ele>
        <time>2022-03-27T09:12:25Z</time>
      </trkpt>
      <trkpt lat="48.61616" lon="1.77503">
        <ele>167</ele>
        <time>2022-03-27T09:12:27Z</time>
      </trkpt>
      <trkpt lat="48.61616" lon="1.77507">
        <ele>167</ele>
        <time>2022-03-27T09:12:29Z</time>
      </trkpt>
      <trkpt lat="48.61616" lon="1.77512">
        <ele>167</ele>
        <time>2022-03-27T09:12:31Z</time>
      </trkpt>
      <trkpt lat="48.61617" lon="1.77517">
        <ele>167</ele>
        <time>2022-03-27T09:12:33Z</time>
      </trkpt>
      <trkpt lat="48.61617" lon="1.77521">
        <ele>167</ele>
        <time>2022-03-27T09:12:35Z</time>
      </trkpt>
      <trkpt lat="48.61618" lon="1.77526">
        <ele>167</ele>
        <time>2022-03-27T09:12:37Z</time>
      </trkpt>
      <trkpt lat="48.61618" lon="1.77531">
        <ele>167</ele>
        <time>2022-03-27T09:12:39Z</time>
      </trkpt>
      <trkpt lat="48.61618" lon="1.77536">
        <ele>167</ele>
        <time>2022-03-27T09:12:41Z</time>
      </trkpt>
      <trkpt lat="48.61618" lon="1.77541">
        <ele>166</ele>
        <time>2022-03-27T09:12:43Z</time>
      </trkpt>
      <trkpt lat="48.61619" lon="1.77547">
        <ele>166</ele>
        <time>2022-03-27T09:12:45Z</time>
      </trkpt>
      <trkpt lat="48.61619" lon="1.77552">
        <ele>166</ele>
        <time>2022-03-27T09:12:47Z</time>
      </trkpt>
      <trkpt lat="48.6162" lon="1.77558">
        <ele>166</ele>
        <time>2022-03-27T09:12:49Z</time>
      </trkpt>
      <trkpt lat="48.6162" lon="1.7756">
        <ele>166</ele>
        <time>2022-03-27T09:12:50Z</time>
      </trkpt>
      <trkpt lat="48.6162" lon="1.77563">
        <ele>166</ele>
        <time>2022-03-27T09:12:51Z</time>
      </trkpt>
      <trkpt lat="48.61621" lon="1.77566">
        <ele>166</ele>
        <time>2022-03-27T09:12:52Z</time>
      </trkpt>
      <trkpt lat="48.61621" lon="1.77571">
        <ele>166</ele>
        <time>2022-03-27T09:12:54Z</time>
      </trkpt>
      <trkpt lat="48.61622" lon="1.77576">
        <ele>167</ele>
        <time>2022-03-27T09:12:56Z</time>
      </trkpt>
      <trkpt lat="48.61622" lon="1.77581">
        <ele>167</ele>
        <time>2022-03-27T09:12:58Z</time>
      </trkpt>
      <trkpt lat="48.61623" lon="1.77586">
        <ele>167</ele>
        <time>2022-03-27T09:13:00Z</time>
      </trkpt>
      <trkpt lat="48.61624" lon="1.7759">
        <ele>167</ele>
        <time>2022-03-27T09:13:02Z</time>
      </trkpt>
      <trkpt lat="48.61624" lon="1.77595">
        <ele>167</ele>
        <time>2022-03-27T09:13:04Z</time>
      </trkpt>
      <trkpt lat="48.61625" lon="1.77599">
        <ele>167</ele>
        <time>2022-03-27T09:13:06Z</time>
      </trkpt>
      <trkpt lat="48.61626" lon="1.77604">
        <ele>167</ele>
        <time>2022-03-27T09:13:08Z</time>
      </trkpt>
      <trkpt lat="48.61627" lon="1.77609">
        <ele>168</ele>
        <time>2022-03-27T09:13:10Z</time>
      </trkpt>
      <trkpt lat="48.61627" lon="1.77614">
        <ele>168</ele>
        <time>2022-03-27T09:13:12Z</time>
      </trkpt>
      <trkpt lat="48.61628" lon="1.7762">
        <ele>168</ele>
        <time>2022-03-27T09:13:14Z</time>
      </trkpt>
      <trkpt lat="48.61628" lon="1.77624">
        <ele>168</ele>
        <time>2022-03-27T09:13:15Z</time>
      </trkpt>
      <trkpt lat="48.61629" lon="1.77628">
        <ele>168</ele>
        <time>2022-03-27T09:13:16Z</time>
      </trkpt>
      <trkpt lat="48.61629" lon="1.77633">
        <ele>168</ele>
        <time>2022-03-27T09:13:17Z</time>
      </trkpt>
      <trkpt lat="48.6163" lon="1.77638">
        <ele>168</ele>
        <time>2022-03-27T09:13:18Z</time>
      </trkpt>
      <trkpt lat="48.61631" lon="1.77643">
        <ele>167</ele>
        <time>2022-03-27T09:13:19Z</time>
      </trkpt>
      <trkpt lat="48.61632" lon="1.77649">
        <ele>167</ele>
        <time>2022-03-27T09:13:20Z</time>
      </trkpt>
      <trkpt lat="48.61633" lon="1.77654">
        <ele>167</ele>
        <time>2022-03-27T09:13:21Z</time>
      </trkpt>
      <trkpt lat="48.61634" lon="1.7766">
        <ele>167</ele>
        <time>2022-03-27T09:13:22Z</time>
      </trkpt>
      <trkpt lat="48.61635" lon="1.77667">
        <ele>167</ele>
        <time>2022-03-27T09:13:23Z</time>
      </trkpt>
      <trkpt lat="48.61636" lon="1.77673">
        <ele>167</ele>
        <time>2022-03-27T09:13:24Z</time>
      </trkpt>
      <trkpt lat="48.61637" lon="1.77679">
        <ele>167</ele>
        <time>2022-03-27T09:13:26Z</time>
      </trkpt>
      <trkpt lat="48.61638" lon="1.77685">
        <ele>167</ele>
        <time>2022-03-27T09:13:26Z</time>
      </trkpt>
      <trkpt lat="48.61639" lon="1.77692">
        <ele>167</ele>
        <time>2022-03-27T09:13:27Z</time>
      </trkpt>
      <trkpt lat="48.6164" lon="1.77698">
        <ele>167</ele>
        <time>2022-03-27T09:13:28Z</time>
      </trkpt>
      <trkpt lat="48.61641" lon="1.77705">
        <ele>167</ele>
        <time>2022-03-27T09:13:29Z</time>
      </trkpt>
      <trkpt lat="48.61642" lon="1.77712">
        <ele>168</ele>
        <time>2022-03-27T09:13:30Z</time>
      </trkpt>
      <trkpt lat="48.61643" lon="1.77718">
        <ele>168</ele>
        <time>2022-03-27T09:13:31Z</time>
      </trkpt>
      <trkpt lat="48.61645" lon="1.77725">
        <ele>168</ele>
        <time>2022-03-27T09:13:32Z</time>
      </trkpt>
      <trkpt lat="48.61646" lon="1.77731">
        <ele>168</ele>
        <time>2022-03-27T09:13:33Z</time>
      </trkpt>
      <trkpt lat="48.61648" lon="1.77737">
        <ele>168</ele>
        <time>2022-03-27T09:13:34Z</time>
      </trkpt>
      <trkpt lat="48.61649" lon="1.77743">
        <ele>168</ele>
        <time>2022-03-27T09:13:35Z</time>
      </trkpt>
      <trkpt lat="48.61651" lon="1.77749">
        <ele>168</ele>
        <time>2022-03-27T09:13:36Z</time>
      </trkpt>
      <trkpt lat="48.61652" lon="1.77756">
        <ele>168</ele>
        <time>2022-03-27T09:13:37Z</time>
      </trkpt>
      <trkpt lat="48.61654" lon="1.77762">
        <ele>168</ele>
        <time>2022-03-27T09:13:38Z</time>
      </trkpt>
      <trkpt lat="48.61656" lon="1.77768">
        <ele>168</ele>
        <time>2022-03-27T09:13:39Z</time>
      </trkpt>
      <trkpt lat="48.61658" lon="1.77775">
        <ele>168</ele>
        <time>2022-03-27T09:13:40Z</time>
      </trkpt>
      <trkpt lat="48.6166" lon="1.77781">
        <ele>168</ele>
        <time>2022-03-27T09:13:41Z</time>
      </trkpt>
      <trkpt lat="48.61663" lon="1.77787">
        <ele>168</ele>
        <time>2022-03-27T09:13:42Z</time>
      </trkpt>
      <trkpt lat="48.61665" lon="1.77793">
        <ele>168</ele>
        <time>2022-03-27T09:13:43Z</time>
      </trkpt>
      <trkpt lat="48.61667" lon="1.778">
        <ele>168</ele>
        <time>2022-03-27T09:13:45Z</time>
      </trkpt>
      <trkpt lat="48.61669" lon="1.77806">
        <ele>168</ele>
        <time>2022-03-27T09:13:45Z</time>
      </trkpt>
      <trkpt lat="48.61671" lon="1.77812">
        <ele>168</ele>
        <time>2022-03-27T09:13:46Z</time>
      </trkpt>
      <trkpt lat="48.61674" lon="1.77819">
        <ele>168</ele>
        <time>2022-03-27T09:13:48Z</time>
      </trkpt>
      <trkpt lat="48.61676" lon="1.77825">
        <ele>168</ele>
        <time>2022-03-27T09:13:48Z</time>
      </trkpt>
      <trkpt lat="48.61679" lon="1.77832">
        <ele>168</ele>
        <time>2022-03-27T09:13:49Z</time>
      </trkpt>
      <trkpt lat="48.61681" lon="1.77839">
        <ele>168</ele>
        <time>2022-03-27T09:13:50Z</time>
      </trkpt>
      <trkpt lat="48.61683" lon="1.77846">
        <ele>168</ele>
        <time>2022-03-27T09:13:51Z</time>
      </trkpt>
      <trkpt lat="48.61686" lon="1.77852">
        <ele>168</ele>
        <time>2022-03-27T09:13:52Z</time>
      </trkpt>
      <trkpt lat="48.61688" lon="1.77859">
        <ele>168</ele>
        <time>2022-03-27T09:13:53Z</time>
      </trkpt>
      <trkpt lat="48.6169" lon="1.77865">
        <ele>168</ele>
        <time>2022-03-27T09:13:54Z</time>
      </trkpt>
      <trkpt lat="48.61692" lon="1.77872">
        <ele>168</ele>
        <time>2022-03-27T09:13:55Z</time>
      </trkpt>
      <trkpt lat="48.61695" lon="1.77878">
        <ele>168</ele>
        <time>2022-03-27T09:13:56Z</time>
      </trkpt>
      <trkpt lat="48.61697" lon="1.77885">
        <ele>168</ele>
        <time>2022-03-27T09:13:57Z</time>
      </trkpt>
      <trkpt lat="48.61699" lon="1.77892">
        <ele>167</ele>
        <time>2022-03-27T09:13:58Z</time>
      </trkpt>
      <trkpt lat="48.61702" lon="1.77898">
        <ele>167</ele>
        <time>2022-03-27T09:13:59Z</time>
      </trkpt>
      <trkpt lat="48.61704" lon="1.77905">
        <ele>167</ele>
        <time>2022-03-27T09:14:00Z</time>
      </trkpt>
      <trkpt lat="48.61706" lon="1.77912">
        <ele>167</ele>
        <time>2022-03-27T09:14:01Z</time>
      </trkpt>
      <trkpt lat="48.61709" lon="1.77919">
        <ele>167</ele>
        <time>2022-03-27T09:14:02Z</time>
      </trkpt>
      <trkpt lat="48.61711" lon="1.77926">
        <ele>167</ele>
        <time>2022-03-27T09:14:04Z</time>
      </trkpt>
      <trkpt lat="48.61713" lon="1.77933">
        <ele>167</ele>
        <time>2022-03-27T09:14:04Z</time>
      </trkpt>
      <trkpt lat="48.61715" lon="1.7794">
        <ele>167</ele>
        <time>2022-03-27T09:14:05Z</time>
      </trkpt>
      <trkpt lat="48.61717" lon="1.77947">
        <ele>167</ele>
        <time>2022-03-27T09:14:06Z</time>
      </trkpt>
      <trkpt lat="48.61719" lon="1.77954">
        <ele>167</ele>
        <time>2022-03-27T09:14:08Z</time>
      </trkpt>
      <trkpt lat="48.61721" lon="1.77962">
        <ele>167</ele>
        <time>2022-03-27T09:14:08Z</time>
      </trkpt>
      <trkpt lat="48.61723" lon="1.77969">
        <ele>166</ele>
        <time>2022-03-27T09:14:09Z</time>
      </trkpt>
      <trkpt lat="48.61725" lon="1.77976">
        <ele>166</ele>
        <time>2022-03-27T09:14:10Z</time>
      </trkpt>
      <trkpt lat="48.61727" lon="1.77983">
        <ele>166</ele>
        <time>2022-03-27T09:14:11Z</time>
      </trkpt>
      <trkpt lat="48.61729" lon="1.77991">
        <ele>166</ele>
        <time>2022-03-27T09:14:12Z</time>
      </trkpt>
      <trkpt lat="48.61731" lon="1.77998">
        <ele>166</ele>
        <time>2022-03-27T09:14:13Z</time>
      </trkpt>
      <trkpt lat="48.61733" lon="1.78005">
        <ele>166</ele>
        <time>2022-03-27T09:14:14Z</time>
      </trkpt>
      <trkpt lat="48.61734" lon="1.78012">
        <ele>166</ele>
        <time>2022-03-27T09:14:15Z</time>
      </trkpt>
      <trkpt lat="48.61736" lon="1.78019">
        <ele>166</ele>
        <time>2022-03-27T09:14:16Z</time>
      </trkpt>
      <trkpt lat="48.61738" lon="1.78027">
        <ele>166</ele>
        <time>2022-03-27T09:14:17Z</time>
      </trkpt>
      <trkpt lat="48.6174" lon="1.78034">
        <ele>166</ele>
        <time>2022-03-27T09:14:18Z</time>
      </trkpt>
      <trkpt lat="48.61741" lon="1.78041">
        <ele>166</ele>
        <time>2022-03-27T09:14:19Z</time>
      </trkpt>
      <trkpt lat="48.61743" lon="1.78048">
        <ele>166</ele>
        <time>2022-03-27T09:14:20Z</time>
      </trkpt>
      <trkpt lat="48.61744" lon="1.78055">
        <ele>166</ele>
        <time>2022-03-27T09:14:21Z</time>
      </trkpt>
      <trkpt lat="48.61746" lon="1.78062">
        <ele>166</ele>
        <time>2022-03-27T09:14:23Z</time>
      </trkpt>
      <trkpt lat="48.61748" lon="1.78069">
        <ele>166</ele>
        <time>2022-03-27T09:14:23Z</time>
      </trkpt>
      <trkpt lat="48.61749" lon="1.78075">
        <ele>166</ele>
        <time>2022-03-27T09:14:24Z</time>
      </trkpt>
      <trkpt lat="48.61751" lon="1.78082">
        <ele>166</ele>
        <time>2022-03-27T09:14:25Z</time>
      </trkpt>
      <trkpt lat="48.61752" lon="1.78088">
        <ele>166</ele>
        <time>2022-03-27T09:14:26Z</time>
      </trkpt>
      <trkpt lat="48.61754" lon="1.78095">
        <ele>166</ele>
        <time>2022-03-27T09:14:28Z</time>
      </trkpt>
      <trkpt lat="48.61755" lon="1.78102">
        <ele>166</ele>
        <time>2022-03-27T09:14:28Z</time>
      </trkpt>
      <trkpt lat="48.61757" lon="1.78108">
        <ele>167</ele>
        <time>2022-03-27T09:14:29Z</time>
      </trkpt>
      <trkpt lat="48.61759" lon="1.78115">
        <ele>167</ele>
        <time>2022-03-27T09:14:30Z</time>
      </trkpt>
      <trkpt lat="48.6176" lon="1.78122">
        <ele>167</ele>
        <time>2022-03-27T09:14:31Z</time>
      </trkpt>
      <trkpt lat="48.61762" lon="1.78128">
        <ele>167</ele>
        <time>2022-03-27T09:14:32Z</time>
      </trkpt>
      <trkpt lat="48.61763" lon="1.78135">
        <ele>167</ele>
        <time>2022-03-27T09:14:33Z</time>
      </trkpt>
      <trkpt lat="48.61765" lon="1.78142">
        <ele>167</ele>
        <time>2022-03-27T09:14:34Z</time>
      </trkpt>
      <trkpt lat="48.61766" lon="1.78148">
        <ele>167</ele>
        <time>2022-03-27T09:14:35Z</time>
      </trkpt>
      <trkpt lat="48.61768" lon="1.78155">
        <ele>167</ele>
        <time>2022-03-27T09:14:36Z</time>
      </trkpt>
      <trkpt lat="48.61769" lon="1.78161">
        <ele>167</ele>
        <time>2022-03-27T09:14:37Z</time>
      </trkpt>
      <trkpt lat="48.61771" lon="1.78167">
        <ele>167</ele>
        <time>2022-03-27T09:14:38Z</time>
      </trkpt>
      <trkpt lat="48.61772" lon="1.78174">
        <ele>167</ele>
        <time>2022-03-27T09:14:39Z</time>
      </trkpt>
      <trkpt lat="48.61774" lon="1.7818">
        <ele>167</ele>
        <time>2022-03-27T09:14:40Z</time>
      </trkpt>
      <trkpt lat="48.61775" lon="1.78186">
        <ele>167</ele>
        <time>2022-03-27T09:14:42Z</time>
      </trkpt>
      <trkpt lat="48.61777" lon="1.78192">
        <ele>167</ele>
        <time>2022-03-27T09:14:42Z</time>
      </trkpt>
      <trkpt lat="48.61778" lon="1.78197">
        <ele>167</ele>
        <time>2022-03-27T09:14:43Z</time>
      </trkpt>
      <trkpt lat="48.61779" lon="1.78203">
        <ele>167</ele>
        <time>2022-03-27T09:14:45Z</time>
      </trkpt>
      <trkpt lat="48.6178" lon="1.78209">
        <ele>167</ele>
        <time>2022-03-27T09:14:45Z</time>
      </trkpt>
      <trkpt lat="48.61781" lon="1.78215">
        <ele>167</ele>
        <time>2022-03-27T09:14:46Z</time>
      </trkpt>
      <trkpt lat="48.61782" lon="1.78221">
        <ele>167</ele>
        <time>2022-03-27T09:14:47Z</time>
      </trkpt>
      <trkpt lat="48.61784" lon="1.78227">
        <ele>167</ele>
        <time>2022-03-27T09:14:48Z</time>
      </trkpt>
      <trkpt lat="48.61785" lon="1.78233">
        <ele>167</ele>
        <time>2022-03-27T09:14:49Z</time>
      </trkpt>
      <trkpt lat="48.61786" lon="1.78239">
        <ele>167</ele>
        <time>2022-03-27T09:14:50Z</time>
      </trkpt>
      <trkpt lat="48.61788" lon="1.78245">
        <ele>167</ele>
        <time>2022-03-27T09:14:51Z</time>
      </trkpt>
      <trkpt lat="48.61789" lon="1.78251">
        <ele>167</ele>
        <time>2022-03-27T09:14:52Z</time>
      </trkpt>
      <trkpt lat="48.6179" lon="1.78257">
        <ele>167</ele>
        <time>2022-03-27T09:14:53Z</time>
      </trkpt>
      <trkpt lat="48.61792" lon="1.78264">
        <ele>167</ele>
        <time>2022-03-27T09:14:54Z</time>
      </trkpt>
      <trkpt lat="48.61793" lon="1.7827">
        <ele>166</ele>
        <time>2022-03-27T09:14:55Z</time>
      </trkpt>
      <trkpt lat="48.61795" lon="1.78277">
        <ele>166</ele>
        <time>2022-03-27T09:14:56Z</time>
      </trkpt>
      <trkpt lat="48.61796" lon="1.78284">
        <ele>166</ele>
        <time>2022-03-27T09:14:58Z</time>
      </trkpt>
      <trkpt lat="48.61798" lon="1.78291">
        <ele>166</ele>
        <time>2022-03-27T09:14:58Z</time>
      </trkpt>
      <trkpt lat="48.618" lon="1.78298">
        <ele>166</ele>
        <time>2022-03-27T09:14:59Z</time>
      </trkpt>
      <trkpt lat="48.61801" lon="1.78305">
        <ele>166</ele>
        <time>2022-03-27T09:15:00Z</time>
      </trkpt>
      <trkpt lat="48.61803" lon="1.78313">
        <ele>166</ele>
        <time>2022-03-27T09:15:01Z</time>
      </trkpt>
      <trkpt lat="48.61805" lon="1.7832">
        <ele>166</ele>
        <time>2022-03-27T09:15:02Z</time>
      </trkpt>
      <trkpt lat="48.61807" lon="1.78328">
        <ele>166</ele>
        <time>2022-03-27T09:15:03Z</time>
      </trkpt>
      <trkpt lat="48.61808" lon="1.78335">
        <ele>166</ele>
        <time>2022-03-27T09:15:04Z</time>
      </trkpt>
      <trkpt lat="48.6181" lon="1.78343">
        <ele>166</ele>
        <time>2022-03-27T09:15:05Z</time>
      </trkpt>
      <trkpt lat="48.61812" lon="1.7835">
        <ele>166</ele>
        <time>2022-03-27T09:15:06Z</time>
      </trkpt>
      <trkpt lat="48.61814" lon="1.78357">
        <ele>166</ele>
        <time>2022-03-27T09:15:07Z</time>
      </trkpt>
      <trkpt lat="48.61816" lon="1.78365">
        <ele>166</ele>
        <time>2022-03-27T09:15:08Z</time>
      </trkpt>
      <trkpt lat="48.61818" lon="1.78373">
        <ele>166</ele>
        <time>2022-03-27T09:15:09Z</time>
      </trkpt>
      <trkpt lat="48.61819" lon="1.7838">
        <ele>166</ele>
        <time>2022-03-27T09:15:10Z</time>
      </trkpt>
      <trkpt lat="48.61821" lon="1.78388">
        <ele>166</ele>
        <time>2022-03-27T09:15:11Z</time>
      </trkpt>
      <trkpt lat="48.61823" lon="1.78395">
        <ele>166</ele>
        <time>2022-03-27T09:15:12Z</time>
      </trkpt>
      <trkpt lat="48.61825" lon="1.78402">
        <ele>166</ele>
        <time>2022-03-27T09:15:13Z</time>
      </trkpt>
      <trkpt lat="48.61826" lon="1.7841">
        <ele>165</ele>
        <time>2022-03-27T09:15:14Z</time>
      </trkpt>
      <trkpt lat="48.61828" lon="1.78417">
        <ele>165</ele>
        <time>2022-03-27T09:15:15Z</time>
      </trkpt>
      <trkpt lat="48.6183" lon="1.78425">
        <ele>165</ele>
        <time>2022-03-27T09:15:16Z</time>
      </trkpt>
      <trkpt lat="48.61831" lon="1.78433">
        <ele>165</ele>
        <time>2022-03-27T09:15:17Z</time>
      </trkpt>
      <trkpt lat="48.61833" lon="1.78441">
        <ele>165</ele>
        <time>2022-03-27T09:15:18Z</time>
      </trkpt>
      <trkpt lat="48.61834" lon="1.78449">
        <ele>165</ele>
        <time>2022-03-27T09:15:20Z</time>
      </trkpt>
      <trkpt lat="48.61835" lon="1.78455">
        <ele>165</ele>
        <time>2022-03-27T09:15:21Z</time>
      </trkpt>
      <trkpt lat="48.61837" lon="1.78463">
        <ele>165</ele>
        <time>2022-03-27T09:15:21Z</time>
      </trkpt>
      <trkpt lat="48.61838" lon="1.7847">
        <ele>165</ele>
        <time>2022-03-27T09:15:22Z</time>
      </trkpt>
      <trkpt lat="48.61839" lon="1.78477">
        <ele>165</ele>
        <time>2022-03-27T09:15:23Z</time>
      </trkpt>
      <trkpt lat="48.6184" lon="1.78485">
        <ele>165</ele>
        <time>2022-03-27T09:15:24Z</time>
      </trkpt>
      <trkpt lat="48.61842" lon="1.78492">
        <ele>165</ele>
        <time>2022-03-27T09:15:25Z</time>
      </trkpt>
      <trkpt lat="48.61843" lon="1.785">
        <ele>165</ele>
        <time>2022-03-27T09:15:26Z</time>
      </trkpt>
      <trkpt lat="48.61843" lon="1.78507">
        <ele>165</ele>
        <time>2022-03-27T09:15:27Z</time>
      </trkpt>
      <trkpt lat="48.61844" lon="1.78515">
        <ele>165</ele>
        <time>2022-03-27T09:15:28Z</time>
      </trkpt>
      <trkpt lat="48.61845" lon="1.78523">
        <ele>165</ele>
        <time>2022-03-27T09:15:29Z</time>
      </trkpt>
      <trkpt lat="48.61845" lon="1.7853">
        <ele>165</ele>
        <time>2022-03-27T09:15:30Z</time>
      </trkpt>
      <trkpt lat="48.61846" lon="1.78538">
        <ele>165</ele>
        <time>2022-03-27T09:15:31Z</time>
      </trkpt>
      <trkpt lat="48.61847" lon="1.78546">
        <ele>165</ele>
        <time>2022-03-27T09:15:32Z</time>
      </trkpt>
      <trkpt lat="48.61848" lon="1.78553">
        <ele>165</ele>
        <time>2022-03-27T09:15:33Z</time>
      </trkpt>
      <trkpt lat="48.61848" lon="1.78561">
        <ele>165</ele>
        <time>2022-03-27T09:15:34Z</time>
      </trkpt>
      <trkpt lat="48.61849" lon="1.78569">
        <ele>165</ele>
        <time>2022-03-27T09:15:35Z</time>
      </trkpt>
      <trkpt lat="48.6185" lon="1.78577">
        <ele>165</ele>
        <time>2022-03-27T09:15:36Z</time>
      </trkpt>
      <trkpt lat="48.6185" lon="1.78585">
        <ele>165</ele>
        <time>2022-03-27T09:15:37Z</time>
      </trkpt>
      <trkpt lat="48.61851" lon="1.78592">
        <ele>165</ele>
        <time>2022-03-27T09:15:39Z</time>
      </trkpt>
      <trkpt lat="48.61852" lon="1.786">
        <ele>165</ele>
        <time>2022-03-27T09:15:39Z</time>
      </trkpt>
      <trkpt lat="48.61853" lon="1.78608">
        <ele>165</ele>
        <time>2022-03-27T09:15:41Z</time>
      </trkpt>
      <trkpt lat="48.61854" lon="1.78615">
        <ele>165</ele>
        <time>2022-03-27T09:15:41Z</time>
      </trkpt>
      <trkpt lat="48.61855" lon="1.78623">
        <ele>165</ele>
        <time>2022-03-27T09:15:42Z</time>
      </trkpt>
      <trkpt lat="48.61856" lon="1.78631">
        <ele>165</ele>
        <time>2022-03-27T09:15:43Z</time>
      </trkpt>
      <trkpt lat="48.61857" lon="1.78639">
        <ele>165</ele>
        <time>2022-03-27T09:15:44Z</time>
      </trkpt>
      <trkpt lat="48.61858" lon="1.78647">
        <ele>165</ele>
        <time>2022-03-27T09:15:45Z</time>
      </trkpt>
      <trkpt lat="48.61859" lon="1.78655">
        <ele>165</ele>
        <time>2022-03-27T09:15:46Z</time>
      </trkpt>
      <trkpt lat="48.61861" lon="1.78663">
        <ele>165</ele>
        <time>2022-03-27T09:15:47Z</time>
      </trkpt>
      <trkpt lat="48.61861" lon="1.78671">
        <ele>165</ele>
        <time>2022-03-27T09:15:48Z</time>
      </trkpt>
      <trkpt lat="48.61862" lon="1.78679">
        <ele>165</ele>
        <time>2022-03-27T09:15:49Z</time>
      </trkpt>
      <trkpt lat="48.61862" lon="1.78687">
        <ele>165</ele>
        <time>2022-03-27T09:15:50Z</time>
      </trkpt>
      <trkpt lat="48.61862" lon="1.78695">
        <ele>165</ele>
        <time>2022-03-27T09:15:51Z</time>
      </trkpt>
      <trkpt lat="48.61863" lon="1.78703">
        <ele>165</ele>
        <time>2022-03-27T09:15:52Z</time>
      </trkpt>
      <trkpt lat="48.61864" lon="1.78712">
        <ele>165</ele>
        <time>2022-03-27T09:15:53Z</time>
      </trkpt>
      <trkpt lat="48.61866" lon="1.78719">
        <ele>165</ele>
        <time>2022-03-27T09:15:54Z</time>
      </trkpt>
      <trkpt lat="48.61869" lon="1.78727">
        <ele>165</ele>
        <time>2022-03-27T09:15:55Z</time>
      </trkpt>
      <trkpt lat="48.61871" lon="1.78733">
        <ele>165</ele>
        <time>2022-03-27T09:15:56Z</time>
      </trkpt>
      <trkpt lat="48.61874" lon="1.7874">
        <ele>164</ele>
        <time>2022-03-27T09:15:58Z</time>
      </trkpt>
      <trkpt lat="48.61877" lon="1.78746">
        <ele>164</ele>
        <time>2022-03-27T09:15:59Z</time>
      </trkpt>
      <trkpt lat="48.61879" lon="1.78752">
        <ele>164</ele>
        <time>2022-03-27T09:15:59Z</time>
      </trkpt>
      <trkpt lat="48.61882" lon="1.78758">
        <ele>164</ele>
        <time>2022-03-27T09:16:00Z</time>
      </trkpt>
      <trkpt lat="48.61885" lon="1.78764">
        <ele>164</ele>
        <time>2022-03-27T09:16:01Z</time>
      </trkpt>
      <trkpt lat="48.61887" lon="1.7877">
        <ele>164</ele>
        <time>2022-03-27T09:16:02Z</time>
      </trkpt>
      <trkpt lat="48.6189" lon="1.78776">
        <ele>164</ele>
        <time>2022-03-27T09:16:03Z</time>
      </trkpt>
      <trkpt lat="48.61893" lon="1.78782">
        <ele>164</ele>
        <time>2022-03-27T09:16:04Z</time>
      </trkpt>
      <trkpt lat="48.61895" lon="1.78788">
        <ele>164</ele>
        <time>2022-03-27T09:16:05Z</time>
      </trkpt>
      <trkpt lat="48.61898" lon="1.78794">
        <ele>164</ele>
        <time>2022-03-27T09:16:06Z</time>
      </trkpt>
      <trkpt lat="48.61901" lon="1.788">
        <ele>164</ele>
        <time>2022-03-27T09:16:07Z</time>
      </trkpt>
      <trkpt lat="48.61903" lon="1.78806">
        <ele>164</ele>
        <time>2022-03-27T09:16:08Z</time>
      </trkpt>
      <trkpt lat="48.61906" lon="1.78812">
        <ele>164</ele>
        <time>2022-03-27T09:16:09Z</time>
      </trkpt>
      <trkpt lat="48.61909" lon="1.78819">
        <ele>164</ele>
        <time>2022-03-27T09:16:10Z</time>
      </trkpt>
      <trkpt lat="48.61912" lon="1.78825">
        <ele>164</ele>
        <time>2022-03-27T09:16:11Z</time>
      </trkpt>
      <trkpt lat="48.61915" lon="1.78832">
        <ele>164</ele>
        <time>2022-03-27T09:16:12Z</time>
      </trkpt>
      <trkpt lat="48.61918" lon="1.78839">
        <ele>164</ele>
        <time>2022-03-27T09:16:13Z</time>
      </trkpt>
      <trkpt lat="48.6192" lon="1.78846">
        <ele>164</ele>
        <time>2022-03-27T09:16:14Z</time>
      </trkpt>
      <trkpt lat="48.61923" lon="1.78853">
        <ele>164</ele>
        <time>2022-03-27T09:16:15Z</time>
      </trkpt>
      <trkpt lat="48.61926" lon="1.78859">
        <ele>164</ele>
        <time>2022-03-27T09:16:17Z</time>
      </trkpt>
      <trkpt lat="48.61929" lon="1.78866">
        <ele>164</ele>
        <time>2022-03-27T09:16:17Z</time>
      </trkpt>
      <trkpt lat="48.61931" lon="1.78872">
        <ele>164</ele>
        <time>2022-03-27T09:16:19Z</time>
      </trkpt>
      <trkpt lat="48.61934" lon="1.78878">
        <ele>164</ele>
        <time>2022-03-27T09:16:19Z</time>
      </trkpt>
      <trkpt lat="48.61937" lon="1.78884">
        <ele>164</ele>
        <time>2022-03-27T09:16:20Z</time>
      </trkpt>
      <trkpt lat="48.61939" lon="1.7889">
        <ele>164</ele>
        <time>2022-03-27T09:16:21Z</time>
      </trkpt>
      <trkpt lat="48.61942" lon="1.78896">
        <ele>164</ele>
        <time>2022-03-27T09:16:22Z</time>
      </trkpt>
      <trkpt lat="48.61944" lon="1.78902">
        <ele>164</ele>
        <time>2022-03-27T09:16:23Z</time>
      </trkpt>
      <trkpt lat="48.61947" lon="1.78907">
        <ele>164</ele>
        <time>2022-03-27T09:16:24Z</time>
      </trkpt>
      <trkpt lat="48.61949" lon="1.78913">
        <ele>164</ele>
        <time>2022-03-27T09:16:25Z</time>
      </trkpt>
      <trkpt lat="48.61951" lon="1.78919">
        <ele>164</ele>
        <time>2022-03-27T09:16:26Z</time>
      </trkpt>
      <trkpt lat="48.61953" lon="1.78924">
        <ele>164</ele>
        <time>2022-03-27T09:16:27Z</time>
      </trkpt>
      <trkpt lat="48.61953" lon="1.7893">
        <ele>164</ele>
        <time>2022-03-27T09:16:28Z</time>
      </trkpt>
      <trkpt lat="48.61952" lon="1.78937">
        <ele>164</ele>
        <time>2022-03-27T09:16:29Z</time>
      </trkpt>
      <trkpt lat="48.61951" lon="1.78943">
        <ele>164</ele>
        <time>2022-03-27T09:16:30Z</time>
      </trkpt>
      <trkpt lat="48.61949" lon="1.7895">
        <ele>164</ele>
        <time>2022-03-27T09:16:31Z</time>
      </trkpt>
      <trkpt lat="48.61947" lon="1.78957">
        <ele>164</ele>
        <time>2022-03-27T09:16:32Z</time>
      </trkpt>
      <trkpt lat="48.61945" lon="1.78963">
        <ele>164</ele>
        <time>2022-03-27T09:16:33Z</time>
      </trkpt>
      <trkpt lat="48.61943" lon="1.7897">
        <ele>164</ele>
        <time>2022-03-27T09:16:34Z</time>
      </trkpt>
      <trkpt lat="48.61941" lon="1.78977">
        <ele>164</ele>
        <time>2022-03-27T09:16:36Z</time>
      </trkpt>
      <trkpt lat="48.61939" lon="1.78984">
        <ele>164</ele>
        <time>2022-03-27T09:16:36Z</time>
      </trkpt>
      <trkpt lat="48.61937" lon="1.78991">
        <ele>164</ele>
        <time>2022-03-27T09:16:37Z</time>
      </trkpt>
      <trkpt lat="48.61934" lon="1.78998">
        <ele>164</ele>
        <time>2022-03-27T09:16:38Z</time>
      </trkpt>
      <trkpt lat="48.61932" lon="1.79005">
        <ele>164</ele>
        <time>2022-03-27T09:16:39Z</time>
      </trkpt>
      <trkpt lat="48.6193" lon="1.79013">
        <ele>164</ele>
        <time>2022-03-27T09:16:41Z</time>
      </trkpt>
      <trkpt lat="48.61928" lon="1.7902">
        <ele>164</ele>
        <time>2022-03-27T09:16:41Z</time>
      </trkpt>
      <trkpt lat="48.61926" lon="1.79027">
        <ele>164</ele>
        <time>2022-03-27T09:16:42Z</time>
      </trkpt>
      <trkpt lat="48.61924" lon="1.79035">
        <ele>164</ele>
        <time>2022-03-27T09:16:43Z</time>
      </trkpt>
      <trkpt lat="48.61922" lon="1.79042">
        <ele>164</ele>
        <time>2022-03-27T09:16:44Z</time>
      </trkpt>
      <trkpt lat="48.6192" lon="1.7905">
        <ele>164</ele>
        <time>2022-03-27T09:16:45Z</time>
      </trkpt>
      <trkpt lat="48.61918" lon="1.79057">
        <ele>165</ele>
        <time>2022-03-27T09:16:46Z</time>
      </trkpt>
      <trkpt lat="48.61916" lon="1.79064">
        <ele>165</ele>
        <time>2022-03-27T09:16:47Z</time>
      </trkpt>
      <trkpt lat="48.61914" lon="1.79072">
        <ele>165</ele>
        <time>2022-03-27T09:16:48Z</time>
      </trkpt>
      <trkpt lat="48.61912" lon="1.79079">
        <ele>165</ele>
        <time>2022-03-27T09:16:49Z</time>
      </trkpt>
      <trkpt lat="48.6191" lon="1.79085">
        <ele>165</ele>
        <time>2022-03-27T09:16:50Z</time>
      </trkpt>
      <trkpt lat="48.61908" lon="1.79091">
        <ele>165</ele>
        <time>2022-03-27T09:16:51Z</time>
      </trkpt>
      <trkpt lat="48.61906" lon="1.79097">
        <ele>165</ele>
        <time>2022-03-27T09:16:52Z</time>
      </trkpt>
      <trkpt lat="48.61905" lon="1.79103">
        <ele>165</ele>
        <time>2022-03-27T09:16:53Z</time>
      </trkpt>
      <trkpt lat="48.61903" lon="1.7911">
        <ele>165</ele>
        <time>2022-03-27T09:16:55Z</time>
      </trkpt>
      <trkpt lat="48.61901" lon="1.79116">
        <ele>165</ele>
        <time>2022-03-27T09:16:55Z</time>
      </trkpt>
      <trkpt lat="48.61899" lon="1.79122">
        <ele>165</ele>
        <time>2022-03-27T09:16:56Z</time>
      </trkpt>
      <trkpt lat="48.61898" lon="1.79129">
        <ele>165</ele>
        <time>2022-03-27T09:16:57Z</time>
      </trkpt>
      <trkpt lat="48.61896" lon="1.79135">
        <ele>165</ele>
        <time>2022-03-27T09:16:58Z</time>
      </trkpt>
      <trkpt lat="48.61894" lon="1.79141">
        <ele>165</ele>
        <time>2022-03-27T09:16:59Z</time>
      </trkpt>
      <trkpt lat="48.61892" lon="1.79148">
        <ele>165</ele>
        <time>2022-03-27T09:17:01Z</time>
      </trkpt>
      <trkpt lat="48.6189" lon="1.79154">
        <ele>165</ele>
        <time>2022-03-27T09:17:01Z</time>
      </trkpt>
      <trkpt lat="48.61888" lon="1.79161">
        <ele>165</ele>
        <time>2022-03-27T09:17:02Z</time>
      </trkpt>
      <trkpt lat="48.61887" lon="1.79167">
        <ele>165</ele>
        <time>2022-03-27T09:17:03Z</time>
      </trkpt>
      <trkpt lat="48.61884" lon="1.79174">
        <ele>165</ele>
        <time>2022-03-27T09:17:04Z</time>
      </trkpt>
      <trkpt lat="48.61882" lon="1.79181">
        <ele>165</ele>
        <time>2022-03-27T09:17:05Z</time>
      </trkpt>
      <trkpt lat="48.61881" lon="1.79187">
        <ele>166</ele>
        <time>2022-03-27T09:17:06Z</time>
      </trkpt>
      <trkpt lat="48.61879" lon="1.79194">
        <ele>166</ele>
        <time>2022-03-27T09:17:07Z</time>
      </trkpt>
      <trkpt lat="48.61877" lon="1.792">
        <ele>166</ele>
        <time>2022-03-27T09:17:08Z</time>
      </trkpt>
      <trkpt lat="48.61875" lon="1.79206">
        <ele>166</ele>
        <time>2022-03-27T09:17:09Z</time>
      </trkpt>
      <trkpt lat="48.61873" lon="1.79213">
        <ele>166</ele>
        <time>2022-03-27T09:17:10Z</time>
      </trkpt>
      <trkpt lat="48.61872" lon="1.79219">
        <ele>166</ele>
        <time>2022-03-27T09:17:11Z</time>
      </trkpt>
      <trkpt lat="48.6187" lon="1.79226">
        <ele>166</ele>
        <time>2022-03-27T09:17:12Z</time>
      </trkpt>
      <trkpt lat="48.61868" lon="1.79232">
        <ele>165</ele>
        <time>2022-03-27T09:17:14Z</time>
      </trkpt>
      <trkpt lat="48.61866" lon="1.79239">
        <ele>165</ele>
        <time>2022-03-27T09:17:14Z</time>
      </trkpt>
      <trkpt lat="48.61864" lon="1.79246">
        <ele>165</ele>
        <time>2022-03-27T09:17:15Z</time>
      </trkpt>
      <trkpt lat="48.61862" lon="1.79253">
        <ele>165</ele>
        <time>2022-03-27T09:17:16Z</time>
      </trkpt>
      <trkpt lat="48.6186" lon="1.7926">
        <ele>165</ele>
        <time>2022-03-27T09:17:17Z</time>
      </trkpt>
      <trkpt lat="48.61858" lon="1.79267">
        <ele>165</ele>
        <time>2022-03-27T09:17:18Z</time>
      </trkpt>
      <trkpt lat="48.61856" lon="1.79273">
        <ele>165</ele>
        <time>2022-03-27T09:17:19Z</time>
      </trkpt>
      <trkpt lat="48.61855" lon="1.7928">
        <ele>165</ele>
        <time>2022-03-27T09:17:20Z</time>
      </trkpt>
      <trkpt lat="48.61853" lon="1.79287">
        <ele>165</ele>
        <time>2022-03-27T09:17:22Z</time>
      </trkpt>
      <trkpt lat="48.61851" lon="1.79293">
        <ele>165</ele>
        <time>2022-03-27T09:17:22Z</time>
      </trkpt>
      <trkpt lat="48.61849" lon="1.793">
        <ele>165</ele>
        <time>2022-03-27T09:17:23Z</time>
      </trkpt>
      <trkpt lat="48.61847" lon="1.79307">
        <ele>165</ele>
        <time>2022-03-27T09:17:24Z</time>
      </trkpt>
      <trkpt lat="48.61845" lon="1.79313">
        <ele>165</ele>
        <time>2022-03-27T09:17:25Z</time>
      </trkpt>
      <trkpt lat="48.61843" lon="1.7932">
        <ele>165</ele>
        <time>2022-03-27T09:17:26Z</time>
      </trkpt>
      <trkpt lat="48.61841" lon="1.79327">
        <ele>165</ele>
        <time>2022-03-27T09:17:27Z</time>
      </trkpt>
      <trkpt lat="48.6184" lon="1.79334">
        <ele>165</ele>
        <time>2022-03-27T09:17:28Z</time>
      </trkpt>
      <trkpt lat="48.61838" lon="1.79341">
        <ele>165</ele>
        <time>2022-03-27T09:17:29Z</time>
      </trkpt>
      <trkpt lat="48.61836" lon="1.79347">
        <ele>165</ele>
        <time>2022-03-27T09:17:30Z</time>
      </trkpt>
      <trkpt lat="48.61834" lon="1.79354">
        <ele>165</ele>
        <time>2022-03-27T09:17:31Z</time>
      </trkpt>
      <trkpt lat="48.61832" lon="1.79361">
        <ele>165</ele>
        <time>2022-03-27T09:17:33Z</time>
      </trkpt>
      <trkpt lat="48.6183" lon="1.79368">
        <ele>165</ele>
        <time>2022-03-27T09:17:33Z</time>
      </trkpt>
      <trkpt lat="48.61828" lon="1.79375">
        <ele>165</ele>
        <time>2022-03-27T09:17:34Z</time>
      </trkpt>
      <trkpt lat="48.61826" lon="1.79382">
        <ele>165</ele>
        <time>2022-03-27T09:17:35Z</time>
      </trkpt>
      <trkpt lat="48.61824" lon="1.79389">
        <ele>165</ele>
        <time>2022-03-27T09:17:36Z</time>
      </trkpt>
      <trkpt lat="48.61822" lon="1.79396">
        <ele>165</ele>
        <time>2022-03-27T09:17:37Z</time>
      </trkpt>
      <trkpt lat="48.6182" lon="1.79402">
        <ele>165</ele>
        <time>2022-03-27T09:17:38Z</time>
      </trkpt>
      <trkpt lat="48.61818" lon="1.79409">
        <ele>165</ele>
        <time>2022-03-27T09:17:39Z</time>
      </trkpt>
      <trkpt lat="48.61817" lon="1.79416">
        <ele>165</ele>
        <time>2022-03-27T09:17:40Z</time>
      </trkpt>
      <trkpt lat="48.61815" lon="1.79423">
        <ele>165</ele>
        <time>2022-03-27T09:17:42Z</time>
      </trkpt>
      <trkpt lat="48.61813" lon="1.7943">
        <ele>165</ele>
        <time>2022-03-27T09:17:42Z</time>
      </trkpt>
      <trkpt lat="48.61811" lon="1.79436">
        <ele>165</ele>
        <time>2022-03-27T09:17:43Z</time>
      </trkpt>
      <trkpt lat="48.61809" lon="1.79443">
        <ele>165</ele>
        <time>2022-03-27T09:17:44Z</time>
      </trkpt>
      <trkpt lat="48.61807" lon="1.7945">
        <ele>165</ele>
        <time>2022-03-27T09:17:45Z</time>
      </trkpt>
      <trkpt lat="48.61805" lon="1.79457">
        <ele>165</ele>
        <time>2022-03-27T09:17:46Z</time>
      </trkpt>
      <trkpt lat="48.61803" lon="1.79464">
        <ele>164</ele>
        <time>2022-03-27T09:17:47Z</time>
      </trkpt>
      <trkpt lat="48.61801" lon="1.79471">
        <ele>164</ele>
        <time>2022-03-27T09:17:48Z</time>
      </trkpt>
      <trkpt lat="48.61799" lon="1.79479">
        <ele>164</ele>
        <time>2022-03-27T09:17:49Z</time>
      </trkpt>
      <trkpt lat="48.61797" lon="1.79486">
        <ele>164</ele>
        <time>2022-03-27T09:17:50Z</time>
      </trkpt>
      <trkpt lat="48.61795" lon="1.79493">
        <ele>164</ele>
        <time>2022-03-27T09:17:52Z</time>
      </trkpt>
      <trkpt lat="48.61793" lon="1.795">
        <ele>164</ele>
        <time>2022-03-27T09:17:52Z</time>
      </trkpt>
      <trkpt lat="48.61791" lon="1.79507">
        <ele>164</ele>
        <time>2022-03-27T09:17:53Z</time>
      </trkpt>
      <trkpt lat="48.61789" lon="1.79514">
        <ele>164</ele>
        <time>2022-03-27T09:17:54Z</time>
      </trkpt>
      <trkpt lat="48.61787" lon="1.79521">
        <ele>164</ele>
        <time>2022-03-27T09:17:55Z</time>
      </trkpt>
      <trkpt lat="48.61785" lon="1.79528">
        <ele>164</ele>
        <time>2022-03-27T09:17:56Z</time>
      </trkpt>
      <trkpt lat="48.61782" lon="1.79535">
        <ele>164</ele>
        <time>2022-03-27T09:17:57Z</time>
      </trkpt>
      <trkpt lat="48.6178" lon="1.79543">
        <ele>164</ele>
        <time>2022-03-27T09:17:58Z</time>
      </trkpt>
      <trkpt lat="48.61778" lon="1.7955">
        <ele>164</ele>
        <time>2022-03-27T09:17:59Z</time>
      </trkpt>
      <trkpt lat="48.61776" lon="1.79557">
        <ele>164</ele>
        <time>2022-03-27T09:18:00Z</time>
      </trkpt>
      <trkpt lat="48.61773" lon="1.79564">
        <ele>164</ele>
        <time>2022-03-27T09:18:02Z</time>
      </trkpt>
      <trkpt lat="48.61771" lon="1.7957">
        <ele>164</ele>
        <time>2022-03-27T09:18:02Z</time>
      </trkpt>
      <trkpt lat="48.61768" lon="1.79577">
        <ele>164</ele>
        <time>2022-03-27T09:18:03Z</time>
      </trkpt>
      <trkpt lat="48.61765" lon="1.79583">
        <ele>164</ele>
        <time>2022-03-27T09:18:04Z</time>
      </trkpt>
      <trkpt lat="48.61762" lon="1.7959">
        <ele>164</ele>
        <time>2022-03-27T09:18:05Z</time>
      </trkpt>
      <trkpt lat="48.61759" lon="1.79597">
        <ele>164</ele>
        <time>2022-03-27T09:18:06Z</time>
      </trkpt>
      <trkpt lat="48.61756" lon="1.79603">
        <ele>164</ele>
        <time>2022-03-27T09:18:07Z</time>
      </trkpt>
      <trkpt lat="48.61753" lon="1.7961">
        <ele>164</ele>
        <time>2022-03-27T09:18:08Z</time>
      </trkpt>
      <trkpt lat="48.6175" lon="1.79616">
        <ele>164</ele>
        <time>2022-03-27T09:18:09Z</time>
      </trkpt>
      <trkpt lat="48.61747" lon="1.79622">
        <ele>164</ele>
        <time>2022-03-27T09:18:10Z</time>
      </trkpt>
      <trkpt lat="48.61744" lon="1.79628">
        <ele>164</ele>
        <time>2022-03-27T09:18:11Z</time>
      </trkpt>
      <trkpt lat="48.61742" lon="1.79634">
        <ele>164</ele>
        <time>2022-03-27T09:18:12Z</time>
      </trkpt>
      <trkpt lat="48.61739" lon="1.7964">
        <ele>164</ele>
        <time>2022-03-27T09:18:13Z</time>
      </trkpt>
      <trkpt lat="48.61736" lon="1.79645">
        <ele>164</ele>
        <time>2022-03-27T09:18:14Z</time>
      </trkpt>
      <trkpt lat="48.61733" lon="1.79651">
        <ele>164</ele>
        <time>2022-03-27T09:18:15Z</time>
      </trkpt>
      <trkpt lat="48.6173" lon="1.79657">
        <ele>164</ele>
        <time>2022-03-27T09:18:16Z</time>
      </trkpt>
      <trkpt lat="48.61727" lon="1.79663">
        <ele>164</ele>
        <time>2022-03-27T09:18:17Z</time>
      </trkpt>
      <trkpt lat="48.61724" lon="1.79668">
        <ele>164</ele>
        <time>2022-03-27T09:18:18Z</time>
      </trkpt>
      <trkpt lat="48.61721" lon="1.79674">
        <ele>164</ele>
        <time>2022-03-27T09:18:19Z</time>
      </trkpt>
      <trkpt lat="48.61718" lon="1.79679">
        <ele>164</ele>
        <time>2022-03-27T09:18:20Z</time>
      </trkpt>
      <trkpt lat="48.61714" lon="1.79684">
        <ele>164</ele>
        <time>2022-03-27T09:18:21Z</time>
      </trkpt>
      <trkpt lat="48.6171" lon="1.79689">
        <ele>164</ele>
        <time>2022-03-27T09:18:22Z</time>
      </trkpt>
      <trkpt lat="48.61706" lon="1.79693">
        <ele>164</ele>
        <time>2022-03-27T09:18:23Z</time>
      </trkpt>
      <trkpt lat="48.61702" lon="1.79697">
        <ele>164</ele>
        <time>2022-03-27T09:18:24Z</time>
      </trkpt>
      <trkpt lat="48.61698" lon="1.79701">
        <ele>164</ele>
        <time>2022-03-27T09:18:25Z</time>
      </trkpt>
      <trkpt lat="48.61693" lon="1.79705">
        <ele>164</ele>
        <time>2022-03-27T09:18:26Z</time>
      </trkpt>
      <trkpt lat="48.61689" lon="1.79708">
        <ele>164</ele>
        <time>2022-03-27T09:18:27Z</time>
      </trkpt>
      <trkpt lat="48.61684" lon="1.79712">
        <ele>164</ele>
        <time>2022-03-27T09:18:28Z</time>
      </trkpt>
      <trkpt lat="48.6168" lon="1.79715">
        <ele>164</ele>
        <time>2022-03-27T09:18:30Z</time>
      </trkpt>
      <trkpt lat="48.61675" lon="1.79719">
        <ele>164</ele>
        <time>2022-03-27T09:18:30Z</time>
      </trkpt>
      <trkpt lat="48.61671" lon="1.79723">
        <ele>164</ele>
        <time>2022-03-27T09:18:32Z</time>
      </trkpt>
      <trkpt lat="48.61666" lon="1.79726">
        <ele>164</ele>
        <time>2022-03-27T09:18:32Z</time>
      </trkpt>
      <trkpt lat="48.61662" lon="1.79729">
        <ele>164</ele>
        <time>2022-03-27T09:18:33Z</time>
      </trkpt>
      <trkpt lat="48.61658" lon="1.79733">
        <ele>164</ele>
        <time>2022-03-27T09:18:34Z</time>
      </trkpt>
      <trkpt lat="48.61653" lon="1.79736">
        <ele>164</ele>
        <time>2022-03-27T09:18:35Z</time>
      </trkpt>
      <trkpt lat="48.61649" lon="1.79739">
        <ele>164</ele>
        <time>2022-03-27T09:18:36Z</time>
      </trkpt>
      <trkpt lat="48.61645" lon="1.79742">
        <ele>164</ele>
        <time>2022-03-27T09:18:37Z</time>
      </trkpt>
      <trkpt lat="48.61641" lon="1.79745">
        <ele>164</ele>
        <time>2022-03-27T09:18:38Z</time>
      </trkpt>
      <trkpt lat="48.61637" lon="1.79748">
        <ele>164</ele>
        <time>2022-03-27T09:18:39Z</time>
      </trkpt>
      <trkpt lat="48.61633" lon="1.79751">
        <ele>164</ele>
        <time>2022-03-27T09:18:40Z</time>
      </trkpt>
      <trkpt lat="48.61629" lon="1.79754">
        <ele>164</ele>
        <time>2022-03-27T09:18:41Z</time>
      </trkpt>
      <trkpt lat="48.61624" lon="1.79757">
        <ele>164</ele>
        <time>2022-03-27T09:18:42Z</time>
      </trkpt>
      <trkpt lat="48.6162" lon="1.79761">
        <ele>164</ele>
        <time>2022-03-27T09:18:43Z</time>
      </trkpt>
      <trkpt lat="48.61616" lon="1.79765">
        <ele>164</ele>
        <time>2022-03-27T09:18:44Z</time>
      </trkpt>
      <trkpt lat="48.61611" lon="1.79768">
        <ele>164</ele>
        <time>2022-03-27T09:18:45Z</time>
      </trkpt>
      <trkpt lat="48.61607" lon="1.79771">
        <ele>165</ele>
        <time>2022-03-27T09:18:46Z</time>
      </trkpt>
      <trkpt lat="48.61603" lon="1.79774">
        <ele>165</ele>
        <time>2022-03-27T09:18:47Z</time>
      </trkpt>
      <trkpt lat="48.61598" lon="1.79776">
        <ele>165</ele>
        <time>2022-03-27T09:18:49Z</time>
      </trkpt>
      <trkpt lat="48.61594" lon="1.79778">
        <ele>165</ele>
        <time>2022-03-27T09:18:49Z</time>
      </trkpt>
      <trkpt lat="48.6159" lon="1.79781">
        <ele>165</ele>
        <time>2022-03-27T09:18:50Z</time>
      </trkpt>
      <trkpt lat="48.61586" lon="1.79784">
        <ele>165</ele>
        <time>2022-03-27T09:18:51Z</time>
      </trkpt>
      <trkpt lat="48.61581" lon="1.79788">
        <ele>165</ele>
        <time>2022-03-27T09:18:53Z</time>
      </trkpt>
      <trkpt lat="48.61577" lon="1.79791">
        <ele>165</ele>
        <time>2022-03-27T09:18:53Z</time>
      </trkpt>
      <trkpt lat="48.61572" lon="1.79795">
        <ele>165</ele>
        <time>2022-03-27T09:18:54Z</time>
      </trkpt>
      <trkpt lat="48.61568" lon="1.798">
        <ele>165</ele>
        <time>2022-03-27T09:18:55Z</time>
      </trkpt>
      <trkpt lat="48.61563" lon="1.79805">
        <ele>165</ele>
        <time>2022-03-27T09:18:56Z</time>
      </trkpt>
      <trkpt lat="48.61559" lon="1.79811">
        <ele>165</ele>
        <time>2022-03-27T09:18:57Z</time>
      </trkpt>
      <trkpt lat="48.61555" lon="1.79816">
        <ele>165</ele>
        <time>2022-03-27T09:18:58Z</time>
      </trkpt>
      <trkpt lat="48.61551" lon="1.79823">
        <ele>165</ele>
        <time>2022-03-27T09:18:59Z</time>
      </trkpt>
      <trkpt lat="48.61547" lon="1.79829">
        <ele>165</ele>
        <time>2022-03-27T09:19:00Z</time>
      </trkpt>
      <trkpt lat="48.61543" lon="1.79835">
        <ele>164</ele>
        <time>2022-03-27T09:19:01Z</time>
      </trkpt>
      <trkpt lat="48.6154" lon="1.7984">
        <ele>164</ele>
        <time>2022-03-27T09:19:02Z</time>
      </trkpt>
      <trkpt lat="48.61536" lon="1.79846">
        <ele>164</ele>
        <time>2022-03-27T09:19:03Z</time>
      </trkpt>
      <trkpt lat="48.61532" lon="1.79852">
        <ele>164</ele>
        <time>2022-03-27T09:19:04Z</time>
      </trkpt>
      <trkpt lat="48.61529" lon="1.79857">
        <ele>164</ele>
        <time>2022-03-27T09:19:05Z</time>
      </trkpt>
      <trkpt lat="48.61525" lon="1.79862">
        <ele>164</ele>
        <time>2022-03-27T09:19:06Z</time>
      </trkpt>
      <trkpt lat="48.61522" lon="1.79867">
        <ele>164</ele>
        <time>2022-03-27T09:19:08Z</time>
      </trkpt>
      <trkpt lat="48.61518" lon="1.79872">
        <ele>164</ele>
        <time>2022-03-27T09:19:08Z</time>
      </trkpt>
      <trkpt lat="48.61514" lon="1.79878">
        <ele>164</ele>
        <time>2022-03-27T09:19:09Z</time>
      </trkpt>
      <trkpt lat="48.6151" lon="1.79883">
        <ele>164</ele>
        <time>2022-03-27T09:19:10Z</time>
      </trkpt>
      <trkpt lat="48.61507" lon="1.79888">
        <ele>164</ele>
        <time>2022-03-27T09:19:12Z</time>
      </trkpt>
      <trkpt lat="48.61503" lon="1.79893">
        <ele>164</ele>
        <time>2022-03-27T09:19:12Z</time>
      </trkpt>
      <trkpt lat="48.61499" lon="1.79899">
        <ele>164</ele>
        <time>2022-03-27T09:19:13Z</time>
      </trkpt>
      <trkpt lat="48.61495" lon="1.79904">
        <ele>164</ele>
        <time>2022-03-27T09:19:14Z</time>
      </trkpt>
      <trkpt lat="48.61491" lon="1.7991">
        <ele>164</ele>
        <time>2022-03-27T09:19:15Z</time>
      </trkpt>
      <trkpt lat="48.61488" lon="1.79915">
        <ele>164</ele>
        <time>2022-03-27T09:19:16Z</time>
      </trkpt>
      <trkpt lat="48.61484" lon="1.7992">
        <ele>164</ele>
        <time>2022-03-27T09:19:17Z</time>
      </trkpt>
      <trkpt lat="48.6148" lon="1.79925">
        <ele>164</ele>
        <time>2022-03-27T09:19:18Z</time>
      </trkpt>
      <trkpt lat="48.61476" lon="1.7993">
        <ele>164</ele>
        <time>2022-03-27T09:19:19Z</time>
      </trkpt>
      <trkpt lat="48.61473" lon="1.79935">
        <ele>164</ele>
        <time>2022-03-27T09:19:20Z</time>
      </trkpt>
      <trkpt lat="48.61469" lon="1.7994">
        <ele>164</ele>
        <time>2022-03-27T09:19:21Z</time>
      </trkpt>
      <trkpt lat="48.61465" lon="1.79945">
        <ele>164</ele>
        <time>2022-03-27T09:19:22Z</time>
      </trkpt>
      <trkpt lat="48.61461" lon="1.79951">
        <ele>164</ele>
        <time>2022-03-27T09:19:23Z</time>
      </trkpt>
      <trkpt lat="48.61458" lon="1.79957">
        <ele>164</ele>
        <time>2022-03-27T09:19:24Z</time>
      </trkpt>
      <trkpt lat="48.61454" lon="1.79962">
        <ele>164</ele>
        <time>2022-03-27T09:19:25Z</time>
      </trkpt>
      <trkpt lat="48.6145" lon="1.79967">
        <ele>164</ele>
        <time>2022-03-27T09:19:27Z</time>
      </trkpt>
      <trkpt lat="48.61447" lon="1.79972">
        <ele>164</ele>
        <time>2022-03-27T09:19:27Z</time>
      </trkpt>
      <trkpt lat="48.61443" lon="1.79977">
        <ele>164</ele>
        <time>2022-03-27T09:19:28Z</time>
      </trkpt>
      <trkpt lat="48.61439" lon="1.79983">
        <ele>164</ele>
        <time>2022-03-27T09:19:29Z</time>
      </trkpt>
      <trkpt lat="48.61435" lon="1.79988">
        <ele>164</ele>
        <time>2022-03-27T09:19:30Z</time>
      </trkpt>
      <trkpt lat="48.61431" lon="1.79993">
        <ele>164</ele>
        <time>2022-03-27T09:19:32Z</time>
      </trkpt>
      <trkpt lat="48.61428" lon="1.79999">
        <ele>164</ele>
        <time>2022-03-27T09:19:32Z</time>
      </trkpt>
      <trkpt lat="48.61424" lon="1.80004">
        <ele>164</ele>
        <time>2022-03-27T09:19:33Z</time>
      </trkpt>
      <trkpt lat="48.6142" lon="1.8001">
        <ele>164</ele>
        <time>2022-03-27T09:19:34Z</time>
      </trkpt>
      <trkpt lat="48.61416" lon="1.80015">
        <ele>164</ele>
        <time>2022-03-27T09:19:35Z</time>
      </trkpt>
      <trkpt lat="48.61412" lon="1.8002">
        <ele>163</ele>
        <time>2022-03-27T09:19:36Z</time>
      </trkpt>
      <trkpt lat="48.61409" lon="1.80025">
        <ele>163</ele>
        <time>2022-03-27T09:19:37Z</time>
      </trkpt>
      <trkpt lat="48.61405" lon="1.80031">
        <ele>163</ele>
        <time>2022-03-27T09:19:38Z</time>
      </trkpt>
      <trkpt lat="48.61401" lon="1.80036">
        <ele>163</ele>
        <time>2022-03-27T09:19:39Z</time>
      </trkpt>
      <trkpt lat="48.61398" lon="1.80041">
        <ele>163</ele>
        <time>2022-03-27T09:19:40Z</time>
      </trkpt>
      <trkpt lat="48.61394" lon="1.80046">
        <ele>163</ele>
        <time>2022-03-27T09:19:41Z</time>
      </trkpt>
      <trkpt lat="48.6139" lon="1.80052">
        <ele>163</ele>
        <time>2022-03-27T09:19:42Z</time>
      </trkpt>
      <trkpt lat="48.61386" lon="1.80057">
        <ele>163</ele>
        <time>2022-03-27T09:19:43Z</time>
      </trkpt>
      <trkpt lat="48.61383" lon="1.80063">
        <ele>163</ele>
        <time>2022-03-27T09:19:44Z</time>
      </trkpt>
      <trkpt lat="48.61379" lon="1.80069">
        <ele>163</ele>
        <time>2022-03-27T09:19:46Z</time>
      </trkpt>
      <trkpt lat="48.61375" lon="1.80075">
        <ele>163</ele>
        <time>2022-03-27T09:19:46Z</time>
      </trkpt>
      <trkpt lat="48.61371" lon="1.80081">
        <ele>163</ele>
        <time>2022-03-27T09:19:47Z</time>
      </trkpt>
      <trkpt lat="48.61367" lon="1.80087">
        <ele>163</ele>
        <time>2022-03-27T09:19:48Z</time>
      </trkpt>
      <trkpt lat="48.61363" lon="1.80093">
        <ele>163</ele>
        <time>2022-03-27T09:19:49Z</time>
      </trkpt>
      <trkpt lat="48.61358" lon="1.80099">
        <ele>163</ele>
        <time>2022-03-27T09:19:51Z</time>
      </trkpt>
      <trkpt lat="48.61354" lon="1.80104">
        <ele>163</ele>
        <time>2022-03-27T09:19:51Z</time>
      </trkpt>
      <trkpt lat="48.6135" lon="1.80108">
        <ele>163</ele>
        <time>2022-03-27T09:19:52Z</time>
      </trkpt>
      <trkpt lat="48.61346" lon="1.80113">
        <ele>163</ele>
        <time>2022-03-27T09:19:53Z</time>
      </trkpt>
      <trkpt lat="48.61342" lon="1.80118">
        <ele>163</ele>
        <time>2022-03-27T09:19:54Z</time>
      </trkpt>
      <trkpt lat="48.61338" lon="1.80122">
        <ele>162</ele>
        <time>2022-03-27T09:19:55Z</time>
      </trkpt>
      <trkpt lat="48.61334" lon="1.80127">
        <ele>162</ele>
        <time>2022-03-27T09:19:56Z</time>
      </trkpt>
      <trkpt lat="48.61331" lon="1.80131">
        <ele>162</ele>
        <time>2022-03-27T09:19:57Z</time>
      </trkpt>
      <trkpt lat="48.61327" lon="1.80136">
        <ele>162</ele>
        <time>2022-03-27T09:19:58Z</time>
      </trkpt>
      <trkpt lat="48.61324" lon="1.8014">
        <ele>162</ele>
        <time>2022-03-27T09:19:59Z</time>
      </trkpt>
      <trkpt lat="48.61321" lon="1.80144">
        <ele>162</ele>
        <time>2022-03-27T09:20:01Z</time>
      </trkpt>
      <trkpt lat="48.61317" lon="1.80148">
        <ele>162</ele>
        <time>2022-03-27T09:20:01Z</time>
      </trkpt>
      <trkpt lat="48.61314" lon="1.80151">
        <ele>162</ele>
        <time>2022-03-27T09:20:02Z</time>
      </trkpt>
      <trkpt lat="48.61311" lon="1.80155">
        <ele>162</ele>
        <time>2022-03-27T09:20:03Z</time>
      </trkpt>
      <trkpt lat="48.61308" lon="1.80158">
        <ele>162</ele>
        <time>2022-03-27T09:20:04Z</time>
      </trkpt>
      <trkpt lat="48.61305" lon="1.80161">
        <ele>162</ele>
        <time>2022-03-27T09:20:05Z</time>
      </trkpt>
      <trkpt lat="48.61302" lon="1.80165">
        <ele>162</ele>
        <time>2022-03-27T09:20:06Z</time>
      </trkpt>
      <trkpt lat="48.613" lon="1.80168">
        <ele>162</ele>
        <time>2022-03-27T09:20:07Z</time>
      </trkpt>
      <trkpt lat="48.61297" lon="1.80171">
        <ele>162</ele>
        <time>2022-03-27T09:20:08Z</time>
      </trkpt>
      <trkpt lat="48.61294" lon="1.80174">
        <ele>162</ele>
        <time>2022-03-27T09:20:09Z</time>
      </trkpt>
      <trkpt lat="48.61291" lon="1.80177">
        <ele>162</ele>
        <time>2022-03-27T09:20:10Z</time>
      </trkpt>
      <trkpt lat="48.61289" lon="1.8018">
        <ele>161</ele>
        <time>2022-03-27T09:20:11Z</time>
      </trkpt>
      <trkpt lat="48.61286" lon="1.80184">
        <ele>161</ele>
        <time>2022-03-27T09:20:12Z</time>
      </trkpt>
      <trkpt lat="48.61283" lon="1.80188">
        <ele>161</ele>
        <time>2022-03-27T09:20:13Z</time>
      </trkpt>
      <trkpt lat="48.6128" lon="1.80191">
        <ele>161</ele>
        <time>2022-03-27T09:20:14Z</time>
      </trkpt>
      <trkpt lat="48.61277" lon="1.80195">
        <ele>161</ele>
        <time>2022-03-27T09:20:15Z</time>
      </trkpt>
      <trkpt lat="48.61274" lon="1.80198">
        <ele>161</ele>
        <time>2022-03-27T09:20:16Z</time>
      </trkpt>
      <trkpt lat="48.61271" lon="1.80201">
        <ele>161</ele>
        <time>2022-03-27T09:20:17Z</time>
      </trkpt>
      <trkpt lat="48.61269" lon="1.80205">
        <ele>161</ele>
        <time>2022-03-27T09:20:18Z</time>
      </trkpt>
      <trkpt lat="48.61266" lon="1.80208">
        <ele>161</ele>
        <time>2022-03-27T09:20:19Z</time>
      </trkpt>
      <trkpt lat="48.61263" lon="1.80211">
        <ele>161</ele>
        <time>2022-03-27T09:20:20Z</time>
      </trkpt>
      <trkpt lat="48.6126" lon="1.80215">
        <ele>161</ele>
        <time>2022-03-27T09:20:21Z</time>
      </trkpt>
      <trkpt lat="48.61257" lon="1.80218">
        <ele>161</ele>
        <time>2022-03-27T09:20:22Z</time>
      </trkpt>
      <trkpt lat="48.61255" lon="1.80222">
        <ele>161</ele>
        <time>2022-03-27T09:20:24Z</time>
      </trkpt>
      <trkpt lat="48.61252" lon="1.80225">
        <ele>161</ele>
        <time>2022-03-27T09:20:24Z</time>
      </trkpt>
      <trkpt lat="48.61249" lon="1.80228">
        <ele>161</ele>
        <time>2022-03-27T09:20:25Z</time>
      </trkpt>
      <trkpt lat="48.61247" lon="1.80231">
        <ele>160</ele>
        <time>2022-03-27T09:20:26Z</time>
      </trkpt>
      <trkpt lat="48.61244" lon="1.80234">
        <ele>160</ele>
        <time>2022-03-27T09:20:28Z</time>
      </trkpt>
      <trkpt lat="48.61241" lon="1.80237">
        <ele>160</ele>
        <time>2022-03-27T09:20:28Z</time>
      </trkpt>
      <trkpt lat="48.61239" lon="1.8024">
        <ele>160</ele>
        <time>2022-03-27T09:20:29Z</time>
      </trkpt>
      <trkpt lat="48.61236" lon="1.80243">
        <ele>160</ele>
        <time>2022-03-27T09:20:30Z</time>
      </trkpt>
      <trkpt lat="48.61233" lon="1.80246">
        <ele>160</ele>
        <time>2022-03-27T09:20:31Z</time>
      </trkpt>
      <trkpt lat="48.61231" lon="1.80249">
        <ele>160</ele>
        <time>2022-03-27T09:20:32Z</time>
      </trkpt>
      <trkpt lat="48.61228" lon="1.80252">
        <ele>160</ele>
        <time>2022-03-27T09:20:33Z</time>
      </trkpt>
      <trkpt lat="48.61226" lon="1.80254">
        <ele>160</ele>
        <time>2022-03-27T09:20:34Z</time>
      </trkpt>
      <trkpt lat="48.61223" lon="1.80257">
        <ele>160</ele>
        <time>2022-03-27T09:20:35Z</time>
      </trkpt>
      <trkpt lat="48.61221" lon="1.8026">
        <ele>160</ele>
        <time>2022-03-27T09:20:36Z</time>
      </trkpt>
      <trkpt lat="48.61218" lon="1.80263">
        <ele>160</ele>
        <time>2022-03-27T09:20:37Z</time>
      </trkpt>
      <trkpt lat="48.61216" lon="1.80266">
        <ele>159</ele>
        <time>2022-03-27T09:20:38Z</time>
      </trkpt>
      <trkpt lat="48.61214" lon="1.80269">
        <ele>159</ele>
        <time>2022-03-27T09:20:39Z</time>
      </trkpt>
      <trkpt lat="48.61211" lon="1.80272">
        <ele>159</ele>
        <time>2022-03-27T09:20:40Z</time>
      </trkpt>
      <trkpt lat="48.61209" lon="1.80275">
        <ele>159</ele>
        <time>2022-03-27T09:20:41Z</time>
      </trkpt>
      <trkpt lat="48.61206" lon="1.80278">
        <ele>159</ele>
        <time>2022-03-27T09:20:42Z</time>
      </trkpt>
      <trkpt lat="48.61204" lon="1.80281">
        <ele>159</ele>
        <time>2022-03-27T09:20:43Z</time>
      </trkpt>
      <trkpt lat="48.61202" lon="1.80283">
        <ele>159</ele>
        <time>2022-03-27T09:20:44Z</time>
      </trkpt>
      <trkpt lat="48.612" lon="1.80285">
        <ele>159</ele>
        <time>2022-03-27T09:20:45Z</time>
      </trkpt>
      <trkpt lat="48.61198" lon="1.80287">
        <ele>159</ele>
        <time>2022-03-27T09:20:46Z</time>
      </trkpt>
      <trkpt lat="48.61196" lon="1.80289">
        <ele>159</ele>
        <time>2022-03-27T09:20:47Z</time>
      </trkpt>
      <trkpt lat="48.61194" lon="1.80291">
        <ele>159</ele>
        <time>2022-03-27T09:20:48Z</time>
      </trkpt>
      <trkpt lat="48.61192" lon="1.80293">
        <ele>159</ele>
        <time>2022-03-27T09:20:50Z</time>
      </trkpt>
      <trkpt lat="48.6119" lon="1.80296">
        <ele>159</ele>
        <time>2022-03-27T09:20:52Z</time>
      </trkpt>
      <trkpt lat="48.61188" lon="1.80299">
        <ele>159</ele>
        <time>2022-03-27T09:20:54Z</time>
      </trkpt>
      <trkpt lat="48.61185" lon="1.80301">
        <ele>159</ele>
        <time>2022-03-27T09:20:56Z</time>
      </trkpt>
      <trkpt lat="48.61183" lon="1.80304">
        <ele>159</ele>
        <time>2022-03-27T09:20:58Z</time>
      </trkpt>
      <trkpt lat="48.6118" lon="1.80307">
        <ele>159</ele>
        <time>2022-03-27T09:21:00Z</time>
      </trkpt>
      <trkpt lat="48.61178" lon="1.80308">
        <ele>159</ele>
        <time>2022-03-27T09:21:01Z</time>
      </trkpt>
      <trkpt lat="48.61176" lon="1.80311">
        <ele>159</ele>
        <time>2022-03-27T09:21:03Z</time>
      </trkpt>
      <trkpt lat="48.61173" lon="1.80313">
        <ele>159</ele>
        <time>2022-03-27T09:21:05Z</time>
      </trkpt>
      <trkpt lat="48.61171" lon="1.80316">
        <ele>159</ele>
        <time>2022-03-27T09:21:07Z</time>
      </trkpt>
      <trkpt lat="48.61169" lon="1.80319">
        <ele>159</ele>
        <time>2022-03-27T09:21:09Z</time>
      </trkpt>
      <trkpt lat="48.61167" lon="1.80322">
        <ele>159</ele>
        <time>2022-03-27T09:21:11Z</time>
      </trkpt>
      <trkpt lat="48.61165" lon="1.80326">
        <ele>159</ele>
        <time>2022-03-27T09:21:13Z</time>
      </trkpt>
      <trkpt lat="48.61163" lon="1.80329">
        <ele>159</ele>
        <time>2022-03-27T09:21:15Z</time>
      </trkpt>
      <trkpt lat="48.6116" lon="1.80332">
        <ele>159</ele>
        <time>2022-03-27T09:21:17Z</time>
      </trkpt>
      <trkpt lat="48.61158" lon="1.80335">
        <ele>159</ele>
        <time>2022-03-27T09:21:19Z</time>
      </trkpt>
      <trkpt lat="48.61155" lon="1.80337">
        <ele>159</ele>
        <time>2022-03-27T09:21:21Z</time>
      </trkpt>
      <trkpt lat="48.61153" lon="1.8034">
        <ele>159</ele>
        <time>2022-03-27T09:21:23Z</time>
      </trkpt>
      <trkpt lat="48.6115" lon="1.80343">
        <ele>159</ele>
        <time>2022-03-27T09:21:25Z</time>
      </trkpt>
      <trkpt lat="48.61147" lon="1.80346">
        <ele>159</ele>
        <time>2022-03-27T09:21:27Z</time>
      </trkpt>
      <trkpt lat="48.61145" lon="1.80349">
        <ele>159</ele>
        <time>2022-03-27T09:21:29Z</time>
      </trkpt>
      <trkpt lat="48.61142" lon="1.80352">
        <ele>159</ele>
        <time>2022-03-27T09:21:31Z</time>
      </trkpt>
      <trkpt lat="48.6114" lon="1.80355">
        <ele>158</ele>
        <time>2022-03-27T09:21:33Z</time>
      </trkpt>
      <trkpt lat="48.61137" lon="1.80359">
        <ele>158</ele>
        <time>2022-03-27T09:21:35Z</time>
      </trkpt>
      <trkpt lat="48.61134" lon="1.80362">
        <ele>158</ele>
        <time>2022-03-27T09:21:37Z</time>
      </trkpt>
      <trkpt lat="48.61131" lon="1.80365">
        <ele>158</ele>
        <time>2022-03-27T09:21:40Z</time>
      </trkpt>
      <trkpt lat="48.61129" lon="1.80368">
        <ele>158</ele>
        <time>2022-03-27T09:21:41Z</time>
      </trkpt>
      <trkpt lat="48.61126" lon="1.8037">
        <ele>158</ele>
        <time>2022-03-27T09:21:43Z</time>
      </trkpt>
      <trkpt lat="48.61124" lon="1.80373">
        <ele>158</ele>
        <time>2022-03-27T09:21:45Z</time>
      </trkpt>
      <trkpt lat="48.61122" lon="1.80376">
        <ele>158</ele>
        <time>2022-03-27T09:21:47Z</time>
      </trkpt>
      <trkpt lat="48.61119" lon="1.80379">
        <ele>158</ele>
        <time>2022-03-27T09:21:49Z</time>
      </trkpt>
      <trkpt lat="48.61117" lon="1.80382">
        <ele>158</ele>
        <time>2022-03-27T09:21:51Z</time>
      </trkpt>
      <trkpt lat="48.61114" lon="1.80385">
        <ele>158</ele>
        <time>2022-03-27T09:21:53Z</time>
      </trkpt>
      <trkpt lat="48.61112" lon="1.80389">
        <ele>158</ele>
        <time>2022-03-27T09:21:55Z</time>
      </trkpt>
      <trkpt lat="48.6111" lon="1.80391">
        <ele>158</ele>
        <time>2022-03-27T09:21:56Z</time>
      </trkpt>
      <trkpt lat="48.61108" lon="1.80394">
        <ele>158</ele>
        <time>2022-03-27T09:21:59Z</time>
      </trkpt>
      <trkpt lat="48.61105" lon="1.80397">
        <ele>157</ele>
        <time>2022-03-27T09:22:00Z</time>
      </trkpt>
      <trkpt lat="48.61102" lon="1.80399">
        <ele>157</ele>
        <time>2022-03-27T09:22:02Z</time>
      </trkpt>
      <trkpt lat="48.611" lon="1.80403">
        <ele>157</ele>
        <time>2022-03-27T09:22:04Z</time>
      </trkpt>
      <trkpt lat="48.61097" lon="1.80406">
        <ele>157</ele>
        <time>2022-03-27T09:22:06Z</time>
      </trkpt>
      <trkpt lat="48.61094" lon="1.80409">
        <ele>157</ele>
        <time>2022-03-27T09:22:08Z</time>
      </trkpt>
      <trkpt lat="48.61093" lon="1.80411">
        <ele>157</ele>
        <time>2022-03-27T09:22:09Z</time>
      </trkpt>
      <trkpt lat="48.6109" lon="1.80414">
        <ele>157</ele>
        <time>2022-03-27T09:22:11Z</time>
      </trkpt>
      <trkpt lat="48.61089" lon="1.80416">
        <ele>157</ele>
        <time>2022-03-27T09:22:13Z</time>
      </trkpt>
      <trkpt lat="48.61087" lon="1.80418">
        <ele>157</ele>
        <time>2022-03-27T09:22:13Z</time>
      </trkpt>
      <trkpt lat="48.61086" lon="1.80419">
        <ele>157</ele>
        <time>2022-03-27T09:22:14Z</time>
      </trkpt>
      <trkpt lat="48.61083" lon="1.80422">
        <ele>157</ele>
        <time>2022-03-27T09:22:16Z</time>
      </trkpt>
      <trkpt lat="48.6108" lon="1.80425">
        <ele>157</ele>
        <time>2022-03-27T09:22:18Z</time>
      </trkpt>
      <trkpt lat="48.61079" lon="1.80427">
        <ele>157</ele>
        <time>2022-03-27T09:22:19Z</time>
      </trkpt>
      <trkpt lat="48.61076" lon="1.80431">
        <ele>156</ele>
        <time>2022-03-27T09:22:21Z</time>
      </trkpt>
      <trkpt lat="48.61073" lon="1.80434">
        <ele>156</ele>
        <time>2022-03-27T09:22:23Z</time>
      </trkpt>
      <trkpt lat="48.6107" lon="1.80437">
        <ele>156</ele>
        <time>2022-03-27T09:22:25Z</time>
      </trkpt>
      <trkpt lat="48.61069" lon="1.80438">
        <ele>156</ele>
        <time>2022-03-27T09:22:26Z</time>
      </trkpt>
      <trkpt lat="48.61067" lon="1.80439">
        <ele>156</ele>
        <time>2022-03-27T09:22:27Z</time>
      </trkpt>
      <trkpt lat="48.61065" lon="1.80441">
        <ele>156</ele>
        <time>2022-03-27T09:22:28Z</time>
      </trkpt>
      <trkpt lat="48.61062" lon="1.80443">
        <ele>156</ele>
        <time>2022-03-27T09:22:30Z</time>
      </trkpt>
      <trkpt lat="48.6106" lon="1.80446">
        <ele>156</ele>
        <time>2022-03-27T09:22:32Z</time>
      </trkpt>
      <trkpt lat="48.61057" lon="1.80449">
        <ele>156</ele>
        <time>2022-03-27T09:22:34Z</time>
      </trkpt>
      <trkpt lat="48.61055" lon="1.80452">
        <ele>156</ele>
        <time>2022-03-27T09:22:37Z</time>
      </trkpt>
      <trkpt lat="48.61052" lon="1.80455">
        <ele>156</ele>
        <time>2022-03-27T09:22:38Z</time>
      </trkpt>
      <trkpt lat="48.6105" lon="1.80459">
        <ele>156</ele>
        <time>2022-03-27T09:22:40Z</time>
      </trkpt>
      <trkpt lat="48.61048" lon="1.80461">
        <ele>156</ele>
        <time>2022-03-27T09:22:41Z</time>
      </trkpt>
      <trkpt lat="48.61046" lon="1.80462">
        <ele>156</ele>
        <time>2022-03-27T09:22:42Z</time>
      </trkpt>
      <trkpt lat="48.61045" lon="1.80464">
        <ele>156</ele>
        <time>2022-03-27T09:22:43Z</time>
      </trkpt>
      <trkpt lat="48.61042" lon="1.80467">
        <ele>156</ele>
        <time>2022-03-27T09:22:45Z</time>
      </trkpt>
      <trkpt lat="48.61041" lon="1.80469">
        <ele>156</ele>
        <time>2022-03-27T09:22:46Z</time>
      </trkpt>
      <trkpt lat="48.61038" lon="1.80472">
        <ele>156</ele>
        <time>2022-03-27T09:22:48Z</time>
      </trkpt>
      <trkpt lat="48.61036" lon="1.80474">
        <ele>156</ele>
        <time>2022-03-27T09:22:49Z</time>
      </trkpt>
      <trkpt lat="48.61034" lon="1.80477">
        <ele>155</ele>
        <time>2022-03-27T09:22:51Z</time>
      </trkpt>
      <trkpt lat="48.61031" lon="1.80481">
        <ele>155</ele>
        <time>2022-03-27T09:22:53Z</time>
      </trkpt>
      <trkpt lat="48.6103" lon="1.80482">
        <ele>155</ele>
        <time>2022-03-27T09:22:54Z</time>
      </trkpt>
      <trkpt lat="48.61028" lon="1.80484">
        <ele>155</ele>
        <time>2022-03-27T09:22:56Z</time>
      </trkpt>
      <trkpt lat="48.61027" lon="1.80486">
        <ele>155</ele>
        <time>2022-03-27T09:22:56Z</time>
      </trkpt>
      <trkpt lat="48.61024" lon="1.8049">
        <ele>155</ele>
        <time>2022-03-27T09:22:58Z</time>
      </trkpt>
      <trkpt lat="48.61023" lon="1.80492">
        <ele>155</ele>
        <time>2022-03-27T09:22:59Z</time>
      </trkpt>
      <trkpt lat="48.6102" lon="1.80495">
        <ele>154</ele>
        <time>2022-03-27T09:23:01Z</time>
      </trkpt>
      <trkpt lat="48.61019" lon="1.80496">
        <ele>154</ele>
        <time>2022-03-27T09:23:02Z</time>
      </trkpt>
      <trkpt lat="48.61016" lon="1.805">
        <ele>154</ele>
        <time>2022-03-27T09:23:04Z</time>
      </trkpt>
      <trkpt lat="48.61015" lon="1.80502">
        <ele>154</ele>
        <time>2022-03-27T09:23:05Z</time>
      </trkpt>
      <trkpt lat="48.61013" lon="1.80503">
        <ele>154</ele>
        <time>2022-03-27T09:23:06Z</time>
      </trkpt>
      <trkpt lat="48.6101" lon="1.80506">
        <ele>154</ele>
        <time>2022-03-27T09:23:08Z</time>
      </trkpt>
      <trkpt lat="48.61009" lon="1.80508">
        <ele>154</ele>
        <time>2022-03-27T09:23:09Z</time>
      </trkpt>
      <trkpt lat="48.61008" lon="1.8051">
        <ele>154</ele>
        <time>2022-03-27T09:23:10Z</time>
      </trkpt>
      <trkpt lat="48.61005" lon="1.80513">
        <ele>153</ele>
        <time>2022-03-27T09:23:12Z</time>
      </trkpt>
      <trkpt lat="48.61002" lon="1.80516">
        <ele>153</ele>
        <time>2022-03-27T09:23:15Z</time>
      </trkpt>
      <trkpt lat="48.61" lon="1.80519">
        <ele>153</ele>
        <time>2022-03-27T09:23:16Z</time>
      </trkpt>
      <trkpt lat="48.60997" lon="1.80522">
        <ele>153</ele>
        <time>2022-03-27T09:23:18Z</time>
      </trkpt>
      <trkpt lat="48.60994" lon="1.80525">
        <ele>153</ele>
        <time>2022-03-27T09:23:20Z</time>
      </trkpt>
      <trkpt lat="48.60991" lon="1.80529">
        <ele>152</ele>
        <time>2022-03-27T09:23:22Z</time>
      </trkpt>
      <trkpt lat="48.6099" lon="1.80531">
        <ele>152</ele>
        <time>2022-03-27T09:23:23Z</time>
      </trkpt>
      <trkpt lat="48.60988" lon="1.80532">
        <ele>152</ele>
        <time>2022-03-27T09:23:24Z</time>
      </trkpt>
      <trkpt lat="48.60986" lon="1.80534">
        <ele>152</ele>
        <time>2022-03-27T09:23:26Z</time>
      </trkpt>
      <trkpt lat="48.60988" lon="1.80536">
        <ele>152</ele>
        <time>2022-03-27T09:24:23Z</time>
      </trkpt>
      <trkpt lat="48.60985" lon="1.80535">
        <ele>152</ele>
        <time>2022-03-27T09:24:40Z</time>
      </trkpt>
      <trkpt lat="48.60987" lon="1.80533">
        <ele>153</ele>
        <time>2022-03-27T09:25:06Z</time>
      </trkpt>
      <trkpt lat="48.60986" lon="1.80536">
        <ele>152</ele>
        <time>2022-03-27T09:25:10Z</time>
      </trkpt>
      <trkpt lat="48.60984" lon="1.80536">
        <ele>152</ele>
        <time>2022-03-27T09:25:13Z</time>
      </trkpt>
      <trkpt lat="48.60983" lon="1.80537">
        <ele>152</ele>
        <time>2022-03-27T09:25:27Z</time>
      </trkpt>
      <trkpt lat="48.60981" lon="1.8054">
        <ele>153</ele>
        <time>2022-03-27T09:25:43Z</time>
      </trkpt>
      <trkpt lat="48.6098" lon="1.80541">
        <ele>153</ele>
        <time>2022-03-27T09:25:46Z</time>
      </trkpt>
      <trkpt lat="48.6098" lon="1.80544">
        <ele>152</ele>
        <time>2022-03-27T09:26:38Z</time>
      </trkpt>
      <trkpt lat="48.60979" lon="1.80547">
        <ele>152</ele>
        <time>2022-03-27T09:26:40Z</time>
      </trkpt>
      <trkpt lat="48.60977" lon="1.80549">
        <ele>152</ele>
        <time>2022-03-27T09:26:42Z</time>
      </trkpt>
      <trkpt lat="48.60974" lon="1.80551">
        <ele>152</ele>
        <time>2022-03-27T09:26:45Z</time>
      </trkpt>
      <trkpt lat="48.60973" lon="1.80553">
        <ele>152</ele>
        <time>2022-03-27T09:26:47Z</time>
      </trkpt>
      <trkpt lat="48.60971" lon="1.80555">
        <ele>152</ele>
        <time>2022-03-27T09:26:49Z</time>
      </trkpt>
      <trkpt lat="48.60969" lon="1.80557">
        <ele>152</ele>
        <time>2022-03-27T09:26:51Z</time>
      </trkpt>
      <trkpt lat="48.60968" lon="1.80559">
        <ele>151</ele>
        <time>2022-03-27T09:26:53Z</time>
      </trkpt>
      <trkpt lat="48.60966" lon="1.80562">
        <ele>151</ele>
        <time>2022-03-27T09:26:55Z</time>
      </trkpt>
      <trkpt lat="48.60963" lon="1.80566">
        <ele>151</ele>
        <time>2022-03-27T09:26:57Z</time>
      </trkpt>
      <trkpt lat="48.6096" lon="1.80568">
        <ele>151</ele>
        <time>2022-03-27T09:26:59Z</time>
      </trkpt>
      <trkpt lat="48.60957" lon="1.80571">
        <ele>151</ele>
        <time>2022-03-27T09:27:01Z</time>
      </trkpt>
      <trkpt lat="48.60955" lon="1.80574">
        <ele>151</ele>
        <time>2022-03-27T09:27:03Z</time>
      </trkpt>
      <trkpt lat="48.60953" lon="1.80577">
        <ele>151</ele>
        <time>2022-03-27T09:27:05Z</time>
      </trkpt>
      <trkpt lat="48.6095" lon="1.8058">
        <ele>151</ele>
        <time>2022-03-27T09:27:07Z</time>
      </trkpt>
      <trkpt lat="48.60948" lon="1.80583">
        <ele>151</ele>
        <time>2022-03-27T09:27:09Z</time>
      </trkpt>
      <trkpt lat="48.60945" lon="1.80586">
        <ele>150</ele>
        <time>2022-03-27T09:27:11Z</time>
      </trkpt>
      <trkpt lat="48.60943" lon="1.80589">
        <ele>150</ele>
        <time>2022-03-27T09:27:13Z</time>
      </trkpt>
      <trkpt lat="48.6094" lon="1.80592">
        <ele>150</ele>
        <time>2022-03-27T09:27:15Z</time>
      </trkpt>
      <trkpt lat="48.60937" lon="1.80596">
        <ele>150</ele>
        <time>2022-03-27T09:27:17Z</time>
      </trkpt>
      <trkpt lat="48.60935" lon="1.80599">
        <ele>150</ele>
        <time>2022-03-27T09:27:19Z</time>
      </trkpt>
      <trkpt lat="48.60932" lon="1.80602">
        <ele>150</ele>
        <time>2022-03-27T09:27:21Z</time>
      </trkpt>
      <trkpt lat="48.6093" lon="1.80605">
        <ele>150</ele>
        <time>2022-03-27T09:27:23Z</time>
      </trkpt>
      <trkpt lat="48.60927" lon="1.80608">
        <ele>149</ele>
        <time>2022-03-27T09:27:25Z</time>
      </trkpt>
      <trkpt lat="48.60925" lon="1.80611">
        <ele>149</ele>
        <time>2022-03-27T09:27:27Z</time>
      </trkpt>
      <trkpt lat="48.60922" lon="1.80614">
        <ele>149</ele>
        <time>2022-03-27T09:27:29Z</time>
      </trkpt>
      <trkpt lat="48.6092" lon="1.80617">
        <ele>149</ele>
        <time>2022-03-27T09:27:31Z</time>
      </trkpt>
      <trkpt lat="48.60917" lon="1.8062">
        <ele>149</ele>
        <time>2022-03-27T09:27:33Z</time>
      </trkpt>
      <trkpt lat="48.60915" lon="1.80623">
        <ele>148</ele>
        <time>2022-03-27T09:27:35Z</time>
      </trkpt>
      <trkpt lat="48.60912" lon="1.80626">
        <ele>148</ele>
        <time>2022-03-27T09:27:37Z</time>
      </trkpt>
      <trkpt lat="48.60911" lon="1.80627">
        <ele>148</ele>
        <time>2022-03-27T09:27:38Z</time>
      </trkpt>
      <trkpt lat="48.60908" lon="1.80631">
        <ele>148</ele>
        <time>2022-03-27T09:27:40Z</time>
      </trkpt>
      <trkpt lat="48.60906" lon="1.80633">
        <ele>148</ele>
        <time>2022-03-27T09:27:42Z</time>
      </trkpt>
      <trkpt lat="48.60903" lon="1.80636">
        <ele>148</ele>
        <time>2022-03-27T09:27:44Z</time>
      </trkpt>
      <trkpt lat="48.60901" lon="1.80639">
        <ele>148</ele>
        <time>2022-03-27T09:27:46Z</time>
      </trkpt>
      <trkpt lat="48.60898" lon="1.80643">
        <ele>147</ele>
        <time>2022-03-27T09:27:48Z</time>
      </trkpt>
      <trkpt lat="48.60896" lon="1.80646">
        <ele>147</ele>
        <time>2022-03-27T09:27:50Z</time>
      </trkpt>
      <trkpt lat="48.60893" lon="1.80649">
        <ele>147</ele>
        <time>2022-03-27T09:27:52Z</time>
      </trkpt>
      <trkpt lat="48.6089" lon="1.80653">
        <ele>147</ele>
        <time>2022-03-27T09:27:54Z</time>
      </trkpt>
      <trkpt lat="48.60888" lon="1.80656">
        <ele>147</ele>
        <time>2022-03-27T09:27:56Z</time>
      </trkpt>
      <trkpt lat="48.60885" lon="1.80659">
        <ele>147</ele>
        <time>2022-03-27T09:27:58Z</time>
      </trkpt>
      <trkpt lat="48.60882" lon="1.80663">
        <ele>147</ele>
        <time>2022-03-27T09:28:00Z</time>
      </trkpt>
      <trkpt lat="48.6088" lon="1.80666">
        <ele>147</ele>
        <time>2022-03-27T09:28:02Z</time>
      </trkpt>
      <trkpt lat="48.60877" lon="1.80669">
        <ele>147</ele>
        <time>2022-03-27T09:28:04Z</time>
      </trkpt>
      <trkpt lat="48.60875" lon="1.80672">
        <ele>146</ele>
        <time>2022-03-27T09:28:06Z</time>
      </trkpt>
      <trkpt lat="48.60872" lon="1.80675">
        <ele>146</ele>
        <time>2022-03-27T09:28:08Z</time>
      </trkpt>
      <trkpt lat="48.60869" lon="1.80678">
        <ele>146</ele>
        <time>2022-03-27T09:28:10Z</time>
      </trkpt>
      <trkpt lat="48.60866" lon="1.80681">
        <ele>146</ele>
        <time>2022-03-27T09:28:12Z</time>
      </trkpt>
      <trkpt lat="48.60864" lon="1.80684">
        <ele>146</ele>
        <time>2022-03-27T09:28:14Z</time>
      </trkpt>
      <trkpt lat="48.60861" lon="1.80687">
        <ele>146</ele>
        <time>2022-03-27T09:28:16Z</time>
      </trkpt>
      <trkpt lat="48.60859" lon="1.80691">
        <ele>146</ele>
        <time>2022-03-27T09:28:18Z</time>
      </trkpt>
      <trkpt lat="48.60856" lon="1.80694">
        <ele>145</ele>
        <time>2022-03-27T09:28:20Z</time>
      </trkpt>
      <trkpt lat="48.60853" lon="1.80697">
        <ele>145</ele>
        <time>2022-03-27T09:28:22Z</time>
      </trkpt>
      <trkpt lat="48.60851" lon="1.80701">
        <ele>145</ele>
        <time>2022-03-27T09:28:24Z</time>
      </trkpt>
      <trkpt lat="48.60848" lon="1.80704">
        <ele>145</ele>
        <time>2022-03-27T09:28:26Z</time>
      </trkpt>
      <trkpt lat="48.60846" lon="1.80707">
        <ele>146</ele>
        <time>2022-03-27T09:28:28Z</time>
      </trkpt>
      <trkpt lat="48.60843" lon="1.8071">
        <ele>145</ele>
        <time>2022-03-27T09:28:30Z</time>
      </trkpt>
      <trkpt lat="48.60841" lon="1.80712">
        <ele>145</ele>
        <time>2022-03-27T09:28:32Z</time>
      </trkpt>
      <trkpt lat="48.60839" lon="1.80714">
        <ele>146</ele>
        <time>2022-03-27T09:28:34Z</time>
      </trkpt>
      <trkpt lat="48.60836" lon="1.80715">
        <ele>146</ele>
        <time>2022-03-27T09:28:36Z</time>
      </trkpt>
      <trkpt lat="48.60834" lon="1.80715">
        <ele>146</ele>
        <time>2022-03-27T09:28:38Z</time>
      </trkpt>
      <trkpt lat="48.60832" lon="1.80714">
        <ele>146</ele>
        <time>2022-03-27T09:28:40Z</time>
      </trkpt>
      <trkpt lat="48.6083" lon="1.80711">
        <ele>146</ele>
        <time>2022-03-27T09:28:42Z</time>
      </trkpt>
      <trkpt lat="48.60828" lon="1.80708">
        <ele>146</ele>
        <time>2022-03-27T09:28:44Z</time>
      </trkpt>
      <trkpt lat="48.60826" lon="1.80704">
        <ele>146</ele>
        <time>2022-03-27T09:28:46Z</time>
      </trkpt>
      <trkpt lat="48.60825" lon="1.80701">
        <ele>146</ele>
        <time>2022-03-27T09:28:48Z</time>
      </trkpt>
      <trkpt lat="48.60823" lon="1.80698">
        <ele>146</ele>
        <time>2022-03-27T09:28:50Z</time>
      </trkpt>
      <trkpt lat="48.60822" lon="1.80695">
        <ele>146</ele>
        <time>2022-03-27T09:28:52Z</time>
      </trkpt>
      <trkpt lat="48.6082" lon="1.80691">
        <ele>146</ele>
        <time>2022-03-27T09:28:54Z</time>
      </trkpt>
      <trkpt lat="48.60818" lon="1.80687">
        <ele>146</ele>
        <time>2022-03-27T09:28:57Z</time>
      </trkpt>
      <trkpt lat="48.60816" lon="1.80684">
        <ele>146</ele>
        <time>2022-03-27T09:28:58Z</time>
      </trkpt>
      <trkpt lat="48.60814" lon="1.80681">
        <ele>147</ele>
        <time>2022-03-27T09:29:00Z</time>
      </trkpt>
      <trkpt lat="48.60812" lon="1.80678">
        <ele>147</ele>
        <time>2022-03-27T09:29:02Z</time>
      </trkpt>
      <trkpt lat="48.60809" lon="1.80675">
        <ele>147</ele>
        <time>2022-03-27T09:29:04Z</time>
      </trkpt>
      <trkpt lat="48.60807" lon="1.80671">
        <ele>147</ele>
        <time>2022-03-27T09:29:06Z</time>
      </trkpt>
      <trkpt lat="48.60805" lon="1.80667">
        <ele>147</ele>
        <time>2022-03-27T09:29:08Z</time>
      </trkpt>
      <trkpt lat="48.60803" lon="1.80663">
        <ele>148</ele>
        <time>2022-03-27T09:29:10Z</time>
      </trkpt>
      <trkpt lat="48.608" lon="1.8066">
        <ele>148</ele>
        <time>2022-03-27T09:29:12Z</time>
      </trkpt>
      <trkpt lat="48.60798" lon="1.80656">
        <ele>148</ele>
        <time>2022-03-27T09:29:14Z</time>
      </trkpt>
      <trkpt lat="48.60796" lon="1.80652">
        <ele>148</ele>
        <time>2022-03-27T09:29:16Z</time>
      </trkpt>
      <trkpt lat="48.60794" lon="1.80649">
        <ele>149</ele>
        <time>2022-03-27T09:29:18Z</time>
      </trkpt>
      <trkpt lat="48.60792" lon="1.80645">
        <ele>149</ele>
        <time>2022-03-27T09:29:20Z</time>
      </trkpt>
      <trkpt lat="48.6079" lon="1.80642">
        <ele>149</ele>
        <time>2022-03-27T09:29:22Z</time>
      </trkpt>
      <trkpt lat="48.60788" lon="1.80638">
        <ele>149</ele>
        <time>2022-03-27T09:29:24Z</time>
      </trkpt>
      <trkpt lat="48.60787" lon="1.80633">
        <ele>150</ele>
        <time>2022-03-27T09:29:26Z</time>
      </trkpt>
      <trkpt lat="48.60786" lon="1.8063">
        <ele>150</ele>
        <time>2022-03-27T09:29:28Z</time>
      </trkpt>
      <trkpt lat="48.60784" lon="1.80626">
        <ele>150</ele>
        <time>2022-03-27T09:29:30Z</time>
      </trkpt>
      <trkpt lat="48.60782" lon="1.80622">
        <ele>150</ele>
        <time>2022-03-27T09:29:32Z</time>
      </trkpt>
      <trkpt lat="48.60779" lon="1.80619">
        <ele>151</ele>
        <time>2022-03-27T09:29:34Z</time>
      </trkpt>
      <trkpt lat="48.60778" lon="1.80615">
        <ele>151</ele>
        <time>2022-03-27T09:29:36Z</time>
      </trkpt>
      <trkpt lat="48.60775" lon="1.80612">
        <ele>151</ele>
        <time>2022-03-27T09:29:38Z</time>
      </trkpt>
      <trkpt lat="48.60773" lon="1.80608">
        <ele>152</ele>
        <time>2022-03-27T09:29:40Z</time>
      </trkpt>
      <trkpt lat="48.60771" lon="1.80604">
        <ele>152</ele>
        <time>2022-03-27T09:29:42Z</time>
      </trkpt>
      <trkpt lat="48.6077" lon="1.806">
        <ele>152</ele>
        <time>2022-03-27T09:29:44Z</time>
      </trkpt>
      <trkpt lat="48.60768" lon="1.80595">
        <ele>153</ele>
        <time>2022-03-27T09:29:46Z</time>
      </trkpt>
      <trkpt lat="48.60766" lon="1.80592">
        <ele>153</ele>
        <time>2022-03-27T09:29:48Z</time>
      </trkpt>
      <trkpt lat="48.60765" lon="1.80587">
        <ele>153</ele>
        <time>2022-03-27T09:29:50Z</time>
      </trkpt>
      <trkpt lat="48.60763" lon="1.80583">
        <ele>153</ele>
        <time>2022-03-27T09:29:52Z</time>
      </trkpt>
      <trkpt lat="48.60761" lon="1.80578">
        <ele>154</ele>
        <time>2022-03-27T09:29:54Z</time>
      </trkpt>
      <trkpt lat="48.60759" lon="1.80574">
        <ele>154</ele>
        <time>2022-03-27T09:29:56Z</time>
      </trkpt>
      <trkpt lat="48.60757" lon="1.8057">
        <ele>154</ele>
        <time>2022-03-27T09:29:58Z</time>
      </trkpt>
      <trkpt lat="48.60755" lon="1.80565">
        <ele>154</ele>
        <time>2022-03-27T09:30:00Z</time>
      </trkpt>
      <trkpt lat="48.60754" lon="1.80561">
        <ele>155</ele>
        <time>2022-03-27T09:30:02Z</time>
      </trkpt>
      <trkpt lat="48.60752" lon="1.80556">
        <ele>155</ele>
        <time>2022-03-27T09:30:04Z</time>
      </trkpt>
      <trkpt lat="48.60751" lon="1.80551">
        <ele>155</ele>
        <time>2022-03-27T09:30:06Z</time>
      </trkpt>
      <trkpt lat="48.60749" lon="1.80547">
        <ele>155</ele>
        <time>2022-03-27T09:30:08Z</time>
      </trkpt>
      <trkpt lat="48.60747" lon="1.80544">
        <ele>156</ele>
        <time>2022-03-27T09:30:10Z</time>
      </trkpt>
      <trkpt lat="48.60745" lon="1.8054">
        <ele>156</ele>
        <time>2022-03-27T09:30:12Z</time>
      </trkpt>
      <trkpt lat="48.60743" lon="1.80536">
        <ele>156</ele>
        <time>2022-03-27T09:30:14Z</time>
      </trkpt>
      <trkpt lat="48.60742" lon="1.80532">
        <ele>156</ele>
        <time>2022-03-27T09:30:16Z</time>
      </trkpt>
      <trkpt lat="48.6074" lon="1.80529">
        <ele>156</ele>
        <time>2022-03-27T09:30:18Z</time>
      </trkpt>
      <trkpt lat="48.60738" lon="1.80525">
        <ele>156</ele>
        <time>2022-03-27T09:30:20Z</time>
      </trkpt>
      <trkpt lat="48.60736" lon="1.80521">
        <ele>156</ele>
        <time>2022-03-27T09:30:22Z</time>
      </trkpt>
      <trkpt lat="48.60734" lon="1.80517">
        <ele>157</ele>
        <time>2022-03-27T09:30:24Z</time>
      </trkpt>
      <trkpt lat="48.60732" lon="1.80514">
        <ele>157</ele>
        <time>2022-03-27T09:30:26Z</time>
      </trkpt>
      <trkpt lat="48.6073" lon="1.8051">
        <ele>157</ele>
        <time>2022-03-27T09:30:28Z</time>
      </trkpt>
      <trkpt lat="48.60728" lon="1.80505">
        <ele>157</ele>
        <time>2022-03-27T09:30:30Z</time>
      </trkpt>
      <trkpt lat="48.60725" lon="1.80501">
        <ele>157</ele>
        <time>2022-03-27T09:30:32Z</time>
      </trkpt>
      <trkpt lat="48.60724" lon="1.80497">
        <ele>157</ele>
        <time>2022-03-27T09:30:34Z</time>
      </trkpt>
      <trkpt lat="48.60722" lon="1.80494">
        <ele>157</ele>
        <time>2022-03-27T09:30:36Z</time>
      </trkpt>
      <trkpt lat="48.60719" lon="1.8049">
        <ele>157</ele>
        <time>2022-03-27T09:30:38Z</time>
      </trkpt>
      <trkpt lat="48.60717" lon="1.80486">
        <ele>158</ele>
        <time>2022-03-27T09:30:40Z</time>
      </trkpt>
      <trkpt lat="48.60715" lon="1.80482">
        <ele>158</ele>
        <time>2022-03-27T09:30:42Z</time>
      </trkpt>
      <trkpt lat="48.60713" lon="1.80478">
        <ele>158</ele>
        <time>2022-03-27T09:30:44Z</time>
      </trkpt>
      <trkpt lat="48.60711" lon="1.80474">
        <ele>158</ele>
        <time>2022-03-27T09:30:46Z</time>
      </trkpt>
      <trkpt lat="48.60709" lon="1.8047">
        <ele>158</ele>
        <time>2022-03-27T09:30:48Z</time>
      </trkpt>
      <trkpt lat="48.60707" lon="1.80466">
        <ele>159</ele>
        <time>2022-03-27T09:30:51Z</time>
      </trkpt>
      <trkpt lat="48.60705" lon="1.80462">
        <ele>159</ele>
        <time>2022-03-27T09:30:52Z</time>
      </trkpt>
      <trkpt lat="48.60704" lon="1.80458">
        <ele>159</ele>
        <time>2022-03-27T09:30:54Z</time>
      </trkpt>
      <trkpt lat="48.60702" lon="1.80454">
        <ele>159</ele>
        <time>2022-03-27T09:30:56Z</time>
      </trkpt>
      <trkpt lat="48.60701" lon="1.8045">
        <ele>158</ele>
        <time>2022-03-27T09:30:58Z</time>
      </trkpt>
      <trkpt lat="48.60699" lon="1.80447">
        <ele>159</ele>
        <time>2022-03-27T09:31:00Z</time>
      </trkpt>
      <trkpt lat="48.60697" lon="1.80443">
        <ele>159</ele>
        <time>2022-03-27T09:31:02Z</time>
      </trkpt>
      <trkpt lat="48.60696" lon="1.80439">
        <ele>159</ele>
        <time>2022-03-27T09:31:04Z</time>
      </trkpt>
      <trkpt lat="48.60694" lon="1.80435">
        <ele>159</ele>
        <time>2022-03-27T09:31:06Z</time>
      </trkpt>
      <trkpt lat="48.60692" lon="1.80431">
        <ele>159</ele>
        <time>2022-03-27T09:31:08Z</time>
      </trkpt>
      <trkpt lat="48.6069" lon="1.80427">
        <ele>160</ele>
        <time>2022-03-27T09:31:10Z</time>
      </trkpt>
      <trkpt lat="48.60688" lon="1.80423">
        <ele>160</ele>
        <time>2022-03-27T09:31:12Z</time>
      </trkpt>
      <trkpt lat="48.60687" lon="1.80419">
        <ele>160</ele>
        <time>2022-03-27T09:31:14Z</time>
      </trkpt>
      <trkpt lat="48.60685" lon="1.80415">
        <ele>160</ele>
        <time>2022-03-27T09:31:16Z</time>
      </trkpt>
      <trkpt lat="48.60684" lon="1.80411">
        <ele>160</ele>
        <time>2022-03-27T09:31:18Z</time>
      </trkpt>
      <trkpt lat="48.60684" lon="1.80408">
        <ele>160</ele>
        <time>2022-03-27T09:31:24Z</time>
      </trkpt>
      <trkpt lat="48.60683" lon="1.80405">
        <ele>160</ele>
        <time>2022-03-27T09:31:28Z</time>
      </trkpt>
      <trkpt lat="48.60681" lon="1.80402">
        <ele>161</ele>
        <time>2022-03-27T09:31:30Z</time>
      </trkpt>
      <trkpt lat="48.60678" lon="1.80398">
        <ele>161</ele>
        <time>2022-03-27T09:31:32Z</time>
      </trkpt>
      <trkpt lat="48.60677" lon="1.80396">
        <ele>161</ele>
        <time>2022-03-27T09:31:33Z</time>
      </trkpt>
      <trkpt lat="48.60675" lon="1.80394">
        <ele>161</ele>
        <time>2022-03-27T09:31:34Z</time>
      </trkpt>
      <trkpt lat="48.60673" lon="1.80392">
        <ele>160</ele>
        <time>2022-03-27T09:31:35Z</time>
      </trkpt>
      <trkpt lat="48.60672" lon="1.80391">
        <ele>160</ele>
        <time>2022-03-27T09:31:36Z</time>
      </trkpt>
      <trkpt lat="48.6067" lon="1.80389">
        <ele>160</ele>
        <time>2022-03-27T09:31:37Z</time>
      </trkpt>
      <trkpt lat="48.60669" lon="1.80386">
        <ele>160</ele>
        <time>2022-03-27T09:31:38Z</time>
      </trkpt>
      <trkpt lat="48.60667" lon="1.80384">
        <ele>160</ele>
        <time>2022-03-27T09:31:39Z</time>
      </trkpt>
      <trkpt lat="48.60665" lon="1.80381">
        <ele>161</ele>
        <time>2022-03-27T09:31:41Z</time>
      </trkpt>
      <trkpt lat="48.60663" lon="1.80377">
        <ele>161</ele>
        <time>2022-03-27T09:31:43Z</time>
      </trkpt>
      <trkpt lat="48.60661" lon="1.80373">
        <ele>160</ele>
        <time>2022-03-27T09:31:45Z</time>
      </trkpt>
      <trkpt lat="48.60659" lon="1.8037">
        <ele>160</ele>
        <time>2022-03-27T09:31:48Z</time>
      </trkpt>
      <trkpt lat="48.60657" lon="1.80366">
        <ele>160</ele>
        <time>2022-03-27T09:31:49Z</time>
      </trkpt>
      <trkpt lat="48.60654" lon="1.80363">
        <ele>160</ele>
        <time>2022-03-27T09:31:51Z</time>
      </trkpt>
      <trkpt lat="48.60652" lon="1.80359">
        <ele>160</ele>
        <time>2022-03-27T09:31:53Z</time>
      </trkpt>
      <trkpt lat="48.6065" lon="1.80356">
        <ele>160</ele>
        <time>2022-03-27T09:31:55Z</time>
      </trkpt>
      <trkpt lat="48.60647" lon="1.80353">
        <ele>160</ele>
        <time>2022-03-27T09:31:57Z</time>
      </trkpt>
      <trkpt lat="48.60645" lon="1.80349">
        <ele>160</ele>
        <time>2022-03-27T09:31:59Z</time>
      </trkpt>
      <trkpt lat="48.60643" lon="1.80346">
        <ele>160</ele>
        <time>2022-03-27T09:32:01Z</time>
      </trkpt>
      <trkpt lat="48.60642" lon="1.80343">
        <ele>160</ele>
        <time>2022-03-27T09:32:02Z</time>
      </trkpt>
      <trkpt lat="48.6064" lon="1.80339">
        <ele>160</ele>
        <time>2022-03-27T09:32:04Z</time>
      </trkpt>
      <trkpt lat="48.60639" lon="1.80335">
        <ele>159</ele>
        <time>2022-03-27T09:32:07Z</time>
      </trkpt>
      <trkpt lat="48.60637" lon="1.80331">
        <ele>159</ele>
        <time>2022-03-27T09:32:08Z</time>
      </trkpt>
      <trkpt lat="48.60635" lon="1.80326">
        <ele>159</ele>
        <time>2022-03-27T09:32:10Z</time>
      </trkpt>
      <trkpt lat="48.60633" lon="1.80322">
        <ele>158</ele>
        <time>2022-03-27T09:32:12Z</time>
      </trkpt>
      <trkpt lat="48.60631" lon="1.80318">
        <ele>158</ele>
        <time>2022-03-27T09:32:14Z</time>
      </trkpt>
      <trkpt lat="48.60629" lon="1.80314">
        <ele>158</ele>
        <time>2022-03-27T09:32:16Z</time>
      </trkpt>
      <trkpt lat="48.60628" lon="1.8031">
        <ele>158</ele>
        <time>2022-03-27T09:32:18Z</time>
      </trkpt>
      <trkpt lat="48.60624" lon="1.80307">
        <ele>158</ele>
        <time>2022-03-27T09:32:20Z</time>
      </trkpt>
      <trkpt lat="48.60621" lon="1.80306">
        <ele>158</ele>
        <time>2022-03-27T09:32:21Z</time>
      </trkpt>
      <trkpt lat="48.60618" lon="1.80305">
        <ele>158</ele>
        <time>2022-03-27T09:32:22Z</time>
      </trkpt>
      <trkpt lat="48.60615" lon="1.80305">
        <ele>158</ele>
        <time>2022-03-27T09:32:23Z</time>
      </trkpt>
      <trkpt lat="48.60613" lon="1.80306">
        <ele>158</ele>
        <time>2022-03-27T09:32:24Z</time>
      </trkpt>
      <trkpt lat="48.6061" lon="1.80308">
        <ele>158</ele>
        <time>2022-03-27T09:32:25Z</time>
      </trkpt>
      <trkpt lat="48.60608" lon="1.8031">
        <ele>157</ele>
        <time>2022-03-27T09:32:26Z</time>
      </trkpt>
      <trkpt lat="48.60605" lon="1.80312">
        <ele>157</ele>
        <time>2022-03-27T09:32:27Z</time>
      </trkpt>
      <trkpt lat="48.60603" lon="1.80314">
        <ele>157</ele>
        <time>2022-03-27T09:32:28Z</time>
      </trkpt>
      <trkpt lat="48.60602" lon="1.80316">
        <ele>157</ele>
        <time>2022-03-27T09:32:29Z</time>
      </trkpt>
      <trkpt lat="48.606" lon="1.80318">
        <ele>157</ele>
        <time>2022-03-27T09:32:30Z</time>
      </trkpt>
      <trkpt lat="48.60597" lon="1.8032">
        <ele>157</ele>
        <time>2022-03-27T09:32:32Z</time>
      </trkpt>
      <trkpt lat="48.60594" lon="1.80322">
        <ele>157</ele>
        <time>2022-03-27T09:32:34Z</time>
      </trkpt>
      <trkpt lat="48.60591" lon="1.80324">
        <ele>157</ele>
        <time>2022-03-27T09:32:36Z</time>
      </trkpt>
      <trkpt lat="48.60588" lon="1.80324">
        <ele>157</ele>
        <time>2022-03-27T09:32:38Z</time>
      </trkpt>
      <trkpt lat="48.60584" lon="1.80324">
        <ele>157</ele>
        <time>2022-03-27T09:32:40Z</time>
      </trkpt>
      <trkpt lat="48.60583" lon="1.80323">
        <ele>156</ele>
        <time>2022-03-27T09:32:41Z</time>
      </trkpt>
      <trkpt lat="48.60579" lon="1.80322">
        <ele>156</ele>
        <time>2022-03-27T09:32:43Z</time>
      </trkpt>
      <trkpt lat="48.60576" lon="1.80321">
        <ele>157</ele>
        <time>2022-03-27T09:32:45Z</time>
      </trkpt>
      <trkpt lat="48.60573" lon="1.80321">
        <ele>157</ele>
        <time>2022-03-27T09:32:47Z</time>
      </trkpt>
      <trkpt lat="48.60569" lon="1.8032">
        <ele>157</ele>
        <time>2022-03-27T09:32:49Z</time>
      </trkpt>
      <trkpt lat="48.60566" lon="1.8032">
        <ele>157</ele>
        <time>2022-03-27T09:32:51Z</time>
      </trkpt>
      <trkpt lat="48.60563" lon="1.80318">
        <ele>157</ele>
        <time>2022-03-27T09:32:53Z</time>
      </trkpt>
      <trkpt lat="48.6056" lon="1.80317">
        <ele>157</ele>
        <time>2022-03-27T09:32:55Z</time>
      </trkpt>
      <trkpt lat="48.60557" lon="1.80316">
        <ele>157</ele>
        <time>2022-03-27T09:32:57Z</time>
      </trkpt>
      <trkpt lat="48.60554" lon="1.80315">
        <ele>157</ele>
        <time>2022-03-27T09:32:59Z</time>
      </trkpt>
      <trkpt lat="48.60551" lon="1.80314">
        <ele>157</ele>
        <time>2022-03-27T09:33:01Z</time>
      </trkpt>
      <trkpt lat="48.60548" lon="1.80313">
        <ele>157</ele>
        <time>2022-03-27T09:33:04Z</time>
      </trkpt>
      <trkpt lat="48.60546" lon="1.80313">
        <ele>157</ele>
        <time>2022-03-27T09:33:05Z</time>
      </trkpt>
      <trkpt lat="48.60543" lon="1.80312">
        <ele>157</ele>
        <time>2022-03-27T09:33:07Z</time>
      </trkpt>
      <trkpt lat="48.60541" lon="1.80311">
        <ele>157</ele>
        <time>2022-03-27T09:33:09Z</time>
      </trkpt>
      <trkpt lat="48.60538" lon="1.8031">
        <ele>157</ele>
        <time>2022-03-27T09:33:11Z</time>
      </trkpt>
      <trkpt lat="48.60535" lon="1.80309">
        <ele>157</ele>
        <time>2022-03-27T09:33:13Z</time>
      </trkpt>
      <trkpt lat="48.60531" lon="1.80309">
        <ele>157</ele>
        <time>2022-03-27T09:33:15Z</time>
      </trkpt>
      <trkpt lat="48.60528" lon="1.80308">
        <ele>158</ele>
        <time>2022-03-27T09:33:17Z</time>
      </trkpt>
      <trkpt lat="48.60525" lon="1.80307">
        <ele>158</ele>
        <time>2022-03-27T09:33:19Z</time>
      </trkpt>
      <trkpt lat="48.60522" lon="1.80306">
        <ele>158</ele>
        <time>2022-03-27T09:33:21Z</time>
      </trkpt>
      <trkpt lat="48.60518" lon="1.80305">
        <ele>158</ele>
        <time>2022-03-27T09:33:23Z</time>
      </trkpt>
      <trkpt lat="48.60515" lon="1.80305">
        <ele>158</ele>
        <time>2022-03-27T09:33:25Z</time>
      </trkpt>
      <trkpt lat="48.60512" lon="1.80304">
        <ele>158</ele>
        <time>2022-03-27T09:33:27Z</time>
      </trkpt>
      <trkpt lat="48.60509" lon="1.80303">
        <ele>158</ele>
        <time>2022-03-27T09:33:29Z</time>
      </trkpt>
      <trkpt lat="48.60505" lon="1.80302">
        <ele>158</ele>
        <time>2022-03-27T09:33:31Z</time>
      </trkpt>
      <trkpt lat="48.60503" lon="1.80301">
        <ele>158</ele>
        <time>2022-03-27T09:33:32Z</time>
      </trkpt>
      <trkpt lat="48.605" lon="1.803">
        <ele>158</ele>
        <time>2022-03-27T09:33:34Z</time>
      </trkpt>
      <trkpt lat="48.60497" lon="1.803">
        <ele>157</ele>
        <time>2022-03-27T09:33:36Z</time>
      </trkpt>
      <trkpt lat="48.60494" lon="1.80299">
        <ele>157</ele>
        <time>2022-03-27T09:33:38Z</time>
      </trkpt>
      <trkpt lat="48.6049" lon="1.80298">
        <ele>157</ele>
        <time>2022-03-27T09:33:40Z</time>
      </trkpt>
      <trkpt lat="48.60487" lon="1.80297">
        <ele>157</ele>
        <time>2022-03-27T09:33:42Z</time>
      </trkpt>
      <trkpt lat="48.60483" lon="1.80297">
        <ele>157</ele>
        <time>2022-03-27T09:33:44Z</time>
      </trkpt>
      <trkpt lat="48.6048" lon="1.80296">
        <ele>157</ele>
        <time>2022-03-27T09:33:46Z</time>
      </trkpt>
      <trkpt lat="48.60477" lon="1.80295">
        <ele>157</ele>
        <time>2022-03-27T09:33:48Z</time>
      </trkpt>
      <trkpt lat="48.60473" lon="1.80294">
        <ele>157</ele>
        <time>2022-03-27T09:33:50Z</time>
      </trkpt>
      <trkpt lat="48.6047" lon="1.80293">
        <ele>157</ele>
        <time>2022-03-27T09:33:52Z</time>
      </trkpt>
      <trkpt lat="48.60467" lon="1.80292">
        <ele>157</ele>
        <time>2022-03-27T09:33:54Z</time>
      </trkpt>
      <trkpt lat="48.60464" lon="1.80292">
        <ele>157</ele>
        <time>2022-03-27T09:33:56Z</time>
      </trkpt>
      <trkpt lat="48.60461" lon="1.80291">
        <ele>157</ele>
        <time>2022-03-27T09:33:58Z</time>
      </trkpt>
      <trkpt lat="48.60458" lon="1.8029">
        <ele>158</ele>
        <time>2022-03-27T09:34:00Z</time>
      </trkpt>
      <trkpt lat="48.60456" lon="1.8029">
        <ele>158</ele>
        <time>2022-03-27T09:34:02Z</time>
      </trkpt>
      <trkpt lat="48.60453" lon="1.80289">
        <ele>158</ele>
        <time>2022-03-27T09:34:04Z</time>
      </trkpt>
      <trkpt lat="48.6045" lon="1.80288">
        <ele>158</ele>
        <time>2022-03-27T09:34:06Z</time>
      </trkpt>
      <trkpt lat="48.60447" lon="1.80287">
        <ele>158</ele>
        <time>2022-03-27T09:34:08Z</time>
      </trkpt>
      <trkpt lat="48.60443" lon="1.80286">
        <ele>158</ele>
        <time>2022-03-27T09:34:10Z</time>
      </trkpt>
      <trkpt lat="48.6044" lon="1.80285">
        <ele>158</ele>
        <time>2022-03-27T09:34:12Z</time>
      </trkpt>
      <trkpt lat="48.60437" lon="1.80285">
        <ele>158</ele>
        <time>2022-03-27T09:34:14Z</time>
      </trkpt>
      <trkpt lat="48.60434" lon="1.80284">
        <ele>158</ele>
        <time>2022-03-27T09:34:16Z</time>
      </trkpt>
      <trkpt lat="48.60431" lon="1.80283">
        <ele>158</ele>
        <time>2022-03-27T09:34:18Z</time>
      </trkpt>
      <trkpt lat="48.60427" lon="1.80282">
        <ele>158</ele>
        <time>2022-03-27T09:34:20Z</time>
      </trkpt>
      <trkpt lat="48.60424" lon="1.80282">
        <ele>158</ele>
        <time>2022-03-27T09:34:22Z</time>
      </trkpt>
      <trkpt lat="48.60421" lon="1.80281">
        <ele>158</ele>
        <time>2022-03-27T09:34:24Z</time>
      </trkpt>
      <trkpt lat="48.60418" lon="1.8028">
        <ele>158</ele>
        <time>2022-03-27T09:34:26Z</time>
      </trkpt>
      <trkpt lat="48.60415" lon="1.80279">
        <ele>159</ele>
        <time>2022-03-27T09:34:28Z</time>
      </trkpt>
      <trkpt lat="48.60412" lon="1.80278">
        <ele>159</ele>
        <time>2022-03-27T09:34:30Z</time>
      </trkpt>
      <trkpt lat="48.60409" lon="1.80278">
        <ele>159</ele>
        <time>2022-03-27T09:34:32Z</time>
      </trkpt>
      <trkpt lat="48.60406" lon="1.80277">
        <ele>159</ele>
        <time>2022-03-27T09:34:34Z</time>
      </trkpt>
      <trkpt lat="48.60402" lon="1.80277">
        <ele>159</ele>
        <time>2022-03-27T09:34:36Z</time>
      </trkpt>
      <trkpt lat="48.60399" lon="1.80276">
        <ele>159</ele>
        <time>2022-03-27T09:34:39Z</time>
      </trkpt>
      <trkpt lat="48.60396" lon="1.80276">
        <ele>159</ele>
        <time>2022-03-27T09:34:40Z</time>
      </trkpt>
      <trkpt lat="48.60393" lon="1.80276">
        <ele>159</ele>
        <time>2022-03-27T09:34:42Z</time>
      </trkpt>
      <trkpt lat="48.6039" lon="1.80276">
        <ele>159</ele>
        <time>2022-03-27T09:34:44Z</time>
      </trkpt>
      <trkpt lat="48.60387" lon="1.80276">
        <ele>159</ele>
        <time>2022-03-27T09:34:46Z</time>
      </trkpt>
      <trkpt lat="48.60383" lon="1.80275">
        <ele>159</ele>
        <time>2022-03-27T09:34:48Z</time>
      </trkpt>
      <trkpt lat="48.6038" lon="1.80275">
        <ele>159</ele>
        <time>2022-03-27T09:34:50Z</time>
      </trkpt>
      <trkpt lat="48.60377" lon="1.80275">
        <ele>159</ele>
        <time>2022-03-27T09:34:52Z</time>
      </trkpt>
      <trkpt lat="48.60374" lon="1.80275">
        <ele>158</ele>
        <time>2022-03-27T09:34:54Z</time>
      </trkpt>
      <trkpt lat="48.60371" lon="1.80275">
        <ele>158</ele>
        <time>2022-03-27T09:34:56Z</time>
      </trkpt>
      <trkpt lat="48.60367" lon="1.80275">
        <ele>158</ele>
        <time>2022-03-27T09:34:58Z</time>
      </trkpt>
      <trkpt lat="48.60365" lon="1.80276">
        <ele>158</ele>
        <time>2022-03-27T09:34:59Z</time>
      </trkpt>
      <trkpt lat="48.60364" lon="1.80276">
        <ele>159</ele>
        <time>2022-03-27T09:35:00Z</time>
      </trkpt>
      <trkpt lat="48.6036" lon="1.80277">
        <ele>159</ele>
        <time>2022-03-27T09:35:02Z</time>
      </trkpt>
      <trkpt lat="48.60357" lon="1.80278">
        <ele>159</ele>
        <time>2022-03-27T09:35:04Z</time>
      </trkpt>
      <trkpt lat="48.60354" lon="1.80279">
        <ele>159</ele>
        <time>2022-03-27T09:35:06Z</time>
      </trkpt>
      <trkpt lat="48.60351" lon="1.8028">
        <ele>159</ele>
        <time>2022-03-27T09:35:08Z</time>
      </trkpt>
      <trkpt lat="48.60348" lon="1.80281">
        <ele>159</ele>
        <time>2022-03-27T09:35:10Z</time>
      </trkpt>
      <trkpt lat="48.60345" lon="1.80282">
        <ele>159</ele>
        <time>2022-03-27T09:35:12Z</time>
      </trkpt>
      <trkpt lat="48.60342" lon="1.80282">
        <ele>159</ele>
        <time>2022-03-27T09:35:14Z</time>
      </trkpt>
      <trkpt lat="48.60338" lon="1.80283">
        <ele>159</ele>
        <time>2022-03-27T09:35:17Z</time>
      </trkpt>
      <trkpt lat="48.60335" lon="1.80284">
        <ele>159</ele>
        <time>2022-03-27T09:35:18Z</time>
      </trkpt>
      <trkpt lat="48.60332" lon="1.80285">
        <ele>159</ele>
        <time>2022-03-27T09:35:20Z</time>
      </trkpt>
      <trkpt lat="48.60329" lon="1.80286">
        <ele>159</ele>
        <time>2022-03-27T09:35:22Z</time>
      </trkpt>
      <trkpt lat="48.60326" lon="1.80288">
        <ele>159</ele>
        <time>2022-03-27T09:35:24Z</time>
      </trkpt>
      <trkpt lat="48.60322" lon="1.80289">
        <ele>159</ele>
        <time>2022-03-27T09:35:26Z</time>
      </trkpt>
      <trkpt lat="48.60319" lon="1.80291">
        <ele>159</ele>
        <time>2022-03-27T09:35:28Z</time>
      </trkpt>
      <trkpt lat="48.60317" lon="1.80293">
        <ele>159</ele>
        <time>2022-03-27T09:35:30Z</time>
      </trkpt>
      <trkpt lat="48.60314" lon="1.80296">
        <ele>160</ele>
        <time>2022-03-27T09:35:32Z</time>
      </trkpt>
      <trkpt lat="48.60311" lon="1.80297">
        <ele>160</ele>
        <time>2022-03-27T09:35:34Z</time>
      </trkpt>
      <trkpt lat="48.60308" lon="1.80299">
        <ele>160</ele>
        <time>2022-03-27T09:35:36Z</time>
      </trkpt>
      <trkpt lat="48.60305" lon="1.80301">
        <ele>160</ele>
        <time>2022-03-27T09:35:38Z</time>
      </trkpt>
      <trkpt lat="48.60302" lon="1.80303">
        <ele>160</ele>
        <time>2022-03-27T09:35:40Z</time>
      </trkpt>
      <trkpt lat="48.60299" lon="1.80305">
        <ele>160</ele>
        <time>2022-03-27T09:35:42Z</time>
      </trkpt>
      <trkpt lat="48.60296" lon="1.80307">
        <ele>160</ele>
        <time>2022-03-27T09:35:44Z</time>
      </trkpt>
      <trkpt lat="48.60293" lon="1.80309">
        <ele>160</ele>
        <time>2022-03-27T09:35:46Z</time>
      </trkpt>
      <trkpt lat="48.6029" lon="1.80311">
        <ele>160</ele>
        <time>2022-03-27T09:35:48Z</time>
      </trkpt>
      <trkpt lat="48.60287" lon="1.80313">
        <ele>160</ele>
        <time>2022-03-27T09:35:50Z</time>
      </trkpt>
      <trkpt lat="48.60284" lon="1.80315">
        <ele>160</ele>
        <time>2022-03-27T09:35:52Z</time>
      </trkpt>
      <trkpt lat="48.60281" lon="1.80317">
        <ele>160</ele>
        <time>2022-03-27T09:35:54Z</time>
      </trkpt>
      <trkpt lat="48.60278" lon="1.8032">
        <ele>160</ele>
        <time>2022-03-27T09:35:56Z</time>
      </trkpt>
      <trkpt lat="48.60275" lon="1.80323">
        <ele>160</ele>
        <time>2022-03-27T09:35:58Z</time>
      </trkpt>
      <trkpt lat="48.60273" lon="1.80326">
        <ele>160</ele>
        <time>2022-03-27T09:36:00Z</time>
      </trkpt>
      <trkpt lat="48.6027" lon="1.80328">
        <ele>160</ele>
        <time>2022-03-27T09:36:02Z</time>
      </trkpt>
      <trkpt lat="48.60267" lon="1.80331">
        <ele>160</ele>
        <time>2022-03-27T09:36:04Z</time>
      </trkpt>
      <trkpt lat="48.60264" lon="1.80334">
        <ele>160</ele>
        <time>2022-03-27T09:36:06Z</time>
      </trkpt>
      <trkpt lat="48.60262" lon="1.80337">
        <ele>160</ele>
        <time>2022-03-27T09:36:08Z</time>
      </trkpt>
      <trkpt lat="48.6026" lon="1.80341">
        <ele>160</ele>
        <time>2022-03-27T09:36:10Z</time>
      </trkpt>
      <trkpt lat="48.60258" lon="1.80345">
        <ele>160</ele>
        <time>2022-03-27T09:36:12Z</time>
      </trkpt>
      <trkpt lat="48.60255" lon="1.80348">
        <ele>160</ele>
        <time>2022-03-27T09:36:14Z</time>
      </trkpt>
      <trkpt lat="48.60252" lon="1.80351">
        <ele>160</ele>
        <time>2022-03-27T09:36:16Z</time>
      </trkpt>
      <trkpt lat="48.60249" lon="1.80354">
        <ele>160</ele>
        <time>2022-03-27T09:36:18Z</time>
      </trkpt>
      <trkpt lat="48.60248" lon="1.80356">
        <ele>160</ele>
        <time>2022-03-27T09:36:19Z</time>
      </trkpt>
      <trkpt lat="48.60245" lon="1.80359">
        <ele>160</ele>
        <time>2022-03-27T09:36:21Z</time>
      </trkpt>
      <trkpt lat="48.60244" lon="1.80361">
        <ele>160</ele>
        <time>2022-03-27T09:36:22Z</time>
      </trkpt>
      <trkpt lat="48.60242" lon="1.80363">
        <ele>160</ele>
        <time>2022-03-27T09:36:23Z</time>
      </trkpt>
      <trkpt lat="48.60241" lon="1.80365">
        <ele>160</ele>
        <time>2022-03-27T09:36:24Z</time>
      </trkpt>
      <trkpt lat="48.60238" lon="1.80368">
        <ele>160</ele>
        <time>2022-03-27T09:36:26Z</time>
      </trkpt>
      <trkpt lat="48.60235" lon="1.80371">
        <ele>160</ele>
        <time>2022-03-27T09:36:28Z</time>
      </trkpt>
      <trkpt lat="48.60233" lon="1.80374">
        <ele>160</ele>
        <time>2022-03-27T09:36:30Z</time>
      </trkpt>
      <trkpt lat="48.6023" lon="1.80377">
        <ele>160</ele>
        <time>2022-03-27T09:36:33Z</time>
      </trkpt>
      <trkpt lat="48.60227" lon="1.8038">
        <ele>160</ele>
        <time>2022-03-27T09:36:34Z</time>
      </trkpt>
      <trkpt lat="48.60225" lon="1.80384">
        <ele>160</ele>
        <time>2022-03-27T09:36:36Z</time>
      </trkpt>
      <trkpt lat="48.60223" lon="1.80385">
        <ele>160</ele>
        <time>2022-03-27T09:36:37Z</time>
      </trkpt>
      <trkpt lat="48.60222" lon="1.80387">
        <ele>160</ele>
        <time>2022-03-27T09:36:38Z</time>
      </trkpt>
      <trkpt lat="48.60219" lon="1.8039">
        <ele>160</ele>
        <time>2022-03-27T09:36:40Z</time>
      </trkpt>
      <trkpt lat="48.60217" lon="1.80393">
        <ele>160</ele>
        <time>2022-03-27T09:36:42Z</time>
      </trkpt>
      <trkpt lat="48.60214" lon="1.80396">
        <ele>160</ele>
        <time>2022-03-27T09:36:44Z</time>
      </trkpt>
      <trkpt lat="48.60212" lon="1.80399">
        <ele>160</ele>
        <time>2022-03-27T09:36:46Z</time>
      </trkpt>
      <trkpt lat="48.60209" lon="1.80402">
        <ele>160</ele>
        <time>2022-03-27T09:36:48Z</time>
      </trkpt>
      <trkpt lat="48.60208" lon="1.80404">
        <ele>160</ele>
        <time>2022-03-27T09:36:49Z</time>
      </trkpt>
      <trkpt lat="48.60205" lon="1.80408">
        <ele>160</ele>
        <time>2022-03-27T09:36:52Z</time>
      </trkpt>
      <trkpt lat="48.60203" lon="1.80411">
        <ele>160</ele>
        <time>2022-03-27T09:36:53Z</time>
      </trkpt>
      <trkpt lat="48.602" lon="1.80414">
        <ele>160</ele>
        <time>2022-03-27T09:36:55Z</time>
      </trkpt>
      <trkpt lat="48.60197" lon="1.80417">
        <ele>160</ele>
        <time>2022-03-27T09:36:57Z</time>
      </trkpt>
      <trkpt lat="48.60194" lon="1.80421">
        <ele>160</ele>
        <time>2022-03-27T09:36:59Z</time>
      </trkpt>
      <trkpt lat="48.60192" lon="1.80424">
        <ele>160</ele>
        <time>2022-03-27T09:37:01Z</time>
      </trkpt>
      <trkpt lat="48.6019" lon="1.80425">
        <ele>160</ele>
        <time>2022-03-27T09:37:02Z</time>
      </trkpt>
      <trkpt lat="48.60189" lon="1.80427">
        <ele>160</ele>
        <time>2022-03-27T09:37:03Z</time>
      </trkpt>
      <trkpt lat="48.60186" lon="1.8043">
        <ele>160</ele>
        <time>2022-03-27T09:37:05Z</time>
      </trkpt>
      <trkpt lat="48.60183" lon="1.80434">
        <ele>160</ele>
        <time>2022-03-27T09:37:07Z</time>
      </trkpt>
      <trkpt lat="48.60181" lon="1.80437">
        <ele>160</ele>
        <time>2022-03-27T09:37:09Z</time>
      </trkpt>
      <trkpt lat="48.60178" lon="1.8044">
        <ele>160</ele>
        <time>2022-03-27T09:37:11Z</time>
      </trkpt>
      <trkpt lat="48.60176" lon="1.80444">
        <ele>160</ele>
        <time>2022-03-27T09:37:13Z</time>
      </trkpt>
      <trkpt lat="48.60173" lon="1.80447">
        <ele>160</ele>
        <time>2022-03-27T09:37:15Z</time>
      </trkpt>
      <trkpt lat="48.6017" lon="1.8045">
        <ele>160</ele>
        <time>2022-03-27T09:37:17Z</time>
      </trkpt>
      <trkpt lat="48.60167" lon="1.80453">
        <ele>160</ele>
        <time>2022-03-27T09:37:19Z</time>
      </trkpt>
      <trkpt lat="48.60165" lon="1.80456">
        <ele>160</ele>
        <time>2022-03-27T09:37:21Z</time>
      </trkpt>
      <trkpt lat="48.60162" lon="1.80459">
        <ele>160</ele>
        <time>2022-03-27T09:37:23Z</time>
      </trkpt>
      <trkpt lat="48.60159" lon="1.80462">
        <ele>160</ele>
        <time>2022-03-27T09:37:25Z</time>
      </trkpt>
      <trkpt lat="48.60156" lon="1.80465">
        <ele>160</ele>
        <time>2022-03-27T09:37:27Z</time>
      </trkpt>
      <trkpt lat="48.60154" lon="1.80468">
        <ele>160</ele>
        <time>2022-03-27T09:37:30Z</time>
      </trkpt>
      <trkpt lat="48.60151" lon="1.80471">
        <ele>160</ele>
        <time>2022-03-27T09:37:31Z</time>
      </trkpt>
      <trkpt lat="48.60148" lon="1.80473">
        <ele>160</ele>
        <time>2022-03-27T09:37:33Z</time>
      </trkpt>
      <trkpt lat="48.60145" lon="1.80476">
        <ele>160</ele>
        <time>2022-03-27T09:37:35Z</time>
      </trkpt>
      <trkpt lat="48.60142" lon="1.80479">
        <ele>160</ele>
        <time>2022-03-27T09:37:37Z</time>
      </trkpt>
      <trkpt lat="48.60139" lon="1.80481">
        <ele>160</ele>
        <time>2022-03-27T09:37:39Z</time>
      </trkpt>
      <trkpt lat="48.60136" lon="1.80484">
        <ele>160</ele>
        <time>2022-03-27T09:37:41Z</time>
      </trkpt>
      <trkpt lat="48.60133" lon="1.80486">
        <ele>159</ele>
        <time>2022-03-27T09:37:43Z</time>
      </trkpt>
      <trkpt lat="48.6013" lon="1.80488">
        <ele>159</ele>
        <time>2022-03-27T09:37:45Z</time>
      </trkpt>
      <trkpt lat="48.60127" lon="1.8049">
        <ele>159</ele>
        <time>2022-03-27T09:37:47Z</time>
      </trkpt>
      <trkpt lat="48.60124" lon="1.80492">
        <ele>159</ele>
        <time>2022-03-27T09:37:49Z</time>
      </trkpt>
      <trkpt lat="48.60121" lon="1.80495">
        <ele>159</ele>
        <time>2022-03-27T09:37:51Z</time>
      </trkpt>
      <trkpt lat="48.60118" lon="1.80497">
        <ele>159</ele>
        <time>2022-03-27T09:37:53Z</time>
      </trkpt>
      <trkpt lat="48.60115" lon="1.80499">
        <ele>159</ele>
        <time>2022-03-27T09:37:55Z</time>
      </trkpt>
      <trkpt lat="48.60112" lon="1.805">
        <ele>159</ele>
        <time>2022-03-27T09:37:57Z</time>
      </trkpt>
      <trkpt lat="48.6011" lon="1.80501">
        <ele>159</ele>
        <time>2022-03-27T09:37:58Z</time>
      </trkpt>
      <trkpt lat="48.60108" lon="1.80502">
        <ele>159</ele>
        <time>2022-03-27T09:37:59Z</time>
      </trkpt>
      <trkpt lat="48.60105" lon="1.80504">
        <ele>159</ele>
        <time>2022-03-27T09:38:01Z</time>
      </trkpt>
      <trkpt lat="48.60102" lon="1.80506">
        <ele>159</ele>
        <time>2022-03-27T09:38:03Z</time>
      </trkpt>
      <trkpt lat="48.60099" lon="1.80507">
        <ele>159</ele>
        <time>2022-03-27T09:38:05Z</time>
      </trkpt>
      <trkpt lat="48.60095" lon="1.80508">
        <ele>159</ele>
        <time>2022-03-27T09:38:07Z</time>
      </trkpt>
      <trkpt lat="48.60093" lon="1.80508">
        <ele>159</ele>
        <time>2022-03-27T09:38:08Z</time>
      </trkpt>
      <trkpt lat="48.60091" lon="1.80509">
        <ele>159</ele>
        <time>2022-03-27T09:38:09Z</time>
      </trkpt>
      <trkpt lat="48.6009" lon="1.80509">
        <ele>159</ele>
        <time>2022-03-27T09:38:10Z</time>
      </trkpt>
      <trkpt lat="48.60088" lon="1.80509">
        <ele>159</ele>
        <time>2022-03-27T09:38:11Z</time>
      </trkpt>
      <trkpt lat="48.60086" lon="1.80509">
        <ele>159</ele>
        <time>2022-03-27T09:38:12Z</time>
      </trkpt>
      <trkpt lat="48.60084" lon="1.8051">
        <ele>159</ele>
        <time>2022-03-27T09:38:13Z</time>
      </trkpt>
      <trkpt lat="48.60081" lon="1.8051">
        <ele>159</ele>
        <time>2022-03-27T09:38:15Z</time>
      </trkpt>
      <trkpt lat="48.60077" lon="1.8051">
        <ele>159</ele>
        <time>2022-03-27T09:38:17Z</time>
      </trkpt>
      <trkpt lat="48.60074" lon="1.8051">
        <ele>158</ele>
        <time>2022-03-27T09:38:19Z</time>
      </trkpt>
      <trkpt lat="48.6007" lon="1.8051">
        <ele>158</ele>
        <time>2022-03-27T09:38:21Z</time>
      </trkpt>
      <trkpt lat="48.60067" lon="1.8051">
        <ele>158</ele>
        <time>2022-03-27T09:38:23Z</time>
      </trkpt>
      <trkpt lat="48.60063" lon="1.8051">
        <ele>158</ele>
        <time>2022-03-27T09:38:25Z</time>
      </trkpt>
      <trkpt lat="48.6006" lon="1.8051">
        <ele>158</ele>
        <time>2022-03-27T09:38:27Z</time>
      </trkpt>
      <trkpt lat="48.60057" lon="1.8051">
        <ele>158</ele>
        <time>2022-03-27T09:38:29Z</time>
      </trkpt>
      <trkpt lat="48.60053" lon="1.8051">
        <ele>158</ele>
        <time>2022-03-27T09:38:31Z</time>
      </trkpt>
      <trkpt lat="48.6005" lon="1.80509">
        <ele>158</ele>
        <time>2022-03-27T09:38:33Z</time>
      </trkpt>
      <trkpt lat="48.60046" lon="1.80509">
        <ele>158</ele>
        <time>2022-03-27T09:38:35Z</time>
      </trkpt>
      <trkpt lat="48.60043" lon="1.80508">
        <ele>158</ele>
        <time>2022-03-27T09:38:37Z</time>
      </trkpt>
      <trkpt lat="48.60039" lon="1.80508">
        <ele>158</ele>
        <time>2022-03-27T09:38:39Z</time>
      </trkpt>
      <trkpt lat="48.60036" lon="1.80508">
        <ele>158</ele>
        <time>2022-03-27T09:38:41Z</time>
      </trkpt>
      <trkpt lat="48.60033" lon="1.80507">
        <ele>158</ele>
        <time>2022-03-27T09:38:43Z</time>
      </trkpt>
      <trkpt lat="48.60029" lon="1.80507">
        <ele>158</ele>
        <time>2022-03-27T09:38:45Z</time>
      </trkpt>
      <trkpt lat="48.60026" lon="1.80506">
        <ele>158</ele>
        <time>2022-03-27T09:38:47Z</time>
      </trkpt>
      <trkpt lat="48.60023" lon="1.80505">
        <ele>158</ele>
        <time>2022-03-27T09:38:49Z</time>
      </trkpt>
      <trkpt lat="48.6002" lon="1.80505">
        <ele>158</ele>
        <time>2022-03-27T09:38:51Z</time>
      </trkpt>
      <trkpt lat="48.60016" lon="1.80504">
        <ele>158</ele>
        <time>2022-03-27T09:38:53Z</time>
      </trkpt>
      <trkpt lat="48.60013" lon="1.80504">
        <ele>158</ele>
        <time>2022-03-27T09:38:55Z</time>
      </trkpt>
      <trkpt lat="48.6001" lon="1.80503">
        <ele>158</ele>
        <time>2022-03-27T09:38:57Z</time>
      </trkpt>
      <trkpt lat="48.60007" lon="1.80503">
        <ele>158</ele>
        <time>2022-03-27T09:38:59Z</time>
      </trkpt>
      <trkpt lat="48.60003" lon="1.80502">
        <ele>158</ele>
        <time>2022-03-27T09:39:01Z</time>
      </trkpt>
      <trkpt lat="48.6" lon="1.80502">
        <ele>157</ele>
        <time>2022-03-27T09:39:03Z</time>
      </trkpt>
      <trkpt lat="48.59997" lon="1.80501">
        <ele>157</ele>
        <time>2022-03-27T09:39:05Z</time>
      </trkpt>
      <trkpt lat="48.59994" lon="1.805">
        <ele>157</ele>
        <time>2022-03-27T09:39:07Z</time>
      </trkpt>
      <trkpt lat="48.5999" lon="1.805">
        <ele>157</ele>
        <time>2022-03-27T09:39:09Z</time>
      </trkpt>
      <trkpt lat="48.59987" lon="1.80499">
        <ele>157</ele>
        <time>2022-03-27T09:39:11Z</time>
      </trkpt>
      <trkpt lat="48.59984" lon="1.80498">
        <ele>157</ele>
        <time>2022-03-27T09:39:13Z</time>
      </trkpt>
      <trkpt lat="48.5998" lon="1.80497">
        <ele>157</ele>
        <time>2022-03-27T09:39:15Z</time>
      </trkpt>
      <trkpt lat="48.59977" lon="1.80497">
        <ele>157</ele>
        <time>2022-03-27T09:39:17Z</time>
      </trkpt>
      <trkpt lat="48.59974" lon="1.80496">
        <ele>157</ele>
        <time>2022-03-27T09:39:19Z</time>
      </trkpt>
      <trkpt lat="48.5997" lon="1.80496">
        <ele>157</ele>
        <time>2022-03-27T09:39:21Z</time>
      </trkpt>
      <trkpt lat="48.59967" lon="1.80496">
        <ele>157</ele>
        <time>2022-03-27T09:39:24Z</time>
      </trkpt>
      <trkpt lat="48.59964" lon="1.80495">
        <ele>157</ele>
        <time>2022-03-27T09:39:25Z</time>
      </trkpt>
      <trkpt lat="48.5996" lon="1.80495">
        <ele>157</ele>
        <time>2022-03-27T09:39:27Z</time>
      </trkpt>
      <trkpt lat="48.59957" lon="1.80495">
        <ele>157</ele>
        <time>2022-03-27T09:39:29Z</time>
      </trkpt>
      <trkpt lat="48.59954" lon="1.80494">
        <ele>157</ele>
        <time>2022-03-27T09:39:31Z</time>
      </trkpt>
      <trkpt lat="48.5995" lon="1.80494">
        <ele>158</ele>
        <time>2022-03-27T09:39:33Z</time>
      </trkpt>
      <trkpt lat="48.59947" lon="1.80494">
        <ele>158</ele>
        <time>2022-03-27T09:39:35Z</time>
      </trkpt>
      <trkpt lat="48.59944" lon="1.80493">
        <ele>158</ele>
        <time>2022-03-27T09:39:37Z</time>
      </trkpt>
      <trkpt lat="48.5994" lon="1.80492">
        <ele>158</ele>
        <time>2022-03-27T09:39:39Z</time>
      </trkpt>
      <trkpt lat="48.59937" lon="1.80491">
        <ele>158</ele>
        <time>2022-03-27T09:39:41Z</time>
      </trkpt>
      <trkpt lat="48.59934" lon="1.80491">
        <ele>158</ele>
        <time>2022-03-27T09:39:43Z</time>
      </trkpt>
      <trkpt lat="48.59931" lon="1.80491">
        <ele>158</ele>
        <time>2022-03-27T09:39:45Z</time>
      </trkpt>
      <trkpt lat="48.59927" lon="1.8049">
        <ele>158</ele>
        <time>2022-03-27T09:39:47Z</time>
      </trkpt>
      <trkpt lat="48.59924" lon="1.80489">
        <ele>158</ele>
        <time>2022-03-27T09:39:49Z</time>
      </trkpt>
      <trkpt lat="48.59921" lon="1.80488">
        <ele>158</ele>
        <time>2022-03-27T09:39:51Z</time>
      </trkpt>
      <trkpt lat="48.59918" lon="1.80487">
        <ele>158</ele>
        <time>2022-03-27T09:39:53Z</time>
      </trkpt>
      <trkpt lat="48.59914" lon="1.80486">
        <ele>158</ele>
        <time>2022-03-27T09:39:55Z</time>
      </trkpt>
      <trkpt lat="48.59911" lon="1.80485">
        <ele>158</ele>
        <time>2022-03-27T09:39:57Z</time>
      </trkpt>
      <trkpt lat="48.59908" lon="1.80483">
        <ele>158</ele>
        <time>2022-03-27T09:39:59Z</time>
      </trkpt>
      <trkpt lat="48.59905" lon="1.80482">
        <ele>158</ele>
        <time>2022-03-27T09:40:01Z</time>
      </trkpt>
      <trkpt lat="48.59902" lon="1.80481">
        <ele>158</ele>
        <time>2022-03-27T09:40:03Z</time>
      </trkpt>
      <trkpt lat="48.59899" lon="1.8048">
        <ele>158</ele>
        <time>2022-03-27T09:40:05Z</time>
      </trkpt>
      <trkpt lat="48.59896" lon="1.80479">
        <ele>158</ele>
        <time>2022-03-27T09:40:07Z</time>
      </trkpt>
      <trkpt lat="48.59892" lon="1.80478">
        <ele>158</ele>
        <time>2022-03-27T09:40:09Z</time>
      </trkpt>
      <trkpt lat="48.59889" lon="1.80477">
        <ele>158</ele>
        <time>2022-03-27T09:40:11Z</time>
      </trkpt>
      <trkpt lat="48.59886" lon="1.80476">
        <ele>158</ele>
        <time>2022-03-27T09:40:13Z</time>
      </trkpt>
      <trkpt lat="48.59883" lon="1.80476">
        <ele>158</ele>
        <time>2022-03-27T09:40:15Z</time>
      </trkpt>
      <trkpt lat="48.5988" lon="1.80475">
        <ele>158</ele>
        <time>2022-03-27T09:40:17Z</time>
      </trkpt>
      <trkpt lat="48.59877" lon="1.80474">
        <ele>158</ele>
        <time>2022-03-27T09:40:19Z</time>
      </trkpt>
      <trkpt lat="48.59874" lon="1.80474">
        <ele>158</ele>
        <time>2022-03-27T09:40:21Z</time>
      </trkpt>
      <trkpt lat="48.59871" lon="1.80473">
        <ele>158</ele>
        <time>2022-03-27T09:40:23Z</time>
      </trkpt>
      <trkpt lat="48.59868" lon="1.80473">
        <ele>158</ele>
        <time>2022-03-27T09:40:25Z</time>
      </trkpt>
      <trkpt lat="48.59865" lon="1.80472">
        <ele>158</ele>
        <time>2022-03-27T09:40:27Z</time>
      </trkpt>
      <trkpt lat="48.59862" lon="1.80471">
        <ele>159</ele>
        <time>2022-03-27T09:40:29Z</time>
      </trkpt>
      <trkpt lat="48.59859" lon="1.80471">
        <ele>159</ele>
        <time>2022-03-27T09:40:31Z</time>
      </trkpt>
      <trkpt lat="48.59856" lon="1.80469">
        <ele>159</ele>
        <time>2022-03-27T09:40:33Z</time>
      </trkpt>
      <trkpt lat="48.59853" lon="1.80469">
        <ele>158</ele>
        <time>2022-03-27T09:40:35Z</time>
      </trkpt>
      <trkpt lat="48.5985" lon="1.80468">
        <ele>158</ele>
        <time>2022-03-27T09:40:37Z</time>
      </trkpt>
      <trkpt lat="48.59847" lon="1.80467">
        <ele>159</ele>
        <time>2022-03-27T09:40:40Z</time>
      </trkpt>
      <trkpt lat="48.59844" lon="1.80468">
        <ele>159</ele>
        <time>2022-03-27T09:40:41Z</time>
      </trkpt>
      <trkpt lat="48.59841" lon="1.80468">
        <ele>159</ele>
        <time>2022-03-27T09:40:43Z</time>
      </trkpt>
      <trkpt lat="48.59838" lon="1.80468">
        <ele>159</ele>
        <time>2022-03-27T09:40:45Z</time>
      </trkpt>
      <trkpt lat="48.59835" lon="1.80468">
        <ele>159</ele>
        <time>2022-03-27T09:40:47Z</time>
      </trkpt>
      <trkpt lat="48.59831" lon="1.80469">
        <ele>159</ele>
        <time>2022-03-27T09:40:49Z</time>
      </trkpt>
      <trkpt lat="48.59828" lon="1.80469">
        <ele>158</ele>
        <time>2022-03-27T09:40:51Z</time>
      </trkpt>
      <trkpt lat="48.59825" lon="1.8047">
        <ele>159</ele>
        <time>2022-03-27T09:40:53Z</time>
      </trkpt>
      <trkpt lat="48.59822" lon="1.80471">
        <ele>159</ele>
        <time>2022-03-27T09:40:55Z</time>
      </trkpt>
      <trkpt lat="48.5982" lon="1.80472">
        <ele>159</ele>
        <time>2022-03-27T09:40:56Z</time>
      </trkpt>
      <trkpt lat="48.59818" lon="1.80472">
        <ele>159</ele>
        <time>2022-03-27T09:40:57Z</time>
      </trkpt>
      <trkpt lat="48.59815" lon="1.80474">
        <ele>158</ele>
        <time>2022-03-27T09:40:59Z</time>
      </trkpt>
      <trkpt lat="48.59812" lon="1.80475">
        <ele>158</ele>
        <time>2022-03-27T09:41:01Z</time>
      </trkpt>
      <trkpt lat="48.59808" lon="1.80476">
        <ele>158</ele>
        <time>2022-03-27T09:41:03Z</time>
      </trkpt>
      <trkpt lat="48.59806" lon="1.80476">
        <ele>158</ele>
        <time>2022-03-27T09:41:05Z</time>
      </trkpt>
      <trkpt lat="48.59805" lon="1.80476">
        <ele>158</ele>
        <time>2022-03-27T09:41:05Z</time>
      </trkpt>
      <trkpt lat="48.59801" lon="1.80477">
        <ele>158</ele>
        <time>2022-03-27T09:41:07Z</time>
      </trkpt>
      <trkpt lat="48.59798" lon="1.80479">
        <ele>158</ele>
        <time>2022-03-27T09:41:09Z</time>
      </trkpt>
      <trkpt lat="48.59795" lon="1.8048">
        <ele>158</ele>
        <time>2022-03-27T09:41:11Z</time>
      </trkpt>
      <trkpt lat="48.59791" lon="1.80481">
        <ele>158</ele>
        <time>2022-03-27T09:41:13Z</time>
      </trkpt>
      <trkpt lat="48.59788" lon="1.80483">
        <ele>158</ele>
        <time>2022-03-27T09:41:15Z</time>
      </trkpt>
      <trkpt lat="48.59787" lon="1.80484">
        <ele>158</ele>
        <time>2022-03-27T09:41:16Z</time>
      </trkpt>
      <trkpt lat="48.59783" lon="1.80486">
        <ele>158</ele>
        <time>2022-03-27T09:41:18Z</time>
      </trkpt>
      <trkpt lat="48.59781" lon="1.80486">
        <ele>158</ele>
        <time>2022-03-27T09:41:19Z</time>
      </trkpt>
      <trkpt lat="48.5978" lon="1.80486">
        <ele>158</ele>
        <time>2022-03-27T09:41:20Z</time>
      </trkpt>
      <trkpt lat="48.59776" lon="1.80488">
        <ele>158</ele>
        <time>2022-03-27T09:41:22Z</time>
      </trkpt>
      <trkpt lat="48.59774" lon="1.80489">
        <ele>158</ele>
        <time>2022-03-27T09:41:23Z</time>
      </trkpt>
      <trkpt lat="48.59771" lon="1.8049">
        <ele>158</ele>
        <time>2022-03-27T09:41:25Z</time>
      </trkpt>
      <trkpt lat="48.59768" lon="1.80492">
        <ele>158</ele>
        <time>2022-03-27T09:41:27Z</time>
      </trkpt>
      <trkpt lat="48.59765" lon="1.80495">
        <ele>157</ele>
        <time>2022-03-27T09:41:29Z</time>
      </trkpt>
      <trkpt lat="48.59762" lon="1.80497">
        <ele>157</ele>
        <time>2022-03-27T09:41:31Z</time>
      </trkpt>
      <trkpt lat="48.59759" lon="1.80499">
        <ele>157</ele>
        <time>2022-03-27T09:41:33Z</time>
      </trkpt>
      <trkpt lat="48.59757" lon="1.80501">
        <ele>157</ele>
        <time>2022-03-27T09:41:35Z</time>
      </trkpt>
      <trkpt lat="48.59754" lon="1.80504">
        <ele>157</ele>
        <time>2022-03-27T09:41:37Z</time>
      </trkpt>
      <trkpt lat="48.59751" lon="1.80506">
        <ele>157</ele>
        <time>2022-03-27T09:41:39Z</time>
      </trkpt>
      <trkpt lat="48.59748" lon="1.80509">
        <ele>157</ele>
        <time>2022-03-27T09:41:41Z</time>
      </trkpt>
      <trkpt lat="48.59745" lon="1.80511">
        <ele>157</ele>
        <time>2022-03-27T09:41:43Z</time>
      </trkpt>
      <trkpt lat="48.59742" lon="1.80513">
        <ele>157</ele>
        <time>2022-03-27T09:41:45Z</time>
      </trkpt>
      <trkpt lat="48.59739" lon="1.80515">
        <ele>157</ele>
        <time>2022-03-27T09:41:47Z</time>
      </trkpt>
      <trkpt lat="48.59736" lon="1.80518">
        <ele>156</ele>
        <time>2022-03-27T09:41:49Z</time>
      </trkpt>
      <trkpt lat="48.59733" lon="1.8052">
        <ele>156</ele>
        <time>2022-03-27T09:41:51Z</time>
      </trkpt>
      <trkpt lat="48.5973" lon="1.80523">
        <ele>156</ele>
        <time>2022-03-27T09:41:53Z</time>
      </trkpt>
      <trkpt lat="48.59727" lon="1.80526">
        <ele>157</ele>
        <time>2022-03-27T09:41:55Z</time>
      </trkpt>
      <trkpt lat="48.59724" lon="1.80528">
        <ele>157</ele>
        <time>2022-03-27T09:41:57Z</time>
      </trkpt>
      <trkpt lat="48.59721" lon="1.8053">
        <ele>157</ele>
        <time>2022-03-27T09:41:59Z</time>
      </trkpt>
      <trkpt lat="48.59719" lon="1.80532">
        <ele>157</ele>
        <time>2022-03-27T09:42:01Z</time>
      </trkpt>
      <trkpt lat="48.59717" lon="1.80534">
        <ele>157</ele>
        <time>2022-03-27T09:42:04Z</time>
      </trkpt>
      <trkpt lat="48.59715" lon="1.80536">
        <ele>157</ele>
        <time>2022-03-27T09:42:07Z</time>
      </trkpt>
      <trkpt lat="48.59712" lon="1.80538">
        <ele>157</ele>
        <time>2022-03-27T09:42:09Z</time>
      </trkpt>
      <trkpt lat="48.59709" lon="1.8054">
        <ele>157</ele>
        <time>2022-03-27T09:42:11Z</time>
      </trkpt>
      <trkpt lat="48.59706" lon="1.80542">
        <ele>157</ele>
        <time>2022-03-27T09:42:13Z</time>
      </trkpt>
      <trkpt lat="48.59704" lon="1.80543">
        <ele>157</ele>
        <time>2022-03-27T09:42:15Z</time>
      </trkpt>
      <trkpt lat="48.597" lon="1.80545">
        <ele>158</ele>
        <time>2022-03-27T09:42:16Z</time>
      </trkpt>
      <trkpt lat="48.59697" lon="1.80546">
        <ele>158</ele>
        <time>2022-03-27T09:42:19Z</time>
      </trkpt>
      <trkpt lat="48.59694" lon="1.80548">
        <ele>158</ele>
        <time>2022-03-27T09:42:20Z</time>
      </trkpt>
      <trkpt lat="48.59691" lon="1.80549">
        <ele>158</ele>
        <time>2022-03-27T09:42:22Z</time>
      </trkpt>
      <trkpt lat="48.59689" lon="1.8055">
        <ele>158</ele>
        <time>2022-03-27T09:42:23Z</time>
      </trkpt>
      <trkpt lat="48.59686" lon="1.80552">
        <ele>158</ele>
        <time>2022-03-27T09:42:25Z</time>
      </trkpt>
      <trkpt lat="48.59684" lon="1.80553">
        <ele>158</ele>
        <time>2022-03-27T09:42:26Z</time>
      </trkpt>
      <trkpt lat="48.59681" lon="1.80555">
        <ele>158</ele>
        <time>2022-03-27T09:42:28Z</time>
      </trkpt>
      <trkpt lat="48.59677" lon="1.80556">
        <ele>158</ele>
        <time>2022-03-27T09:42:30Z</time>
      </trkpt>
      <trkpt lat="48.59675" lon="1.80556">
        <ele>158</ele>
        <time>2022-03-27T09:42:31Z</time>
      </trkpt>
      <trkpt lat="48.59673" lon="1.80556">
        <ele>159</ele>
        <time>2022-03-27T09:42:32Z</time>
      </trkpt>
      <trkpt lat="48.59672" lon="1.80557">
        <ele>159</ele>
        <time>2022-03-27T09:42:33Z</time>
      </trkpt>
      <trkpt lat="48.59669" lon="1.80559">
        <ele>159</ele>
        <time>2022-03-27T09:42:35Z</time>
      </trkpt>
      <trkpt lat="48.59665" lon="1.80561">
        <ele>159</ele>
        <time>2022-03-27T09:42:37Z</time>
      </trkpt>
      <trkpt lat="48.59662" lon="1.80562">
        <ele>159</ele>
        <time>2022-03-27T09:42:39Z</time>
      </trkpt>
      <trkpt lat="48.59659" lon="1.80563">
        <ele>159</ele>
        <time>2022-03-27T09:42:41Z</time>
      </trkpt>
      <trkpt lat="48.59655" lon="1.80565">
        <ele>159</ele>
        <time>2022-03-27T09:42:43Z</time>
      </trkpt>
      <trkpt lat="48.59652" lon="1.80566">
        <ele>159</ele>
        <time>2022-03-27T09:42:45Z</time>
      </trkpt>
      <trkpt lat="48.59649" lon="1.80567">
        <ele>159</ele>
        <time>2022-03-27T09:42:47Z</time>
      </trkpt>
      <trkpt lat="48.59645" lon="1.80569">
        <ele>159</ele>
        <time>2022-03-27T09:42:49Z</time>
      </trkpt>
      <trkpt lat="48.59642" lon="1.8057">
        <ele>159</ele>
        <time>2022-03-27T09:42:51Z</time>
      </trkpt>
      <trkpt lat="48.59638" lon="1.80571">
        <ele>159</ele>
        <time>2022-03-27T09:42:53Z</time>
      </trkpt>
      <trkpt lat="48.59637" lon="1.80572">
        <ele>159</ele>
        <time>2022-03-27T09:42:54Z</time>
      </trkpt>
      <trkpt lat="48.59633" lon="1.80573">
        <ele>159</ele>
        <time>2022-03-27T09:42:56Z</time>
      </trkpt>
      <trkpt lat="48.5963" lon="1.80573">
        <ele>159</ele>
        <time>2022-03-27T09:42:58Z</time>
      </trkpt>
      <trkpt lat="48.59626" lon="1.80574">
        <ele>159</ele>
        <time>2022-03-27T09:43:00Z</time>
      </trkpt>
      <trkpt lat="48.59623" lon="1.80576">
        <ele>159</ele>
        <time>2022-03-27T09:43:02Z</time>
      </trkpt>
      <trkpt lat="48.5962" lon="1.80577">
        <ele>159</ele>
        <time>2022-03-27T09:43:04Z</time>
      </trkpt>
      <trkpt lat="48.59616" lon="1.80579">
        <ele>159</ele>
        <time>2022-03-27T09:43:06Z</time>
      </trkpt>
      <trkpt lat="48.59613" lon="1.8058">
        <ele>159</ele>
        <time>2022-03-27T09:43:08Z</time>
      </trkpt>
      <trkpt lat="48.5961" lon="1.80581">
        <ele>159</ele>
        <time>2022-03-27T09:43:10Z</time>
      </trkpt>
      <trkpt lat="48.59606" lon="1.80581">
        <ele>159</ele>
        <time>2022-03-27T09:43:12Z</time>
      </trkpt>
      <trkpt lat="48.59603" lon="1.80583">
        <ele>159</ele>
        <time>2022-03-27T09:43:14Z</time>
      </trkpt>
      <trkpt lat="48.596" lon="1.80584">
        <ele>158</ele>
        <time>2022-03-27T09:43:16Z</time>
      </trkpt>
      <trkpt lat="48.59597" lon="1.80585">
        <ele>158</ele>
        <time>2022-03-27T09:43:18Z</time>
      </trkpt>
      <trkpt lat="48.59594" lon="1.80586">
        <ele>158</ele>
        <time>2022-03-27T09:43:20Z</time>
      </trkpt>
      <trkpt lat="48.5959" lon="1.80587">
        <ele>158</ele>
        <time>2022-03-27T09:43:22Z</time>
      </trkpt>
      <trkpt lat="48.59587" lon="1.80588">
        <ele>158</ele>
        <time>2022-03-27T09:43:24Z</time>
      </trkpt>
      <trkpt lat="48.59584" lon="1.80589">
        <ele>158</ele>
        <time>2022-03-27T09:43:26Z</time>
      </trkpt>
      <trkpt lat="48.5958" lon="1.8059">
        <ele>157</ele>
        <time>2022-03-27T09:43:28Z</time>
      </trkpt>
      <trkpt lat="48.59577" lon="1.80591">
        <ele>157</ele>
        <time>2022-03-27T09:43:31Z</time>
      </trkpt>
      <trkpt lat="48.59574" lon="1.80591">
        <ele>157</ele>
        <time>2022-03-27T09:43:32Z</time>
      </trkpt>
      <trkpt lat="48.5957" lon="1.80592">
        <ele>157</ele>
        <time>2022-03-27T09:43:34Z</time>
      </trkpt>
      <trkpt lat="48.59567" lon="1.80592">
        <ele>156</ele>
        <time>2022-03-27T09:43:36Z</time>
      </trkpt>
      <trkpt lat="48.59564" lon="1.80593">
        <ele>156</ele>
        <time>2022-03-27T09:43:38Z</time>
      </trkpt>
      <trkpt lat="48.5956" lon="1.80594">
        <ele>156</ele>
        <time>2022-03-27T09:43:40Z</time>
      </trkpt>
      <trkpt lat="48.59557" lon="1.80594">
        <ele>157</ele>
        <time>2022-03-27T09:43:42Z</time>
      </trkpt>
      <trkpt lat="48.59553" lon="1.80594">
        <ele>156</ele>
        <time>2022-03-27T09:43:44Z</time>
      </trkpt>
      <trkpt lat="48.5955" lon="1.80594">
        <ele>156</ele>
        <time>2022-03-27T09:43:46Z</time>
      </trkpt>
      <trkpt lat="48.59547" lon="1.80594">
        <ele>156</ele>
        <time>2022-03-27T09:43:48Z</time>
      </trkpt>
      <trkpt lat="48.59545" lon="1.80594">
        <ele>156</ele>
        <time>2022-03-27T09:43:50Z</time>
      </trkpt>
      <trkpt lat="48.59542" lon="1.80593">
        <ele>157</ele>
        <time>2022-03-27T09:43:52Z</time>
      </trkpt>
      <trkpt lat="48.59539" lon="1.80593">
        <ele>157</ele>
        <time>2022-03-27T09:43:54Z</time>
      </trkpt>
      <trkpt lat="48.59536" lon="1.80593">
        <ele>157</ele>
        <time>2022-03-27T09:43:56Z</time>
      </trkpt>
      <trkpt lat="48.59532" lon="1.80593">
        <ele>157</ele>
        <time>2022-03-27T09:43:58Z</time>
      </trkpt>
      <trkpt lat="48.59531" lon="1.80593">
        <ele>157</ele>
        <time>2022-03-27T09:43:59Z</time>
      </trkpt>
      <trkpt lat="48.59527" lon="1.80592">
        <ele>157</ele>
        <time>2022-03-27T09:44:01Z</time>
      </trkpt>
      <trkpt lat="48.59525" lon="1.80592">
        <ele>157</ele>
        <time>2022-03-27T09:44:02Z</time>
      </trkpt>
      <trkpt lat="48.59523" lon="1.80592">
        <ele>157</ele>
        <time>2022-03-27T09:44:04Z</time>
      </trkpt>
      <trkpt lat="48.59521" lon="1.80592">
        <ele>157</ele>
        <time>2022-03-27T09:44:04Z</time>
      </trkpt>
      <trkpt lat="48.59518" lon="1.80591">
        <ele>157</ele>
        <time>2022-03-27T09:44:05Z</time>
      </trkpt>
      <trkpt lat="48.59515" lon="1.80591">
        <ele>157</ele>
        <time>2022-03-27T09:44:06Z</time>
      </trkpt>
      <trkpt lat="48.59512" lon="1.80591">
        <ele>157</ele>
        <time>2022-03-27T09:44:07Z</time>
      </trkpt>
      <trkpt lat="48.5951" lon="1.8059">
        <ele>157</ele>
        <time>2022-03-27T09:44:08Z</time>
      </trkpt>
      <trkpt lat="48.59507" lon="1.8059">
        <ele>157</ele>
        <time>2022-03-27T09:44:09Z</time>
      </trkpt>
      <trkpt lat="48.59504" lon="1.80589">
        <ele>157</ele>
        <time>2022-03-27T09:44:10Z</time>
      </trkpt>
      <trkpt lat="48.59501" lon="1.80589">
        <ele>157</ele>
        <time>2022-03-27T09:44:11Z</time>
      </trkpt>
      <trkpt lat="48.59498" lon="1.80589">
        <ele>157</ele>
        <time>2022-03-27T09:44:12Z</time>
      </trkpt>
      <trkpt lat="48.59495" lon="1.80588">
        <ele>157</ele>
        <time>2022-03-27T09:44:13Z</time>
      </trkpt>
      <trkpt lat="48.59492" lon="1.80588">
        <ele>157</ele>
        <time>2022-03-27T09:44:14Z</time>
      </trkpt>
      <trkpt lat="48.59489" lon="1.80588">
        <ele>157</ele>
        <time>2022-03-27T09:44:15Z</time>
      </trkpt>
      <trkpt lat="48.59487" lon="1.80587">
        <ele>157</ele>
        <time>2022-03-27T09:44:16Z</time>
      </trkpt>
      <trkpt lat="48.59485" lon="1.80585">
        <ele>157</ele>
        <time>2022-03-27T09:44:18Z</time>
      </trkpt>
      <trkpt lat="48.59482" lon="1.80584">
        <ele>157</ele>
        <time>2022-03-27T09:44:32Z</time>
      </trkpt>
      <trkpt lat="48.59479" lon="1.80584">
        <ele>157</ele>
        <time>2022-03-27T09:44:34Z</time>
      </trkpt>
      <trkpt lat="48.59477" lon="1.80584">
        <ele>157</ele>
        <time>2022-03-27T09:44:35Z</time>
      </trkpt>
      <trkpt lat="48.59474" lon="1.80583">
        <ele>157</ele>
        <time>2022-03-27T09:44:36Z</time>
      </trkpt>
      <trkpt lat="48.59471" lon="1.80583">
        <ele>157</ele>
        <time>2022-03-27T09:44:38Z</time>
      </trkpt>
      <trkpt lat="48.59468" lon="1.80582">
        <ele>157</ele>
        <time>2022-03-27T09:44:38Z</time>
      </trkpt>
      <trkpt lat="48.59465" lon="1.80582">
        <ele>157</ele>
        <time>2022-03-27T09:44:39Z</time>
      </trkpt>
      <trkpt lat="48.59462" lon="1.80581">
        <ele>157</ele>
        <time>2022-03-27T09:44:40Z</time>
      </trkpt>
      <trkpt lat="48.59459" lon="1.8058">
        <ele>157</ele>
        <time>2022-03-27T09:44:41Z</time>
      </trkpt>
      <trkpt lat="48.59455" lon="1.8058">
        <ele>157</ele>
        <time>2022-03-27T09:44:42Z</time>
      </trkpt>
      <trkpt lat="48.59452" lon="1.8058">
        <ele>157</ele>
        <time>2022-03-27T09:44:43Z</time>
      </trkpt>
      <trkpt lat="48.59448" lon="1.80579">
        <ele>157</ele>
        <time>2022-03-27T09:44:44Z</time>
      </trkpt>
      <trkpt lat="48.59445" lon="1.80579">
        <ele>157</ele>
        <time>2022-03-27T09:44:45Z</time>
      </trkpt>
      <trkpt lat="48.59441" lon="1.80579">
        <ele>157</ele>
        <time>2022-03-27T09:44:47Z</time>
      </trkpt>
      <trkpt lat="48.59437" lon="1.80578">
        <ele>157</ele>
        <time>2022-03-27T09:44:47Z</time>
      </trkpt>
      <trkpt lat="48.59434" lon="1.80578">
        <ele>157</ele>
        <time>2022-03-27T09:44:48Z</time>
      </trkpt>
      <trkpt lat="48.5943" lon="1.80577">
        <ele>157</ele>
        <time>2022-03-27T09:44:49Z</time>
      </trkpt>
      <trkpt lat="48.59426" lon="1.80576">
        <ele>158</ele>
        <time>2022-03-27T09:44:50Z</time>
      </trkpt>
      <trkpt lat="48.59422" lon="1.80576">
        <ele>158</ele>
        <time>2022-03-27T09:44:51Z</time>
      </trkpt>
      <trkpt lat="48.59418" lon="1.80575">
        <ele>158</ele>
        <time>2022-03-27T09:44:52Z</time>
      </trkpt>
      <trkpt lat="48.59415" lon="1.80575">
        <ele>158</ele>
        <time>2022-03-27T09:44:53Z</time>
      </trkpt>
      <trkpt lat="48.59411" lon="1.80574">
        <ele>158</ele>
        <time>2022-03-27T09:44:54Z</time>
      </trkpt>
      <trkpt lat="48.59407" lon="1.80574">
        <ele>158</ele>
        <time>2022-03-27T09:44:55Z</time>
      </trkpt>
      <trkpt lat="48.59403" lon="1.80574">
        <ele>158</ele>
        <time>2022-03-27T09:44:56Z</time>
      </trkpt>
      <trkpt lat="48.594" lon="1.80574">
        <ele>158</ele>
        <time>2022-03-27T09:44:58Z</time>
      </trkpt>
      <trkpt lat="48.59396" lon="1.80573">
        <ele>158</ele>
        <time>2022-03-27T09:44:58Z</time>
      </trkpt>
      <trkpt lat="48.59392" lon="1.80573">
        <ele>158</ele>
        <time>2022-03-27T09:44:59Z</time>
      </trkpt>
      <trkpt lat="48.59389" lon="1.80573">
        <ele>158</ele>
        <time>2022-03-27T09:45:00Z</time>
      </trkpt>
      <trkpt lat="48.59385" lon="1.80572">
        <ele>158</ele>
        <time>2022-03-27T09:45:01Z</time>
      </trkpt>
      <trkpt lat="48.59381" lon="1.80572">
        <ele>158</ele>
        <time>2022-03-27T09:45:02Z</time>
      </trkpt>
      <trkpt lat="48.59377" lon="1.80572">
        <ele>158</ele>
        <time>2022-03-27T09:45:03Z</time>
      </trkpt>
      <trkpt lat="48.59374" lon="1.80571">
        <ele>158</ele>
        <time>2022-03-27T09:45:04Z</time>
      </trkpt>
      <trkpt lat="48.5937" lon="1.80571">
        <ele>159</ele>
        <time>2022-03-27T09:45:06Z</time>
      </trkpt>
      <trkpt lat="48.59367" lon="1.8057">
        <ele>159</ele>
        <time>2022-03-27T09:45:06Z</time>
      </trkpt>
      <trkpt lat="48.59363" lon="1.80569">
        <ele>159</ele>
        <time>2022-03-27T09:45:07Z</time>
      </trkpt>
      <trkpt lat="48.59359" lon="1.80568">
        <ele>159</ele>
        <time>2022-03-27T09:45:08Z</time>
      </trkpt>
      <trkpt lat="48.59356" lon="1.80567">
        <ele>159</ele>
        <time>2022-03-27T09:45:09Z</time>
      </trkpt>
      <trkpt lat="48.59352" lon="1.80565">
        <ele>159</ele>
        <time>2022-03-27T09:45:10Z</time>
      </trkpt>
      <trkpt lat="48.59349" lon="1.80564">
        <ele>159</ele>
        <time>2022-03-27T09:45:11Z</time>
      </trkpt>
      <trkpt lat="48.59345" lon="1.80563">
        <ele>159</ele>
        <time>2022-03-27T09:45:12Z</time>
      </trkpt>
      <trkpt lat="48.59342" lon="1.80562">
        <ele>159</ele>
        <time>2022-03-27T09:45:13Z</time>
      </trkpt>
      <trkpt lat="48.59339" lon="1.80561">
        <ele>159</ele>
        <time>2022-03-27T09:45:14Z</time>
      </trkpt>
      <trkpt lat="48.59335" lon="1.80559">
        <ele>159</ele>
        <time>2022-03-27T09:45:15Z</time>
      </trkpt>
      <trkpt lat="48.59332" lon="1.80558">
        <ele>159</ele>
        <time>2022-03-27T09:45:16Z</time>
      </trkpt>
      <trkpt lat="48.59329" lon="1.80556">
        <ele>159</ele>
        <time>2022-03-27T09:45:17Z</time>
      </trkpt>
      <trkpt lat="48.59325" lon="1.80554">
        <ele>159</ele>
        <time>2022-03-27T09:45:18Z</time>
      </trkpt>
      <trkpt lat="48.59321" lon="1.80552">
        <ele>159</ele>
        <time>2022-03-27T09:45:19Z</time>
      </trkpt>
      <trkpt lat="48.59317" lon="1.8055">
        <ele>159</ele>
        <time>2022-03-27T09:45:20Z</time>
      </trkpt>
      <trkpt lat="48.59313" lon="1.80548">
        <ele>159</ele>
        <time>2022-03-27T09:45:21Z</time>
      </trkpt>
      <trkpt lat="48.59309" lon="1.80546">
        <ele>159</ele>
        <time>2022-03-27T09:45:22Z</time>
      </trkpt>
      <trkpt lat="48.59306" lon="1.80544">
        <ele>159</ele>
        <time>2022-03-27T09:45:23Z</time>
      </trkpt>
      <trkpt lat="48.59302" lon="1.80542">
        <ele>159</ele>
        <time>2022-03-27T09:45:25Z</time>
      </trkpt>
      <trkpt lat="48.59299" lon="1.80539">
        <ele>159</ele>
        <time>2022-03-27T09:45:25Z</time>
      </trkpt>
      <trkpt lat="48.59295" lon="1.80537">
        <ele>160</ele>
        <time>2022-03-27T09:45:26Z</time>
      </trkpt>
      <trkpt lat="48.59291" lon="1.80535">
        <ele>160</ele>
        <time>2022-03-27T09:45:27Z</time>
      </trkpt>
      <trkpt lat="48.59287" lon="1.80533">
        <ele>160</ele>
        <time>2022-03-27T09:45:28Z</time>
      </trkpt>
      <trkpt lat="48.59283" lon="1.80531">
        <ele>160</ele>
        <time>2022-03-27T09:45:29Z</time>
      </trkpt>
      <trkpt lat="48.59279" lon="1.80528">
        <ele>160</ele>
        <time>2022-03-27T09:45:30Z</time>
      </trkpt>
      <trkpt lat="48.59276" lon="1.80526">
        <ele>160</ele>
        <time>2022-03-27T09:45:31Z</time>
      </trkpt>
      <trkpt lat="48.59272" lon="1.80524">
        <ele>160</ele>
        <time>2022-03-27T09:45:32Z</time>
      </trkpt>
      <trkpt lat="48.59268" lon="1.80522">
        <ele>160</ele>
        <time>2022-03-27T09:45:33Z</time>
      </trkpt>
      <trkpt lat="48.59264" lon="1.8052">
        <ele>160</ele>
        <time>2022-03-27T09:45:34Z</time>
      </trkpt>
      <trkpt lat="48.59261" lon="1.80518">
        <ele>160</ele>
        <time>2022-03-27T09:45:35Z</time>
      </trkpt>
      <trkpt lat="48.59258" lon="1.80515">
        <ele>160</ele>
        <time>2022-03-27T09:45:36Z</time>
      </trkpt>
      <trkpt lat="48.59255" lon="1.80513">
        <ele>160</ele>
        <time>2022-03-27T09:45:37Z</time>
      </trkpt>
      <trkpt lat="48.59252" lon="1.8051">
        <ele>160</ele>
        <time>2022-03-27T09:45:38Z</time>
      </trkpt>
      <trkpt lat="48.59249" lon="1.80508">
        <ele>160</ele>
        <time>2022-03-27T09:45:39Z</time>
      </trkpt>
      <trkpt lat="48.59247" lon="1.80506">
        <ele>160</ele>
        <time>2022-03-27T09:45:40Z</time>
      </trkpt>
      <trkpt lat="48.59244" lon="1.80504">
        <ele>161</ele>
        <time>2022-03-27T09:45:41Z</time>
      </trkpt>
      <trkpt lat="48.59242" lon="1.80502">
        <ele>161</ele>
        <time>2022-03-27T09:45:42Z</time>
      </trkpt>
      <trkpt lat="48.5924" lon="1.80501">
        <ele>161</ele>
        <time>2022-03-27T09:45:44Z</time>
      </trkpt>
      <trkpt lat="48.59238" lon="1.80499">
        <ele>160</ele>
        <time>2022-03-27T09:45:44Z</time>
      </trkpt>
      <trkpt lat="48.59236" lon="1.80498">
        <ele>160</ele>
        <time>2022-03-27T09:45:45Z</time>
      </trkpt>
      <trkpt lat="48.59232" lon="1.80496">
        <ele>160</ele>
        <time>2022-03-27T09:45:47Z</time>
      </trkpt>
      <trkpt lat="48.5923" lon="1.80496">
        <ele>160</ele>
        <time>2022-03-27T09:45:48Z</time>
      </trkpt>
      <trkpt lat="48.59227" lon="1.80496">
        <ele>160</ele>
        <time>2022-03-27T09:45:50Z</time>
      </trkpt>
      <trkpt lat="48.59224" lon="1.80498">
        <ele>159</ele>
        <time>2022-03-27T09:45:52Z</time>
      </trkpt>
      <trkpt lat="48.59222" lon="1.805">
        <ele>159</ele>
        <time>2022-03-27T09:45:53Z</time>
      </trkpt>
      <trkpt lat="48.59221" lon="1.80502">
        <ele>160</ele>
        <time>2022-03-27T09:45:54Z</time>
      </trkpt>
      <trkpt lat="48.59219" lon="1.80506">
        <ele>160</ele>
        <time>2022-03-27T09:45:56Z</time>
      </trkpt>
      <trkpt lat="48.59217" lon="1.80508">
        <ele>160</ele>
        <time>2022-03-27T09:45:57Z</time>
      </trkpt>
      <trkpt lat="48.59216" lon="1.80511">
        <ele>160</ele>
        <time>2022-03-27T09:45:58Z</time>
      </trkpt>
      <trkpt lat="48.59215" lon="1.80513">
        <ele>160</ele>
        <time>2022-03-27T09:45:59Z</time>
      </trkpt>
      <trkpt lat="48.59214" lon="1.80518">
        <ele>160</ele>
        <time>2022-03-27T09:46:01Z</time>
      </trkpt>
      <trkpt lat="48.59213" lon="1.8052">
        <ele>160</ele>
        <time>2022-03-27T09:46:02Z</time>
      </trkpt>
      <trkpt lat="48.59211" lon="1.80525">
        <ele>160</ele>
        <time>2022-03-27T09:46:04Z</time>
      </trkpt>
      <trkpt lat="48.5921" lon="1.80528">
        <ele>160</ele>
        <time>2022-03-27T09:46:05Z</time>
      </trkpt>
      <trkpt lat="48.59209" lon="1.80532">
        <ele>160</ele>
        <time>2022-03-27T09:46:07Z</time>
      </trkpt>
      <trkpt lat="48.59208" lon="1.80534">
        <ele>160</ele>
        <time>2022-03-27T09:46:08Z</time>
      </trkpt>
      <trkpt lat="48.59206" lon="1.80539">
        <ele>160</ele>
        <time>2022-03-27T09:46:10Z</time>
      </trkpt>
      <trkpt lat="48.59204" lon="1.80543">
        <ele>160</ele>
        <time>2022-03-27T09:46:12Z</time>
      </trkpt>
      <trkpt lat="48.59203" lon="1.80546">
        <ele>160</ele>
        <time>2022-03-27T09:46:13Z</time>
      </trkpt>
      <trkpt lat="48.59201" lon="1.8055">
        <ele>160</ele>
        <time>2022-03-27T09:46:15Z</time>
      </trkpt>
      <trkpt lat="48.592" lon="1.80554">
        <ele>160</ele>
        <time>2022-03-27T09:46:17Z</time>
      </trkpt>
      <trkpt lat="48.59198" lon="1.80558">
        <ele>160</ele>
        <time>2022-03-27T09:46:19Z</time>
      </trkpt>
      <trkpt lat="48.59196" lon="1.80562">
        <ele>160</ele>
        <time>2022-03-27T09:46:22Z</time>
      </trkpt>
      <trkpt lat="48.59195" lon="1.80567">
        <ele>160</ele>
        <time>2022-03-27T09:46:23Z</time>
      </trkpt>
      <trkpt lat="48.59193" lon="1.80571">
        <ele>160</ele>
        <time>2022-03-27T09:46:25Z</time>
      </trkpt>
      <trkpt lat="48.59191" lon="1.80576">
        <ele>160</ele>
        <time>2022-03-27T09:46:27Z</time>
      </trkpt>
      <trkpt lat="48.59189" lon="1.8058">
        <ele>160</ele>
        <time>2022-03-27T09:46:29Z</time>
      </trkpt>
      <trkpt lat="48.59188" lon="1.80584">
        <ele>160</ele>
        <time>2022-03-27T09:46:31Z</time>
      </trkpt>
      <trkpt lat="48.59186" lon="1.80589">
        <ele>160</ele>
        <time>2022-03-27T09:46:33Z</time>
      </trkpt>
      <trkpt lat="48.59184" lon="1.80593">
        <ele>159</ele>
        <time>2022-03-27T09:46:35Z</time>
      </trkpt>
      <trkpt lat="48.59182" lon="1.80598">
        <ele>159</ele>
        <time>2022-03-27T09:46:37Z</time>
      </trkpt>
      <trkpt lat="48.59181" lon="1.80602">
        <ele>159</ele>
        <time>2022-03-27T09:46:39Z</time>
      </trkpt>
      <trkpt lat="48.59179" lon="1.80606">
        <ele>159</ele>
        <time>2022-03-27T09:46:41Z</time>
      </trkpt>
      <trkpt lat="48.59177" lon="1.80611">
        <ele>159</ele>
        <time>2022-03-27T09:46:43Z</time>
      </trkpt>
      <trkpt lat="48.59176" lon="1.80615">
        <ele>159</ele>
        <time>2022-03-27T09:46:45Z</time>
      </trkpt>
      <trkpt lat="48.59174" lon="1.8062">
        <ele>159</ele>
        <time>2022-03-27T09:46:47Z</time>
      </trkpt>
      <trkpt lat="48.59173" lon="1.80624">
        <ele>159</ele>
        <time>2022-03-27T09:46:49Z</time>
      </trkpt>
      <trkpt lat="48.59171" lon="1.80628">
        <ele>159</ele>
        <time>2022-03-27T09:46:51Z</time>
      </trkpt>
      <trkpt lat="48.59169" lon="1.80632">
        <ele>159</ele>
        <time>2022-03-27T09:46:53Z</time>
      </trkpt>
      <trkpt lat="48.59167" lon="1.80636">
        <ele>159</ele>
        <time>2022-03-27T09:46:55Z</time>
      </trkpt>
      <trkpt lat="48.59166" lon="1.80641">
        <ele>158</ele>
        <time>2022-03-27T09:46:57Z</time>
      </trkpt>
      <trkpt lat="48.59164" lon="1.80645">
        <ele>158</ele>
        <time>2022-03-27T09:46:59Z</time>
      </trkpt>
      <trkpt lat="48.59162" lon="1.80649">
        <ele>158</ele>
        <time>2022-03-27T09:47:01Z</time>
      </trkpt>
      <trkpt lat="48.59161" lon="1.80654">
        <ele>159</ele>
        <time>2022-03-27T09:47:03Z</time>
      </trkpt>
      <trkpt lat="48.59159" lon="1.80658">
        <ele>159</ele>
        <time>2022-03-27T09:47:05Z</time>
      </trkpt>
      <trkpt lat="48.59158" lon="1.80663">
        <ele>159</ele>
        <time>2022-03-27T09:47:07Z</time>
      </trkpt>
      <trkpt lat="48.59156" lon="1.80667">
        <ele>159</ele>
        <time>2022-03-27T09:47:09Z</time>
      </trkpt>
      <trkpt lat="48.59154" lon="1.80671">
        <ele>159</ele>
        <time>2022-03-27T09:47:11Z</time>
      </trkpt>
      <trkpt lat="48.59153" lon="1.80675">
        <ele>159</ele>
        <time>2022-03-27T09:47:13Z</time>
      </trkpt>
      <trkpt lat="48.59151" lon="1.8068">
        <ele>159</ele>
        <time>2022-03-27T09:47:15Z</time>
      </trkpt>
      <trkpt lat="48.5915" lon="1.80684">
        <ele>159</ele>
        <time>2022-03-27T09:47:17Z</time>
      </trkpt>
      <trkpt lat="48.59148" lon="1.80688">
        <ele>159</ele>
        <time>2022-03-27T09:47:19Z</time>
      </trkpt>
      <trkpt lat="48.59147" lon="1.80692">
        <ele>160</ele>
        <time>2022-03-27T09:47:21Z</time>
      </trkpt>
      <trkpt lat="48.59145" lon="1.80696">
        <ele>160</ele>
        <time>2022-03-27T09:47:23Z</time>
      </trkpt>
      <trkpt lat="48.59144" lon="1.807">
        <ele>160</ele>
        <time>2022-03-27T09:47:25Z</time>
      </trkpt>
      <trkpt lat="48.59142" lon="1.80704">
        <ele>160</ele>
        <time>2022-03-27T09:47:27Z</time>
      </trkpt>
      <trkpt lat="48.59141" lon="1.80708">
        <ele>160</ele>
        <time>2022-03-27T09:47:29Z</time>
      </trkpt>
      <trkpt lat="48.5914" lon="1.80713">
        <ele>161</ele>
        <time>2022-03-27T09:47:31Z</time>
      </trkpt>
      <trkpt lat="48.59138" lon="1.80716">
        <ele>161</ele>
        <time>2022-03-27T09:47:33Z</time>
      </trkpt>
      <trkpt lat="48.59137" lon="1.8072">
        <ele>161</ele>
        <time>2022-03-27T09:47:35Z</time>
      </trkpt>
      <trkpt lat="48.59136" lon="1.80724">
        <ele>161</ele>
        <time>2022-03-27T09:47:38Z</time>
      </trkpt>
      <trkpt lat="48.59135" lon="1.80728">
        <ele>162</ele>
        <time>2022-03-27T09:47:39Z</time>
      </trkpt>
      <trkpt lat="48.59133" lon="1.80732">
        <ele>162</ele>
        <time>2022-03-27T09:47:41Z</time>
      </trkpt>
      <trkpt lat="48.59132" lon="1.80736">
        <ele>162</ele>
        <time>2022-03-27T09:47:43Z</time>
      </trkpt>
      <trkpt lat="48.5913" lon="1.8074">
        <ele>163</ele>
        <time>2022-03-27T09:47:45Z</time>
      </trkpt>
      <trkpt lat="48.59129" lon="1.80744">
        <ele>163</ele>
        <time>2022-03-27T09:47:47Z</time>
      </trkpt>
      <trkpt lat="48.59127" lon="1.80748">
        <ele>163</ele>
        <time>2022-03-27T09:47:49Z</time>
      </trkpt>
      <trkpt lat="48.59125" lon="1.80752">
        <ele>163</ele>
        <time>2022-03-27T09:47:51Z</time>
      </trkpt>
      <trkpt lat="48.59124" lon="1.80756">
        <ele>163</ele>
        <time>2022-03-27T09:47:53Z</time>
      </trkpt>
      <trkpt lat="48.59122" lon="1.8076">
        <ele>164</ele>
        <time>2022-03-27T09:47:55Z</time>
      </trkpt>
      <trkpt lat="48.59119" lon="1.80763">
        <ele>163</ele>
        <time>2022-03-27T09:47:57Z</time>
      </trkpt>
      <trkpt lat="48.59117" lon="1.80765">
        <ele>162</ele>
        <time>2022-03-27T09:47:58Z</time>
      </trkpt>
      <trkpt lat="48.59116" lon="1.80767">
        <ele>162</ele>
        <time>2022-03-27T09:47:59Z</time>
      </trkpt>
      <trkpt lat="48.59114" lon="1.80772">
        <ele>161</ele>
        <time>2022-03-27T09:48:01Z</time>
      </trkpt>
      <trkpt lat="48.59112" lon="1.80775">
        <ele>161</ele>
        <time>2022-03-27T09:48:03Z</time>
      </trkpt>
      <trkpt lat="48.5911" lon="1.8078">
        <ele>161</ele>
        <time>2022-03-27T09:48:05Z</time>
      </trkpt>
      <trkpt lat="48.59109" lon="1.80784">
        <ele>161</ele>
        <time>2022-03-27T09:48:07Z</time>
      </trkpt>
      <trkpt lat="48.59108" lon="1.80789">
        <ele>161</ele>
        <time>2022-03-27T09:48:09Z</time>
      </trkpt>
      <trkpt lat="48.59107" lon="1.80793">
        <ele>161</ele>
        <time>2022-03-27T09:48:11Z</time>
      </trkpt>
      <trkpt lat="48.59105" lon="1.80797">
        <ele>161</ele>
        <time>2022-03-27T09:48:13Z</time>
      </trkpt>
      <trkpt lat="48.59103" lon="1.80801">
        <ele>160</ele>
        <time>2022-03-27T09:48:16Z</time>
      </trkpt>
      <trkpt lat="48.59102" lon="1.80804">
        <ele>160</ele>
        <time>2022-03-27T09:48:17Z</time>
      </trkpt>
      <trkpt lat="48.591" lon="1.80808">
        <ele>161</ele>
        <time>2022-03-27T09:48:19Z</time>
      </trkpt>
      <trkpt lat="48.59099" lon="1.80812">
        <ele>161</ele>
        <time>2022-03-27T09:48:21Z</time>
      </trkpt>
      <trkpt lat="48.59098" lon="1.80816">
        <ele>160</ele>
        <time>2022-03-27T09:48:23Z</time>
      </trkpt>
      <trkpt lat="48.59095" lon="1.8082">
        <ele>161</ele>
        <time>2022-03-27T09:48:25Z</time>
      </trkpt>
      <trkpt lat="48.59093" lon="1.80823">
        <ele>160</ele>
        <time>2022-03-27T09:48:27Z</time>
      </trkpt>
      <trkpt lat="48.59091" lon="1.80825">
        <ele>159</ele>
        <time>2022-03-27T09:48:28Z</time>
      </trkpt>
      <trkpt lat="48.5909" lon="1.80826">
        <ele>159</ele>
        <time>2022-03-27T09:48:29Z</time>
      </trkpt>
      <trkpt lat="48.59088" lon="1.8083">
        <ele>158</ele>
        <time>2022-03-27T09:48:31Z</time>
      </trkpt>
      <trkpt lat="48.59086" lon="1.80833">
        <ele>158</ele>
        <time>2022-03-27T09:48:33Z</time>
      </trkpt>
      <trkpt lat="48.59085" lon="1.80837">
        <ele>157</ele>
        <time>2022-03-27T09:48:35Z</time>
      </trkpt>
      <trkpt lat="48.59082" lon="1.8084">
        <ele>157</ele>
        <time>2022-03-27T09:48:37Z</time>
      </trkpt>
      <trkpt lat="48.5908" lon="1.80844">
        <ele>157</ele>
        <time>2022-03-27T09:48:39Z</time>
      </trkpt>
      <trkpt lat="48.59079" lon="1.80847">
        <ele>157</ele>
        <time>2022-03-27T09:48:41Z</time>
      </trkpt>
      <trkpt lat="48.59077" lon="1.80851">
        <ele>157</ele>
        <time>2022-03-27T09:48:43Z</time>
      </trkpt>
      <trkpt lat="48.59074" lon="1.80855">
        <ele>157</ele>
        <time>2022-03-27T09:48:45Z</time>
      </trkpt>
      <trkpt lat="48.59072" lon="1.80858">
        <ele>158</ele>
        <time>2022-03-27T09:48:47Z</time>
      </trkpt>
      <trkpt lat="48.59069" lon="1.80862">
        <ele>158</ele>
        <time>2022-03-27T09:48:49Z</time>
      </trkpt>
      <trkpt lat="48.59066" lon="1.80865">
        <ele>158</ele>
        <time>2022-03-27T09:48:51Z</time>
      </trkpt>
      <trkpt lat="48.59063" lon="1.80868">
        <ele>158</ele>
        <time>2022-03-27T09:48:53Z</time>
      </trkpt>
      <trkpt lat="48.5906" lon="1.8087">
        <ele>157</ele>
        <time>2022-03-27T09:48:55Z</time>
      </trkpt>
      <trkpt lat="48.59058" lon="1.80872">
        <ele>158</ele>
        <time>2022-03-27T09:48:57Z</time>
      </trkpt>
      <trkpt lat="48.59055" lon="1.80874">
        <ele>158</ele>
        <time>2022-03-27T09:48:59Z</time>
      </trkpt>
      <trkpt lat="48.59052" lon="1.80876">
        <ele>158</ele>
        <time>2022-03-27T09:49:01Z</time>
      </trkpt>
      <trkpt lat="48.59049" lon="1.80877">
        <ele>158</ele>
        <time>2022-03-27T09:49:03Z</time>
      </trkpt>
      <trkpt lat="48.59046" lon="1.80877">
        <ele>158</ele>
        <time>2022-03-27T09:49:05Z</time>
      </trkpt>
      <trkpt lat="48.59043" lon="1.80878">
        <ele>158</ele>
        <time>2022-03-27T09:49:07Z</time>
      </trkpt>
      <trkpt lat="48.5904" lon="1.80877">
        <ele>158</ele>
        <time>2022-03-27T09:49:09Z</time>
      </trkpt>
      <trkpt lat="48.59038" lon="1.80876">
        <ele>158</ele>
        <time>2022-03-27T09:49:10Z</time>
      </trkpt>
      <trkpt lat="48.59036" lon="1.80876">
        <ele>158</ele>
        <time>2022-03-27T09:49:11Z</time>
      </trkpt>
      <trkpt lat="48.59033" lon="1.80875">
        <ele>158</ele>
        <time>2022-03-27T09:49:13Z</time>
      </trkpt>
      <trkpt lat="48.5903" lon="1.80874">
        <ele>157</ele>
        <time>2022-03-27T09:49:15Z</time>
      </trkpt>
      <trkpt lat="48.59027" lon="1.80873">
        <ele>157</ele>
        <time>2022-03-27T09:49:17Z</time>
      </trkpt>
      <trkpt lat="48.59023" lon="1.80872">
        <ele>157</ele>
        <time>2022-03-27T09:49:19Z</time>
      </trkpt>
      <trkpt lat="48.59022" lon="1.80871">
        <ele>157</ele>
        <time>2022-03-27T09:49:20Z</time>
      </trkpt>
      <trkpt lat="48.59019" lon="1.80869">
        <ele>157</ele>
        <time>2022-03-27T09:49:22Z</time>
      </trkpt>
      <trkpt lat="48.59016" lon="1.80866">
        <ele>156</ele>
        <time>2022-03-27T09:49:24Z</time>
      </trkpt>
      <trkpt lat="48.59014" lon="1.80862">
        <ele>156</ele>
        <time>2022-03-27T09:49:26Z</time>
      </trkpt>
      <trkpt lat="48.59012" lon="1.80858">
        <ele>155</ele>
        <time>2022-03-27T09:49:28Z</time>
      </trkpt>
      <trkpt lat="48.5901" lon="1.80854">
        <ele>155</ele>
        <time>2022-03-27T09:49:30Z</time>
      </trkpt>
      <trkpt lat="48.59008" lon="1.80852">
        <ele>155</ele>
        <time>2022-03-27T09:49:31Z</time>
      </trkpt>
      <trkpt lat="48.59006" lon="1.80849">
        <ele>155</ele>
        <time>2022-03-27T09:49:33Z</time>
      </trkpt>
      <trkpt lat="48.59004" lon="1.80848">
        <ele>154</ele>
        <time>2022-03-27T09:49:34Z</time>
      </trkpt>
      <trkpt lat="48.59002" lon="1.80846">
        <ele>155</ele>
        <time>2022-03-27T09:49:35Z</time>
      </trkpt>
      <trkpt lat="48.59" lon="1.80842">
        <ele>155</ele>
        <time>2022-03-27T09:49:37Z</time>
      </trkpt>
      <trkpt lat="48.58998" lon="1.80838">
        <ele>154</ele>
        <time>2022-03-27T09:49:39Z</time>
      </trkpt>
      <trkpt lat="48.58996" lon="1.80834">
        <ele>154</ele>
        <time>2022-03-27T09:49:41Z</time>
      </trkpt>
      <trkpt lat="48.58995" lon="1.8083">
        <ele>154</ele>
        <time>2022-03-27T09:49:43Z</time>
      </trkpt>
      <trkpt lat="48.58993" lon="1.80827">
        <ele>154</ele>
        <time>2022-03-27T09:49:45Z</time>
      </trkpt>
      <trkpt lat="48.5899" lon="1.80823">
        <ele>154</ele>
        <time>2022-03-27T09:49:47Z</time>
      </trkpt>
      <trkpt lat="48.58989" lon="1.80819">
        <ele>154</ele>
        <time>2022-03-27T09:49:49Z</time>
      </trkpt>
      <trkpt lat="48.58987" lon="1.80815">
        <ele>154</ele>
        <time>2022-03-27T09:49:51Z</time>
      </trkpt>
      <trkpt lat="48.58985" lon="1.80811">
        <ele>154</ele>
        <time>2022-03-27T09:49:53Z</time>
      </trkpt>
      <trkpt lat="48.58983" lon="1.80807">
        <ele>154</ele>
        <time>2022-03-27T09:49:55Z</time>
      </trkpt>
      <trkpt lat="48.58981" lon="1.80804">
        <ele>154</ele>
        <time>2022-03-27T09:49:57Z</time>
      </trkpt>
      <trkpt lat="48.5898" lon="1.808">
        <ele>154</ele>
        <time>2022-03-27T09:49:59Z</time>
      </trkpt>
      <trkpt lat="48.58978" lon="1.80796">
        <ele>154</ele>
        <time>2022-03-27T09:50:01Z</time>
      </trkpt>
      <trkpt lat="48.58976" lon="1.80793">
        <ele>154</ele>
        <time>2022-03-27T09:50:03Z</time>
      </trkpt>
      <trkpt lat="48.58975" lon="1.8079">
        <ele>154</ele>
        <time>2022-03-27T09:50:05Z</time>
      </trkpt>
      <trkpt lat="48.58973" lon="1.80787">
        <ele>154</ele>
        <time>2022-03-27T09:50:07Z</time>
      </trkpt>
      <trkpt lat="48.5897" lon="1.80784">
        <ele>154</ele>
        <time>2022-03-27T09:50:09Z</time>
      </trkpt>
      <trkpt lat="48.58967" lon="1.80781">
        <ele>154</ele>
        <time>2022-03-27T09:50:11Z</time>
      </trkpt>
      <trkpt lat="48.58965" lon="1.8078">
        <ele>154</ele>
        <time>2022-03-27T09:50:13Z</time>
      </trkpt>
      <trkpt lat="48.58962" lon="1.80779">
        <ele>154</ele>
        <time>2022-03-27T09:50:15Z</time>
      </trkpt>
      <trkpt lat="48.58959" lon="1.80777">
        <ele>154</ele>
        <time>2022-03-27T09:50:17Z</time>
      </trkpt>
      <trkpt lat="48.58957" lon="1.80775">
        <ele>154</ele>
        <time>2022-03-27T09:50:18Z</time>
      </trkpt>
      <trkpt lat="48.58955" lon="1.80774">
        <ele>154</ele>
        <time>2022-03-27T09:50:19Z</time>
      </trkpt>
      <trkpt lat="48.58953" lon="1.80773">
        <ele>154</ele>
        <time>2022-03-27T09:50:20Z</time>
      </trkpt>
      <trkpt lat="48.5895" lon="1.80773">
        <ele>153</ele>
        <time>2022-03-27T09:50:22Z</time>
      </trkpt>
      <trkpt lat="48.58946" lon="1.80772">
        <ele>153</ele>
        <time>2022-03-27T09:50:24Z</time>
      </trkpt>
      <trkpt lat="48.58943" lon="1.80772">
        <ele>153</ele>
        <time>2022-03-27T09:50:26Z</time>
      </trkpt>
      <trkpt lat="48.5894" lon="1.80771">
        <ele>153</ele>
        <time>2022-03-27T09:50:28Z</time>
      </trkpt>
      <trkpt lat="48.58937" lon="1.80771">
        <ele>153</ele>
        <time>2022-03-27T09:50:30Z</time>
      </trkpt>
      <trkpt lat="48.58934" lon="1.80771">
        <ele>153</ele>
        <time>2022-03-27T09:50:32Z</time>
      </trkpt>
      <trkpt lat="48.58931" lon="1.8077">
        <ele>153</ele>
        <time>2022-03-27T09:50:34Z</time>
      </trkpt>
      <trkpt lat="48.58929" lon="1.80769">
        <ele>153</ele>
        <time>2022-03-27T09:50:36Z</time>
      </trkpt>
      <trkpt lat="48.58926" lon="1.80769">
        <ele>154</ele>
        <time>2022-03-27T09:50:38Z</time>
      </trkpt>
      <trkpt lat="48.58922" lon="1.80769">
        <ele>154</ele>
        <time>2022-03-27T09:50:40Z</time>
      </trkpt>
      <trkpt lat="48.5892" lon="1.8077">
        <ele>154</ele>
        <time>2022-03-27T09:50:42Z</time>
      </trkpt>
      <trkpt lat="48.58917" lon="1.80771">
        <ele>154</ele>
        <time>2022-03-27T09:50:44Z</time>
      </trkpt>
      <trkpt lat="48.58913" lon="1.80772">
        <ele>153</ele>
        <time>2022-03-27T09:50:46Z</time>
      </trkpt>
      <trkpt lat="48.5891" lon="1.80773">
        <ele>153</ele>
        <time>2022-03-27T09:50:48Z</time>
      </trkpt>
      <trkpt lat="48.58909" lon="1.80774">
        <ele>153</ele>
        <time>2022-03-27T09:50:49Z</time>
      </trkpt>
      <trkpt lat="48.58906" lon="1.80775">
        <ele>152</ele>
        <time>2022-03-27T09:50:51Z</time>
      </trkpt>
      <trkpt lat="48.58904" lon="1.80774">
        <ele>152</ele>
        <time>2022-03-27T09:50:54Z</time>
      </trkpt>
      <trkpt lat="48.58902" lon="1.80773">
        <ele>152</ele>
        <time>2022-03-27T09:50:56Z</time>
      </trkpt>
      <trkpt lat="48.58899" lon="1.80771">
        <ele>152</ele>
        <time>2022-03-27T09:50:58Z</time>
      </trkpt>
      <trkpt lat="48.58898" lon="1.8077">
        <ele>151</ele>
        <time>2022-03-27T09:51:00Z</time>
      </trkpt>
      <trkpt lat="48.58897" lon="1.80767">
        <ele>151</ele>
        <time>2022-03-27T09:51:13Z</time>
      </trkpt>
      <trkpt lat="48.58897" lon="1.80764">
        <ele>151</ele>
        <time>2022-03-27T09:51:15Z</time>
      </trkpt>
      <trkpt lat="48.58898" lon="1.80761">
        <ele>151</ele>
        <time>2022-03-27T09:51:18Z</time>
      </trkpt>
      <trkpt lat="48.58898" lon="1.80757">
        <ele>151</ele>
        <time>2022-03-27T09:51:21Z</time>
      </trkpt>
      <trkpt lat="48.589" lon="1.80753">
        <ele>150</ele>
        <time>2022-03-27T09:51:23Z</time>
      </trkpt>
      <trkpt lat="48.58898" lon="1.80754">
        <ele>149</ele>
        <time>2022-03-27T09:51:50Z</time>
      </trkpt>
      <trkpt lat="48.58899" lon="1.80757">
        <ele>148</ele>
        <time>2022-03-27T09:51:53Z</time>
      </trkpt>
      <trkpt lat="48.58898" lon="1.8076">
        <ele>148</ele>
        <time>2022-03-27T09:52:04Z</time>
      </trkpt>
      <trkpt lat="48.589" lon="1.80759">
        <ele>147</ele>
        <time>2022-03-27T09:52:15Z</time>
      </trkpt>
      <trkpt lat="48.58901" lon="1.80755">
        <ele>147</ele>
        <time>2022-03-27T09:52:18Z</time>
      </trkpt>
      <trkpt lat="48.58902" lon="1.80751">
        <ele>147</ele>
        <time>2022-03-27T09:52:22Z</time>
      </trkpt>
      <trkpt lat="48.58902" lon="1.80748">
        <ele>148</ele>
        <time>2022-03-27T09:52:37Z</time>
      </trkpt>
      <trkpt lat="48.58901" lon="1.80745">
        <ele>148</ele>
        <time>2022-03-27T09:52:45Z</time>
      </trkpt>
      <trkpt lat="48.589" lon="1.80743">
        <ele>149</ele>
        <time>2022-03-27T09:52:48Z</time>
      </trkpt>
      <trkpt lat="48.58898" lon="1.80744">
        <ele>149</ele>
        <time>2022-03-27T09:53:04Z</time>
      </trkpt>
      <trkpt lat="48.58897" lon="1.80746">
        <ele>150</ele>
        <time>2022-03-27T09:53:08Z</time>
      </trkpt>
      <trkpt lat="48.58894" lon="1.80748">
        <ele>151</ele>
        <time>2022-03-27T09:53:10Z</time>
      </trkpt>
      <trkpt lat="48.58892" lon="1.80749">
        <ele>151</ele>
        <time>2022-03-27T09:53:11Z</time>
      </trkpt>
      <trkpt lat="48.5889" lon="1.8075">
        <ele>152</ele>
        <time>2022-03-27T09:53:13Z</time>
      </trkpt>
      <trkpt lat="48.58889" lon="1.80752">
        <ele>153</ele>
        <time>2022-03-27T09:53:20Z</time>
      </trkpt>
      <trkpt lat="48.58891" lon="1.80756">
        <ele>153</ele>
        <time>2022-03-27T09:53:33Z</time>
      </trkpt>
      <trkpt lat="48.58893" lon="1.80753">
        <ele>152</ele>
        <time>2022-03-27T09:53:43Z</time>
      </trkpt>
      <trkpt lat="48.58893" lon="1.80749">
        <ele>151</ele>
        <time>2022-03-27T09:53:46Z</time>
      </trkpt>
      <trkpt lat="48.58895" lon="1.80743">
        <ele>151</ele>
        <time>2022-03-27T09:54:07Z</time>
      </trkpt>
      <trkpt lat="48.58896" lon="1.80741">
        <ele>152</ele>
        <time>2022-03-27T09:54:08Z</time>
      </trkpt>
      <trkpt lat="48.58898" lon="1.80741">
        <ele>153</ele>
        <time>2022-03-27T09:54:17Z</time>
      </trkpt>
      <trkpt lat="48.58898" lon="1.80744">
        <ele>152</ele>
        <time>2022-03-27T09:54:31Z</time>
      </trkpt>
      <trkpt lat="48.58896" lon="1.80745">
        <ele>151</ele>
        <time>2022-03-27T09:54:36Z</time>
      </trkpt>
      <trkpt lat="48.58897" lon="1.80748">
        <ele>150</ele>
        <time>2022-03-27T09:54:38Z</time>
      </trkpt>
      <trkpt lat="48.58897" lon="1.8075">
        <ele>149</ele>
        <time>2022-03-27T09:54:44Z</time>
      </trkpt>
      <trkpt lat="48.58897" lon="1.80747">
        <ele>149</ele>
        <time>2022-03-27T09:54:49Z</time>
      </trkpt>
      <trkpt lat="48.58899" lon="1.80743">
        <ele>149</ele>
        <time>2022-03-27T09:54:51Z</time>
      </trkpt>
      <trkpt lat="48.58901" lon="1.80744">
        <ele>149</ele>
        <time>2022-03-27T09:54:54Z</time>
      </trkpt>
      <trkpt lat="48.58903" lon="1.80746">
        <ele>148</ele>
        <time>2022-03-27T09:54:56Z</time>
      </trkpt>
      <trkpt lat="48.58901" lon="1.80746">
        <ele>148</ele>
        <time>2022-03-27T09:55:04Z</time>
      </trkpt>
      <trkpt lat="48.58899" lon="1.80745">
        <ele>148</ele>
        <time>2022-03-27T09:55:13Z</time>
      </trkpt>
      <trkpt lat="48.58897" lon="1.80745">
        <ele>148</ele>
        <time>2022-03-27T09:55:19Z</time>
      </trkpt>
      <trkpt lat="48.58895" lon="1.80744">
        <ele>148</ele>
        <time>2022-03-27T09:55:22Z</time>
      </trkpt>
      <trkpt lat="48.58893" lon="1.80745">
        <ele>148</ele>
        <time>2022-03-27T09:55:26Z</time>
      </trkpt>
      <trkpt lat="48.58892" lon="1.80748">
        <ele>148</ele>
        <time>2022-03-27T09:55:31Z</time>
      </trkpt>
      <trkpt lat="48.58893" lon="1.80745">
        <ele>148</ele>
        <time>2022-03-27T09:55:37Z</time>
      </trkpt>
      <trkpt lat="48.58893" lon="1.80742">
        <ele>147</ele>
        <time>2022-03-27T09:56:03Z</time>
      </trkpt>
      <trkpt lat="48.58895" lon="1.8074">
        <ele>148</ele>
        <time>2022-03-27T09:56:27Z</time>
      </trkpt>
      <trkpt lat="48.58897" lon="1.80739">
        <ele>148</ele>
        <time>2022-03-27T09:56:29Z</time>
      </trkpt>
      <trkpt lat="48.58898" lon="1.80742">
        <ele>147</ele>
        <time>2022-03-27T09:56:42Z</time>
      </trkpt>
      <trkpt lat="48.58899" lon="1.80745">
        <ele>147</ele>
        <time>2022-03-27T09:56:44Z</time>
      </trkpt>
      <trkpt lat="48.589" lon="1.80748">
        <ele>147</ele>
        <time>2022-03-27T09:56:49Z</time>
      </trkpt>
      <trkpt lat="48.589" lon="1.8075">
        <ele>148</ele>
        <time>2022-03-27T09:56:57Z</time>
      </trkpt>
      <trkpt lat="48.58902" lon="1.80754">
        <ele>148</ele>
        <time>2022-03-27T09:57:02Z</time>
      </trkpt>
      <trkpt lat="48.58903" lon="1.80758">
        <ele>148</ele>
        <time>2022-03-27T09:57:04Z</time>
      </trkpt>
      <trkpt lat="48.58902" lon="1.8075">
        <ele>149</ele>
        <time>2022-03-27T09:57:21Z</time>
      </trkpt>
      <trkpt lat="48.58901" lon="1.80745">
        <ele>149</ele>
        <time>2022-03-27T09:57:22Z</time>
      </trkpt>
      <trkpt lat="48.58901" lon="1.80748">
        <ele>148</ele>
        <time>2022-03-27T09:57:42Z</time>
      </trkpt>
      <trkpt lat="48.58902" lon="1.80745">
        <ele>145</ele>
        <time>2022-03-27T09:57:52Z</time>
      </trkpt>
      <trkpt lat="48.589" lon="1.8075">
        <ele>146</ele>
        <time>2022-03-27T09:57:59Z</time>
      </trkpt>
      <trkpt lat="48.58902" lon="1.8075">
        <ele>145</ele>
        <time>2022-03-27T09:58:06Z</time>
      </trkpt>
      <trkpt lat="48.58904" lon="1.80748">
        <ele>145</ele>
        <time>2022-03-27T09:58:09Z</time>
      </trkpt>
      <trkpt lat="48.58905" lon="1.80746">
        <ele>145</ele>
        <time>2022-03-27T09:58:12Z</time>
      </trkpt>
      <trkpt lat="48.58907" lon="1.80744">
        <ele>145</ele>
        <time>2022-03-27T09:58:15Z</time>
      </trkpt>
      <trkpt lat="48.58908" lon="1.80741">
        <ele>145</ele>
        <time>2022-03-27T09:58:18Z</time>
      </trkpt>
      <trkpt lat="48.58908" lon="1.80738">
        <ele>146</ele>
        <time>2022-03-27T09:58:24Z</time>
      </trkpt>
      <trkpt lat="48.58906" lon="1.80739">
        <ele>147</ele>
        <time>2022-03-27T09:58:29Z</time>
      </trkpt>
      <trkpt lat="48.58904" lon="1.80741">
        <ele>147</ele>
        <time>2022-03-27T09:58:31Z</time>
      </trkpt>
      <trkpt lat="48.58902" lon="1.80744">
        <ele>147</ele>
        <time>2022-03-27T09:58:33Z</time>
      </trkpt>
      <trkpt lat="48.58901" lon="1.80747">
        <ele>147</ele>
        <time>2022-03-27T09:58:35Z</time>
      </trkpt>
      <trkpt lat="48.58899" lon="1.8075">
        <ele>147</ele>
        <time>2022-03-27T09:58:37Z</time>
      </trkpt>
      <trkpt lat="48.58898" lon="1.80752">
        <ele>146</ele>
        <time>2022-03-27T09:58:39Z</time>
      </trkpt>
      <trkpt lat="48.589" lon="1.80752">
        <ele>145</ele>
        <time>2022-03-27T09:58:55Z</time>
      </trkpt>
      <trkpt lat="48.58902" lon="1.80751">
        <ele>145</ele>
        <time>2022-03-27T09:59:06Z</time>
      </trkpt>
      <trkpt lat="48.58904" lon="1.8075">
        <ele>145</ele>
        <time>2022-03-27T09:59:08Z</time>
      </trkpt>
      <trkpt lat="48.58906" lon="1.80748">
        <ele>145</ele>
        <time>2022-03-27T09:59:10Z</time>
      </trkpt>
      <trkpt lat="48.58908" lon="1.80747">
        <ele>145</ele>
        <time>2022-03-27T09:59:12Z</time>
      </trkpt>
      <trkpt lat="48.58909" lon="1.80744">
        <ele>146</ele>
        <time>2022-03-27T09:59:17Z</time>
      </trkpt>
      <trkpt lat="48.58911" lon="1.80744">
        <ele>146</ele>
        <time>2022-03-27T09:59:22Z</time>
      </trkpt>
      <trkpt lat="48.58909" lon="1.80743">
        <ele>147</ele>
        <time>2022-03-27T09:59:45Z</time>
      </trkpt>
      <trkpt lat="48.58907" lon="1.80743">
        <ele>147</ele>
        <time>2022-03-27T09:59:47Z</time>
      </trkpt>
      <trkpt lat="48.58905" lon="1.80745">
        <ele>148</ele>
        <time>2022-03-27T09:59:49Z</time>
      </trkpt>
      <trkpt lat="48.58903" lon="1.80748">
        <ele>148</ele>
        <time>2022-03-27T09:59:51Z</time>
      </trkpt>
      <trkpt lat="48.58904" lon="1.80751">
        <ele>148</ele>
        <time>2022-03-27T09:59:54Z</time>
      </trkpt>
      <trkpt lat="48.58906" lon="1.80751">
        <ele>149</ele>
        <time>2022-03-27T09:59:57Z</time>
      </trkpt>
      <trkpt lat="48.58904" lon="1.80758">
        <ele>148</ele>
        <time>2022-03-27T10:00:05Z</time>
      </trkpt>
      <trkpt lat="48.58903" lon="1.80762">
        <ele>148</ele>
        <time>2022-03-27T10:00:07Z</time>
      </trkpt>
      <trkpt lat="48.58903" lon="1.80767">
        <ele>147</ele>
        <time>2022-03-27T10:00:09Z</time>
      </trkpt>
      <trkpt lat="48.58903" lon="1.80771">
        <ele>147</ele>
        <time>2022-03-27T10:00:11Z</time>
      </trkpt>
      <trkpt lat="48.58902" lon="1.80775">
        <ele>147</ele>
        <time>2022-03-27T10:00:13Z</time>
      </trkpt>
      <trkpt lat="48.589" lon="1.80779">
        <ele>146</ele>
        <time>2022-03-27T10:00:15Z</time>
      </trkpt>
      <trkpt lat="48.58898" lon="1.80783">
        <ele>146</ele>
        <time>2022-03-27T10:00:17Z</time>
      </trkpt>
      <trkpt lat="48.58895" lon="1.80786">
        <ele>147</ele>
        <time>2022-03-27T10:00:19Z</time>
      </trkpt>
      <trkpt lat="48.58893" lon="1.80789">
        <ele>146</ele>
        <time>2022-03-27T10:00:21Z</time>
      </trkpt>
      <trkpt lat="48.5889" lon="1.80792">
        <ele>147</ele>
        <time>2022-03-27T10:00:23Z</time>
      </trkpt>
      <trkpt lat="48.58889" lon="1.80795">
        <ele>147</ele>
        <time>2022-03-27T10:00:25Z</time>
      </trkpt>
      <trkpt lat="48.58887" lon="1.80797">
        <ele>147</ele>
        <time>2022-03-27T10:00:27Z</time>
      </trkpt>
      <trkpt lat="48.58885" lon="1.808">
        <ele>147</ele>
        <time>2022-03-27T10:00:29Z</time>
      </trkpt>
      <trkpt lat="48.58883" lon="1.80803">
        <ele>147</ele>
        <time>2022-03-27T10:00:31Z</time>
      </trkpt>
      <trkpt lat="48.58882" lon="1.80807">
        <ele>147</ele>
        <time>2022-03-27T10:00:33Z</time>
      </trkpt>
      <trkpt lat="48.58881" lon="1.8081">
        <ele>147</ele>
        <time>2022-03-27T10:00:35Z</time>
      </trkpt>
      <trkpt lat="48.58879" lon="1.80814">
        <ele>147</ele>
        <time>2022-03-27T10:00:37Z</time>
      </trkpt>
      <trkpt lat="48.58878" lon="1.80818">
        <ele>147</ele>
        <time>2022-03-27T10:00:39Z</time>
      </trkpt>
      <trkpt lat="48.58878" lon="1.80822">
        <ele>148</ele>
        <time>2022-03-27T10:00:41Z</time>
      </trkpt>
      <trkpt lat="48.58877" lon="1.80826">
        <ele>148</ele>
        <time>2022-03-27T10:00:43Z</time>
      </trkpt>
      <trkpt lat="48.58876" lon="1.8083">
        <ele>148</ele>
        <time>2022-03-27T10:00:45Z</time>
      </trkpt>
      <trkpt lat="48.58876" lon="1.80835">
        <ele>148</ele>
        <time>2022-03-27T10:00:47Z</time>
      </trkpt>
      <trkpt lat="48.58876" lon="1.80839">
        <ele>148</ele>
        <time>2022-03-27T10:00:49Z</time>
      </trkpt>
      <trkpt lat="48.58877" lon="1.80844">
        <ele>148</ele>
        <time>2022-03-27T10:00:51Z</time>
      </trkpt>
      <trkpt lat="48.58877" lon="1.80848">
        <ele>148</ele>
        <time>2022-03-27T10:00:53Z</time>
      </trkpt>
      <trkpt lat="48.58877" lon="1.80853">
        <ele>148</ele>
        <time>2022-03-27T10:00:56Z</time>
      </trkpt>
      <trkpt lat="48.58878" lon="1.80857">
        <ele>148</ele>
        <time>2022-03-27T10:00:57Z</time>
      </trkpt>
      <trkpt lat="48.58878" lon="1.80861">
        <ele>148</ele>
        <time>2022-03-27T10:00:59Z</time>
      </trkpt>
      <trkpt lat="48.58879" lon="1.80866">
        <ele>148</ele>
        <time>2022-03-27T10:01:01Z</time>
      </trkpt>
      <trkpt lat="48.58879" lon="1.8087">
        <ele>148</ele>
        <time>2022-03-27T10:01:03Z</time>
      </trkpt>
      <trkpt lat="48.5888" lon="1.80873">
        <ele>148</ele>
        <time>2022-03-27T10:01:05Z</time>
      </trkpt>
      <trkpt lat="48.5888" lon="1.80877">
        <ele>147</ele>
        <time>2022-03-27T10:01:07Z</time>
      </trkpt>
      <trkpt lat="48.58881" lon="1.80882">
        <ele>147</ele>
        <time>2022-03-27T10:01:09Z</time>
      </trkpt>
      <trkpt lat="48.58881" lon="1.80886">
        <ele>147</ele>
        <time>2022-03-27T10:01:11Z</time>
      </trkpt>
      <trkpt lat="48.58881" lon="1.80891">
        <ele>147</ele>
        <time>2022-03-27T10:01:13Z</time>
      </trkpt>
      <trkpt lat="48.58882" lon="1.80895">
        <ele>147</ele>
        <time>2022-03-27T10:01:15Z</time>
      </trkpt>
      <trkpt lat="48.58882" lon="1.80899">
        <ele>147</ele>
        <time>2022-03-27T10:01:17Z</time>
      </trkpt>
      <trkpt lat="48.58882" lon="1.80904">
        <ele>147</ele>
        <time>2022-03-27T10:01:19Z</time>
      </trkpt>
      <trkpt lat="48.58883" lon="1.80909">
        <ele>147</ele>
        <time>2022-03-27T10:01:21Z</time>
      </trkpt>
      <trkpt lat="48.58883" lon="1.80913">
        <ele>147</ele>
        <time>2022-03-27T10:01:23Z</time>
      </trkpt>
      <trkpt lat="48.58883" lon="1.80918">
        <ele>147</ele>
        <time>2022-03-27T10:01:25Z</time>
      </trkpt>
      <trkpt lat="48.58883" lon="1.80923">
        <ele>147</ele>
        <time>2022-03-27T10:01:27Z</time>
      </trkpt>
      <trkpt lat="48.58883" lon="1.80927">
        <ele>147</ele>
        <time>2022-03-27T10:01:29Z</time>
      </trkpt>
      <trkpt lat="48.58883" lon="1.80932">
        <ele>147</ele>
        <time>2022-03-27T10:01:31Z</time>
      </trkpt>
      <trkpt lat="48.58883" lon="1.80937">
        <ele>147</ele>
        <time>2022-03-27T10:01:33Z</time>
      </trkpt>
      <trkpt lat="48.58883" lon="1.80942">
        <ele>147</ele>
        <time>2022-03-27T10:01:35Z</time>
      </trkpt>
      <trkpt lat="48.58882" lon="1.80947">
        <ele>147</ele>
        <time>2022-03-27T10:01:37Z</time>
      </trkpt>
      <trkpt lat="48.58882" lon="1.80951">
        <ele>148</ele>
        <time>2022-03-27T10:01:39Z</time>
      </trkpt>
      <trkpt lat="48.58881" lon="1.80955">
        <ele>148</ele>
        <time>2022-03-27T10:01:41Z</time>
      </trkpt>
      <trkpt lat="48.5888" lon="1.8096">
        <ele>148</ele>
        <time>2022-03-27T10:01:43Z</time>
      </trkpt>
      <trkpt lat="48.58878" lon="1.80964">
        <ele>148</ele>
        <time>2022-03-27T10:01:45Z</time>
      </trkpt>
      <trkpt lat="48.58877" lon="1.80968">
        <ele>148</ele>
        <time>2022-03-27T10:01:47Z</time>
      </trkpt>
      <trkpt lat="48.58876" lon="1.80972">
        <ele>148</ele>
        <time>2022-03-27T10:01:49Z</time>
      </trkpt>
      <trkpt lat="48.58874" lon="1.80976">
        <ele>148</ele>
        <time>2022-03-27T10:01:51Z</time>
      </trkpt>
      <trkpt lat="48.58872" lon="1.8098">
        <ele>148</ele>
        <time>2022-03-27T10:01:53Z</time>
      </trkpt>
      <trkpt lat="48.58871" lon="1.80984">
        <ele>148</ele>
        <time>2022-03-27T10:01:55Z</time>
      </trkpt>
      <trkpt lat="48.58869" lon="1.80988">
        <ele>148</ele>
        <time>2022-03-27T10:01:57Z</time>
      </trkpt>
      <trkpt lat="48.58868" lon="1.80992">
        <ele>148</ele>
        <time>2022-03-27T10:01:59Z</time>
      </trkpt>
      <trkpt lat="48.58866" lon="1.80996">
        <ele>148</ele>
        <time>2022-03-27T10:02:01Z</time>
      </trkpt>
      <trkpt lat="48.58864" lon="1.81">
        <ele>149</ele>
        <time>2022-03-27T10:02:03Z</time>
      </trkpt>
      <trkpt lat="48.58862" lon="1.81003">
        <ele>149</ele>
        <time>2022-03-27T10:02:05Z</time>
      </trkpt>
      <trkpt lat="48.5886" lon="1.81007">
        <ele>149</ele>
        <time>2022-03-27T10:02:07Z</time>
      </trkpt>
      <trkpt lat="48.58858" lon="1.8101">
        <ele>149</ele>
        <time>2022-03-27T10:02:09Z</time>
      </trkpt>
      <trkpt lat="48.58856" lon="1.81013">
        <ele>149</ele>
        <time>2022-03-27T10:02:11Z</time>
      </trkpt>
      <trkpt lat="48.58854" lon="1.81016">
        <ele>149</ele>
        <time>2022-03-27T10:02:13Z</time>
      </trkpt>
      <trkpt lat="48.58852" lon="1.81019">
        <ele>150</ele>
        <time>2022-03-27T10:02:15Z</time>
      </trkpt>
      <trkpt lat="48.58849" lon="1.81021">
        <ele>150</ele>
        <time>2022-03-27T10:02:17Z</time>
      </trkpt>
      <trkpt lat="48.58846" lon="1.81024">
        <ele>150</ele>
        <time>2022-03-27T10:02:19Z</time>
      </trkpt>
      <trkpt lat="48.58843" lon="1.81026">
        <ele>150</ele>
        <time>2022-03-27T10:02:21Z</time>
      </trkpt>
      <trkpt lat="48.58841" lon="1.81028">
        <ele>150</ele>
        <time>2022-03-27T10:02:23Z</time>
      </trkpt>
      <trkpt lat="48.58838" lon="1.8103">
        <ele>150</ele>
        <time>2022-03-27T10:02:25Z</time>
      </trkpt>
      <trkpt lat="48.58836" lon="1.81032">
        <ele>151</ele>
        <time>2022-03-27T10:02:27Z</time>
      </trkpt>
      <trkpt lat="48.58833" lon="1.81034">
        <ele>151</ele>
        <time>2022-03-27T10:02:29Z</time>
      </trkpt>
      <trkpt lat="48.5883" lon="1.81035">
        <ele>151</ele>
        <time>2022-03-27T10:02:31Z</time>
      </trkpt>
      <trkpt lat="48.58828" lon="1.81037">
        <ele>151</ele>
        <time>2022-03-27T10:02:33Z</time>
      </trkpt>
      <trkpt lat="48.58825" lon="1.81039">
        <ele>151</ele>
        <time>2022-03-27T10:02:35Z</time>
      </trkpt>
      <trkpt lat="48.58822" lon="1.81041">
        <ele>152</ele>
        <time>2022-03-27T10:02:37Z</time>
      </trkpt>
      <trkpt lat="48.58819" lon="1.81043">
        <ele>152</ele>
        <time>2022-03-27T10:02:39Z</time>
      </trkpt>
      <trkpt lat="48.58817" lon="1.81044">
        <ele>152</ele>
        <time>2022-03-27T10:02:41Z</time>
      </trkpt>
      <trkpt lat="48.58816" lon="1.81047">
        <ele>152</ele>
        <time>2022-03-27T10:02:43Z</time>
      </trkpt>
      <trkpt lat="48.58814" lon="1.8105">
        <ele>152</ele>
        <time>2022-03-27T10:02:45Z</time>
      </trkpt>
      <trkpt lat="48.58812" lon="1.81054">
        <ele>152</ele>
        <time>2022-03-27T10:02:47Z</time>
      </trkpt>
      <trkpt lat="48.5881" lon="1.81056">
        <ele>153</ele>
        <time>2022-03-27T10:02:50Z</time>
      </trkpt>
      <trkpt lat="48.58808" lon="1.81059">
        <ele>154</ele>
        <time>2022-03-27T10:02:53Z</time>
      </trkpt>
      <trkpt lat="48.58807" lon="1.81062">
        <ele>154</ele>
        <time>2022-03-27T10:02:55Z</time>
      </trkpt>
      <trkpt lat="48.58804" lon="1.81065">
        <ele>154</ele>
        <time>2022-03-27T10:02:57Z</time>
      </trkpt>
      <trkpt lat="48.58802" lon="1.81068">
        <ele>155</ele>
        <time>2022-03-27T10:02:59Z</time>
      </trkpt>
      <trkpt lat="48.588" lon="1.81072">
        <ele>155</ele>
        <time>2022-03-27T10:03:01Z</time>
      </trkpt>
      <trkpt lat="48.58798" lon="1.81075">
        <ele>155</ele>
        <time>2022-03-27T10:03:03Z</time>
      </trkpt>
      <trkpt lat="48.58795" lon="1.81078">
        <ele>155</ele>
        <time>2022-03-27T10:03:05Z</time>
      </trkpt>
      <trkpt lat="48.58793" lon="1.81081">
        <ele>156</ele>
        <time>2022-03-27T10:03:07Z</time>
      </trkpt>
      <trkpt lat="48.58791" lon="1.81084">
        <ele>156</ele>
        <time>2022-03-27T10:03:09Z</time>
      </trkpt>
      <trkpt lat="48.58789" lon="1.81087">
        <ele>156</ele>
        <time>2022-03-27T10:03:11Z</time>
      </trkpt>
      <trkpt lat="48.58787" lon="1.81091">
        <ele>157</ele>
        <time>2022-03-27T10:03:13Z</time>
      </trkpt>
      <trkpt lat="48.58785" lon="1.81094">
        <ele>157</ele>
        <time>2022-03-27T10:03:15Z</time>
      </trkpt>
      <trkpt lat="48.58783" lon="1.81097">
        <ele>157</ele>
        <time>2022-03-27T10:03:17Z</time>
      </trkpt>
      <trkpt lat="48.58782" lon="1.811">
        <ele>157</ele>
        <time>2022-03-27T10:03:19Z</time>
      </trkpt>
      <trkpt lat="48.5878" lon="1.81103">
        <ele>158</ele>
        <time>2022-03-27T10:03:21Z</time>
      </trkpt>
      <trkpt lat="48.58778" lon="1.81106">
        <ele>158</ele>
        <time>2022-03-27T10:03:23Z</time>
      </trkpt>
      <trkpt lat="48.58776" lon="1.8111">
        <ele>158</ele>
        <time>2022-03-27T10:03:25Z</time>
      </trkpt>
      <trkpt lat="48.58773" lon="1.81113">
        <ele>158</ele>
        <time>2022-03-27T10:03:28Z</time>
      </trkpt>
      <trkpt lat="48.58771" lon="1.81115">
        <ele>158</ele>
        <time>2022-03-27T10:03:29Z</time>
      </trkpt>
      <trkpt lat="48.58769" lon="1.81118">
        <ele>159</ele>
        <time>2022-03-27T10:03:31Z</time>
      </trkpt>
      <trkpt lat="48.58767" lon="1.81122">
        <ele>159</ele>
        <time>2022-03-27T10:03:33Z</time>
      </trkpt>
      <trkpt lat="48.58765" lon="1.81125">
        <ele>159</ele>
        <time>2022-03-27T10:03:35Z</time>
      </trkpt>
      <trkpt lat="48.58763" lon="1.81128">
        <ele>159</ele>
        <time>2022-03-27T10:03:37Z</time>
      </trkpt>
      <trkpt lat="48.58761" lon="1.81131">
        <ele>159</ele>
        <time>2022-03-27T10:03:39Z</time>
      </trkpt>
      <trkpt lat="48.5876" lon="1.81134">
        <ele>159</ele>
        <time>2022-03-27T10:03:41Z</time>
      </trkpt>
      <trkpt lat="48.58757" lon="1.81136">
        <ele>159</ele>
        <time>2022-03-27T10:03:43Z</time>
      </trkpt>
      <trkpt lat="48.58755" lon="1.81138">
        <ele>159</ele>
        <time>2022-03-27T10:03:45Z</time>
      </trkpt>
      <trkpt lat="48.58753" lon="1.8114">
        <ele>159</ele>
        <time>2022-03-27T10:03:47Z</time>
      </trkpt>
      <trkpt lat="48.58751" lon="1.81141">
        <ele>160</ele>
        <time>2022-03-27T10:03:49Z</time>
      </trkpt>
      <trkpt lat="48.58748" lon="1.81142">
        <ele>160</ele>
        <time>2022-03-27T10:03:51Z</time>
      </trkpt>
      <trkpt lat="48.58745" lon="1.8114">
        <ele>160</ele>
        <time>2022-03-27T10:03:53Z</time>
      </trkpt>
      <trkpt lat="48.58743" lon="1.81138">
        <ele>160</ele>
        <time>2022-03-27T10:03:55Z</time>
      </trkpt>
      <trkpt lat="48.5874" lon="1.81135">
        <ele>160</ele>
        <time>2022-03-27T10:03:57Z</time>
      </trkpt>
      <trkpt lat="48.58738" lon="1.81132">
        <ele>160</ele>
        <time>2022-03-27T10:03:59Z</time>
      </trkpt>
      <trkpt lat="48.58736" lon="1.8113">
        <ele>160</ele>
        <time>2022-03-27T10:04:01Z</time>
      </trkpt>
      <trkpt lat="48.58733" lon="1.81128">
        <ele>160</ele>
        <time>2022-03-27T10:04:03Z</time>
      </trkpt>
      <trkpt lat="48.58731" lon="1.81128">
        <ele>160</ele>
        <time>2022-03-27T10:04:06Z</time>
      </trkpt>
      <trkpt lat="48.58729" lon="1.81131">
        <ele>159</ele>
        <time>2022-03-27T10:04:07Z</time>
      </trkpt>
      <trkpt lat="48.58729" lon="1.81135">
        <ele>160</ele>
        <time>2022-03-27T10:04:09Z</time>
      </trkpt>
      <trkpt lat="48.58729" lon="1.81139">
        <ele>160</ele>
        <time>2022-03-27T10:04:11Z</time>
      </trkpt>
      <trkpt lat="48.58729" lon="1.81144">
        <ele>160</ele>
        <time>2022-03-27T10:04:13Z</time>
      </trkpt>
      <trkpt lat="48.5873" lon="1.81148">
        <ele>160</ele>
        <time>2022-03-27T10:04:15Z</time>
      </trkpt>
      <trkpt lat="48.5873" lon="1.81152">
        <ele>160</ele>
        <time>2022-03-27T10:04:17Z</time>
      </trkpt>
      <trkpt lat="48.58731" lon="1.81157">
        <ele>160</ele>
        <time>2022-03-27T10:04:19Z</time>
      </trkpt>
      <trkpt lat="48.58731" lon="1.81161">
        <ele>160</ele>
        <time>2022-03-27T10:04:21Z</time>
      </trkpt>
      <trkpt lat="48.58731" lon="1.81166">
        <ele>160</ele>
        <time>2022-03-27T10:04:23Z</time>
      </trkpt>
      <trkpt lat="48.5873" lon="1.8117">
        <ele>160</ele>
        <time>2022-03-27T10:04:25Z</time>
      </trkpt>
      <trkpt lat="48.5873" lon="1.81174">
        <ele>161</ele>
        <time>2022-03-27T10:04:27Z</time>
      </trkpt>
      <trkpt lat="48.5873" lon="1.81179">
        <ele>161</ele>
        <time>2022-03-27T10:04:29Z</time>
      </trkpt>
      <trkpt lat="48.58729" lon="1.81183">
        <ele>161</ele>
        <time>2022-03-27T10:04:31Z</time>
      </trkpt>
      <trkpt lat="48.58728" lon="1.81187">
        <ele>161</ele>
        <time>2022-03-27T10:04:33Z</time>
      </trkpt>
      <trkpt lat="48.58728" lon="1.81191">
        <ele>161</ele>
        <time>2022-03-27T10:04:35Z</time>
      </trkpt>
      <trkpt lat="48.58727" lon="1.81196">
        <ele>161</ele>
        <time>2022-03-27T10:04:37Z</time>
      </trkpt>
      <trkpt lat="48.58727" lon="1.812">
        <ele>162</ele>
        <time>2022-03-27T10:04:39Z</time>
      </trkpt>
      <trkpt lat="48.58726" lon="1.81205">
        <ele>162</ele>
        <time>2022-03-27T10:04:41Z</time>
      </trkpt>
      <trkpt lat="48.58725" lon="1.81209">
        <ele>162</ele>
        <time>2022-03-27T10:04:44Z</time>
      </trkpt>
      <trkpt lat="48.58724" lon="1.81214">
        <ele>162</ele>
        <time>2022-03-27T10:04:45Z</time>
      </trkpt>
      <trkpt lat="48.58723" lon="1.81218">
        <ele>162</ele>
        <time>2022-03-27T10:04:47Z</time>
      </trkpt>
      <trkpt lat="48.58723" lon="1.81223">
        <ele>162</ele>
        <time>2022-03-27T10:04:49Z</time>
      </trkpt>
      <trkpt lat="48.58722" lon="1.81227">
        <ele>162</ele>
        <time>2022-03-27T10:04:51Z</time>
      </trkpt>
      <trkpt lat="48.58722" lon="1.81232">
        <ele>162</ele>
        <time>2022-03-27T10:04:53Z</time>
      </trkpt>
      <trkpt lat="48.58721" lon="1.81236">
        <ele>163</ele>
        <time>2022-03-27T10:04:55Z</time>
      </trkpt>
      <trkpt lat="48.5872" lon="1.81241">
        <ele>163</ele>
        <time>2022-03-27T10:04:57Z</time>
      </trkpt>
      <trkpt lat="48.58719" lon="1.81245">
        <ele>163</ele>
        <time>2022-03-27T10:04:59Z</time>
      </trkpt>
      <trkpt lat="48.58719" lon="1.8125">
        <ele>163</ele>
        <time>2022-03-27T10:05:01Z</time>
      </trkpt>
      <trkpt lat="48.58718" lon="1.81254">
        <ele>163</ele>
        <time>2022-03-27T10:05:03Z</time>
      </trkpt>
      <trkpt lat="48.58717" lon="1.81258">
        <ele>163</ele>
        <time>2022-03-27T10:05:05Z</time>
      </trkpt>
      <trkpt lat="48.58717" lon="1.81262">
        <ele>163</ele>
        <time>2022-03-27T10:05:07Z</time>
      </trkpt>
      <trkpt lat="48.58716" lon="1.81266">
        <ele>164</ele>
        <time>2022-03-27T10:05:09Z</time>
      </trkpt>
      <trkpt lat="48.58716" lon="1.81271">
        <ele>164</ele>
        <time>2022-03-27T10:05:11Z</time>
      </trkpt>
      <trkpt lat="48.58715" lon="1.81275">
        <ele>164</ele>
        <time>2022-03-27T10:05:13Z</time>
      </trkpt>
      <trkpt lat="48.58715" lon="1.8128">
        <ele>164</ele>
        <time>2022-03-27T10:05:15Z</time>
      </trkpt>
      <trkpt lat="48.58714" lon="1.81284">
        <ele>164</ele>
        <time>2022-03-27T10:05:17Z</time>
      </trkpt>
      <trkpt lat="48.58714" lon="1.81288">
        <ele>164</ele>
        <time>2022-03-27T10:05:19Z</time>
      </trkpt>
      <trkpt lat="48.58713" lon="1.81292">
        <ele>164</ele>
        <time>2022-03-27T10:05:22Z</time>
      </trkpt>
      <trkpt lat="48.58712" lon="1.81297">
        <ele>164</ele>
        <time>2022-03-27T10:05:23Z</time>
      </trkpt>
      <trkpt lat="48.58711" lon="1.81301">
        <ele>164</ele>
        <time>2022-03-27T10:05:25Z</time>
      </trkpt>
      <trkpt lat="48.58711" lon="1.81306">
        <ele>165</ele>
        <time>2022-03-27T10:05:27Z</time>
      </trkpt>
      <trkpt lat="48.5871" lon="1.8131">
        <ele>165</ele>
        <time>2022-03-27T10:05:29Z</time>
      </trkpt>
      <trkpt lat="48.58709" lon="1.81315">
        <ele>165</ele>
        <time>2022-03-27T10:05:31Z</time>
      </trkpt>
      <trkpt lat="48.58709" lon="1.81319">
        <ele>165</ele>
        <time>2022-03-27T10:05:33Z</time>
      </trkpt>
      <trkpt lat="48.58708" lon="1.81324">
        <ele>165</ele>
        <time>2022-03-27T10:05:35Z</time>
      </trkpt>
      <trkpt lat="48.58707" lon="1.81328">
        <ele>165</ele>
        <time>2022-03-27T10:05:37Z</time>
      </trkpt>
      <trkpt lat="48.58706" lon="1.81332">
        <ele>165</ele>
        <time>2022-03-27T10:05:39Z</time>
      </trkpt>
      <trkpt lat="48.58703" lon="1.81336">
        <ele>165</ele>
        <time>2022-03-27T10:05:41Z</time>
      </trkpt>
      <trkpt lat="48.58702" lon="1.81337">
        <ele>165</ele>
        <time>2022-03-27T10:05:42Z</time>
      </trkpt>
      <trkpt lat="48.58699" lon="1.81339">
        <ele>164</ele>
        <time>2022-03-27T10:05:44Z</time>
      </trkpt>
      <trkpt lat="48.58697" lon="1.8134">
        <ele>164</ele>
        <time>2022-03-27T10:05:45Z</time>
      </trkpt>
      <trkpt lat="48.58695" lon="1.81341">
        <ele>164</ele>
        <time>2022-03-27T10:05:46Z</time>
      </trkpt>
      <trkpt lat="48.58692" lon="1.81342">
        <ele>164</ele>
        <time>2022-03-27T10:05:48Z</time>
      </trkpt>
      <trkpt lat="48.58688" lon="1.81344">
        <ele>164</ele>
        <time>2022-03-27T10:05:50Z</time>
      </trkpt>
      <trkpt lat="48.58685" lon="1.81344">
        <ele>164</ele>
        <time>2022-03-27T10:05:52Z</time>
      </trkpt>
      <trkpt lat="48.58682" lon="1.81345">
        <ele>164</ele>
        <time>2022-03-27T10:05:54Z</time>
      </trkpt>
      <trkpt lat="48.58679" lon="1.81346">
        <ele>164</ele>
        <time>2022-03-27T10:05:56Z</time>
      </trkpt>
      <trkpt lat="48.58676" lon="1.81348">
        <ele>164</ele>
        <time>2022-03-27T10:05:58Z</time>
      </trkpt>
      <trkpt lat="48.58673" lon="1.81349">
        <ele>164</ele>
        <time>2022-03-27T10:06:00Z</time>
      </trkpt>
      <trkpt lat="48.5867" lon="1.81351">
        <ele>164</ele>
        <time>2022-03-27T10:06:02Z</time>
      </trkpt>
      <trkpt lat="48.58667" lon="1.81352">
        <ele>164</ele>
        <time>2022-03-27T10:06:04Z</time>
      </trkpt>
      <trkpt lat="48.58663" lon="1.81353">
        <ele>164</ele>
        <time>2022-03-27T10:06:06Z</time>
      </trkpt>
      <trkpt lat="48.58661" lon="1.81353">
        <ele>164</ele>
        <time>2022-03-27T10:06:08Z</time>
      </trkpt>
      <trkpt lat="48.58659" lon="1.81354">
        <ele>164</ele>
        <time>2022-03-27T10:06:10Z</time>
      </trkpt>
      <trkpt lat="48.58656" lon="1.81355">
        <ele>164</ele>
        <time>2022-03-27T10:06:12Z</time>
      </trkpt>
      <trkpt lat="48.58653" lon="1.81355">
        <ele>163</ele>
        <time>2022-03-27T10:06:14Z</time>
      </trkpt>
      <trkpt lat="48.5865" lon="1.81356">
        <ele>163</ele>
        <time>2022-03-27T10:06:16Z</time>
      </trkpt>
      <trkpt lat="48.58647" lon="1.81357">
        <ele>163</ele>
        <time>2022-03-27T10:06:19Z</time>
      </trkpt>
      <trkpt lat="48.58644" lon="1.81359">
        <ele>163</ele>
        <time>2022-03-27T10:06:20Z</time>
      </trkpt>
      <trkpt lat="48.58641" lon="1.8136">
        <ele>163</ele>
        <time>2022-03-27T10:06:22Z</time>
      </trkpt>
      <trkpt lat="48.58638" lon="1.81362">
        <ele>163</ele>
        <time>2022-03-27T10:06:24Z</time>
      </trkpt>
      <trkpt lat="48.58635" lon="1.81363">
        <ele>163</ele>
        <time>2022-03-27T10:06:26Z</time>
      </trkpt>
      <trkpt lat="48.58632" lon="1.81365">
        <ele>163</ele>
        <time>2022-03-27T10:06:28Z</time>
      </trkpt>
      <trkpt lat="48.58629" lon="1.81367">
        <ele>163</ele>
        <time>2022-03-27T10:06:30Z</time>
      </trkpt>
      <trkpt lat="48.58626" lon="1.81369">
        <ele>163</ele>
        <time>2022-03-27T10:06:32Z</time>
      </trkpt>
      <trkpt lat="48.58624" lon="1.81372">
        <ele>163</ele>
        <time>2022-03-27T10:06:34Z</time>
      </trkpt>
      <trkpt lat="48.58621" lon="1.81374">
        <ele>163</ele>
        <time>2022-03-27T10:06:36Z</time>
      </trkpt>
      <trkpt lat="48.58618" lon="1.81376">
        <ele>163</ele>
        <time>2022-03-27T10:06:38Z</time>
      </trkpt>
      <trkpt lat="48.58615" lon="1.81378">
        <ele>164</ele>
        <time>2022-03-27T10:06:40Z</time>
      </trkpt>
      <trkpt lat="48.58612" lon="1.8138">
        <ele>164</ele>
        <time>2022-03-27T10:06:42Z</time>
      </trkpt>
      <trkpt lat="48.58609" lon="1.81382">
        <ele>164</ele>
        <time>2022-03-27T10:06:44Z</time>
      </trkpt>
      <trkpt lat="48.58606" lon="1.81384">
        <ele>164</ele>
        <time>2022-03-27T10:06:46Z</time>
      </trkpt>
      <trkpt lat="48.58603" lon="1.81386">
        <ele>164</ele>
        <time>2022-03-27T10:06:48Z</time>
      </trkpt>
      <trkpt lat="48.58601" lon="1.81388">
        <ele>164</ele>
        <time>2022-03-27T10:06:50Z</time>
      </trkpt>
      <trkpt lat="48.58598" lon="1.8139">
        <ele>164</ele>
        <time>2022-03-27T10:06:52Z</time>
      </trkpt>
      <trkpt lat="48.58595" lon="1.81392">
        <ele>164</ele>
        <time>2022-03-27T10:06:54Z</time>
      </trkpt>
      <trkpt lat="48.58592" lon="1.81394">
        <ele>164</ele>
        <time>2022-03-27T10:06:56Z</time>
      </trkpt>
      <trkpt lat="48.5859" lon="1.81395">
        <ele>164</ele>
        <time>2022-03-27T10:06:58Z</time>
      </trkpt>
      <trkpt lat="48.58587" lon="1.81397">
        <ele>164</ele>
        <time>2022-03-27T10:07:00Z</time>
      </trkpt>
      <trkpt lat="48.58584" lon="1.81399">
        <ele>164</ele>
        <time>2022-03-27T10:07:02Z</time>
      </trkpt>
      <trkpt lat="48.58581" lon="1.814">
        <ele>164</ele>
        <time>2022-03-27T10:07:04Z</time>
      </trkpt>
      <trkpt lat="48.58579" lon="1.81401">
        <ele>163</ele>
        <time>2022-03-27T10:07:07Z</time>
      </trkpt>
      <trkpt lat="48.58577" lon="1.81403">
        <ele>163</ele>
        <time>2022-03-27T10:07:16Z</time>
      </trkpt>
      <trkpt lat="48.58575" lon="1.81404">
        <ele>163</ele>
        <time>2022-03-27T10:07:17Z</time>
      </trkpt>
      <trkpt lat="48.58571" lon="1.81407">
        <ele>163</ele>
        <time>2022-03-27T10:07:19Z</time>
      </trkpt>
      <trkpt lat="48.58569" lon="1.81408">
        <ele>164</ele>
        <time>2022-03-27T10:07:20Z</time>
      </trkpt>
      <trkpt lat="48.58566" lon="1.81411">
        <ele>164</ele>
        <time>2022-03-27T10:07:21Z</time>
      </trkpt>
      <trkpt lat="48.58563" lon="1.81413">
        <ele>164</ele>
        <time>2022-03-27T10:07:22Z</time>
      </trkpt>
      <trkpt lat="48.5856" lon="1.81415">
        <ele>164</ele>
        <time>2022-03-27T10:07:23Z</time>
      </trkpt>
      <trkpt lat="48.58556" lon="1.81418">
        <ele>164</ele>
        <time>2022-03-27T10:07:24Z</time>
      </trkpt>
      <trkpt lat="48.58553" lon="1.8142">
        <ele>163</ele>
        <time>2022-03-27T10:07:25Z</time>
      </trkpt>
      <trkpt lat="48.58549" lon="1.81422">
        <ele>164</ele>
        <time>2022-03-27T10:07:26Z</time>
      </trkpt>
      <trkpt lat="48.58545" lon="1.81424">
        <ele>164</ele>
        <time>2022-03-27T10:07:27Z</time>
      </trkpt>
      <trkpt lat="48.58542" lon="1.81427">
        <ele>163</ele>
        <time>2022-03-27T10:07:28Z</time>
      </trkpt>
      <trkpt lat="48.58539" lon="1.81429">
        <ele>163</ele>
        <time>2022-03-27T10:07:29Z</time>
      </trkpt>
      <trkpt lat="48.58535" lon="1.81431">
        <ele>163</ele>
        <time>2022-03-27T10:07:30Z</time>
      </trkpt>
      <trkpt lat="48.58532" lon="1.81434">
        <ele>163</ele>
        <time>2022-03-27T10:07:31Z</time>
      </trkpt>
      <trkpt lat="48.58528" lon="1.81436">
        <ele>164</ele>
        <time>2022-03-27T10:07:32Z</time>
      </trkpt>
      <trkpt lat="48.58524" lon="1.81439">
        <ele>164</ele>
        <time>2022-03-27T10:07:33Z</time>
      </trkpt>
      <trkpt lat="48.5852" lon="1.81442">
        <ele>164</ele>
        <time>2022-03-27T10:07:35Z</time>
      </trkpt>
      <trkpt lat="48.58515" lon="1.81445">
        <ele>164</ele>
        <time>2022-03-27T10:07:35Z</time>
      </trkpt>
      <trkpt lat="48.5851" lon="1.81448">
        <ele>164</ele>
        <time>2022-03-27T10:07:36Z</time>
      </trkpt>
      <trkpt lat="48.58506" lon="1.81451">
        <ele>164</ele>
        <time>2022-03-27T10:07:37Z</time>
      </trkpt>
      <trkpt lat="48.58501" lon="1.81455">
        <ele>164</ele>
        <time>2022-03-27T10:07:38Z</time>
      </trkpt>
      <trkpt lat="48.58496" lon="1.81458">
        <ele>163</ele>
        <time>2022-03-27T10:07:40Z</time>
      </trkpt>
      <trkpt lat="48.58491" lon="1.81461">
        <ele>163</ele>
        <time>2022-03-27T10:07:40Z</time>
      </trkpt>
      <trkpt lat="48.58486" lon="1.81465">
        <ele>163</ele>
        <time>2022-03-27T10:07:41Z</time>
      </trkpt>
      <trkpt lat="48.58481" lon="1.81468">
        <ele>163</ele>
        <time>2022-03-27T10:07:42Z</time>
      </trkpt>
      <trkpt lat="48.58475" lon="1.81472">
        <ele>163</ele>
        <time>2022-03-27T10:07:43Z</time>
      </trkpt>
      <trkpt lat="48.5847" lon="1.81475">
        <ele>163</ele>
        <time>2022-03-27T10:07:44Z</time>
      </trkpt>
      <trkpt lat="48.58465" lon="1.81479">
        <ele>164</ele>
        <time>2022-03-27T10:07:45Z</time>
      </trkpt>
      <trkpt lat="48.5846" lon="1.81482">
        <ele>164</ele>
        <time>2022-03-27T10:07:46Z</time>
      </trkpt>
      <trkpt lat="48.58456" lon="1.81485">
        <ele>164</ele>
        <time>2022-03-27T10:07:47Z</time>
      </trkpt>
      <trkpt lat="48.58451" lon="1.81489">
        <ele>163</ele>
        <time>2022-03-27T10:07:49Z</time>
      </trkpt>
      <trkpt lat="48.58446" lon="1.81492">
        <ele>163</ele>
        <time>2022-03-27T10:07:49Z</time>
      </trkpt>
      <trkpt lat="48.58441" lon="1.81495">
        <ele>163</ele>
        <time>2022-03-27T10:07:50Z</time>
      </trkpt>
      <trkpt lat="48.58437" lon="1.81498">
        <ele>163</ele>
        <time>2022-03-27T10:07:51Z</time>
      </trkpt>
      <trkpt lat="48.58432" lon="1.81501">
        <ele>163</ele>
        <time>2022-03-27T10:07:52Z</time>
      </trkpt>
      <trkpt lat="48.58428" lon="1.81504">
        <ele>163</ele>
        <time>2022-03-27T10:07:53Z</time>
      </trkpt>
      <trkpt lat="48.58423" lon="1.81508">
        <ele>163</ele>
        <time>2022-03-27T10:07:54Z</time>
      </trkpt>
      <trkpt lat="48.58419" lon="1.81511">
        <ele>163</ele>
        <time>2022-03-27T10:07:55Z</time>
      </trkpt>
      <trkpt lat="48.58414" lon="1.81513">
        <ele>163</ele>
        <time>2022-03-27T10:07:56Z</time>
      </trkpt>
      <trkpt lat="48.5841" lon="1.81516">
        <ele>163</ele>
        <time>2022-03-27T10:07:57Z</time>
      </trkpt>
      <trkpt lat="48.58405" lon="1.81519">
        <ele>163</ele>
        <time>2022-03-27T10:07:58Z</time>
      </trkpt>
      <trkpt lat="48.58401" lon="1.81522">
        <ele>163</ele>
        <time>2022-03-27T10:07:59Z</time>
      </trkpt>
      <trkpt lat="48.58396" lon="1.81525">
        <ele>163</ele>
        <time>2022-03-27T10:08:00Z</time>
      </trkpt>
      <trkpt lat="48.58392" lon="1.81528">
        <ele>163</ele>
        <time>2022-03-27T10:08:01Z</time>
      </trkpt>
      <trkpt lat="48.58387" lon="1.81532">
        <ele>163</ele>
        <time>2022-03-27T10:08:02Z</time>
      </trkpt>
      <trkpt lat="48.58383" lon="1.81535">
        <ele>163</ele>
        <time>2022-03-27T10:08:03Z</time>
      </trkpt>
      <trkpt lat="48.58378" lon="1.81538">
        <ele>163</ele>
        <time>2022-03-27T10:08:04Z</time>
      </trkpt>
      <trkpt lat="48.58373" lon="1.81541">
        <ele>163</ele>
        <time>2022-03-27T10:08:05Z</time>
      </trkpt>
      <trkpt lat="48.58368" lon="1.81544">
        <ele>163</ele>
        <time>2022-03-27T10:08:06Z</time>
      </trkpt>
      <trkpt lat="48.58364" lon="1.81547">
        <ele>163</ele>
        <time>2022-03-27T10:08:07Z</time>
      </trkpt>
      <trkpt lat="48.58359" lon="1.8155">
        <ele>163</ele>
        <time>2022-03-27T10:08:09Z</time>
      </trkpt>
      <trkpt lat="48.58354" lon="1.81554">
        <ele>163</ele>
        <time>2022-03-27T10:08:09Z</time>
      </trkpt>
      <trkpt lat="48.58349" lon="1.81557">
        <ele>164</ele>
        <time>2022-03-27T10:08:10Z</time>
      </trkpt>
      <trkpt lat="48.58345" lon="1.8156">
        <ele>164</ele>
        <time>2022-03-27T10:08:11Z</time>
      </trkpt>
      <trkpt lat="48.5834" lon="1.81563">
        <ele>164</ele>
        <time>2022-03-27T10:08:12Z</time>
      </trkpt>
      <trkpt lat="48.58335" lon="1.81567">
        <ele>164</ele>
        <time>2022-03-27T10:08:13Z</time>
      </trkpt>
      <trkpt lat="48.58331" lon="1.8157">
        <ele>164</ele>
        <time>2022-03-27T10:08:14Z</time>
      </trkpt>
      <trkpt lat="48.58326" lon="1.81573">
        <ele>164</ele>
        <time>2022-03-27T10:08:15Z</time>
      </trkpt>
      <trkpt lat="48.58321" lon="1.81576">
        <ele>164</ele>
        <time>2022-03-27T10:08:16Z</time>
      </trkpt>
      <trkpt lat="48.58317" lon="1.81579">
        <ele>164</ele>
        <time>2022-03-27T10:08:17Z</time>
      </trkpt>
      <trkpt lat="48.58312" lon="1.81583">
        <ele>164</ele>
        <time>2022-03-27T10:08:18Z</time>
      </trkpt>
      <trkpt lat="48.58307" lon="1.81586">
        <ele>164</ele>
        <time>2022-03-27T10:08:19Z</time>
      </trkpt>
      <trkpt lat="48.58302" lon="1.81589">
        <ele>164</ele>
        <time>2022-03-27T10:08:20Z</time>
      </trkpt>
      <trkpt lat="48.58297" lon="1.81592">
        <ele>164</ele>
        <time>2022-03-27T10:08:21Z</time>
      </trkpt>
      <trkpt lat="48.58292" lon="1.81595">
        <ele>164</ele>
        <time>2022-03-27T10:08:22Z</time>
      </trkpt>
      <trkpt lat="48.58287" lon="1.81599">
        <ele>164</ele>
        <time>2022-03-27T10:08:23Z</time>
      </trkpt>
      <trkpt lat="48.58283" lon="1.81602">
        <ele>164</ele>
        <time>2022-03-27T10:08:24Z</time>
      </trkpt>
      <trkpt lat="48.58278" lon="1.81605">
        <ele>164</ele>
        <time>2022-03-27T10:08:25Z</time>
      </trkpt>
      <trkpt lat="48.58273" lon="1.81608">
        <ele>164</ele>
        <time>2022-03-27T10:08:26Z</time>
      </trkpt>
      <trkpt lat="48.58268" lon="1.81612">
        <ele>164</ele>
        <time>2022-03-27T10:08:28Z</time>
      </trkpt>
      <trkpt lat="48.58263" lon="1.81615">
        <ele>164</ele>
        <time>2022-03-27T10:08:28Z</time>
      </trkpt>
      <trkpt lat="48.58258" lon="1.81618">
        <ele>164</ele>
        <time>2022-03-27T10:08:29Z</time>
      </trkpt>
      <trkpt lat="48.58253" lon="1.81622">
        <ele>164</ele>
        <time>2022-03-27T10:08:30Z</time>
      </trkpt>
      <trkpt lat="48.58248" lon="1.81625">
        <ele>163</ele>
        <time>2022-03-27T10:08:31Z</time>
      </trkpt>
      <trkpt lat="48.58243" lon="1.81629">
        <ele>163</ele>
        <time>2022-03-27T10:08:32Z</time>
      </trkpt>
      <trkpt lat="48.58238" lon="1.81632">
        <ele>163</ele>
        <time>2022-03-27T10:08:33Z</time>
      </trkpt>
      <trkpt lat="48.58233" lon="1.81635">
        <ele>163</ele>
        <time>2022-03-27T10:08:34Z</time>
      </trkpt>
      <trkpt lat="48.58229" lon="1.81638">
        <ele>163</ele>
        <time>2022-03-27T10:08:35Z</time>
      </trkpt>
      <trkpt lat="48.58224" lon="1.81641">
        <ele>163</ele>
        <time>2022-03-27T10:08:36Z</time>
      </trkpt>
      <trkpt lat="48.5822" lon="1.81644">
        <ele>163</ele>
        <time>2022-03-27T10:08:37Z</time>
      </trkpt>
      <trkpt lat="48.58215" lon="1.81647">
        <ele>163</ele>
        <time>2022-03-27T10:08:38Z</time>
      </trkpt>
      <trkpt lat="48.58211" lon="1.8165">
        <ele>163</ele>
        <time>2022-03-27T10:08:39Z</time>
      </trkpt>
      <trkpt lat="48.58206" lon="1.81654">
        <ele>163</ele>
        <time>2022-03-27T10:08:40Z</time>
      </trkpt>
      <trkpt lat="48.58202" lon="1.81657">
        <ele>163</ele>
        <time>2022-03-27T10:08:41Z</time>
      </trkpt>
      <trkpt lat="48.58198" lon="1.8166">
        <ele>163</ele>
        <time>2022-03-27T10:08:42Z</time>
      </trkpt>
      <trkpt lat="48.58194" lon="1.81662">
        <ele>163</ele>
        <time>2022-03-27T10:08:43Z</time>
      </trkpt>
      <trkpt lat="48.5819" lon="1.81665">
        <ele>163</ele>
        <time>2022-03-27T10:08:44Z</time>
      </trkpt>
      <trkpt lat="48.58186" lon="1.81668">
        <ele>163</ele>
        <time>2022-03-27T10:08:45Z</time>
      </trkpt>
      <trkpt lat="48.58182" lon="1.8167">
        <ele>163</ele>
        <time>2022-03-27T10:08:46Z</time>
      </trkpt>
      <trkpt lat="48.58179" lon="1.81672">
        <ele>163</ele>
        <time>2022-03-27T10:08:48Z</time>
      </trkpt>
      <trkpt lat="48.58177" lon="1.81674">
        <ele>163</ele>
        <time>2022-03-27T10:08:48Z</time>
      </trkpt>
      <trkpt lat="48.58176" lon="1.81676">
        <ele>163</ele>
        <time>2022-03-27T10:08:49Z</time>
      </trkpt>
      <trkpt lat="48.58179" lon="1.81677">
        <ele>162</ele>
        <time>2022-03-27T10:08:54Z</time>
      </trkpt>
      <trkpt lat="48.58181" lon="1.8168">
        <ele>162</ele>
        <time>2022-03-27T10:08:55Z</time>
      </trkpt>
      <trkpt lat="48.58184" lon="1.81684">
        <ele>162</ele>
        <time>2022-03-27T10:08:56Z</time>
      </trkpt>
      <trkpt lat="48.58186" lon="1.8169">
        <ele>162</ele>
        <time>2022-03-27T10:08:57Z</time>
      </trkpt>
      <trkpt lat="48.58188" lon="1.81697">
        <ele>162</ele>
        <time>2022-03-27T10:08:58Z</time>
      </trkpt>
      <trkpt lat="48.58191" lon="1.81704">
        <ele>162</ele>
        <time>2022-03-27T10:08:59Z</time>
      </trkpt>
      <trkpt lat="48.58193" lon="1.8171">
        <ele>162</ele>
        <time>2022-03-27T10:09:00Z</time>
      </trkpt>
      <trkpt lat="48.58196" lon="1.81717">
        <ele>162</ele>
        <time>2022-03-27T10:09:01Z</time>
      </trkpt>
      <trkpt lat="48.58198" lon="1.81724">
        <ele>162</ele>
        <time>2022-03-27T10:09:02Z</time>
      </trkpt>
      <trkpt lat="48.582" lon="1.81731">
        <ele>162</ele>
        <time>2022-03-27T10:09:03Z</time>
      </trkpt>
      <trkpt lat="48.58203" lon="1.81738">
        <ele>162</ele>
        <time>2022-03-27T10:09:05Z</time>
      </trkpt>
      <trkpt lat="48.58205" lon="1.81745">
        <ele>162</ele>
        <time>2022-03-27T10:09:05Z</time>
      </trkpt>
      <trkpt lat="48.58207" lon="1.81752">
        <ele>162</ele>
        <time>2022-03-27T10:09:06Z</time>
      </trkpt>
      <trkpt lat="48.58209" lon="1.81759">
        <ele>162</ele>
        <time>2022-03-27T10:09:07Z</time>
      </trkpt>
      <trkpt lat="48.58211" lon="1.81765">
        <ele>162</ele>
        <time>2022-03-27T10:09:08Z</time>
      </trkpt>
      <trkpt lat="48.58213" lon="1.81772">
        <ele>162</ele>
        <time>2022-03-27T10:09:09Z</time>
      </trkpt>
      <trkpt lat="48.58216" lon="1.81779">
        <ele>162</ele>
        <time>2022-03-27T10:09:10Z</time>
      </trkpt>
      <trkpt lat="48.58218" lon="1.81787">
        <ele>162</ele>
        <time>2022-03-27T10:09:11Z</time>
      </trkpt>
      <trkpt lat="48.5822" lon="1.81794">
        <ele>162</ele>
        <time>2022-03-27T10:09:12Z</time>
      </trkpt>
      <trkpt lat="48.58223" lon="1.81802">
        <ele>162</ele>
        <time>2022-03-27T10:09:13Z</time>
      </trkpt>
      <trkpt lat="48.58225" lon="1.81809">
        <ele>162</ele>
        <time>2022-03-27T10:09:14Z</time>
      </trkpt>
      <trkpt lat="48.58228" lon="1.81817">
        <ele>162</ele>
        <time>2022-03-27T10:09:15Z</time>
      </trkpt>
      <trkpt lat="48.5823" lon="1.81825">
        <ele>162</ele>
        <time>2022-03-27T10:09:16Z</time>
      </trkpt>
      <trkpt lat="48.58233" lon="1.81832">
        <ele>162</ele>
        <time>2022-03-27T10:09:17Z</time>
      </trkpt>
      <trkpt lat="48.58235" lon="1.8184">
        <ele>162</ele>
        <time>2022-03-27T10:09:18Z</time>
      </trkpt>
      <trkpt lat="48.58238" lon="1.81847">
        <ele>162</ele>
        <time>2022-03-27T10:09:19Z</time>
      </trkpt>
      <trkpt lat="48.5824" lon="1.81855">
        <ele>162</ele>
        <time>2022-03-27T10:09:20Z</time>
      </trkpt>
      <trkpt lat="48.58243" lon="1.81863">
        <ele>162</ele>
        <time>2022-03-27T10:09:21Z</time>
      </trkpt>
      <trkpt lat="48.58245" lon="1.8187">
        <ele>162</ele>
        <time>2022-03-27T10:09:23Z</time>
      </trkpt>
      <trkpt lat="48.58247" lon="1.81878">
        <ele>162</ele>
        <time>2022-03-27T10:09:23Z</time>
      </trkpt>
      <trkpt lat="48.5825" lon="1.81885">
        <ele>162</ele>
        <time>2022-03-27T10:09:24Z</time>
      </trkpt>
      <trkpt lat="48.58252" lon="1.81893">
        <ele>162</ele>
        <time>2022-03-27T10:09:25Z</time>
      </trkpt>
      <trkpt lat="48.58254" lon="1.819">
        <ele>162</ele>
        <time>2022-03-27T10:09:26Z</time>
      </trkpt>
      <trkpt lat="48.58256" lon="1.81908">
        <ele>162</ele>
        <time>2022-03-27T10:09:27Z</time>
      </trkpt>
      <trkpt lat="48.58259" lon="1.81916">
        <ele>162</ele>
        <time>2022-03-27T10:09:28Z</time>
      </trkpt>
      <trkpt lat="48.58261" lon="1.81923">
        <ele>162</ele>
        <time>2022-03-27T10:09:29Z</time>
      </trkpt>
      <trkpt lat="48.58264" lon="1.81931">
        <ele>162</ele>
        <time>2022-03-27T10:09:30Z</time>
      </trkpt>
      <trkpt lat="48.58266" lon="1.81939">
        <ele>162</ele>
        <time>2022-03-27T10:09:31Z</time>
      </trkpt>
      <trkpt lat="48.58268" lon="1.81947">
        <ele>162</ele>
        <time>2022-03-27T10:09:32Z</time>
      </trkpt>
      <trkpt lat="48.58271" lon="1.81954">
        <ele>162</ele>
        <time>2022-03-27T10:09:33Z</time>
      </trkpt>
      <trkpt lat="48.58273" lon="1.81962">
        <ele>162</ele>
        <time>2022-03-27T10:09:34Z</time>
      </trkpt>
      <trkpt lat="48.58275" lon="1.81969">
        <ele>162</ele>
        <time>2022-03-27T10:09:35Z</time>
      </trkpt>
      <trkpt lat="48.58277" lon="1.81976">
        <ele>162</ele>
        <time>2022-03-27T10:09:36Z</time>
      </trkpt>
      <trkpt lat="48.58279" lon="1.81983">
        <ele>162</ele>
        <time>2022-03-27T10:09:37Z</time>
      </trkpt>
      <trkpt lat="48.58282" lon="1.81989">
        <ele>162</ele>
        <time>2022-03-27T10:09:38Z</time>
      </trkpt>
      <trkpt lat="48.58284" lon="1.81996">
        <ele>162</ele>
        <time>2022-03-27T10:09:39Z</time>
      </trkpt>
      <trkpt lat="48.58286" lon="1.82003">
        <ele>162</ele>
        <time>2022-03-27T10:09:40Z</time>
      </trkpt>
      <trkpt lat="48.58288" lon="1.82009">
        <ele>162</ele>
        <time>2022-03-27T10:09:42Z</time>
      </trkpt>
      <trkpt lat="48.5829" lon="1.82015">
        <ele>162</ele>
        <time>2022-03-27T10:09:42Z</time>
      </trkpt>
      <trkpt lat="48.58292" lon="1.82021">
        <ele>162</ele>
        <time>2022-03-27T10:09:43Z</time>
      </trkpt>
      <trkpt lat="48.58293" lon="1.82026">
        <ele>162</ele>
        <time>2022-03-27T10:09:44Z</time>
      </trkpt>
      <trkpt lat="48.58295" lon="1.82032">
        <ele>162</ele>
        <time>2022-03-27T10:09:45Z</time>
      </trkpt>
      <trkpt lat="48.58296" lon="1.82037">
        <ele>162</ele>
        <time>2022-03-27T10:09:46Z</time>
      </trkpt>
      <trkpt lat="48.58298" lon="1.82042">
        <ele>162</ele>
        <time>2022-03-27T10:09:47Z</time>
      </trkpt>
      <trkpt lat="48.58299" lon="1.82046">
        <ele>162</ele>
        <time>2022-03-27T10:09:48Z</time>
      </trkpt>
      <trkpt lat="48.58301" lon="1.82051">
        <ele>162</ele>
        <time>2022-03-27T10:09:49Z</time>
      </trkpt>
      <trkpt lat="48.58302" lon="1.82055">
        <ele>162</ele>
        <time>2022-03-27T10:09:50Z</time>
      </trkpt>
      <trkpt lat="48.58303" lon="1.82058">
        <ele>162</ele>
        <time>2022-03-27T10:09:51Z</time>
      </trkpt>
      <trkpt lat="48.58304" lon="1.82061">
        <ele>162</ele>
        <time>2022-03-27T10:09:52Z</time>
      </trkpt>
      <trkpt lat="48.58305" lon="1.82066">
        <ele>162</ele>
        <time>2022-03-27T10:09:54Z</time>
      </trkpt>
      <trkpt lat="48.58306" lon="1.82069">
        <ele>162</ele>
        <time>2022-03-27T10:09:56Z</time>
      </trkpt>
      <trkpt lat="48.58307" lon="1.82074">
        <ele>162</ele>
        <time>2022-03-27T10:09:58Z</time>
      </trkpt>
      <trkpt lat="48.58308" lon="1.82078">
        <ele>162</ele>
        <time>2022-03-27T10:10:00Z</time>
      </trkpt>
      <trkpt lat="48.5831" lon="1.82083">
        <ele>162</ele>
        <time>2022-03-27T10:10:02Z</time>
      </trkpt>
      <trkpt lat="48.58311" lon="1.82088">
        <ele>162</ele>
        <time>2022-03-27T10:10:04Z</time>
      </trkpt>
      <trkpt lat="48.58312" lon="1.82092">
        <ele>162</ele>
        <time>2022-03-27T10:10:07Z</time>
      </trkpt>
      <trkpt lat="48.58314" lon="1.82096">
        <ele>162</ele>
        <time>2022-03-27T10:10:08Z</time>
      </trkpt>
      <trkpt lat="48.58315" lon="1.821">
        <ele>162</ele>
        <time>2022-03-27T10:10:10Z</time>
      </trkpt>
      <trkpt lat="48.58316" lon="1.82104">
        <ele>162</ele>
        <time>2022-03-27T10:10:12Z</time>
      </trkpt>
      <trkpt lat="48.58317" lon="1.82108">
        <ele>162</ele>
        <time>2022-03-27T10:10:14Z</time>
      </trkpt>
      <trkpt lat="48.58317" lon="1.82113">
        <ele>162</ele>
        <time>2022-03-27T10:10:16Z</time>
      </trkpt>
      <trkpt lat="48.58318" lon="1.82117">
        <ele>162</ele>
        <time>2022-03-27T10:10:18Z</time>
      </trkpt>
      <trkpt lat="48.58319" lon="1.82122">
        <ele>162</ele>
        <time>2022-03-27T10:10:20Z</time>
      </trkpt>
      <trkpt lat="48.58319" lon="1.82127">
        <ele>162</ele>
        <time>2022-03-27T10:10:22Z</time>
      </trkpt>
      <trkpt lat="48.5832" lon="1.82131">
        <ele>162</ele>
        <time>2022-03-27T10:10:24Z</time>
      </trkpt>
      <trkpt lat="48.58321" lon="1.82135">
        <ele>162</ele>
        <time>2022-03-27T10:10:26Z</time>
      </trkpt>
      <trkpt lat="48.58322" lon="1.8214">
        <ele>163</ele>
        <time>2022-03-27T10:10:28Z</time>
      </trkpt>
      <trkpt lat="48.58323" lon="1.82145">
        <ele>163</ele>
        <time>2022-03-27T10:10:30Z</time>
      </trkpt>
      <trkpt lat="48.58324" lon="1.8215">
        <ele>163</ele>
        <time>2022-03-27T10:10:32Z</time>
      </trkpt>
      <trkpt lat="48.58325" lon="1.82154">
        <ele>163</ele>
        <time>2022-03-27T10:10:34Z</time>
      </trkpt>
      <trkpt lat="48.58326" lon="1.82159">
        <ele>163</ele>
        <time>2022-03-27T10:10:36Z</time>
      </trkpt>
      <trkpt lat="48.58327" lon="1.82163">
        <ele>163</ele>
        <time>2022-03-27T10:10:38Z</time>
      </trkpt>
      <trkpt lat="48.58328" lon="1.82167">
        <ele>163</ele>
        <time>2022-03-27T10:10:40Z</time>
      </trkpt>
      <trkpt lat="48.58329" lon="1.82171">
        <ele>163</ele>
        <time>2022-03-27T10:10:42Z</time>
      </trkpt>
      <trkpt lat="48.58329" lon="1.82176">
        <ele>163</ele>
        <time>2022-03-27T10:10:44Z</time>
      </trkpt>
      <trkpt lat="48.58329" lon="1.82182">
        <ele>163</ele>
        <time>2022-03-27T10:10:46Z</time>
      </trkpt>
      <trkpt lat="48.58329" lon="1.82187">
        <ele>162</ele>
        <time>2022-03-27T10:10:48Z</time>
      </trkpt>
      <trkpt lat="48.58329" lon="1.82192">
        <ele>162</ele>
        <time>2022-03-27T10:10:50Z</time>
      </trkpt>
      <trkpt lat="48.58328" lon="1.82197">
        <ele>162</ele>
        <time>2022-03-27T10:10:52Z</time>
      </trkpt>
      <trkpt lat="48.58327" lon="1.82201">
        <ele>162</ele>
        <time>2022-03-27T10:10:54Z</time>
      </trkpt>
      <trkpt lat="48.58325" lon="1.82206">
        <ele>162</ele>
        <time>2022-03-27T10:10:56Z</time>
      </trkpt>
      <trkpt lat="48.58323" lon="1.8221">
        <ele>162</ele>
        <time>2022-03-27T10:10:58Z</time>
      </trkpt>
      <trkpt lat="48.58322" lon="1.82214">
        <ele>162</ele>
        <time>2022-03-27T10:11:00Z</time>
      </trkpt>
      <trkpt lat="48.5832" lon="1.82219">
        <ele>162</ele>
        <time>2022-03-27T10:11:02Z</time>
      </trkpt>
      <trkpt lat="48.58318" lon="1.82223">
        <ele>162</ele>
        <time>2022-03-27T10:11:04Z</time>
      </trkpt>
      <trkpt lat="48.58316" lon="1.82227">
        <ele>162</ele>
        <time>2022-03-27T10:11:06Z</time>
      </trkpt>
      <trkpt lat="48.58315" lon="1.82231">
        <ele>162</ele>
        <time>2022-03-27T10:11:08Z</time>
      </trkpt>
      <trkpt lat="48.58314" lon="1.82236">
        <ele>162</ele>
        <time>2022-03-27T10:11:10Z</time>
      </trkpt>
      <trkpt lat="48.58312" lon="1.82241">
        <ele>162</ele>
        <time>2022-03-27T10:11:12Z</time>
      </trkpt>
      <trkpt lat="48.58311" lon="1.82245">
        <ele>162</ele>
        <time>2022-03-27T10:11:14Z</time>
      </trkpt>
      <trkpt lat="48.58309" lon="1.82249">
        <ele>162</ele>
        <time>2022-03-27T10:11:16Z</time>
      </trkpt>
      <trkpt lat="48.58308" lon="1.82253">
        <ele>162</ele>
        <time>2022-03-27T10:11:18Z</time>
      </trkpt>
      <trkpt lat="48.58306" lon="1.82257">
        <ele>162</ele>
        <time>2022-03-27T10:11:20Z</time>
      </trkpt>
      <trkpt lat="48.58305" lon="1.82261">
        <ele>162</ele>
        <time>2022-03-27T10:11:23Z</time>
      </trkpt>
      <trkpt lat="48.58303" lon="1.82265">
        <ele>162</ele>
        <time>2022-03-27T10:11:24Z</time>
      </trkpt>
      <trkpt lat="48.58302" lon="1.82269">
        <ele>162</ele>
        <time>2022-03-27T10:11:26Z</time>
      </trkpt>
      <trkpt lat="48.58301" lon="1.82273">
        <ele>162</ele>
        <time>2022-03-27T10:11:28Z</time>
      </trkpt>
      <trkpt lat="48.583" lon="1.82277">
        <ele>162</ele>
        <time>2022-03-27T10:11:30Z</time>
      </trkpt>
      <trkpt lat="48.58299" lon="1.82281">
        <ele>162</ele>
        <time>2022-03-27T10:11:32Z</time>
      </trkpt>
      <trkpt lat="48.58298" lon="1.82286">
        <ele>163</ele>
        <time>2022-03-27T10:11:34Z</time>
      </trkpt>
      <trkpt lat="48.58298" lon="1.8229">
        <ele>163</ele>
        <time>2022-03-27T10:11:36Z</time>
      </trkpt>
      <trkpt lat="48.58297" lon="1.82294">
        <ele>163</ele>
        <time>2022-03-27T10:11:38Z</time>
      </trkpt>
      <trkpt lat="48.58296" lon="1.82298">
        <ele>162</ele>
        <time>2022-03-27T10:11:40Z</time>
      </trkpt>
      <trkpt lat="48.58295" lon="1.82302">
        <ele>162</ele>
        <time>2022-03-27T10:11:42Z</time>
      </trkpt>
      <trkpt lat="48.58294" lon="1.82306">
        <ele>162</ele>
        <time>2022-03-27T10:11:44Z</time>
      </trkpt>
      <trkpt lat="48.58294" lon="1.8231">
        <ele>162</ele>
        <time>2022-03-27T10:11:46Z</time>
      </trkpt>
      <trkpt lat="48.58293" lon="1.82314">
        <ele>162</ele>
        <time>2022-03-27T10:11:48Z</time>
      </trkpt>
      <trkpt lat="48.58292" lon="1.82319">
        <ele>163</ele>
        <time>2022-03-27T10:11:50Z</time>
      </trkpt>
      <trkpt lat="48.58291" lon="1.82323">
        <ele>163</ele>
        <time>2022-03-27T10:11:52Z</time>
      </trkpt>
      <trkpt lat="48.5829" lon="1.82327">
        <ele>163</ele>
        <time>2022-03-27T10:11:54Z</time>
      </trkpt>
      <trkpt lat="48.58288" lon="1.8233">
        <ele>163</ele>
        <time>2022-03-27T10:11:56Z</time>
      </trkpt>
      <trkpt lat="48.58286" lon="1.82333">
        <ele>163</ele>
        <time>2022-03-27T10:11:58Z</time>
      </trkpt>
      <trkpt lat="48.58283" lon="1.82336">
        <ele>163</ele>
        <time>2022-03-27T10:12:00Z</time>
      </trkpt>
      <trkpt lat="48.58281" lon="1.82338">
        <ele>163</ele>
        <time>2022-03-27T10:12:02Z</time>
      </trkpt>
      <trkpt lat="48.58278" lon="1.82341">
        <ele>163</ele>
        <time>2022-03-27T10:12:04Z</time>
      </trkpt>
      <trkpt lat="48.58276" lon="1.82344">
        <ele>163</ele>
        <time>2022-03-27T10:12:06Z</time>
      </trkpt>
      <trkpt lat="48.58273" lon="1.82347">
        <ele>163</ele>
        <time>2022-03-27T10:12:08Z</time>
      </trkpt>
      <trkpt lat="48.58271" lon="1.8235">
        <ele>163</ele>
        <time>2022-03-27T10:12:10Z</time>
      </trkpt>
      <trkpt lat="48.58268" lon="1.82352">
        <ele>163</ele>
        <time>2022-03-27T10:12:12Z</time>
      </trkpt>
      <trkpt lat="48.58266" lon="1.82355">
        <ele>162</ele>
        <time>2022-03-27T10:12:14Z</time>
      </trkpt>
      <trkpt lat="48.58263" lon="1.82358">
        <ele>162</ele>
        <time>2022-03-27T10:12:16Z</time>
      </trkpt>
      <trkpt lat="48.5826" lon="1.8236">
        <ele>162</ele>
        <time>2022-03-27T10:12:18Z</time>
      </trkpt>
      <trkpt lat="48.58258" lon="1.82362">
        <ele>162</ele>
        <time>2022-03-27T10:12:20Z</time>
      </trkpt>
      <trkpt lat="48.58255" lon="1.82364">
        <ele>162</ele>
        <time>2022-03-27T10:12:22Z</time>
      </trkpt>
      <trkpt lat="48.58253" lon="1.82367">
        <ele>162</ele>
        <time>2022-03-27T10:12:24Z</time>
      </trkpt>
      <trkpt lat="48.58251" lon="1.82369">
        <ele>162</ele>
        <time>2022-03-27T10:12:26Z</time>
      </trkpt>
      <trkpt lat="48.58248" lon="1.82372">
        <ele>162</ele>
        <time>2022-03-27T10:12:28Z</time>
      </trkpt>
      <trkpt lat="48.58245" lon="1.82375">
        <ele>162</ele>
        <time>2022-03-27T10:12:30Z</time>
      </trkpt>
      <trkpt lat="48.58242" lon="1.82377">
        <ele>162</ele>
        <time>2022-03-27T10:12:32Z</time>
      </trkpt>
      <trkpt lat="48.58238" lon="1.82379">
        <ele>162</ele>
        <time>2022-03-27T10:12:34Z</time>
      </trkpt>
      <trkpt lat="48.58237" lon="1.82379">
        <ele>162</ele>
        <time>2022-03-27T10:12:35Z</time>
      </trkpt>
      <trkpt lat="48.58235" lon="1.8238">
        <ele>162</ele>
        <time>2022-03-27T10:12:36Z</time>
      </trkpt>
      <trkpt lat="48.58233" lon="1.82381">
        <ele>162</ele>
        <time>2022-03-27T10:12:37Z</time>
      </trkpt>
      <trkpt lat="48.58229" lon="1.82381">
        <ele>162</ele>
        <time>2022-03-27T10:12:39Z</time>
      </trkpt>
      <trkpt lat="48.58226" lon="1.82382">
        <ele>162</ele>
        <time>2022-03-27T10:12:41Z</time>
      </trkpt>
      <trkpt lat="48.58223" lon="1.82383">
        <ele>162</ele>
        <time>2022-03-27T10:12:43Z</time>
      </trkpt>
      <trkpt lat="48.58221" lon="1.82383">
        <ele>162</ele>
        <time>2022-03-27T10:12:44Z</time>
      </trkpt>
      <trkpt lat="48.58217" lon="1.82384">
        <ele>162</ele>
        <time>2022-03-27T10:12:46Z</time>
      </trkpt>
      <trkpt lat="48.58215" lon="1.82384">
        <ele>162</ele>
        <time>2022-03-27T10:12:47Z</time>
      </trkpt>
      <trkpt lat="48.58214" lon="1.82384">
        <ele>162</ele>
        <time>2022-03-27T10:12:48Z</time>
      </trkpt>
      <trkpt lat="48.5821" lon="1.82384">
        <ele>162</ele>
        <time>2022-03-27T10:12:50Z</time>
      </trkpt>
      <trkpt lat="48.58207" lon="1.82384">
        <ele>162</ele>
        <time>2022-03-27T10:12:52Z</time>
      </trkpt>
      <trkpt lat="48.58204" lon="1.82384">
        <ele>162</ele>
        <time>2022-03-27T10:12:54Z</time>
      </trkpt>
      <trkpt lat="48.58201" lon="1.82385">
        <ele>162</ele>
        <time>2022-03-27T10:12:56Z</time>
      </trkpt>
      <trkpt lat="48.58197" lon="1.82386">
        <ele>162</ele>
        <time>2022-03-27T10:12:58Z</time>
      </trkpt>
      <trkpt lat="48.58194" lon="1.82386">
        <ele>162</ele>
        <time>2022-03-27T10:13:00Z</time>
      </trkpt>
      <trkpt lat="48.5819" lon="1.82386">
        <ele>162</ele>
        <time>2022-03-27T10:13:02Z</time>
      </trkpt>
      <trkpt lat="48.58188" lon="1.82387">
        <ele>162</ele>
        <time>2022-03-27T10:13:03Z</time>
      </trkpt>
      <trkpt lat="48.58185" lon="1.82387">
        <ele>162</ele>
        <time>2022-03-27T10:13:04Z</time>
      </trkpt>
      <trkpt lat="48.58182" lon="1.82388">
        <ele>162</ele>
        <time>2022-03-27T10:13:06Z</time>
      </trkpt>
      <trkpt lat="48.58178" lon="1.82388">
        <ele>162</ele>
        <time>2022-03-27T10:13:06Z</time>
      </trkpt>
      <trkpt lat="48.58174" lon="1.82389">
        <ele>162</ele>
        <time>2022-03-27T10:13:07Z</time>
      </trkpt>
      <trkpt lat="48.58171" lon="1.8239">
        <ele>162</ele>
        <time>2022-03-27T10:13:08Z</time>
      </trkpt>
      <trkpt lat="48.58167" lon="1.8239">
        <ele>162</ele>
        <time>2022-03-27T10:13:09Z</time>
      </trkpt>
      <trkpt lat="48.58163" lon="1.82391">
        <ele>162</ele>
        <time>2022-03-27T10:13:10Z</time>
      </trkpt>
      <trkpt lat="48.58159" lon="1.82391">
        <ele>162</ele>
        <time>2022-03-27T10:13:11Z</time>
      </trkpt>
      <trkpt lat="48.58155" lon="1.82392">
        <ele>162</ele>
        <time>2022-03-27T10:13:12Z</time>
      </trkpt>
      <trkpt lat="48.58151" lon="1.82392">
        <ele>162</ele>
        <time>2022-03-27T10:13:13Z</time>
      </trkpt>
      <trkpt lat="48.58147" lon="1.82393">
        <ele>162</ele>
        <time>2022-03-27T10:13:14Z</time>
      </trkpt>
      <trkpt lat="48.58143" lon="1.82393">
        <ele>162</ele>
        <time>2022-03-27T10:13:15Z</time>
      </trkpt>
      <trkpt lat="48.58139" lon="1.82393">
        <ele>162</ele>
        <time>2022-03-27T10:13:16Z</time>
      </trkpt>
      <trkpt lat="48.58135" lon="1.82394">
        <ele>162</ele>
        <time>2022-03-27T10:13:17Z</time>
      </trkpt>
      <trkpt lat="48.58131" lon="1.82394">
        <ele>162</ele>
        <time>2022-03-27T10:13:18Z</time>
      </trkpt>
      <trkpt lat="48.58127" lon="1.82395">
        <ele>162</ele>
        <time>2022-03-27T10:13:19Z</time>
      </trkpt>
      <trkpt lat="48.58123" lon="1.82396">
        <ele>162</ele>
        <time>2022-03-27T10:13:20Z</time>
      </trkpt>
      <trkpt lat="48.58119" lon="1.82396">
        <ele>162</ele>
        <time>2022-03-27T10:13:21Z</time>
      </trkpt>
      <trkpt lat="48.58116" lon="1.82397">
        <ele>162</ele>
        <time>2022-03-27T10:13:22Z</time>
      </trkpt>
      <trkpt lat="48.58112" lon="1.82398">
        <ele>162</ele>
        <time>2022-03-27T10:13:23Z</time>
      </trkpt>
      <trkpt lat="48.58108" lon="1.82399">
        <ele>162</ele>
        <time>2022-03-27T10:13:24Z</time>
      </trkpt>
      <trkpt lat="48.58104" lon="1.82399">
        <ele>162</ele>
        <time>2022-03-27T10:13:25Z</time>
      </trkpt>
      <trkpt lat="48.58101" lon="1.824">
        <ele>162</ele>
        <time>2022-03-27T10:13:26Z</time>
      </trkpt>
      <trkpt lat="48.58097" lon="1.824">
        <ele>162</ele>
        <time>2022-03-27T10:13:27Z</time>
      </trkpt>
      <trkpt lat="48.58093" lon="1.82401">
        <ele>162</ele>
        <time>2022-03-27T10:13:28Z</time>
      </trkpt>
      <trkpt lat="48.58089" lon="1.82401">
        <ele>162</ele>
        <time>2022-03-27T10:13:29Z</time>
      </trkpt>
      <trkpt lat="48.58085" lon="1.82401">
        <ele>162</ele>
        <time>2022-03-27T10:13:30Z</time>
      </trkpt>
      <trkpt lat="48.58081" lon="1.82401">
        <ele>162</ele>
        <time>2022-03-27T10:13:32Z</time>
      </trkpt>
      <trkpt lat="48.58077" lon="1.82401">
        <ele>162</ele>
        <time>2022-03-27T10:13:32Z</time>
      </trkpt>
      <trkpt lat="48.58072" lon="1.82402">
        <ele>162</ele>
        <time>2022-03-27T10:13:33Z</time>
      </trkpt>
      <trkpt lat="48.58068" lon="1.82403">
        <ele>162</ele>
        <time>2022-03-27T10:13:34Z</time>
      </trkpt>
      <trkpt lat="48.58064" lon="1.82404">
        <ele>162</ele>
        <time>2022-03-27T10:13:35Z</time>
      </trkpt>
      <trkpt lat="48.5806" lon="1.82405">
        <ele>162</ele>
        <time>2022-03-27T10:13:36Z</time>
      </trkpt>
      <trkpt lat="48.58056" lon="1.82405">
        <ele>162</ele>
        <time>2022-03-27T10:13:37Z</time>
      </trkpt>
      <trkpt lat="48.58051" lon="1.82406">
        <ele>162</ele>
        <time>2022-03-27T10:13:38Z</time>
      </trkpt>
      <trkpt lat="48.58047" lon="1.82406">
        <ele>162</ele>
        <time>2022-03-27T10:13:39Z</time>
      </trkpt>
      <trkpt lat="48.58043" lon="1.82407">
        <ele>162</ele>
        <time>2022-03-27T10:13:40Z</time>
      </trkpt>
      <trkpt lat="48.58039" lon="1.82407">
        <ele>162</ele>
        <time>2022-03-27T10:13:41Z</time>
      </trkpt>
      <trkpt lat="48.58035" lon="1.82408">
        <ele>162</ele>
        <time>2022-03-27T10:13:42Z</time>
      </trkpt>
      <trkpt lat="48.58031" lon="1.82408">
        <ele>162</ele>
        <time>2022-03-27T10:13:43Z</time>
      </trkpt>
      <trkpt lat="48.58026" lon="1.82409">
        <ele>162</ele>
        <time>2022-03-27T10:13:44Z</time>
      </trkpt>
      <trkpt lat="48.58022" lon="1.82409">
        <ele>162</ele>
        <time>2022-03-27T10:13:45Z</time>
      </trkpt>
      <trkpt lat="48.58018" lon="1.8241">
        <ele>163</ele>
        <time>2022-03-27T10:13:46Z</time>
      </trkpt>
      <trkpt lat="48.58014" lon="1.8241">
        <ele>163</ele>
        <time>2022-03-27T10:13:47Z</time>
      </trkpt>
      <trkpt lat="48.5801" lon="1.82411">
        <ele>163</ele>
        <time>2022-03-27T10:13:48Z</time>
      </trkpt>
      <trkpt lat="48.58006" lon="1.82411">
        <ele>163</ele>
        <time>2022-03-27T10:13:49Z</time>
      </trkpt>
      <trkpt lat="48.58002" lon="1.82412">
        <ele>163</ele>
        <time>2022-03-27T10:13:50Z</time>
      </trkpt>
      <trkpt lat="48.57998" lon="1.82413">
        <ele>163</ele>
        <time>2022-03-27T10:13:51Z</time>
      </trkpt>
      <trkpt lat="48.57994" lon="1.82414">
        <ele>163</ele>
        <time>2022-03-27T10:13:52Z</time>
      </trkpt>
      <trkpt lat="48.5799" lon="1.82414">
        <ele>163</ele>
        <time>2022-03-27T10:13:53Z</time>
      </trkpt>
      <trkpt lat="48.57986" lon="1.82415">
        <ele>163</ele>
        <time>2022-03-27T10:13:55Z</time>
      </trkpt>
      <trkpt lat="48.57981" lon="1.82415">
        <ele>163</ele>
        <time>2022-03-27T10:13:56Z</time>
      </trkpt>
      <trkpt lat="48.57977" lon="1.82416">
        <ele>163</ele>
        <time>2022-03-27T10:13:56Z</time>
      </trkpt>
      <trkpt lat="48.57973" lon="1.82416">
        <ele>164</ele>
        <time>2022-03-27T10:13:57Z</time>
      </trkpt>
      <trkpt lat="48.57968" lon="1.82417">
        <ele>164</ele>
        <time>2022-03-27T10:13:58Z</time>
      </trkpt>
      <trkpt lat="48.57964" lon="1.82417">
        <ele>164</ele>
        <time>2022-03-27T10:13:59Z</time>
      </trkpt>
      <trkpt lat="48.5796" lon="1.82418">
        <ele>164</ele>
        <time>2022-03-27T10:14:00Z</time>
      </trkpt>
      <trkpt lat="48.57956" lon="1.82418">
        <ele>164</ele>
        <time>2022-03-27T10:14:01Z</time>
      </trkpt>
      <trkpt lat="48.57952" lon="1.82419">
        <ele>164</ele>
        <time>2022-03-27T10:14:02Z</time>
      </trkpt>
      <trkpt lat="48.57947" lon="1.8242">
        <ele>164</ele>
        <time>2022-03-27T10:14:03Z</time>
      </trkpt>
      <trkpt lat="48.57943" lon="1.82421">
        <ele>164</ele>
        <time>2022-03-27T10:14:04Z</time>
      </trkpt>
      <trkpt lat="48.57939" lon="1.82421">
        <ele>164</ele>
        <time>2022-03-27T10:14:05Z</time>
      </trkpt>
      <trkpt lat="48.57935" lon="1.82422">
        <ele>164</ele>
        <time>2022-03-27T10:14:06Z</time>
      </trkpt>
      <trkpt lat="48.57931" lon="1.82423">
        <ele>164</ele>
        <time>2022-03-27T10:14:07Z</time>
      </trkpt>
      <trkpt lat="48.57927" lon="1.82423">
        <ele>164</ele>
        <time>2022-03-27T10:14:08Z</time>
      </trkpt>
      <trkpt lat="48.57922" lon="1.82424">
        <ele>164</ele>
        <time>2022-03-27T10:14:09Z</time>
      </trkpt>
      <trkpt lat="48.57918" lon="1.82425">
        <ele>164</ele>
        <time>2022-03-27T10:14:10Z</time>
      </trkpt>
      <trkpt lat="48.57914" lon="1.82425">
        <ele>164</ele>
        <time>2022-03-27T10:14:11Z</time>
      </trkpt>
      <trkpt lat="48.57911" lon="1.82425">
        <ele>164</ele>
        <time>2022-03-27T10:14:12Z</time>
      </trkpt>
      <trkpt lat="48.57907" lon="1.82426">
        <ele>164</ele>
        <time>2022-03-27T10:14:14Z</time>
      </trkpt>
      <trkpt lat="48.57904" lon="1.82427">
        <ele>164</ele>
        <time>2022-03-27T10:14:14Z</time>
      </trkpt>
      <trkpt lat="48.57901" lon="1.82427">
        <ele>164</ele>
        <time>2022-03-27T10:14:15Z</time>
      </trkpt>
      <trkpt lat="48.57898" lon="1.82428">
        <ele>164</ele>
        <time>2022-03-27T10:14:16Z</time>
      </trkpt>
      <trkpt lat="48.57895" lon="1.82428">
        <ele>164</ele>
        <time>2022-03-27T10:14:17Z</time>
      </trkpt>
      <trkpt lat="48.57893" lon="1.82429">
        <ele>164</ele>
        <time>2022-03-27T10:14:18Z</time>
      </trkpt>
      <trkpt lat="48.57891" lon="1.82429">
        <ele>164</ele>
        <time>2022-03-27T10:14:19Z</time>
      </trkpt>
      <trkpt lat="48.57888" lon="1.8243">
        <ele>164</ele>
        <time>2022-03-27T10:14:21Z</time>
      </trkpt>
      <trkpt lat="48.57886" lon="1.8243">
        <ele>164</ele>
        <time>2022-03-27T10:14:23Z</time>
      </trkpt>
      <trkpt lat="48.57884" lon="1.8243">
        <ele>164</ele>
        <time>2022-03-27T10:14:26Z</time>
      </trkpt>
      <trkpt lat="48.57882" lon="1.82432">
        <ele>164</ele>
        <time>2022-03-27T10:15:19Z</time>
      </trkpt>
      <trkpt lat="48.57879" lon="1.82435">
        <ele>164</ele>
        <time>2022-03-27T10:15:21Z</time>
      </trkpt>
      <trkpt lat="48.57877" lon="1.82439">
        <ele>164</ele>
        <time>2022-03-27T10:15:23Z</time>
      </trkpt>
      <trkpt lat="48.57875" lon="1.82443">
        <ele>164</ele>
        <time>2022-03-27T10:15:25Z</time>
      </trkpt>
      <trkpt lat="48.57875" lon="1.82446">
        <ele>164</ele>
        <time>2022-03-27T10:15:26Z</time>
      </trkpt>
      <trkpt lat="48.57873" lon="1.82451">
        <ele>164</ele>
        <time>2022-03-27T10:15:28Z</time>
      </trkpt>
      <trkpt lat="48.57873" lon="1.82456">
        <ele>164</ele>
        <time>2022-03-27T10:15:30Z</time>
      </trkpt>
      <trkpt lat="48.57872" lon="1.82461">
        <ele>164</ele>
        <time>2022-03-27T10:15:32Z</time>
      </trkpt>
      <trkpt lat="48.57872" lon="1.82466">
        <ele>165</ele>
        <time>2022-03-27T10:15:34Z</time>
      </trkpt>
      <trkpt lat="48.57872" lon="1.82471">
        <ele>165</ele>
        <time>2022-03-27T10:15:36Z</time>
      </trkpt>
      <trkpt lat="48.57871" lon="1.82476">
        <ele>165</ele>
        <time>2022-03-27T10:15:38Z</time>
      </trkpt>
      <trkpt lat="48.5787" lon="1.82481">
        <ele>165</ele>
        <time>2022-03-27T10:15:40Z</time>
      </trkpt>
      <trkpt lat="48.5787" lon="1.82486">
        <ele>165</ele>
        <time>2022-03-27T10:15:42Z</time>
      </trkpt>
      <trkpt lat="48.57869" lon="1.82491">
        <ele>165</ele>
        <time>2022-03-27T10:15:44Z</time>
      </trkpt>
      <trkpt lat="48.57868" lon="1.82496">
        <ele>165</ele>
        <time>2022-03-27T10:15:46Z</time>
      </trkpt>
      <trkpt lat="48.57868" lon="1.82501">
        <ele>165</ele>
        <time>2022-03-27T10:15:48Z</time>
      </trkpt>
      <trkpt lat="48.57867" lon="1.82506">
        <ele>165</ele>
        <time>2022-03-27T10:15:50Z</time>
      </trkpt>
      <trkpt lat="48.57866" lon="1.82511">
        <ele>165</ele>
        <time>2022-03-27T10:15:52Z</time>
      </trkpt>
      <trkpt lat="48.57866" lon="1.82513">
        <ele>165</ele>
        <time>2022-03-27T10:15:53Z</time>
      </trkpt>
      <trkpt lat="48.57865" lon="1.82518">
        <ele>165</ele>
        <time>2022-03-27T10:15:55Z</time>
      </trkpt>
      <trkpt lat="48.57865" lon="1.82523">
        <ele>165</ele>
        <time>2022-03-27T10:15:57Z</time>
      </trkpt>
      <trkpt lat="48.57864" lon="1.82527">
        <ele>165</ele>
        <time>2022-03-27T10:15:59Z</time>
      </trkpt>
      <trkpt lat="48.57863" lon="1.82531">
        <ele>165</ele>
        <time>2022-03-27T10:16:01Z</time>
      </trkpt>
      <trkpt lat="48.57863" lon="1.82536">
        <ele>165</ele>
        <time>2022-03-27T10:16:03Z</time>
      </trkpt>
      <trkpt lat="48.57862" lon="1.82541">
        <ele>165</ele>
        <time>2022-03-27T10:16:05Z</time>
      </trkpt>
      <trkpt lat="48.57861" lon="1.82545">
        <ele>165</ele>
        <time>2022-03-27T10:16:07Z</time>
      </trkpt>
      <trkpt lat="48.5786" lon="1.8255">
        <ele>165</ele>
        <time>2022-03-27T10:16:09Z</time>
      </trkpt>
      <trkpt lat="48.5786" lon="1.82555">
        <ele>165</ele>
        <time>2022-03-27T10:16:11Z</time>
      </trkpt>
      <trkpt lat="48.57859" lon="1.8256">
        <ele>165</ele>
        <time>2022-03-27T10:16:13Z</time>
      </trkpt>
      <trkpt lat="48.57858" lon="1.82566">
        <ele>165</ele>
        <time>2022-03-27T10:16:15Z</time>
      </trkpt>
      <trkpt lat="48.57858" lon="1.82571">
        <ele>165</ele>
        <time>2022-03-27T10:16:17Z</time>
      </trkpt>
      <trkpt lat="48.57857" lon="1.82576">
        <ele>165</ele>
        <time>2022-03-27T10:16:19Z</time>
      </trkpt>
      <trkpt lat="48.57855" lon="1.82581">
        <ele>165</ele>
        <time>2022-03-27T10:16:21Z</time>
      </trkpt>
      <trkpt lat="48.57854" lon="1.82585">
        <ele>165</ele>
        <time>2022-03-27T10:16:23Z</time>
      </trkpt>
      <trkpt lat="48.57853" lon="1.8259">
        <ele>165</ele>
        <time>2022-03-27T10:16:25Z</time>
      </trkpt>
      <trkpt lat="48.57852" lon="1.82595">
        <ele>165</ele>
        <time>2022-03-27T10:16:27Z</time>
      </trkpt>
      <trkpt lat="48.57851" lon="1.826">
        <ele>165</ele>
        <time>2022-03-27T10:16:29Z</time>
      </trkpt>
      <trkpt lat="48.5785" lon="1.82605">
        <ele>165</ele>
        <time>2022-03-27T10:16:31Z</time>
      </trkpt>
      <trkpt lat="48.57849" lon="1.82609">
        <ele>165</ele>
        <time>2022-03-27T10:16:33Z</time>
      </trkpt>
      <trkpt lat="48.57848" lon="1.82614">
        <ele>165</ele>
        <time>2022-03-27T10:16:35Z</time>
      </trkpt>
      <trkpt lat="48.57847" lon="1.82619">
        <ele>165</ele>
        <time>2022-03-27T10:16:37Z</time>
      </trkpt>
      <trkpt lat="48.57846" lon="1.82624">
        <ele>165</ele>
        <time>2022-03-27T10:16:39Z</time>
      </trkpt>
      <trkpt lat="48.57845" lon="1.82628">
        <ele>165</ele>
        <time>2022-03-27T10:16:41Z</time>
      </trkpt>
      <trkpt lat="48.57844" lon="1.82633">
        <ele>165</ele>
        <time>2022-03-27T10:16:43Z</time>
      </trkpt>
      <trkpt lat="48.57843" lon="1.82638">
        <ele>165</ele>
        <time>2022-03-27T10:16:46Z</time>
      </trkpt>
      <trkpt lat="48.57841" lon="1.82643">
        <ele>165</ele>
        <time>2022-03-27T10:16:47Z</time>
      </trkpt>
      <trkpt lat="48.5784" lon="1.82648">
        <ele>165</ele>
        <time>2022-03-27T10:16:49Z</time>
      </trkpt>
      <trkpt lat="48.57839" lon="1.82653">
        <ele>165</ele>
        <time>2022-03-27T10:16:51Z</time>
      </trkpt>
      <trkpt lat="48.57838" lon="1.82658">
        <ele>165</ele>
        <time>2022-03-27T10:16:53Z</time>
      </trkpt>
      <trkpt lat="48.57837" lon="1.82662">
        <ele>165</ele>
        <time>2022-03-27T10:16:55Z</time>
      </trkpt>
      <trkpt lat="48.57836" lon="1.82667">
        <ele>165</ele>
        <time>2022-03-27T10:16:57Z</time>
      </trkpt>
      <trkpt lat="48.57835" lon="1.82672">
        <ele>165</ele>
        <time>2022-03-27T10:16:59Z</time>
      </trkpt>
      <trkpt lat="48.57834" lon="1.82674">
        <ele>165</ele>
        <time>2022-03-27T10:17:00Z</time>
      </trkpt>
      <trkpt lat="48.57833" lon="1.82679">
        <ele>165</ele>
        <time>2022-03-27T10:17:02Z</time>
      </trkpt>
      <trkpt lat="48.57832" lon="1.82684">
        <ele>165</ele>
        <time>2022-03-27T10:17:05Z</time>
      </trkpt>
      <trkpt lat="48.57831" lon="1.82687">
        <ele>165</ele>
        <time>2022-03-27T10:17:05Z</time>
      </trkpt>
      <trkpt lat="48.5783" lon="1.82692">
        <ele>165</ele>
        <time>2022-03-27T10:17:07Z</time>
      </trkpt>
      <trkpt lat="48.57829" lon="1.82697">
        <ele>165</ele>
        <time>2022-03-27T10:17:09Z</time>
      </trkpt>
      <trkpt lat="48.57828" lon="1.82701">
        <ele>165</ele>
        <time>2022-03-27T10:17:11Z</time>
      </trkpt>
      <trkpt lat="48.57827" lon="1.82706">
        <ele>165</ele>
        <time>2022-03-27T10:17:13Z</time>
      </trkpt>
      <trkpt lat="48.57826" lon="1.82711">
        <ele>165</ele>
        <time>2022-03-27T10:17:15Z</time>
      </trkpt>
      <trkpt lat="48.57824" lon="1.82716">
        <ele>165</ele>
        <time>2022-03-27T10:17:17Z</time>
      </trkpt>
      <trkpt lat="48.57824" lon="1.82719">
        <ele>165</ele>
        <time>2022-03-27T10:17:18Z</time>
      </trkpt>
      <trkpt lat="48.57823" lon="1.82724">
        <ele>165</ele>
        <time>2022-03-27T10:17:20Z</time>
      </trkpt>
      <trkpt lat="48.57822" lon="1.82729">
        <ele>165</ele>
        <time>2022-03-27T10:17:22Z</time>
      </trkpt>
      <trkpt lat="48.57821" lon="1.82734">
        <ele>165</ele>
        <time>2022-03-27T10:17:24Z</time>
      </trkpt>
      <trkpt lat="48.5782" lon="1.82739">
        <ele>165</ele>
        <time>2022-03-27T10:17:26Z</time>
      </trkpt>
      <trkpt lat="48.57818" lon="1.82743">
        <ele>165</ele>
        <time>2022-03-27T10:17:28Z</time>
      </trkpt>
      <trkpt lat="48.57817" lon="1.82748">
        <ele>164</ele>
        <time>2022-03-27T10:17:30Z</time>
      </trkpt>
      <trkpt lat="48.57816" lon="1.82753">
        <ele>164</ele>
        <time>2022-03-27T10:17:32Z</time>
      </trkpt>
      <trkpt lat="48.57815" lon="1.82758">
        <ele>164</ele>
        <time>2022-03-27T10:17:34Z</time>
      </trkpt>
      <trkpt lat="48.57814" lon="1.82763">
        <ele>164</ele>
        <time>2022-03-27T10:17:36Z</time>
      </trkpt>
      <trkpt lat="48.57813" lon="1.82768">
        <ele>164</ele>
        <time>2022-03-27T10:17:38Z</time>
      </trkpt>
      <trkpt lat="48.57812" lon="1.82773">
        <ele>164</ele>
        <time>2022-03-27T10:17:40Z</time>
      </trkpt>
      <trkpt lat="48.57811" lon="1.82778">
        <ele>164</ele>
        <time>2022-03-27T10:17:42Z</time>
      </trkpt>
      <trkpt lat="48.57809" lon="1.82783">
        <ele>164</ele>
        <time>2022-03-27T10:17:44Z</time>
      </trkpt>
      <trkpt lat="48.57808" lon="1.82787">
        <ele>164</ele>
        <time>2022-03-27T10:17:46Z</time>
      </trkpt>
      <trkpt lat="48.57807" lon="1.82793">
        <ele>164</ele>
        <time>2022-03-27T10:17:48Z</time>
      </trkpt>
      <trkpt lat="48.57806" lon="1.82798">
        <ele>164</ele>
        <time>2022-03-27T10:17:50Z</time>
      </trkpt>
      <trkpt lat="48.57805" lon="1.82803">
        <ele>164</ele>
        <time>2022-03-27T10:17:52Z</time>
      </trkpt>
      <trkpt lat="48.57804" lon="1.82807">
        <ele>164</ele>
        <time>2022-03-27T10:17:54Z</time>
      </trkpt>
      <trkpt lat="48.57803" lon="1.82813">
        <ele>164</ele>
        <time>2022-03-27T10:17:56Z</time>
      </trkpt>
      <trkpt lat="48.57803" lon="1.82817">
        <ele>164</ele>
        <time>2022-03-27T10:17:58Z</time>
      </trkpt>
      <trkpt lat="48.57802" lon="1.82822">
        <ele>164</ele>
        <time>2022-03-27T10:18:00Z</time>
      </trkpt>
      <trkpt lat="48.57801" lon="1.82827">
        <ele>164</ele>
        <time>2022-03-27T10:18:02Z</time>
      </trkpt>
      <trkpt lat="48.57801" lon="1.82832">
        <ele>164</ele>
        <time>2022-03-27T10:18:04Z</time>
      </trkpt>
      <trkpt lat="48.578" lon="1.82837">
        <ele>164</ele>
        <time>2022-03-27T10:18:06Z</time>
      </trkpt>
      <trkpt lat="48.578" lon="1.82842">
        <ele>164</ele>
        <time>2022-03-27T10:18:08Z</time>
      </trkpt>
      <trkpt lat="48.57799" lon="1.82847">
        <ele>164</ele>
        <time>2022-03-27T10:18:10Z</time>
      </trkpt>
      <trkpt lat="48.57799" lon="1.82852">
        <ele>164</ele>
        <time>2022-03-27T10:18:12Z</time>
      </trkpt>
      <trkpt lat="48.57798" lon="1.82857">
        <ele>164</ele>
        <time>2022-03-27T10:18:14Z</time>
      </trkpt>
      <trkpt lat="48.57798" lon="1.82862">
        <ele>164</ele>
        <time>2022-03-27T10:18:16Z</time>
      </trkpt>
      <trkpt lat="48.57798" lon="1.82868">
        <ele>164</ele>
        <time>2022-03-27T10:18:18Z</time>
      </trkpt>
      <trkpt lat="48.57798" lon="1.8287">
        <ele>164</ele>
        <time>2022-03-27T10:18:19Z</time>
      </trkpt>
      <trkpt lat="48.57797" lon="1.82876">
        <ele>164</ele>
        <time>2022-03-27T10:18:21Z</time>
      </trkpt>
      <trkpt lat="48.57798" lon="1.82881">
        <ele>164</ele>
        <time>2022-03-27T10:18:23Z</time>
      </trkpt>
      <trkpt lat="48.57798" lon="1.82886">
        <ele>164</ele>
        <time>2022-03-27T10:18:25Z</time>
      </trkpt>
      <trkpt lat="48.57798" lon="1.82891">
        <ele>164</ele>
        <time>2022-03-27T10:18:27Z</time>
      </trkpt>
      <trkpt lat="48.57798" lon="1.82896">
        <ele>164</ele>
        <time>2022-03-27T10:18:29Z</time>
      </trkpt>
      <trkpt lat="48.57799" lon="1.82901">
        <ele>164</ele>
        <time>2022-03-27T10:18:31Z</time>
      </trkpt>
      <trkpt lat="48.57799" lon="1.82906">
        <ele>164</ele>
        <time>2022-03-27T10:18:33Z</time>
      </trkpt>
      <trkpt lat="48.578" lon="1.82911">
        <ele>163</ele>
        <time>2022-03-27T10:18:35Z</time>
      </trkpt>
      <trkpt lat="48.578" lon="1.82916">
        <ele>163</ele>
        <time>2022-03-27T10:18:37Z</time>
      </trkpt>
      <trkpt lat="48.578" lon="1.82921">
        <ele>163</ele>
        <time>2022-03-27T10:18:40Z</time>
      </trkpt>
      <trkpt lat="48.57801" lon="1.82926">
        <ele>163</ele>
        <time>2022-03-27T10:18:41Z</time>
      </trkpt>
      <trkpt lat="48.57802" lon="1.82931">
        <ele>164</ele>
        <time>2022-03-27T10:18:43Z</time>
      </trkpt>
      <trkpt lat="48.57803" lon="1.82935">
        <ele>164</ele>
        <time>2022-03-27T10:18:45Z</time>
      </trkpt>
      <trkpt lat="48.57805" lon="1.8294">
        <ele>163</ele>
        <time>2022-03-27T10:18:47Z</time>
      </trkpt>
      <trkpt lat="48.57806" lon="1.82945">
        <ele>164</ele>
        <time>2022-03-27T10:18:49Z</time>
      </trkpt>
      <trkpt lat="48.57808" lon="1.8295">
        <ele>164</ele>
        <time>2022-03-27T10:18:51Z</time>
      </trkpt>
      <trkpt lat="48.57809" lon="1.82954">
        <ele>164</ele>
        <time>2022-03-27T10:18:53Z</time>
      </trkpt>
      <trkpt lat="48.57811" lon="1.82959">
        <ele>164</ele>
        <time>2022-03-27T10:18:55Z</time>
      </trkpt>
      <trkpt lat="48.57813" lon="1.82963">
        <ele>163</ele>
        <time>2022-03-27T10:18:57Z</time>
      </trkpt>
      <trkpt lat="48.57814" lon="1.82968">
        <ele>163</ele>
        <time>2022-03-27T10:18:59Z</time>
      </trkpt>
      <trkpt lat="48.57815" lon="1.82972">
        <ele>163</ele>
        <time>2022-03-27T10:19:01Z</time>
      </trkpt>
      <trkpt lat="48.57817" lon="1.82975">
        <ele>163</ele>
        <time>2022-03-27T10:19:03Z</time>
      </trkpt>
      <trkpt lat="48.57818" lon="1.82979">
        <ele>163</ele>
        <time>2022-03-27T10:19:05Z</time>
      </trkpt>
      <trkpt lat="48.5782" lon="1.82982">
        <ele>163</ele>
        <time>2022-03-27T10:19:07Z</time>
      </trkpt>
      <trkpt lat="48.57822" lon="1.82985">
        <ele>163</ele>
        <time>2022-03-27T10:19:09Z</time>
      </trkpt>
      <trkpt lat="48.57823" lon="1.82988">
        <ele>163</ele>
        <time>2022-03-27T10:19:11Z</time>
      </trkpt>
      <trkpt lat="48.57825" lon="1.82991">
        <ele>163</ele>
        <time>2022-03-27T10:19:13Z</time>
      </trkpt>
      <trkpt lat="48.57827" lon="1.82994">
        <ele>163</ele>
        <time>2022-03-27T10:19:15Z</time>
      </trkpt>
      <trkpt lat="48.57829" lon="1.82997">
        <ele>163</ele>
        <time>2022-03-27T10:19:17Z</time>
      </trkpt>
      <trkpt lat="48.57831" lon="1.82999">
        <ele>163</ele>
        <time>2022-03-27T10:19:19Z</time>
      </trkpt>
      <trkpt lat="48.57833" lon="1.83003">
        <ele>162</ele>
        <time>2022-03-27T10:19:21Z</time>
      </trkpt>
      <trkpt lat="48.57834" lon="1.83005">
        <ele>162</ele>
        <time>2022-03-27T10:19:23Z</time>
      </trkpt>
      <trkpt lat="48.57836" lon="1.83008">
        <ele>162</ele>
        <time>2022-03-27T10:19:25Z</time>
      </trkpt>
      <trkpt lat="48.57838" lon="1.83011">
        <ele>162</ele>
        <time>2022-03-27T10:19:27Z</time>
      </trkpt>
      <trkpt lat="48.5784" lon="1.83015">
        <ele>162</ele>
        <time>2022-03-27T10:19:29Z</time>
      </trkpt>
      <trkpt lat="48.57842" lon="1.83018">
        <ele>162</ele>
        <time>2022-03-27T10:19:31Z</time>
      </trkpt>
      <trkpt lat="48.57843" lon="1.83021">
        <ele>162</ele>
        <time>2022-03-27T10:19:33Z</time>
      </trkpt>
      <trkpt lat="48.57845" lon="1.83023">
        <ele>162</ele>
        <time>2022-03-27T10:19:35Z</time>
      </trkpt>
      <trkpt lat="48.57848" lon="1.83026">
        <ele>162</ele>
        <time>2022-03-27T10:19:37Z</time>
      </trkpt>
      <trkpt lat="48.5785" lon="1.83029">
        <ele>162</ele>
        <time>2022-03-27T10:19:39Z</time>
      </trkpt>
      <trkpt lat="48.57853" lon="1.83032">
        <ele>162</ele>
        <time>2022-03-27T10:19:41Z</time>
      </trkpt>
      <trkpt lat="48.57856" lon="1.83034">
        <ele>162</ele>
        <time>2022-03-27T10:19:43Z</time>
      </trkpt>
      <trkpt lat="48.57858" lon="1.83037">
        <ele>162</ele>
        <time>2022-03-27T10:19:45Z</time>
      </trkpt>
      <trkpt lat="48.5786" lon="1.8304">
        <ele>161</ele>
        <time>2022-03-27T10:19:47Z</time>
      </trkpt>
      <trkpt lat="48.57863" lon="1.83043">
        <ele>161</ele>
        <time>2022-03-27T10:19:49Z</time>
      </trkpt>
      <trkpt lat="48.57865" lon="1.83046">
        <ele>161</ele>
        <time>2022-03-27T10:19:51Z</time>
      </trkpt>
      <trkpt lat="48.57867" lon="1.83049">
        <ele>161</ele>
        <time>2022-03-27T10:19:53Z</time>
      </trkpt>
      <trkpt lat="48.57869" lon="1.83051">
        <ele>162</ele>
        <time>2022-03-27T10:19:55Z</time>
      </trkpt>
      <trkpt lat="48.57871" lon="1.83054">
        <ele>161</ele>
        <time>2022-03-27T10:19:57Z</time>
      </trkpt>
      <trkpt lat="48.57873" lon="1.83057">
        <ele>161</ele>
        <time>2022-03-27T10:19:59Z</time>
      </trkpt>
      <trkpt lat="48.57874" lon="1.8306">
        <ele>161</ele>
        <time>2022-03-27T10:20:01Z</time>
      </trkpt>
      <trkpt lat="48.57877" lon="1.83063">
        <ele>161</ele>
        <time>2022-03-27T10:20:03Z</time>
      </trkpt>
      <trkpt lat="48.57878" lon="1.83066">
        <ele>161</ele>
        <time>2022-03-27T10:20:05Z</time>
      </trkpt>
      <trkpt lat="48.57878" lon="1.8307">
        <ele>161</ele>
        <time>2022-03-27T10:20:07Z</time>
      </trkpt>
      <trkpt lat="48.57877" lon="1.83072">
        <ele>161</ele>
        <time>2022-03-27T10:20:09Z</time>
      </trkpt>
      <trkpt lat="48.57879" lon="1.83075">
        <ele>161</ele>
        <time>2022-03-27T10:20:20Z</time>
      </trkpt>
      <trkpt lat="48.57881" lon="1.83079">
        <ele>160</ele>
        <time>2022-03-27T10:20:22Z</time>
      </trkpt>
      <trkpt lat="48.57882" lon="1.83084">
        <ele>160</ele>
        <time>2022-03-27T10:20:24Z</time>
      </trkpt>
      <trkpt lat="48.57882" lon="1.83089">
        <ele>160</ele>
        <time>2022-03-27T10:20:26Z</time>
      </trkpt>
      <trkpt lat="48.57883" lon="1.83094">
        <ele>160</ele>
        <time>2022-03-27T10:20:28Z</time>
      </trkpt>
      <trkpt lat="48.57883" lon="1.83098">
        <ele>160</ele>
        <time>2022-03-27T10:20:30Z</time>
      </trkpt>
      <trkpt lat="48.57884" lon="1.83103">
        <ele>160</ele>
        <time>2022-03-27T10:20:32Z</time>
      </trkpt>
      <trkpt lat="48.57886" lon="1.83107">
        <ele>160</ele>
        <time>2022-03-27T10:20:34Z</time>
      </trkpt>
      <trkpt lat="48.57889" lon="1.83111">
        <ele>160</ele>
        <time>2022-03-27T10:20:36Z</time>
      </trkpt>
      <trkpt lat="48.57891" lon="1.83114">
        <ele>160</ele>
        <time>2022-03-27T10:20:38Z</time>
      </trkpt>
      <trkpt lat="48.57893" lon="1.83117">
        <ele>160</ele>
        <time>2022-03-27T10:20:40Z</time>
      </trkpt>
      <trkpt lat="48.57895" lon="1.8312">
        <ele>159</ele>
        <time>2022-03-27T10:20:42Z</time>
      </trkpt>
      <trkpt lat="48.57898" lon="1.83123">
        <ele>159</ele>
        <time>2022-03-27T10:20:44Z</time>
      </trkpt>
      <trkpt lat="48.579" lon="1.83126">
        <ele>159</ele>
        <time>2022-03-27T10:20:46Z</time>
      </trkpt>
      <trkpt lat="48.57902" lon="1.8313">
        <ele>159</ele>
        <time>2022-03-27T10:20:48Z</time>
      </trkpt>
      <trkpt lat="48.57904" lon="1.83134">
        <ele>159</ele>
        <time>2022-03-27T10:20:50Z</time>
      </trkpt>
      <trkpt lat="48.57906" lon="1.83138">
        <ele>159</ele>
        <time>2022-03-27T10:20:52Z</time>
      </trkpt>
      <trkpt lat="48.57907" lon="1.83143">
        <ele>159</ele>
        <time>2022-03-27T10:20:54Z</time>
      </trkpt>
      <trkpt lat="48.57908" lon="1.83148">
        <ele>159</ele>
        <time>2022-03-27T10:20:56Z</time>
      </trkpt>
      <trkpt lat="48.5791" lon="1.83152">
        <ele>159</ele>
        <time>2022-03-27T10:20:58Z</time>
      </trkpt>
      <trkpt lat="48.57911" lon="1.83157">
        <ele>159</ele>
        <time>2022-03-27T10:21:00Z</time>
      </trkpt>
      <trkpt lat="48.57912" lon="1.83162">
        <ele>159</ele>
        <time>2022-03-27T10:21:02Z</time>
      </trkpt>
      <trkpt lat="48.57913" lon="1.83167">
        <ele>158</ele>
        <time>2022-03-27T10:21:04Z</time>
      </trkpt>
      <trkpt lat="48.57914" lon="1.83171">
        <ele>158</ele>
        <time>2022-03-27T10:21:06Z</time>
      </trkpt>
      <trkpt lat="48.57916" lon="1.83176">
        <ele>158</ele>
        <time>2022-03-27T10:21:08Z</time>
      </trkpt>
      <trkpt lat="48.57916" lon="1.83181">
        <ele>158</ele>
        <time>2022-03-27T10:21:10Z</time>
      </trkpt>
      <trkpt lat="48.57917" lon="1.83185">
        <ele>158</ele>
        <time>2022-03-27T10:21:12Z</time>
      </trkpt>
      <trkpt lat="48.57918" lon="1.8319">
        <ele>158</ele>
        <time>2022-03-27T10:21:14Z</time>
      </trkpt>
      <trkpt lat="48.57919" lon="1.83195">
        <ele>158</ele>
        <time>2022-03-27T10:21:16Z</time>
      </trkpt>
      <trkpt lat="48.5792" lon="1.83199">
        <ele>158</ele>
        <time>2022-03-27T10:21:18Z</time>
      </trkpt>
      <trkpt lat="48.57921" lon="1.83203">
        <ele>158</ele>
        <time>2022-03-27T10:21:20Z</time>
      </trkpt>
      <trkpt lat="48.57921" lon="1.83208">
        <ele>158</ele>
        <time>2022-03-27T10:21:22Z</time>
      </trkpt>
      <trkpt lat="48.57922" lon="1.83212">
        <ele>158</ele>
        <time>2022-03-27T10:21:24Z</time>
      </trkpt>
      <trkpt lat="48.57923" lon="1.83216">
        <ele>158</ele>
        <time>2022-03-27T10:21:26Z</time>
      </trkpt>
      <trkpt lat="48.57925" lon="1.83221">
        <ele>158</ele>
        <time>2022-03-27T10:21:28Z</time>
      </trkpt>
      <trkpt lat="48.57926" lon="1.83225">
        <ele>158</ele>
        <time>2022-03-27T10:21:31Z</time>
      </trkpt>
      <trkpt lat="48.57927" lon="1.83228">
        <ele>158</ele>
        <time>2022-03-27T10:21:31Z</time>
      </trkpt>
      <trkpt lat="48.57932" lon="1.8324">
        <ele>158</ele>
        <time>2022-03-27T10:21:36Z</time>
      </trkpt>
      <trkpt lat="48.57934" lon="1.83257">
        <ele>158</ele>
        <time>2022-03-27T10:21:47Z</time>
      </trkpt>
      <trkpt lat="48.57934" lon="1.8327">
        <ele>158</ele>
        <time>2022-03-27T10:21:50Z</time>
      </trkpt>
      <trkpt lat="48.57934" lon="1.83273">
        <ele>157</ele>
        <time>2022-03-27T10:21:51Z</time>
      </trkpt>
      <trkpt lat="48.57935" lon="1.83275">
        <ele>157</ele>
        <time>2022-03-27T10:21:52Z</time>
      </trkpt>
      <trkpt lat="48.57935" lon="1.8328">
        <ele>157</ele>
        <time>2022-03-27T10:21:54Z</time>
      </trkpt>
      <trkpt lat="48.57936" lon="1.83284">
        <ele>157</ele>
        <time>2022-03-27T10:21:56Z</time>
      </trkpt>
      <trkpt lat="48.57937" lon="1.83289">
        <ele>157</ele>
        <time>2022-03-27T10:21:58Z</time>
      </trkpt>
      <trkpt lat="48.57938" lon="1.83294">
        <ele>157</ele>
        <time>2022-03-27T10:22:00Z</time>
      </trkpt>
      <trkpt lat="48.57939" lon="1.83299">
        <ele>157</ele>
        <time>2022-03-27T10:22:02Z</time>
      </trkpt>
      <trkpt lat="48.57939" lon="1.83304">
        <ele>157</ele>
        <time>2022-03-27T10:22:04Z</time>
      </trkpt>
      <trkpt lat="48.5794" lon="1.83308">
        <ele>157</ele>
        <time>2022-03-27T10:22:06Z</time>
      </trkpt>
      <trkpt lat="48.57941" lon="1.83313">
        <ele>157</ele>
        <time>2022-03-27T10:22:09Z</time>
      </trkpt>
      <trkpt lat="48.57942" lon="1.83318">
        <ele>157</ele>
        <time>2022-03-27T10:22:10Z</time>
      </trkpt>
      <trkpt lat="48.57943" lon="1.83322">
        <ele>158</ele>
        <time>2022-03-27T10:22:12Z</time>
      </trkpt>
      <trkpt lat="48.57944" lon="1.83327">
        <ele>158</ele>
        <time>2022-03-27T10:22:15Z</time>
      </trkpt>
      <trkpt lat="48.57945" lon="1.83332">
        <ele>158</ele>
        <time>2022-03-27T10:22:16Z</time>
      </trkpt>
      <trkpt lat="48.57945" lon="1.83336">
        <ele>158</ele>
        <time>2022-03-27T10:22:18Z</time>
      </trkpt>
      <trkpt lat="48.57946" lon="1.83341">
        <ele>158</ele>
        <time>2022-03-27T10:22:20Z</time>
      </trkpt>
      <trkpt lat="48.57946" lon="1.83346">
        <ele>158</ele>
        <time>2022-03-27T10:22:22Z</time>
      </trkpt>
      <trkpt lat="48.57946" lon="1.8335">
        <ele>158</ele>
        <time>2022-03-27T10:22:24Z</time>
      </trkpt>
      <trkpt lat="48.57946" lon="1.83355">
        <ele>159</ele>
        <time>2022-03-27T10:22:26Z</time>
      </trkpt>
      <trkpt lat="48.57946" lon="1.8336">
        <ele>159</ele>
        <time>2022-03-27T10:22:28Z</time>
      </trkpt>
      <trkpt lat="48.57946" lon="1.83364">
        <ele>159</ele>
        <time>2022-03-27T10:22:30Z</time>
      </trkpt>
      <trkpt lat="48.57946" lon="1.83368">
        <ele>159</ele>
        <time>2022-03-27T10:22:32Z</time>
      </trkpt>
      <trkpt lat="48.57945" lon="1.83372">
        <ele>159</ele>
        <time>2022-03-27T10:22:34Z</time>
      </trkpt>
      <trkpt lat="48.57943" lon="1.83376">
        <ele>159</ele>
        <time>2022-03-27T10:22:36Z</time>
      </trkpt>
      <trkpt lat="48.57942" lon="1.83381">
        <ele>159</ele>
        <time>2022-03-27T10:22:38Z</time>
      </trkpt>
      <trkpt lat="48.57941" lon="1.83385">
        <ele>159</ele>
        <time>2022-03-27T10:22:40Z</time>
      </trkpt>
      <trkpt lat="48.5794" lon="1.83389">
        <ele>159</ele>
        <time>2022-03-27T10:22:42Z</time>
      </trkpt>
      <trkpt lat="48.57939" lon="1.83394">
        <ele>159</ele>
        <time>2022-03-27T10:22:44Z</time>
      </trkpt>
      <trkpt lat="48.57939" lon="1.83398">
        <ele>159</ele>
        <time>2022-03-27T10:22:46Z</time>
      </trkpt>
      <trkpt lat="48.5794" lon="1.83403">
        <ele>159</ele>
        <time>2022-03-27T10:22:48Z</time>
      </trkpt>
      <trkpt lat="48.57941" lon="1.83407">
        <ele>159</ele>
        <time>2022-03-27T10:22:50Z</time>
      </trkpt>
      <trkpt lat="48.57942" lon="1.83411">
        <ele>159</ele>
        <time>2022-03-27T10:22:52Z</time>
      </trkpt>
      <trkpt lat="48.57944" lon="1.83415">
        <ele>159</ele>
        <time>2022-03-27T10:22:54Z</time>
      </trkpt>
      <trkpt lat="48.57946" lon="1.83418">
        <ele>160</ele>
        <time>2022-03-27T10:22:56Z</time>
      </trkpt>
      <trkpt lat="48.57949" lon="1.83421">
        <ele>160</ele>
        <time>2022-03-27T10:22:58Z</time>
      </trkpt>
      <trkpt lat="48.57951" lon="1.83425">
        <ele>160</ele>
        <time>2022-03-27T10:23:00Z</time>
      </trkpt>
      <trkpt lat="48.57953" lon="1.83428">
        <ele>160</ele>
        <time>2022-03-27T10:23:02Z</time>
      </trkpt>
      <trkpt lat="48.57955" lon="1.83431">
        <ele>160</ele>
        <time>2022-03-27T10:23:04Z</time>
      </trkpt>
      <trkpt lat="48.57956" lon="1.83436">
        <ele>160</ele>
        <time>2022-03-27T10:23:06Z</time>
      </trkpt>
      <trkpt lat="48.57957" lon="1.8344">
        <ele>160</ele>
        <time>2022-03-27T10:23:08Z</time>
      </trkpt>
      <trkpt lat="48.57958" lon="1.83445">
        <ele>160</ele>
        <time>2022-03-27T10:23:10Z</time>
      </trkpt>
      <trkpt lat="48.57958" lon="1.83449">
        <ele>160</ele>
        <time>2022-03-27T10:23:12Z</time>
      </trkpt>
      <trkpt lat="48.57959" lon="1.83454">
        <ele>160</ele>
        <time>2022-03-27T10:23:14Z</time>
      </trkpt>
      <trkpt lat="48.5796" lon="1.83458">
        <ele>160</ele>
        <time>2022-03-27T10:23:16Z</time>
      </trkpt>
      <trkpt lat="48.5796" lon="1.83463">
        <ele>161</ele>
        <time>2022-03-27T10:23:18Z</time>
      </trkpt>
      <trkpt lat="48.57961" lon="1.83468">
        <ele>161</ele>
        <time>2022-03-27T10:23:20Z</time>
      </trkpt>
      <trkpt lat="48.57961" lon="1.83473">
        <ele>161</ele>
        <time>2022-03-27T10:23:22Z</time>
      </trkpt>
      <trkpt lat="48.57961" lon="1.83478">
        <ele>161</ele>
        <time>2022-03-27T10:23:24Z</time>
      </trkpt>
      <trkpt lat="48.57961" lon="1.83483">
        <ele>161</ele>
        <time>2022-03-27T10:23:26Z</time>
      </trkpt>
      <trkpt lat="48.57961" lon="1.83488">
        <ele>161</ele>
        <time>2022-03-27T10:23:28Z</time>
      </trkpt>
      <trkpt lat="48.57962" lon="1.83492">
        <ele>161</ele>
        <time>2022-03-27T10:23:30Z</time>
      </trkpt>
      <trkpt lat="48.57962" lon="1.83498">
        <ele>161</ele>
        <time>2022-03-27T10:23:32Z</time>
      </trkpt>
      <trkpt lat="48.57963" lon="1.83503">
        <ele>161</ele>
        <time>2022-03-27T10:23:34Z</time>
      </trkpt>
      <trkpt lat="48.57963" lon="1.83508">
        <ele>161</ele>
        <time>2022-03-27T10:23:36Z</time>
      </trkpt>
      <trkpt lat="48.57963" lon="1.83513">
        <ele>161</ele>
        <time>2022-03-27T10:23:38Z</time>
      </trkpt>
      <trkpt lat="48.57963" lon="1.83518">
        <ele>161</ele>
        <time>2022-03-27T10:23:40Z</time>
      </trkpt>
      <trkpt lat="48.57964" lon="1.83523">
        <ele>161</ele>
        <time>2022-03-27T10:23:42Z</time>
      </trkpt>
      <trkpt lat="48.57964" lon="1.83528">
        <ele>161</ele>
        <time>2022-03-27T10:23:44Z</time>
      </trkpt>
      <trkpt lat="48.57965" lon="1.83533">
        <ele>161</ele>
        <time>2022-03-27T10:23:46Z</time>
      </trkpt>
      <trkpt lat="48.57965" lon="1.83538">
        <ele>162</ele>
        <time>2022-03-27T10:23:48Z</time>
      </trkpt>
      <trkpt lat="48.57966" lon="1.83543">
        <ele>162</ele>
        <time>2022-03-27T10:23:50Z</time>
      </trkpt>
      <trkpt lat="48.57966" lon="1.83548">
        <ele>162</ele>
        <time>2022-03-27T10:23:52Z</time>
      </trkpt>
      <trkpt lat="48.57966" lon="1.83553">
        <ele>162</ele>
        <time>2022-03-27T10:23:54Z</time>
      </trkpt>
      <trkpt lat="48.57967" lon="1.83558">
        <ele>162</ele>
        <time>2022-03-27T10:23:56Z</time>
      </trkpt>
      <trkpt lat="48.57967" lon="1.83562">
        <ele>162</ele>
        <time>2022-03-27T10:23:58Z</time>
      </trkpt>
      <trkpt lat="48.57968" lon="1.83567">
        <ele>162</ele>
        <time>2022-03-27T10:24:00Z</time>
      </trkpt>
      <trkpt lat="48.57968" lon="1.83571">
        <ele>162</ele>
        <time>2022-03-27T10:24:02Z</time>
      </trkpt>
      <trkpt lat="48.57969" lon="1.83576">
        <ele>162</ele>
        <time>2022-03-27T10:24:04Z</time>
      </trkpt>
      <trkpt lat="48.57969" lon="1.83581">
        <ele>162</ele>
        <time>2022-03-27T10:24:06Z</time>
      </trkpt>
      <trkpt lat="48.5797" lon="1.83585">
        <ele>162</ele>
        <time>2022-03-27T10:24:08Z</time>
      </trkpt>
      <trkpt lat="48.57971" lon="1.8359">
        <ele>162</ele>
        <time>2022-03-27T10:24:10Z</time>
      </trkpt>
      <trkpt lat="48.57972" lon="1.83594">
        <ele>162</ele>
        <time>2022-03-27T10:24:12Z</time>
      </trkpt>
      <trkpt lat="48.57973" lon="1.83599">
        <ele>162</ele>
        <time>2022-03-27T10:24:14Z</time>
      </trkpt>
      <trkpt lat="48.57974" lon="1.83604">
        <ele>162</ele>
        <time>2022-03-27T10:24:16Z</time>
      </trkpt>
      <trkpt lat="48.57975" lon="1.83608">
        <ele>162</ele>
        <time>2022-03-27T10:24:18Z</time>
      </trkpt>
      <trkpt lat="48.57976" lon="1.83612">
        <ele>162</ele>
        <time>2022-03-27T10:24:20Z</time>
      </trkpt>
      <trkpt lat="48.57978" lon="1.83617">
        <ele>162</ele>
        <time>2022-03-27T10:24:22Z</time>
      </trkpt>
      <trkpt lat="48.57979" lon="1.83621">
        <ele>162</ele>
        <time>2022-03-27T10:24:24Z</time>
      </trkpt>
      <trkpt lat="48.5798" lon="1.83626">
        <ele>162</ele>
        <time>2022-03-27T10:24:26Z</time>
      </trkpt>
      <trkpt lat="48.57981" lon="1.8363">
        <ele>162</ele>
        <time>2022-03-27T10:24:28Z</time>
      </trkpt>
      <trkpt lat="48.57983" lon="1.83635">
        <ele>162</ele>
        <time>2022-03-27T10:24:30Z</time>
      </trkpt>
      <trkpt lat="48.57984" lon="1.83639">
        <ele>162</ele>
        <time>2022-03-27T10:24:32Z</time>
      </trkpt>
      <trkpt lat="48.57985" lon="1.83643">
        <ele>162</ele>
        <time>2022-03-27T10:24:34Z</time>
      </trkpt>
      <trkpt lat="48.57986" lon="1.83648">
        <ele>162</ele>
        <time>2022-03-27T10:24:36Z</time>
      </trkpt>
      <trkpt lat="48.57987" lon="1.83652">
        <ele>162</ele>
        <time>2022-03-27T10:24:38Z</time>
      </trkpt>
      <trkpt lat="48.57988" lon="1.83656">
        <ele>162</ele>
        <time>2022-03-27T10:24:41Z</time>
      </trkpt>
      <trkpt lat="48.57989" lon="1.83661">
        <ele>162</ele>
        <time>2022-03-27T10:24:42Z</time>
      </trkpt>
      <trkpt lat="48.5799" lon="1.83665">
        <ele>162</ele>
        <time>2022-03-27T10:24:44Z</time>
      </trkpt>
      <trkpt lat="48.57991" lon="1.8367">
        <ele>162</ele>
        <time>2022-03-27T10:24:46Z</time>
      </trkpt>
      <trkpt lat="48.57992" lon="1.83674">
        <ele>162</ele>
        <time>2022-03-27T10:24:48Z</time>
      </trkpt>
      <trkpt lat="48.57992" lon="1.83679">
        <ele>162</ele>
        <time>2022-03-27T10:24:50Z</time>
      </trkpt>
      <trkpt lat="48.57993" lon="1.83683">
        <ele>162</ele>
        <time>2022-03-27T10:24:52Z</time>
      </trkpt>
      <trkpt lat="48.57993" lon="1.83688">
        <ele>162</ele>
        <time>2022-03-27T10:24:54Z</time>
      </trkpt>
      <trkpt lat="48.57994" lon="1.83692">
        <ele>162</ele>
        <time>2022-03-27T10:24:56Z</time>
      </trkpt>
      <trkpt lat="48.57994" lon="1.83697">
        <ele>162</ele>
        <time>2022-03-27T10:24:58Z</time>
      </trkpt>
      <trkpt lat="48.57994" lon="1.83701">
        <ele>162</ele>
        <time>2022-03-27T10:25:00Z</time>
      </trkpt>
      <trkpt lat="48.57994" lon="1.83706">
        <ele>162</ele>
        <time>2022-03-27T10:25:02Z</time>
      </trkpt>
      <trkpt lat="48.57994" lon="1.8371">
        <ele>162</ele>
        <time>2022-03-27T10:25:04Z</time>
      </trkpt>
      <trkpt lat="48.57994" lon="1.83715">
        <ele>162</ele>
        <time>2022-03-27T10:25:06Z</time>
      </trkpt>
      <trkpt lat="48.57994" lon="1.8372">
        <ele>162</ele>
        <time>2022-03-27T10:25:08Z</time>
      </trkpt>
      <trkpt lat="48.57994" lon="1.83725">
        <ele>162</ele>
        <time>2022-03-27T10:25:10Z</time>
      </trkpt>
      <trkpt lat="48.57993" lon="1.8373">
        <ele>162</ele>
        <time>2022-03-27T10:25:12Z</time>
      </trkpt>
      <trkpt lat="48.57993" lon="1.83735">
        <ele>162</ele>
        <time>2022-03-27T10:25:14Z</time>
      </trkpt>
      <trkpt lat="48.57992" lon="1.83741">
        <ele>162</ele>
        <time>2022-03-27T10:25:16Z</time>
      </trkpt>
      <trkpt lat="48.57992" lon="1.83746">
        <ele>163</ele>
        <time>2022-03-27T10:25:19Z</time>
      </trkpt>
      <trkpt lat="48.57991" lon="1.8375">
        <ele>163</ele>
        <time>2022-03-27T10:25:20Z</time>
      </trkpt>
      <trkpt lat="48.5799" lon="1.83755">
        <ele>163</ele>
        <time>2022-03-27T10:25:22Z</time>
      </trkpt>
      <trkpt lat="48.57989" lon="1.8376">
        <ele>163</ele>
        <time>2022-03-27T10:25:24Z</time>
      </trkpt>
      <trkpt lat="48.57988" lon="1.83765">
        <ele>163</ele>
        <time>2022-03-27T10:25:26Z</time>
      </trkpt>
      <trkpt lat="48.57987" lon="1.8377">
        <ele>163</ele>
        <time>2022-03-27T10:25:28Z</time>
      </trkpt>
      <trkpt lat="48.57986" lon="1.83774">
        <ele>163</ele>
        <time>2022-03-27T10:25:30Z</time>
      </trkpt>
      <trkpt lat="48.57985" lon="1.83779">
        <ele>163</ele>
        <time>2022-03-27T10:25:32Z</time>
      </trkpt>
      <trkpt lat="48.57984" lon="1.83784">
        <ele>163</ele>
        <time>2022-03-27T10:25:34Z</time>
      </trkpt>
      <trkpt lat="48.57983" lon="1.83789">
        <ele>163</ele>
        <time>2022-03-27T10:25:36Z</time>
      </trkpt>
      <trkpt lat="48.57983" lon="1.83794">
        <ele>163</ele>
        <time>2022-03-27T10:25:38Z</time>
      </trkpt>
      <trkpt lat="48.57983" lon="1.83799">
        <ele>163</ele>
        <time>2022-03-27T10:25:40Z</time>
      </trkpt>
      <trkpt lat="48.57982" lon="1.83804">
        <ele>163</ele>
        <time>2022-03-27T10:25:42Z</time>
      </trkpt>
      <trkpt lat="48.57982" lon="1.83809">
        <ele>163</ele>
        <time>2022-03-27T10:25:44Z</time>
      </trkpt>
      <trkpt lat="48.57982" lon="1.83814">
        <ele>163</ele>
        <time>2022-03-27T10:25:46Z</time>
      </trkpt>
      <trkpt lat="48.57982" lon="1.83819">
        <ele>163</ele>
        <time>2022-03-27T10:25:48Z</time>
      </trkpt>
      <trkpt lat="48.57982" lon="1.83824">
        <ele>163</ele>
        <time>2022-03-27T10:25:50Z</time>
      </trkpt>
      <trkpt lat="48.57982" lon="1.83829">
        <ele>163</ele>
        <time>2022-03-27T10:25:52Z</time>
      </trkpt>
      <trkpt lat="48.57983" lon="1.83834">
        <ele>163</ele>
        <time>2022-03-27T10:25:54Z</time>
      </trkpt>
      <trkpt lat="48.57983" lon="1.83839">
        <ele>163</ele>
        <time>2022-03-27T10:25:56Z</time>
      </trkpt>
      <trkpt lat="48.57984" lon="1.83843">
        <ele>163</ele>
        <time>2022-03-27T10:25:58Z</time>
      </trkpt>
      <trkpt lat="48.57984" lon="1.83848">
        <ele>163</ele>
        <time>2022-03-27T10:26:00Z</time>
      </trkpt>
      <trkpt lat="48.57985" lon="1.83853">
        <ele>163</ele>
        <time>2022-03-27T10:26:02Z</time>
      </trkpt>
      <trkpt lat="48.57985" lon="1.83858">
        <ele>163</ele>
        <time>2022-03-27T10:26:04Z</time>
      </trkpt>
      <trkpt lat="48.57986" lon="1.83863">
        <ele>163</ele>
        <time>2022-03-27T10:26:06Z</time>
      </trkpt>
      <trkpt lat="48.57986" lon="1.83868">
        <ele>163</ele>
        <time>2022-03-27T10:26:08Z</time>
      </trkpt>
      <trkpt lat="48.57987" lon="1.83872">
        <ele>163</ele>
        <time>2022-03-27T10:26:10Z</time>
      </trkpt>
      <trkpt lat="48.57988" lon="1.83877">
        <ele>163</ele>
        <time>2022-03-27T10:26:12Z</time>
      </trkpt>
      <trkpt lat="48.57988" lon="1.83882">
        <ele>163</ele>
        <time>2022-03-27T10:26:14Z</time>
      </trkpt>
      <trkpt lat="48.57989" lon="1.83887">
        <ele>163</ele>
        <time>2022-03-27T10:26:16Z</time>
      </trkpt>
      <trkpt lat="48.5799" lon="1.83892">
        <ele>163</ele>
        <time>2022-03-27T10:26:18Z</time>
      </trkpt>
      <trkpt lat="48.5799" lon="1.83897">
        <ele>163</ele>
        <time>2022-03-27T10:26:20Z</time>
      </trkpt>
      <trkpt lat="48.57991" lon="1.83902">
        <ele>163</ele>
        <time>2022-03-27T10:26:22Z</time>
      </trkpt>
      <trkpt lat="48.57991" lon="1.83907">
        <ele>163</ele>
        <time>2022-03-27T10:26:24Z</time>
      </trkpt>
      <trkpt lat="48.57992" lon="1.83911">
        <ele>163</ele>
        <time>2022-03-27T10:26:26Z</time>
      </trkpt>
      <trkpt lat="48.57992" lon="1.83916">
        <ele>162</ele>
        <time>2022-03-27T10:26:28Z</time>
      </trkpt>
      <trkpt lat="48.57992" lon="1.83921">
        <ele>162</ele>
        <time>2022-03-27T10:26:30Z</time>
      </trkpt>
      <trkpt lat="48.57992" lon="1.83927">
        <ele>162</ele>
        <time>2022-03-27T10:26:32Z</time>
      </trkpt>
      <trkpt lat="48.57993" lon="1.83932">
        <ele>162</ele>
        <time>2022-03-27T10:26:35Z</time>
      </trkpt>
      <trkpt lat="48.57993" lon="1.83936">
        <ele>162</ele>
        <time>2022-03-27T10:26:36Z</time>
      </trkpt>
      <trkpt lat="48.57994" lon="1.83941">
        <ele>162</ele>
        <time>2022-03-27T10:26:38Z</time>
      </trkpt>
      <trkpt lat="48.57994" lon="1.83946">
        <ele>162</ele>
        <time>2022-03-27T10:26:40Z</time>
      </trkpt>
      <trkpt lat="48.57994" lon="1.83951">
        <ele>162</ele>
        <time>2022-03-27T10:26:42Z</time>
      </trkpt>
      <trkpt lat="48.57995" lon="1.83956">
        <ele>162</ele>
        <time>2022-03-27T10:26:44Z</time>
      </trkpt>
      <trkpt lat="48.57995" lon="1.83961">
        <ele>162</ele>
        <time>2022-03-27T10:26:46Z</time>
      </trkpt>
      <trkpt lat="48.57995" lon="1.83966">
        <ele>162</ele>
        <time>2022-03-27T10:26:48Z</time>
      </trkpt>
      <trkpt lat="48.57995" lon="1.83971">
        <ele>162</ele>
        <time>2022-03-27T10:26:50Z</time>
      </trkpt>
      <trkpt lat="48.57996" lon="1.83976">
        <ele>162</ele>
        <time>2022-03-27T10:26:52Z</time>
      </trkpt>
      <trkpt lat="48.57996" lon="1.83981">
        <ele>162</ele>
        <time>2022-03-27T10:26:54Z</time>
      </trkpt>
      <trkpt lat="48.57996" lon="1.83986">
        <ele>162</ele>
        <time>2022-03-27T10:26:56Z</time>
      </trkpt>
      <trkpt lat="48.57997" lon="1.83991">
        <ele>162</ele>
        <time>2022-03-27T10:26:58Z</time>
      </trkpt>
      <trkpt lat="48.57997" lon="1.83996">
        <ele>162</ele>
        <time>2022-03-27T10:27:00Z</time>
      </trkpt>
      <trkpt lat="48.57997" lon="1.84001">
        <ele>162</ele>
        <time>2022-03-27T10:27:02Z</time>
      </trkpt>
      <trkpt lat="48.57997" lon="1.84006">
        <ele>162</ele>
        <time>2022-03-27T10:27:04Z</time>
      </trkpt>
      <trkpt lat="48.57998" lon="1.84011">
        <ele>162</ele>
        <time>2022-03-27T10:27:06Z</time>
      </trkpt>
      <trkpt lat="48.57998" lon="1.84016">
        <ele>162</ele>
        <time>2022-03-27T10:27:08Z</time>
      </trkpt>
      <trkpt lat="48.57998" lon="1.84021">
        <ele>162</ele>
        <time>2022-03-27T10:27:10Z</time>
      </trkpt>
      <trkpt lat="48.57999" lon="1.84026">
        <ele>162</ele>
        <time>2022-03-27T10:27:13Z</time>
      </trkpt>
      <trkpt lat="48.57999" lon="1.84031">
        <ele>162</ele>
        <time>2022-03-27T10:27:14Z</time>
      </trkpt>
      <trkpt lat="48.57999" lon="1.84036">
        <ele>162</ele>
        <time>2022-03-27T10:27:16Z</time>
      </trkpt>
      <trkpt lat="48.57999" lon="1.84041">
        <ele>162</ele>
        <time>2022-03-27T10:27:18Z</time>
      </trkpt>
      <trkpt lat="48.57999" lon="1.84046">
        <ele>162</ele>
        <time>2022-03-27T10:27:20Z</time>
      </trkpt>
      <trkpt lat="48.57999" lon="1.84051">
        <ele>162</ele>
        <time>2022-03-27T10:27:22Z</time>
      </trkpt>
      <trkpt lat="48.57999" lon="1.84056">
        <ele>162</ele>
        <time>2022-03-27T10:27:24Z</time>
      </trkpt>
      <trkpt lat="48.57999" lon="1.84061">
        <ele>162</ele>
        <time>2022-03-27T10:27:26Z</time>
      </trkpt>
      <trkpt lat="48.57998" lon="1.84066">
        <ele>162</ele>
        <time>2022-03-27T10:27:28Z</time>
      </trkpt>
      <trkpt lat="48.57997" lon="1.84071">
        <ele>162</ele>
        <time>2022-03-27T10:27:30Z</time>
      </trkpt>
      <trkpt lat="48.57997" lon="1.84076">
        <ele>162</ele>
        <time>2022-03-27T10:27:32Z</time>
      </trkpt>
      <trkpt lat="48.57996" lon="1.84081">
        <ele>162</ele>
        <time>2022-03-27T10:27:34Z</time>
      </trkpt>
      <trkpt lat="48.57995" lon="1.84086">
        <ele>162</ele>
        <time>2022-03-27T10:27:36Z</time>
      </trkpt>
      <trkpt lat="48.57994" lon="1.84091">
        <ele>162</ele>
        <time>2022-03-27T10:27:38Z</time>
      </trkpt>
      <trkpt lat="48.57993" lon="1.84096">
        <ele>162</ele>
        <time>2022-03-27T10:27:40Z</time>
      </trkpt>
      <trkpt lat="48.57992" lon="1.84101">
        <ele>162</ele>
        <time>2022-03-27T10:27:42Z</time>
      </trkpt>
      <trkpt lat="48.57991" lon="1.84106">
        <ele>162</ele>
        <time>2022-03-27T10:27:44Z</time>
      </trkpt>
      <trkpt lat="48.5799" lon="1.84111">
        <ele>162</ele>
        <time>2022-03-27T10:27:46Z</time>
      </trkpt>
      <trkpt lat="48.57989" lon="1.84116">
        <ele>162</ele>
        <time>2022-03-27T10:27:48Z</time>
      </trkpt>
      <trkpt lat="48.57988" lon="1.84121">
        <ele>162</ele>
        <time>2022-03-27T10:27:51Z</time>
      </trkpt>
      <trkpt lat="48.57987" lon="1.84125">
        <ele>162</ele>
        <time>2022-03-27T10:27:52Z</time>
      </trkpt>
      <trkpt lat="48.57986" lon="1.8413">
        <ele>162</ele>
        <time>2022-03-27T10:27:54Z</time>
      </trkpt>
      <trkpt lat="48.57985" lon="1.84135">
        <ele>162</ele>
        <time>2022-03-27T10:27:56Z</time>
      </trkpt>
      <trkpt lat="48.57984" lon="1.8414">
        <ele>162</ele>
        <time>2022-03-27T10:27:58Z</time>
      </trkpt>
      <trkpt lat="48.57982" lon="1.84145">
        <ele>162</ele>
        <time>2022-03-27T10:28:00Z</time>
      </trkpt>
      <trkpt lat="48.57982" lon="1.8415">
        <ele>162</ele>
        <time>2022-03-27T10:28:02Z</time>
      </trkpt>
      <trkpt lat="48.57981" lon="1.84155">
        <ele>162</ele>
        <time>2022-03-27T10:28:04Z</time>
      </trkpt>
      <trkpt lat="48.5798" lon="1.8416">
        <ele>162</ele>
        <time>2022-03-27T10:28:06Z</time>
      </trkpt>
      <trkpt lat="48.57979" lon="1.84164">
        <ele>162</ele>
        <time>2022-03-27T10:28:08Z</time>
      </trkpt>
      <trkpt lat="48.57978" lon="1.84169">
        <ele>162</ele>
        <time>2022-03-27T10:28:10Z</time>
      </trkpt>
      <trkpt lat="48.57977" lon="1.84174">
        <ele>162</ele>
        <time>2022-03-27T10:28:12Z</time>
      </trkpt>
      <trkpt lat="48.57976" lon="1.84179">
        <ele>162</ele>
        <time>2022-03-27T10:28:14Z</time>
      </trkpt>
      <trkpt lat="48.57975" lon="1.84184">
        <ele>162</ele>
        <time>2022-03-27T10:28:16Z</time>
      </trkpt>
      <trkpt lat="48.57974" lon="1.84189">
        <ele>162</ele>
        <time>2022-03-27T10:28:18Z</time>
      </trkpt>
      <trkpt lat="48.57973" lon="1.84192">
        <ele>162</ele>
        <time>2022-03-27T10:28:19Z</time>
      </trkpt>
      <trkpt lat="48.57973" lon="1.84197">
        <ele>162</ele>
        <time>2022-03-27T10:28:21Z</time>
      </trkpt>
      <trkpt lat="48.57973" lon="1.842">
        <ele>162</ele>
        <time>2022-03-27T10:28:22Z</time>
      </trkpt>
      <trkpt lat="48.57972" lon="1.84205">
        <ele>162</ele>
        <time>2022-03-27T10:28:24Z</time>
      </trkpt>
      <trkpt lat="48.57971" lon="1.8421">
        <ele>162</ele>
        <time>2022-03-27T10:28:26Z</time>
      </trkpt>
      <trkpt lat="48.57971" lon="1.84215">
        <ele>162</ele>
        <time>2022-03-27T10:28:29Z</time>
      </trkpt>
      <trkpt lat="48.57971" lon="1.8422">
        <ele>162</ele>
        <time>2022-03-27T10:28:30Z</time>
      </trkpt>
      <trkpt lat="48.57971" lon="1.84225">
        <ele>162</ele>
        <time>2022-03-27T10:28:32Z</time>
      </trkpt>
      <trkpt lat="48.57971" lon="1.84231">
        <ele>162</ele>
        <time>2022-03-27T10:28:34Z</time>
      </trkpt>
      <trkpt lat="48.57971" lon="1.84236">
        <ele>162</ele>
        <time>2022-03-27T10:28:36Z</time>
      </trkpt>
      <trkpt lat="48.57971" lon="1.84241">
        <ele>162</ele>
        <time>2022-03-27T10:28:38Z</time>
      </trkpt>
      <trkpt lat="48.57971" lon="1.84246">
        <ele>162</ele>
        <time>2022-03-27T10:28:40Z</time>
      </trkpt>
      <trkpt lat="48.57971" lon="1.84251">
        <ele>162</ele>
        <time>2022-03-27T10:28:42Z</time>
      </trkpt>
      <trkpt lat="48.57971" lon="1.84256">
        <ele>162</ele>
        <time>2022-03-27T10:28:44Z</time>
      </trkpt>
      <trkpt lat="48.5797" lon="1.84261">
        <ele>162</ele>
        <time>2022-03-27T10:28:46Z</time>
      </trkpt>
      <trkpt lat="48.57969" lon="1.84265">
        <ele>162</ele>
        <time>2022-03-27T10:28:48Z</time>
      </trkpt>
      <trkpt lat="48.57968" lon="1.84268">
        <ele>162</ele>
        <time>2022-03-27T10:28:50Z</time>
      </trkpt>
      <trkpt lat="48.57968" lon="1.84271">
        <ele>162</ele>
        <time>2022-03-27T10:29:03Z</time>
      </trkpt>
      <trkpt lat="48.57967" lon="1.84273">
        <ele>162</ele>
        <time>2022-03-27T10:29:06Z</time>
      </trkpt>
      <trkpt lat="48.57965" lon="1.84275">
        <ele>162</ele>
        <time>2022-03-27T10:29:12Z</time>
      </trkpt>
      <trkpt lat="48.57963" lon="1.84278">
        <ele>162</ele>
        <time>2022-03-27T10:29:14Z</time>
      </trkpt>
      <trkpt lat="48.57961" lon="1.8428">
        <ele>162</ele>
        <time>2022-03-27T10:29:16Z</time>
      </trkpt>
      <trkpt lat="48.57959" lon="1.84283">
        <ele>162</ele>
        <time>2022-03-27T10:29:18Z</time>
      </trkpt>
      <trkpt lat="48.57957" lon="1.84287">
        <ele>162</ele>
        <time>2022-03-27T10:29:20Z</time>
      </trkpt>
      <trkpt lat="48.57955" lon="1.8429">
        <ele>162</ele>
        <time>2022-03-27T10:29:22Z</time>
      </trkpt>
      <trkpt lat="48.57952" lon="1.84294">
        <ele>162</ele>
        <time>2022-03-27T10:29:24Z</time>
      </trkpt>
      <trkpt lat="48.5795" lon="1.84298">
        <ele>162</ele>
        <time>2022-03-27T10:29:26Z</time>
      </trkpt>
      <trkpt lat="48.57948" lon="1.84302">
        <ele>162</ele>
        <time>2022-03-27T10:29:28Z</time>
      </trkpt>
      <trkpt lat="48.57946" lon="1.84306">
        <ele>162</ele>
        <time>2022-03-27T10:29:30Z</time>
      </trkpt>
      <trkpt lat="48.57945" lon="1.84311">
        <ele>162</ele>
        <time>2022-03-27T10:29:32Z</time>
      </trkpt>
      <trkpt lat="48.57943" lon="1.84315">
        <ele>162</ele>
        <time>2022-03-27T10:29:34Z</time>
      </trkpt>
      <trkpt lat="48.57942" lon="1.8432">
        <ele>162</ele>
        <time>2022-03-27T10:29:36Z</time>
      </trkpt>
      <trkpt lat="48.5794" lon="1.84324">
        <ele>161</ele>
        <time>2022-03-27T10:29:38Z</time>
      </trkpt>
      <trkpt lat="48.57939" lon="1.84329">
        <ele>161</ele>
        <time>2022-03-27T10:29:40Z</time>
      </trkpt>
      <trkpt lat="48.57938" lon="1.84332">
        <ele>161</ele>
        <time>2022-03-27T10:29:41Z</time>
      </trkpt>
      <trkpt lat="48.57937" lon="1.84334">
        <ele>162</ele>
        <time>2022-03-27T10:29:42Z</time>
      </trkpt>
      <trkpt lat="48.57936" lon="1.84337">
        <ele>162</ele>
        <time>2022-03-27T10:29:43Z</time>
      </trkpt>
      <trkpt lat="48.57935" lon="1.84339">
        <ele>162</ele>
        <time>2022-03-27T10:29:44Z</time>
      </trkpt>
      <trkpt lat="48.57934" lon="1.84342">
        <ele>162</ele>
        <time>2022-03-27T10:29:45Z</time>
      </trkpt>
      <trkpt lat="48.57933" lon="1.84347">
        <ele>162</ele>
        <time>2022-03-27T10:29:47Z</time>
      </trkpt>
      <trkpt lat="48.57932" lon="1.84351">
        <ele>161</ele>
        <time>2022-03-27T10:29:49Z</time>
      </trkpt>
      <trkpt lat="48.5793" lon="1.84356">
        <ele>161</ele>
        <time>2022-03-27T10:29:51Z</time>
      </trkpt>
      <trkpt lat="48.57929" lon="1.84361">
        <ele>161</ele>
        <time>2022-03-27T10:29:53Z</time>
      </trkpt>
      <trkpt lat="48.57928" lon="1.84365">
        <ele>161</ele>
        <time>2022-03-27T10:29:55Z</time>
      </trkpt>
      <trkpt lat="48.57926" lon="1.84369">
        <ele>161</ele>
        <time>2022-03-27T10:29:57Z</time>
      </trkpt>
      <trkpt lat="48.57925" lon="1.84374">
        <ele>161</ele>
        <time>2022-03-27T10:29:59Z</time>
      </trkpt>
      <trkpt lat="48.57923" lon="1.84378">
        <ele>162</ele>
        <time>2022-03-27T10:30:01Z</time>
      </trkpt>
      <trkpt lat="48.57922" lon="1.84382">
        <ele>162</ele>
        <time>2022-03-27T10:30:03Z</time>
      </trkpt>
      <trkpt lat="48.57921" lon="1.84387">
        <ele>161</ele>
        <time>2022-03-27T10:30:05Z</time>
      </trkpt>
      <trkpt lat="48.57919" lon="1.84391">
        <ele>161</ele>
        <time>2022-03-27T10:30:07Z</time>
      </trkpt>
      <trkpt lat="48.57918" lon="1.84395">
        <ele>161</ele>
        <time>2022-03-27T10:30:09Z</time>
      </trkpt>
      <trkpt lat="48.57916" lon="1.84399">
        <ele>161</ele>
        <time>2022-03-27T10:30:11Z</time>
      </trkpt>
      <trkpt lat="48.57915" lon="1.84402">
        <ele>161</ele>
        <time>2022-03-27T10:30:12Z</time>
      </trkpt>
      <trkpt lat="48.57915" lon="1.84404">
        <ele>161</ele>
        <time>2022-03-27T10:30:13Z</time>
      </trkpt>
      <trkpt lat="48.57914" lon="1.84407">
        <ele>161</ele>
        <time>2022-03-27T10:30:14Z</time>
      </trkpt>
      <trkpt lat="48.57912" lon="1.84412">
        <ele>161</ele>
        <time>2022-03-27T10:30:16Z</time>
      </trkpt>
      <trkpt lat="48.57911" lon="1.84415">
        <ele>161</ele>
        <time>2022-03-27T10:30:17Z</time>
      </trkpt>
      <trkpt lat="48.5791" lon="1.84419">
        <ele>161</ele>
        <time>2022-03-27T10:30:18Z</time>
      </trkpt>
      <trkpt lat="48.57909" lon="1.84423">
        <ele>161</ele>
        <time>2022-03-27T10:30:19Z</time>
      </trkpt>
      <trkpt lat="48.57908" lon="1.84428">
        <ele>161</ele>
        <time>2022-03-27T10:30:20Z</time>
      </trkpt>
      <trkpt lat="48.57907" lon="1.84434">
        <ele>161</ele>
        <time>2022-03-27T10:30:21Z</time>
      </trkpt>
      <trkpt lat="48.57905" lon="1.84439">
        <ele>161</ele>
        <time>2022-03-27T10:30:22Z</time>
      </trkpt>
      <trkpt lat="48.57904" lon="1.84445">
        <ele>161</ele>
        <time>2022-03-27T10:30:23Z</time>
      </trkpt>
      <trkpt lat="48.57903" lon="1.84451">
        <ele>161</ele>
        <time>2022-03-27T10:30:24Z</time>
      </trkpt>
      <trkpt lat="48.57901" lon="1.84457">
        <ele>161</ele>
        <time>2022-03-27T10:30:25Z</time>
      </trkpt>
      <trkpt lat="48.579" lon="1.84463">
        <ele>161</ele>
        <time>2022-03-27T10:30:26Z</time>
      </trkpt>
      <trkpt lat="48.57898" lon="1.84468">
        <ele>161</ele>
        <time>2022-03-27T10:30:27Z</time>
      </trkpt>
      <trkpt lat="48.57897" lon="1.84474">
        <ele>161</ele>
        <time>2022-03-27T10:30:28Z</time>
      </trkpt>
      <trkpt lat="48.57895" lon="1.84479">
        <ele>161</ele>
        <time>2022-03-27T10:30:29Z</time>
      </trkpt>
      <trkpt lat="48.57894" lon="1.84485">
        <ele>161</ele>
        <time>2022-03-27T10:30:30Z</time>
      </trkpt>
      <trkpt lat="48.57892" lon="1.84491">
        <ele>161</ele>
        <time>2022-03-27T10:30:31Z</time>
      </trkpt>
      <trkpt lat="48.57891" lon="1.84496">
        <ele>161</ele>
        <time>2022-03-27T10:30:32Z</time>
      </trkpt>
      <trkpt lat="48.57889" lon="1.84502">
        <ele>161</ele>
        <time>2022-03-27T10:30:33Z</time>
      </trkpt>
      <trkpt lat="48.57887" lon="1.84508">
        <ele>161</ele>
        <time>2022-03-27T10:30:34Z</time>
      </trkpt>
      <trkpt lat="48.57886" lon="1.84513">
        <ele>161</ele>
        <time>2022-03-27T10:30:35Z</time>
      </trkpt>
      <trkpt lat="48.57884" lon="1.84519">
        <ele>161</ele>
        <time>2022-03-27T10:30:36Z</time>
      </trkpt>
      <trkpt lat="48.57882" lon="1.84525">
        <ele>161</ele>
        <time>2022-03-27T10:30:37Z</time>
      </trkpt>
      <trkpt lat="48.5788" lon="1.84531">
        <ele>161</ele>
        <time>2022-03-27T10:30:38Z</time>
      </trkpt>
      <trkpt lat="48.57878" lon="1.84537">
        <ele>161</ele>
        <time>2022-03-27T10:30:40Z</time>
      </trkpt>
      <trkpt lat="48.57876" lon="1.84543">
        <ele>161</ele>
        <time>2022-03-27T10:30:40Z</time>
      </trkpt>
      <trkpt lat="48.57874" lon="1.84549">
        <ele>161</ele>
        <time>2022-03-27T10:30:41Z</time>
      </trkpt>
      <trkpt lat="48.57872" lon="1.84555">
        <ele>161</ele>
        <time>2022-03-27T10:30:42Z</time>
      </trkpt>
      <trkpt lat="48.57869" lon="1.84561">
        <ele>161</ele>
        <time>2022-03-27T10:30:43Z</time>
      </trkpt>
      <trkpt lat="48.57867" lon="1.84567">
        <ele>161</ele>
        <time>2022-03-27T10:30:44Z</time>
      </trkpt>
      <trkpt lat="48.57865" lon="1.84572">
        <ele>161</ele>
        <time>2022-03-27T10:30:45Z</time>
      </trkpt>
      <trkpt lat="48.57863" lon="1.84578">
        <ele>161</ele>
        <time>2022-03-27T10:30:46Z</time>
      </trkpt>
      <trkpt lat="48.57861" lon="1.84584">
        <ele>161</ele>
        <time>2022-03-27T10:30:47Z</time>
      </trkpt>
      <trkpt lat="48.57859" lon="1.84589">
        <ele>161</ele>
        <time>2022-03-27T10:30:48Z</time>
      </trkpt>
      <trkpt lat="48.57857" lon="1.84594">
        <ele>161</ele>
        <time>2022-03-27T10:30:49Z</time>
      </trkpt>
      <trkpt lat="48.57855" lon="1.84598">
        <ele>161</ele>
        <time>2022-03-27T10:30:50Z</time>
      </trkpt>
      <trkpt lat="48.57853" lon="1.84602">
        <ele>161</ele>
        <time>2022-03-27T10:30:51Z</time>
      </trkpt>
      <trkpt lat="48.57851" lon="1.84607">
        <ele>161</ele>
        <time>2022-03-27T10:30:52Z</time>
      </trkpt>
      <trkpt lat="48.57849" lon="1.84612">
        <ele>161</ele>
        <time>2022-03-27T10:30:53Z</time>
      </trkpt>
      <trkpt lat="48.57847" lon="1.84617">
        <ele>161</ele>
        <time>2022-03-27T10:30:54Z</time>
      </trkpt>
      <trkpt lat="48.57845" lon="1.84623">
        <ele>161</ele>
        <time>2022-03-27T10:30:55Z</time>
      </trkpt>
      <trkpt lat="48.57842" lon="1.8463">
        <ele>161</ele>
        <time>2022-03-27T10:30:56Z</time>
      </trkpt>
      <trkpt lat="48.5784" lon="1.84636">
        <ele>161</ele>
        <time>2022-03-27T10:30:57Z</time>
      </trkpt>
      <trkpt lat="48.57838" lon="1.84641">
        <ele>161</ele>
        <time>2022-03-27T10:30:58Z</time>
      </trkpt>
      <trkpt lat="48.57835" lon="1.84647">
        <ele>161</ele>
        <time>2022-03-27T10:30:59Z</time>
      </trkpt>
      <trkpt lat="48.57833" lon="1.84653">
        <ele>161</ele>
        <time>2022-03-27T10:31:01Z</time>
      </trkpt>
      <trkpt lat="48.57831" lon="1.84659">
        <ele>161</ele>
        <time>2022-03-27T10:31:01Z</time>
      </trkpt>
      <trkpt lat="48.57829" lon="1.84664">
        <ele>161</ele>
        <time>2022-03-27T10:31:02Z</time>
      </trkpt>
      <trkpt lat="48.57827" lon="1.84669">
        <ele>161</ele>
        <time>2022-03-27T10:31:04Z</time>
      </trkpt>
      <trkpt lat="48.57824" lon="1.84674">
        <ele>161</ele>
        <time>2022-03-27T10:31:04Z</time>
      </trkpt>
      <trkpt lat="48.57822" lon="1.84678">
        <ele>161</ele>
        <time>2022-03-27T10:31:05Z</time>
      </trkpt>
      <trkpt lat="48.5782" lon="1.84684">
        <ele>161</ele>
        <time>2022-03-27T10:31:06Z</time>
      </trkpt>
      <trkpt lat="48.57819" lon="1.84689">
        <ele>161</ele>
        <time>2022-03-27T10:31:07Z</time>
      </trkpt>
      <trkpt lat="48.57818" lon="1.84694">
        <ele>161</ele>
        <time>2022-03-27T10:31:08Z</time>
      </trkpt>
      <trkpt lat="48.57818" lon="1.84698">
        <ele>161</ele>
        <time>2022-03-27T10:31:09Z</time>
      </trkpt>
      <trkpt lat="48.57817" lon="1.84702">
        <ele>161</ele>
        <time>2022-03-27T10:31:10Z</time>
      </trkpt>
      <trkpt lat="48.57816" lon="1.84705">
        <ele>161</ele>
        <time>2022-03-27T10:31:11Z</time>
      </trkpt>
      <trkpt lat="48.57815" lon="1.84708">
        <ele>161</ele>
        <time>2022-03-27T10:31:14Z</time>
      </trkpt>
      <trkpt lat="48.57813" lon="1.8471">
        <ele>161</ele>
        <time>2022-03-27T10:31:19Z</time>
      </trkpt>
      <trkpt lat="48.57812" lon="1.84712">
        <ele>161</ele>
        <time>2022-03-27T10:31:24Z</time>
      </trkpt>
      <trkpt lat="48.5781" lon="1.84711">
        <ele>160</ele>
        <time>2022-03-27T10:31:49Z</time>
      </trkpt>
      <trkpt lat="48.57806" lon="1.84712">
        <ele>161</ele>
        <time>2022-03-27T10:31:53Z</time>
      </trkpt>
      <trkpt lat="48.57805" lon="1.84713">
        <ele>161</ele>
        <time>2022-03-27T10:31:54Z</time>
      </trkpt>
      <trkpt lat="48.57802" lon="1.84713">
        <ele>161</ele>
        <time>2022-03-27T10:31:55Z</time>
      </trkpt>
      <trkpt lat="48.57799" lon="1.84714">
        <ele>161</ele>
        <time>2022-03-27T10:31:57Z</time>
      </trkpt>
      <trkpt lat="48.57796" lon="1.84715">
        <ele>161</ele>
        <time>2022-03-27T10:31:57Z</time>
      </trkpt>
      <trkpt lat="48.57792" lon="1.84716">
        <ele>161</ele>
        <time>2022-03-27T10:31:58Z</time>
      </trkpt>
      <trkpt lat="48.57789" lon="1.84717">
        <ele>161</ele>
        <time>2022-03-27T10:31:59Z</time>
      </trkpt>
      <trkpt lat="48.57785" lon="1.84718">
        <ele>161</ele>
        <time>2022-03-27T10:32:00Z</time>
      </trkpt>
      <trkpt lat="48.57781" lon="1.84718">
        <ele>161</ele>
        <time>2022-03-27T10:32:01Z</time>
      </trkpt>
      <trkpt lat="48.57777" lon="1.8472">
        <ele>161</ele>
        <time>2022-03-27T10:32:02Z</time>
      </trkpt>
      <trkpt lat="48.57773" lon="1.84721">
        <ele>161</ele>
        <time>2022-03-27T10:32:03Z</time>
      </trkpt>
      <trkpt lat="48.57769" lon="1.84722">
        <ele>161</ele>
        <time>2022-03-27T10:32:04Z</time>
      </trkpt>
      <trkpt lat="48.57764" lon="1.84723">
        <ele>161</ele>
        <time>2022-03-27T10:32:05Z</time>
      </trkpt>
      <trkpt lat="48.5776" lon="1.84724">
        <ele>161</ele>
        <time>2022-03-27T10:32:06Z</time>
      </trkpt>
      <trkpt lat="48.57756" lon="1.84725">
        <ele>161</ele>
        <time>2022-03-27T10:32:07Z</time>
      </trkpt>
      <trkpt lat="48.57751" lon="1.84725">
        <ele>161</ele>
        <time>2022-03-27T10:32:08Z</time>
      </trkpt>
      <trkpt lat="48.57747" lon="1.84726">
        <ele>161</ele>
        <time>2022-03-27T10:32:09Z</time>
      </trkpt>
      <trkpt lat="48.57742" lon="1.84727">
        <ele>161</ele>
        <time>2022-03-27T10:32:10Z</time>
      </trkpt>
      <trkpt lat="48.57737" lon="1.84729">
        <ele>161</ele>
        <time>2022-03-27T10:32:11Z</time>
      </trkpt>
      <trkpt lat="48.57732" lon="1.8473">
        <ele>161</ele>
        <time>2022-03-27T10:32:12Z</time>
      </trkpt>
      <trkpt lat="48.57727" lon="1.84731">
        <ele>161</ele>
        <time>2022-03-27T10:32:13Z</time>
      </trkpt>
      <trkpt lat="48.57722" lon="1.84733">
        <ele>161</ele>
        <time>2022-03-27T10:32:14Z</time>
      </trkpt>
      <trkpt lat="48.57717" lon="1.84734">
        <ele>161</ele>
        <time>2022-03-27T10:32:15Z</time>
      </trkpt>
      <trkpt lat="48.57712" lon="1.84736">
        <ele>161</ele>
        <time>2022-03-27T10:32:17Z</time>
      </trkpt>
      <trkpt lat="48.57707" lon="1.84737">
        <ele>161</ele>
        <time>2022-03-27T10:32:17Z</time>
      </trkpt>
      <trkpt lat="48.57702" lon="1.84738">
        <ele>161</ele>
        <time>2022-03-27T10:32:18Z</time>
      </trkpt>
      <trkpt lat="48.57697" lon="1.8474">
        <ele>161</ele>
        <time>2022-03-27T10:32:20Z</time>
      </trkpt>
      <trkpt lat="48.57692" lon="1.84741">
        <ele>161</ele>
        <time>2022-03-27T10:32:20Z</time>
      </trkpt>
      <trkpt lat="48.57687" lon="1.84743">
        <ele>161</ele>
        <time>2022-03-27T10:32:21Z</time>
      </trkpt>
      <trkpt lat="48.57681" lon="1.84744">
        <ele>161</ele>
        <time>2022-03-27T10:32:22Z</time>
      </trkpt>
      <trkpt lat="48.57676" lon="1.84746">
        <ele>161</ele>
        <time>2022-03-27T10:32:23Z</time>
      </trkpt>
      <trkpt lat="48.57671" lon="1.84747">
        <ele>161</ele>
        <time>2022-03-27T10:32:24Z</time>
      </trkpt>
      <trkpt lat="48.57666" lon="1.84748">
        <ele>161</ele>
        <time>2022-03-27T10:32:25Z</time>
      </trkpt>
      <trkpt lat="48.57661" lon="1.8475">
        <ele>161</ele>
        <time>2022-03-27T10:32:26Z</time>
      </trkpt>
      <trkpt lat="48.57656" lon="1.84751">
        <ele>161</ele>
        <time>2022-03-27T10:32:27Z</time>
      </trkpt>
      <trkpt lat="48.57651" lon="1.84752">
        <ele>161</ele>
        <time>2022-03-27T10:32:28Z</time>
      </trkpt>
      <trkpt lat="48.57645" lon="1.84753">
        <ele>161</ele>
        <time>2022-03-27T10:32:29Z</time>
      </trkpt>
      <trkpt lat="48.5764" lon="1.84754">
        <ele>161</ele>
        <time>2022-03-27T10:32:30Z</time>
      </trkpt>
      <trkpt lat="48.57635" lon="1.84755">
        <ele>161</ele>
        <time>2022-03-27T10:32:31Z</time>
      </trkpt>
      <trkpt lat="48.5763" lon="1.84755">
        <ele>161</ele>
        <time>2022-03-27T10:32:32Z</time>
      </trkpt>
      <trkpt lat="48.57625" lon="1.84755">
        <ele>161</ele>
        <time>2022-03-27T10:32:33Z</time>
      </trkpt>
      <trkpt lat="48.5762" lon="1.84754">
        <ele>160</ele>
        <time>2022-03-27T10:32:34Z</time>
      </trkpt>
      <trkpt lat="48.57614" lon="1.84753">
        <ele>160</ele>
        <time>2022-03-27T10:32:35Z</time>
      </trkpt>
      <trkpt lat="48.57609" lon="1.84752">
        <ele>160</ele>
        <time>2022-03-27T10:32:36Z</time>
      </trkpt>
      <trkpt lat="48.57604" lon="1.84751">
        <ele>161</ele>
        <time>2022-03-27T10:32:37Z</time>
      </trkpt>
      <trkpt lat="48.57599" lon="1.84749">
        <ele>161</ele>
        <time>2022-03-27T10:32:38Z</time>
      </trkpt>
      <trkpt lat="48.57593" lon="1.84747">
        <ele>161</ele>
        <time>2022-03-27T10:32:39Z</time>
      </trkpt>
      <trkpt lat="48.57588" lon="1.84746">
        <ele>161</ele>
        <time>2022-03-27T10:32:40Z</time>
      </trkpt>
      <trkpt lat="48.57582" lon="1.84744">
        <ele>161</ele>
        <time>2022-03-27T10:32:41Z</time>
      </trkpt>
      <trkpt lat="48.57577" lon="1.84742">
        <ele>161</ele>
        <time>2022-03-27T10:32:42Z</time>
      </trkpt>
      <trkpt lat="48.57571" lon="1.84741">
        <ele>161</ele>
        <time>2022-03-27T10:32:43Z</time>
      </trkpt>
      <trkpt lat="48.57566" lon="1.8474">
        <ele>161</ele>
        <time>2022-03-27T10:32:44Z</time>
      </trkpt>
      <trkpt lat="48.57561" lon="1.84739">
        <ele>161</ele>
        <time>2022-03-27T10:32:45Z</time>
      </trkpt>
      <trkpt lat="48.57555" lon="1.84738">
        <ele>161</ele>
        <time>2022-03-27T10:32:46Z</time>
      </trkpt>
      <trkpt lat="48.5755" lon="1.84738">
        <ele>161</ele>
        <time>2022-03-27T10:32:48Z</time>
      </trkpt>
      <trkpt lat="48.57544" lon="1.84738">
        <ele>161</ele>
        <time>2022-03-27T10:32:48Z</time>
      </trkpt>
      <trkpt lat="48.57539" lon="1.84737">
        <ele>161</ele>
        <time>2022-03-27T10:32:49Z</time>
      </trkpt>
      <trkpt lat="48.57533" lon="1.84737">
        <ele>161</ele>
        <time>2022-03-27T10:32:50Z</time>
      </trkpt>
      <trkpt lat="48.57527" lon="1.84738">
        <ele>161</ele>
        <time>2022-03-27T10:32:51Z</time>
      </trkpt>
      <trkpt lat="48.57522" lon="1.84739">
        <ele>161</ele>
        <time>2022-03-27T10:32:52Z</time>
      </trkpt>
      <trkpt lat="48.57516" lon="1.84739">
        <ele>161</ele>
        <time>2022-03-27T10:32:53Z</time>
      </trkpt>
      <trkpt lat="48.5751" lon="1.84741">
        <ele>161</ele>
        <time>2022-03-27T10:32:54Z</time>
      </trkpt>
      <trkpt lat="48.57505" lon="1.84743">
        <ele>161</ele>
        <time>2022-03-27T10:32:55Z</time>
      </trkpt>
      <trkpt lat="48.575" lon="1.84746">
        <ele>160</ele>
        <time>2022-03-27T10:32:56Z</time>
      </trkpt>
      <trkpt lat="48.57495" lon="1.84749">
        <ele>160</ele>
        <time>2022-03-27T10:32:57Z</time>
      </trkpt>
      <trkpt lat="48.5749" lon="1.84753">
        <ele>160</ele>
        <time>2022-03-27T10:32:58Z</time>
      </trkpt>
      <trkpt lat="48.57486" lon="1.84757">
        <ele>160</ele>
        <time>2022-03-27T10:32:59Z</time>
      </trkpt>
      <trkpt lat="48.57482" lon="1.84761">
        <ele>160</ele>
        <time>2022-03-27T10:33:00Z</time>
      </trkpt>
      <trkpt lat="48.57477" lon="1.84765">
        <ele>160</ele>
        <time>2022-03-27T10:33:01Z</time>
      </trkpt>
      <trkpt lat="48.57473" lon="1.8477">
        <ele>160</ele>
        <time>2022-03-27T10:33:02Z</time>
      </trkpt>
      <trkpt lat="48.57469" lon="1.84774">
        <ele>160</ele>
        <time>2022-03-27T10:33:03Z</time>
      </trkpt>
      <trkpt lat="48.57465" lon="1.84778">
        <ele>160</ele>
        <time>2022-03-27T10:33:04Z</time>
      </trkpt>
      <trkpt lat="48.57461" lon="1.84782">
        <ele>160</ele>
        <time>2022-03-27T10:33:05Z</time>
      </trkpt>
      <trkpt lat="48.57457" lon="1.84787">
        <ele>160</ele>
        <time>2022-03-27T10:33:07Z</time>
      </trkpt>
      <trkpt lat="48.57453" lon="1.84791">
        <ele>160</ele>
        <time>2022-03-27T10:33:07Z</time>
      </trkpt>
      <trkpt lat="48.5745" lon="1.84794">
        <ele>160</ele>
        <time>2022-03-27T10:33:08Z</time>
      </trkpt>
      <trkpt lat="48.57446" lon="1.84797">
        <ele>160</ele>
        <time>2022-03-27T10:33:09Z</time>
      </trkpt>
      <trkpt lat="48.57443" lon="1.84799">
        <ele>159</ele>
        <time>2022-03-27T10:33:10Z</time>
      </trkpt>
      <trkpt lat="48.57439" lon="1.84798">
        <ele>159</ele>
        <time>2022-03-27T10:33:11Z</time>
      </trkpt>
      <trkpt lat="48.57435" lon="1.84796">
        <ele>159</ele>
        <time>2022-03-27T10:33:12Z</time>
      </trkpt>
      <trkpt lat="48.57432" lon="1.84796">
        <ele>159</ele>
        <time>2022-03-27T10:33:13Z</time>
      </trkpt>
      <trkpt lat="48.57428" lon="1.84798">
        <ele>159</ele>
        <time>2022-03-27T10:33:14Z</time>
      </trkpt>
      <trkpt lat="48.57425" lon="1.848">
        <ele>159</ele>
        <time>2022-03-27T10:33:15Z</time>
      </trkpt>
      <trkpt lat="48.57421" lon="1.84803">
        <ele>159</ele>
        <time>2022-03-27T10:33:16Z</time>
      </trkpt>
      <trkpt lat="48.57418" lon="1.84807">
        <ele>159</ele>
        <time>2022-03-27T10:33:17Z</time>
      </trkpt>
      <trkpt lat="48.57414" lon="1.8481">
        <ele>159</ele>
        <time>2022-03-27T10:33:18Z</time>
      </trkpt>
      <trkpt lat="48.57411" lon="1.84814">
        <ele>160</ele>
        <time>2022-03-27T10:33:19Z</time>
      </trkpt>
      <trkpt lat="48.57407" lon="1.84818">
        <ele>160</ele>
        <time>2022-03-27T10:33:20Z</time>
      </trkpt>
      <trkpt lat="48.57403" lon="1.84823">
        <ele>160</ele>
        <time>2022-03-27T10:33:21Z</time>
      </trkpt>
      <trkpt lat="48.574" lon="1.84826">
        <ele>160</ele>
        <time>2022-03-27T10:33:22Z</time>
      </trkpt>
      <trkpt lat="48.57396" lon="1.8483">
        <ele>160</ele>
        <time>2022-03-27T10:33:23Z</time>
      </trkpt>
      <trkpt lat="48.57393" lon="1.84834">
        <ele>160</ele>
        <time>2022-03-27T10:33:24Z</time>
      </trkpt>
      <trkpt lat="48.57389" lon="1.84837">
        <ele>160</ele>
        <time>2022-03-27T10:33:25Z</time>
      </trkpt>
      <trkpt lat="48.57385" lon="1.84841">
        <ele>160</ele>
        <time>2022-03-27T10:33:26Z</time>
      </trkpt>
      <trkpt lat="48.57381" lon="1.84845">
        <ele>160</ele>
        <time>2022-03-27T10:33:27Z</time>
      </trkpt>
      <trkpt lat="48.57378" lon="1.84849">
        <ele>160</ele>
        <time>2022-03-27T10:33:28Z</time>
      </trkpt>
      <trkpt lat="48.57374" lon="1.84852">
        <ele>160</ele>
        <time>2022-03-27T10:33:30Z</time>
      </trkpt>
      <trkpt lat="48.5737" lon="1.84856">
        <ele>160</ele>
        <time>2022-03-27T10:33:30Z</time>
      </trkpt>
      <trkpt lat="48.57366" lon="1.8486">
        <ele>160</ele>
        <time>2022-03-27T10:33:31Z</time>
      </trkpt>
      <trkpt lat="48.57362" lon="1.84863">
        <ele>160</ele>
        <time>2022-03-27T10:33:32Z</time>
      </trkpt>
      <trkpt lat="48.57358" lon="1.84867">
        <ele>160</ele>
        <time>2022-03-27T10:33:33Z</time>
      </trkpt>
      <trkpt lat="48.57354" lon="1.8487">
        <ele>160</ele>
        <time>2022-03-27T10:33:34Z</time>
      </trkpt>
      <trkpt lat="48.5735" lon="1.84874">
        <ele>160</ele>
        <time>2022-03-27T10:33:35Z</time>
      </trkpt>
      <trkpt lat="48.57345" lon="1.84878">
        <ele>160</ele>
        <time>2022-03-27T10:33:36Z</time>
      </trkpt>
      <trkpt lat="48.57341" lon="1.84881">
        <ele>160</ele>
        <time>2022-03-27T10:33:37Z</time>
      </trkpt>
      <trkpt lat="48.57337" lon="1.84885">
        <ele>160</ele>
        <time>2022-03-27T10:33:38Z</time>
      </trkpt>
      <trkpt lat="48.57332" lon="1.84889">
        <ele>160</ele>
        <time>2022-03-27T10:33:39Z</time>
      </trkpt>
      <trkpt lat="48.57328" lon="1.84892">
        <ele>160</ele>
        <time>2022-03-27T10:33:40Z</time>
      </trkpt>
      <trkpt lat="48.57323" lon="1.84896">
        <ele>160</ele>
        <time>2022-03-27T10:33:41Z</time>
      </trkpt>
      <trkpt lat="48.57319" lon="1.849">
        <ele>160</ele>
        <time>2022-03-27T10:33:42Z</time>
      </trkpt>
      <trkpt lat="48.57314" lon="1.84904">
        <ele>160</ele>
        <time>2022-03-27T10:33:43Z</time>
      </trkpt>
      <trkpt lat="48.5731" lon="1.84909">
        <ele>160</ele>
        <time>2022-03-27T10:33:44Z</time>
      </trkpt>
      <trkpt lat="48.57305" lon="1.84913">
        <ele>160</ele>
        <time>2022-03-27T10:33:45Z</time>
      </trkpt>
      <trkpt lat="48.57301" lon="1.84916">
        <ele>160</ele>
        <time>2022-03-27T10:33:46Z</time>
      </trkpt>
      <trkpt lat="48.57297" lon="1.8492">
        <ele>160</ele>
        <time>2022-03-27T10:33:47Z</time>
      </trkpt>
      <trkpt lat="48.57292" lon="1.84924">
        <ele>160</ele>
        <time>2022-03-27T10:33:48Z</time>
      </trkpt>
      <trkpt lat="48.57288" lon="1.84928">
        <ele>160</ele>
        <time>2022-03-27T10:33:49Z</time>
      </trkpt>
      <trkpt lat="48.57283" lon="1.84931">
        <ele>160</ele>
        <time>2022-03-27T10:33:51Z</time>
      </trkpt>
      <trkpt lat="48.57279" lon="1.84935">
        <ele>160</ele>
        <time>2022-03-27T10:33:51Z</time>
      </trkpt>
      <trkpt lat="48.57274" lon="1.84939">
        <ele>160</ele>
        <time>2022-03-27T10:33:52Z</time>
      </trkpt>
      <trkpt lat="48.5727" lon="1.84942">
        <ele>160</ele>
        <time>2022-03-27T10:33:53Z</time>
      </trkpt>
      <trkpt lat="48.57265" lon="1.84946">
        <ele>160</ele>
        <time>2022-03-27T10:33:54Z</time>
      </trkpt>
      <trkpt lat="48.5726" lon="1.8495">
        <ele>160</ele>
        <time>2022-03-27T10:33:55Z</time>
      </trkpt>
      <trkpt lat="48.57255" lon="1.84954">
        <ele>160</ele>
        <time>2022-03-27T10:33:56Z</time>
      </trkpt>
      <trkpt lat="48.57249" lon="1.84957">
        <ele>160</ele>
        <time>2022-03-27T10:33:57Z</time>
      </trkpt>
      <trkpt lat="48.57244" lon="1.8496">
        <ele>160</ele>
        <time>2022-03-27T10:33:58Z</time>
      </trkpt>
      <trkpt lat="48.57239" lon="1.84963">
        <ele>160</ele>
        <time>2022-03-27T10:33:59Z</time>
      </trkpt>
      <trkpt lat="48.57233" lon="1.84965">
        <ele>161</ele>
        <time>2022-03-27T10:34:00Z</time>
      </trkpt>
      <trkpt lat="48.57228" lon="1.84968">
        <ele>161</ele>
        <time>2022-03-27T10:34:01Z</time>
      </trkpt>
      <trkpt lat="48.57222" lon="1.8497">
        <ele>160</ele>
        <time>2022-03-27T10:34:02Z</time>
      </trkpt>
      <trkpt lat="48.57217" lon="1.84972">
        <ele>160</ele>
        <time>2022-03-27T10:34:03Z</time>
      </trkpt>
      <trkpt lat="48.57211" lon="1.84975">
        <ele>160</ele>
        <time>2022-03-27T10:34:04Z</time>
      </trkpt>
      <trkpt lat="48.57206" lon="1.84977">
        <ele>160</ele>
        <time>2022-03-27T10:34:05Z</time>
      </trkpt>
      <trkpt lat="48.57201" lon="1.8498">
        <ele>160</ele>
        <time>2022-03-27T10:34:06Z</time>
      </trkpt>
      <trkpt lat="48.57195" lon="1.84983">
        <ele>160</ele>
        <time>2022-03-27T10:34:07Z</time>
      </trkpt>
      <trkpt lat="48.5719" lon="1.84985">
        <ele>160</ele>
        <time>2022-03-27T10:34:09Z</time>
      </trkpt>
      <trkpt lat="48.57186" lon="1.84988">
        <ele>160</ele>
        <time>2022-03-27T10:34:09Z</time>
      </trkpt>
      <trkpt lat="48.57181" lon="1.8499">
        <ele>160</ele>
        <time>2022-03-27T10:34:10Z</time>
      </trkpt>
      <trkpt lat="48.57176" lon="1.84993">
        <ele>160</ele>
        <time>2022-03-27T10:34:11Z</time>
      </trkpt>
      <trkpt lat="48.57172" lon="1.84996">
        <ele>160</ele>
        <time>2022-03-27T10:34:12Z</time>
      </trkpt>
      <trkpt lat="48.57167" lon="1.84998">
        <ele>160</ele>
        <time>2022-03-27T10:34:13Z</time>
      </trkpt>
      <trkpt lat="48.57162" lon="1.85">
        <ele>161</ele>
        <time>2022-03-27T10:34:14Z</time>
      </trkpt>
      <trkpt lat="48.57158" lon="1.85003">
        <ele>161</ele>
        <time>2022-03-27T10:34:15Z</time>
      </trkpt>
      <trkpt lat="48.57153" lon="1.85005">
        <ele>161</ele>
        <time>2022-03-27T10:34:16Z</time>
      </trkpt>
      <trkpt lat="48.57148" lon="1.85008">
        <ele>161</ele>
        <time>2022-03-27T10:34:17Z</time>
      </trkpt>
      <trkpt lat="48.57144" lon="1.8501">
        <ele>161</ele>
        <time>2022-03-27T10:34:18Z</time>
      </trkpt>
      <trkpt lat="48.5714" lon="1.85013">
        <ele>161</ele>
        <time>2022-03-27T10:34:19Z</time>
      </trkpt>
      <trkpt lat="48.57136" lon="1.85015">
        <ele>161</ele>
        <time>2022-03-27T10:34:20Z</time>
      </trkpt>
      <trkpt lat="48.57131" lon="1.85018">
        <ele>161</ele>
        <time>2022-03-27T10:34:21Z</time>
      </trkpt>
      <trkpt lat="48.57127" lon="1.85021">
        <ele>161</ele>
        <time>2022-03-27T10:34:22Z</time>
      </trkpt>
      <trkpt lat="48.57123" lon="1.85025">
        <ele>161</ele>
        <time>2022-03-27T10:34:23Z</time>
      </trkpt>
      <trkpt lat="48.57119" lon="1.85027">
        <ele>161</ele>
        <time>2022-03-27T10:34:24Z</time>
      </trkpt>
      <trkpt lat="48.57115" lon="1.85031">
        <ele>161</ele>
        <time>2022-03-27T10:34:25Z</time>
      </trkpt>
      <trkpt lat="48.57111" lon="1.85034">
        <ele>161</ele>
        <time>2022-03-27T10:34:26Z</time>
      </trkpt>
      <trkpt lat="48.57107" lon="1.85037">
        <ele>161</ele>
        <time>2022-03-27T10:34:27Z</time>
      </trkpt>
      <trkpt lat="48.57102" lon="1.85041">
        <ele>160</ele>
        <time>2022-03-27T10:34:28Z</time>
      </trkpt>
      <trkpt lat="48.57097" lon="1.85045">
        <ele>160</ele>
        <time>2022-03-27T10:34:30Z</time>
      </trkpt>
      <trkpt lat="48.57093" lon="1.85048">
        <ele>160</ele>
        <time>2022-03-27T10:34:30Z</time>
      </trkpt>
      <trkpt lat="48.57088" lon="1.85052">
        <ele>160</ele>
        <time>2022-03-27T10:34:31Z</time>
      </trkpt>
      <trkpt lat="48.57084" lon="1.85056">
        <ele>160</ele>
        <time>2022-03-27T10:34:32Z</time>
      </trkpt>
      <trkpt lat="48.5708" lon="1.8506">
        <ele>160</ele>
        <time>2022-03-27T10:34:33Z</time>
      </trkpt>
      <trkpt lat="48.57076" lon="1.85064">
        <ele>160</ele>
        <time>2022-03-27T10:34:34Z</time>
      </trkpt>
      <trkpt lat="48.57072" lon="1.85068">
        <ele>160</ele>
        <time>2022-03-27T10:34:35Z</time>
      </trkpt>
      <trkpt lat="48.57068" lon="1.85072">
        <ele>160</ele>
        <time>2022-03-27T10:34:36Z</time>
      </trkpt>
      <trkpt lat="48.57064" lon="1.85077">
        <ele>160</ele>
        <time>2022-03-27T10:34:37Z</time>
      </trkpt>
      <trkpt lat="48.5706" lon="1.85082">
        <ele>160</ele>
        <time>2022-03-27T10:34:38Z</time>
      </trkpt>
      <trkpt lat="48.57056" lon="1.85087">
        <ele>160</ele>
        <time>2022-03-27T10:34:39Z</time>
      </trkpt>
      <trkpt lat="48.57052" lon="1.85093">
        <ele>160</ele>
        <time>2022-03-27T10:34:40Z</time>
      </trkpt>
      <trkpt lat="48.57049" lon="1.85098">
        <ele>160</ele>
        <time>2022-03-27T10:34:41Z</time>
      </trkpt>
      <trkpt lat="48.57045" lon="1.85103">
        <ele>160</ele>
        <time>2022-03-27T10:34:42Z</time>
      </trkpt>
      <trkpt lat="48.57042" lon="1.85108">
        <ele>160</ele>
        <time>2022-03-27T10:34:43Z</time>
      </trkpt>
      <trkpt lat="48.57038" lon="1.85114">
        <ele>160</ele>
        <time>2022-03-27T10:34:44Z</time>
      </trkpt>
      <trkpt lat="48.57035" lon="1.85119">
        <ele>160</ele>
        <time>2022-03-27T10:34:45Z</time>
      </trkpt>
      <trkpt lat="48.57031" lon="1.85125">
        <ele>160</ele>
        <time>2022-03-27T10:34:46Z</time>
      </trkpt>
      <trkpt lat="48.57028" lon="1.8513">
        <ele>160</ele>
        <time>2022-03-27T10:34:47Z</time>
      </trkpt>
      <trkpt lat="48.57024" lon="1.85136">
        <ele>160</ele>
        <time>2022-03-27T10:34:49Z</time>
      </trkpt>
      <trkpt lat="48.57021" lon="1.85141">
        <ele>160</ele>
        <time>2022-03-27T10:34:49Z</time>
      </trkpt>
      <trkpt lat="48.57018" lon="1.85146">
        <ele>160</ele>
        <time>2022-03-27T10:34:50Z</time>
      </trkpt>
      <trkpt lat="48.57015" lon="1.85152">
        <ele>160</ele>
        <time>2022-03-27T10:34:51Z</time>
      </trkpt>
      <trkpt lat="48.57012" lon="1.85158">
        <ele>160</ele>
        <time>2022-03-27T10:34:52Z</time>
      </trkpt>
      <trkpt lat="48.57009" lon="1.85163">
        <ele>160</ele>
        <time>2022-03-27T10:34:53Z</time>
      </trkpt>
      <trkpt lat="48.57006" lon="1.85169">
        <ele>160</ele>
        <time>2022-03-27T10:34:54Z</time>
      </trkpt>
      <trkpt lat="48.57002" lon="1.85175">
        <ele>160</ele>
        <time>2022-03-27T10:34:55Z</time>
      </trkpt>
      <trkpt lat="48.57" lon="1.8518">
        <ele>160</ele>
        <time>2022-03-27T10:34:56Z</time>
      </trkpt>
      <trkpt lat="48.56997" lon="1.85185">
        <ele>160</ele>
        <time>2022-03-27T10:34:57Z</time>
      </trkpt>
      <trkpt lat="48.56994" lon="1.85191">
        <ele>160</ele>
        <time>2022-03-27T10:34:58Z</time>
      </trkpt>
      <trkpt lat="48.56991" lon="1.85196">
        <ele>160</ele>
        <time>2022-03-27T10:35:00Z</time>
      </trkpt>
      <trkpt lat="48.56988" lon="1.85202">
        <ele>160</ele>
        <time>2022-03-27T10:35:00Z</time>
      </trkpt>
      <trkpt lat="48.56985" lon="1.85208">
        <ele>159</ele>
        <time>2022-03-27T10:35:01Z</time>
      </trkpt>
      <trkpt lat="48.56982" lon="1.85214">
        <ele>159</ele>
        <time>2022-03-27T10:35:02Z</time>
      </trkpt>
      <trkpt lat="48.56979" lon="1.85219">
        <ele>159</ele>
        <time>2022-03-27T10:35:03Z</time>
      </trkpt>
      <trkpt lat="48.56976" lon="1.85225">
        <ele>159</ele>
        <time>2022-03-27T10:35:04Z</time>
      </trkpt>
      <trkpt lat="48.56973" lon="1.85231">
        <ele>159</ele>
        <time>2022-03-27T10:35:05Z</time>
      </trkpt>
      <trkpt lat="48.5697" lon="1.85236">
        <ele>159</ele>
        <time>2022-03-27T10:35:06Z</time>
      </trkpt>
      <trkpt lat="48.56967" lon="1.85241">
        <ele>159</ele>
        <time>2022-03-27T10:35:07Z</time>
      </trkpt>
      <trkpt lat="48.56964" lon="1.85247">
        <ele>159</ele>
        <time>2022-03-27T10:35:08Z</time>
      </trkpt>
      <trkpt lat="48.56962" lon="1.85252">
        <ele>159</ele>
        <time>2022-03-27T10:35:10Z</time>
      </trkpt>
      <trkpt lat="48.56959" lon="1.85258">
        <ele>159</ele>
        <time>2022-03-27T10:35:10Z</time>
      </trkpt>
      <trkpt lat="48.56956" lon="1.85263">
        <ele>159</ele>
        <time>2022-03-27T10:35:11Z</time>
      </trkpt>
      <trkpt lat="48.56954" lon="1.85267">
        <ele>159</ele>
        <time>2022-03-27T10:35:12Z</time>
      </trkpt>
      <trkpt lat="48.56951" lon="1.85272">
        <ele>159</ele>
        <time>2022-03-27T10:35:13Z</time>
      </trkpt>
      <trkpt lat="48.56949" lon="1.85277">
        <ele>159</ele>
        <time>2022-03-27T10:35:14Z</time>
      </trkpt>
      <trkpt lat="48.56946" lon="1.85282">
        <ele>159</ele>
        <time>2022-03-27T10:35:15Z</time>
      </trkpt>
      <trkpt lat="48.56944" lon="1.85287">
        <ele>159</ele>
        <time>2022-03-27T10:35:16Z</time>
      </trkpt>
      <trkpt lat="48.56941" lon="1.85292">
        <ele>159</ele>
        <time>2022-03-27T10:35:17Z</time>
      </trkpt>
      <trkpt lat="48.56939" lon="1.85296">
        <ele>159</ele>
        <time>2022-03-27T10:35:18Z</time>
      </trkpt>
      <trkpt lat="48.56936" lon="1.853">
        <ele>159</ele>
        <time>2022-03-27T10:35:19Z</time>
      </trkpt>
      <trkpt lat="48.56934" lon="1.85304">
        <ele>159</ele>
        <time>2022-03-27T10:35:20Z</time>
      </trkpt>
      <trkpt lat="48.56932" lon="1.85308">
        <ele>159</ele>
        <time>2022-03-27T10:35:21Z</time>
      </trkpt>
      <trkpt lat="48.5693" lon="1.85311">
        <ele>159</ele>
        <time>2022-03-27T10:35:22Z</time>
      </trkpt>
      <trkpt lat="48.56928" lon="1.85314">
        <ele>159</ele>
        <time>2022-03-27T10:35:23Z</time>
      </trkpt>
      <trkpt lat="48.56926" lon="1.85316">
        <ele>158</ele>
        <time>2022-03-27T10:35:24Z</time>
      </trkpt>
      <trkpt lat="48.56925" lon="1.85319">
        <ele>158</ele>
        <time>2022-03-27T10:35:25Z</time>
      </trkpt>
      <trkpt lat="48.56923" lon="1.85321">
        <ele>158</ele>
        <time>2022-03-27T10:35:27Z</time>
      </trkpt>
      <trkpt lat="48.56921" lon="1.85323">
        <ele>158</ele>
        <time>2022-03-27T10:35:27Z</time>
      </trkpt>
      <trkpt lat="48.56918" lon="1.85325">
        <ele>158</ele>
        <time>2022-03-27T10:35:28Z</time>
      </trkpt>
      <trkpt lat="48.56915" lon="1.85327">
        <ele>158</ele>
        <time>2022-03-27T10:35:29Z</time>
      </trkpt>
      <trkpt lat="48.56912" lon="1.85327">
        <ele>158</ele>
        <time>2022-03-27T10:35:30Z</time>
      </trkpt>
      <trkpt lat="48.56909" lon="1.85327">
        <ele>158</ele>
        <time>2022-03-27T10:35:31Z</time>
      </trkpt>
      <trkpt lat="48.56906" lon="1.85325">
        <ele>158</ele>
        <time>2022-03-27T10:35:32Z</time>
      </trkpt>
      <trkpt lat="48.56903" lon="1.85324">
        <ele>158</ele>
        <time>2022-03-27T10:35:33Z</time>
      </trkpt>
      <trkpt lat="48.569" lon="1.85322">
        <ele>158</ele>
        <time>2022-03-27T10:35:34Z</time>
      </trkpt>
      <trkpt lat="48.56897" lon="1.85319">
        <ele>158</ele>
        <time>2022-03-27T10:35:35Z</time>
      </trkpt>
      <trkpt lat="48.56894" lon="1.85317">
        <ele>158</ele>
        <time>2022-03-27T10:35:36Z</time>
      </trkpt>
      <trkpt lat="48.56892" lon="1.85315">
        <ele>158</ele>
        <time>2022-03-27T10:35:37Z</time>
      </trkpt>
      <trkpt lat="48.5689" lon="1.85313">
        <ele>158</ele>
        <time>2022-03-27T10:35:38Z</time>
      </trkpt>
      <trkpt lat="48.56887" lon="1.85311">
        <ele>158</ele>
        <time>2022-03-27T10:35:40Z</time>
      </trkpt>
      <trkpt lat="48.56884" lon="1.85309">
        <ele>158</ele>
        <time>2022-03-27T10:35:42Z</time>
      </trkpt>
      <trkpt lat="48.56881" lon="1.85306">
        <ele>158</ele>
        <time>2022-03-27T10:35:44Z</time>
      </trkpt>
      <trkpt lat="48.56878" lon="1.85305">
        <ele>158</ele>
        <time>2022-03-27T10:35:46Z</time>
      </trkpt>
      <trkpt lat="48.56875" lon="1.85303">
        <ele>158</ele>
        <time>2022-03-27T10:35:48Z</time>
      </trkpt>
      <trkpt lat="48.56872" lon="1.85301">
        <ele>158</ele>
        <time>2022-03-27T10:35:50Z</time>
      </trkpt>
      <trkpt lat="48.56869" lon="1.85299">
        <ele>158</ele>
        <time>2022-03-27T10:35:52Z</time>
      </trkpt>
      <trkpt lat="48.56866" lon="1.85296">
        <ele>159</ele>
        <time>2022-03-27T10:35:54Z</time>
      </trkpt>
      <trkpt lat="48.56863" lon="1.85296">
        <ele>159</ele>
        <time>2022-03-27T10:35:56Z</time>
      </trkpt>
      <trkpt lat="48.5686" lon="1.85295">
        <ele>159</ele>
        <time>2022-03-27T10:35:58Z</time>
      </trkpt>
      <trkpt lat="48.56857" lon="1.85294">
        <ele>159</ele>
        <time>2022-03-27T10:36:00Z</time>
      </trkpt>
      <trkpt lat="48.56855" lon="1.85292">
        <ele>159</ele>
        <time>2022-03-27T10:36:02Z</time>
      </trkpt>
      <trkpt lat="48.56852" lon="1.85291">
        <ele>159</ele>
        <time>2022-03-27T10:36:05Z</time>
      </trkpt>
      <trkpt lat="48.56849" lon="1.8529">
        <ele>159</ele>
        <time>2022-03-27T10:36:06Z</time>
      </trkpt>
      <trkpt lat="48.56846" lon="1.85289">
        <ele>159</ele>
        <time>2022-03-27T10:36:08Z</time>
      </trkpt>
      <trkpt lat="48.56843" lon="1.85289">
        <ele>159</ele>
        <time>2022-03-27T10:36:10Z</time>
      </trkpt>
      <trkpt lat="48.5684" lon="1.8529">
        <ele>159</ele>
        <time>2022-03-27T10:36:12Z</time>
      </trkpt>
      <trkpt lat="48.56838" lon="1.85289">
        <ele>159</ele>
        <time>2022-03-27T10:36:14Z</time>
      </trkpt>
      <trkpt lat="48.56835" lon="1.85289">
        <ele>159</ele>
        <time>2022-03-27T10:36:16Z</time>
      </trkpt>
      <trkpt lat="48.56832" lon="1.85287">
        <ele>159</ele>
        <time>2022-03-27T10:36:18Z</time>
      </trkpt>
      <trkpt lat="48.56829" lon="1.85286">
        <ele>159</ele>
        <time>2022-03-27T10:36:20Z</time>
      </trkpt>
      <trkpt lat="48.56827" lon="1.85285">
        <ele>159</ele>
        <time>2022-03-27T10:36:22Z</time>
      </trkpt>
      <trkpt lat="48.56824" lon="1.85284">
        <ele>159</ele>
        <time>2022-03-27T10:36:24Z</time>
      </trkpt>
      <trkpt lat="48.56821" lon="1.85283">
        <ele>159</ele>
        <time>2022-03-27T10:36:26Z</time>
      </trkpt>
      <trkpt lat="48.56818" lon="1.85282">
        <ele>159</ele>
        <time>2022-03-27T10:36:28Z</time>
      </trkpt>
      <trkpt lat="48.56815" lon="1.85281">
        <ele>160</ele>
        <time>2022-03-27T10:36:30Z</time>
      </trkpt>
      <trkpt lat="48.56812" lon="1.8528">
        <ele>160</ele>
        <time>2022-03-27T10:36:32Z</time>
      </trkpt>
      <trkpt lat="48.5681" lon="1.85279">
        <ele>160</ele>
        <time>2022-03-27T10:36:34Z</time>
      </trkpt>
      <trkpt lat="48.56807" lon="1.85278">
        <ele>160</ele>
        <time>2022-03-27T10:36:36Z</time>
      </trkpt>
      <trkpt lat="48.56804" lon="1.85277">
        <ele>160</ele>
        <time>2022-03-27T10:36:38Z</time>
      </trkpt>
      <trkpt lat="48.56802" lon="1.85276">
        <ele>160</ele>
        <time>2022-03-27T10:36:40Z</time>
      </trkpt>
      <trkpt lat="48.568" lon="1.85275">
        <ele>160</ele>
        <time>2022-03-27T10:36:43Z</time>
      </trkpt>
      <trkpt lat="48.56798" lon="1.85273">
        <ele>161</ele>
        <time>2022-03-27T10:36:45Z</time>
      </trkpt>
      <trkpt lat="48.56796" lon="1.85272">
        <ele>162</ele>
        <time>2022-03-27T10:36:47Z</time>
      </trkpt>
      <trkpt lat="48.56793" lon="1.85271">
        <ele>162</ele>
        <time>2022-03-27T10:36:49Z</time>
      </trkpt>
      <trkpt lat="48.5679" lon="1.8527">
        <ele>162</ele>
        <time>2022-03-27T10:36:51Z</time>
      </trkpt>
      <trkpt lat="48.56788" lon="1.85269">
        <ele>162</ele>
        <time>2022-03-27T10:36:53Z</time>
      </trkpt>
      <trkpt lat="48.56785" lon="1.85267">
        <ele>163</ele>
        <time>2022-03-27T10:36:55Z</time>
      </trkpt>
      <trkpt lat="48.56782" lon="1.85266">
        <ele>163</ele>
        <time>2022-03-27T10:36:57Z</time>
      </trkpt>
      <trkpt lat="48.56779" lon="1.85263">
        <ele>163</ele>
        <time>2022-03-27T10:36:59Z</time>
      </trkpt>
      <trkpt lat="48.56777" lon="1.85262">
        <ele>163</ele>
        <time>2022-03-27T10:37:02Z</time>
      </trkpt>
      <trkpt lat="48.56774" lon="1.8526">
        <ele>163</ele>
        <time>2022-03-27T10:37:03Z</time>
      </trkpt>
      <trkpt lat="48.56771" lon="1.85259">
        <ele>162</ele>
        <time>2022-03-27T10:37:05Z</time>
      </trkpt>
      <trkpt lat="48.56768" lon="1.85257">
        <ele>162</ele>
        <time>2022-03-27T10:37:07Z</time>
      </trkpt>
      <trkpt lat="48.56766" lon="1.85256">
        <ele>162</ele>
        <time>2022-03-27T10:37:09Z</time>
      </trkpt>
      <trkpt lat="48.56764" lon="1.85255">
        <ele>162</ele>
        <time>2022-03-27T10:37:11Z</time>
      </trkpt>
      <trkpt lat="48.56761" lon="1.85253">
        <ele>162</ele>
        <time>2022-03-27T10:37:13Z</time>
      </trkpt>
      <trkpt lat="48.56758" lon="1.85251">
        <ele>162</ele>
        <time>2022-03-27T10:37:15Z</time>
      </trkpt>
      <trkpt lat="48.56755" lon="1.8525">
        <ele>162</ele>
        <time>2022-03-27T10:37:17Z</time>
      </trkpt>
      <trkpt lat="48.56752" lon="1.85248">
        <ele>162</ele>
        <time>2022-03-27T10:37:19Z</time>
      </trkpt>
      <trkpt lat="48.56749" lon="1.85247">
        <ele>162</ele>
        <time>2022-03-27T10:37:21Z</time>
      </trkpt>
      <trkpt lat="48.56747" lon="1.85248">
        <ele>162</ele>
        <time>2022-03-27T10:37:23Z</time>
      </trkpt>
      <trkpt lat="48.56744" lon="1.8525">
        <ele>162</ele>
        <time>2022-03-27T10:37:25Z</time>
      </trkpt>
      <trkpt lat="48.56742" lon="1.85253">
        <ele>162</ele>
        <time>2022-03-27T10:37:27Z</time>
      </trkpt>
      <trkpt lat="48.5674" lon="1.85257">
        <ele>162</ele>
        <time>2022-03-27T10:37:29Z</time>
      </trkpt>
      <trkpt lat="48.56738" lon="1.8526">
        <ele>162</ele>
        <time>2022-03-27T10:37:31Z</time>
      </trkpt>
      <trkpt lat="48.56736" lon="1.85264">
        <ele>162</ele>
        <time>2022-03-27T10:37:33Z</time>
      </trkpt>
      <trkpt lat="48.56734" lon="1.85267">
        <ele>162</ele>
        <time>2022-03-27T10:37:35Z</time>
      </trkpt>
      <trkpt lat="48.56732" lon="1.8527">
        <ele>162</ele>
        <time>2022-03-27T10:37:37Z</time>
      </trkpt>
      <trkpt lat="48.5673" lon="1.85274">
        <ele>162</ele>
        <time>2022-03-27T10:37:39Z</time>
      </trkpt>
      <trkpt lat="48.56729" lon="1.85278">
        <ele>162</ele>
        <time>2022-03-27T10:37:42Z</time>
      </trkpt>
      <trkpt lat="48.56727" lon="1.85281">
        <ele>162</ele>
        <time>2022-03-27T10:37:43Z</time>
      </trkpt>
      <trkpt lat="48.56725" lon="1.85285">
        <ele>162</ele>
        <time>2022-03-27T10:37:45Z</time>
      </trkpt>
      <trkpt lat="48.56723" lon="1.85288">
        <ele>162</ele>
        <time>2022-03-27T10:37:47Z</time>
      </trkpt>
      <trkpt lat="48.56721" lon="1.85291">
        <ele>162</ele>
        <time>2022-03-27T10:37:49Z</time>
      </trkpt>
      <trkpt lat="48.56719" lon="1.85295">
        <ele>162</ele>
        <time>2022-03-27T10:37:51Z</time>
      </trkpt>
      <trkpt lat="48.56717" lon="1.85298">
        <ele>162</ele>
        <time>2022-03-27T10:37:53Z</time>
      </trkpt>
      <trkpt lat="48.56715" lon="1.85301">
        <ele>162</ele>
        <time>2022-03-27T10:37:55Z</time>
      </trkpt>
      <trkpt lat="48.56712" lon="1.85304">
        <ele>162</ele>
        <time>2022-03-27T10:37:57Z</time>
      </trkpt>
      <trkpt lat="48.5671" lon="1.85307">
        <ele>162</ele>
        <time>2022-03-27T10:37:59Z</time>
      </trkpt>
      <trkpt lat="48.56708" lon="1.8531">
        <ele>162</ele>
        <time>2022-03-27T10:38:01Z</time>
      </trkpt>
      <trkpt lat="48.56706" lon="1.85314">
        <ele>162</ele>
        <time>2022-03-27T10:38:03Z</time>
      </trkpt>
      <trkpt lat="48.56704" lon="1.85317">
        <ele>162</ele>
        <time>2022-03-27T10:38:05Z</time>
      </trkpt>
      <trkpt lat="48.56702" lon="1.85321">
        <ele>162</ele>
        <time>2022-03-27T10:38:07Z</time>
      </trkpt>
      <trkpt lat="48.56699" lon="1.85324">
        <ele>162</ele>
        <time>2022-03-27T10:38:09Z</time>
      </trkpt>
      <trkpt lat="48.56697" lon="1.85326">
        <ele>162</ele>
        <time>2022-03-27T10:38:11Z</time>
      </trkpt>
      <trkpt lat="48.56695" lon="1.85328">
        <ele>162</ele>
        <time>2022-03-27T10:38:14Z</time>
      </trkpt>
      <trkpt lat="48.56692" lon="1.85331">
        <ele>162</ele>
        <time>2022-03-27T10:38:15Z</time>
      </trkpt>
      <trkpt lat="48.5669" lon="1.85334">
        <ele>162</ele>
        <time>2022-03-27T10:38:18Z</time>
      </trkpt>
      <trkpt lat="48.56688" lon="1.85337">
        <ele>162</ele>
        <time>2022-03-27T10:38:19Z</time>
      </trkpt>
      <trkpt lat="48.56685" lon="1.85339">
        <ele>162</ele>
        <time>2022-03-27T10:38:21Z</time>
      </trkpt>
      <trkpt lat="48.56682" lon="1.85342">
        <ele>162</ele>
        <time>2022-03-27T10:38:23Z</time>
      </trkpt>
      <trkpt lat="48.5668" lon="1.85344">
        <ele>162</ele>
        <time>2022-03-27T10:38:25Z</time>
      </trkpt>
      <trkpt lat="48.56677" lon="1.85347">
        <ele>162</ele>
        <time>2022-03-27T10:38:27Z</time>
      </trkpt>
      <trkpt lat="48.56675" lon="1.8535">
        <ele>162</ele>
        <time>2022-03-27T10:38:29Z</time>
      </trkpt>
      <trkpt lat="48.56673" lon="1.85354">
        <ele>162</ele>
        <time>2022-03-27T10:38:31Z</time>
      </trkpt>
      <trkpt lat="48.56671" lon="1.85356">
        <ele>162</ele>
        <time>2022-03-27T10:38:33Z</time>
      </trkpt>
      <trkpt lat="48.56668" lon="1.85359">
        <ele>162</ele>
        <time>2022-03-27T10:38:35Z</time>
      </trkpt>
      <trkpt lat="48.56666" lon="1.85362">
        <ele>162</ele>
        <time>2022-03-27T10:38:37Z</time>
      </trkpt>
      <trkpt lat="48.56663" lon="1.85365">
        <ele>162</ele>
        <time>2022-03-27T10:38:39Z</time>
      </trkpt>
      <trkpt lat="48.5666" lon="1.85367">
        <ele>162</ele>
        <time>2022-03-27T10:38:41Z</time>
      </trkpt>
      <trkpt lat="48.56658" lon="1.85369">
        <ele>162</ele>
        <time>2022-03-27T10:38:43Z</time>
      </trkpt>
      <trkpt lat="48.56655" lon="1.8537">
        <ele>162</ele>
        <time>2022-03-27T10:38:45Z</time>
      </trkpt>
      <trkpt lat="48.56652" lon="1.8537">
        <ele>162</ele>
        <time>2022-03-27T10:38:47Z</time>
      </trkpt>
      <trkpt lat="48.56649" lon="1.8537">
        <ele>162</ele>
        <time>2022-03-27T10:38:49Z</time>
      </trkpt>
      <trkpt lat="48.56647" lon="1.8537">
        <ele>162</ele>
        <time>2022-03-27T10:38:51Z</time>
      </trkpt>
      <trkpt lat="48.56644" lon="1.8537">
        <ele>162</ele>
        <time>2022-03-27T10:38:53Z</time>
      </trkpt>
      <trkpt lat="48.56641" lon="1.8537">
        <ele>162</ele>
        <time>2022-03-27T10:38:56Z</time>
      </trkpt>
      <trkpt lat="48.56638" lon="1.8537">
        <ele>162</ele>
        <time>2022-03-27T10:38:57Z</time>
      </trkpt>
      <trkpt lat="48.56636" lon="1.8537">
        <ele>161</ele>
        <time>2022-03-27T10:38:59Z</time>
      </trkpt>
      <trkpt lat="48.56633" lon="1.8537">
        <ele>161</ele>
        <time>2022-03-27T10:39:01Z</time>
      </trkpt>
      <trkpt lat="48.5663" lon="1.8537">
        <ele>161</ele>
        <time>2022-03-27T10:39:03Z</time>
      </trkpt>
      <trkpt lat="48.56627" lon="1.85371">
        <ele>161</ele>
        <time>2022-03-27T10:39:05Z</time>
      </trkpt>
      <trkpt lat="48.56624" lon="1.85372">
        <ele>161</ele>
        <time>2022-03-27T10:39:07Z</time>
      </trkpt>
      <trkpt lat="48.56621" lon="1.85374">
        <ele>161</ele>
        <time>2022-03-27T10:39:09Z</time>
      </trkpt>
      <trkpt lat="48.56619" lon="1.85375">
        <ele>160</ele>
        <time>2022-03-27T10:39:11Z</time>
      </trkpt>
      <trkpt lat="48.56616" lon="1.85377">
        <ele>160</ele>
        <time>2022-03-27T10:39:13Z</time>
      </trkpt>
      <trkpt lat="48.56613" lon="1.85379">
        <ele>160</ele>
        <time>2022-03-27T10:39:15Z</time>
      </trkpt>
      <trkpt lat="48.56611" lon="1.85381">
        <ele>160</ele>
        <time>2022-03-27T10:39:17Z</time>
      </trkpt>
      <trkpt lat="48.56608" lon="1.85383">
        <ele>160</ele>
        <time>2022-03-27T10:39:19Z</time>
      </trkpt>
      <trkpt lat="48.56606" lon="1.85386">
        <ele>160</ele>
        <time>2022-03-27T10:39:21Z</time>
      </trkpt>
      <trkpt lat="48.56603" lon="1.85389">
        <ele>160</ele>
        <time>2022-03-27T10:39:23Z</time>
      </trkpt>
      <trkpt lat="48.56601" lon="1.85392">
        <ele>159</ele>
        <time>2022-03-27T10:39:25Z</time>
      </trkpt>
      <trkpt lat="48.56598" lon="1.85394">
        <ele>159</ele>
        <time>2022-03-27T10:39:27Z</time>
      </trkpt>
      <trkpt lat="48.56594" lon="1.85396">
        <ele>159</ele>
        <time>2022-03-27T10:39:29Z</time>
      </trkpt>
      <trkpt lat="48.56591" lon="1.85399">
        <ele>159</ele>
        <time>2022-03-27T10:39:31Z</time>
      </trkpt>
      <trkpt lat="48.56588" lon="1.85401">
        <ele>159</ele>
        <time>2022-03-27T10:39:33Z</time>
      </trkpt>
      <trkpt lat="48.56585" lon="1.85404">
        <ele>159</ele>
        <time>2022-03-27T10:39:35Z</time>
      </trkpt>
      <trkpt lat="48.56582" lon="1.85407">
        <ele>159</ele>
        <time>2022-03-27T10:39:37Z</time>
      </trkpt>
      <trkpt lat="48.56581" lon="1.85408">
        <ele>159</ele>
        <time>2022-03-27T10:39:38Z</time>
      </trkpt>
      <trkpt lat="48.56577" lon="1.8541">
        <ele>159</ele>
        <time>2022-03-27T10:39:40Z</time>
      </trkpt>
      <trkpt lat="48.56576" lon="1.85411">
        <ele>159</ele>
        <time>2022-03-27T10:39:41Z</time>
      </trkpt>
      <trkpt lat="48.56573" lon="1.85414">
        <ele>158</ele>
        <time>2022-03-27T10:39:43Z</time>
      </trkpt>
      <trkpt lat="48.5657" lon="1.85417">
        <ele>158</ele>
        <time>2022-03-27T10:39:45Z</time>
      </trkpt>
      <trkpt lat="48.56568" lon="1.85419">
        <ele>158</ele>
        <time>2022-03-27T10:39:46Z</time>
      </trkpt>
      <trkpt lat="48.56567" lon="1.8542">
        <ele>158</ele>
        <time>2022-03-27T10:39:47Z</time>
      </trkpt>
      <trkpt lat="48.56564" lon="1.85423">
        <ele>158</ele>
        <time>2022-03-27T10:39:49Z</time>
      </trkpt>
      <trkpt lat="48.56561" lon="1.85425">
        <ele>158</ele>
        <time>2022-03-27T10:39:51Z</time>
      </trkpt>
      <trkpt lat="48.56558" lon="1.85428">
        <ele>158</ele>
        <time>2022-03-27T10:39:53Z</time>
      </trkpt>
      <trkpt lat="48.56555" lon="1.85431">
        <ele>158</ele>
        <time>2022-03-27T10:39:55Z</time>
      </trkpt>
      <trkpt lat="48.56554" lon="1.85433">
        <ele>158</ele>
        <time>2022-03-27T10:39:56Z</time>
      </trkpt>
      <trkpt lat="48.56552" lon="1.85435">
        <ele>158</ele>
        <time>2022-03-27T10:39:57Z</time>
      </trkpt>
      <trkpt lat="48.5655" lon="1.85436">
        <ele>158</ele>
        <time>2022-03-27T10:39:58Z</time>
      </trkpt>
      <trkpt lat="48.56547" lon="1.85438">
        <ele>158</ele>
        <time>2022-03-27T10:40:00Z</time>
      </trkpt>
      <trkpt lat="48.56544" lon="1.85441">
        <ele>158</ele>
        <time>2022-03-27T10:40:02Z</time>
      </trkpt>
      <trkpt lat="48.56542" lon="1.85442">
        <ele>158</ele>
        <time>2022-03-27T10:40:04Z</time>
      </trkpt>
      <trkpt lat="48.56541" lon="1.85444">
        <ele>158</ele>
        <time>2022-03-27T10:40:04Z</time>
      </trkpt>
      <trkpt lat="48.56539" lon="1.85445">
        <ele>158</ele>
        <time>2022-03-27T10:40:05Z</time>
      </trkpt>
      <trkpt lat="48.56537" lon="1.85447">
        <ele>157</ele>
        <time>2022-03-27T10:40:06Z</time>
      </trkpt>
      <trkpt lat="48.56536" lon="1.85449">
        <ele>157</ele>
        <time>2022-03-27T10:40:07Z</time>
      </trkpt>
      <trkpt lat="48.56534" lon="1.85451">
        <ele>157</ele>
        <time>2022-03-27T10:40:08Z</time>
      </trkpt>
      <trkpt lat="48.56531" lon="1.85453">
        <ele>157</ele>
        <time>2022-03-27T10:40:10Z</time>
      </trkpt>
      <trkpt lat="48.56529" lon="1.85456">
        <ele>157</ele>
        <time>2022-03-27T10:40:12Z</time>
      </trkpt>
      <trkpt lat="48.56526" lon="1.85459">
        <ele>157</ele>
        <time>2022-03-27T10:40:14Z</time>
      </trkpt>
      <trkpt lat="48.56523" lon="1.85462">
        <ele>157</ele>
        <time>2022-03-27T10:40:16Z</time>
      </trkpt>
      <trkpt lat="48.56521" lon="1.85465">
        <ele>157</ele>
        <time>2022-03-27T10:40:18Z</time>
      </trkpt>
      <trkpt lat="48.56518" lon="1.85468">
        <ele>157</ele>
        <time>2022-03-27T10:40:20Z</time>
      </trkpt>
      <trkpt lat="48.56516" lon="1.85469">
        <ele>157</ele>
        <time>2022-03-27T10:40:21Z</time>
      </trkpt>
      <trkpt lat="48.56514" lon="1.85471">
        <ele>157</ele>
        <time>2022-03-27T10:40:22Z</time>
      </trkpt>
      <trkpt lat="48.56512" lon="1.85474">
        <ele>157</ele>
        <time>2022-03-27T10:40:24Z</time>
      </trkpt>
      <trkpt lat="48.56509" lon="1.85477">
        <ele>157</ele>
        <time>2022-03-27T10:40:26Z</time>
      </trkpt>
      <trkpt lat="48.56507" lon="1.85478">
        <ele>157</ele>
        <time>2022-03-27T10:40:27Z</time>
      </trkpt>
      <trkpt lat="48.56506" lon="1.8548">
        <ele>157</ele>
        <time>2022-03-27T10:40:28Z</time>
      </trkpt>
      <trkpt lat="48.56504" lon="1.85482">
        <ele>157</ele>
        <time>2022-03-27T10:40:29Z</time>
      </trkpt>
      <trkpt lat="48.56503" lon="1.85484">
        <ele>157</ele>
        <time>2022-03-27T10:40:31Z</time>
      </trkpt>
      <trkpt lat="48.56501" lon="1.85485">
        <ele>157</ele>
        <time>2022-03-27T10:40:31Z</time>
      </trkpt>
      <trkpt lat="48.56499" lon="1.85487">
        <ele>157</ele>
        <time>2022-03-27T10:40:32Z</time>
      </trkpt>
      <trkpt lat="48.56498" lon="1.85489">
        <ele>157</ele>
        <time>2022-03-27T10:40:33Z</time>
      </trkpt>
      <trkpt lat="48.56496" lon="1.8549">
        <ele>157</ele>
        <time>2022-03-27T10:40:34Z</time>
      </trkpt>
      <trkpt lat="48.56495" lon="1.85491">
        <ele>157</ele>
        <time>2022-03-27T10:40:35Z</time>
      </trkpt>
      <trkpt lat="48.56493" lon="1.85493">
        <ele>157</ele>
        <time>2022-03-27T10:40:36Z</time>
      </trkpt>
      <trkpt lat="48.56491" lon="1.85494">
        <ele>157</ele>
        <time>2022-03-27T10:40:37Z</time>
      </trkpt>
      <trkpt lat="48.5649" lon="1.85496">
        <ele>157</ele>
        <time>2022-03-27T10:40:38Z</time>
      </trkpt>
      <trkpt lat="48.56488" lon="1.85498">
        <ele>157</ele>
        <time>2022-03-27T10:40:39Z</time>
      </trkpt>
      <trkpt lat="48.56487" lon="1.855">
        <ele>157</ele>
        <time>2022-03-27T10:40:40Z</time>
      </trkpt>
      <trkpt lat="48.56484" lon="1.85502">
        <ele>157</ele>
        <time>2022-03-27T10:40:42Z</time>
      </trkpt>
      <trkpt lat="48.56481" lon="1.85505">
        <ele>157</ele>
        <time>2022-03-27T10:40:44Z</time>
      </trkpt>
      <trkpt lat="48.56478" lon="1.85508">
        <ele>157</ele>
        <time>2022-03-27T10:40:46Z</time>
      </trkpt>
      <trkpt lat="48.56475" lon="1.85511">
        <ele>157</ele>
        <time>2022-03-27T10:40:48Z</time>
      </trkpt>
      <trkpt lat="48.56473" lon="1.85512">
        <ele>157</ele>
        <time>2022-03-27T10:40:50Z</time>
      </trkpt>
      <trkpt lat="48.56472" lon="1.85514">
        <ele>157</ele>
        <time>2022-03-27T10:40:50Z</time>
      </trkpt>
      <trkpt lat="48.5647" lon="1.85515">
        <ele>157</ele>
        <time>2022-03-27T10:40:51Z</time>
      </trkpt>
      <trkpt lat="48.56469" lon="1.85517">
        <ele>157</ele>
        <time>2022-03-27T10:40:52Z</time>
      </trkpt>
      <trkpt lat="48.56467" lon="1.85519">
        <ele>157</ele>
        <time>2022-03-27T10:40:53Z</time>
      </trkpt>
      <trkpt lat="48.56466" lon="1.8552">
        <ele>157</ele>
        <time>2022-03-27T10:40:54Z</time>
      </trkpt>
      <trkpt lat="48.56463" lon="1.85523">
        <ele>156</ele>
        <time>2022-03-27T10:40:56Z</time>
      </trkpt>
      <trkpt lat="48.56461" lon="1.85525">
        <ele>156</ele>
        <time>2022-03-27T10:40:57Z</time>
      </trkpt>
      <trkpt lat="48.56459" lon="1.85526">
        <ele>156</ele>
        <time>2022-03-27T10:40:58Z</time>
      </trkpt>
      <trkpt lat="48.56458" lon="1.85527">
        <ele>156</ele>
        <time>2022-03-27T10:40:59Z</time>
      </trkpt>
      <trkpt lat="48.56456" lon="1.85529">
        <ele>156</ele>
        <time>2022-03-27T10:41:00Z</time>
      </trkpt>
      <trkpt lat="48.56455" lon="1.8553">
        <ele>156</ele>
        <time>2022-03-27T10:41:01Z</time>
      </trkpt>
      <trkpt lat="48.56452" lon="1.85533">
        <ele>156</ele>
        <time>2022-03-27T10:41:03Z</time>
      </trkpt>
      <trkpt lat="48.56449" lon="1.85536">
        <ele>156</ele>
        <time>2022-03-27T10:41:05Z</time>
      </trkpt>
      <trkpt lat="48.56446" lon="1.85539">
        <ele>156</ele>
        <time>2022-03-27T10:41:07Z</time>
      </trkpt>
      <trkpt lat="48.56443" lon="1.85542">
        <ele>156</ele>
        <time>2022-03-27T10:41:09Z</time>
      </trkpt>
      <trkpt lat="48.56441" lon="1.85543">
        <ele>156</ele>
        <time>2022-03-27T10:41:10Z</time>
      </trkpt>
      <trkpt lat="48.56438" lon="1.85545">
        <ele>156</ele>
        <time>2022-03-27T10:41:12Z</time>
      </trkpt>
      <trkpt lat="48.56436" lon="1.85548">
        <ele>156</ele>
        <time>2022-03-27T10:41:14Z</time>
      </trkpt>
      <trkpt lat="48.56433" lon="1.8555">
        <ele>156</ele>
        <time>2022-03-27T10:41:16Z</time>
      </trkpt>
      <trkpt lat="48.56431" lon="1.85553">
        <ele>156</ele>
        <time>2022-03-27T10:41:18Z</time>
      </trkpt>
      <trkpt lat="48.56428" lon="1.85556">
        <ele>156</ele>
        <time>2022-03-27T10:41:20Z</time>
      </trkpt>
      <trkpt lat="48.56425" lon="1.85559">
        <ele>155</ele>
        <time>2022-03-27T10:41:22Z</time>
      </trkpt>
      <trkpt lat="48.56422" lon="1.85561">
        <ele>155</ele>
        <time>2022-03-27T10:41:24Z</time>
      </trkpt>
      <trkpt lat="48.56419" lon="1.85564">
        <ele>155</ele>
        <time>2022-03-27T10:41:26Z</time>
      </trkpt>
      <trkpt lat="48.56416" lon="1.85567">
        <ele>155</ele>
        <time>2022-03-27T10:41:28Z</time>
      </trkpt>
      <trkpt lat="48.56413" lon="1.85569">
        <ele>155</ele>
        <time>2022-03-27T10:41:30Z</time>
      </trkpt>
      <trkpt lat="48.5641" lon="1.85572">
        <ele>155</ele>
        <time>2022-03-27T10:41:32Z</time>
      </trkpt>
      <trkpt lat="48.56407" lon="1.85575">
        <ele>154</ele>
        <time>2022-03-27T10:41:34Z</time>
      </trkpt>
      <trkpt lat="48.56404" lon="1.85578">
        <ele>154</ele>
        <time>2022-03-27T10:41:36Z</time>
      </trkpt>
      <trkpt lat="48.56403" lon="1.85579">
        <ele>154</ele>
        <time>2022-03-27T10:41:37Z</time>
      </trkpt>
      <trkpt lat="48.56401" lon="1.85581">
        <ele>154</ele>
        <time>2022-03-27T10:41:38Z</time>
      </trkpt>
      <trkpt lat="48.564" lon="1.85582">
        <ele>154</ele>
        <time>2022-03-27T10:41:39Z</time>
      </trkpt>
      <trkpt lat="48.56397" lon="1.85585">
        <ele>154</ele>
        <time>2022-03-27T10:41:41Z</time>
      </trkpt>
      <trkpt lat="48.56394" lon="1.85588">
        <ele>154</ele>
        <time>2022-03-27T10:41:43Z</time>
      </trkpt>
      <trkpt lat="48.56391" lon="1.85591">
        <ele>154</ele>
        <time>2022-03-27T10:41:45Z</time>
      </trkpt>
      <trkpt lat="48.56388" lon="1.85593">
        <ele>154</ele>
        <time>2022-03-27T10:41:47Z</time>
      </trkpt>
      <trkpt lat="48.56386" lon="1.85596">
        <ele>154</ele>
        <time>2022-03-27T10:41:49Z</time>
      </trkpt>
      <trkpt lat="48.56383" lon="1.85599">
        <ele>154</ele>
        <time>2022-03-27T10:41:51Z</time>
      </trkpt>
      <trkpt lat="48.5638" lon="1.85601">
        <ele>154</ele>
        <time>2022-03-27T10:41:53Z</time>
      </trkpt>
      <trkpt lat="48.56377" lon="1.85604">
        <ele>154</ele>
        <time>2022-03-27T10:41:55Z</time>
      </trkpt>
      <trkpt lat="48.56374" lon="1.85607">
        <ele>154</ele>
        <time>2022-03-27T10:41:57Z</time>
      </trkpt>
      <trkpt lat="48.56372" lon="1.8561">
        <ele>154</ele>
        <time>2022-03-27T10:41:59Z</time>
      </trkpt>
      <trkpt lat="48.56369" lon="1.85613">
        <ele>154</ele>
        <time>2022-03-27T10:42:01Z</time>
      </trkpt>
      <trkpt lat="48.56367" lon="1.85614">
        <ele>154</ele>
        <time>2022-03-27T10:42:02Z</time>
      </trkpt>
      <trkpt lat="48.56364" lon="1.85616">
        <ele>153</ele>
        <time>2022-03-27T10:42:04Z</time>
      </trkpt>
      <trkpt lat="48.56361" lon="1.85619">
        <ele>153</ele>
        <time>2022-03-27T10:42:06Z</time>
      </trkpt>
      <trkpt lat="48.5636" lon="1.85621">
        <ele>153</ele>
        <time>2022-03-27T10:42:07Z</time>
      </trkpt>
      <trkpt lat="48.56357" lon="1.85624">
        <ele>153</ele>
        <time>2022-03-27T10:42:09Z</time>
      </trkpt>
      <trkpt lat="48.56354" lon="1.85627">
        <ele>153</ele>
        <time>2022-03-27T10:42:11Z</time>
      </trkpt>
      <trkpt lat="48.56353" lon="1.85629">
        <ele>153</ele>
        <time>2022-03-27T10:42:12Z</time>
      </trkpt>
      <trkpt lat="48.5635" lon="1.85632">
        <ele>153</ele>
        <time>2022-03-27T10:42:14Z</time>
      </trkpt>
      <trkpt lat="48.56347" lon="1.85634">
        <ele>153</ele>
        <time>2022-03-27T10:42:16Z</time>
      </trkpt>
      <trkpt lat="48.56345" lon="1.85637">
        <ele>152</ele>
        <time>2022-03-27T10:42:18Z</time>
      </trkpt>
      <trkpt lat="48.56342" lon="1.8564">
        <ele>152</ele>
        <time>2022-03-27T10:42:20Z</time>
      </trkpt>
      <trkpt lat="48.56339" lon="1.85643">
        <ele>152</ele>
        <time>2022-03-27T10:42:22Z</time>
      </trkpt>
      <trkpt lat="48.56336" lon="1.85645">
        <ele>152</ele>
        <time>2022-03-27T10:42:24Z</time>
      </trkpt>
      <trkpt lat="48.56333" lon="1.85648">
        <ele>152</ele>
        <time>2022-03-27T10:42:26Z</time>
      </trkpt>
      <trkpt lat="48.56331" lon="1.85649">
        <ele>153</ele>
        <time>2022-03-27T10:42:27Z</time>
      </trkpt>
      <trkpt lat="48.56329" lon="1.85653">
        <ele>152</ele>
        <time>2022-03-27T10:42:29Z</time>
      </trkpt>
      <trkpt lat="48.56326" lon="1.85655">
        <ele>152</ele>
        <time>2022-03-27T10:42:31Z</time>
      </trkpt>
      <trkpt lat="48.56323" lon="1.85658">
        <ele>152</ele>
        <time>2022-03-27T10:42:33Z</time>
      </trkpt>
      <trkpt lat="48.56321" lon="1.8566">
        <ele>152</ele>
        <time>2022-03-27T10:42:34Z</time>
      </trkpt>
      <trkpt lat="48.56319" lon="1.85663">
        <ele>152</ele>
        <time>2022-03-27T10:42:36Z</time>
      </trkpt>
      <trkpt lat="48.56317" lon="1.85665">
        <ele>152</ele>
        <time>2022-03-27T10:42:37Z</time>
      </trkpt>
      <trkpt lat="48.56314" lon="1.85668">
        <ele>152</ele>
        <time>2022-03-27T10:42:39Z</time>
      </trkpt>
      <trkpt lat="48.56311" lon="1.85671">
        <ele>152</ele>
        <time>2022-03-27T10:42:41Z</time>
      </trkpt>
      <trkpt lat="48.56309" lon="1.85674">
        <ele>152</ele>
        <time>2022-03-27T10:42:44Z</time>
      </trkpt>
      <trkpt lat="48.56307" lon="1.85675">
        <ele>152</ele>
        <time>2022-03-27T10:42:44Z</time>
      </trkpt>
      <trkpt lat="48.56305" lon="1.85676">
        <ele>152</ele>
        <time>2022-03-27T10:42:45Z</time>
      </trkpt>
      <trkpt lat="48.56302" lon="1.85679">
        <ele>152</ele>
        <time>2022-03-27T10:42:47Z</time>
      </trkpt>
      <trkpt lat="48.563" lon="1.85682">
        <ele>152</ele>
        <time>2022-03-27T10:42:49Z</time>
      </trkpt>
      <trkpt lat="48.56297" lon="1.85685">
        <ele>152</ele>
        <time>2022-03-27T10:42:51Z</time>
      </trkpt>
      <trkpt lat="48.56294" lon="1.85688">
        <ele>152</ele>
        <time>2022-03-27T10:42:53Z</time>
      </trkpt>
      <trkpt lat="48.56291" lon="1.85691">
        <ele>152</ele>
        <time>2022-03-27T10:42:55Z</time>
      </trkpt>
      <trkpt lat="48.56288" lon="1.85694">
        <ele>152</ele>
        <time>2022-03-27T10:42:57Z</time>
      </trkpt>
      <trkpt lat="48.56286" lon="1.85697">
        <ele>151</ele>
        <time>2022-03-27T10:42:59Z</time>
      </trkpt>
      <trkpt lat="48.56283" lon="1.857">
        <ele>151</ele>
        <time>2022-03-27T10:43:01Z</time>
      </trkpt>
      <trkpt lat="48.5628" lon="1.85703">
        <ele>152</ele>
        <time>2022-03-27T10:43:03Z</time>
      </trkpt>
      <trkpt lat="48.56278" lon="1.85706">
        <ele>152</ele>
        <time>2022-03-27T10:43:05Z</time>
      </trkpt>
      <trkpt lat="48.56275" lon="1.85709">
        <ele>152</ele>
        <time>2022-03-27T10:43:07Z</time>
      </trkpt>
      <trkpt lat="48.56273" lon="1.85712">
        <ele>151</ele>
        <time>2022-03-27T10:43:09Z</time>
      </trkpt>
      <trkpt lat="48.56271" lon="1.85715">
        <ele>151</ele>
        <time>2022-03-27T10:43:11Z</time>
      </trkpt>
      <trkpt lat="48.56269" lon="1.85718">
        <ele>151</ele>
        <time>2022-03-27T10:43:13Z</time>
      </trkpt>
      <trkpt lat="48.56267" lon="1.85722">
        <ele>151</ele>
        <time>2022-03-27T10:43:15Z</time>
      </trkpt>
      <trkpt lat="48.56265" lon="1.85727">
        <ele>152</ele>
        <time>2022-03-27T10:43:17Z</time>
      </trkpt>
      <trkpt lat="48.56263" lon="1.85731">
        <ele>152</ele>
        <time>2022-03-27T10:43:19Z</time>
      </trkpt>
      <trkpt lat="48.56262" lon="1.85736">
        <ele>152</ele>
        <time>2022-03-27T10:43:22Z</time>
      </trkpt>
      <trkpt lat="48.56261" lon="1.85741">
        <ele>152</ele>
        <time>2022-03-27T10:43:23Z</time>
      </trkpt>
      <trkpt lat="48.5626" lon="1.85746">
        <ele>152</ele>
        <time>2022-03-27T10:43:25Z</time>
      </trkpt>
      <trkpt lat="48.56259" lon="1.85751">
        <ele>152</ele>
        <time>2022-03-27T10:43:27Z</time>
      </trkpt>
      <trkpt lat="48.56258" lon="1.85756">
        <ele>152</ele>
        <time>2022-03-27T10:43:29Z</time>
      </trkpt>
      <trkpt lat="48.56258" lon="1.85758">
        <ele>152</ele>
        <time>2022-03-27T10:43:30Z</time>
      </trkpt>
      <trkpt lat="48.56258" lon="1.85761">
        <ele>152</ele>
        <time>2022-03-27T10:43:31Z</time>
      </trkpt>
      <trkpt lat="48.56257" lon="1.85766">
        <ele>152</ele>
        <time>2022-03-27T10:43:33Z</time>
      </trkpt>
      <trkpt lat="48.56256" lon="1.85771">
        <ele>152</ele>
        <time>2022-03-27T10:43:35Z</time>
      </trkpt>
      <trkpt lat="48.56255" lon="1.85776">
        <ele>152</ele>
        <time>2022-03-27T10:43:37Z</time>
      </trkpt>
      <trkpt lat="48.56255" lon="1.85781">
        <ele>152</ele>
        <time>2022-03-27T10:43:39Z</time>
      </trkpt>
      <trkpt lat="48.56254" lon="1.85787">
        <ele>152</ele>
        <time>2022-03-27T10:43:41Z</time>
      </trkpt>
      <trkpt lat="48.56254" lon="1.85792">
        <ele>152</ele>
        <time>2022-03-27T10:43:43Z</time>
      </trkpt>
      <trkpt lat="48.56254" lon="1.85797">
        <ele>152</ele>
        <time>2022-03-27T10:43:45Z</time>
      </trkpt>
      <trkpt lat="48.56253" lon="1.85802">
        <ele>152</ele>
        <time>2022-03-27T10:43:47Z</time>
      </trkpt>
      <trkpt lat="48.56253" lon="1.85807">
        <ele>152</ele>
        <time>2022-03-27T10:43:49Z</time>
      </trkpt>
      <trkpt lat="48.56253" lon="1.85812">
        <ele>152</ele>
        <time>2022-03-27T10:43:51Z</time>
      </trkpt>
      <trkpt lat="48.56252" lon="1.85817">
        <ele>152</ele>
        <time>2022-03-27T10:43:53Z</time>
      </trkpt>
      <trkpt lat="48.56252" lon="1.85822">
        <ele>152</ele>
        <time>2022-03-27T10:43:55Z</time>
      </trkpt>
      <trkpt lat="48.56252" lon="1.85827">
        <ele>152</ele>
        <time>2022-03-27T10:43:57Z</time>
      </trkpt>
      <trkpt lat="48.56251" lon="1.85833">
        <ele>152</ele>
        <time>2022-03-27T10:43:59Z</time>
      </trkpt>
      <trkpt lat="48.56251" lon="1.85838">
        <ele>152</ele>
        <time>2022-03-27T10:44:01Z</time>
      </trkpt>
      <trkpt lat="48.5625" lon="1.85843">
        <ele>152</ele>
        <time>2022-03-27T10:44:03Z</time>
      </trkpt>
      <trkpt lat="48.56249" lon="1.85848">
        <ele>152</ele>
        <time>2022-03-27T10:44:05Z</time>
      </trkpt>
      <trkpt lat="48.56249" lon="1.85853">
        <ele>152</ele>
        <time>2022-03-27T10:44:07Z</time>
      </trkpt>
      <trkpt lat="48.56248" lon="1.85858">
        <ele>152</ele>
        <time>2022-03-27T10:44:09Z</time>
      </trkpt>
      <trkpt lat="48.56248" lon="1.85863">
        <ele>152</ele>
        <time>2022-03-27T10:44:11Z</time>
      </trkpt>
      <trkpt lat="48.56247" lon="1.85868">
        <ele>152</ele>
        <time>2022-03-27T10:44:13Z</time>
      </trkpt>
      <trkpt lat="48.56246" lon="1.85873">
        <ele>152</ele>
        <time>2022-03-27T10:44:15Z</time>
      </trkpt>
      <trkpt lat="48.56246" lon="1.85877">
        <ele>152</ele>
        <time>2022-03-27T10:44:17Z</time>
      </trkpt>
      <trkpt lat="48.56245" lon="1.85883">
        <ele>152</ele>
        <time>2022-03-27T10:44:19Z</time>
      </trkpt>
      <trkpt lat="48.56244" lon="1.85887">
        <ele>152</ele>
        <time>2022-03-27T10:44:21Z</time>
      </trkpt>
      <trkpt lat="48.56244" lon="1.85892">
        <ele>152</ele>
        <time>2022-03-27T10:44:23Z</time>
      </trkpt>
      <trkpt lat="48.56244" lon="1.85897">
        <ele>152</ele>
        <time>2022-03-27T10:44:25Z</time>
      </trkpt>
      <trkpt lat="48.56243" lon="1.85902">
        <ele>153</ele>
        <time>2022-03-27T10:44:27Z</time>
      </trkpt>
      <trkpt lat="48.56243" lon="1.85907">
        <ele>153</ele>
        <time>2022-03-27T10:44:29Z</time>
      </trkpt>
      <trkpt lat="48.56242" lon="1.85912">
        <ele>153</ele>
        <time>2022-03-27T10:44:31Z</time>
      </trkpt>
      <trkpt lat="48.56241" lon="1.85916">
        <ele>153</ele>
        <time>2022-03-27T10:44:33Z</time>
      </trkpt>
      <trkpt lat="48.5624" lon="1.85921">
        <ele>153</ele>
        <time>2022-03-27T10:44:35Z</time>
      </trkpt>
      <trkpt lat="48.5624" lon="1.85926">
        <ele>153</ele>
        <time>2022-03-27T10:44:37Z</time>
      </trkpt>
      <trkpt lat="48.56239" lon="1.85931">
        <ele>153</ele>
        <time>2022-03-27T10:44:39Z</time>
      </trkpt>
      <trkpt lat="48.56239" lon="1.85937">
        <ele>153</ele>
        <time>2022-03-27T10:44:41Z</time>
      </trkpt>
      <trkpt lat="48.56238" lon="1.85942">
        <ele>153</ele>
        <time>2022-03-27T10:44:43Z</time>
      </trkpt>
      <trkpt lat="48.56238" lon="1.85946">
        <ele>153</ele>
        <time>2022-03-27T10:44:45Z</time>
      </trkpt>
      <trkpt lat="48.56237" lon="1.85952">
        <ele>153</ele>
        <time>2022-03-27T10:44:47Z</time>
      </trkpt>
      <trkpt lat="48.56236" lon="1.85957">
        <ele>153</ele>
        <time>2022-03-27T10:44:49Z</time>
      </trkpt>
      <trkpt lat="48.56236" lon="1.85962">
        <ele>153</ele>
        <time>2022-03-27T10:44:51Z</time>
      </trkpt>
      <trkpt lat="48.56235" lon="1.85967">
        <ele>153</ele>
        <time>2022-03-27T10:44:53Z</time>
      </trkpt>
      <trkpt lat="48.56234" lon="1.85971">
        <ele>153</ele>
        <time>2022-03-27T10:44:55Z</time>
      </trkpt>
      <trkpt lat="48.56233" lon="1.85976">
        <ele>153</ele>
        <time>2022-03-27T10:44:57Z</time>
      </trkpt>
      <trkpt lat="48.56232" lon="1.85981">
        <ele>153</ele>
        <time>2022-03-27T10:44:59Z</time>
      </trkpt>
      <trkpt lat="48.56231" lon="1.85986">
        <ele>153</ele>
        <time>2022-03-27T10:45:01Z</time>
      </trkpt>
      <trkpt lat="48.5623" lon="1.8599">
        <ele>153</ele>
        <time>2022-03-27T10:45:03Z</time>
      </trkpt>
      <trkpt lat="48.56229" lon="1.85995">
        <ele>153</ele>
        <time>2022-03-27T10:45:05Z</time>
      </trkpt>
      <trkpt lat="48.56229" lon="1.85999">
        <ele>153</ele>
        <time>2022-03-27T10:45:07Z</time>
      </trkpt>
      <trkpt lat="48.56229" lon="1.86002">
        <ele>153</ele>
        <time>2022-03-27T10:45:09Z</time>
      </trkpt>
      <trkpt lat="48.56228" lon="1.86006">
        <ele>153</ele>
        <time>2022-03-27T10:45:12Z</time>
      </trkpt>
      <trkpt lat="48.56228" lon="1.86011">
        <ele>153</ele>
        <time>2022-03-27T10:45:14Z</time>
      </trkpt>
      <trkpt lat="48.56228" lon="1.86015">
        <ele>153</ele>
        <time>2022-03-27T10:45:15Z</time>
      </trkpt>
      <trkpt lat="48.56227" lon="1.86019">
        <ele>153</ele>
        <time>2022-03-27T10:45:16Z</time>
      </trkpt>
      <trkpt lat="48.56227" lon="1.86023">
        <ele>153</ele>
        <time>2022-03-27T10:45:17Z</time>
      </trkpt>
      <trkpt lat="48.56226" lon="1.86028">
        <ele>153</ele>
        <time>2022-03-27T10:45:18Z</time>
      </trkpt>
      <trkpt lat="48.56226" lon="1.86032">
        <ele>153</ele>
        <time>2022-03-27T10:45:19Z</time>
      </trkpt>
      <trkpt lat="48.56225" lon="1.86037">
        <ele>153</ele>
        <time>2022-03-27T10:45:20Z</time>
      </trkpt>
      <trkpt lat="48.56225" lon="1.86042">
        <ele>153</ele>
        <time>2022-03-27T10:45:21Z</time>
      </trkpt>
      <trkpt lat="48.56224" lon="1.86048">
        <ele>153</ele>
        <time>2022-03-27T10:45:22Z</time>
      </trkpt>
      <trkpt lat="48.56223" lon="1.86053">
        <ele>153</ele>
        <time>2022-03-27T10:45:23Z</time>
      </trkpt>
      <trkpt lat="48.56222" lon="1.86059">
        <ele>153</ele>
        <time>2022-03-27T10:45:24Z</time>
      </trkpt>
      <trkpt lat="48.56221" lon="1.86065">
        <ele>153</ele>
        <time>2022-03-27T10:45:25Z</time>
      </trkpt>
      <trkpt lat="48.5622" lon="1.8607">
        <ele>153</ele>
        <time>2022-03-27T10:45:26Z</time>
      </trkpt>
      <trkpt lat="48.56219" lon="1.86075">
        <ele>153</ele>
        <time>2022-03-27T10:45:27Z</time>
      </trkpt>
      <trkpt lat="48.56218" lon="1.86081">
        <ele>153</ele>
        <time>2022-03-27T10:45:28Z</time>
      </trkpt>
      <trkpt lat="48.56218" lon="1.86087">
        <ele>153</ele>
        <time>2022-03-27T10:45:29Z</time>
      </trkpt>
      <trkpt lat="48.56217" lon="1.86092">
        <ele>153</ele>
        <time>2022-03-27T10:45:30Z</time>
      </trkpt>
      <trkpt lat="48.56216" lon="1.86097">
        <ele>153</ele>
        <time>2022-03-27T10:45:31Z</time>
      </trkpt>
      <trkpt lat="48.56216" lon="1.86103">
        <ele>153</ele>
        <time>2022-03-27T10:45:32Z</time>
      </trkpt>
      <trkpt lat="48.56215" lon="1.86108">
        <ele>153</ele>
        <time>2022-03-27T10:45:33Z</time>
      </trkpt>
      <trkpt lat="48.56214" lon="1.86113">
        <ele>153</ele>
        <time>2022-03-27T10:45:35Z</time>
      </trkpt>
      <trkpt lat="48.56214" lon="1.86119">
        <ele>153</ele>
        <time>2022-03-27T10:45:35Z</time>
      </trkpt>
      <trkpt lat="48.56213" lon="1.86124">
        <ele>153</ele>
        <time>2022-03-27T10:45:37Z</time>
      </trkpt>
      <trkpt lat="48.56213" lon="1.8613">
        <ele>153</ele>
        <time>2022-03-27T10:45:37Z</time>
      </trkpt>
      <trkpt lat="48.56212" lon="1.86135">
        <ele>154</ele>
        <time>2022-03-27T10:45:38Z</time>
      </trkpt>
      <trkpt lat="48.56212" lon="1.86141">
        <ele>154</ele>
        <time>2022-03-27T10:45:39Z</time>
      </trkpt>
      <trkpt lat="48.56211" lon="1.86147">
        <ele>154</ele>
        <time>2022-03-27T10:45:40Z</time>
      </trkpt>
      <trkpt lat="48.5621" lon="1.86152">
        <ele>154</ele>
        <time>2022-03-27T10:45:41Z</time>
      </trkpt>
      <trkpt lat="48.56209" lon="1.86158">
        <ele>154</ele>
        <time>2022-03-27T10:45:42Z</time>
      </trkpt>
      <trkpt lat="48.56209" lon="1.86163">
        <ele>154</ele>
        <time>2022-03-27T10:45:43Z</time>
      </trkpt>
      <trkpt lat="48.56208" lon="1.86168">
        <ele>154</ele>
        <time>2022-03-27T10:45:44Z</time>
      </trkpt>
      <trkpt lat="48.56208" lon="1.86173">
        <ele>154</ele>
        <time>2022-03-27T10:45:45Z</time>
      </trkpt>
      <trkpt lat="48.56207" lon="1.86179">
        <ele>154</ele>
        <time>2022-03-27T10:45:46Z</time>
      </trkpt>
      <trkpt lat="48.56206" lon="1.86184">
        <ele>155</ele>
        <time>2022-03-27T10:45:47Z</time>
      </trkpt>
      <trkpt lat="48.56206" lon="1.8619">
        <ele>155</ele>
        <time>2022-03-27T10:45:48Z</time>
      </trkpt>
      <trkpt lat="48.56205" lon="1.86195">
        <ele>155</ele>
        <time>2022-03-27T10:45:49Z</time>
      </trkpt>
      <trkpt lat="48.56205" lon="1.86201">
        <ele>155</ele>
        <time>2022-03-27T10:45:50Z</time>
      </trkpt>
      <trkpt lat="48.56204" lon="1.86206">
        <ele>155</ele>
        <time>2022-03-27T10:45:51Z</time>
      </trkpt>
      <trkpt lat="48.56204" lon="1.86212">
        <ele>155</ele>
        <time>2022-03-27T10:45:52Z</time>
      </trkpt>
      <trkpt lat="48.56204" lon="1.86218">
        <ele>155</ele>
        <time>2022-03-27T10:45:54Z</time>
      </trkpt>
      <trkpt lat="48.56204" lon="1.86224">
        <ele>155</ele>
        <time>2022-03-27T10:45:54Z</time>
      </trkpt>
      <trkpt lat="48.56203" lon="1.8623">
        <ele>155</ele>
        <time>2022-03-27T10:45:55Z</time>
      </trkpt>
      <trkpt lat="48.56203" lon="1.86235">
        <ele>155</ele>
        <time>2022-03-27T10:45:56Z</time>
      </trkpt>
      <trkpt lat="48.56203" lon="1.86241">
        <ele>155</ele>
        <time>2022-03-27T10:45:57Z</time>
      </trkpt>
      <trkpt lat="48.56202" lon="1.86246">
        <ele>156</ele>
        <time>2022-03-27T10:45:58Z</time>
      </trkpt>
      <trkpt lat="48.56202" lon="1.86251">
        <ele>156</ele>
        <time>2022-03-27T10:45:59Z</time>
      </trkpt>
      <trkpt lat="48.56202" lon="1.86257">
        <ele>156</ele>
        <time>2022-03-27T10:46:00Z</time>
      </trkpt>
      <trkpt lat="48.56201" lon="1.86262">
        <ele>156</ele>
        <time>2022-03-27T10:46:01Z</time>
      </trkpt>
      <trkpt lat="48.562" lon="1.86268">
        <ele>156</ele>
        <time>2022-03-27T10:46:02Z</time>
      </trkpt>
      <trkpt lat="48.562" lon="1.86273">
        <ele>156</ele>
        <time>2022-03-27T10:46:04Z</time>
      </trkpt>
      <trkpt lat="48.56199" lon="1.86279">
        <ele>156</ele>
        <time>2022-03-27T10:46:04Z</time>
      </trkpt>
      <trkpt lat="48.56198" lon="1.86284">
        <ele>156</ele>
        <time>2022-03-27T10:46:05Z</time>
      </trkpt>
      <trkpt lat="48.56198" lon="1.8629">
        <ele>156</ele>
        <time>2022-03-27T10:46:06Z</time>
      </trkpt>
      <trkpt lat="48.56197" lon="1.86296">
        <ele>156</ele>
        <time>2022-03-27T10:46:07Z</time>
      </trkpt>
      <trkpt lat="48.56196" lon="1.86301">
        <ele>156</ele>
        <time>2022-03-27T10:46:08Z</time>
      </trkpt>
      <trkpt lat="48.56196" lon="1.86306">
        <ele>156</ele>
        <time>2022-03-27T10:46:09Z</time>
      </trkpt>
      <trkpt lat="48.56195" lon="1.86312">
        <ele>156</ele>
        <time>2022-03-27T10:46:10Z</time>
      </trkpt>
      <trkpt lat="48.56195" lon="1.86316">
        <ele>156</ele>
        <time>2022-03-27T10:46:11Z</time>
      </trkpt>
      <trkpt lat="48.56194" lon="1.86321">
        <ele>156</ele>
        <time>2022-03-27T10:46:12Z</time>
      </trkpt>
      <trkpt lat="48.56194" lon="1.86326">
        <ele>157</ele>
        <time>2022-03-27T10:46:13Z</time>
      </trkpt>
      <trkpt lat="48.56193" lon="1.86331">
        <ele>157</ele>
        <time>2022-03-27T10:46:14Z</time>
      </trkpt>
      <trkpt lat="48.56193" lon="1.86335">
        <ele>157</ele>
        <time>2022-03-27T10:46:15Z</time>
      </trkpt>
      <trkpt lat="48.56192" lon="1.8634">
        <ele>157</ele>
        <time>2022-03-27T10:46:16Z</time>
      </trkpt>
      <trkpt lat="48.56192" lon="1.86345">
        <ele>157</ele>
        <time>2022-03-27T10:46:18Z</time>
      </trkpt>
      <trkpt lat="48.56191" lon="1.86349">
        <ele>157</ele>
        <time>2022-03-27T10:46:18Z</time>
      </trkpt>
      <trkpt lat="48.5619" lon="1.86354">
        <ele>157</ele>
        <time>2022-03-27T10:46:19Z</time>
      </trkpt>
      <trkpt lat="48.5619" lon="1.86359">
        <ele>157</ele>
        <time>2022-03-27T10:46:20Z</time>
      </trkpt>
      <trkpt lat="48.56189" lon="1.86364">
        <ele>157</ele>
        <time>2022-03-27T10:46:21Z</time>
      </trkpt>
      <trkpt lat="48.56189" lon="1.86369">
        <ele>157</ele>
        <time>2022-03-27T10:46:22Z</time>
      </trkpt>
      <trkpt lat="48.56188" lon="1.86374">
        <ele>157</ele>
        <time>2022-03-27T10:46:23Z</time>
      </trkpt>
      <trkpt lat="48.56188" lon="1.86379">
        <ele>157</ele>
        <time>2022-03-27T10:46:24Z</time>
      </trkpt>
      <trkpt lat="48.56187" lon="1.86383">
        <ele>157</ele>
        <time>2022-03-27T10:46:25Z</time>
      </trkpt>
      <trkpt lat="48.56187" lon="1.86388">
        <ele>157</ele>
        <time>2022-03-27T10:46:26Z</time>
      </trkpt>
      <trkpt lat="48.56186" lon="1.86393">
        <ele>157</ele>
        <time>2022-03-27T10:46:27Z</time>
      </trkpt>
      <trkpt lat="48.56185" lon="1.86398">
        <ele>157</ele>
        <time>2022-03-27T10:46:28Z</time>
      </trkpt>
      <trkpt lat="48.56185" lon="1.86403">
        <ele>157</ele>
        <time>2022-03-27T10:46:29Z</time>
      </trkpt>
      <trkpt lat="48.56184" lon="1.86409">
        <ele>157</ele>
        <time>2022-03-27T10:46:30Z</time>
      </trkpt>
      <trkpt lat="48.56183" lon="1.86414">
        <ele>157</ele>
        <time>2022-03-27T10:46:32Z</time>
      </trkpt>
      <trkpt lat="48.56183" lon="1.86419">
        <ele>157</ele>
        <time>2022-03-27T10:46:32Z</time>
      </trkpt>
      <trkpt lat="48.56182" lon="1.86424">
        <ele>158</ele>
        <time>2022-03-27T10:46:33Z</time>
      </trkpt>
      <trkpt lat="48.56182" lon="1.8643">
        <ele>158</ele>
        <time>2022-03-27T10:46:34Z</time>
      </trkpt>
      <trkpt lat="48.56181" lon="1.86435">
        <ele>158</ele>
        <time>2022-03-27T10:46:35Z</time>
      </trkpt>
      <trkpt lat="48.5618" lon="1.8644">
        <ele>158</ele>
        <time>2022-03-27T10:46:36Z</time>
      </trkpt>
      <trkpt lat="48.56179" lon="1.86446">
        <ele>158</ele>
        <time>2022-03-27T10:46:37Z</time>
      </trkpt>
      <trkpt lat="48.56179" lon="1.86451">
        <ele>158</ele>
        <time>2022-03-27T10:46:38Z</time>
      </trkpt>
      <trkpt lat="48.56178" lon="1.86457">
        <ele>158</ele>
        <time>2022-03-27T10:46:39Z</time>
      </trkpt>
      <trkpt lat="48.56178" lon="1.86462">
        <ele>158</ele>
        <time>2022-03-27T10:46:40Z</time>
      </trkpt>
      <trkpt lat="48.56177" lon="1.86468">
        <ele>158</ele>
        <time>2022-03-27T10:46:41Z</time>
      </trkpt>
      <trkpt lat="48.56176" lon="1.86473">
        <ele>158</ele>
        <time>2022-03-27T10:46:42Z</time>
      </trkpt>
      <trkpt lat="48.56176" lon="1.86479">
        <ele>158</ele>
        <time>2022-03-27T10:46:43Z</time>
      </trkpt>
      <trkpt lat="48.56175" lon="1.86484">
        <ele>158</ele>
        <time>2022-03-27T10:46:44Z</time>
      </trkpt>
      <trkpt lat="48.56174" lon="1.86489">
        <ele>158</ele>
        <time>2022-03-27T10:46:45Z</time>
      </trkpt>
      <trkpt lat="48.56173" lon="1.86495">
        <ele>158</ele>
        <time>2022-03-27T10:46:47Z</time>
      </trkpt>
      <trkpt lat="48.56173" lon="1.865">
        <ele>158</ele>
        <time>2022-03-27T10:46:47Z</time>
      </trkpt>
      <trkpt lat="48.56172" lon="1.86506">
        <ele>158</ele>
        <time>2022-03-27T10:46:48Z</time>
      </trkpt>
      <trkpt lat="48.56171" lon="1.86511">
        <ele>158</ele>
        <time>2022-03-27T10:46:49Z</time>
      </trkpt>
      <trkpt lat="48.56171" lon="1.86516">
        <ele>158</ele>
        <time>2022-03-27T10:46:50Z</time>
      </trkpt>
      <trkpt lat="48.5617" lon="1.86521">
        <ele>158</ele>
        <time>2022-03-27T10:46:51Z</time>
      </trkpt>
      <trkpt lat="48.56169" lon="1.86527">
        <ele>158</ele>
        <time>2022-03-27T10:46:52Z</time>
      </trkpt>
      <trkpt lat="48.56169" lon="1.86532">
        <ele>158</ele>
        <time>2022-03-27T10:46:53Z</time>
      </trkpt>
      <trkpt lat="48.56168" lon="1.86537">
        <ele>158</ele>
        <time>2022-03-27T10:46:54Z</time>
      </trkpt>
      <trkpt lat="48.56167" lon="1.86542">
        <ele>158</ele>
        <time>2022-03-27T10:46:55Z</time>
      </trkpt>
      <trkpt lat="48.56167" lon="1.86547">
        <ele>158</ele>
        <time>2022-03-27T10:46:56Z</time>
      </trkpt>
      <trkpt lat="48.56166" lon="1.86552">
        <ele>158</ele>
        <time>2022-03-27T10:46:57Z</time>
      </trkpt>
      <trkpt lat="48.56165" lon="1.86558">
        <ele>158</ele>
        <time>2022-03-27T10:46:58Z</time>
      </trkpt>
      <trkpt lat="48.56165" lon="1.86563">
        <ele>158</ele>
        <time>2022-03-27T10:46:59Z</time>
      </trkpt>
      <trkpt lat="48.56164" lon="1.86569">
        <ele>158</ele>
        <time>2022-03-27T10:47:01Z</time>
      </trkpt>
      <trkpt lat="48.56163" lon="1.86574">
        <ele>158</ele>
        <time>2022-03-27T10:47:01Z</time>
      </trkpt>
      <trkpt lat="48.56162" lon="1.8658">
        <ele>158</ele>
        <time>2022-03-27T10:47:02Z</time>
      </trkpt>
      <trkpt lat="48.56162" lon="1.86585">
        <ele>158</ele>
        <time>2022-03-27T10:47:03Z</time>
      </trkpt>
      <trkpt lat="48.56161" lon="1.86591">
        <ele>158</ele>
        <time>2022-03-27T10:47:04Z</time>
      </trkpt>
      <trkpt lat="48.5616" lon="1.86596">
        <ele>158</ele>
        <time>2022-03-27T10:47:05Z</time>
      </trkpt>
      <trkpt lat="48.56159" lon="1.86602">
        <ele>158</ele>
        <time>2022-03-27T10:47:06Z</time>
      </trkpt>
      <trkpt lat="48.56159" lon="1.86607">
        <ele>158</ele>
        <time>2022-03-27T10:47:07Z</time>
      </trkpt>
      <trkpt lat="48.56158" lon="1.86613">
        <ele>158</ele>
        <time>2022-03-27T10:47:08Z</time>
      </trkpt>
      <trkpt lat="48.56157" lon="1.86618">
        <ele>158</ele>
        <time>2022-03-27T10:47:09Z</time>
      </trkpt>
      <trkpt lat="48.56157" lon="1.86624">
        <ele>158</ele>
        <time>2022-03-27T10:47:10Z</time>
      </trkpt>
      <trkpt lat="48.56156" lon="1.86629">
        <ele>158</ele>
        <time>2022-03-27T10:47:11Z</time>
      </trkpt>
      <trkpt lat="48.56155" lon="1.86635">
        <ele>158</ele>
        <time>2022-03-27T10:47:12Z</time>
      </trkpt>
      <trkpt lat="48.56154" lon="1.86641">
        <ele>158</ele>
        <time>2022-03-27T10:47:13Z</time>
      </trkpt>
      <trkpt lat="48.56154" lon="1.86646">
        <ele>158</ele>
        <time>2022-03-27T10:47:14Z</time>
      </trkpt>
      <trkpt lat="48.56153" lon="1.86652">
        <ele>158</ele>
        <time>2022-03-27T10:47:15Z</time>
      </trkpt>
      <trkpt lat="48.56152" lon="1.86658">
        <ele>158</ele>
        <time>2022-03-27T10:47:16Z</time>
      </trkpt>
      <trkpt lat="48.56151" lon="1.86664">
        <ele>158</ele>
        <time>2022-03-27T10:47:17Z</time>
      </trkpt>
      <trkpt lat="48.5615" lon="1.86669">
        <ele>158</ele>
        <time>2022-03-27T10:47:18Z</time>
      </trkpt>
      <trkpt lat="48.5615" lon="1.86675">
        <ele>158</ele>
        <time>2022-03-27T10:47:19Z</time>
      </trkpt>
      <trkpt lat="48.56149" lon="1.86681">
        <ele>158</ele>
        <time>2022-03-27T10:47:20Z</time>
      </trkpt>
      <trkpt lat="48.56148" lon="1.86687">
        <ele>158</ele>
        <time>2022-03-27T10:47:21Z</time>
      </trkpt>
      <trkpt lat="48.56147" lon="1.86693">
        <ele>158</ele>
        <time>2022-03-27T10:47:22Z</time>
      </trkpt>
      <trkpt lat="48.56147" lon="1.86699">
        <ele>158</ele>
        <time>2022-03-27T10:47:23Z</time>
      </trkpt>
      <trkpt lat="48.56146" lon="1.86705">
        <ele>158</ele>
        <time>2022-03-27T10:47:24Z</time>
      </trkpt>
      <trkpt lat="48.56145" lon="1.86711">
        <ele>158</ele>
        <time>2022-03-27T10:47:25Z</time>
      </trkpt>
      <trkpt lat="48.56144" lon="1.86716">
        <ele>158</ele>
        <time>2022-03-27T10:47:27Z</time>
      </trkpt>
      <trkpt lat="48.56144" lon="1.86722">
        <ele>158</ele>
        <time>2022-03-27T10:47:27Z</time>
      </trkpt>
      <trkpt lat="48.56143" lon="1.86728">
        <ele>158</ele>
        <time>2022-03-27T10:47:28Z</time>
      </trkpt>
      <trkpt lat="48.56142" lon="1.86734">
        <ele>158</ele>
        <time>2022-03-27T10:47:29Z</time>
      </trkpt>
      <trkpt lat="48.56141" lon="1.86739">
        <ele>158</ele>
        <time>2022-03-27T10:47:30Z</time>
      </trkpt>
      <trkpt lat="48.56141" lon="1.86745">
        <ele>158</ele>
        <time>2022-03-27T10:47:31Z</time>
      </trkpt>
      <trkpt lat="48.5614" lon="1.86751">
        <ele>158</ele>
        <time>2022-03-27T10:47:32Z</time>
      </trkpt>
      <trkpt lat="48.56139" lon="1.86757">
        <ele>158</ele>
        <time>2022-03-27T10:47:33Z</time>
      </trkpt>
      <trkpt lat="48.56138" lon="1.86763">
        <ele>158</ele>
        <time>2022-03-27T10:47:34Z</time>
      </trkpt>
      <trkpt lat="48.56138" lon="1.86769">
        <ele>158</ele>
        <time>2022-03-27T10:47:35Z</time>
      </trkpt>
      <trkpt lat="48.56137" lon="1.86775">
        <ele>158</ele>
        <time>2022-03-27T10:47:36Z</time>
      </trkpt>
      <trkpt lat="48.56136" lon="1.8678">
        <ele>158</ele>
        <time>2022-03-27T10:47:37Z</time>
      </trkpt>
      <trkpt lat="48.56135" lon="1.86786">
        <ele>158</ele>
        <time>2022-03-27T10:47:38Z</time>
      </trkpt>
      <trkpt lat="48.56135" lon="1.86791">
        <ele>158</ele>
        <time>2022-03-27T10:47:39Z</time>
      </trkpt>
      <trkpt lat="48.56134" lon="1.86797">
        <ele>158</ele>
        <time>2022-03-27T10:47:40Z</time>
      </trkpt>
      <trkpt lat="48.56133" lon="1.86803">
        <ele>158</ele>
        <time>2022-03-27T10:47:41Z</time>
      </trkpt>
      <trkpt lat="48.56133" lon="1.86809">
        <ele>158</ele>
        <time>2022-03-27T10:47:42Z</time>
      </trkpt>
      <trkpt lat="48.56132" lon="1.86814">
        <ele>158</ele>
        <time>2022-03-27T10:47:43Z</time>
      </trkpt>
      <trkpt lat="48.56131" lon="1.8682">
        <ele>158</ele>
        <time>2022-03-27T10:47:44Z</time>
      </trkpt>
      <trkpt lat="48.5613" lon="1.86826">
        <ele>158</ele>
        <time>2022-03-27T10:47:45Z</time>
      </trkpt>
      <trkpt lat="48.5613" lon="1.86831">
        <ele>158</ele>
        <time>2022-03-27T10:47:46Z</time>
      </trkpt>
      <trkpt lat="48.56129" lon="1.86837">
        <ele>158</ele>
        <time>2022-03-27T10:47:48Z</time>
      </trkpt>
      <trkpt lat="48.56128" lon="1.86843">
        <ele>158</ele>
        <time>2022-03-27T10:47:48Z</time>
      </trkpt>
      <trkpt lat="48.56127" lon="1.86849">
        <ele>158</ele>
        <time>2022-03-27T10:47:49Z</time>
      </trkpt>
      <trkpt lat="48.56127" lon="1.86854">
        <ele>158</ele>
        <time>2022-03-27T10:47:50Z</time>
      </trkpt>
      <trkpt lat="48.56126" lon="1.8686">
        <ele>158</ele>
        <time>2022-03-27T10:47:51Z</time>
      </trkpt>
      <trkpt lat="48.56126" lon="1.86866">
        <ele>158</ele>
        <time>2022-03-27T10:47:53Z</time>
      </trkpt>
      <trkpt lat="48.56125" lon="1.86871">
        <ele>158</ele>
        <time>2022-03-27T10:47:53Z</time>
      </trkpt>
      <trkpt lat="48.56124" lon="1.86877">
        <ele>158</ele>
        <time>2022-03-27T10:47:54Z</time>
      </trkpt>
      <trkpt lat="48.56124" lon="1.86882">
        <ele>158</ele>
        <time>2022-03-27T10:47:55Z</time>
      </trkpt>
      <trkpt lat="48.56124" lon="1.86888">
        <ele>158</ele>
        <time>2022-03-27T10:47:56Z</time>
      </trkpt>
      <trkpt lat="48.56123" lon="1.86894">
        <ele>158</ele>
        <time>2022-03-27T10:47:57Z</time>
      </trkpt>
      <trkpt lat="48.56123" lon="1.869">
        <ele>158</ele>
        <time>2022-03-27T10:47:58Z</time>
      </trkpt>
      <trkpt lat="48.56123" lon="1.86906">
        <ele>158</ele>
        <time>2022-03-27T10:47:59Z</time>
      </trkpt>
      <trkpt lat="48.56124" lon="1.86912">
        <ele>157</ele>
        <time>2022-03-27T10:48:00Z</time>
      </trkpt>
      <trkpt lat="48.56123" lon="1.86918">
        <ele>158</ele>
        <time>2022-03-27T10:48:01Z</time>
      </trkpt>
      <trkpt lat="48.56123" lon="1.86924">
        <ele>158</ele>
        <time>2022-03-27T10:48:02Z</time>
      </trkpt>
      <trkpt lat="48.56123" lon="1.86931">
        <ele>158</ele>
        <time>2022-03-27T10:48:03Z</time>
      </trkpt>
      <trkpt lat="48.56123" lon="1.86937">
        <ele>158</ele>
        <time>2022-03-27T10:48:04Z</time>
      </trkpt>
      <trkpt lat="48.56123" lon="1.86943">
        <ele>158</ele>
        <time>2022-03-27T10:48:05Z</time>
      </trkpt>
      <trkpt lat="48.56123" lon="1.86949">
        <ele>158</ele>
        <time>2022-03-27T10:48:07Z</time>
      </trkpt>
      <trkpt lat="48.56123" lon="1.86955">
        <ele>158</ele>
        <time>2022-03-27T10:48:07Z</time>
      </trkpt>
      <trkpt lat="48.56123" lon="1.86961">
        <ele>158</ele>
        <time>2022-03-27T10:48:08Z</time>
      </trkpt>
      <trkpt lat="48.56123" lon="1.86967">
        <ele>158</ele>
        <time>2022-03-27T10:48:09Z</time>
      </trkpt>
      <trkpt lat="48.56123" lon="1.86973">
        <ele>158</ele>
        <time>2022-03-27T10:48:10Z</time>
      </trkpt>
      <trkpt lat="48.56123" lon="1.86979">
        <ele>158</ele>
        <time>2022-03-27T10:48:11Z</time>
      </trkpt>
      <trkpt lat="48.56123" lon="1.86985">
        <ele>158</ele>
        <time>2022-03-27T10:48:12Z</time>
      </trkpt>
      <trkpt lat="48.56123" lon="1.86991">
        <ele>158</ele>
        <time>2022-03-27T10:48:13Z</time>
      </trkpt>
      <trkpt lat="48.56123" lon="1.86997">
        <ele>158</ele>
        <time>2022-03-27T10:48:14Z</time>
      </trkpt>
      <trkpt lat="48.56123" lon="1.87003">
        <ele>158</ele>
        <time>2022-03-27T10:48:15Z</time>
      </trkpt>
      <trkpt lat="48.56123" lon="1.87009">
        <ele>158</ele>
        <time>2022-03-27T10:48:16Z</time>
      </trkpt>
      <trkpt lat="48.56123" lon="1.87015">
        <ele>158</ele>
        <time>2022-03-27T10:48:18Z</time>
      </trkpt>
      <trkpt lat="48.56123" lon="1.87021">
        <ele>158</ele>
        <time>2022-03-27T10:48:18Z</time>
      </trkpt>
      <trkpt lat="48.56123" lon="1.87027">
        <ele>158</ele>
        <time>2022-03-27T10:48:19Z</time>
      </trkpt>
      <trkpt lat="48.56123" lon="1.87033">
        <ele>158</ele>
        <time>2022-03-27T10:48:20Z</time>
      </trkpt>
      <trkpt lat="48.56123" lon="1.87039">
        <ele>158</ele>
        <time>2022-03-27T10:48:21Z</time>
      </trkpt>
      <trkpt lat="48.56123" lon="1.87046">
        <ele>158</ele>
        <time>2022-03-27T10:48:22Z</time>
      </trkpt>
      <trkpt lat="48.56123" lon="1.87052">
        <ele>158</ele>
        <time>2022-03-27T10:48:23Z</time>
      </trkpt>
      <trkpt lat="48.56123" lon="1.87058">
        <ele>158</ele>
        <time>2022-03-27T10:48:24Z</time>
      </trkpt>
      <trkpt lat="48.56123" lon="1.87064">
        <ele>158</ele>
        <time>2022-03-27T10:48:26Z</time>
      </trkpt>
      <trkpt lat="48.56123" lon="1.87071">
        <ele>158</ele>
        <time>2022-03-27T10:48:26Z</time>
      </trkpt>
      <trkpt lat="48.56123" lon="1.87078">
        <ele>158</ele>
        <time>2022-03-27T10:48:27Z</time>
      </trkpt>
      <trkpt lat="48.56123" lon="1.87084">
        <ele>158</ele>
        <time>2022-03-27T10:48:28Z</time>
      </trkpt>
      <trkpt lat="48.56123" lon="1.8709">
        <ele>158</ele>
        <time>2022-03-27T10:48:30Z</time>
      </trkpt>
      <trkpt lat="48.56123" lon="1.87097">
        <ele>158</ele>
        <time>2022-03-27T10:48:30Z</time>
      </trkpt>
      <trkpt lat="48.56123" lon="1.87103">
        <ele>158</ele>
        <time>2022-03-27T10:48:31Z</time>
      </trkpt>
      <trkpt lat="48.56123" lon="1.8711">
        <ele>158</ele>
        <time>2022-03-27T10:48:32Z</time>
      </trkpt>
      <trkpt lat="48.56123" lon="1.87116">
        <ele>158</ele>
        <time>2022-03-27T10:48:33Z</time>
      </trkpt>
      <trkpt lat="48.56124" lon="1.87123">
        <ele>158</ele>
        <time>2022-03-27T10:48:34Z</time>
      </trkpt>
      <trkpt lat="48.56124" lon="1.8713">
        <ele>158</ele>
        <time>2022-03-27T10:48:35Z</time>
      </trkpt>
      <trkpt lat="48.56124" lon="1.87137">
        <ele>158</ele>
        <time>2022-03-27T10:48:36Z</time>
      </trkpt>
      <trkpt lat="48.56124" lon="1.87144">
        <ele>158</ele>
        <time>2022-03-27T10:48:37Z</time>
      </trkpt>
      <trkpt lat="48.56124" lon="1.8715">
        <ele>158</ele>
        <time>2022-03-27T10:48:38Z</time>
      </trkpt>
      <trkpt lat="48.56124" lon="1.87157">
        <ele>158</ele>
        <time>2022-03-27T10:48:39Z</time>
      </trkpt>
      <trkpt lat="48.56124" lon="1.87165">
        <ele>158</ele>
        <time>2022-03-27T10:48:40Z</time>
      </trkpt>
      <trkpt lat="48.56124" lon="1.87172">
        <ele>158</ele>
        <time>2022-03-27T10:48:41Z</time>
      </trkpt>
      <trkpt lat="48.56124" lon="1.87179">
        <ele>159</ele>
        <time>2022-03-27T10:48:42Z</time>
      </trkpt>
      <trkpt lat="48.56124" lon="1.87185">
        <ele>159</ele>
        <time>2022-03-27T10:48:43Z</time>
      </trkpt>
      <trkpt lat="48.56124" lon="1.87192">
        <ele>159</ele>
        <time>2022-03-27T10:48:45Z</time>
      </trkpt>
      <trkpt lat="48.56124" lon="1.87199">
        <ele>159</ele>
        <time>2022-03-27T10:48:45Z</time>
      </trkpt>
      <trkpt lat="48.56124" lon="1.87205">
        <ele>159</ele>
        <time>2022-03-27T10:48:46Z</time>
      </trkpt>
      <trkpt lat="48.56124" lon="1.87212">
        <ele>159</ele>
        <time>2022-03-27T10:48:47Z</time>
      </trkpt>
      <trkpt lat="48.56124" lon="1.87218">
        <ele>159</ele>
        <time>2022-03-27T10:48:48Z</time>
      </trkpt>
      <trkpt lat="48.56124" lon="1.87225">
        <ele>159</ele>
        <time>2022-03-27T10:48:49Z</time>
      </trkpt>
      <trkpt lat="48.56124" lon="1.87232">
        <ele>159</ele>
        <time>2022-03-27T10:48:50Z</time>
      </trkpt>
      <trkpt lat="48.56124" lon="1.87238">
        <ele>159</ele>
        <time>2022-03-27T10:48:51Z</time>
      </trkpt>
      <trkpt lat="48.56124" lon="1.87245">
        <ele>159</ele>
        <time>2022-03-27T10:48:53Z</time>
      </trkpt>
      <trkpt lat="48.56124" lon="1.87252">
        <ele>159</ele>
        <time>2022-03-27T10:48:53Z</time>
      </trkpt>
      <trkpt lat="48.56124" lon="1.87258">
        <ele>159</ele>
        <time>2022-03-27T10:48:54Z</time>
      </trkpt>
      <trkpt lat="48.56124" lon="1.87265">
        <ele>159</ele>
        <time>2022-03-27T10:48:55Z</time>
      </trkpt>
      <trkpt lat="48.56124" lon="1.87272">
        <ele>159</ele>
        <time>2022-03-27T10:48:56Z</time>
      </trkpt>
      <trkpt lat="48.56124" lon="1.87278">
        <ele>159</ele>
        <time>2022-03-27T10:48:57Z</time>
      </trkpt>
      <trkpt lat="48.56124" lon="1.87285">
        <ele>159</ele>
        <time>2022-03-27T10:48:58Z</time>
      </trkpt>
      <trkpt lat="48.56124" lon="1.87292">
        <ele>159</ele>
        <time>2022-03-27T10:48:59Z</time>
      </trkpt>
      <trkpt lat="48.56124" lon="1.87299">
        <ele>159</ele>
        <time>2022-03-27T10:49:00Z</time>
      </trkpt>
      <trkpt lat="48.56124" lon="1.87305">
        <ele>159</ele>
        <time>2022-03-27T10:49:01Z</time>
      </trkpt>
      <trkpt lat="48.56124" lon="1.87312">
        <ele>159</ele>
        <time>2022-03-27T10:49:02Z</time>
      </trkpt>
      <trkpt lat="48.56123" lon="1.87319">
        <ele>159</ele>
        <time>2022-03-27T10:49:04Z</time>
      </trkpt>
      <trkpt lat="48.56123" lon="1.87326">
        <ele>159</ele>
        <time>2022-03-27T10:49:04Z</time>
      </trkpt>
      <trkpt lat="48.56123" lon="1.87333">
        <ele>159</ele>
        <time>2022-03-27T10:49:05Z</time>
      </trkpt>
      <trkpt lat="48.56123" lon="1.8734">
        <ele>159</ele>
        <time>2022-03-27T10:49:06Z</time>
      </trkpt>
      <trkpt lat="48.56123" lon="1.87347">
        <ele>159</ele>
        <time>2022-03-27T10:49:07Z</time>
      </trkpt>
      <trkpt lat="48.56123" lon="1.87353">
        <ele>160</ele>
        <time>2022-03-27T10:49:08Z</time>
      </trkpt>
      <trkpt lat="48.56123" lon="1.8736">
        <ele>160</ele>
        <time>2022-03-27T10:49:09Z</time>
      </trkpt>
      <trkpt lat="48.56123" lon="1.87367">
        <ele>160</ele>
        <time>2022-03-27T10:49:10Z</time>
      </trkpt>
      <trkpt lat="48.56123" lon="1.87374">
        <ele>160</ele>
        <time>2022-03-27T10:49:11Z</time>
      </trkpt>
      <trkpt lat="48.56123" lon="1.87381">
        <ele>160</ele>
        <time>2022-03-27T10:49:12Z</time>
      </trkpt>
      <trkpt lat="48.56123" lon="1.87388">
        <ele>160</ele>
        <time>2022-03-27T10:49:13Z</time>
      </trkpt>
      <trkpt lat="48.56123" lon="1.87395">
        <ele>160</ele>
        <time>2022-03-27T10:49:14Z</time>
      </trkpt>
      <trkpt lat="48.56123" lon="1.87402">
        <ele>160</ele>
        <time>2022-03-27T10:49:15Z</time>
      </trkpt>
      <trkpt lat="48.56123" lon="1.87409">
        <ele>160</ele>
        <time>2022-03-27T10:49:16Z</time>
      </trkpt>
      <trkpt lat="48.56123" lon="1.87416">
        <ele>160</ele>
        <time>2022-03-27T10:49:17Z</time>
      </trkpt>
      <trkpt lat="48.56123" lon="1.87423">
        <ele>160</ele>
        <time>2022-03-27T10:49:18Z</time>
      </trkpt>
      <trkpt lat="48.56123" lon="1.8743">
        <ele>160</ele>
        <time>2022-03-27T10:49:19Z</time>
      </trkpt>
      <trkpt lat="48.56123" lon="1.87437">
        <ele>160</ele>
        <time>2022-03-27T10:49:20Z</time>
      </trkpt>
      <trkpt lat="48.56123" lon="1.87445">
        <ele>160</ele>
        <time>2022-03-27T10:49:21Z</time>
      </trkpt>
      <trkpt lat="48.56123" lon="1.87452">
        <ele>160</ele>
        <time>2022-03-27T10:49:23Z</time>
      </trkpt>
      <trkpt lat="48.56123" lon="1.87459">
        <ele>160</ele>
        <time>2022-03-27T10:49:23Z</time>
      </trkpt>
      <trkpt lat="48.56123" lon="1.87465">
        <ele>160</ele>
        <time>2022-03-27T10:49:24Z</time>
      </trkpt>
      <trkpt lat="48.56122" lon="1.87472">
        <ele>160</ele>
        <time>2022-03-27T10:49:26Z</time>
      </trkpt>
      <trkpt lat="48.56122" lon="1.87479">
        <ele>160</ele>
        <time>2022-03-27T10:49:26Z</time>
      </trkpt>
      <trkpt lat="48.56122" lon="1.87486">
        <ele>160</ele>
        <time>2022-03-27T10:49:27Z</time>
      </trkpt>
      <trkpt lat="48.56122" lon="1.87492">
        <ele>160</ele>
        <time>2022-03-27T10:49:28Z</time>
      </trkpt>
      <trkpt lat="48.56122" lon="1.87499">
        <ele>160</ele>
        <time>2022-03-27T10:49:29Z</time>
      </trkpt>
      <trkpt lat="48.56122" lon="1.87507">
        <ele>160</ele>
        <time>2022-03-27T10:49:30Z</time>
      </trkpt>
      <trkpt lat="48.56122" lon="1.87514">
        <ele>161</ele>
        <time>2022-03-27T10:49:31Z</time>
      </trkpt>
      <trkpt lat="48.56123" lon="1.87521">
        <ele>160</ele>
        <time>2022-03-27T10:49:32Z</time>
      </trkpt>
      <trkpt lat="48.56123" lon="1.87527">
        <ele>160</ele>
        <time>2022-03-27T10:49:33Z</time>
      </trkpt>
      <trkpt lat="48.56123" lon="1.87534">
        <ele>160</ele>
        <time>2022-03-27T10:49:34Z</time>
      </trkpt>
      <trkpt lat="48.56122" lon="1.87541">
        <ele>160</ele>
        <time>2022-03-27T10:49:35Z</time>
      </trkpt>
      <trkpt lat="48.56122" lon="1.87548">
        <ele>160</ele>
        <time>2022-03-27T10:49:36Z</time>
      </trkpt>
      <trkpt lat="48.56122" lon="1.87554">
        <ele>160</ele>
        <time>2022-03-27T10:49:37Z</time>
      </trkpt>
      <trkpt lat="48.56122" lon="1.87561">
        <ele>160</ele>
        <time>2022-03-27T10:49:38Z</time>
      </trkpt>
      <trkpt lat="48.56122" lon="1.87568">
        <ele>160</ele>
        <time>2022-03-27T10:49:39Z</time>
      </trkpt>
      <trkpt lat="48.56122" lon="1.87575">
        <ele>160</ele>
        <time>2022-03-27T10:49:40Z</time>
      </trkpt>
      <trkpt lat="48.56122" lon="1.87581">
        <ele>160</ele>
        <time>2022-03-27T10:49:42Z</time>
      </trkpt>
      <trkpt lat="48.56122" lon="1.87588">
        <ele>160</ele>
        <time>2022-03-27T10:49:42Z</time>
      </trkpt>
      <trkpt lat="48.56122" lon="1.87595">
        <ele>160</ele>
        <time>2022-03-27T10:49:43Z</time>
      </trkpt>
      <trkpt lat="48.56122" lon="1.87602">
        <ele>160</ele>
        <time>2022-03-27T10:49:44Z</time>
      </trkpt>
      <trkpt lat="48.56122" lon="1.87609">
        <ele>160</ele>
        <time>2022-03-27T10:49:45Z</time>
      </trkpt>
      <trkpt lat="48.56122" lon="1.87616">
        <ele>160</ele>
        <time>2022-03-27T10:49:46Z</time>
      </trkpt>
      <trkpt lat="48.56122" lon="1.87623">
        <ele>160</ele>
        <time>2022-03-27T10:49:48Z</time>
      </trkpt>
      <trkpt lat="48.56122" lon="1.8763">
        <ele>160</ele>
        <time>2022-03-27T10:49:48Z</time>
      </trkpt>
      <trkpt lat="48.56122" lon="1.87637">
        <ele>160</ele>
        <time>2022-03-27T10:49:49Z</time>
      </trkpt>
      <trkpt lat="48.56122" lon="1.87644">
        <ele>160</ele>
        <time>2022-03-27T10:49:50Z</time>
      </trkpt>
      <trkpt lat="48.56121" lon="1.8765">
        <ele>160</ele>
        <time>2022-03-27T10:49:51Z</time>
      </trkpt>
      <trkpt lat="48.56121" lon="1.87657">
        <ele>160</ele>
        <time>2022-03-27T10:49:52Z</time>
      </trkpt>
      <trkpt lat="48.56121" lon="1.87664">
        <ele>160</ele>
        <time>2022-03-27T10:49:53Z</time>
      </trkpt>
      <trkpt lat="48.56121" lon="1.87672">
        <ele>160</ele>
        <time>2022-03-27T10:49:54Z</time>
      </trkpt>
      <trkpt lat="48.56121" lon="1.87679">
        <ele>160</ele>
        <time>2022-03-27T10:49:55Z</time>
      </trkpt>
      <trkpt lat="48.56121" lon="1.87686">
        <ele>160</ele>
        <time>2022-03-27T10:49:56Z</time>
      </trkpt>
      <trkpt lat="48.56121" lon="1.87694">
        <ele>160</ele>
        <time>2022-03-27T10:49:57Z</time>
      </trkpt>
      <trkpt lat="48.56121" lon="1.87701">
        <ele>160</ele>
        <time>2022-03-27T10:49:58Z</time>
      </trkpt>
      <trkpt lat="48.56121" lon="1.87708">
        <ele>160</ele>
        <time>2022-03-27T10:49:59Z</time>
      </trkpt>
      <trkpt lat="48.56121" lon="1.87716">
        <ele>160</ele>
        <time>2022-03-27T10:50:01Z</time>
      </trkpt>
      <trkpt lat="48.56121" lon="1.87723">
        <ele>160</ele>
        <time>2022-03-27T10:50:01Z</time>
      </trkpt>
      <trkpt lat="48.56121" lon="1.87731">
        <ele>160</ele>
        <time>2022-03-27T10:50:02Z</time>
      </trkpt>
      <trkpt lat="48.56121" lon="1.87738">
        <ele>160</ele>
        <time>2022-03-27T10:50:03Z</time>
      </trkpt>
      <trkpt lat="48.56121" lon="1.87745">
        <ele>161</ele>
        <time>2022-03-27T10:50:04Z</time>
      </trkpt>
      <trkpt lat="48.56121" lon="1.87752">
        <ele>161</ele>
        <time>2022-03-27T10:50:05Z</time>
      </trkpt>
      <trkpt lat="48.56121" lon="1.87759">
        <ele>161</ele>
        <time>2022-03-27T10:50:06Z</time>
      </trkpt>
      <trkpt lat="48.56121" lon="1.87766">
        <ele>161</ele>
        <time>2022-03-27T10:50:07Z</time>
      </trkpt>
      <trkpt lat="48.5612" lon="1.87773">
        <ele>161</ele>
        <time>2022-03-27T10:50:08Z</time>
      </trkpt>
      <trkpt lat="48.5612" lon="1.8778">
        <ele>161</ele>
        <time>2022-03-27T10:50:09Z</time>
      </trkpt>
      <trkpt lat="48.5612" lon="1.87787">
        <ele>161</ele>
        <time>2022-03-27T10:50:10Z</time>
      </trkpt>
      <trkpt lat="48.5612" lon="1.87794">
        <ele>161</ele>
        <time>2022-03-27T10:50:11Z</time>
      </trkpt>
      <trkpt lat="48.5612" lon="1.878">
        <ele>161</ele>
        <time>2022-03-27T10:50:12Z</time>
      </trkpt>
      <trkpt lat="48.5612" lon="1.87806">
        <ele>161</ele>
        <time>2022-03-27T10:50:13Z</time>
      </trkpt>
      <trkpt lat="48.56121" lon="1.87811">
        <ele>161</ele>
        <time>2022-03-27T10:50:14Z</time>
      </trkpt>
      <trkpt lat="48.56121" lon="1.87816">
        <ele>161</ele>
        <time>2022-03-27T10:50:15Z</time>
      </trkpt>
      <trkpt lat="48.5612" lon="1.87821">
        <ele>161</ele>
        <time>2022-03-27T10:50:16Z</time>
      </trkpt>
      <trkpt lat="48.5612" lon="1.87827">
        <ele>161</ele>
        <time>2022-03-27T10:50:17Z</time>
      </trkpt>
      <trkpt lat="48.5612" lon="1.87832">
        <ele>161</ele>
        <time>2022-03-27T10:50:18Z</time>
      </trkpt>
      <trkpt lat="48.56121" lon="1.87838">
        <ele>161</ele>
        <time>2022-03-27T10:50:20Z</time>
      </trkpt>
      <trkpt lat="48.56121" lon="1.87843">
        <ele>161</ele>
        <time>2022-03-27T10:50:20Z</time>
      </trkpt>
      <trkpt lat="48.56121" lon="1.87848">
        <ele>161</ele>
        <time>2022-03-27T10:50:21Z</time>
      </trkpt>
      <trkpt lat="48.56121" lon="1.87853">
        <ele>161</ele>
        <time>2022-03-27T10:50:22Z</time>
      </trkpt>
      <trkpt lat="48.5612" lon="1.87858">
        <ele>161</ele>
        <time>2022-03-27T10:50:23Z</time>
      </trkpt>
      <trkpt lat="48.5612" lon="1.87862">
        <ele>161</ele>
        <time>2022-03-27T10:50:24Z</time>
      </trkpt>
      <trkpt lat="48.5612" lon="1.87867">
        <ele>161</ele>
        <time>2022-03-27T10:50:25Z</time>
      </trkpt>
      <trkpt lat="48.5612" lon="1.87871">
        <ele>161</ele>
        <time>2022-03-27T10:50:26Z</time>
      </trkpt>
      <trkpt lat="48.5612" lon="1.87876">
        <ele>161</ele>
        <time>2022-03-27T10:50:27Z</time>
      </trkpt>
      <trkpt lat="48.5612" lon="1.8788">
        <ele>161</ele>
        <time>2022-03-27T10:50:28Z</time>
      </trkpt>
      <trkpt lat="48.56121" lon="1.87885">
        <ele>161</ele>
        <time>2022-03-27T10:50:29Z</time>
      </trkpt>
      <trkpt lat="48.56121" lon="1.87888">
        <ele>161</ele>
        <time>2022-03-27T10:50:30Z</time>
      </trkpt>
      <trkpt lat="48.56121" lon="1.87892">
        <ele>161</ele>
        <time>2022-03-27T10:50:31Z</time>
      </trkpt>
      <trkpt lat="48.5612" lon="1.87895">
        <ele>161</ele>
        <time>2022-03-27T10:50:32Z</time>
      </trkpt>
      <trkpt lat="48.5612" lon="1.87899">
        <ele>161</ele>
        <time>2022-03-27T10:50:34Z</time>
      </trkpt>
      <trkpt lat="48.5612" lon="1.87903">
        <ele>161</ele>
        <time>2022-03-27T10:50:36Z</time>
      </trkpt>
      <trkpt lat="48.56119" lon="1.87907">
        <ele>161</ele>
        <time>2022-03-27T10:50:38Z</time>
      </trkpt>
      <trkpt lat="48.5612" lon="1.87912">
        <ele>161</ele>
        <time>2022-03-27T10:50:40Z</time>
      </trkpt>
      <trkpt lat="48.5612" lon="1.87915">
        <ele>161</ele>
        <time>2022-03-27T10:50:42Z</time>
      </trkpt>
      <trkpt lat="48.56119" lon="1.87919">
        <ele>161</ele>
        <time>2022-03-27T10:50:44Z</time>
      </trkpt>
      <trkpt lat="48.56119" lon="1.87923">
        <ele>161</ele>
        <time>2022-03-27T10:50:46Z</time>
      </trkpt>
      <trkpt lat="48.56119" lon="1.87927">
        <ele>161</ele>
        <time>2022-03-27T10:50:48Z</time>
      </trkpt>
      <trkpt lat="48.5612" lon="1.87932">
        <ele>161</ele>
        <time>2022-03-27T10:50:50Z</time>
      </trkpt>
      <trkpt lat="48.5612" lon="1.87937">
        <ele>161</ele>
        <time>2022-03-27T10:50:52Z</time>
      </trkpt>
      <trkpt lat="48.56121" lon="1.87942">
        <ele>161</ele>
        <time>2022-03-27T10:50:54Z</time>
      </trkpt>
      <trkpt lat="48.56121" lon="1.87947">
        <ele>161</ele>
        <time>2022-03-27T10:50:56Z</time>
      </trkpt>
      <trkpt lat="48.56122" lon="1.87951">
        <ele>161</ele>
        <time>2022-03-27T10:50:58Z</time>
      </trkpt>
      <trkpt lat="48.56122" lon="1.87956">
        <ele>161</ele>
        <time>2022-03-27T10:51:00Z</time>
      </trkpt>
      <trkpt lat="48.56122" lon="1.8796">
        <ele>161</ele>
        <time>2022-03-27T10:51:02Z</time>
      </trkpt>
      <trkpt lat="48.56122" lon="1.87965">
        <ele>161</ele>
        <time>2022-03-27T10:51:04Z</time>
      </trkpt>
      <trkpt lat="48.56122" lon="1.8797">
        <ele>161</ele>
        <time>2022-03-27T10:51:06Z</time>
      </trkpt>
      <trkpt lat="48.56123" lon="1.87974">
        <ele>161</ele>
        <time>2022-03-27T10:51:08Z</time>
      </trkpt>
      <trkpt lat="48.56123" lon="1.87979">
        <ele>162</ele>
        <time>2022-03-27T10:51:10Z</time>
      </trkpt>
      <trkpt lat="48.56123" lon="1.87984">
        <ele>162</ele>
        <time>2022-03-27T10:51:12Z</time>
      </trkpt>
      <trkpt lat="48.56123" lon="1.8799">
        <ele>162</ele>
        <time>2022-03-27T10:51:14Z</time>
      </trkpt>
      <trkpt lat="48.56124" lon="1.87995">
        <ele>162</ele>
        <time>2022-03-27T10:51:17Z</time>
      </trkpt>
      <trkpt lat="48.56124" lon="1.87999">
        <ele>162</ele>
        <time>2022-03-27T10:51:18Z</time>
      </trkpt>
      <trkpt lat="48.56124" lon="1.88005">
        <ele>162</ele>
        <time>2022-03-27T10:51:20Z</time>
      </trkpt>
      <trkpt lat="48.56124" lon="1.88007">
        <ele>162</ele>
        <time>2022-03-27T10:51:21Z</time>
      </trkpt>
      <trkpt lat="48.56124" lon="1.88013">
        <ele>162</ele>
        <time>2022-03-27T10:51:23Z</time>
      </trkpt>
      <trkpt lat="48.56125" lon="1.88017">
        <ele>161</ele>
        <time>2022-03-27T10:51:25Z</time>
      </trkpt>
      <trkpt lat="48.56125" lon="1.88022">
        <ele>161</ele>
        <time>2022-03-27T10:51:27Z</time>
      </trkpt>
      <trkpt lat="48.56125" lon="1.88027">
        <ele>161</ele>
        <time>2022-03-27T10:51:29Z</time>
      </trkpt>
      <trkpt lat="48.56126" lon="1.88032">
        <ele>161</ele>
        <time>2022-03-27T10:51:31Z</time>
      </trkpt>
      <trkpt lat="48.56126" lon="1.88037">
        <ele>161</ele>
        <time>2022-03-27T10:51:33Z</time>
      </trkpt>
      <trkpt lat="48.56126" lon="1.88042">
        <ele>161</ele>
        <time>2022-03-27T10:51:36Z</time>
      </trkpt>
      <trkpt lat="48.56127" lon="1.88047">
        <ele>161</ele>
        <time>2022-03-27T10:51:37Z</time>
      </trkpt>
      <trkpt lat="48.56127" lon="1.88052">
        <ele>161</ele>
        <time>2022-03-27T10:51:39Z</time>
      </trkpt>
      <trkpt lat="48.56127" lon="1.88057">
        <ele>161</ele>
        <time>2022-03-27T10:51:41Z</time>
      </trkpt>
      <trkpt lat="48.56127" lon="1.88062">
        <ele>161</ele>
        <time>2022-03-27T10:51:43Z</time>
      </trkpt>
      <trkpt lat="48.56127" lon="1.88067">
        <ele>161</ele>
        <time>2022-03-27T10:51:45Z</time>
      </trkpt>
      <trkpt lat="48.56128" lon="1.88072">
        <ele>161</ele>
        <time>2022-03-27T10:51:47Z</time>
      </trkpt>
      <trkpt lat="48.56128" lon="1.88077">
        <ele>161</ele>
        <time>2022-03-27T10:51:49Z</time>
      </trkpt>
      <trkpt lat="48.56128" lon="1.88082">
        <ele>161</ele>
        <time>2022-03-27T10:51:51Z</time>
      </trkpt>
      <trkpt lat="48.56129" lon="1.88087">
        <ele>161</ele>
        <time>2022-03-27T10:51:53Z</time>
      </trkpt>
      <trkpt lat="48.56129" lon="1.88092">
        <ele>161</ele>
        <time>2022-03-27T10:51:55Z</time>
      </trkpt>
      <trkpt lat="48.56129" lon="1.88097">
        <ele>161</ele>
        <time>2022-03-27T10:51:57Z</time>
      </trkpt>
      <trkpt lat="48.56129" lon="1.88102">
        <ele>161</ele>
        <time>2022-03-27T10:51:59Z</time>
      </trkpt>
      <trkpt lat="48.5613" lon="1.88107">
        <ele>161</ele>
        <time>2022-03-27T10:52:01Z</time>
      </trkpt>
      <trkpt lat="48.5613" lon="1.88112">
        <ele>161</ele>
        <time>2022-03-27T10:52:03Z</time>
      </trkpt>
      <trkpt lat="48.5613" lon="1.88117">
        <ele>161</ele>
        <time>2022-03-27T10:52:05Z</time>
      </trkpt>
      <trkpt lat="48.56131" lon="1.88122">
        <ele>161</ele>
        <time>2022-03-27T10:52:07Z</time>
      </trkpt>
      <trkpt lat="48.56131" lon="1.88126">
        <ele>161</ele>
        <time>2022-03-27T10:52:09Z</time>
      </trkpt>
      <trkpt lat="48.56131" lon="1.8813">
        <ele>161</ele>
        <time>2022-03-27T10:52:11Z</time>
      </trkpt>
      <trkpt lat="48.56132" lon="1.88135">
        <ele>161</ele>
        <time>2022-03-27T10:52:14Z</time>
      </trkpt>
      <trkpt lat="48.56132" lon="1.8814">
        <ele>161</ele>
        <time>2022-03-27T10:52:15Z</time>
      </trkpt>
      <trkpt lat="48.56132" lon="1.88145">
        <ele>161</ele>
        <time>2022-03-27T10:52:17Z</time>
      </trkpt>
      <trkpt lat="48.56132" lon="1.88148">
        <ele>161</ele>
        <time>2022-03-27T10:52:18Z</time>
      </trkpt>
      <trkpt lat="48.56132" lon="1.88151">
        <ele>161</ele>
        <time>2022-03-27T10:52:19Z</time>
      </trkpt>
      <trkpt lat="48.56132" lon="1.88156">
        <ele>161</ele>
        <time>2022-03-27T10:52:21Z</time>
      </trkpt>
      <trkpt lat="48.56133" lon="1.88161">
        <ele>161</ele>
        <time>2022-03-27T10:52:23Z</time>
      </trkpt>
      <trkpt lat="48.56133" lon="1.88165">
        <ele>161</ele>
        <time>2022-03-27T10:52:24Z</time>
      </trkpt>
      <trkpt lat="48.56133" lon="1.8817">
        <ele>161</ele>
        <time>2022-03-27T10:52:25Z</time>
      </trkpt>
      <trkpt lat="48.56133" lon="1.88176">
        <ele>161</ele>
        <time>2022-03-27T10:52:26Z</time>
      </trkpt>
      <trkpt lat="48.56133" lon="1.88182">
        <ele>161</ele>
        <time>2022-03-27T10:52:27Z</time>
      </trkpt>
      <trkpt lat="48.56134" lon="1.88188">
        <ele>161</ele>
        <time>2022-03-27T10:52:28Z</time>
      </trkpt>
      <trkpt lat="48.56134" lon="1.88195">
        <ele>161</ele>
        <time>2022-03-27T10:52:29Z</time>
      </trkpt>
      <trkpt lat="48.56134" lon="1.88201">
        <ele>161</ele>
        <time>2022-03-27T10:52:30Z</time>
      </trkpt>
      <trkpt lat="48.56135" lon="1.88208">
        <ele>161</ele>
        <time>2022-03-27T10:52:31Z</time>
      </trkpt>
      <trkpt lat="48.56135" lon="1.88214">
        <ele>161</ele>
        <time>2022-03-27T10:52:33Z</time>
      </trkpt>
      <trkpt lat="48.56135" lon="1.88221">
        <ele>161</ele>
        <time>2022-03-27T10:52:33Z</time>
      </trkpt>
      <trkpt lat="48.56136" lon="1.88228">
        <ele>161</ele>
        <time>2022-03-27T10:52:35Z</time>
      </trkpt>
      <trkpt lat="48.56136" lon="1.88234">
        <ele>161</ele>
        <time>2022-03-27T10:52:35Z</time>
      </trkpt>
      <trkpt lat="48.56136" lon="1.88241">
        <ele>161</ele>
        <time>2022-03-27T10:52:36Z</time>
      </trkpt>
      <trkpt lat="48.56136" lon="1.88248">
        <ele>161</ele>
        <time>2022-03-27T10:52:37Z</time>
      </trkpt>
      <trkpt lat="48.56137" lon="1.88255">
        <ele>161</ele>
        <time>2022-03-27T10:52:38Z</time>
      </trkpt>
      <trkpt lat="48.56137" lon="1.88262">
        <ele>161</ele>
        <time>2022-03-27T10:52:39Z</time>
      </trkpt>
      <trkpt lat="48.56137" lon="1.88269">
        <ele>161</ele>
        <time>2022-03-27T10:52:40Z</time>
      </trkpt>
      <trkpt lat="48.56138" lon="1.88276">
        <ele>161</ele>
        <time>2022-03-27T10:52:41Z</time>
      </trkpt>
      <trkpt lat="48.56138" lon="1.88284">
        <ele>161</ele>
        <time>2022-03-27T10:52:42Z</time>
      </trkpt>
      <trkpt lat="48.56138" lon="1.88292">
        <ele>161</ele>
        <time>2022-03-27T10:52:43Z</time>
      </trkpt>
      <trkpt lat="48.56139" lon="1.88299">
        <ele>161</ele>
        <time>2022-03-27T10:52:44Z</time>
      </trkpt>
      <trkpt lat="48.56139" lon="1.88307">
        <ele>161</ele>
        <time>2022-03-27T10:52:45Z</time>
      </trkpt>
      <trkpt lat="48.56139" lon="1.88314">
        <ele>161</ele>
        <time>2022-03-27T10:52:46Z</time>
      </trkpt>
      <trkpt lat="48.5614" lon="1.88322">
        <ele>161</ele>
        <time>2022-03-27T10:52:47Z</time>
      </trkpt>
      <trkpt lat="48.5614" lon="1.88329">
        <ele>161</ele>
        <time>2022-03-27T10:52:48Z</time>
      </trkpt>
      <trkpt lat="48.56141" lon="1.88336">
        <ele>161</ele>
        <time>2022-03-27T10:52:49Z</time>
      </trkpt>
      <trkpt lat="48.56141" lon="1.88343">
        <ele>161</ele>
        <time>2022-03-27T10:52:50Z</time>
      </trkpt>
      <trkpt lat="48.56141" lon="1.8835">
        <ele>161</ele>
        <time>2022-03-27T10:52:51Z</time>
      </trkpt>
      <trkpt lat="48.56141" lon="1.88357">
        <ele>161</ele>
        <time>2022-03-27T10:52:52Z</time>
      </trkpt>
      <trkpt lat="48.56141" lon="1.88364">
        <ele>161</ele>
        <time>2022-03-27T10:52:53Z</time>
      </trkpt>
      <trkpt lat="48.56142" lon="1.88371">
        <ele>161</ele>
        <time>2022-03-27T10:52:54Z</time>
      </trkpt>
      <trkpt lat="48.56142" lon="1.88378">
        <ele>161</ele>
        <time>2022-03-27T10:52:55Z</time>
      </trkpt>
      <trkpt lat="48.56142" lon="1.88385">
        <ele>161</ele>
        <time>2022-03-27T10:52:56Z</time>
      </trkpt>
      <trkpt lat="48.56143" lon="1.88392">
        <ele>161</ele>
        <time>2022-03-27T10:52:57Z</time>
      </trkpt>
      <trkpt lat="48.56143" lon="1.884">
        <ele>161</ele>
        <time>2022-03-27T10:52:58Z</time>
      </trkpt>
      <trkpt lat="48.56144" lon="1.88407">
        <ele>161</ele>
        <time>2022-03-27T10:52:59Z</time>
      </trkpt>
      <trkpt lat="48.56144" lon="1.88414">
        <ele>161</ele>
        <time>2022-03-27T10:53:00Z</time>
      </trkpt>
      <trkpt lat="48.56145" lon="1.88421">
        <ele>161</ele>
        <time>2022-03-27T10:53:01Z</time>
      </trkpt>
      <trkpt lat="48.56145" lon="1.88428">
        <ele>161</ele>
        <time>2022-03-27T10:53:02Z</time>
      </trkpt>
      <trkpt lat="48.56145" lon="1.88436">
        <ele>161</ele>
        <time>2022-03-27T10:53:03Z</time>
      </trkpt>
      <trkpt lat="48.56145" lon="1.88443">
        <ele>161</ele>
        <time>2022-03-27T10:53:04Z</time>
      </trkpt>
      <trkpt lat="48.56145" lon="1.8845">
        <ele>161</ele>
        <time>2022-03-27T10:53:06Z</time>
      </trkpt>
      <trkpt lat="48.56145" lon="1.88457">
        <ele>161</ele>
        <time>2022-03-27T10:53:06Z</time>
      </trkpt>
      <trkpt lat="48.56146" lon="1.88465">
        <ele>161</ele>
        <time>2022-03-27T10:53:07Z</time>
      </trkpt>
      <trkpt lat="48.56146" lon="1.88472">
        <ele>161</ele>
        <time>2022-03-27T10:53:08Z</time>
      </trkpt>
      <trkpt lat="48.56146" lon="1.8848">
        <ele>161</ele>
        <time>2022-03-27T10:53:09Z</time>
      </trkpt>
      <trkpt lat="48.56146" lon="1.88487">
        <ele>162</ele>
        <time>2022-03-27T10:53:10Z</time>
      </trkpt>
      <trkpt lat="48.56146" lon="1.88495">
        <ele>162</ele>
        <time>2022-03-27T10:53:11Z</time>
      </trkpt>
      <trkpt lat="48.56146" lon="1.88502">
        <ele>162</ele>
        <time>2022-03-27T10:53:12Z</time>
      </trkpt>
      <trkpt lat="48.56146" lon="1.88509">
        <ele>162</ele>
        <time>2022-03-27T10:53:13Z</time>
      </trkpt>
      <trkpt lat="48.56147" lon="1.88516">
        <ele>162</ele>
        <time>2022-03-27T10:53:14Z</time>
      </trkpt>
      <trkpt lat="48.56147" lon="1.88523">
        <ele>162</ele>
        <time>2022-03-27T10:53:15Z</time>
      </trkpt>
      <trkpt lat="48.56147" lon="1.8853">
        <ele>162</ele>
        <time>2022-03-27T10:53:16Z</time>
      </trkpt>
      <trkpt lat="48.56148" lon="1.88537">
        <ele>162</ele>
        <time>2022-03-27T10:53:17Z</time>
      </trkpt>
      <trkpt lat="48.56149" lon="1.88543">
        <ele>162</ele>
        <time>2022-03-27T10:53:18Z</time>
      </trkpt>
      <trkpt lat="48.5615" lon="1.8855">
        <ele>162</ele>
        <time>2022-03-27T10:53:19Z</time>
      </trkpt>
      <trkpt lat="48.56151" lon="1.88557">
        <ele>162</ele>
        <time>2022-03-27T10:53:20Z</time>
      </trkpt>
      <trkpt lat="48.56153" lon="1.88564">
        <ele>162</ele>
        <time>2022-03-27T10:53:21Z</time>
      </trkpt>
      <trkpt lat="48.56154" lon="1.88571">
        <ele>162</ele>
        <time>2022-03-27T10:53:22Z</time>
      </trkpt>
      <trkpt lat="48.56155" lon="1.88578">
        <ele>162</ele>
        <time>2022-03-27T10:53:23Z</time>
      </trkpt>
      <trkpt lat="48.56157" lon="1.88585">
        <ele>162</ele>
        <time>2022-03-27T10:53:24Z</time>
      </trkpt>
      <trkpt lat="48.56158" lon="1.88592">
        <ele>162</ele>
        <time>2022-03-27T10:53:25Z</time>
      </trkpt>
      <trkpt lat="48.56159" lon="1.88599">
        <ele>162</ele>
        <time>2022-03-27T10:53:27Z</time>
      </trkpt>
      <trkpt lat="48.56161" lon="1.88607">
        <ele>162</ele>
        <time>2022-03-27T10:53:27Z</time>
      </trkpt>
      <trkpt lat="48.56162" lon="1.88614">
        <ele>162</ele>
        <time>2022-03-27T10:53:28Z</time>
      </trkpt>
      <trkpt lat="48.56163" lon="1.88621">
        <ele>162</ele>
        <time>2022-03-27T10:53:29Z</time>
      </trkpt>
      <trkpt lat="48.56164" lon="1.88628">
        <ele>162</ele>
        <time>2022-03-27T10:53:30Z</time>
      </trkpt>
      <trkpt lat="48.56165" lon="1.88635">
        <ele>162</ele>
        <time>2022-03-27T10:53:31Z</time>
      </trkpt>
      <trkpt lat="48.56166" lon="1.88642">
        <ele>162</ele>
        <time>2022-03-27T10:53:32Z</time>
      </trkpt>
      <trkpt lat="48.56168" lon="1.8865">
        <ele>162</ele>
        <time>2022-03-27T10:53:33Z</time>
      </trkpt>
      <trkpt lat="48.56169" lon="1.88657">
        <ele>162</ele>
        <time>2022-03-27T10:53:34Z</time>
      </trkpt>
      <trkpt lat="48.5617" lon="1.88664">
        <ele>162</ele>
        <time>2022-03-27T10:53:35Z</time>
      </trkpt>
      <trkpt lat="48.56172" lon="1.88672">
        <ele>162</ele>
        <time>2022-03-27T10:53:36Z</time>
      </trkpt>
      <trkpt lat="48.56173" lon="1.88679">
        <ele>162</ele>
        <time>2022-03-27T10:53:37Z</time>
      </trkpt>
      <trkpt lat="48.56174" lon="1.88687">
        <ele>162</ele>
        <time>2022-03-27T10:53:38Z</time>
      </trkpt>
      <trkpt lat="48.56175" lon="1.88695">
        <ele>162</ele>
        <time>2022-03-27T10:53:39Z</time>
      </trkpt>
      <trkpt lat="48.56177" lon="1.88702">
        <ele>162</ele>
        <time>2022-03-27T10:53:40Z</time>
      </trkpt>
      <trkpt lat="48.56178" lon="1.88709">
        <ele>162</ele>
        <time>2022-03-27T10:53:41Z</time>
      </trkpt>
      <trkpt lat="48.5618" lon="1.88716">
        <ele>162</ele>
        <time>2022-03-27T10:53:42Z</time>
      </trkpt>
      <trkpt lat="48.56181" lon="1.88724">
        <ele>162</ele>
        <time>2022-03-27T10:53:43Z</time>
      </trkpt>
      <trkpt lat="48.56183" lon="1.88731">
        <ele>162</ele>
        <time>2022-03-27T10:53:44Z</time>
      </trkpt>
      <trkpt lat="48.56184" lon="1.88738">
        <ele>162</ele>
        <time>2022-03-27T10:53:45Z</time>
      </trkpt>
      <trkpt lat="48.56185" lon="1.88745">
        <ele>162</ele>
        <time>2022-03-27T10:53:47Z</time>
      </trkpt>
      <trkpt lat="48.56186" lon="1.88753">
        <ele>162</ele>
        <time>2022-03-27T10:53:47Z</time>
      </trkpt>
      <trkpt lat="48.56187" lon="1.8876">
        <ele>162</ele>
        <time>2022-03-27T10:53:48Z</time>
      </trkpt>
      <trkpt lat="48.56189" lon="1.88767">
        <ele>162</ele>
        <time>2022-03-27T10:53:49Z</time>
      </trkpt>
      <trkpt lat="48.5619" lon="1.88775">
        <ele>162</ele>
        <time>2022-03-27T10:53:50Z</time>
      </trkpt>
      <trkpt lat="48.56191" lon="1.88782">
        <ele>162</ele>
        <time>2022-03-27T10:53:51Z</time>
      </trkpt>
      <trkpt lat="48.56192" lon="1.88789">
        <ele>162</ele>
        <time>2022-03-27T10:53:52Z</time>
      </trkpt>
      <trkpt lat="48.56194" lon="1.88797">
        <ele>162</ele>
        <time>2022-03-27T10:53:53Z</time>
      </trkpt>
      <trkpt lat="48.56195" lon="1.88804">
        <ele>162</ele>
        <time>2022-03-27T10:53:54Z</time>
      </trkpt>
      <trkpt lat="48.56196" lon="1.88812">
        <ele>162</ele>
        <time>2022-03-27T10:53:55Z</time>
      </trkpt>
      <trkpt lat="48.56198" lon="1.88819">
        <ele>162</ele>
        <time>2022-03-27T10:53:56Z</time>
      </trkpt>
      <trkpt lat="48.56199" lon="1.88826">
        <ele>162</ele>
        <time>2022-03-27T10:53:57Z</time>
      </trkpt>
      <trkpt lat="48.56201" lon="1.88833">
        <ele>162</ele>
        <time>2022-03-27T10:53:58Z</time>
      </trkpt>
      <trkpt lat="48.56202" lon="1.88841">
        <ele>162</ele>
        <time>2022-03-27T10:53:59Z</time>
      </trkpt>
      <trkpt lat="48.56203" lon="1.88848">
        <ele>162</ele>
        <time>2022-03-27T10:54:00Z</time>
      </trkpt>
      <trkpt lat="48.56204" lon="1.88855">
        <ele>162</ele>
        <time>2022-03-27T10:54:01Z</time>
      </trkpt>
      <trkpt lat="48.56206" lon="1.88862">
        <ele>162</ele>
        <time>2022-03-27T10:54:02Z</time>
      </trkpt>
      <trkpt lat="48.56207" lon="1.88869">
        <ele>162</ele>
        <time>2022-03-27T10:54:03Z</time>
      </trkpt>
      <trkpt lat="48.56208" lon="1.88876">
        <ele>162</ele>
        <time>2022-03-27T10:54:04Z</time>
      </trkpt>
      <trkpt lat="48.56209" lon="1.88882">
        <ele>162</ele>
        <time>2022-03-27T10:54:05Z</time>
      </trkpt>
      <trkpt lat="48.5621" lon="1.88889">
        <ele>162</ele>
        <time>2022-03-27T10:54:07Z</time>
      </trkpt>
      <trkpt lat="48.56212" lon="1.88896">
        <ele>162</ele>
        <time>2022-03-27T10:54:07Z</time>
      </trkpt>
      <trkpt lat="48.56213" lon="1.88902">
        <ele>162</ele>
        <time>2022-03-27T10:54:08Z</time>
      </trkpt>
      <trkpt lat="48.56214" lon="1.88909">
        <ele>162</ele>
        <time>2022-03-27T10:54:09Z</time>
      </trkpt>
      <trkpt lat="48.56215" lon="1.88916">
        <ele>162</ele>
        <time>2022-03-27T10:54:10Z</time>
      </trkpt>
      <trkpt lat="48.56216" lon="1.88922">
        <ele>162</ele>
        <time>2022-03-27T10:54:11Z</time>
      </trkpt>
      <trkpt lat="48.56218" lon="1.88929">
        <ele>162</ele>
        <time>2022-03-27T10:54:12Z</time>
      </trkpt>
      <trkpt lat="48.56219" lon="1.88936">
        <ele>162</ele>
        <time>2022-03-27T10:54:13Z</time>
      </trkpt>
      <trkpt lat="48.5622" lon="1.88942">
        <ele>162</ele>
        <time>2022-03-27T10:54:14Z</time>
      </trkpt>
      <trkpt lat="48.56221" lon="1.88949">
        <ele>162</ele>
        <time>2022-03-27T10:54:15Z</time>
      </trkpt>
      <trkpt lat="48.56222" lon="1.88956">
        <ele>162</ele>
        <time>2022-03-27T10:54:16Z</time>
      </trkpt>
      <trkpt lat="48.56224" lon="1.88964">
        <ele>162</ele>
        <time>2022-03-27T10:54:17Z</time>
      </trkpt>
      <trkpt lat="48.56225" lon="1.88971">
        <ele>162</ele>
        <time>2022-03-27T10:54:18Z</time>
      </trkpt>
      <trkpt lat="48.56226" lon="1.88978">
        <ele>162</ele>
        <time>2022-03-27T10:54:19Z</time>
      </trkpt>
      <trkpt lat="48.56228" lon="1.88985">
        <ele>162</ele>
        <time>2022-03-27T10:54:20Z</time>
      </trkpt>
      <trkpt lat="48.56229" lon="1.88993">
        <ele>162</ele>
        <time>2022-03-27T10:54:21Z</time>
      </trkpt>
      <trkpt lat="48.5623" lon="1.89">
        <ele>162</ele>
        <time>2022-03-27T10:54:22Z</time>
      </trkpt>
      <trkpt lat="48.56232" lon="1.89007">
        <ele>162</ele>
        <time>2022-03-27T10:54:23Z</time>
      </trkpt>
      <trkpt lat="48.56233" lon="1.89015">
        <ele>162</ele>
        <time>2022-03-27T10:54:24Z</time>
      </trkpt>
      <trkpt lat="48.56234" lon="1.89022">
        <ele>162</ele>
        <time>2022-03-27T10:54:25Z</time>
      </trkpt>
      <trkpt lat="48.56236" lon="1.89029">
        <ele>162</ele>
        <time>2022-03-27T10:54:27Z</time>
      </trkpt>
      <trkpt lat="48.56237" lon="1.89036">
        <ele>162</ele>
        <time>2022-03-27T10:54:28Z</time>
      </trkpt>
      <trkpt lat="48.56238" lon="1.89043">
        <ele>162</ele>
        <time>2022-03-27T10:54:28Z</time>
      </trkpt>
      <trkpt lat="48.5624" lon="1.8905">
        <ele>162</ele>
        <time>2022-03-27T10:54:29Z</time>
      </trkpt>
      <trkpt lat="48.56241" lon="1.89057">
        <ele>162</ele>
        <time>2022-03-27T10:54:30Z</time>
      </trkpt>
      <trkpt lat="48.56242" lon="1.89065">
        <ele>162</ele>
        <time>2022-03-27T10:54:31Z</time>
      </trkpt>
      <trkpt lat="48.56243" lon="1.89072">
        <ele>162</ele>
        <time>2022-03-27T10:54:32Z</time>
      </trkpt>
      <trkpt lat="48.56244" lon="1.89079">
        <ele>162</ele>
        <time>2022-03-27T10:54:33Z</time>
      </trkpt>
      <trkpt lat="48.56245" lon="1.89086">
        <ele>162</ele>
        <time>2022-03-27T10:54:34Z</time>
      </trkpt>
      <trkpt lat="48.56247" lon="1.89093">
        <ele>162</ele>
        <time>2022-03-27T10:54:35Z</time>
      </trkpt>
      <trkpt lat="48.56248" lon="1.891">
        <ele>162</ele>
        <time>2022-03-27T10:54:36Z</time>
      </trkpt>
      <trkpt lat="48.56249" lon="1.89107">
        <ele>162</ele>
        <time>2022-03-27T10:54:37Z</time>
      </trkpt>
      <trkpt lat="48.56251" lon="1.89113">
        <ele>161</ele>
        <time>2022-03-27T10:54:38Z</time>
      </trkpt>
      <trkpt lat="48.56252" lon="1.8912">
        <ele>161</ele>
        <time>2022-03-27T10:54:39Z</time>
      </trkpt>
      <trkpt lat="48.56253" lon="1.89127">
        <ele>161</ele>
        <time>2022-03-27T10:54:40Z</time>
      </trkpt>
      <trkpt lat="48.56254" lon="1.89134">
        <ele>161</ele>
        <time>2022-03-27T10:54:41Z</time>
      </trkpt>
      <trkpt lat="48.56255" lon="1.89141">
        <ele>161</ele>
        <time>2022-03-27T10:54:42Z</time>
      </trkpt>
      <trkpt lat="48.56256" lon="1.89148">
        <ele>161</ele>
        <time>2022-03-27T10:54:43Z</time>
      </trkpt>
      <trkpt lat="48.56258" lon="1.89155">
        <ele>161</ele>
        <time>2022-03-27T10:54:44Z</time>
      </trkpt>
      <trkpt lat="48.56259" lon="1.89162">
        <ele>161</ele>
        <time>2022-03-27T10:54:46Z</time>
      </trkpt>
      <trkpt lat="48.5626" lon="1.8917">
        <ele>161</ele>
        <time>2022-03-27T10:54:46Z</time>
      </trkpt>
      <trkpt lat="48.56261" lon="1.89177">
        <ele>161</ele>
        <time>2022-03-27T10:54:47Z</time>
      </trkpt>
      <trkpt lat="48.56263" lon="1.89184">
        <ele>161</ele>
        <time>2022-03-27T10:54:49Z</time>
      </trkpt>
      <trkpt lat="48.56264" lon="1.89192">
        <ele>161</ele>
        <time>2022-03-27T10:54:49Z</time>
      </trkpt>
      <trkpt lat="48.56265" lon="1.89199">
        <ele>161</ele>
        <time>2022-03-27T10:54:50Z</time>
      </trkpt>
      <trkpt lat="48.56267" lon="1.89207">
        <ele>161</ele>
        <time>2022-03-27T10:54:51Z</time>
      </trkpt>
      <trkpt lat="48.56268" lon="1.89214">
        <ele>161</ele>
        <time>2022-03-27T10:54:52Z</time>
      </trkpt>
      <trkpt lat="48.5627" lon="1.89221">
        <ele>161</ele>
        <time>2022-03-27T10:54:53Z</time>
      </trkpt>
      <trkpt lat="48.56271" lon="1.89229">
        <ele>161</ele>
        <time>2022-03-27T10:54:54Z</time>
      </trkpt>
      <trkpt lat="48.56272" lon="1.89236">
        <ele>161</ele>
        <time>2022-03-27T10:54:55Z</time>
      </trkpt>
      <trkpt lat="48.56273" lon="1.89244">
        <ele>161</ele>
        <time>2022-03-27T10:54:56Z</time>
      </trkpt>
      <trkpt lat="48.56275" lon="1.89251">
        <ele>161</ele>
        <time>2022-03-27T10:54:57Z</time>
      </trkpt>
      <trkpt lat="48.56276" lon="1.89258">
        <ele>161</ele>
        <time>2022-03-27T10:54:58Z</time>
      </trkpt>
      <trkpt lat="48.56277" lon="1.89266">
        <ele>161</ele>
        <time>2022-03-27T10:54:59Z</time>
      </trkpt>
      <trkpt lat="48.56278" lon="1.89273">
        <ele>161</ele>
        <time>2022-03-27T10:55:00Z</time>
      </trkpt>
      <trkpt lat="48.5628" lon="1.8928">
        <ele>161</ele>
        <time>2022-03-27T10:55:01Z</time>
      </trkpt>
      <trkpt lat="48.56281" lon="1.89287">
        <ele>161</ele>
        <time>2022-03-27T10:55:02Z</time>
      </trkpt>
      <trkpt lat="48.56282" lon="1.89294">
        <ele>161</ele>
        <time>2022-03-27T10:55:03Z</time>
      </trkpt>
      <trkpt lat="48.56283" lon="1.89301">
        <ele>161</ele>
        <time>2022-03-27T10:55:05Z</time>
      </trkpt>
      <trkpt lat="48.56285" lon="1.89308">
        <ele>161</ele>
        <time>2022-03-27T10:55:05Z</time>
      </trkpt>
      <trkpt lat="48.56286" lon="1.89315">
        <ele>161</ele>
        <time>2022-03-27T10:55:06Z</time>
      </trkpt>
      <trkpt lat="48.56287" lon="1.89323">
        <ele>160</ele>
        <time>2022-03-27T10:55:07Z</time>
      </trkpt>
      <trkpt lat="48.56289" lon="1.89331">
        <ele>160</ele>
        <time>2022-03-27T10:55:08Z</time>
      </trkpt>
      <trkpt lat="48.5629" lon="1.89338">
        <ele>160</ele>
        <time>2022-03-27T10:55:09Z</time>
      </trkpt>
      <trkpt lat="48.56291" lon="1.89346">
        <ele>160</ele>
        <time>2022-03-27T10:55:10Z</time>
      </trkpt>
      <trkpt lat="48.56293" lon="1.89353">
        <ele>160</ele>
        <time>2022-03-27T10:55:11Z</time>
      </trkpt>
      <trkpt lat="48.56294" lon="1.8936">
        <ele>160</ele>
        <time>2022-03-27T10:55:12Z</time>
      </trkpt>
      <trkpt lat="48.56295" lon="1.89367">
        <ele>160</ele>
        <time>2022-03-27T10:55:13Z</time>
      </trkpt>
      <trkpt lat="48.56296" lon="1.89374">
        <ele>160</ele>
        <time>2022-03-27T10:55:14Z</time>
      </trkpt>
      <trkpt lat="48.56297" lon="1.89381">
        <ele>160</ele>
        <time>2022-03-27T10:55:15Z</time>
      </trkpt>
      <trkpt lat="48.56299" lon="1.89387">
        <ele>160</ele>
        <time>2022-03-27T10:55:16Z</time>
      </trkpt>
      <trkpt lat="48.563" lon="1.89394">
        <ele>160</ele>
        <time>2022-03-27T10:55:17Z</time>
      </trkpt>
      <trkpt lat="48.56301" lon="1.894">
        <ele>160</ele>
        <time>2022-03-27T10:55:19Z</time>
      </trkpt>
      <trkpt lat="48.56302" lon="1.89407">
        <ele>160</ele>
        <time>2022-03-27T10:55:19Z</time>
      </trkpt>
      <trkpt lat="48.56303" lon="1.89413">
        <ele>159</ele>
        <time>2022-03-27T10:55:20Z</time>
      </trkpt>
      <trkpt lat="48.56304" lon="1.89419">
        <ele>159</ele>
        <time>2022-03-27T10:55:21Z</time>
      </trkpt>
      <trkpt lat="48.56305" lon="1.89424">
        <ele>159</ele>
        <time>2022-03-27T10:55:22Z</time>
      </trkpt>
      <trkpt lat="48.56306" lon="1.8943">
        <ele>159</ele>
        <time>2022-03-27T10:55:23Z</time>
      </trkpt>
      <trkpt lat="48.56307" lon="1.89436">
        <ele>159</ele>
        <time>2022-03-27T10:55:24Z</time>
      </trkpt>
      <trkpt lat="48.56308" lon="1.89442">
        <ele>159</ele>
        <time>2022-03-27T10:55:25Z</time>
      </trkpt>
      <trkpt lat="48.56309" lon="1.89447">
        <ele>159</ele>
        <time>2022-03-27T10:55:26Z</time>
      </trkpt>
      <trkpt lat="48.5631" lon="1.89452">
        <ele>159</ele>
        <time>2022-03-27T10:55:27Z</time>
      </trkpt>
      <trkpt lat="48.5631" lon="1.89458">
        <ele>159</ele>
        <time>2022-03-27T10:55:28Z</time>
      </trkpt>
      <trkpt lat="48.56311" lon="1.89463">
        <ele>159</ele>
        <time>2022-03-27T10:55:29Z</time>
      </trkpt>
      <trkpt lat="48.56312" lon="1.89468">
        <ele>159</ele>
        <time>2022-03-27T10:55:30Z</time>
      </trkpt>
      <trkpt lat="48.56313" lon="1.89473">
        <ele>159</ele>
        <time>2022-03-27T10:55:32Z</time>
      </trkpt>
      <trkpt lat="48.56314" lon="1.89478">
        <ele>159</ele>
        <time>2022-03-27T10:55:32Z</time>
      </trkpt>
      <trkpt lat="48.56315" lon="1.89483">
        <ele>159</ele>
        <time>2022-03-27T10:55:33Z</time>
      </trkpt>
      <trkpt lat="48.56316" lon="1.89488">
        <ele>159</ele>
        <time>2022-03-27T10:55:34Z</time>
      </trkpt>
      <trkpt lat="48.56317" lon="1.89493">
        <ele>159</ele>
        <time>2022-03-27T10:55:35Z</time>
      </trkpt>
      <trkpt lat="48.56317" lon="1.89498">
        <ele>159</ele>
        <time>2022-03-27T10:55:36Z</time>
      </trkpt>
      <trkpt lat="48.56318" lon="1.89503">
        <ele>159</ele>
        <time>2022-03-27T10:55:37Z</time>
      </trkpt>
      <trkpt lat="48.5632" lon="1.89508">
        <ele>159</ele>
        <time>2022-03-27T10:55:38Z</time>
      </trkpt>
      <trkpt lat="48.5632" lon="1.89513">
        <ele>159</ele>
        <time>2022-03-27T10:55:39Z</time>
      </trkpt>
      <trkpt lat="48.56321" lon="1.89517">
        <ele>159</ele>
        <time>2022-03-27T10:55:40Z</time>
      </trkpt>
      <trkpt lat="48.56322" lon="1.89521">
        <ele>158</ele>
        <time>2022-03-27T10:55:42Z</time>
      </trkpt>
      <trkpt lat="48.56323" lon="1.89526">
        <ele>158</ele>
        <time>2022-03-27T10:55:44Z</time>
      </trkpt>
      <trkpt lat="48.56324" lon="1.8953">
        <ele>159</ele>
        <time>2022-03-27T10:55:46Z</time>
      </trkpt>
      <trkpt lat="48.56325" lon="1.89535">
        <ele>158</ele>
        <time>2022-03-27T10:55:48Z</time>
      </trkpt>
      <trkpt lat="48.56326" lon="1.89539">
        <ele>158</ele>
        <time>2022-03-27T10:55:50Z</time>
      </trkpt>
      <trkpt lat="48.56327" lon="1.89544">
        <ele>158</ele>
        <time>2022-03-27T10:55:52Z</time>
      </trkpt>
      <trkpt lat="48.56327" lon="1.89548">
        <ele>158</ele>
        <time>2022-03-27T10:55:54Z</time>
      </trkpt>
      <trkpt lat="48.56328" lon="1.89552">
        <ele>158</ele>
        <time>2022-03-27T10:55:56Z</time>
      </trkpt>
      <trkpt lat="48.56328" lon="1.89556">
        <ele>158</ele>
        <time>2022-03-27T10:55:58Z</time>
      </trkpt>
      <trkpt lat="48.56328" lon="1.8956">
        <ele>158</ele>
        <time>2022-03-27T10:56:00Z</time>
      </trkpt>
      <trkpt lat="48.56329" lon="1.89563">
        <ele>158</ele>
        <time>2022-03-27T10:56:02Z</time>
      </trkpt>
      <trkpt lat="48.56329" lon="1.89566">
        <ele>158</ele>
        <time>2022-03-27T10:56:04Z</time>
      </trkpt>
      <trkpt lat="48.5633" lon="1.89569">
        <ele>158</ele>
        <time>2022-03-27T10:56:06Z</time>
      </trkpt>
      <trkpt lat="48.56331" lon="1.89573">
        <ele>158</ele>
        <time>2022-03-27T10:56:08Z</time>
      </trkpt>
      <trkpt lat="48.56332" lon="1.89577">
        <ele>158</ele>
        <time>2022-03-27T10:56:10Z</time>
      </trkpt>
      <trkpt lat="48.56333" lon="1.8958">
        <ele>157</ele>
        <time>2022-03-27T10:56:12Z</time>
      </trkpt>
      <trkpt lat="48.56334" lon="1.89584">
        <ele>157</ele>
        <time>2022-03-27T10:56:14Z</time>
      </trkpt>
      <trkpt lat="48.56335" lon="1.89587">
        <ele>157</ele>
        <time>2022-03-27T10:56:16Z</time>
      </trkpt>
      <trkpt lat="48.56336" lon="1.8959">
        <ele>157</ele>
        <time>2022-03-27T10:56:18Z</time>
      </trkpt>
      <trkpt lat="48.56337" lon="1.89594">
        <ele>157</ele>
        <time>2022-03-27T10:56:21Z</time>
      </trkpt>
      <trkpt lat="48.56338" lon="1.89597">
        <ele>157</ele>
        <time>2022-03-27T10:56:23Z</time>
      </trkpt>
      <trkpt lat="48.56339" lon="1.89601">
        <ele>156</ele>
        <time>2022-03-27T10:56:25Z</time>
      </trkpt>
      <trkpt lat="48.5634" lon="1.89605">
        <ele>156</ele>
        <time>2022-03-27T10:56:27Z</time>
      </trkpt>
      <trkpt lat="48.56341" lon="1.89609">
        <ele>156</ele>
        <time>2022-03-27T10:56:29Z</time>
      </trkpt>
      <trkpt lat="48.56342" lon="1.89613">
        <ele>156</ele>
        <time>2022-03-27T10:56:31Z</time>
      </trkpt>
      <trkpt lat="48.56343" lon="1.89617">
        <ele>156</ele>
        <time>2022-03-27T10:56:33Z</time>
      </trkpt>
      <trkpt lat="48.56345" lon="1.89622">
        <ele>156</ele>
        <time>2022-03-27T10:56:35Z</time>
      </trkpt>
      <trkpt lat="48.56346" lon="1.89626">
        <ele>157</ele>
        <time>2022-03-27T10:56:37Z</time>
      </trkpt>
      <trkpt lat="48.56346" lon="1.89629">
        <ele>157</ele>
        <time>2022-03-27T10:56:40Z</time>
      </trkpt>
      <trkpt lat="48.56348" lon="1.89634">
        <ele>157</ele>
        <time>2022-03-27T10:56:41Z</time>
      </trkpt>
      <trkpt lat="48.56349" lon="1.89638">
        <ele>157</ele>
        <time>2022-03-27T10:56:43Z</time>
      </trkpt>
      <trkpt lat="48.5635" lon="1.89643">
        <ele>157</ele>
        <time>2022-03-27T10:56:45Z</time>
      </trkpt>
      <trkpt lat="48.5635" lon="1.89646">
        <ele>157</ele>
        <time>2022-03-27T10:56:47Z</time>
      </trkpt>
      <trkpt lat="48.56351" lon="1.8965">
        <ele>158</ele>
        <time>2022-03-27T10:56:49Z</time>
      </trkpt>
      <trkpt lat="48.56352" lon="1.89654">
        <ele>158</ele>
        <time>2022-03-27T10:56:51Z</time>
      </trkpt>
      <trkpt lat="48.56353" lon="1.89658">
        <ele>158</ele>
        <time>2022-03-27T10:56:53Z</time>
      </trkpt>
      <trkpt lat="48.56354" lon="1.89663">
        <ele>158</ele>
        <time>2022-03-27T10:56:55Z</time>
      </trkpt>
      <trkpt lat="48.56355" lon="1.89668">
        <ele>158</ele>
        <time>2022-03-27T10:56:57Z</time>
      </trkpt>
      <trkpt lat="48.56357" lon="1.89672">
        <ele>158</ele>
        <time>2022-03-27T10:56:59Z</time>
      </trkpt>
      <trkpt lat="48.56358" lon="1.89677">
        <ele>158</ele>
        <time>2022-03-27T10:57:01Z</time>
      </trkpt>
      <trkpt lat="48.56359" lon="1.89682">
        <ele>158</ele>
        <time>2022-03-27T10:57:03Z</time>
      </trkpt>
      <trkpt lat="48.5636" lon="1.89687">
        <ele>158</ele>
        <time>2022-03-27T10:57:05Z</time>
      </trkpt>
      <trkpt lat="48.56361" lon="1.89692">
        <ele>158</ele>
        <time>2022-03-27T10:57:07Z</time>
      </trkpt>
      <trkpt lat="48.56362" lon="1.89696">
        <ele>159</ele>
        <time>2022-03-27T10:57:09Z</time>
      </trkpt>
      <trkpt lat="48.56364" lon="1.897">
        <ele>159</ele>
        <time>2022-03-27T10:57:11Z</time>
      </trkpt>
      <trkpt lat="48.56365" lon="1.89705">
        <ele>159</ele>
        <time>2022-03-27T10:57:13Z</time>
      </trkpt>
      <trkpt lat="48.56366" lon="1.8971">
        <ele>159</ele>
        <time>2022-03-27T10:57:15Z</time>
      </trkpt>
      <trkpt lat="48.56366" lon="1.89715">
        <ele>159</ele>
        <time>2022-03-27T10:57:17Z</time>
      </trkpt>
      <trkpt lat="48.56367" lon="1.8972">
        <ele>159</ele>
        <time>2022-03-27T10:57:19Z</time>
      </trkpt>
      <trkpt lat="48.56368" lon="1.89724">
        <ele>159</ele>
        <time>2022-03-27T10:57:21Z</time>
      </trkpt>
      <trkpt lat="48.56369" lon="1.89728">
        <ele>159</ele>
        <time>2022-03-27T10:57:23Z</time>
      </trkpt>
      <trkpt lat="48.5637" lon="1.89733">
        <ele>159</ele>
        <time>2022-03-27T10:57:25Z</time>
      </trkpt>
      <trkpt lat="48.5637" lon="1.89737">
        <ele>159</ele>
        <time>2022-03-27T10:57:27Z</time>
      </trkpt>
      <trkpt lat="48.5637" lon="1.89742">
        <ele>159</ele>
        <time>2022-03-27T10:57:29Z</time>
      </trkpt>
      <trkpt lat="48.56371" lon="1.89747">
        <ele>159</ele>
        <time>2022-03-27T10:57:31Z</time>
      </trkpt>
      <trkpt lat="48.56372" lon="1.8975">
        <ele>159</ele>
        <time>2022-03-27T10:57:32Z</time>
      </trkpt>
      <trkpt lat="48.56373" lon="1.89752">
        <ele>159</ele>
        <time>2022-03-27T10:57:34Z</time>
      </trkpt>
      <trkpt lat="48.56373" lon="1.89757">
        <ele>159</ele>
        <time>2022-03-27T10:57:35Z</time>
      </trkpt>
      <trkpt lat="48.56373" lon="1.89762">
        <ele>159</ele>
        <time>2022-03-27T10:57:37Z</time>
      </trkpt>
      <trkpt lat="48.56374" lon="1.89767">
        <ele>159</ele>
        <time>2022-03-27T10:57:39Z</time>
      </trkpt>
      <trkpt lat="48.56375" lon="1.89771">
        <ele>159</ele>
        <time>2022-03-27T10:57:41Z</time>
      </trkpt>
      <trkpt lat="48.56376" lon="1.89781">
        <ele>159</ele>
        <time>2022-03-27T10:57:45Z</time>
      </trkpt>
      <trkpt lat="48.56377" lon="1.89786">
        <ele>159</ele>
        <time>2022-03-27T10:57:47Z</time>
      </trkpt>
      <trkpt lat="48.56378" lon="1.89788">
        <ele>159</ele>
        <time>2022-03-27T10:57:48Z</time>
      </trkpt>
      <trkpt lat="48.56378" lon="1.89793">
        <ele>159</ele>
        <time>2022-03-27T10:57:50Z</time>
      </trkpt>
      <trkpt lat="48.56378" lon="1.89797">
        <ele>159</ele>
        <time>2022-03-27T10:57:52Z</time>
      </trkpt>
      <trkpt lat="48.5638" lon="1.89804">
        <ele>159</ele>
        <time>2022-03-27T10:57:56Z</time>
      </trkpt>
      <trkpt lat="48.56381" lon="1.89809">
        <ele>159</ele>
        <time>2022-03-27T10:57:57Z</time>
      </trkpt>
      <trkpt lat="48.56381" lon="1.89813">
        <ele>159</ele>
        <time>2022-03-27T10:57:59Z</time>
      </trkpt>
      <trkpt lat="48.56382" lon="1.89818">
        <ele>159</ele>
        <time>2022-03-27T10:58:01Z</time>
      </trkpt>
      <trkpt lat="48.56383" lon="1.89822">
        <ele>159</ele>
        <time>2022-03-27T10:58:03Z</time>
      </trkpt>
      <trkpt lat="48.56384" lon="1.89826">
        <ele>159</ele>
        <time>2022-03-27T10:58:05Z</time>
      </trkpt>
      <trkpt lat="48.56385" lon="1.89829">
        <ele>159</ele>
        <time>2022-03-27T10:58:06Z</time>
      </trkpt>
      <trkpt lat="48.56386" lon="1.89833">
        <ele>160</ele>
        <time>2022-03-27T10:58:08Z</time>
      </trkpt>
      <trkpt lat="48.56388" lon="1.89837">
        <ele>160</ele>
        <time>2022-03-27T10:58:10Z</time>
      </trkpt>
      <trkpt lat="48.56388" lon="1.89839">
        <ele>160</ele>
        <time>2022-03-27T10:58:11Z</time>
      </trkpt>
      <trkpt lat="48.56389" lon="1.89842">
        <ele>160</ele>
        <time>2022-03-27T10:58:12Z</time>
      </trkpt>
      <trkpt lat="48.5639" lon="1.89845">
        <ele>160</ele>
        <time>2022-03-27T10:58:13Z</time>
      </trkpt>
      <trkpt lat="48.5639" lon="1.89848">
        <ele>160</ele>
        <time>2022-03-27T10:58:15Z</time>
      </trkpt>
      <trkpt lat="48.56391" lon="1.89851">
        <ele>160</ele>
        <time>2022-03-27T10:58:15Z</time>
      </trkpt>
      <trkpt lat="48.56391" lon="1.89854">
        <ele>160</ele>
        <time>2022-03-27T10:58:16Z</time>
      </trkpt>
      <trkpt lat="48.56391" lon="1.89859">
        <ele>160</ele>
        <time>2022-03-27T10:58:18Z</time>
      </trkpt>
      <trkpt lat="48.56392" lon="1.89865">
        <ele>159</ele>
        <time>2022-03-27T10:58:20Z</time>
      </trkpt>
      <trkpt lat="48.56394" lon="1.8987">
        <ele>159</ele>
        <time>2022-03-27T10:58:22Z</time>
      </trkpt>
      <trkpt lat="48.56394" lon="1.89875">
        <ele>159</ele>
        <time>2022-03-27T10:58:24Z</time>
      </trkpt>
      <trkpt lat="48.56395" lon="1.8988">
        <ele>159</ele>
        <time>2022-03-27T10:58:26Z</time>
      </trkpt>
      <trkpt lat="48.56395" lon="1.89882">
        <ele>159</ele>
        <time>2022-03-27T10:58:27Z</time>
      </trkpt>
      <trkpt lat="48.56397" lon="1.89896">
        <ele>159</ele>
        <time>2022-03-27T10:58:32Z</time>
      </trkpt>
      <trkpt lat="48.56401" lon="1.8991">
        <ele>160</ele>
        <time>2022-03-27T10:58:38Z</time>
      </trkpt>
      <trkpt lat="48.56402" lon="1.89921">
        <ele>160</ele>
        <time>2022-03-27T10:58:43Z</time>
      </trkpt>
      <trkpt lat="48.56401" lon="1.89925">
        <ele>160</ele>
        <time>2022-03-27T10:58:45Z</time>
      </trkpt>
      <trkpt lat="48.56401" lon="1.8993">
        <ele>160</ele>
        <time>2022-03-27T10:58:47Z</time>
      </trkpt>
      <trkpt lat="48.56403" lon="1.89937">
        <ele>159</ele>
        <time>2022-03-27T10:58:50Z</time>
      </trkpt>
      <trkpt lat="48.56404" lon="1.89941">
        <ele>160</ele>
        <time>2022-03-27T10:58:52Z</time>
      </trkpt>
      <trkpt lat="48.56405" lon="1.89946">
        <ele>160</ele>
        <time>2022-03-27T10:58:54Z</time>
      </trkpt>
      <trkpt lat="48.56406" lon="1.89953">
        <ele>160</ele>
        <time>2022-03-27T10:58:57Z</time>
      </trkpt>
      <trkpt lat="48.56408" lon="1.89958">
        <ele>159</ele>
        <time>2022-03-27T10:58:59Z</time>
      </trkpt>
      <trkpt lat="48.56409" lon="1.89963">
        <ele>160</ele>
        <time>2022-03-27T10:59:01Z</time>
      </trkpt>
      <trkpt lat="48.5641" lon="1.89968">
        <ele>160</ele>
        <time>2022-03-27T10:59:03Z</time>
      </trkpt>
      <trkpt lat="48.56411" lon="1.89974">
        <ele>160</ele>
        <time>2022-03-27T10:59:06Z</time>
      </trkpt>
      <trkpt lat="48.56412" lon="1.89981">
        <ele>160</ele>
        <time>2022-03-27T10:59:08Z</time>
      </trkpt>
      <trkpt lat="48.56413" lon="1.89987">
        <ele>160</ele>
        <time>2022-03-27T10:59:10Z</time>
      </trkpt>
      <trkpt lat="48.56413" lon="1.8999">
        <ele>160</ele>
        <time>2022-03-27T10:59:11Z</time>
      </trkpt>
      <trkpt lat="48.56415" lon="1.89992">
        <ele>160</ele>
        <time>2022-03-27T10:59:12Z</time>
      </trkpt>
      <trkpt lat="48.56416" lon="1.89998">
        <ele>160</ele>
        <time>2022-03-27T10:59:14Z</time>
      </trkpt>
      <trkpt lat="48.56416" lon="1.90003">
        <ele>161</ele>
        <time>2022-03-27T10:59:16Z</time>
      </trkpt>
      <trkpt lat="48.56416" lon="1.90006">
        <ele>161</ele>
        <time>2022-03-27T10:59:17Z</time>
      </trkpt>
      <trkpt lat="48.56416" lon="1.90009">
        <ele>161</ele>
        <time>2022-03-27T10:59:18Z</time>
      </trkpt>
      <trkpt lat="48.56416" lon="1.90014">
        <ele>161</ele>
        <time>2022-03-27T10:59:20Z</time>
      </trkpt>
      <trkpt lat="48.56417" lon="1.90019">
        <ele>161</ele>
        <time>2022-03-27T10:59:22Z</time>
      </trkpt>
      <trkpt lat="48.56418" lon="1.90023">
        <ele>161</ele>
        <time>2022-03-27T10:59:24Z</time>
      </trkpt>
      <trkpt lat="48.56418" lon="1.90026">
        <ele>161</ele>
        <time>2022-03-27T10:59:26Z</time>
      </trkpt>
      <trkpt lat="48.56418" lon="1.9003">
        <ele>160</ele>
        <time>2022-03-27T10:59:28Z</time>
      </trkpt>
      <trkpt lat="48.56418" lon="1.90034">
        <ele>160</ele>
        <time>2022-03-27T10:59:31Z</time>
      </trkpt>
      <trkpt lat="48.56419" lon="1.90039">
        <ele>159</ele>
        <time>2022-03-27T10:59:32Z</time>
      </trkpt>
      <trkpt lat="48.5642" lon="1.90043">
        <ele>159</ele>
        <time>2022-03-27T10:59:34Z</time>
      </trkpt>
      <trkpt lat="48.56421" lon="1.90048">
        <ele>159</ele>
        <time>2022-03-27T10:59:36Z</time>
      </trkpt>
      <trkpt lat="48.56422" lon="1.90052">
        <ele>160</ele>
        <time>2022-03-27T10:59:38Z</time>
      </trkpt>
      <trkpt lat="48.56423" lon="1.90055">
        <ele>160</ele>
        <time>2022-03-27T10:59:39Z</time>
      </trkpt>
      <trkpt lat="48.56423" lon="1.90058">
        <ele>160</ele>
        <time>2022-03-27T10:59:40Z</time>
      </trkpt>
      <trkpt lat="48.56423" lon="1.90061">
        <ele>160</ele>
        <time>2022-03-27T10:59:41Z</time>
      </trkpt>
      <trkpt lat="48.56424" lon="1.90064">
        <ele>159</ele>
        <time>2022-03-27T10:59:42Z</time>
      </trkpt>
      <trkpt lat="48.56425" lon="1.90067">
        <ele>159</ele>
        <time>2022-03-27T10:59:43Z</time>
      </trkpt>
      <trkpt lat="48.56424" lon="1.90072">
        <ele>159</ele>
        <time>2022-03-27T10:59:45Z</time>
      </trkpt>
      <trkpt lat="48.56425" lon="1.90077">
        <ele>160</ele>
        <time>2022-03-27T10:59:47Z</time>
      </trkpt>
      <trkpt lat="48.56426" lon="1.90082">
        <ele>160</ele>
        <time>2022-03-27T10:59:49Z</time>
      </trkpt>
      <trkpt lat="48.56426" lon="1.90087">
        <ele>160</ele>
        <time>2022-03-27T10:59:51Z</time>
      </trkpt>
      <trkpt lat="48.56426" lon="1.90091">
        <ele>160</ele>
        <time>2022-03-27T10:59:53Z</time>
      </trkpt>
      <trkpt lat="48.56427" lon="1.90095">
        <ele>159</ele>
        <time>2022-03-27T10:59:55Z</time>
      </trkpt>
      <trkpt lat="48.56428" lon="1.90099">
        <ele>159</ele>
        <time>2022-03-27T10:59:57Z</time>
      </trkpt>
      <trkpt lat="48.56429" lon="1.90104">
        <ele>159</ele>
        <time>2022-03-27T10:59:59Z</time>
      </trkpt>
      <trkpt lat="48.5643" lon="1.90107">
        <ele>159</ele>
        <time>2022-03-27T11:00:01Z</time>
      </trkpt>
      <trkpt lat="48.5643" lon="1.90112">
        <ele>159</ele>
        <time>2022-03-27T11:00:03Z</time>
      </trkpt>
      <trkpt lat="48.56431" lon="1.90116">
        <ele>159</ele>
        <time>2022-03-27T11:00:05Z</time>
      </trkpt>
      <trkpt lat="48.56432" lon="1.90121">
        <ele>159</ele>
        <time>2022-03-27T11:00:07Z</time>
      </trkpt>
      <trkpt lat="48.56432" lon="1.90126">
        <ele>158</ele>
        <time>2022-03-27T11:00:09Z</time>
      </trkpt>
      <trkpt lat="48.56435" lon="1.90129">
        <ele>158</ele>
        <time>2022-03-27T11:00:11Z</time>
      </trkpt>
      <trkpt lat="48.56437" lon="1.90133">
        <ele>158</ele>
        <time>2022-03-27T11:00:13Z</time>
      </trkpt>
      <trkpt lat="48.56439" lon="1.90136">
        <ele>158</ele>
        <time>2022-03-27T11:00:15Z</time>
      </trkpt>
      <trkpt lat="48.5644" lon="1.90139">
        <ele>158</ele>
        <time>2022-03-27T11:00:17Z</time>
      </trkpt>
      <trkpt lat="48.56442" lon="1.90143">
        <ele>158</ele>
        <time>2022-03-27T11:00:19Z</time>
      </trkpt>
      <trkpt lat="48.56444" lon="1.90147">
        <ele>159</ele>
        <time>2022-03-27T11:00:21Z</time>
      </trkpt>
      <trkpt lat="48.56445" lon="1.9015">
        <ele>159</ele>
        <time>2022-03-27T11:00:23Z</time>
      </trkpt>
      <trkpt lat="48.56449" lon="1.9016">
        <ele>159</ele>
        <time>2022-03-27T11:00:28Z</time>
      </trkpt>
      <trkpt lat="48.56452" lon="1.90164">
        <ele>159</ele>
        <time>2022-03-27T11:00:29Z</time>
      </trkpt>
      <trkpt lat="48.56454" lon="1.90168">
        <ele>159</ele>
        <time>2022-03-27T11:00:31Z</time>
      </trkpt>
      <trkpt lat="48.56456" lon="1.90171">
        <ele>160</ele>
        <time>2022-03-27T11:00:33Z</time>
      </trkpt>
      <trkpt lat="48.56458" lon="1.90175">
        <ele>160</ele>
        <time>2022-03-27T11:00:35Z</time>
      </trkpt>
      <trkpt lat="48.5646" lon="1.90179">
        <ele>159</ele>
        <time>2022-03-27T11:00:37Z</time>
      </trkpt>
      <trkpt lat="48.56461" lon="1.90181">
        <ele>159</ele>
        <time>2022-03-27T11:00:38Z</time>
      </trkpt>
      <trkpt lat="48.56463" lon="1.90185">
        <ele>159</ele>
        <time>2022-03-27T11:00:40Z</time>
      </trkpt>
      <trkpt lat="48.56464" lon="1.90189">
        <ele>159</ele>
        <time>2022-03-27T11:00:42Z</time>
      </trkpt>
      <trkpt lat="48.56466" lon="1.90192">
        <ele>159</ele>
        <time>2022-03-27T11:00:44Z</time>
      </trkpt>
      <trkpt lat="48.56467" lon="1.90195">
        <ele>159</ele>
        <time>2022-03-27T11:00:45Z</time>
      </trkpt>
      <trkpt lat="48.56468" lon="1.90197">
        <ele>159</ele>
        <time>2022-03-27T11:00:47Z</time>
      </trkpt>
      <trkpt lat="48.56469" lon="1.902">
        <ele>159</ele>
        <time>2022-03-27T11:00:47Z</time>
      </trkpt>
      <trkpt lat="48.56471" lon="1.90204">
        <ele>159</ele>
        <time>2022-03-27T11:00:49Z</time>
      </trkpt>
      <trkpt lat="48.56472" lon="1.90209">
        <ele>159</ele>
        <time>2022-03-27T11:00:51Z</time>
      </trkpt>
      <trkpt lat="48.56473" lon="1.90213">
        <ele>158</ele>
        <time>2022-03-27T11:00:53Z</time>
      </trkpt>
      <trkpt lat="48.56474" lon="1.90218">
        <ele>158</ele>
        <time>2022-03-27T11:00:55Z</time>
      </trkpt>
      <trkpt lat="48.56475" lon="1.90222">
        <ele>157</ele>
        <time>2022-03-27T11:00:57Z</time>
      </trkpt>
      <trkpt lat="48.56475" lon="1.90227">
        <ele>157</ele>
        <time>2022-03-27T11:00:59Z</time>
      </trkpt>
      <trkpt lat="48.56476" lon="1.90231">
        <ele>157</ele>
        <time>2022-03-27T11:01:01Z</time>
      </trkpt>
      <trkpt lat="48.56476" lon="1.90236">
        <ele>157</ele>
        <time>2022-03-27T11:01:03Z</time>
      </trkpt>
      <trkpt lat="48.56477" lon="1.9024">
        <ele>156</ele>
        <time>2022-03-27T11:01:05Z</time>
      </trkpt>
      <trkpt lat="48.56479" lon="1.90245">
        <ele>156</ele>
        <time>2022-03-27T11:01:07Z</time>
      </trkpt>
      <trkpt lat="48.5648" lon="1.9025">
        <ele>156</ele>
        <time>2022-03-27T11:01:09Z</time>
      </trkpt>
      <trkpt lat="48.56481" lon="1.90255">
        <ele>156</ele>
        <time>2022-03-27T11:01:11Z</time>
      </trkpt>
      <trkpt lat="48.56482" lon="1.90259">
        <ele>156</ele>
        <time>2022-03-27T11:01:13Z</time>
      </trkpt>
      <trkpt lat="48.56483" lon="1.90264">
        <ele>156</ele>
        <time>2022-03-27T11:01:15Z</time>
      </trkpt>
      <trkpt lat="48.56485" lon="1.90267">
        <ele>156</ele>
        <time>2022-03-27T11:01:16Z</time>
      </trkpt>
      <trkpt lat="48.56486" lon="1.90271">
        <ele>156</ele>
        <time>2022-03-27T11:01:18Z</time>
      </trkpt>
      <trkpt lat="48.56487" lon="1.90273">
        <ele>156</ele>
        <time>2022-03-27T11:01:19Z</time>
      </trkpt>
      <trkpt lat="48.56489" lon="1.90278">
        <ele>156</ele>
        <time>2022-03-27T11:01:21Z</time>
      </trkpt>
      <trkpt lat="48.5649" lon="1.90283">
        <ele>155</ele>
        <time>2022-03-27T11:01:23Z</time>
      </trkpt>
      <trkpt lat="48.56492" lon="1.90286">
        <ele>155</ele>
        <time>2022-03-27T11:01:24Z</time>
      </trkpt>
      <trkpt lat="48.56492" lon="1.90289">
        <ele>155</ele>
        <time>2022-03-27T11:01:25Z</time>
      </trkpt>
      <trkpt lat="48.56494" lon="1.90293">
        <ele>155</ele>
        <time>2022-03-27T11:01:27Z</time>
      </trkpt>
      <trkpt lat="48.56495" lon="1.90298">
        <ele>155</ele>
        <time>2022-03-27T11:01:29Z</time>
      </trkpt>
      <trkpt lat="48.56496" lon="1.90303">
        <ele>155</ele>
        <time>2022-03-27T11:01:31Z</time>
      </trkpt>
      <trkpt lat="48.56497" lon="1.90307">
        <ele>155</ele>
        <time>2022-03-27T11:01:33Z</time>
      </trkpt>
      <trkpt lat="48.56499" lon="1.90312">
        <ele>154</ele>
        <time>2022-03-27T11:01:35Z</time>
      </trkpt>
      <trkpt lat="48.565" lon="1.90314">
        <ele>155</ele>
        <time>2022-03-27T11:01:37Z</time>
      </trkpt>
      <trkpt lat="48.56501" lon="1.90317">
        <ele>155</ele>
        <time>2022-03-27T11:01:37Z</time>
      </trkpt>
      <trkpt lat="48.56502" lon="1.90321">
        <ele>154</ele>
        <time>2022-03-27T11:01:39Z</time>
      </trkpt>
      <trkpt lat="48.56503" lon="1.90326">
        <ele>154</ele>
        <time>2022-03-27T11:01:41Z</time>
      </trkpt>
      <trkpt lat="48.56504" lon="1.90331">
        <ele>154</ele>
        <time>2022-03-27T11:01:43Z</time>
      </trkpt>
      <trkpt lat="48.56505" lon="1.90335">
        <ele>154</ele>
        <time>2022-03-27T11:01:45Z</time>
      </trkpt>
      <trkpt lat="48.56505" lon="1.9034">
        <ele>154</ele>
        <time>2022-03-27T11:01:47Z</time>
      </trkpt>
      <trkpt lat="48.56505" lon="1.90344">
        <ele>154</ele>
        <time>2022-03-27T11:01:49Z</time>
      </trkpt>
      <trkpt lat="48.56505" lon="1.90348">
        <ele>154</ele>
        <time>2022-03-27T11:01:51Z</time>
      </trkpt>
      <trkpt lat="48.56505" lon="1.90353">
        <ele>153</ele>
        <time>2022-03-27T11:01:53Z</time>
      </trkpt>
      <trkpt lat="48.56506" lon="1.90358">
        <ele>153</ele>
        <time>2022-03-27T11:01:55Z</time>
      </trkpt>
      <trkpt lat="48.56507" lon="1.90363">
        <ele>153</ele>
        <time>2022-03-27T11:01:57Z</time>
      </trkpt>
      <trkpt lat="48.56508" lon="1.90367">
        <ele>153</ele>
        <time>2022-03-27T11:01:59Z</time>
      </trkpt>
      <trkpt lat="48.56508" lon="1.90372">
        <ele>152</ele>
        <time>2022-03-27T11:02:01Z</time>
      </trkpt>
      <trkpt lat="48.56509" lon="1.90376">
        <ele>152</ele>
        <time>2022-03-27T11:02:03Z</time>
      </trkpt>
      <trkpt lat="48.56509" lon="1.9038">
        <ele>152</ele>
        <time>2022-03-27T11:02:05Z</time>
      </trkpt>
      <trkpt lat="48.56509" lon="1.90384">
        <ele>152</ele>
        <time>2022-03-27T11:02:07Z</time>
      </trkpt>
      <trkpt lat="48.56508" lon="1.90389">
        <ele>152</ele>
        <time>2022-03-27T11:02:09Z</time>
      </trkpt>
      <trkpt lat="48.56506" lon="1.90393">
        <ele>151</ele>
        <time>2022-03-27T11:02:11Z</time>
      </trkpt>
      <trkpt lat="48.56506" lon="1.90397">
        <ele>151</ele>
        <time>2022-03-27T11:02:13Z</time>
      </trkpt>
      <trkpt lat="48.56506" lon="1.904">
        <ele>151</ele>
        <time>2022-03-27T11:02:14Z</time>
      </trkpt>
      <trkpt lat="48.56507" lon="1.90403">
        <ele>150</ele>
        <time>2022-03-27T11:02:15Z</time>
      </trkpt>
      <trkpt lat="48.56507" lon="1.90406">
        <ele>150</ele>
        <time>2022-03-27T11:02:16Z</time>
      </trkpt>
      <trkpt lat="48.56507" lon="1.90408">
        <ele>150</ele>
        <time>2022-03-27T11:02:17Z</time>
      </trkpt>
      <trkpt lat="48.56507" lon="1.90414">
        <ele>149</ele>
        <time>2022-03-27T11:02:19Z</time>
      </trkpt>
      <trkpt lat="48.56507" lon="1.90417">
        <ele>149</ele>
        <time>2022-03-27T11:02:20Z</time>
      </trkpt>
      <trkpt lat="48.56506" lon="1.90422">
        <ele>149</ele>
        <time>2022-03-27T11:02:22Z</time>
      </trkpt>
      <trkpt lat="48.56506" lon="1.90425">
        <ele>149</ele>
        <time>2022-03-27T11:02:23Z</time>
      </trkpt>
      <trkpt lat="48.56506" lon="1.90428">
        <ele>149</ele>
        <time>2022-03-27T11:02:24Z</time>
      </trkpt>
      <trkpt lat="48.56506" lon="1.90433">
        <ele>149</ele>
        <time>2022-03-27T11:02:26Z</time>
      </trkpt>
      <trkpt lat="48.56506" lon="1.90437">
        <ele>148</ele>
        <time>2022-03-27T11:02:28Z</time>
      </trkpt>
      <trkpt lat="48.56507" lon="1.90442">
        <ele>148</ele>
        <time>2022-03-27T11:02:30Z</time>
      </trkpt>
      <trkpt lat="48.56508" lon="1.90447">
        <ele>147</ele>
        <time>2022-03-27T11:02:32Z</time>
      </trkpt>
      <trkpt lat="48.56509" lon="1.90451">
        <ele>147</ele>
        <time>2022-03-27T11:02:34Z</time>
      </trkpt>
      <trkpt lat="48.56509" lon="1.90456">
        <ele>147</ele>
        <time>2022-03-27T11:02:36Z</time>
      </trkpt>
      <trkpt lat="48.56509" lon="1.90458">
        <ele>147</ele>
        <time>2022-03-27T11:02:37Z</time>
      </trkpt>
      <trkpt lat="48.56509" lon="1.90463">
        <ele>147</ele>
        <time>2022-03-27T11:02:39Z</time>
      </trkpt>
      <trkpt lat="48.56508" lon="1.90468">
        <ele>147</ele>
        <time>2022-03-27T11:02:41Z</time>
      </trkpt>
      <trkpt lat="48.56509" lon="1.90473">
        <ele>146</ele>
        <time>2022-03-27T11:02:43Z</time>
      </trkpt>
      <trkpt lat="48.56509" lon="1.90478">
        <ele>146</ele>
        <time>2022-03-27T11:02:45Z</time>
      </trkpt>
      <trkpt lat="48.56509" lon="1.90483">
        <ele>146</ele>
        <time>2022-03-27T11:02:47Z</time>
      </trkpt>
      <trkpt lat="48.56509" lon="1.90488">
        <ele>145</ele>
        <time>2022-03-27T11:02:49Z</time>
      </trkpt>
      <trkpt lat="48.5651" lon="1.90491">
        <ele>145</ele>
        <time>2022-03-27T11:02:50Z</time>
      </trkpt>
      <trkpt lat="48.5651" lon="1.90495">
        <ele>144</ele>
        <time>2022-03-27T11:02:52Z</time>
      </trkpt>
      <trkpt lat="48.56511" lon="1.905">
        <ele>144</ele>
        <time>2022-03-27T11:02:54Z</time>
      </trkpt>
      <trkpt lat="48.56511" lon="1.90505">
        <ele>144</ele>
        <time>2022-03-27T11:02:56Z</time>
      </trkpt>
      <trkpt lat="48.56511" lon="1.90509">
        <ele>144</ele>
        <time>2022-03-27T11:02:58Z</time>
      </trkpt>
      <trkpt lat="48.56512" lon="1.90521">
        <ele>143</ele>
        <time>2022-03-27T11:03:02Z</time>
      </trkpt>
      <trkpt lat="48.56513" lon="1.90526">
        <ele>143</ele>
        <time>2022-03-27T11:03:04Z</time>
      </trkpt>
      <trkpt lat="48.56514" lon="1.9053">
        <ele>143</ele>
        <time>2022-03-27T11:03:06Z</time>
      </trkpt>
      <trkpt lat="48.56515" lon="1.90534">
        <ele>142</ele>
        <time>2022-03-27T11:03:08Z</time>
      </trkpt>
      <trkpt lat="48.56516" lon="1.90538">
        <ele>142</ele>
        <time>2022-03-27T11:03:10Z</time>
      </trkpt>
      <trkpt lat="48.56516" lon="1.90542">
        <ele>142</ele>
        <time>2022-03-27T11:03:12Z</time>
      </trkpt>
      <trkpt lat="48.56516" lon="1.90547">
        <ele>142</ele>
        <time>2022-03-27T11:03:14Z</time>
      </trkpt>
      <trkpt lat="48.56517" lon="1.90552">
        <ele>141</ele>
        <time>2022-03-27T11:03:16Z</time>
      </trkpt>
      <trkpt lat="48.56518" lon="1.90556">
        <ele>140</ele>
        <time>2022-03-27T11:03:18Z</time>
      </trkpt>
      <trkpt lat="48.56518" lon="1.9056">
        <ele>140</ele>
        <time>2022-03-27T11:03:20Z</time>
      </trkpt>
      <trkpt lat="48.56519" lon="1.90564">
        <ele>140</ele>
        <time>2022-03-27T11:03:22Z</time>
      </trkpt>
      <trkpt lat="48.5652" lon="1.90568">
        <ele>140</ele>
        <time>2022-03-27T11:03:24Z</time>
      </trkpt>
      <trkpt lat="48.56521" lon="1.90572">
        <ele>140</ele>
        <time>2022-03-27T11:03:26Z</time>
      </trkpt>
      <trkpt lat="48.56523" lon="1.90574">
        <ele>140</ele>
        <time>2022-03-27T11:03:27Z</time>
      </trkpt>
      <trkpt lat="48.56525" lon="1.90578">
        <ele>140</ele>
        <time>2022-03-27T11:03:29Z</time>
      </trkpt>
      <trkpt lat="48.56527" lon="1.90581">
        <ele>139</ele>
        <time>2022-03-27T11:03:31Z</time>
      </trkpt>
      <trkpt lat="48.56529" lon="1.90583">
        <ele>139</ele>
        <time>2022-03-27T11:03:33Z</time>
      </trkpt>
      <trkpt lat="48.56531" lon="1.90585">
        <ele>139</ele>
        <time>2022-03-27T11:03:34Z</time>
      </trkpt>
      <trkpt lat="48.56534" lon="1.90587">
        <ele>139</ele>
        <time>2022-03-27T11:03:36Z</time>
      </trkpt>
      <trkpt lat="48.56536" lon="1.9059">
        <ele>139</ele>
        <time>2022-03-27T11:03:38Z</time>
      </trkpt>
      <trkpt lat="48.56538" lon="1.90593">
        <ele>139</ele>
        <time>2022-03-27T11:03:40Z</time>
      </trkpt>
      <trkpt lat="48.5654" lon="1.90596">
        <ele>138</ele>
        <time>2022-03-27T11:03:42Z</time>
      </trkpt>
      <trkpt lat="48.56543" lon="1.90599">
        <ele>138</ele>
        <time>2022-03-27T11:03:44Z</time>
      </trkpt>
      <trkpt lat="48.56545" lon="1.90602">
        <ele>138</ele>
        <time>2022-03-27T11:03:46Z</time>
      </trkpt>
      <trkpt lat="48.56547" lon="1.90604">
        <ele>138</ele>
        <time>2022-03-27T11:03:48Z</time>
      </trkpt>
      <trkpt lat="48.56549" lon="1.90607">
        <ele>138</ele>
        <time>2022-03-27T11:03:50Z</time>
      </trkpt>
      <trkpt lat="48.56551" lon="1.9061">
        <ele>138</ele>
        <time>2022-03-27T11:03:52Z</time>
      </trkpt>
      <trkpt lat="48.56554" lon="1.90612">
        <ele>138</ele>
        <time>2022-03-27T11:03:54Z</time>
      </trkpt>
      <trkpt lat="48.56556" lon="1.90615">
        <ele>138</ele>
        <time>2022-03-27T11:03:56Z</time>
      </trkpt>
      <trkpt lat="48.56556" lon="1.90619">
        <ele>138</ele>
        <time>2022-03-27T11:03:58Z</time>
      </trkpt>
      <trkpt lat="48.56558" lon="1.90622">
        <ele>138</ele>
        <time>2022-03-27T11:04:00Z</time>
      </trkpt>
      <trkpt lat="48.5656" lon="1.90626">
        <ele>138</ele>
        <time>2022-03-27T11:04:02Z</time>
      </trkpt>
      <trkpt lat="48.56562" lon="1.90629">
        <ele>138</ele>
        <time>2022-03-27T11:04:04Z</time>
      </trkpt>
      <trkpt lat="48.56565" lon="1.90631">
        <ele>138</ele>
        <time>2022-03-27T11:04:06Z</time>
      </trkpt>
      <trkpt lat="48.56568" lon="1.90636">
        <ele>138</ele>
        <time>2022-03-27T11:04:08Z</time>
      </trkpt>
      <trkpt lat="48.5657" lon="1.90638">
        <ele>137</ele>
        <time>2022-03-27T11:04:10Z</time>
      </trkpt>
      <trkpt lat="48.56573" lon="1.90641">
        <ele>137</ele>
        <time>2022-03-27T11:04:12Z</time>
      </trkpt>
      <trkpt lat="48.56575" lon="1.90644">
        <ele>137</ele>
        <time>2022-03-27T11:04:14Z</time>
      </trkpt>
      <trkpt lat="48.56577" lon="1.90647">
        <ele>136</ele>
        <time>2022-03-27T11:04:16Z</time>
      </trkpt>
      <trkpt lat="48.56579" lon="1.90649">
        <ele>137</ele>
        <time>2022-03-27T11:04:18Z</time>
      </trkpt>
      <trkpt lat="48.56581" lon="1.90651">
        <ele>137</ele>
        <time>2022-03-27T11:04:19Z</time>
      </trkpt>
      <trkpt lat="48.56583" lon="1.90654">
        <ele>137</ele>
        <time>2022-03-27T11:04:21Z</time>
      </trkpt>
      <trkpt lat="48.56586" lon="1.90657">
        <ele>137</ele>
        <time>2022-03-27T11:04:23Z</time>
      </trkpt>
      <trkpt lat="48.56589" lon="1.9066">
        <ele>137</ele>
        <time>2022-03-27T11:04:25Z</time>
      </trkpt>
      <trkpt lat="48.5659" lon="1.90663">
        <ele>137</ele>
        <time>2022-03-27T11:04:27Z</time>
      </trkpt>
      <trkpt lat="48.56592" lon="1.90667">
        <ele>137</ele>
        <time>2022-03-27T11:04:29Z</time>
      </trkpt>
      <trkpt lat="48.56593" lon="1.90669">
        <ele>137</ele>
        <time>2022-03-27T11:04:30Z</time>
      </trkpt>
      <trkpt lat="48.56596" lon="1.90673">
        <ele>137</ele>
        <time>2022-03-27T11:04:32Z</time>
      </trkpt>
      <trkpt lat="48.56599" lon="1.90676">
        <ele>137</ele>
        <time>2022-03-27T11:04:35Z</time>
      </trkpt>
      <trkpt lat="48.566" lon="1.90678">
        <ele>137</ele>
        <time>2022-03-27T11:04:35Z</time>
      </trkpt>
      <trkpt lat="48.56601" lon="1.9068">
        <ele>137</ele>
        <time>2022-03-27T11:04:36Z</time>
      </trkpt>
      <trkpt lat="48.56602" lon="1.90683">
        <ele>137</ele>
        <time>2022-03-27T11:04:37Z</time>
      </trkpt>
      <trkpt lat="48.56604" lon="1.90685">
        <ele>137</ele>
        <time>2022-03-27T11:04:38Z</time>
      </trkpt>
      <trkpt lat="48.56605" lon="1.90687">
        <ele>137</ele>
        <time>2022-03-27T11:04:39Z</time>
      </trkpt>
      <trkpt lat="48.56606" lon="1.90689">
        <ele>137</ele>
        <time>2022-03-27T11:04:40Z</time>
      </trkpt>
      <trkpt lat="48.56607" lon="1.90692">
        <ele>138</ele>
        <time>2022-03-27T11:04:41Z</time>
      </trkpt>
      <trkpt lat="48.56609" lon="1.90696">
        <ele>138</ele>
        <time>2022-03-27T11:04:43Z</time>
      </trkpt>
      <trkpt lat="48.5661" lon="1.907">
        <ele>138</ele>
        <time>2022-03-27T11:04:45Z</time>
      </trkpt>
      <trkpt lat="48.56611" lon="1.90704">
        <ele>138</ele>
        <time>2022-03-27T11:04:47Z</time>
      </trkpt>
      <trkpt lat="48.56613" lon="1.90708">
        <ele>138</ele>
        <time>2022-03-27T11:04:49Z</time>
      </trkpt>
      <trkpt lat="48.56614" lon="1.90711">
        <ele>138</ele>
        <time>2022-03-27T11:04:50Z</time>
      </trkpt>
      <trkpt lat="48.56616" lon="1.90715">
        <ele>138</ele>
        <time>2022-03-27T11:04:52Z</time>
      </trkpt>
      <trkpt lat="48.56618" lon="1.90719">
        <ele>138</ele>
        <time>2022-03-27T11:04:54Z</time>
      </trkpt>
      <trkpt lat="48.56619" lon="1.90722">
        <ele>138</ele>
        <time>2022-03-27T11:04:55Z</time>
      </trkpt>
      <trkpt lat="48.5662" lon="1.90724">
        <ele>138</ele>
        <time>2022-03-27T11:04:56Z</time>
      </trkpt>
      <trkpt lat="48.56621" lon="1.90727">
        <ele>138</ele>
        <time>2022-03-27T11:04:57Z</time>
      </trkpt>
      <trkpt lat="48.56622" lon="1.90732">
        <ele>138</ele>
        <time>2022-03-27T11:04:59Z</time>
      </trkpt>
      <trkpt lat="48.56623" lon="1.90734">
        <ele>139</ele>
        <time>2022-03-27T11:05:01Z</time>
      </trkpt>
      <trkpt lat="48.56623" lon="1.90738">
        <ele>140</ele>
        <time>2022-03-27T11:05:04Z</time>
      </trkpt>
      <trkpt lat="48.56623" lon="1.90743">
        <ele>140</ele>
        <time>2022-03-27T11:05:06Z</time>
      </trkpt>
      <trkpt lat="48.56624" lon="1.90747">
        <ele>139</ele>
        <time>2022-03-27T11:05:08Z</time>
      </trkpt>
      <trkpt lat="48.56625" lon="1.90752">
        <ele>139</ele>
        <time>2022-03-27T11:05:10Z</time>
      </trkpt>
      <trkpt lat="48.56626" lon="1.90756">
        <ele>139</ele>
        <time>2022-03-27T11:05:13Z</time>
      </trkpt>
      <trkpt lat="48.56626" lon="1.9076">
        <ele>139</ele>
        <time>2022-03-27T11:05:14Z</time>
      </trkpt>
      <trkpt lat="48.56626" lon="1.90765">
        <ele>139</ele>
        <time>2022-03-27T11:05:16Z</time>
      </trkpt>
      <trkpt lat="48.56626" lon="1.90769">
        <ele>138</ele>
        <time>2022-03-27T11:05:18Z</time>
      </trkpt>
      <trkpt lat="48.56627" lon="1.90773">
        <ele>138</ele>
        <time>2022-03-27T11:05:21Z</time>
      </trkpt>
      <trkpt lat="48.56628" lon="1.90777">
        <ele>139</ele>
        <time>2022-03-27T11:05:22Z</time>
      </trkpt>
      <trkpt lat="48.56631" lon="1.90781">
        <ele>138</ele>
        <time>2022-03-27T11:05:25Z</time>
      </trkpt>
      <trkpt lat="48.56631" lon="1.90785">
        <ele>138</ele>
        <time>2022-03-27T11:05:25Z</time>
      </trkpt>
      <trkpt lat="48.56632" lon="1.90787">
        <ele>138</ele>
        <time>2022-03-27T11:05:26Z</time>
      </trkpt>
      <trkpt lat="48.56632" lon="1.9079">
        <ele>138</ele>
        <time>2022-03-27T11:05:27Z</time>
      </trkpt>
      <trkpt lat="48.56633" lon="1.90793">
        <ele>138</ele>
        <time>2022-03-27T11:05:29Z</time>
      </trkpt>
      <trkpt lat="48.56634" lon="1.90796">
        <ele>137</ele>
        <time>2022-03-27T11:05:30Z</time>
      </trkpt>
      <trkpt lat="48.56634" lon="1.90799">
        <ele>137</ele>
        <time>2022-03-27T11:05:30Z</time>
      </trkpt>
      <trkpt lat="48.56635" lon="1.90802">
        <ele>137</ele>
        <time>2022-03-27T11:05:32Z</time>
      </trkpt>
      <trkpt lat="48.56635" lon="1.90805">
        <ele>137</ele>
        <time>2022-03-27T11:05:33Z</time>
      </trkpt>
      <trkpt lat="48.56636" lon="1.9081">
        <ele>137</ele>
        <time>2022-03-27T11:05:34Z</time>
      </trkpt>
      <trkpt lat="48.56637" lon="1.90814">
        <ele>137</ele>
        <time>2022-03-27T11:05:37Z</time>
      </trkpt>
      <trkpt lat="48.56638" lon="1.90819">
        <ele>137</ele>
        <time>2022-03-27T11:05:39Z</time>
      </trkpt>
      <trkpt lat="48.56639" lon="1.90823">
        <ele>137</ele>
        <time>2022-03-27T11:05:41Z</time>
      </trkpt>
      <trkpt lat="48.5664" lon="1.90828">
        <ele>137</ele>
        <time>2022-03-27T11:05:43Z</time>
      </trkpt>
      <trkpt lat="48.56641" lon="1.90832">
        <ele>137</ele>
        <time>2022-03-27T11:05:45Z</time>
      </trkpt>
      <trkpt lat="48.56642" lon="1.90836">
        <ele>136</ele>
        <time>2022-03-27T11:05:47Z</time>
      </trkpt>
      <trkpt lat="48.56643" lon="1.9084">
        <ele>136</ele>
        <time>2022-03-27T11:05:48Z</time>
      </trkpt>
      <trkpt lat="48.56643" lon="1.90844">
        <ele>136</ele>
        <time>2022-03-27T11:05:51Z</time>
      </trkpt>
      <trkpt lat="48.56642" lon="1.9085">
        <ele>136</ele>
        <time>2022-03-27T11:05:52Z</time>
      </trkpt>
      <trkpt lat="48.56642" lon="1.90854">
        <ele>136</ele>
        <time>2022-03-27T11:05:54Z</time>
      </trkpt>
      <trkpt lat="48.56642" lon="1.90859">
        <ele>135</ele>
        <time>2022-03-27T11:05:56Z</time>
      </trkpt>
      <trkpt lat="48.56641" lon="1.90864">
        <ele>135</ele>
        <time>2022-03-27T11:05:58Z</time>
      </trkpt>
      <trkpt lat="48.56642" lon="1.90867">
        <ele>134</ele>
        <time>2022-03-27T11:05:59Z</time>
      </trkpt>
      <trkpt lat="48.56642" lon="1.90872">
        <ele>134</ele>
        <time>2022-03-27T11:06:01Z</time>
      </trkpt>
      <trkpt lat="48.56642" lon="1.90876">
        <ele>134</ele>
        <time>2022-03-27T11:06:03Z</time>
      </trkpt>
      <trkpt lat="48.56641" lon="1.90881">
        <ele>134</ele>
        <time>2022-03-27T11:06:05Z</time>
      </trkpt>
      <trkpt lat="48.5664" lon="1.90886">
        <ele>134</ele>
        <time>2022-03-27T11:06:07Z</time>
      </trkpt>
      <trkpt lat="48.56639" lon="1.90888">
        <ele>134</ele>
        <time>2022-03-27T11:06:08Z</time>
      </trkpt>
      <trkpt lat="48.56639" lon="1.90891">
        <ele>134</ele>
        <time>2022-03-27T11:06:10Z</time>
      </trkpt>
      <trkpt lat="48.56638" lon="1.90894">
        <ele>134</ele>
        <time>2022-03-27T11:06:10Z</time>
      </trkpt>
      <trkpt lat="48.56638" lon="1.90897">
        <ele>134</ele>
        <time>2022-03-27T11:06:11Z</time>
      </trkpt>
      <trkpt lat="48.56638" lon="1.909">
        <ele>134</ele>
        <time>2022-03-27T11:06:12Z</time>
      </trkpt>
      <trkpt lat="48.56637" lon="1.90903">
        <ele>133</ele>
        <time>2022-03-27T11:06:13Z</time>
      </trkpt>
      <trkpt lat="48.56636" lon="1.90906">
        <ele>133</ele>
        <time>2022-03-27T11:06:14Z</time>
      </trkpt>
      <trkpt lat="48.56636" lon="1.9091">
        <ele>133</ele>
        <time>2022-03-27T11:06:15Z</time>
      </trkpt>
      <trkpt lat="48.56636" lon="1.90915">
        <ele>133</ele>
        <time>2022-03-27T11:06:17Z</time>
      </trkpt>
      <trkpt lat="48.56635" lon="1.90917">
        <ele>133</ele>
        <time>2022-03-27T11:06:19Z</time>
      </trkpt>
      <trkpt lat="48.56635" lon="1.9092">
        <ele>133</ele>
        <time>2022-03-27T11:06:20Z</time>
      </trkpt>
      <trkpt lat="48.56635" lon="1.90923">
        <ele>133</ele>
        <time>2022-03-27T11:06:21Z</time>
      </trkpt>
      <trkpt lat="48.56634" lon="1.90928">
        <ele>132</ele>
        <time>2022-03-27T11:06:23Z</time>
      </trkpt>
      <trkpt lat="48.56634" lon="1.90933">
        <ele>132</ele>
        <time>2022-03-27T11:06:25Z</time>
      </trkpt>
      <trkpt lat="48.56634" lon="1.90936">
        <ele>133</ele>
        <time>2022-03-27T11:06:26Z</time>
      </trkpt>
      <trkpt lat="48.56634" lon="1.90939">
        <ele>132</ele>
        <time>2022-03-27T11:06:27Z</time>
      </trkpt>
      <trkpt lat="48.56634" lon="1.90942">
        <ele>132</ele>
        <time>2022-03-27T11:06:28Z</time>
      </trkpt>
      <trkpt lat="48.56634" lon="1.90945">
        <ele>132</ele>
        <time>2022-03-27T11:06:29Z</time>
      </trkpt>
      <trkpt lat="48.56634" lon="1.90948">
        <ele>132</ele>
        <time>2022-03-27T11:06:30Z</time>
      </trkpt>
      <trkpt lat="48.56634" lon="1.9095">
        <ele>132</ele>
        <time>2022-03-27T11:06:31Z</time>
      </trkpt>
      <trkpt lat="48.56634" lon="1.90956">
        <ele>132</ele>
        <time>2022-03-27T11:06:33Z</time>
      </trkpt>
      <trkpt lat="48.56633" lon="1.90961">
        <ele>132</ele>
        <time>2022-03-27T11:06:35Z</time>
      </trkpt>
      <trkpt lat="48.56633" lon="1.90966">
        <ele>132</ele>
        <time>2022-03-27T11:06:37Z</time>
      </trkpt>
      <trkpt lat="48.56631" lon="1.90971">
        <ele>132</ele>
        <time>2022-03-27T11:06:39Z</time>
      </trkpt>
      <trkpt lat="48.5663" lon="1.90975">
        <ele>132</ele>
        <time>2022-03-27T11:06:41Z</time>
      </trkpt>
      <trkpt lat="48.5663" lon="1.9098">
        <ele>132</ele>
        <time>2022-03-27T11:06:43Z</time>
      </trkpt>
      <trkpt lat="48.5663" lon="1.90985">
        <ele>131</ele>
        <time>2022-03-27T11:06:45Z</time>
      </trkpt>
      <trkpt lat="48.5663" lon="1.9099">
        <ele>131</ele>
        <time>2022-03-27T11:06:46Z</time>
      </trkpt>
      <trkpt lat="48.5663" lon="1.90995">
        <ele>131</ele>
        <time>2022-03-27T11:06:48Z</time>
      </trkpt>
      <trkpt lat="48.56629" lon="1.91">
        <ele>132</ele>
        <time>2022-03-27T11:06:50Z</time>
      </trkpt>
      <trkpt lat="48.56629" lon="1.91005">
        <ele>132</ele>
        <time>2022-03-27T11:06:52Z</time>
      </trkpt>
      <trkpt lat="48.5663" lon="1.9101">
        <ele>132</ele>
        <time>2022-03-27T11:06:54Z</time>
      </trkpt>
      <trkpt lat="48.56629" lon="1.91016">
        <ele>132</ele>
        <time>2022-03-27T11:06:56Z</time>
      </trkpt>
      <trkpt lat="48.5663" lon="1.91018">
        <ele>131</ele>
        <time>2022-03-27T11:06:57Z</time>
      </trkpt>
      <trkpt lat="48.5663" lon="1.91023">
        <ele>131</ele>
        <time>2022-03-27T11:06:59Z</time>
      </trkpt>
      <trkpt lat="48.5663" lon="1.91027">
        <ele>131</ele>
        <time>2022-03-27T11:07:01Z</time>
      </trkpt>
      <trkpt lat="48.5663" lon="1.91032">
        <ele>131</ele>
        <time>2022-03-27T11:07:03Z</time>
      </trkpt>
      <trkpt lat="48.56631" lon="1.91038">
        <ele>131</ele>
        <time>2022-03-27T11:07:05Z</time>
      </trkpt>
      <trkpt lat="48.56631" lon="1.9104">
        <ele>131</ele>
        <time>2022-03-27T11:07:07Z</time>
      </trkpt>
      <trkpt lat="48.56632" lon="1.91045">
        <ele>131</ele>
        <time>2022-03-27T11:07:08Z</time>
      </trkpt>
      <trkpt lat="48.56632" lon="1.9105">
        <ele>131</ele>
        <time>2022-03-27T11:07:10Z</time>
      </trkpt>
      <trkpt lat="48.56631" lon="1.91053">
        <ele>131</ele>
        <time>2022-03-27T11:07:11Z</time>
      </trkpt>
      <trkpt lat="48.56631" lon="1.91057">
        <ele>131</ele>
        <time>2022-03-27T11:07:13Z</time>
      </trkpt>
      <trkpt lat="48.56632" lon="1.91062">
        <ele>131</ele>
        <time>2022-03-27T11:07:15Z</time>
      </trkpt>
      <trkpt lat="48.56632" lon="1.91068">
        <ele>131</ele>
        <time>2022-03-27T11:07:18Z</time>
      </trkpt>
      <trkpt lat="48.56633" lon="1.9107">
        <ele>131</ele>
        <time>2022-03-27T11:07:19Z</time>
      </trkpt>
      <trkpt lat="48.56632" lon="1.91076">
        <ele>131</ele>
        <time>2022-03-27T11:07:21Z</time>
      </trkpt>
      <trkpt lat="48.56632" lon="1.9108">
        <ele>131</ele>
        <time>2022-03-27T11:07:23Z</time>
      </trkpt>
      <trkpt lat="48.56631" lon="1.91086">
        <ele>130</ele>
        <time>2022-03-27T11:07:25Z</time>
      </trkpt>
      <trkpt lat="48.56631" lon="1.91091">
        <ele>130</ele>
        <time>2022-03-27T11:07:27Z</time>
      </trkpt>
      <trkpt lat="48.5663" lon="1.91094">
        <ele>130</ele>
        <time>2022-03-27T11:07:28Z</time>
      </trkpt>
      <trkpt lat="48.5663" lon="1.91097">
        <ele>130</ele>
        <time>2022-03-27T11:07:29Z</time>
      </trkpt>
      <trkpt lat="48.5663" lon="1.911">
        <ele>130</ele>
        <time>2022-03-27T11:07:30Z</time>
      </trkpt>
      <trkpt lat="48.5663" lon="1.91103">
        <ele>130</ele>
        <time>2022-03-27T11:07:31Z</time>
      </trkpt>
      <trkpt lat="48.5663" lon="1.91108">
        <ele>129</ele>
        <time>2022-03-27T11:07:33Z</time>
      </trkpt>
      <trkpt lat="48.56631" lon="1.91113">
        <ele>130</ele>
        <time>2022-03-27T11:07:35Z</time>
      </trkpt>
      <trkpt lat="48.56631" lon="1.91117">
        <ele>130</ele>
        <time>2022-03-27T11:07:37Z</time>
      </trkpt>
      <trkpt lat="48.56632" lon="1.91122">
        <ele>130</ele>
        <time>2022-03-27T11:07:39Z</time>
      </trkpt>
      <trkpt lat="48.56632" lon="1.91125">
        <ele>131</ele>
        <time>2022-03-27T11:07:40Z</time>
      </trkpt>
      <trkpt lat="48.56632" lon="1.9113">
        <ele>131</ele>
        <time>2022-03-27T11:07:42Z</time>
      </trkpt>
      <trkpt lat="48.56632" lon="1.91135">
        <ele>131</ele>
        <time>2022-03-27T11:07:44Z</time>
      </trkpt>
      <trkpt lat="48.56632" lon="1.91139">
        <ele>131</ele>
        <time>2022-03-27T11:07:46Z</time>
      </trkpt>
      <trkpt lat="48.56632" lon="1.91143">
        <ele>131</ele>
        <time>2022-03-27T11:07:48Z</time>
      </trkpt>
      <trkpt lat="48.56633" lon="1.91148">
        <ele>131</ele>
        <time>2022-03-27T11:07:50Z</time>
      </trkpt>
      <trkpt lat="48.56631" lon="1.91153">
        <ele>131</ele>
        <time>2022-03-27T11:07:52Z</time>
      </trkpt>
      <trkpt lat="48.56631" lon="1.91158">
        <ele>131</ele>
        <time>2022-03-27T11:07:54Z</time>
      </trkpt>
      <trkpt lat="48.56631" lon="1.91163">
        <ele>131</ele>
        <time>2022-03-27T11:07:56Z</time>
      </trkpt>
      <trkpt lat="48.56631" lon="1.91166">
        <ele>131</ele>
        <time>2022-03-27T11:07:57Z</time>
      </trkpt>
      <trkpt lat="48.56632" lon="1.9117">
        <ele>131</ele>
        <time>2022-03-27T11:07:59Z</time>
      </trkpt>
      <trkpt lat="48.56631" lon="1.91175">
        <ele>131</ele>
        <time>2022-03-27T11:08:01Z</time>
      </trkpt>
      <trkpt lat="48.56632" lon="1.91179">
        <ele>131</ele>
        <time>2022-03-27T11:08:03Z</time>
      </trkpt>
      <trkpt lat="48.56632" lon="1.91184">
        <ele>132</ele>
        <time>2022-03-27T11:08:05Z</time>
      </trkpt>
      <trkpt lat="48.56633" lon="1.91188">
        <ele>132</ele>
        <time>2022-03-27T11:08:07Z</time>
      </trkpt>
      <trkpt lat="48.56632" lon="1.91193">
        <ele>132</ele>
        <time>2022-03-27T11:08:09Z</time>
      </trkpt>
      <trkpt lat="48.56632" lon="1.91196">
        <ele>132</ele>
        <time>2022-03-27T11:08:10Z</time>
      </trkpt>
      <trkpt lat="48.56632" lon="1.91201">
        <ele>132</ele>
        <time>2022-03-27T11:08:12Z</time>
      </trkpt>
      <trkpt lat="48.56633" lon="1.91205">
        <ele>132</ele>
        <time>2022-03-27T11:08:14Z</time>
      </trkpt>
      <trkpt lat="48.56633" lon="1.9121">
        <ele>131</ele>
        <time>2022-03-27T11:08:16Z</time>
      </trkpt>
      <trkpt lat="48.56631" lon="1.91215">
        <ele>131</ele>
        <time>2022-03-27T11:08:17Z</time>
      </trkpt>
      <trkpt lat="48.56631" lon="1.9122">
        <ele>131</ele>
        <time>2022-03-27T11:08:19Z</time>
      </trkpt>
      <trkpt lat="48.56631" lon="1.91225">
        <ele>131</ele>
        <time>2022-03-27T11:08:21Z</time>
      </trkpt>
      <trkpt lat="48.56631" lon="1.91229">
        <ele>131</ele>
        <time>2022-03-27T11:08:23Z</time>
      </trkpt>
      <trkpt lat="48.56632" lon="1.91231">
        <ele>131</ele>
        <time>2022-03-27T11:08:24Z</time>
      </trkpt>
      <trkpt lat="48.56632" lon="1.91234">
        <ele>131</ele>
        <time>2022-03-27T11:08:25Z</time>
      </trkpt>
      <trkpt lat="48.56633" lon="1.91237">
        <ele>131</ele>
        <time>2022-03-27T11:08:26Z</time>
      </trkpt>
      <trkpt lat="48.56633" lon="1.91242">
        <ele>131</ele>
        <time>2022-03-27T11:08:28Z</time>
      </trkpt>
      <trkpt lat="48.56632" lon="1.91245">
        <ele>131</ele>
        <time>2022-03-27T11:08:29Z</time>
      </trkpt>
      <trkpt lat="48.56632" lon="1.9125">
        <ele>132</ele>
        <time>2022-03-27T11:08:31Z</time>
      </trkpt>
      <trkpt lat="48.56633" lon="1.91254">
        <ele>132</ele>
        <time>2022-03-27T11:08:33Z</time>
      </trkpt>
      <trkpt lat="48.56632" lon="1.91259">
        <ele>132</ele>
        <time>2022-03-27T11:08:35Z</time>
      </trkpt>
      <trkpt lat="48.56633" lon="1.91263">
        <ele>132</ele>
        <time>2022-03-27T11:08:37Z</time>
      </trkpt>
      <trkpt lat="48.56634" lon="1.91267">
        <ele>133</ele>
        <time>2022-03-27T11:08:39Z</time>
      </trkpt>
      <trkpt lat="48.56635" lon="1.91271">
        <ele>133</ele>
        <time>2022-03-27T11:08:42Z</time>
      </trkpt>
      <trkpt lat="48.56635" lon="1.91275">
        <ele>133</ele>
        <time>2022-03-27T11:08:43Z</time>
      </trkpt>
      <trkpt lat="48.56635" lon="1.9128">
        <ele>133</ele>
        <time>2022-03-27T11:08:45Z</time>
      </trkpt>
      <trkpt lat="48.56635" lon="1.91285">
        <ele>132</ele>
        <time>2022-03-27T11:08:47Z</time>
      </trkpt>
      <trkpt lat="48.56635" lon="1.9129">
        <ele>132</ele>
        <time>2022-03-27T11:08:50Z</time>
      </trkpt>
      <trkpt lat="48.56635" lon="1.91295">
        <ele>132</ele>
        <time>2022-03-27T11:08:52Z</time>
      </trkpt>
      <trkpt lat="48.56635" lon="1.913">
        <ele>132</ele>
        <time>2022-03-27T11:08:54Z</time>
      </trkpt>
      <trkpt lat="48.56635" lon="1.91303">
        <ele>132</ele>
        <time>2022-03-27T11:08:55Z</time>
      </trkpt>
      <trkpt lat="48.56635" lon="1.91308">
        <ele>132</ele>
        <time>2022-03-27T11:08:57Z</time>
      </trkpt>
      <trkpt lat="48.56636" lon="1.91313">
        <ele>132</ele>
        <time>2022-03-27T11:08:59Z</time>
      </trkpt>
      <trkpt lat="48.56637" lon="1.91317">
        <ele>132</ele>
        <time>2022-03-27T11:09:01Z</time>
      </trkpt>
      <trkpt lat="48.56638" lon="1.91322">
        <ele>132</ele>
        <time>2022-03-27T11:09:03Z</time>
      </trkpt>
      <trkpt lat="48.56637" lon="1.91327">
        <ele>132</ele>
        <time>2022-03-27T11:09:05Z</time>
      </trkpt>
      <trkpt lat="48.56637" lon="1.91332">
        <ele>132</ele>
        <time>2022-03-27T11:09:07Z</time>
      </trkpt>
      <trkpt lat="48.56637" lon="1.91337">
        <ele>132</ele>
        <time>2022-03-27T11:09:09Z</time>
      </trkpt>
      <trkpt lat="48.56638" lon="1.91341">
        <ele>132</ele>
        <time>2022-03-27T11:09:11Z</time>
      </trkpt>
      <trkpt lat="48.56638" lon="1.91345">
        <ele>132</ele>
        <time>2022-03-27T11:09:13Z</time>
      </trkpt>
      <trkpt lat="48.56638" lon="1.9135">
        <ele>132</ele>
        <time>2022-03-27T11:09:15Z</time>
      </trkpt>
      <trkpt lat="48.56638" lon="1.91354">
        <ele>132</ele>
        <time>2022-03-27T11:09:17Z</time>
      </trkpt>
      <trkpt lat="48.56638" lon="1.9136">
        <ele>132</ele>
        <time>2022-03-27T11:09:19Z</time>
      </trkpt>
      <trkpt lat="48.56638" lon="1.91363">
        <ele>132</ele>
        <time>2022-03-27T11:09:20Z</time>
      </trkpt>
      <trkpt lat="48.56638" lon="1.91366">
        <ele>132</ele>
        <time>2022-03-27T11:09:21Z</time>
      </trkpt>
      <trkpt lat="48.56637" lon="1.91371">
        <ele>132</ele>
        <time>2022-03-27T11:09:23Z</time>
      </trkpt>
      <trkpt lat="48.56637" lon="1.91374">
        <ele>132</ele>
        <time>2022-03-27T11:09:24Z</time>
      </trkpt>
      <trkpt lat="48.56637" lon="1.91377">
        <ele>132</ele>
        <time>2022-03-27T11:09:25Z</time>
      </trkpt>
      <trkpt lat="48.56638" lon="1.9138">
        <ele>132</ele>
        <time>2022-03-27T11:09:26Z</time>
      </trkpt>
      <trkpt lat="48.56638" lon="1.91384">
        <ele>132</ele>
        <time>2022-03-27T11:09:27Z</time>
      </trkpt>
      <trkpt lat="48.56639" lon="1.91386">
        <ele>132</ele>
        <time>2022-03-27T11:09:28Z</time>
      </trkpt>
      <trkpt lat="48.56638" lon="1.91389">
        <ele>132</ele>
        <time>2022-03-27T11:09:29Z</time>
      </trkpt>
      <trkpt lat="48.56639" lon="1.91392">
        <ele>132</ele>
        <time>2022-03-27T11:09:30Z</time>
      </trkpt>
      <trkpt lat="48.5664" lon="1.91395">
        <ele>132</ele>
        <time>2022-03-27T11:09:31Z</time>
      </trkpt>
      <trkpt lat="48.56641" lon="1.91398">
        <ele>132</ele>
        <time>2022-03-27T11:09:31Z</time>
      </trkpt>
      <trkpt lat="48.56641" lon="1.91403">
        <ele>132</ele>
        <time>2022-03-27T11:09:33Z</time>
      </trkpt>
      <trkpt lat="48.56641" lon="1.91406">
        <ele>132</ele>
        <time>2022-03-27T11:09:34Z</time>
      </trkpt>
      <trkpt lat="48.5664" lon="1.91408">
        <ele>132</ele>
        <time>2022-03-27T11:09:35Z</time>
      </trkpt>
      <trkpt lat="48.56641" lon="1.91413">
        <ele>132</ele>
        <time>2022-03-27T11:09:37Z</time>
      </trkpt>
      <trkpt lat="48.56642" lon="1.91418">
        <ele>131</ele>
        <time>2022-03-27T11:09:39Z</time>
      </trkpt>
      <trkpt lat="48.56642" lon="1.91423">
        <ele>131</ele>
        <time>2022-03-27T11:09:41Z</time>
      </trkpt>
      <trkpt lat="48.56643" lon="1.91428">
        <ele>131</ele>
        <time>2022-03-27T11:09:43Z</time>
      </trkpt>
      <trkpt lat="48.56643" lon="1.91433">
        <ele>131</ele>
        <time>2022-03-27T11:09:45Z</time>
      </trkpt>
      <trkpt lat="48.56643" lon="1.91436">
        <ele>130</ele>
        <time>2022-03-27T11:09:47Z</time>
      </trkpt>
      <trkpt lat="48.56643" lon="1.9144">
        <ele>131</ele>
        <time>2022-03-27T11:09:49Z</time>
      </trkpt>
      <trkpt lat="48.56643" lon="1.91446">
        <ele>131</ele>
        <time>2022-03-27T11:09:51Z</time>
      </trkpt>
      <trkpt lat="48.56643" lon="1.9145">
        <ele>131</ele>
        <time>2022-03-27T11:09:53Z</time>
      </trkpt>
      <trkpt lat="48.56644" lon="1.91455">
        <ele>131</ele>
        <time>2022-03-27T11:09:55Z</time>
      </trkpt>
      <trkpt lat="48.56644" lon="1.91459">
        <ele>131</ele>
        <time>2022-03-27T11:09:57Z</time>
      </trkpt>
      <trkpt lat="48.56645" lon="1.91462">
        <ele>132</ele>
        <time>2022-03-27T11:09:58Z</time>
      </trkpt>
      <trkpt lat="48.56646" lon="1.91464">
        <ele>131</ele>
        <time>2022-03-27T11:09:59Z</time>
      </trkpt>
      <trkpt lat="48.56646" lon="1.91467">
        <ele>131</ele>
        <time>2022-03-27T11:10:00Z</time>
      </trkpt>
      <trkpt lat="48.56647" lon="1.91472">
        <ele>131</ele>
        <time>2022-03-27T11:10:02Z</time>
      </trkpt>
      <trkpt lat="48.56648" lon="1.91477">
        <ele>131</ele>
        <time>2022-03-27T11:10:04Z</time>
      </trkpt>
      <trkpt lat="48.56648" lon="1.91482">
        <ele>131</ele>
        <time>2022-03-27T11:10:06Z</time>
      </trkpt>
      <trkpt lat="48.56649" lon="1.91486">
        <ele>131</ele>
        <time>2022-03-27T11:10:08Z</time>
      </trkpt>
      <trkpt lat="48.5665" lon="1.91491">
        <ele>131</ele>
        <time>2022-03-27T11:10:10Z</time>
      </trkpt>
      <trkpt lat="48.5665" lon="1.91496">
        <ele>131</ele>
        <time>2022-03-27T11:10:12Z</time>
      </trkpt>
      <trkpt lat="48.5665" lon="1.91501">
        <ele>131</ele>
        <time>2022-03-27T11:10:14Z</time>
      </trkpt>
      <trkpt lat="48.56651" lon="1.91506">
        <ele>130</ele>
        <time>2022-03-27T11:10:16Z</time>
      </trkpt>
      <trkpt lat="48.56651" lon="1.91511">
        <ele>130</ele>
        <time>2022-03-27T11:10:18Z</time>
      </trkpt>
      <trkpt lat="48.56651" lon="1.91516">
        <ele>129</ele>
        <time>2022-03-27T11:10:20Z</time>
      </trkpt>
      <trkpt lat="48.56651" lon="1.9152">
        <ele>129</ele>
        <time>2022-03-27T11:10:22Z</time>
      </trkpt>
      <trkpt lat="48.56651" lon="1.91525">
        <ele>129</ele>
        <time>2022-03-27T11:10:24Z</time>
      </trkpt>
      <trkpt lat="48.56651" lon="1.9153">
        <ele>129</ele>
        <time>2022-03-27T11:10:26Z</time>
      </trkpt>
      <trkpt lat="48.5665" lon="1.91534">
        <ele>129</ele>
        <time>2022-03-27T11:10:28Z</time>
      </trkpt>
      <trkpt lat="48.5665" lon="1.91538">
        <ele>129</ele>
        <time>2022-03-27T11:10:30Z</time>
      </trkpt>
      <trkpt lat="48.5665" lon="1.91543">
        <ele>129</ele>
        <time>2022-03-27T11:10:32Z</time>
      </trkpt>
      <trkpt lat="48.5665" lon="1.91548">
        <ele>129</ele>
        <time>2022-03-27T11:10:34Z</time>
      </trkpt>
      <trkpt lat="48.56649" lon="1.91553">
        <ele>129</ele>
        <time>2022-03-27T11:10:36Z</time>
      </trkpt>
      <trkpt lat="48.56649" lon="1.91558">
        <ele>128</ele>
        <time>2022-03-27T11:10:38Z</time>
      </trkpt>
      <trkpt lat="48.56649" lon="1.91563">
        <ele>128</ele>
        <time>2022-03-27T11:10:40Z</time>
      </trkpt>
      <trkpt lat="48.56649" lon="1.91568">
        <ele>128</ele>
        <time>2022-03-27T11:10:42Z</time>
      </trkpt>
      <trkpt lat="48.5665" lon="1.91572">
        <ele>128</ele>
        <time>2022-03-27T11:10:44Z</time>
      </trkpt>
      <trkpt lat="48.5665" lon="1.91577">
        <ele>128</ele>
        <time>2022-03-27T11:10:46Z</time>
      </trkpt>
      <trkpt lat="48.5665" lon="1.9158">
        <ele>127</ele>
        <time>2022-03-27T11:10:47Z</time>
      </trkpt>
      <trkpt lat="48.56651" lon="1.91584">
        <ele>127</ele>
        <time>2022-03-27T11:10:48Z</time>
      </trkpt>
      <trkpt lat="48.56651" lon="1.91589">
        <ele>126</ele>
        <time>2022-03-27T11:10:50Z</time>
      </trkpt>
      <trkpt lat="48.56651" lon="1.91595">
        <ele>126</ele>
        <time>2022-03-27T11:10:52Z</time>
      </trkpt>
      <trkpt lat="48.56651" lon="1.916">
        <ele>126</ele>
        <time>2022-03-27T11:10:55Z</time>
      </trkpt>
      <trkpt lat="48.56652" lon="1.91605">
        <ele>126</ele>
        <time>2022-03-27T11:10:57Z</time>
      </trkpt>
      <trkpt lat="48.56652" lon="1.9161">
        <ele>125</ele>
        <time>2022-03-27T11:10:59Z</time>
      </trkpt>
      <trkpt lat="48.56653" lon="1.91616">
        <ele>125</ele>
        <time>2022-03-27T11:11:01Z</time>
      </trkpt>
      <trkpt lat="48.56653" lon="1.91618">
        <ele>125</ele>
        <time>2022-03-27T11:11:02Z</time>
      </trkpt>
      <trkpt lat="48.56653" lon="1.91624">
        <ele>125</ele>
        <time>2022-03-27T11:11:04Z</time>
      </trkpt>
      <trkpt lat="48.56653" lon="1.91628">
        <ele>125</ele>
        <time>2022-03-27T11:11:06Z</time>
      </trkpt>
      <trkpt lat="48.56654" lon="1.91633">
        <ele>125</ele>
        <time>2022-03-27T11:11:08Z</time>
      </trkpt>
      <trkpt lat="48.56654" lon="1.91638">
        <ele>125</ele>
        <time>2022-03-27T11:11:10Z</time>
      </trkpt>
      <trkpt lat="48.56655" lon="1.91642">
        <ele>125</ele>
        <time>2022-03-27T11:11:12Z</time>
      </trkpt>
      <trkpt lat="48.56655" lon="1.91647">
        <ele>125</ele>
        <time>2022-03-27T11:11:14Z</time>
      </trkpt>
      <trkpt lat="48.56655" lon="1.91652">
        <ele>125</ele>
        <time>2022-03-27T11:11:15Z</time>
      </trkpt>
      <trkpt lat="48.56656" lon="1.91656">
        <ele>124</ele>
        <time>2022-03-27T11:11:17Z</time>
      </trkpt>
      <trkpt lat="48.56657" lon="1.91661">
        <ele>124</ele>
        <time>2022-03-27T11:11:20Z</time>
      </trkpt>
      <trkpt lat="48.56658" lon="1.91665">
        <ele>125</ele>
        <time>2022-03-27T11:11:22Z</time>
      </trkpt>
      <trkpt lat="48.56658" lon="1.91669">
        <ele>124</ele>
        <time>2022-03-27T11:11:24Z</time>
      </trkpt>
      <trkpt lat="48.56659" lon="1.91674">
        <ele>124</ele>
        <time>2022-03-27T11:11:26Z</time>
      </trkpt>
      <trkpt lat="48.56659" lon="1.91678">
        <ele>124</ele>
        <time>2022-03-27T11:11:28Z</time>
      </trkpt>
      <trkpt lat="48.56661" lon="1.91682">
        <ele>124</ele>
        <time>2022-03-27T11:11:30Z</time>
      </trkpt>
      <trkpt lat="48.56661" lon="1.91688">
        <ele>124</ele>
        <time>2022-03-27T11:11:32Z</time>
      </trkpt>
      <trkpt lat="48.56662" lon="1.9169">
        <ele>125</ele>
        <time>2022-03-27T11:11:33Z</time>
      </trkpt>
      <trkpt lat="48.56662" lon="1.91696">
        <ele>124</ele>
        <time>2022-03-27T11:11:35Z</time>
      </trkpt>
      <trkpt lat="48.56663" lon="1.91701">
        <ele>124</ele>
        <time>2022-03-27T11:11:37Z</time>
      </trkpt>
      <trkpt lat="48.56664" lon="1.91706">
        <ele>124</ele>
        <time>2022-03-27T11:11:39Z</time>
      </trkpt>
      <trkpt lat="48.56665" lon="1.9171">
        <ele>124</ele>
        <time>2022-03-27T11:11:41Z</time>
      </trkpt>
      <trkpt lat="48.56666" lon="1.91715">
        <ele>124</ele>
        <time>2022-03-27T11:11:43Z</time>
      </trkpt>
      <trkpt lat="48.56666" lon="1.9172">
        <ele>124</ele>
        <time>2022-03-27T11:11:45Z</time>
      </trkpt>
      <trkpt lat="48.56667" lon="1.91725">
        <ele>124</ele>
        <time>2022-03-27T11:11:47Z</time>
      </trkpt>
      <trkpt lat="48.56668" lon="1.9173">
        <ele>124</ele>
        <time>2022-03-27T11:11:49Z</time>
      </trkpt>
      <trkpt lat="48.56669" lon="1.91735">
        <ele>124</ele>
        <time>2022-03-27T11:11:50Z</time>
      </trkpt>
      <trkpt lat="48.5667" lon="1.91739">
        <ele>124</ele>
        <time>2022-03-27T11:11:52Z</time>
      </trkpt>
      <trkpt lat="48.56671" lon="1.91744">
        <ele>124</ele>
        <time>2022-03-27T11:11:54Z</time>
      </trkpt>
      <trkpt lat="48.56672" lon="1.91749">
        <ele>124</ele>
        <time>2022-03-27T11:11:56Z</time>
      </trkpt>
      <trkpt lat="48.56673" lon="1.91751">
        <ele>124</ele>
        <time>2022-03-27T11:11:57Z</time>
      </trkpt>
      <trkpt lat="48.56673" lon="1.91754">
        <ele>124</ele>
        <time>2022-03-27T11:11:58Z</time>
      </trkpt>
      <trkpt lat="48.56674" lon="1.91759">
        <ele>124</ele>
        <time>2022-03-27T11:12:00Z</time>
      </trkpt>
      <trkpt lat="48.56675" lon="1.91764">
        <ele>124</ele>
        <time>2022-03-27T11:12:02Z</time>
      </trkpt>
      <trkpt lat="48.56676" lon="1.91768">
        <ele>124</ele>
        <time>2022-03-27T11:12:04Z</time>
      </trkpt>
      <trkpt lat="48.56677" lon="1.91773">
        <ele>124</ele>
        <time>2022-03-27T11:12:06Z</time>
      </trkpt>
      <trkpt lat="48.56678" lon="1.91777">
        <ele>125</ele>
        <time>2022-03-27T11:12:08Z</time>
      </trkpt>
      <trkpt lat="48.56679" lon="1.91781">
        <ele>124</ele>
        <time>2022-03-27T11:12:11Z</time>
      </trkpt>
      <trkpt lat="48.5668" lon="1.91785">
        <ele>124</ele>
        <time>2022-03-27T11:12:13Z</time>
      </trkpt>
      <trkpt lat="48.5668" lon="1.91789">
        <ele>124</ele>
        <time>2022-03-27T11:12:15Z</time>
      </trkpt>
      <trkpt lat="48.5668" lon="1.91793">
        <ele>124</ele>
        <time>2022-03-27T11:12:17Z</time>
      </trkpt>
      <trkpt lat="48.56681" lon="1.91797">
        <ele>124</ele>
        <time>2022-03-27T11:12:19Z</time>
      </trkpt>
      <trkpt lat="48.56681" lon="1.91801">
        <ele>124</ele>
        <time>2022-03-27T11:12:21Z</time>
      </trkpt>
      <trkpt lat="48.56682" lon="1.91805">
        <ele>124</ele>
        <time>2022-03-27T11:12:22Z</time>
      </trkpt>
      <trkpt lat="48.56682" lon="1.9181">
        <ele>124</ele>
        <time>2022-03-27T11:12:24Z</time>
      </trkpt>
      <trkpt lat="48.56683" lon="1.91815">
        <ele>124</ele>
        <time>2022-03-27T11:12:26Z</time>
      </trkpt>
      <trkpt lat="48.56684" lon="1.9182">
        <ele>124</ele>
        <time>2022-03-27T11:12:28Z</time>
      </trkpt>
      <trkpt lat="48.56684" lon="1.91824">
        <ele>123</ele>
        <time>2022-03-27T11:12:30Z</time>
      </trkpt>
      <trkpt lat="48.56685" lon="1.91829">
        <ele>123</ele>
        <time>2022-03-27T11:12:32Z</time>
      </trkpt>
      <trkpt lat="48.56686" lon="1.91834">
        <ele>123</ele>
        <time>2022-03-27T11:12:34Z</time>
      </trkpt>
      <trkpt lat="48.56687" lon="1.91838">
        <ele>123</ele>
        <time>2022-03-27T11:12:36Z</time>
      </trkpt>
      <trkpt lat="48.56688" lon="1.91843">
        <ele>123</ele>
        <time>2022-03-27T11:12:38Z</time>
      </trkpt>
      <trkpt lat="48.56689" lon="1.91847">
        <ele>123</ele>
        <time>2022-03-27T11:12:40Z</time>
      </trkpt>
      <trkpt lat="48.5669" lon="1.91852">
        <ele>123</ele>
        <time>2022-03-27T11:12:42Z</time>
      </trkpt>
      <trkpt lat="48.56691" lon="1.91856">
        <ele>123</ele>
        <time>2022-03-27T11:12:44Z</time>
      </trkpt>
      <trkpt lat="48.56692" lon="1.91861">
        <ele>123</ele>
        <time>2022-03-27T11:12:46Z</time>
      </trkpt>
      <trkpt lat="48.56693" lon="1.91866">
        <ele>123</ele>
        <time>2022-03-27T11:12:49Z</time>
      </trkpt>
      <trkpt lat="48.56693" lon="1.9187">
        <ele>123</ele>
        <time>2022-03-27T11:12:51Z</time>
      </trkpt>
      <trkpt lat="48.56694" lon="1.91875">
        <ele>123</ele>
        <time>2022-03-27T11:12:53Z</time>
      </trkpt>
      <trkpt lat="48.56695" lon="1.9188">
        <ele>123</ele>
        <time>2022-03-27T11:12:54Z</time>
      </trkpt>
      <trkpt lat="48.56695" lon="1.91885">
        <ele>123</ele>
        <time>2022-03-27T11:12:56Z</time>
      </trkpt>
      <trkpt lat="48.56696" lon="1.9189">
        <ele>123</ele>
        <time>2022-03-27T11:12:58Z</time>
      </trkpt>
      <trkpt lat="48.56696" lon="1.91895">
        <ele>123</ele>
        <time>2022-03-27T11:13:00Z</time>
      </trkpt>
      <trkpt lat="48.56696" lon="1.919">
        <ele>123</ele>
        <time>2022-03-27T11:13:02Z</time>
      </trkpt>
      <trkpt lat="48.56697" lon="1.91905">
        <ele>123</ele>
        <time>2022-03-27T11:13:04Z</time>
      </trkpt>
      <trkpt lat="48.56697" lon="1.9191">
        <ele>123</ele>
        <time>2022-03-27T11:13:06Z</time>
      </trkpt>
      <trkpt lat="48.56698" lon="1.91915">
        <ele>123</ele>
        <time>2022-03-27T11:13:08Z</time>
      </trkpt>
      <trkpt lat="48.56698" lon="1.9192">
        <ele>123</ele>
        <time>2022-03-27T11:13:10Z</time>
      </trkpt>
      <trkpt lat="48.56699" lon="1.91925">
        <ele>123</ele>
        <time>2022-03-27T11:13:12Z</time>
      </trkpt>
      <trkpt lat="48.56699" lon="1.91929">
        <ele>123</ele>
        <time>2022-03-27T11:13:14Z</time>
      </trkpt>
      <trkpt lat="48.567" lon="1.91934">
        <ele>123</ele>
        <time>2022-03-27T11:13:16Z</time>
      </trkpt>
      <trkpt lat="48.56701" lon="1.91939">
        <ele>123</ele>
        <time>2022-03-27T11:13:18Z</time>
      </trkpt>
      <trkpt lat="48.56702" lon="1.91943">
        <ele>123</ele>
        <time>2022-03-27T11:13:20Z</time>
      </trkpt>
      <trkpt lat="48.56703" lon="1.91948">
        <ele>123</ele>
        <time>2022-03-27T11:13:22Z</time>
      </trkpt>
      <trkpt lat="48.56704" lon="1.91952">
        <ele>123</ele>
        <time>2022-03-27T11:13:25Z</time>
      </trkpt>
      <trkpt lat="48.56705" lon="1.91957">
        <ele>123</ele>
        <time>2022-03-27T11:13:27Z</time>
      </trkpt>
      <trkpt lat="48.56706" lon="1.91962">
        <ele>123</ele>
        <time>2022-03-27T11:13:28Z</time>
      </trkpt>
      <trkpt lat="48.56707" lon="1.91966">
        <ele>123</ele>
        <time>2022-03-27T11:13:30Z</time>
      </trkpt>
      <trkpt lat="48.56708" lon="1.91971">
        <ele>123</ele>
        <time>2022-03-27T11:13:32Z</time>
      </trkpt>
      <trkpt lat="48.56708" lon="1.91975">
        <ele>123</ele>
        <time>2022-03-27T11:13:34Z</time>
      </trkpt>
      <trkpt lat="48.56709" lon="1.9198">
        <ele>124</ele>
        <time>2022-03-27T11:13:36Z</time>
      </trkpt>
      <trkpt lat="48.56709" lon="1.91984">
        <ele>124</ele>
        <time>2022-03-27T11:13:38Z</time>
      </trkpt>
      <trkpt lat="48.5671" lon="1.91987">
        <ele>125</ele>
        <time>2022-03-27T11:13:40Z</time>
      </trkpt>
      <trkpt lat="48.56712" lon="1.91991">
        <ele>125</ele>
        <time>2022-03-27T11:13:42Z</time>
      </trkpt>
      <trkpt lat="48.56712" lon="1.91996">
        <ele>125</ele>
        <time>2022-03-27T11:13:44Z</time>
      </trkpt>
      <trkpt lat="48.56712" lon="1.91999">
        <ele>126</ele>
        <time>2022-03-27T11:13:46Z</time>
      </trkpt>
      <trkpt lat="48.56713" lon="1.92004">
        <ele>126</ele>
        <time>2022-03-27T11:13:48Z</time>
      </trkpt>
      <trkpt lat="48.56714" lon="1.92008">
        <ele>126</ele>
        <time>2022-03-27T11:13:50Z</time>
      </trkpt>
      <trkpt lat="48.56717" lon="1.92021">
        <ele>127</ele>
        <time>2022-03-27T11:13:54Z</time>
      </trkpt>
      <trkpt lat="48.56715" lon="1.92028">
        <ele>127</ele>
        <time>2022-03-27T11:13:58Z</time>
      </trkpt>
      <trkpt lat="48.56714" lon="1.92032">
        <ele>128</ele>
        <time>2022-03-27T11:14:00Z</time>
      </trkpt>
      <trkpt lat="48.56716" lon="1.92035">
        <ele>128</ele>
        <time>2022-03-27T11:14:02Z</time>
      </trkpt>
      <trkpt lat="48.56716" lon="1.92038">
        <ele>129</ele>
        <time>2022-03-27T11:14:04Z</time>
      </trkpt>
      <trkpt lat="48.56717" lon="1.92042">
        <ele>129</ele>
        <time>2022-03-27T11:14:06Z</time>
      </trkpt>
      <trkpt lat="48.56717" lon="1.92047">
        <ele>129</ele>
        <time>2022-03-27T11:14:08Z</time>
      </trkpt>
      <trkpt lat="48.56717" lon="1.92051">
        <ele>129</ele>
        <time>2022-03-27T11:14:10Z</time>
      </trkpt>
      <trkpt lat="48.56719" lon="1.92055">
        <ele>129</ele>
        <time>2022-03-27T11:14:12Z</time>
      </trkpt>
      <trkpt lat="48.56719" lon="1.92059">
        <ele>129</ele>
        <time>2022-03-27T11:14:14Z</time>
      </trkpt>
      <trkpt lat="48.56719" lon="1.92063">
        <ele>129</ele>
        <time>2022-03-27T11:14:16Z</time>
      </trkpt>
      <trkpt lat="48.56719" lon="1.92067">
        <ele>129</ele>
        <time>2022-03-27T11:14:18Z</time>
      </trkpt>
      <trkpt lat="48.5672" lon="1.92071">
        <ele>129</ele>
        <time>2022-03-27T11:14:20Z</time>
      </trkpt>
      <trkpt lat="48.56721" lon="1.92074">
        <ele>129</ele>
        <time>2022-03-27T11:14:22Z</time>
      </trkpt>
      <trkpt lat="48.56721" lon="1.92079">
        <ele>129</ele>
        <time>2022-03-27T11:14:24Z</time>
      </trkpt>
      <trkpt lat="48.56721" lon="1.92082">
        <ele>129</ele>
        <time>2022-03-27T11:14:24Z</time>
      </trkpt>
      <trkpt lat="48.56721" lon="1.92086">
        <ele>129</ele>
        <time>2022-03-27T11:14:26Z</time>
      </trkpt>
      <trkpt lat="48.56721" lon="1.92091">
        <ele>129</ele>
        <time>2022-03-27T11:14:28Z</time>
      </trkpt>
      <trkpt lat="48.56721" lon="1.92096">
        <ele>129</ele>
        <time>2022-03-27T11:14:30Z</time>
      </trkpt>
      <trkpt lat="48.56722" lon="1.92101">
        <ele>129</ele>
        <time>2022-03-27T11:14:33Z</time>
      </trkpt>
      <trkpt lat="48.56723" lon="1.92106">
        <ele>129</ele>
        <time>2022-03-27T11:14:35Z</time>
      </trkpt>
      <trkpt lat="48.56723" lon="1.9211">
        <ele>129</ele>
        <time>2022-03-27T11:14:37Z</time>
      </trkpt>
      <trkpt lat="48.56724" lon="1.92115">
        <ele>130</ele>
        <time>2022-03-27T11:14:38Z</time>
      </trkpt>
      <trkpt lat="48.56725" lon="1.92119">
        <ele>130</ele>
        <time>2022-03-27T11:14:41Z</time>
      </trkpt>
      <trkpt lat="48.56726" lon="1.92124">
        <ele>130</ele>
        <time>2022-03-27T11:14:43Z</time>
      </trkpt>
      <trkpt lat="48.56726" lon="1.92128">
        <ele>130</ele>
        <time>2022-03-27T11:14:45Z</time>
      </trkpt>
      <trkpt lat="48.56726" lon="1.92132">
        <ele>130</ele>
        <time>2022-03-27T11:14:46Z</time>
      </trkpt>
      <trkpt lat="48.56726" lon="1.92136">
        <ele>130</ele>
        <time>2022-03-27T11:14:48Z</time>
      </trkpt>
      <trkpt lat="48.56727" lon="1.9214">
        <ele>130</ele>
        <time>2022-03-27T11:14:50Z</time>
      </trkpt>
      <trkpt lat="48.56728" lon="1.92145">
        <ele>130</ele>
        <time>2022-03-27T11:14:52Z</time>
      </trkpt>
      <trkpt lat="48.56728" lon="1.92149">
        <ele>129</ele>
        <time>2022-03-27T11:14:54Z</time>
      </trkpt>
      <trkpt lat="48.56729" lon="1.92154">
        <ele>129</ele>
        <time>2022-03-27T11:14:56Z</time>
      </trkpt>
      <trkpt lat="48.56729" lon="1.92159">
        <ele>129</ele>
        <time>2022-03-27T11:14:58Z</time>
      </trkpt>
      <trkpt lat="48.5673" lon="1.92164">
        <ele>129</ele>
        <time>2022-03-27T11:15:01Z</time>
      </trkpt>
      <trkpt lat="48.56731" lon="1.92169">
        <ele>129</ele>
        <time>2022-03-27T11:15:03Z</time>
      </trkpt>
      <trkpt lat="48.56732" lon="1.92173">
        <ele>129</ele>
        <time>2022-03-27T11:15:04Z</time>
      </trkpt>
      <trkpt lat="48.56733" lon="1.92178">
        <ele>129</ele>
        <time>2022-03-27T11:15:06Z</time>
      </trkpt>
      <trkpt lat="48.56734" lon="1.92183">
        <ele>130</ele>
        <time>2022-03-27T11:15:08Z</time>
      </trkpt>
      <trkpt lat="48.56735" lon="1.92187">
        <ele>130</ele>
        <time>2022-03-27T11:15:10Z</time>
      </trkpt>
      <trkpt lat="48.56736" lon="1.92192">
        <ele>130</ele>
        <time>2022-03-27T11:15:12Z</time>
      </trkpt>
      <trkpt lat="48.56737" lon="1.92196">
        <ele>130</ele>
        <time>2022-03-27T11:15:14Z</time>
      </trkpt>
      <trkpt lat="48.56737" lon="1.922">
        <ele>130</ele>
        <time>2022-03-27T11:15:16Z</time>
      </trkpt>
      <trkpt lat="48.56738" lon="1.92204">
        <ele>130</ele>
        <time>2022-03-27T11:15:18Z</time>
      </trkpt>
      <trkpt lat="48.56739" lon="1.92206">
        <ele>130</ele>
        <time>2022-03-27T11:15:19Z</time>
      </trkpt>
      <trkpt lat="48.56739" lon="1.92209">
        <ele>130</ele>
        <time>2022-03-27T11:15:21Z</time>
      </trkpt>
      <trkpt lat="48.56739" lon="1.92215">
        <ele>130</ele>
        <time>2022-03-27T11:15:22Z</time>
      </trkpt>
      <trkpt lat="48.56739" lon="1.9222">
        <ele>130</ele>
        <time>2022-03-27T11:15:24Z</time>
      </trkpt>
      <trkpt lat="48.56738" lon="1.92225">
        <ele>130</ele>
        <time>2022-03-27T11:15:26Z</time>
      </trkpt>
      <trkpt lat="48.56739" lon="1.92229">
        <ele>130</ele>
        <time>2022-03-27T11:15:28Z</time>
      </trkpt>
      <trkpt lat="48.5674" lon="1.92234">
        <ele>130</ele>
        <time>2022-03-27T11:15:30Z</time>
      </trkpt>
      <trkpt lat="48.5674" lon="1.92238">
        <ele>130</ele>
        <time>2022-03-27T11:15:32Z</time>
      </trkpt>
      <trkpt lat="48.5674" lon="1.92243">
        <ele>130</ele>
        <time>2022-03-27T11:15:35Z</time>
      </trkpt>
      <trkpt lat="48.5674" lon="1.92248">
        <ele>130</ele>
        <time>2022-03-27T11:15:37Z</time>
      </trkpt>
      <trkpt lat="48.5674" lon="1.92252">
        <ele>129</ele>
        <time>2022-03-27T11:15:39Z</time>
      </trkpt>
      <trkpt lat="48.56741" lon="1.92257">
        <ele>130</ele>
        <time>2022-03-27T11:15:41Z</time>
      </trkpt>
      <trkpt lat="48.56741" lon="1.92262">
        <ele>129</ele>
        <time>2022-03-27T11:15:43Z</time>
      </trkpt>
      <trkpt lat="48.56741" lon="1.92267">
        <ele>129</ele>
        <time>2022-03-27T11:15:45Z</time>
      </trkpt>
      <trkpt lat="48.56742" lon="1.92272">
        <ele>129</ele>
        <time>2022-03-27T11:15:47Z</time>
      </trkpt>
      <trkpt lat="48.56742" lon="1.92277">
        <ele>128</ele>
        <time>2022-03-27T11:15:49Z</time>
      </trkpt>
      <trkpt lat="48.56742" lon="1.92282">
        <ele>128</ele>
        <time>2022-03-27T11:15:51Z</time>
      </trkpt>
      <trkpt lat="48.56743" lon="1.92286">
        <ele>127</ele>
        <time>2022-03-27T11:15:53Z</time>
      </trkpt>
      <trkpt lat="48.56744" lon="1.92291">
        <ele>127</ele>
        <time>2022-03-27T11:15:55Z</time>
      </trkpt>
      <trkpt lat="48.56745" lon="1.92296">
        <ele>127</ele>
        <time>2022-03-27T11:15:57Z</time>
      </trkpt>
      <trkpt lat="48.56745" lon="1.92299">
        <ele>127</ele>
        <time>2022-03-27T11:15:59Z</time>
      </trkpt>
      <trkpt lat="48.56746" lon="1.92304">
        <ele>127</ele>
        <time>2022-03-27T11:16:00Z</time>
      </trkpt>
      <trkpt lat="48.56747" lon="1.92308">
        <ele>127</ele>
        <time>2022-03-27T11:16:02Z</time>
      </trkpt>
      <trkpt lat="48.56747" lon="1.92312">
        <ele>127</ele>
        <time>2022-03-27T11:16:04Z</time>
      </trkpt>
      <trkpt lat="48.56748" lon="1.92317">
        <ele>127</ele>
        <time>2022-03-27T11:16:07Z</time>
      </trkpt>
      <trkpt lat="48.56748" lon="1.92321">
        <ele>127</ele>
        <time>2022-03-27T11:16:09Z</time>
      </trkpt>
      <trkpt lat="48.56749" lon="1.92326">
        <ele>127</ele>
        <time>2022-03-27T11:16:11Z</time>
      </trkpt>
      <trkpt lat="48.56749" lon="1.92331">
        <ele>127</ele>
        <time>2022-03-27T11:16:13Z</time>
      </trkpt>
      <trkpt lat="48.5675" lon="1.92336">
        <ele>127</ele>
        <time>2022-03-27T11:16:15Z</time>
      </trkpt>
      <trkpt lat="48.56751" lon="1.92341">
        <ele>127</ele>
        <time>2022-03-27T11:16:17Z</time>
      </trkpt>
      <trkpt lat="48.56751" lon="1.92344">
        <ele>127</ele>
        <time>2022-03-27T11:16:18Z</time>
      </trkpt>
      <trkpt lat="48.56752" lon="1.92349">
        <ele>127</ele>
        <time>2022-03-27T11:16:20Z</time>
      </trkpt>
      <trkpt lat="48.56752" lon="1.92354">
        <ele>127</ele>
        <time>2022-03-27T11:16:22Z</time>
      </trkpt>
      <trkpt lat="48.56753" lon="1.92359">
        <ele>128</ele>
        <time>2022-03-27T11:16:24Z</time>
      </trkpt>
      <trkpt lat="48.56752" lon="1.92361">
        <ele>128</ele>
        <time>2022-03-27T11:16:26Z</time>
      </trkpt>
      <trkpt lat="48.56751" lon="1.92364">
        <ele>128</ele>
        <time>2022-03-27T11:16:35Z</time>
      </trkpt>
      <trkpt lat="48.5675" lon="1.92367">
        <ele>129</ele>
        <time>2022-03-27T11:16:56Z</time>
      </trkpt>
      <trkpt lat="48.56749" lon="1.92372">
        <ele>129</ele>
        <time>2022-03-27T11:16:58Z</time>
      </trkpt>
      <trkpt lat="48.56749" lon="1.92377">
        <ele>129</ele>
        <time>2022-03-27T11:17:00Z</time>
      </trkpt>
      <trkpt lat="48.5675" lon="1.92381">
        <ele>129</ele>
        <time>2022-03-27T11:17:02Z</time>
      </trkpt>
      <trkpt lat="48.56751" lon="1.92385">
        <ele>128</ele>
        <time>2022-03-27T11:17:04Z</time>
      </trkpt>
      <trkpt lat="48.56753" lon="1.92388">
        <ele>128</ele>
        <time>2022-03-27T11:17:05Z</time>
      </trkpt>
      <trkpt lat="48.56754" lon="1.9239">
        <ele>127</ele>
        <time>2022-03-27T11:17:08Z</time>
      </trkpt>
      <trkpt lat="48.56756" lon="1.9239">
        <ele>127</ele>
        <time>2022-03-27T11:17:11Z</time>
      </trkpt>
      <trkpt lat="48.56756" lon="1.92393">
        <ele>126</ele>
        <time>2022-03-27T11:17:15Z</time>
      </trkpt>
      <trkpt lat="48.56756" lon="1.92396">
        <ele>127</ele>
        <time>2022-03-27T11:17:18Z</time>
      </trkpt>
      <trkpt lat="48.56757" lon="1.92399">
        <ele>127</ele>
        <time>2022-03-27T11:17:20Z</time>
      </trkpt>
      <trkpt lat="48.56759" lon="1.92403">
        <ele>127</ele>
        <time>2022-03-27T11:17:22Z</time>
      </trkpt>
      <trkpt lat="48.56761" lon="1.92407">
        <ele>126</ele>
        <time>2022-03-27T11:17:24Z</time>
      </trkpt>
      <trkpt lat="48.56762" lon="1.92411">
        <ele>126</ele>
        <time>2022-03-27T11:17:26Z</time>
      </trkpt>
      <trkpt lat="48.56763" lon="1.92416">
        <ele>126</ele>
        <time>2022-03-27T11:17:28Z</time>
      </trkpt>
      <trkpt lat="48.56764" lon="1.9242">
        <ele>126</ele>
        <time>2022-03-27T11:17:30Z</time>
      </trkpt>
      <trkpt lat="48.56765" lon="1.92424">
        <ele>126</ele>
        <time>2022-03-27T11:17:32Z</time>
      </trkpt>
      <trkpt lat="48.56766" lon="1.92429">
        <ele>126</ele>
        <time>2022-03-27T11:17:34Z</time>
      </trkpt>
      <trkpt lat="48.56766" lon="1.92433">
        <ele>126</ele>
        <time>2022-03-27T11:17:36Z</time>
      </trkpt>
      <trkpt lat="48.56766" lon="1.92438">
        <ele>126</ele>
        <time>2022-03-27T11:17:38Z</time>
      </trkpt>
      <trkpt lat="48.56766" lon="1.92443">
        <ele>126</ele>
        <time>2022-03-27T11:17:40Z</time>
      </trkpt>
      <trkpt lat="48.56766" lon="1.92447">
        <ele>126</ele>
        <time>2022-03-27T11:17:42Z</time>
      </trkpt>
      <trkpt lat="48.56766" lon="1.92452">
        <ele>126</ele>
        <time>2022-03-27T11:17:44Z</time>
      </trkpt>
      <trkpt lat="48.56766" lon="1.92457">
        <ele>126</ele>
        <time>2022-03-27T11:17:47Z</time>
      </trkpt>
      <trkpt lat="48.56765" lon="1.92461">
        <ele>126</ele>
        <time>2022-03-27T11:17:49Z</time>
      </trkpt>
      <trkpt lat="48.56765" lon="1.92466">
        <ele>126</ele>
        <time>2022-03-27T11:17:51Z</time>
      </trkpt>
      <trkpt lat="48.56763" lon="1.9247">
        <ele>126</ele>
        <time>2022-03-27T11:17:53Z</time>
      </trkpt>
      <trkpt lat="48.56762" lon="1.92473">
        <ele>126</ele>
        <time>2022-03-27T11:17:55Z</time>
      </trkpt>
      <trkpt lat="48.56761" lon="1.92477">
        <ele>126</ele>
        <time>2022-03-27T11:17:57Z</time>
      </trkpt>
      <trkpt lat="48.5676" lon="1.92481">
        <ele>127</ele>
        <time>2022-03-27T11:17:59Z</time>
      </trkpt>
      <trkpt lat="48.56758" lon="1.92486">
        <ele>127</ele>
        <time>2022-03-27T11:18:01Z</time>
      </trkpt>
      <trkpt lat="48.56757" lon="1.9249">
        <ele>127</ele>
        <time>2022-03-27T11:18:03Z</time>
      </trkpt>
      <trkpt lat="48.56758" lon="1.92493">
        <ele>127</ele>
        <time>2022-03-27T11:18:05Z</time>
      </trkpt>
      <trkpt lat="48.56757" lon="1.92498">
        <ele>128</ele>
        <time>2022-03-27T11:18:07Z</time>
      </trkpt>
      <trkpt lat="48.56756" lon="1.92501">
        <ele>127</ele>
        <time>2022-03-27T11:18:08Z</time>
      </trkpt>
      <trkpt lat="48.56755" lon="1.92504">
        <ele>127</ele>
        <time>2022-03-27T11:18:09Z</time>
      </trkpt>
      <trkpt lat="48.56754" lon="1.92507">
        <ele>127</ele>
        <time>2022-03-27T11:18:10Z</time>
      </trkpt>
      <trkpt lat="48.5675" lon="1.92509">
        <ele>127</ele>
        <time>2022-03-27T11:18:11Z</time>
      </trkpt>
      <trkpt lat="48.56749" lon="1.92511">
        <ele>127</ele>
        <time>2022-03-27T11:18:12Z</time>
      </trkpt>
      <trkpt lat="48.56748" lon="1.92513">
        <ele>127</ele>
        <time>2022-03-27T11:18:13Z</time>
      </trkpt>
      <trkpt lat="48.56746" lon="1.92515">
        <ele>127</ele>
        <time>2022-03-27T11:18:14Z</time>
      </trkpt>
      <trkpt lat="48.56743" lon="1.92518">
        <ele>127</ele>
        <time>2022-03-27T11:18:16Z</time>
      </trkpt>
      <trkpt lat="48.5674" lon="1.92521">
        <ele>127</ele>
        <time>2022-03-27T11:18:17Z</time>
      </trkpt>
      <trkpt lat="48.56738" lon="1.92523">
        <ele>128</ele>
        <time>2022-03-27T11:18:19Z</time>
      </trkpt>
      <trkpt lat="48.56736" lon="1.92525">
        <ele>127</ele>
        <time>2022-03-27T11:18:20Z</time>
      </trkpt>
      <trkpt lat="48.56734" lon="1.92528">
        <ele>127</ele>
        <time>2022-03-27T11:18:22Z</time>
      </trkpt>
      <trkpt lat="48.56733" lon="1.9253">
        <ele>127</ele>
        <time>2022-03-27T11:18:23Z</time>
      </trkpt>
      <trkpt lat="48.56731" lon="1.92534">
        <ele>127</ele>
        <time>2022-03-27T11:18:25Z</time>
      </trkpt>
      <trkpt lat="48.5673" lon="1.92537">
        <ele>127</ele>
        <time>2022-03-27T11:18:26Z</time>
      </trkpt>
      <trkpt lat="48.56729" lon="1.92539">
        <ele>127</ele>
        <time>2022-03-27T11:18:27Z</time>
      </trkpt>
      <trkpt lat="48.56727" lon="1.92543">
        <ele>127</ele>
        <time>2022-03-27T11:18:29Z</time>
      </trkpt>
      <trkpt lat="48.56726" lon="1.92545">
        <ele>127</ele>
        <time>2022-03-27T11:18:31Z</time>
      </trkpt>
      <trkpt lat="48.56723" lon="1.92549">
        <ele>127</ele>
        <time>2022-03-27T11:18:32Z</time>
      </trkpt>
      <trkpt lat="48.56721" lon="1.92553">
        <ele>127</ele>
        <time>2022-03-27T11:18:34Z</time>
      </trkpt>
      <trkpt lat="48.5672" lon="1.92557">
        <ele>127</ele>
        <time>2022-03-27T11:18:36Z</time>
      </trkpt>
      <trkpt lat="48.56719" lon="1.92561">
        <ele>127</ele>
        <time>2022-03-27T11:18:38Z</time>
      </trkpt>
      <trkpt lat="48.56717" lon="1.92565">
        <ele>126</ele>
        <time>2022-03-27T11:18:40Z</time>
      </trkpt>
      <trkpt lat="48.56716" lon="1.92568">
        <ele>126</ele>
        <time>2022-03-27T11:18:42Z</time>
      </trkpt>
      <trkpt lat="48.56714" lon="1.92572">
        <ele>126</ele>
        <time>2022-03-27T11:18:44Z</time>
      </trkpt>
      <trkpt lat="48.56714" lon="1.92576">
        <ele>127</ele>
        <time>2022-03-27T11:18:47Z</time>
      </trkpt>
      <trkpt lat="48.56712" lon="1.9258">
        <ele>127</ele>
        <time>2022-03-27T11:18:49Z</time>
      </trkpt>
      <trkpt lat="48.56711" lon="1.92584">
        <ele>127</ele>
        <time>2022-03-27T11:18:51Z</time>
      </trkpt>
      <trkpt lat="48.5671" lon="1.92587">
        <ele>127</ele>
        <time>2022-03-27T11:18:53Z</time>
      </trkpt>
      <trkpt lat="48.56709" lon="1.92591">
        <ele>127</ele>
        <time>2022-03-27T11:18:55Z</time>
      </trkpt>
      <trkpt lat="48.56707" lon="1.92595">
        <ele>127</ele>
        <time>2022-03-27T11:18:57Z</time>
      </trkpt>
      <trkpt lat="48.56705" lon="1.92599">
        <ele>128</ele>
        <time>2022-03-27T11:18:59Z</time>
      </trkpt>
      <trkpt lat="48.56703" lon="1.92603">
        <ele>127</ele>
        <time>2022-03-27T11:19:01Z</time>
      </trkpt>
      <trkpt lat="48.56701" lon="1.92607">
        <ele>127</ele>
        <time>2022-03-27T11:19:03Z</time>
      </trkpt>
      <trkpt lat="48.56699" lon="1.92611">
        <ele>127</ele>
        <time>2022-03-27T11:19:05Z</time>
      </trkpt>
      <trkpt lat="48.56697" lon="1.92615">
        <ele>127</ele>
        <time>2022-03-27T11:19:07Z</time>
      </trkpt>
      <trkpt lat="48.56695" lon="1.92618">
        <ele>127</ele>
        <time>2022-03-27T11:19:09Z</time>
      </trkpt>
      <trkpt lat="48.56693" lon="1.92622">
        <ele>127</ele>
        <time>2022-03-27T11:19:10Z</time>
      </trkpt>
      <trkpt lat="48.56691" lon="1.92626">
        <ele>127</ele>
        <time>2022-03-27T11:19:12Z</time>
      </trkpt>
      <trkpt lat="48.5669" lon="1.9263">
        <ele>127</ele>
        <time>2022-03-27T11:19:14Z</time>
      </trkpt>
      <trkpt lat="48.56688" lon="1.92635">
        <ele>126</ele>
        <time>2022-03-27T11:19:16Z</time>
      </trkpt>
      <trkpt lat="48.56686" lon="1.92639">
        <ele>126</ele>
        <time>2022-03-27T11:19:18Z</time>
      </trkpt>
      <trkpt lat="48.56684" lon="1.92643">
        <ele>126</ele>
        <time>2022-03-27T11:19:21Z</time>
      </trkpt>
      <trkpt lat="48.56683" lon="1.92647">
        <ele>126</ele>
        <time>2022-03-27T11:19:23Z</time>
      </trkpt>
      <trkpt lat="48.56681" lon="1.92652">
        <ele>125</ele>
        <time>2022-03-27T11:19:25Z</time>
      </trkpt>
      <trkpt lat="48.56679" lon="1.92656">
        <ele>126</ele>
        <time>2022-03-27T11:19:27Z</time>
      </trkpt>
      <trkpt lat="48.56677" lon="1.9266">
        <ele>125</ele>
        <time>2022-03-27T11:19:29Z</time>
      </trkpt>
      <trkpt lat="48.56675" lon="1.92664">
        <ele>125</ele>
        <time>2022-03-27T11:19:31Z</time>
      </trkpt>
      <trkpt lat="48.56672" lon="1.92667">
        <ele>125</ele>
        <time>2022-03-27T11:19:33Z</time>
      </trkpt>
      <trkpt lat="48.56669" lon="1.92669">
        <ele>125</ele>
        <time>2022-03-27T11:19:35Z</time>
      </trkpt>
      <trkpt lat="48.56667" lon="1.9267">
        <ele>124</ele>
        <time>2022-03-27T11:19:37Z</time>
      </trkpt>
      <trkpt lat="48.56664" lon="1.92669">
        <ele>124</ele>
        <time>2022-03-27T11:19:39Z</time>
      </trkpt>
      <trkpt lat="48.56662" lon="1.92666">
        <ele>124</ele>
        <time>2022-03-27T11:19:41Z</time>
      </trkpt>
      <trkpt lat="48.56661" lon="1.92663">
        <ele>124</ele>
        <time>2022-03-27T11:19:43Z</time>
      </trkpt>
      <trkpt lat="48.56661" lon="1.92658">
        <ele>124</ele>
        <time>2022-03-27T11:19:45Z</time>
      </trkpt>
      <trkpt lat="48.5666" lon="1.92654">
        <ele>124</ele>
        <time>2022-03-27T11:19:47Z</time>
      </trkpt>
      <trkpt lat="48.5666" lon="1.92649">
        <ele>124</ele>
        <time>2022-03-27T11:19:49Z</time>
      </trkpt>
      <trkpt lat="48.5666" lon="1.92645">
        <ele>124</ele>
        <time>2022-03-27T11:19:51Z</time>
      </trkpt>
      <trkpt lat="48.5666" lon="1.9264">
        <ele>124</ele>
        <time>2022-03-27T11:19:52Z</time>
      </trkpt>
      <trkpt lat="48.5666" lon="1.92636">
        <ele>124</ele>
        <time>2022-03-27T11:19:54Z</time>
      </trkpt>
      <trkpt lat="48.5666" lon="1.92631">
        <ele>124</ele>
        <time>2022-03-27T11:19:56Z</time>
      </trkpt>
      <trkpt lat="48.5666" lon="1.92627">
        <ele>124</ele>
        <time>2022-03-27T11:19:58Z</time>
      </trkpt>
      <trkpt lat="48.5666" lon="1.92623">
        <ele>124</ele>
        <time>2022-03-27T11:20:00Z</time>
      </trkpt>
      <trkpt lat="48.5666" lon="1.92618">
        <ele>123</ele>
        <time>2022-03-27T11:20:02Z</time>
      </trkpt>
      <trkpt lat="48.56661" lon="1.92613">
        <ele>123</ele>
        <time>2022-03-27T11:20:04Z</time>
      </trkpt>
      <trkpt lat="48.56661" lon="1.92608">
        <ele>123</ele>
        <time>2022-03-27T11:20:06Z</time>
      </trkpt>
      <trkpt lat="48.56662" lon="1.92603">
        <ele>123</ele>
        <time>2022-03-27T11:20:08Z</time>
      </trkpt>
      <trkpt lat="48.56662" lon="1.92598">
        <ele>123</ele>
        <time>2022-03-27T11:20:10Z</time>
      </trkpt>
      <trkpt lat="48.56663" lon="1.92593">
        <ele>123</ele>
        <time>2022-03-27T11:20:12Z</time>
      </trkpt>
      <trkpt lat="48.56664" lon="1.92588">
        <ele>123</ele>
        <time>2022-03-27T11:20:14Z</time>
      </trkpt>
      <trkpt lat="48.56665" lon="1.92584">
        <ele>123</ele>
        <time>2022-03-27T11:20:16Z</time>
      </trkpt>
      <trkpt lat="48.56665" lon="1.92579">
        <ele>123</ele>
        <time>2022-03-27T11:20:18Z</time>
      </trkpt>
      <trkpt lat="48.56666" lon="1.92576">
        <ele>123</ele>
        <time>2022-03-27T11:20:20Z</time>
      </trkpt>
      <trkpt lat="48.56667" lon="1.92572">
        <ele>123</ele>
        <time>2022-03-27T11:20:22Z</time>
      </trkpt>
      <trkpt lat="48.56668" lon="1.92567">
        <ele>123</ele>
        <time>2022-03-27T11:20:25Z</time>
      </trkpt>
      <trkpt lat="48.56668" lon="1.92565">
        <ele>123</ele>
        <time>2022-03-27T11:20:25Z</time>
      </trkpt>
      <trkpt lat="48.5667" lon="1.9256">
        <ele>124</ele>
        <time>2022-03-27T11:20:27Z</time>
      </trkpt>
      <trkpt lat="48.56671" lon="1.92555">
        <ele>124</ele>
        <time>2022-03-27T11:20:29Z</time>
      </trkpt>
      <trkpt lat="48.56671" lon="1.92551">
        <ele>124</ele>
        <time>2022-03-27T11:20:31Z</time>
      </trkpt>
      <trkpt lat="48.56672" lon="1.92547">
        <ele>124</ele>
        <time>2022-03-27T11:20:33Z</time>
      </trkpt>
      <trkpt lat="48.56673" lon="1.92542">
        <ele>124</ele>
        <time>2022-03-27T11:20:35Z</time>
      </trkpt>
      <trkpt lat="48.56674" lon="1.92538">
        <ele>124</ele>
        <time>2022-03-27T11:20:37Z</time>
      </trkpt>
      <trkpt lat="48.56674" lon="1.92533">
        <ele>124</ele>
        <time>2022-03-27T11:20:39Z</time>
      </trkpt>
      <trkpt lat="48.56675" lon="1.92529">
        <ele>124</ele>
        <time>2022-03-27T11:20:41Z</time>
      </trkpt>
      <trkpt lat="48.56676" lon="1.92524">
        <ele>124</ele>
        <time>2022-03-27T11:20:44Z</time>
      </trkpt>
      <trkpt lat="48.56677" lon="1.9252">
        <ele>124</ele>
        <time>2022-03-27T11:20:46Z</time>
      </trkpt>
      <trkpt lat="48.56677" lon="1.92515">
        <ele>125</ele>
        <time>2022-03-27T11:20:48Z</time>
      </trkpt>
      <trkpt lat="48.56678" lon="1.9251">
        <ele>125</ele>
        <time>2022-03-27T11:20:50Z</time>
      </trkpt>
      <trkpt lat="48.56679" lon="1.92506">
        <ele>125</ele>
        <time>2022-03-27T11:20:52Z</time>
      </trkpt>
      <trkpt lat="48.5668" lon="1.92502">
        <ele>125</ele>
        <time>2022-03-27T11:20:54Z</time>
      </trkpt>
      <trkpt lat="48.5668" lon="1.92497">
        <ele>125</ele>
        <time>2022-03-27T11:20:56Z</time>
      </trkpt>
      <trkpt lat="48.56681" lon="1.92493">
        <ele>126</ele>
        <time>2022-03-27T11:20:57Z</time>
      </trkpt>
      <trkpt lat="48.56682" lon="1.92488">
        <ele>126</ele>
        <time>2022-03-27T11:20:59Z</time>
      </trkpt>
      <trkpt lat="48.56682" lon="1.92484">
        <ele>126</ele>
        <time>2022-03-27T11:21:01Z</time>
      </trkpt>
      <trkpt lat="48.56683" lon="1.92479">
        <ele>126</ele>
        <time>2022-03-27T11:21:03Z</time>
      </trkpt>
      <trkpt lat="48.56683" lon="1.92475">
        <ele>127</ele>
        <time>2022-03-27T11:21:05Z</time>
      </trkpt>
      <trkpt lat="48.56683" lon="1.9247">
        <ele>127</ele>
        <time>2022-03-27T11:21:07Z</time>
      </trkpt>
      <trkpt lat="48.56683" lon="1.92465">
        <ele>127</ele>
        <time>2022-03-27T11:21:09Z</time>
      </trkpt>
      <trkpt lat="48.56683" lon="1.92461">
        <ele>127</ele>
        <time>2022-03-27T11:21:11Z</time>
      </trkpt>
      <trkpt lat="48.56683" lon="1.92456">
        <ele>128</ele>
        <time>2022-03-27T11:21:13Z</time>
      </trkpt>
      <trkpt lat="48.56682" lon="1.92451">
        <ele>128</ele>
        <time>2022-03-27T11:21:15Z</time>
      </trkpt>
      <trkpt lat="48.56681" lon="1.92447">
        <ele>128</ele>
        <time>2022-03-27T11:21:17Z</time>
      </trkpt>
      <trkpt lat="48.5668" lon="1.92443">
        <ele>128</ele>
        <time>2022-03-27T11:21:19Z</time>
      </trkpt>
      <trkpt lat="48.56679" lon="1.92439">
        <ele>128</ele>
        <time>2022-03-27T11:21:22Z</time>
      </trkpt>
      <trkpt lat="48.56679" lon="1.92434">
        <ele>128</ele>
        <time>2022-03-27T11:21:24Z</time>
      </trkpt>
      <trkpt lat="48.56678" lon="1.9243">
        <ele>129</ele>
        <time>2022-03-27T11:21:26Z</time>
      </trkpt>
      <trkpt lat="48.56676" lon="1.92426">
        <ele>129</ele>
        <time>2022-03-27T11:21:28Z</time>
      </trkpt>
      <trkpt lat="48.56675" lon="1.92421">
        <ele>129</ele>
        <time>2022-03-27T11:21:29Z</time>
      </trkpt>
      <trkpt lat="48.56674" lon="1.92417">
        <ele>129</ele>
        <time>2022-03-27T11:21:31Z</time>
      </trkpt>
      <trkpt lat="48.56673" lon="1.92412">
        <ele>129</ele>
        <time>2022-03-27T11:21:33Z</time>
      </trkpt>
      <trkpt lat="48.56671" lon="1.92408">
        <ele>129</ele>
        <time>2022-03-27T11:21:35Z</time>
      </trkpt>
      <trkpt lat="48.5667" lon="1.92404">
        <ele>129</ele>
        <time>2022-03-27T11:21:37Z</time>
      </trkpt>
      <trkpt lat="48.56669" lon="1.92399">
        <ele>129</ele>
        <time>2022-03-27T11:21:39Z</time>
      </trkpt>
      <trkpt lat="48.56668" lon="1.92395">
        <ele>130</ele>
        <time>2022-03-27T11:21:41Z</time>
      </trkpt>
      <trkpt lat="48.56666" lon="1.92391">
        <ele>130</ele>
        <time>2022-03-27T11:21:43Z</time>
      </trkpt>
      <trkpt lat="48.56665" lon="1.92387">
        <ele>130</ele>
        <time>2022-03-27T11:21:45Z</time>
      </trkpt>
      <trkpt lat="48.56663" lon="1.92383">
        <ele>130</ele>
        <time>2022-03-27T11:21:47Z</time>
      </trkpt>
      <trkpt lat="48.56662" lon="1.92379">
        <ele>130</ele>
        <time>2022-03-27T11:21:49Z</time>
      </trkpt>
      <trkpt lat="48.56661" lon="1.92375">
        <ele>130</ele>
        <time>2022-03-27T11:21:51Z</time>
      </trkpt>
      <trkpt lat="48.56659" lon="1.92371">
        <ele>130</ele>
        <time>2022-03-27T11:21:53Z</time>
      </trkpt>
      <trkpt lat="48.56657" lon="1.92368">
        <ele>130</ele>
        <time>2022-03-27T11:21:55Z</time>
      </trkpt>
      <trkpt lat="48.56655" lon="1.92364">
        <ele>130</ele>
        <time>2022-03-27T11:21:57Z</time>
      </trkpt>
      <trkpt lat="48.56653" lon="1.92361">
        <ele>130</ele>
        <time>2022-03-27T11:22:00Z</time>
      </trkpt>
      <trkpt lat="48.56651" lon="1.92357">
        <ele>130</ele>
        <time>2022-03-27T11:22:02Z</time>
      </trkpt>
      <trkpt lat="48.56649" lon="1.92353">
        <ele>131</ele>
        <time>2022-03-27T11:22:04Z</time>
      </trkpt>
      <trkpt lat="48.56648" lon="1.92349">
        <ele>131</ele>
        <time>2022-03-27T11:22:06Z</time>
      </trkpt>
      <trkpt lat="48.56646" lon="1.92346">
        <ele>131</ele>
        <time>2022-03-27T11:22:08Z</time>
      </trkpt>
      <trkpt lat="48.56643" lon="1.92344">
        <ele>131</ele>
        <time>2022-03-27T11:22:10Z</time>
      </trkpt>
      <trkpt lat="48.5664" lon="1.92343">
        <ele>131</ele>
        <time>2022-03-27T11:22:12Z</time>
      </trkpt>
      <trkpt lat="48.56637" lon="1.92343">
        <ele>131</ele>
        <time>2022-03-27T11:22:14Z</time>
      </trkpt>
      <trkpt lat="48.56634" lon="1.92342">
        <ele>131</ele>
        <time>2022-03-27T11:22:16Z</time>
      </trkpt>
      <trkpt lat="48.56631" lon="1.92339">
        <ele>131</ele>
        <time>2022-03-27T11:22:18Z</time>
      </trkpt>
      <trkpt lat="48.56629" lon="1.92337">
        <ele>131</ele>
        <time>2022-03-27T11:22:20Z</time>
      </trkpt>
      <trkpt lat="48.56627" lon="1.92334">
        <ele>132</ele>
        <time>2022-03-27T11:22:22Z</time>
      </trkpt>
      <trkpt lat="48.56624" lon="1.92331">
        <ele>132</ele>
        <time>2022-03-27T11:22:24Z</time>
      </trkpt>
      <trkpt lat="48.56621" lon="1.92331">
        <ele>132</ele>
        <time>2022-03-27T11:22:26Z</time>
      </trkpt>
      <trkpt lat="48.56618" lon="1.92329">
        <ele>132</ele>
        <time>2022-03-27T11:22:28Z</time>
      </trkpt>
      <trkpt lat="48.56615" lon="1.92327">
        <ele>133</ele>
        <time>2022-03-27T11:22:30Z</time>
      </trkpt>
      <trkpt lat="48.56612" lon="1.92326">
        <ele>133</ele>
        <time>2022-03-27T11:22:32Z</time>
      </trkpt>
      <trkpt lat="48.56609" lon="1.92324">
        <ele>134</ele>
        <time>2022-03-27T11:22:33Z</time>
      </trkpt>
      <trkpt lat="48.56606" lon="1.92323">
        <ele>134</ele>
        <time>2022-03-27T11:22:35Z</time>
      </trkpt>
      <trkpt lat="48.56603" lon="1.92321">
        <ele>135</ele>
        <time>2022-03-27T11:22:38Z</time>
      </trkpt>
      <trkpt lat="48.566" lon="1.92319">
        <ele>135</ele>
        <time>2022-03-27T11:22:40Z</time>
      </trkpt>
      <trkpt lat="48.56598" lon="1.92317">
        <ele>136</ele>
        <time>2022-03-27T11:22:42Z</time>
      </trkpt>
      <trkpt lat="48.56595" lon="1.92316">
        <ele>136</ele>
        <time>2022-03-27T11:22:44Z</time>
      </trkpt>
      <trkpt lat="48.56592" lon="1.92314">
        <ele>137</ele>
        <time>2022-03-27T11:22:46Z</time>
      </trkpt>
      <trkpt lat="48.56589" lon="1.92313">
        <ele>137</ele>
        <time>2022-03-27T11:22:48Z</time>
      </trkpt>
      <trkpt lat="48.56586" lon="1.92312">
        <ele>138</ele>
        <time>2022-03-27T11:22:50Z</time>
      </trkpt>
      <trkpt lat="48.56583" lon="1.92311">
        <ele>138</ele>
        <time>2022-03-27T11:22:52Z</time>
      </trkpt>
      <trkpt lat="48.5658" lon="1.92311">
        <ele>138</ele>
        <time>2022-03-27T11:22:54Z</time>
      </trkpt>
      <trkpt lat="48.56577" lon="1.92311">
        <ele>138</ele>
        <time>2022-03-27T11:22:56Z</time>
      </trkpt>
      <trkpt lat="48.56575" lon="1.92311">
        <ele>139</ele>
        <time>2022-03-27T11:22:58Z</time>
      </trkpt>
      <trkpt lat="48.56572" lon="1.92312">
        <ele>139</ele>
        <time>2022-03-27T11:23:00Z</time>
      </trkpt>
      <trkpt lat="48.56571" lon="1.92314">
        <ele>139</ele>
        <time>2022-03-27T11:23:02Z</time>
      </trkpt>
      <trkpt lat="48.56569" lon="1.92317">
        <ele>140</ele>
        <time>2022-03-27T11:23:04Z</time>
      </trkpt>
      <trkpt lat="48.56568" lon="1.92321">
        <ele>140</ele>
        <time>2022-03-27T11:23:06Z</time>
      </trkpt>
      <trkpt lat="48.56567" lon="1.92325">
        <ele>140</ele>
        <time>2022-03-27T11:23:08Z</time>
      </trkpt>
      <trkpt lat="48.56565" lon="1.92328">
        <ele>141</ele>
        <time>2022-03-27T11:23:09Z</time>
      </trkpt>
      <trkpt lat="48.56563" lon="1.92332">
        <ele>141</ele>
        <time>2022-03-27T11:23:11Z</time>
      </trkpt>
      <trkpt lat="48.56562" lon="1.92336">
        <ele>142</ele>
        <time>2022-03-27T11:23:13Z</time>
      </trkpt>
      <trkpt lat="48.56561" lon="1.9234">
        <ele>142</ele>
        <time>2022-03-27T11:23:16Z</time>
      </trkpt>
      <trkpt lat="48.5656" lon="1.92344">
        <ele>142</ele>
        <time>2022-03-27T11:23:17Z</time>
      </trkpt>
      <trkpt lat="48.56559" lon="1.92349">
        <ele>143</ele>
        <time>2022-03-27T11:23:19Z</time>
      </trkpt>
      <trkpt lat="48.56558" lon="1.92353">
        <ele>143</ele>
        <time>2022-03-27T11:23:21Z</time>
      </trkpt>
      <trkpt lat="48.56557" lon="1.92358">
        <ele>143</ele>
        <time>2022-03-27T11:23:23Z</time>
      </trkpt>
      <trkpt lat="48.56556" lon="1.92362">
        <ele>144</ele>
        <time>2022-03-27T11:23:25Z</time>
      </trkpt>
      <trkpt lat="48.56554" lon="1.92365">
        <ele>144</ele>
        <time>2022-03-27T11:23:27Z</time>
      </trkpt>
      <trkpt lat="48.56552" lon="1.92368">
        <ele>144</ele>
        <time>2022-03-27T11:23:29Z</time>
      </trkpt>
      <trkpt lat="48.5655" lon="1.9237">
        <ele>145</ele>
        <time>2022-03-27T11:23:31Z</time>
      </trkpt>
      <trkpt lat="48.56547" lon="1.92371">
        <ele>145</ele>
        <time>2022-03-27T11:23:33Z</time>
      </trkpt>
      <trkpt lat="48.56544" lon="1.92372">
        <ele>145</ele>
        <time>2022-03-27T11:23:36Z</time>
      </trkpt>
      <trkpt lat="48.56542" lon="1.92372">
        <ele>145</ele>
        <time>2022-03-27T11:23:37Z</time>
      </trkpt>
      <trkpt lat="48.56539" lon="1.92372">
        <ele>145</ele>
        <time>2022-03-27T11:23:39Z</time>
      </trkpt>
      <trkpt lat="48.56536" lon="1.92374">
        <ele>145</ele>
        <time>2022-03-27T11:23:41Z</time>
      </trkpt>
      <trkpt lat="48.56534" lon="1.92375">
        <ele>145</ele>
        <time>2022-03-27T11:23:42Z</time>
      </trkpt>
      <trkpt lat="48.56531" lon="1.92376">
        <ele>146</ele>
        <time>2022-03-27T11:23:44Z</time>
      </trkpt>
      <trkpt lat="48.56529" lon="1.92379">
        <ele>146</ele>
        <time>2022-03-27T11:23:46Z</time>
      </trkpt>
      <trkpt lat="48.56526" lon="1.92381">
        <ele>146</ele>
        <time>2022-03-27T11:23:48Z</time>
      </trkpt>
      <trkpt lat="48.56524" lon="1.92384">
        <ele>146</ele>
        <time>2022-03-27T11:23:50Z</time>
      </trkpt>
      <trkpt lat="48.56521" lon="1.92387">
        <ele>147</ele>
        <time>2022-03-27T11:23:52Z</time>
      </trkpt>
      <trkpt lat="48.56519" lon="1.9239">
        <ele>147</ele>
        <time>2022-03-27T11:23:55Z</time>
      </trkpt>
      <trkpt lat="48.56517" lon="1.92394">
        <ele>148</ele>
        <time>2022-03-27T11:23:57Z</time>
      </trkpt>
      <trkpt lat="48.56515" lon="1.92397">
        <ele>148</ele>
        <time>2022-03-27T11:23:59Z</time>
      </trkpt>
      <trkpt lat="48.56513" lon="1.92399">
        <ele>148</ele>
        <time>2022-03-27T11:24:01Z</time>
      </trkpt>
      <trkpt lat="48.5651" lon="1.92402">
        <ele>148</ele>
        <time>2022-03-27T11:24:03Z</time>
      </trkpt>
      <trkpt lat="48.56509" lon="1.92403">
        <ele>148</ele>
        <time>2022-03-27T11:24:04Z</time>
      </trkpt>
      <trkpt lat="48.56507" lon="1.92404">
        <ele>149</ele>
        <time>2022-03-27T11:24:05Z</time>
      </trkpt>
      <trkpt lat="48.56504" lon="1.92406">
        <ele>149</ele>
        <time>2022-03-27T11:24:07Z</time>
      </trkpt>
      <trkpt lat="48.56501" lon="1.92408">
        <ele>149</ele>
        <time>2022-03-27T11:24:09Z</time>
      </trkpt>
      <trkpt lat="48.56498" lon="1.92409">
        <ele>149</ele>
        <time>2022-03-27T11:24:11Z</time>
      </trkpt>
      <trkpt lat="48.56495" lon="1.92411">
        <ele>150</ele>
        <time>2022-03-27T11:24:13Z</time>
      </trkpt>
      <trkpt lat="48.56493" lon="1.92414">
        <ele>150</ele>
        <time>2022-03-27T11:24:14Z</time>
      </trkpt>
      <trkpt lat="48.56491" lon="1.92417">
        <ele>150</ele>
        <time>2022-03-27T11:24:17Z</time>
      </trkpt>
      <trkpt lat="48.5649" lon="1.92419">
        <ele>151</ele>
        <time>2022-03-27T11:24:19Z</time>
      </trkpt>
      <trkpt lat="48.5649" lon="1.92423">
        <ele>151</ele>
        <time>2022-03-27T11:24:23Z</time>
      </trkpt>
      <trkpt lat="48.56491" lon="1.92425">
        <ele>152</ele>
        <time>2022-03-27T11:24:29Z</time>
      </trkpt>
      <trkpt lat="48.56493" lon="1.92424">
        <ele>152</ele>
        <time>2022-03-27T11:24:38Z</time>
      </trkpt>
      <trkpt lat="48.56491" lon="1.92425">
        <ele>152</ele>
        <time>2022-03-27T11:25:03Z</time>
      </trkpt>
      <trkpt lat="48.56489" lon="1.92425">
        <ele>152</ele>
        <time>2022-03-27T11:25:07Z</time>
      </trkpt>
      <trkpt lat="48.56487" lon="1.92425">
        <ele>152</ele>
        <time>2022-03-27T11:25:21Z</time>
      </trkpt>
      <trkpt lat="48.56484" lon="1.92423">
        <ele>152</ele>
        <time>2022-03-27T11:25:39Z</time>
      </trkpt>
      <trkpt lat="48.56482" lon="1.9242">
        <ele>152</ele>
        <time>2022-03-27T11:25:41Z</time>
      </trkpt>
      <trkpt lat="48.5648" lon="1.92418">
        <ele>152</ele>
        <time>2022-03-27T11:25:43Z</time>
      </trkpt>
      <trkpt lat="48.56477" lon="1.92417">
        <ele>153</ele>
        <time>2022-03-27T11:25:45Z</time>
      </trkpt>
      <trkpt lat="48.56475" lon="1.92415">
        <ele>153</ele>
        <time>2022-03-27T11:25:48Z</time>
      </trkpt>
      <trkpt lat="48.56472" lon="1.92413">
        <ele>153</ele>
        <time>2022-03-27T11:25:50Z</time>
      </trkpt>
      <trkpt lat="48.5647" lon="1.92412">
        <ele>153</ele>
        <time>2022-03-27T11:25:51Z</time>
      </trkpt>
      <trkpt lat="48.56468" lon="1.92411">
        <ele>153</ele>
        <time>2022-03-27T11:25:52Z</time>
      </trkpt>
      <trkpt lat="48.56465" lon="1.9241">
        <ele>153</ele>
        <time>2022-03-27T11:25:54Z</time>
      </trkpt>
      <trkpt lat="48.56462" lon="1.92409">
        <ele>153</ele>
        <time>2022-03-27T11:25:56Z</time>
      </trkpt>
      <trkpt lat="48.56459" lon="1.92407">
        <ele>154</ele>
        <time>2022-03-27T11:25:58Z</time>
      </trkpt>
      <trkpt lat="48.56456" lon="1.92406">
        <ele>154</ele>
        <time>2022-03-27T11:26:00Z</time>
      </trkpt>
      <trkpt lat="48.56453" lon="1.92404">
        <ele>154</ele>
        <time>2022-03-27T11:26:01Z</time>
      </trkpt>
      <trkpt lat="48.5645" lon="1.92403">
        <ele>155</ele>
        <time>2022-03-27T11:26:03Z</time>
      </trkpt>
      <trkpt lat="48.56447" lon="1.92401">
        <ele>155</ele>
        <time>2022-03-27T11:26:05Z</time>
      </trkpt>
      <trkpt lat="48.56444" lon="1.924">
        <ele>155</ele>
        <time>2022-03-27T11:26:07Z</time>
      </trkpt>
      <trkpt lat="48.56441" lon="1.92398">
        <ele>156</ele>
        <time>2022-03-27T11:26:09Z</time>
      </trkpt>
      <trkpt lat="48.56438" lon="1.92396">
        <ele>156</ele>
        <time>2022-03-27T11:26:11Z</time>
      </trkpt>
      <trkpt lat="48.56435" lon="1.92394">
        <ele>157</ele>
        <time>2022-03-27T11:26:13Z</time>
      </trkpt>
      <trkpt lat="48.56432" lon="1.92393">
        <ele>157</ele>
        <time>2022-03-27T11:26:15Z</time>
      </trkpt>
      <trkpt lat="48.56429" lon="1.92391">
        <ele>158</ele>
        <time>2022-03-27T11:26:17Z</time>
      </trkpt>
      <trkpt lat="48.56426" lon="1.9239">
        <ele>159</ele>
        <time>2022-03-27T11:26:19Z</time>
      </trkpt>
      <trkpt lat="48.56423" lon="1.92389">
        <ele>160</ele>
        <time>2022-03-27T11:26:21Z</time>
      </trkpt>
      <trkpt lat="48.5642" lon="1.92387">
        <ele>160</ele>
        <time>2022-03-27T11:26:23Z</time>
      </trkpt>
      <trkpt lat="48.56417" lon="1.92386">
        <ele>160</ele>
        <time>2022-03-27T11:26:26Z</time>
      </trkpt>
      <trkpt lat="48.56414" lon="1.92385">
        <ele>161</ele>
        <time>2022-03-27T11:26:28Z</time>
      </trkpt>
      <trkpt lat="48.56412" lon="1.92384">
        <ele>161</ele>
        <time>2022-03-27T11:26:30Z</time>
      </trkpt>
      <trkpt lat="48.56409" lon="1.92382">
        <ele>161</ele>
        <time>2022-03-27T11:26:32Z</time>
      </trkpt>
      <trkpt lat="48.56407" lon="1.92379">
        <ele>162</ele>
        <time>2022-03-27T11:26:33Z</time>
      </trkpt>
      <trkpt lat="48.56405" lon="1.92377">
        <ele>162</ele>
        <time>2022-03-27T11:26:35Z</time>
      </trkpt>
      <trkpt lat="48.56401" lon="1.92375">
        <ele>162</ele>
        <time>2022-03-27T11:26:37Z</time>
      </trkpt>
      <trkpt lat="48.56399" lon="1.92375">
        <ele>162</ele>
        <time>2022-03-27T11:26:38Z</time>
      </trkpt>
      <trkpt lat="48.56398" lon="1.92374">
        <ele>162</ele>
        <time>2022-03-27T11:26:39Z</time>
      </trkpt>
      <trkpt lat="48.56395" lon="1.92373">
        <ele>163</ele>
        <time>2022-03-27T11:26:41Z</time>
      </trkpt>
      <trkpt lat="48.56392" lon="1.92371">
        <ele>163</ele>
        <time>2022-03-27T11:26:43Z</time>
      </trkpt>
      <trkpt lat="48.5639" lon="1.92369">
        <ele>163</ele>
        <time>2022-03-27T11:26:45Z</time>
      </trkpt>
      <trkpt lat="48.56387" lon="1.92368">
        <ele>163</ele>
        <time>2022-03-27T11:26:47Z</time>
      </trkpt>
      <trkpt lat="48.56384" lon="1.92368">
        <ele>164</ele>
        <time>2022-03-27T11:26:49Z</time>
      </trkpt>
      <trkpt lat="48.56381" lon="1.92367">
        <ele>164</ele>
        <time>2022-03-27T11:26:51Z</time>
      </trkpt>
      <trkpt lat="48.56378" lon="1.92366">
        <ele>164</ele>
        <time>2022-03-27T11:26:53Z</time>
      </trkpt>
      <trkpt lat="48.56375" lon="1.92365">
        <ele>164</ele>
        <time>2022-03-27T11:26:55Z</time>
      </trkpt>
      <trkpt lat="48.56372" lon="1.92364">
        <ele>165</ele>
        <time>2022-03-27T11:26:57Z</time>
      </trkpt>
      <trkpt lat="48.56369" lon="1.92363">
        <ele>165</ele>
        <time>2022-03-27T11:26:59Z</time>
      </trkpt>
      <trkpt lat="48.56367" lon="1.92362">
        <ele>166</ele>
        <time>2022-03-27T11:27:01Z</time>
      </trkpt>
      <trkpt lat="48.56364" lon="1.92361">
        <ele>166</ele>
        <time>2022-03-27T11:27:04Z</time>
      </trkpt>
      <trkpt lat="48.56361" lon="1.92359">
        <ele>166</ele>
        <time>2022-03-27T11:27:06Z</time>
      </trkpt>
      <trkpt lat="48.56359" lon="1.92358">
        <ele>166</ele>
        <time>2022-03-27T11:27:08Z</time>
      </trkpt>
      <trkpt lat="48.56357" lon="1.92355">
        <ele>166</ele>
        <time>2022-03-27T11:27:10Z</time>
      </trkpt>
      <trkpt lat="48.56354" lon="1.92354">
        <ele>167</ele>
        <time>2022-03-27T11:27:12Z</time>
      </trkpt>
      <trkpt lat="48.56353" lon="1.92352">
        <ele>167</ele>
        <time>2022-03-27T11:27:13Z</time>
      </trkpt>
      <trkpt lat="48.56349" lon="1.9235">
        <ele>167</ele>
        <time>2022-03-27T11:27:15Z</time>
      </trkpt>
      <trkpt lat="48.56346" lon="1.92349">
        <ele>167</ele>
        <time>2022-03-27T11:27:17Z</time>
      </trkpt>
      <trkpt lat="48.56343" lon="1.92348">
        <ele>167</ele>
        <time>2022-03-27T11:27:19Z</time>
      </trkpt>
      <trkpt lat="48.5634" lon="1.92347">
        <ele>167</ele>
        <time>2022-03-27T11:27:21Z</time>
      </trkpt>
      <trkpt lat="48.56337" lon="1.92346">
        <ele>168</ele>
        <time>2022-03-27T11:27:23Z</time>
      </trkpt>
      <trkpt lat="48.56334" lon="1.92345">
        <ele>168</ele>
        <time>2022-03-27T11:27:25Z</time>
      </trkpt>
      <trkpt lat="48.56331" lon="1.92344">
        <ele>168</ele>
        <time>2022-03-27T11:27:27Z</time>
      </trkpt>
      <trkpt lat="48.56328" lon="1.92343">
        <ele>169</ele>
        <time>2022-03-27T11:27:29Z</time>
      </trkpt>
      <trkpt lat="48.56326" lon="1.92341">
        <ele>168</ele>
        <time>2022-03-27T11:27:31Z</time>
      </trkpt>
      <trkpt lat="48.56324" lon="1.92339">
        <ele>168</ele>
        <time>2022-03-27T11:27:33Z</time>
      </trkpt>
      <trkpt lat="48.56322" lon="1.92337">
        <ele>168</ele>
        <time>2022-03-27T11:27:35Z</time>
      </trkpt>
      <trkpt lat="48.5632" lon="1.92334">
        <ele>168</ele>
        <time>2022-03-27T11:27:37Z</time>
      </trkpt>
      <trkpt lat="48.56318" lon="1.92332">
        <ele>168</ele>
        <time>2022-03-27T11:27:39Z</time>
      </trkpt>
      <trkpt lat="48.56315" lon="1.92329">
        <ele>168</ele>
        <time>2022-03-27T11:27:40Z</time>
      </trkpt>
      <trkpt lat="48.56313" lon="1.92327">
        <ele>168</ele>
        <time>2022-03-27T11:27:42Z</time>
      </trkpt>
      <trkpt lat="48.5631" lon="1.92324">
        <ele>167</ele>
        <time>2022-03-27T11:27:44Z</time>
      </trkpt>
      <trkpt lat="48.56308" lon="1.92321">
        <ele>167</ele>
        <time>2022-03-27T11:27:46Z</time>
      </trkpt>
      <trkpt lat="48.56305" lon="1.9232">
        <ele>167</ele>
        <time>2022-03-27T11:27:48Z</time>
      </trkpt>
      <trkpt lat="48.56303" lon="1.92318">
        <ele>167</ele>
        <time>2022-03-27T11:27:50Z</time>
      </trkpt>
      <trkpt lat="48.56301" lon="1.92316">
        <ele>167</ele>
        <time>2022-03-27T11:27:51Z</time>
      </trkpt>
      <trkpt lat="48.563" lon="1.92314">
        <ele>167</ele>
        <time>2022-03-27T11:27:52Z</time>
      </trkpt>
      <trkpt lat="48.56297" lon="1.92311">
        <ele>167</ele>
        <time>2022-03-27T11:27:55Z</time>
      </trkpt>
      <trkpt lat="48.56295" lon="1.92309">
        <ele>167</ele>
        <time>2022-03-27T11:27:57Z</time>
      </trkpt>
      <trkpt lat="48.56292" lon="1.92306">
        <ele>166</ele>
        <time>2022-03-27T11:27:59Z</time>
      </trkpt>
      <trkpt lat="48.5629" lon="1.92304">
        <ele>166</ele>
        <time>2022-03-27T11:28:00Z</time>
      </trkpt>
      <trkpt lat="48.56288" lon="1.92301">
        <ele>166</ele>
        <time>2022-03-27T11:28:02Z</time>
      </trkpt>
      <trkpt lat="48.56286" lon="1.92298">
        <ele>166</ele>
        <time>2022-03-27T11:28:04Z</time>
      </trkpt>
      <trkpt lat="48.56284" lon="1.92296">
        <ele>166</ele>
        <time>2022-03-27T11:28:06Z</time>
      </trkpt>
      <trkpt lat="48.56282" lon="1.92293">
        <ele>166</ele>
        <time>2022-03-27T11:28:08Z</time>
      </trkpt>
      <trkpt lat="48.56279" lon="1.92292">
        <ele>166</ele>
        <time>2022-03-27T11:28:10Z</time>
      </trkpt>
      <trkpt lat="48.56276" lon="1.9229">
        <ele>166</ele>
        <time>2022-03-27T11:28:12Z</time>
      </trkpt>
      <trkpt lat="48.56273" lon="1.92288">
        <ele>166</ele>
        <time>2022-03-27T11:28:13Z</time>
      </trkpt>
      <trkpt lat="48.5627" lon="1.92286">
        <ele>167</ele>
        <time>2022-03-27T11:28:15Z</time>
      </trkpt>
      <trkpt lat="48.56267" lon="1.92284">
        <ele>167</ele>
        <time>2022-03-27T11:28:17Z</time>
      </trkpt>
      <trkpt lat="48.56265" lon="1.92282">
        <ele>167</ele>
        <time>2022-03-27T11:28:20Z</time>
      </trkpt>
      <trkpt lat="48.56262" lon="1.92279">
        <ele>167</ele>
        <time>2022-03-27T11:28:21Z</time>
      </trkpt>
      <trkpt lat="48.5626" lon="1.92275">
        <ele>167</ele>
        <time>2022-03-27T11:28:23Z</time>
      </trkpt>
      <trkpt lat="48.56258" lon="1.92273">
        <ele>166</ele>
        <time>2022-03-27T11:28:24Z</time>
      </trkpt>
      <trkpt lat="48.56256" lon="1.9227">
        <ele>166</ele>
        <time>2022-03-27T11:28:26Z</time>
      </trkpt>
      <trkpt lat="48.56253" lon="1.92268">
        <ele>166</ele>
        <time>2022-03-27T11:28:28Z</time>
      </trkpt>
      <trkpt lat="48.5625" lon="1.92265">
        <ele>166</ele>
        <time>2022-03-27T11:28:30Z</time>
      </trkpt>
      <trkpt lat="48.56248" lon="1.92262">
        <ele>166</ele>
        <time>2022-03-27T11:28:32Z</time>
      </trkpt>
      <trkpt lat="48.56246" lon="1.9226">
        <ele>166</ele>
        <time>2022-03-27T11:28:33Z</time>
      </trkpt>
      <trkpt lat="48.56243" lon="1.92258">
        <ele>166</ele>
        <time>2022-03-27T11:28:35Z</time>
      </trkpt>
      <trkpt lat="48.56241" lon="1.92256">
        <ele>167</ele>
        <time>2022-03-27T11:28:37Z</time>
      </trkpt>
      <trkpt lat="48.56238" lon="1.92253">
        <ele>167</ele>
        <time>2022-03-27T11:28:39Z</time>
      </trkpt>
      <trkpt lat="48.56236" lon="1.9225">
        <ele>167</ele>
        <time>2022-03-27T11:28:41Z</time>
      </trkpt>
      <trkpt lat="48.56233" lon="1.92246">
        <ele>167</ele>
        <time>2022-03-27T11:28:44Z</time>
      </trkpt>
      <trkpt lat="48.56231" lon="1.92243">
        <ele>166</ele>
        <time>2022-03-27T11:28:46Z</time>
      </trkpt>
      <trkpt lat="48.56229" lon="1.92241">
        <ele>166</ele>
        <time>2022-03-27T11:28:48Z</time>
      </trkpt>
      <trkpt lat="48.56225" lon="1.92239">
        <ele>166</ele>
        <time>2022-03-27T11:28:50Z</time>
      </trkpt>
      <trkpt lat="48.56222" lon="1.92237">
        <ele>166</ele>
        <time>2022-03-27T11:28:52Z</time>
      </trkpt>
      <trkpt lat="48.5622" lon="1.92233">
        <ele>167</ele>
        <time>2022-03-27T11:28:54Z</time>
      </trkpt>
      <trkpt lat="48.5622" lon="1.9223">
        <ele>166</ele>
        <time>2022-03-27T11:28:55Z</time>
      </trkpt>
      <trkpt lat="48.56218" lon="1.92226">
        <ele>166</ele>
        <time>2022-03-27T11:28:57Z</time>
      </trkpt>
      <trkpt lat="48.56215" lon="1.92222">
        <ele>166</ele>
        <time>2022-03-27T11:28:59Z</time>
      </trkpt>
      <trkpt lat="48.56212" lon="1.9222">
        <ele>166</ele>
        <time>2022-03-27T11:29:02Z</time>
      </trkpt>
      <trkpt lat="48.56209" lon="1.92219">
        <ele>166</ele>
        <time>2022-03-27T11:29:04Z</time>
      </trkpt>
      <trkpt lat="48.56206" lon="1.92217">
        <ele>166</ele>
        <time>2022-03-27T11:29:05Z</time>
      </trkpt>
      <trkpt lat="48.56204" lon="1.92215">
        <ele>166</ele>
        <time>2022-03-27T11:29:07Z</time>
      </trkpt>
      <trkpt lat="48.56201" lon="1.92214">
        <ele>166</ele>
        <time>2022-03-27T11:29:09Z</time>
      </trkpt>
      <trkpt lat="48.56199" lon="1.92211">
        <ele>166</ele>
        <time>2022-03-27T11:29:11Z</time>
      </trkpt>
      <trkpt lat="48.56197" lon="1.92209">
        <ele>166</ele>
        <time>2022-03-27T11:29:13Z</time>
      </trkpt>
      <trkpt lat="48.56195" lon="1.92208">
        <ele>167</ele>
        <time>2022-03-27T11:29:15Z</time>
      </trkpt>
      <trkpt lat="48.56192" lon="1.92206">
        <ele>167</ele>
        <time>2022-03-27T11:29:17Z</time>
      </trkpt>
      <trkpt lat="48.5619" lon="1.92203">
        <ele>167</ele>
        <time>2022-03-27T11:29:19Z</time>
      </trkpt>
      <trkpt lat="48.56187" lon="1.92201">
        <ele>167</ele>
        <time>2022-03-27T11:29:21Z</time>
      </trkpt>
      <trkpt lat="48.56184" lon="1.92199">
        <ele>168</ele>
        <time>2022-03-27T11:29:23Z</time>
      </trkpt>
      <trkpt lat="48.56182" lon="1.92196">
        <ele>168</ele>
        <time>2022-03-27T11:29:25Z</time>
      </trkpt>
      <trkpt lat="48.56179" lon="1.92194">
        <ele>168</ele>
        <time>2022-03-27T11:29:27Z</time>
      </trkpt>
      <trkpt lat="48.56177" lon="1.92193">
        <ele>168</ele>
        <time>2022-03-27T11:29:28Z</time>
      </trkpt>
      <trkpt lat="48.56174" lon="1.9219">
        <ele>169</ele>
        <time>2022-03-27T11:29:30Z</time>
      </trkpt>
      <trkpt lat="48.56172" lon="1.92187">
        <ele>169</ele>
        <time>2022-03-27T11:29:32Z</time>
      </trkpt>
      <trkpt lat="48.56169" lon="1.92185">
        <ele>169</ele>
        <time>2022-03-27T11:29:34Z</time>
      </trkpt>
      <trkpt lat="48.56167" lon="1.92181">
        <ele>170</ele>
        <time>2022-03-27T11:29:36Z</time>
      </trkpt>
      <trkpt lat="48.56164" lon="1.92179">
        <ele>170</ele>
        <time>2022-03-27T11:29:38Z</time>
      </trkpt>
      <trkpt lat="48.56161" lon="1.92178">
        <ele>170</ele>
        <time>2022-03-27T11:29:40Z</time>
      </trkpt>
      <trkpt lat="48.56158" lon="1.92176">
        <ele>170</ele>
        <time>2022-03-27T11:29:42Z</time>
      </trkpt>
      <trkpt lat="48.56155" lon="1.92175">
        <ele>170</ele>
        <time>2022-03-27T11:29:45Z</time>
      </trkpt>
      <trkpt lat="48.56152" lon="1.92172">
        <ele>170</ele>
        <time>2022-03-27T11:29:46Z</time>
      </trkpt>
      <trkpt lat="48.5615" lon="1.92171">
        <ele>170</ele>
        <time>2022-03-27T11:29:49Z</time>
      </trkpt>
      <trkpt lat="48.56147" lon="1.92169">
        <ele>170</ele>
        <time>2022-03-27T11:29:51Z</time>
      </trkpt>
      <trkpt lat="48.56145" lon="1.92166">
        <ele>171</ele>
        <time>2022-03-27T11:29:53Z</time>
      </trkpt>
      <trkpt lat="48.56142" lon="1.92163">
        <ele>170</ele>
        <time>2022-03-27T11:29:55Z</time>
      </trkpt>
      <trkpt lat="48.5614" lon="1.92161">
        <ele>170</ele>
        <time>2022-03-27T11:29:56Z</time>
      </trkpt>
      <trkpt lat="48.56137" lon="1.92159">
        <ele>170</ele>
        <time>2022-03-27T11:29:58Z</time>
      </trkpt>
      <trkpt lat="48.56134" lon="1.92157">
        <ele>171</ele>
        <time>2022-03-27T11:30:01Z</time>
      </trkpt>
      <trkpt lat="48.56132" lon="1.92155">
        <ele>171</ele>
        <time>2022-03-27T11:30:03Z</time>
      </trkpt>
      <trkpt lat="48.5613" lon="1.92153">
        <ele>171</ele>
        <time>2022-03-27T11:30:05Z</time>
      </trkpt>
      <trkpt lat="48.56127" lon="1.92149">
        <ele>171</ele>
        <time>2022-03-27T11:30:07Z</time>
      </trkpt>
      <trkpt lat="48.56125" lon="1.92145">
        <ele>170</ele>
        <time>2022-03-27T11:30:09Z</time>
      </trkpt>
      <trkpt lat="48.56123" lon="1.92142">
        <ele>170</ele>
        <time>2022-03-27T11:30:11Z</time>
      </trkpt>
      <trkpt lat="48.56121" lon="1.92138">
        <ele>170</ele>
        <time>2022-03-27T11:30:13Z</time>
      </trkpt>
      <trkpt lat="48.56118" lon="1.92134">
        <ele>170</ele>
        <time>2022-03-27T11:30:15Z</time>
      </trkpt>
      <trkpt lat="48.56117" lon="1.92131">
        <ele>169</ele>
        <time>2022-03-27T11:30:16Z</time>
      </trkpt>
      <trkpt lat="48.56116" lon="1.92129">
        <ele>169</ele>
        <time>2022-03-27T11:30:17Z</time>
      </trkpt>
      <trkpt lat="48.56113" lon="1.92126">
        <ele>169</ele>
        <time>2022-03-27T11:30:19Z</time>
      </trkpt>
      <trkpt lat="48.5611" lon="1.92122">
        <ele>169</ele>
        <time>2022-03-27T11:30:20Z</time>
      </trkpt>
      <trkpt lat="48.56108" lon="1.92119">
        <ele>168</ele>
        <time>2022-03-27T11:30:22Z</time>
      </trkpt>
      <trkpt lat="48.56106" lon="1.92116">
        <ele>168</ele>
        <time>2022-03-27T11:30:24Z</time>
      </trkpt>
      <trkpt lat="48.56104" lon="1.92113">
        <ele>168</ele>
        <time>2022-03-27T11:30:26Z</time>
      </trkpt>
      <trkpt lat="48.56102" lon="1.92111">
        <ele>168</ele>
        <time>2022-03-27T11:30:28Z</time>
      </trkpt>
      <trkpt lat="48.56099" lon="1.92109">
        <ele>168</ele>
        <time>2022-03-27T11:30:30Z</time>
      </trkpt>
      <trkpt lat="48.56097" lon="1.92106">
        <ele>167</ele>
        <time>2022-03-27T11:30:33Z</time>
      </trkpt>
      <trkpt lat="48.56094" lon="1.92104">
        <ele>167</ele>
        <time>2022-03-27T11:30:35Z</time>
      </trkpt>
      <trkpt lat="48.56092" lon="1.92102">
        <ele>167</ele>
        <time>2022-03-27T11:30:36Z</time>
      </trkpt>
      <trkpt lat="48.5609" lon="1.92099">
        <ele>166</ele>
        <time>2022-03-27T11:30:38Z</time>
      </trkpt>
      <trkpt lat="48.56087" lon="1.92095">
        <ele>166</ele>
        <time>2022-03-27T11:30:40Z</time>
      </trkpt>
      <trkpt lat="48.56085" lon="1.92091">
        <ele>166</ele>
        <time>2022-03-27T11:30:42Z</time>
      </trkpt>
      <trkpt lat="48.56084" lon="1.92089">
        <ele>166</ele>
        <time>2022-03-27T11:30:43Z</time>
      </trkpt>
      <trkpt lat="48.56082" lon="1.92087">
        <ele>166</ele>
        <time>2022-03-27T11:30:44Z</time>
      </trkpt>
      <trkpt lat="48.5608" lon="1.92085">
        <ele>166</ele>
        <time>2022-03-27T11:30:46Z</time>
      </trkpt>
      <trkpt lat="48.56077" lon="1.92083">
        <ele>166</ele>
        <time>2022-03-27T11:30:48Z</time>
      </trkpt>
      <trkpt lat="48.56075" lon="1.9208">
        <ele>166</ele>
        <time>2022-03-27T11:30:50Z</time>
      </trkpt>
      <trkpt lat="48.56074" lon="1.92078">
        <ele>166</ele>
        <time>2022-03-27T11:30:52Z</time>
      </trkpt>
      <trkpt lat="48.56073" lon="1.92075">
        <ele>166</ele>
        <time>2022-03-27T11:30:55Z</time>
      </trkpt>
      <trkpt lat="48.56075" lon="1.92074">
        <ele>165</ele>
        <time>2022-03-27T11:31:01Z</time>
      </trkpt>
      <trkpt lat="48.5607" lon="1.92068">
        <ele>164</ele>
        <time>2022-03-27T11:31:39Z</time>
      </trkpt>
      <trkpt lat="48.56067" lon="1.92069">
        <ele>163</ele>
        <time>2022-03-27T11:31:41Z</time>
      </trkpt>
      <trkpt lat="48.56064" lon="1.9207">
        <ele>163</ele>
        <time>2022-03-27T11:31:43Z</time>
      </trkpt>
      <trkpt lat="48.56062" lon="1.92071">
        <ele>163</ele>
        <time>2022-03-27T11:31:45Z</time>
      </trkpt>
      <trkpt lat="48.5606" lon="1.9207">
        <ele>163</ele>
        <time>2022-03-27T11:31:47Z</time>
      </trkpt>
      <trkpt lat="48.56057" lon="1.9207">
        <ele>164</ele>
        <time>2022-03-27T11:31:50Z</time>
      </trkpt>
      <trkpt lat="48.56056" lon="1.92068">
        <ele>165</ele>
        <time>2022-03-27T11:32:20Z</time>
      </trkpt>
      <trkpt lat="48.56054" lon="1.92069">
        <ele>165</ele>
        <time>2022-03-27T11:32:22Z</time>
      </trkpt>
      <trkpt lat="48.56052" lon="1.9207">
        <ele>165</ele>
        <time>2022-03-27T11:32:24Z</time>
      </trkpt>
      <trkpt lat="48.5605" lon="1.92071">
        <ele>165</ele>
        <time>2022-03-27T11:32:27Z</time>
      </trkpt>
      <trkpt lat="48.56048" lon="1.9207">
        <ele>166</ele>
        <time>2022-03-27T11:32:30Z</time>
      </trkpt>
      <trkpt lat="48.56046" lon="1.92069">
        <ele>166</ele>
        <time>2022-03-27T11:32:43Z</time>
      </trkpt>
      <trkpt lat="48.56045" lon="1.92066">
        <ele>166</ele>
        <time>2022-03-27T11:32:52Z</time>
      </trkpt>
      <trkpt lat="48.56046" lon="1.92069">
        <ele>165</ele>
        <time>2022-03-27T11:32:59Z</time>
      </trkpt>
      <trkpt lat="48.56046" lon="1.92072">
        <ele>165</ele>
        <time>2022-03-27T11:33:06Z</time>
      </trkpt>
      <trkpt lat="48.56048" lon="1.92074">
        <ele>165</ele>
        <time>2022-03-27T11:33:09Z</time>
      </trkpt>
      <trkpt lat="48.5605" lon="1.92076">
        <ele>165</ele>
        <time>2022-03-27T11:33:14Z</time>
      </trkpt>
      <trkpt lat="48.56048" lon="1.92078">
        <ele>165</ele>
        <time>2022-03-27T11:33:18Z</time>
      </trkpt>
      <trkpt lat="48.56046" lon="1.92077">
        <ele>164</ele>
        <time>2022-03-27T11:33:27Z</time>
      </trkpt>
      <trkpt lat="48.56045" lon="1.92079">
        <ele>164</ele>
        <time>2022-03-27T11:33:30Z</time>
      </trkpt>
      <trkpt lat="48.56044" lon="1.92082">
        <ele>164</ele>
        <time>2022-03-27T11:33:32Z</time>
      </trkpt>
      <trkpt lat="48.56043" lon="1.92085">
        <ele>164</ele>
        <time>2022-03-27T11:33:35Z</time>
      </trkpt>
      <trkpt lat="48.56042" lon="1.92087">
        <ele>165</ele>
        <time>2022-03-27T11:33:40Z</time>
      </trkpt>
      <trkpt lat="48.56041" lon="1.9209">
        <ele>165</ele>
        <time>2022-03-27T11:33:42Z</time>
      </trkpt>
      <trkpt lat="48.56039" lon="1.92092">
        <ele>165</ele>
        <time>2022-03-27T11:33:48Z</time>
      </trkpt>
      <trkpt lat="48.56038" lon="1.92095">
        <ele>165</ele>
        <time>2022-03-27T11:33:51Z</time>
      </trkpt>
      <trkpt lat="48.56039" lon="1.92092">
        <ele>165</ele>
        <time>2022-03-27T11:34:02Z</time>
      </trkpt>
      <trkpt lat="48.5604" lon="1.92088">
        <ele>166</ele>
        <time>2022-03-27T11:34:05Z</time>
      </trkpt>
      <trkpt lat="48.56036" lon="1.92097">
        <ele>169</ele>
        <time>2022-03-27T11:34:15Z</time>
      </trkpt>
      <trkpt lat="48.56035" lon="1.92093">
        <ele>169</ele>
        <time>2022-03-27T11:34:20Z</time>
      </trkpt>
      <trkpt lat="48.56035" lon="1.92089">
        <ele>170</ele>
        <time>2022-03-27T11:34:21Z</time>
      </trkpt>
      <trkpt lat="48.56034" lon="1.92086">
        <ele>171</ele>
        <time>2022-03-27T11:34:23Z</time>
      </trkpt>
      <trkpt lat="48.56035" lon="1.92083">
        <ele>172</ele>
        <time>2022-03-27T11:34:32Z</time>
      </trkpt>
      <trkpt lat="48.56035" lon="1.9208">
        <ele>174</ele>
        <time>2022-03-27T11:34:36Z</time>
      </trkpt>
      <trkpt lat="48.56034" lon="1.92084">
        <ele>174</ele>
        <time>2022-03-27T11:34:39Z</time>
      </trkpt>
      <trkpt lat="48.56034" lon="1.92089">
        <ele>174</ele>
        <time>2022-03-27T11:34:41Z</time>
      </trkpt>
      <trkpt lat="48.56034" lon="1.92093">
        <ele>174</ele>
        <time>2022-03-27T11:34:42Z</time>
      </trkpt>
      <trkpt lat="48.56034" lon="1.92097">
        <ele>174</ele>
        <time>2022-03-27T11:34:44Z</time>
      </trkpt>
      <trkpt lat="48.56034" lon="1.921">
        <ele>175</ele>
        <time>2022-03-27T11:34:45Z</time>
      </trkpt>
      <trkpt lat="48.56034" lon="1.92103">
        <ele>175</ele>
        <time>2022-03-27T11:34:45Z</time>
      </trkpt>
      <trkpt lat="48.56034" lon="1.92106">
        <ele>175</ele>
        <time>2022-03-27T11:34:46Z</time>
      </trkpt>
      <trkpt lat="48.56033" lon="1.92108">
        <ele>175</ele>
        <time>2022-03-27T11:34:47Z</time>
      </trkpt>
      <trkpt lat="48.56032" lon="1.92113">
        <ele>175</ele>
        <time>2022-03-27T11:34:49Z</time>
      </trkpt>
      <trkpt lat="48.56031" lon="1.92115">
        <ele>175</ele>
        <time>2022-03-27T11:34:50Z</time>
      </trkpt>
      <trkpt lat="48.5603" lon="1.92117">
        <ele>175</ele>
        <time>2022-03-27T11:34:51Z</time>
      </trkpt>
      <trkpt lat="48.56028" lon="1.92121">
        <ele>175</ele>
        <time>2022-03-27T11:34:53Z</time>
      </trkpt>
      <trkpt lat="48.56026" lon="1.92125">
        <ele>174</ele>
        <time>2022-03-27T11:34:55Z</time>
      </trkpt>
      <trkpt lat="48.56025" lon="1.92129">
        <ele>174</ele>
        <time>2022-03-27T11:34:57Z</time>
      </trkpt>
      <trkpt lat="48.56024" lon="1.92134">
        <ele>174</ele>
        <time>2022-03-27T11:34:59Z</time>
      </trkpt>
      <trkpt lat="48.56023" lon="1.92138">
        <ele>174</ele>
        <time>2022-03-27T11:35:00Z</time>
      </trkpt>
      <trkpt lat="48.56023" lon="1.9214">
        <ele>174</ele>
        <time>2022-03-27T11:35:01Z</time>
      </trkpt>
      <trkpt lat="48.56022" lon="1.92145">
        <ele>173</ele>
        <time>2022-03-27T11:35:03Z</time>
      </trkpt>
      <trkpt lat="48.5602" lon="1.92149">
        <ele>172</ele>
        <time>2022-03-27T11:35:05Z</time>
      </trkpt>
      <trkpt lat="48.56019" lon="1.92153">
        <ele>172</ele>
        <time>2022-03-27T11:35:07Z</time>
      </trkpt>
      <trkpt lat="48.56017" lon="1.92158">
        <ele>172</ele>
        <time>2022-03-27T11:35:09Z</time>
      </trkpt>
      <trkpt lat="48.56015" lon="1.92162">
        <ele>172</ele>
        <time>2022-03-27T11:35:11Z</time>
      </trkpt>
      <trkpt lat="48.56014" lon="1.92167">
        <ele>172</ele>
        <time>2022-03-27T11:35:13Z</time>
      </trkpt>
      <trkpt lat="48.56013" lon="1.92171">
        <ele>172</ele>
        <time>2022-03-27T11:35:16Z</time>
      </trkpt>
      <trkpt lat="48.56012" lon="1.92175">
        <ele>172</ele>
        <time>2022-03-27T11:35:18Z</time>
      </trkpt>
      <trkpt lat="48.5601" lon="1.92179">
        <ele>172</ele>
        <time>2022-03-27T11:35:19Z</time>
      </trkpt>
      <trkpt lat="48.56008" lon="1.92183">
        <ele>172</ele>
        <time>2022-03-27T11:35:21Z</time>
      </trkpt>
      <trkpt lat="48.56007" lon="1.92187">
        <ele>172</ele>
        <time>2022-03-27T11:35:23Z</time>
      </trkpt>
      <trkpt lat="48.56006" lon="1.92189">
        <ele>172</ele>
        <time>2022-03-27T11:35:24Z</time>
      </trkpt>
      <trkpt lat="48.56005" lon="1.92192">
        <ele>172</ele>
        <time>2022-03-27T11:35:25Z</time>
      </trkpt>
      <trkpt lat="48.56003" lon="1.92196">
        <ele>172</ele>
        <time>2022-03-27T11:35:27Z</time>
      </trkpt>
      <trkpt lat="48.56001" lon="1.922">
        <ele>172</ele>
        <time>2022-03-27T11:35:29Z</time>
      </trkpt>
      <trkpt lat="48.55999" lon="1.92204">
        <ele>172</ele>
        <time>2022-03-27T11:35:31Z</time>
      </trkpt>
      <trkpt lat="48.55997" lon="1.92207">
        <ele>172</ele>
        <time>2022-03-27T11:35:33Z</time>
      </trkpt>
      <trkpt lat="48.55995" lon="1.92211">
        <ele>173</ele>
        <time>2022-03-27T11:35:35Z</time>
      </trkpt>
      <trkpt lat="48.55993" lon="1.92215">
        <ele>173</ele>
        <time>2022-03-27T11:35:37Z</time>
      </trkpt>
      <trkpt lat="48.55991" lon="1.9222">
        <ele>173</ele>
        <time>2022-03-27T11:35:39Z</time>
      </trkpt>
      <trkpt lat="48.55989" lon="1.92224">
        <ele>173</ele>
        <time>2022-03-27T11:35:41Z</time>
      </trkpt>
      <trkpt lat="48.55988" lon="1.92227">
        <ele>173</ele>
        <time>2022-03-27T11:35:43Z</time>
      </trkpt>
      <trkpt lat="48.55986" lon="1.92231">
        <ele>173</ele>
        <time>2022-03-27T11:35:46Z</time>
      </trkpt>
      <trkpt lat="48.55984" lon="1.92235">
        <ele>173</ele>
        <time>2022-03-27T11:35:48Z</time>
      </trkpt>
      <trkpt lat="48.55983" lon="1.92239">
        <ele>173</ele>
        <time>2022-03-27T11:35:50Z</time>
      </trkpt>
      <trkpt lat="48.55981" lon="1.92241">
        <ele>173</ele>
        <time>2022-03-27T11:35:51Z</time>
      </trkpt>
      <trkpt lat="48.5598" lon="1.92244">
        <ele>173</ele>
        <time>2022-03-27T11:35:52Z</time>
      </trkpt>
      <trkpt lat="48.55979" lon="1.92246">
        <ele>173</ele>
        <time>2022-03-27T11:35:53Z</time>
      </trkpt>
      <trkpt lat="48.55977" lon="1.9225">
        <ele>174</ele>
        <time>2022-03-27T11:35:55Z</time>
      </trkpt>
      <trkpt lat="48.55975" lon="1.92254">
        <ele>174</ele>
        <time>2022-03-27T11:35:57Z</time>
      </trkpt>
      <trkpt lat="48.55974" lon="1.92257">
        <ele>174</ele>
        <time>2022-03-27T11:35:59Z</time>
      </trkpt>
      <trkpt lat="48.55972" lon="1.92261">
        <ele>174</ele>
        <time>2022-03-27T11:36:01Z</time>
      </trkpt>
      <trkpt lat="48.55971" lon="1.92265">
        <ele>174</ele>
        <time>2022-03-27T11:36:03Z</time>
      </trkpt>
      <trkpt lat="48.5597" lon="1.92268">
        <ele>174</ele>
        <time>2022-03-27T11:36:05Z</time>
      </trkpt>
      <trkpt lat="48.55968" lon="1.92272">
        <ele>174</ele>
        <time>2022-03-27T11:36:07Z</time>
      </trkpt>
      <trkpt lat="48.55967" lon="1.92275">
        <ele>174</ele>
        <time>2022-03-27T11:36:09Z</time>
      </trkpt>
      <trkpt lat="48.55966" lon="1.92279">
        <ele>174</ele>
        <time>2022-03-27T11:36:11Z</time>
      </trkpt>
      <trkpt lat="48.55964" lon="1.92283">
        <ele>174</ele>
        <time>2022-03-27T11:36:13Z</time>
      </trkpt>
      <trkpt lat="48.55963" lon="1.92287">
        <ele>174</ele>
        <time>2022-03-27T11:36:15Z</time>
      </trkpt>
      <trkpt lat="48.5596" lon="1.9229">
        <ele>174</ele>
        <time>2022-03-27T11:36:17Z</time>
      </trkpt>
      <trkpt lat="48.55958" lon="1.92293">
        <ele>173</ele>
        <time>2022-03-27T11:36:18Z</time>
      </trkpt>
      <trkpt lat="48.55956" lon="1.92297">
        <ele>174</ele>
        <time>2022-03-27T11:36:20Z</time>
      </trkpt>
      <trkpt lat="48.55955" lon="1.92301">
        <ele>174</ele>
        <time>2022-03-27T11:36:22Z</time>
      </trkpt>
      <trkpt lat="48.55953" lon="1.92304">
        <ele>174</ele>
        <time>2022-03-27T11:36:24Z</time>
      </trkpt>
      <trkpt lat="48.55952" lon="1.92308">
        <ele>174</ele>
        <time>2022-03-27T11:36:26Z</time>
      </trkpt>
      <trkpt lat="48.5595" lon="1.92312">
        <ele>174</ele>
        <time>2022-03-27T11:36:28Z</time>
      </trkpt>
      <trkpt lat="48.55949" lon="1.92316">
        <ele>174</ele>
        <time>2022-03-27T11:36:30Z</time>
      </trkpt>
      <trkpt lat="48.55947" lon="1.92321">
        <ele>175</ele>
        <time>2022-03-27T11:36:32Z</time>
      </trkpt>
      <trkpt lat="48.55945" lon="1.92324">
        <ele>175</ele>
        <time>2022-03-27T11:36:34Z</time>
      </trkpt>
      <trkpt lat="48.55943" lon="1.92327">
        <ele>175</ele>
        <time>2022-03-27T11:36:36Z</time>
      </trkpt>
      <trkpt lat="48.55942" lon="1.9233">
        <ele>175</ele>
        <time>2022-03-27T11:36:38Z</time>
      </trkpt>
      <trkpt lat="48.5594" lon="1.92334">
        <ele>175</ele>
        <time>2022-03-27T11:36:40Z</time>
      </trkpt>
      <trkpt lat="48.55938" lon="1.92338">
        <ele>175</ele>
        <time>2022-03-27T11:36:42Z</time>
      </trkpt>
      <trkpt lat="48.55937" lon="1.92342">
        <ele>175</ele>
        <time>2022-03-27T11:36:44Z</time>
      </trkpt>
      <trkpt lat="48.55936" lon="1.92345">
        <ele>175</ele>
        <time>2022-03-27T11:36:46Z</time>
      </trkpt>
      <trkpt lat="48.55934" lon="1.92349">
        <ele>175</ele>
        <time>2022-03-27T11:36:48Z</time>
      </trkpt>
      <trkpt lat="48.55932" lon="1.92353">
        <ele>175</ele>
        <time>2022-03-27T11:36:50Z</time>
      </trkpt>
      <trkpt lat="48.55931" lon="1.92357">
        <ele>175</ele>
        <time>2022-03-27T11:36:53Z</time>
      </trkpt>
      <trkpt lat="48.55929" lon="1.92359">
        <ele>175</ele>
        <time>2022-03-27T11:36:53Z</time>
      </trkpt>
      <trkpt lat="48.55928" lon="1.92361">
        <ele>175</ele>
        <time>2022-03-27T11:36:54Z</time>
      </trkpt>
      <trkpt lat="48.55926" lon="1.92365">
        <ele>175</ele>
        <time>2022-03-27T11:36:56Z</time>
      </trkpt>
      <trkpt lat="48.55925" lon="1.9237">
        <ele>175</ele>
        <time>2022-03-27T11:36:58Z</time>
      </trkpt>
      <trkpt lat="48.55924" lon="1.92373">
        <ele>175</ele>
        <time>2022-03-27T11:37:00Z</time>
      </trkpt>
      <trkpt lat="48.55922" lon="1.92377">
        <ele>175</ele>
        <time>2022-03-27T11:37:02Z</time>
      </trkpt>
      <trkpt lat="48.5592" lon="1.92381">
        <ele>175</ele>
        <time>2022-03-27T11:37:04Z</time>
      </trkpt>
      <trkpt lat="48.55919" lon="1.92385">
        <ele>175</ele>
        <time>2022-03-27T11:37:06Z</time>
      </trkpt>
      <trkpt lat="48.55917" lon="1.9239">
        <ele>175</ele>
        <time>2022-03-27T11:37:08Z</time>
      </trkpt>
      <trkpt lat="48.55915" lon="1.92394">
        <ele>175</ele>
        <time>2022-03-27T11:37:10Z</time>
      </trkpt>
      <trkpt lat="48.55914" lon="1.92396">
        <ele>175</ele>
        <time>2022-03-27T11:37:12Z</time>
      </trkpt>
      <trkpt lat="48.55912" lon="1.92398">
        <ele>175</ele>
        <time>2022-03-27T11:37:12Z</time>
      </trkpt>
      <trkpt lat="48.55911" lon="1.92402">
        <ele>175</ele>
        <time>2022-03-27T11:37:15Z</time>
      </trkpt>
      <trkpt lat="48.55909" lon="1.92406">
        <ele>176</ele>
        <time>2022-03-27T11:37:17Z</time>
      </trkpt>
      <trkpt lat="48.55908" lon="1.92409">
        <ele>176</ele>
        <time>2022-03-27T11:37:19Z</time>
      </trkpt>
      <trkpt lat="48.55906" lon="1.92413">
        <ele>176</ele>
        <time>2022-03-27T11:37:21Z</time>
      </trkpt>
      <trkpt lat="48.55904" lon="1.92417">
        <ele>176</ele>
        <time>2022-03-27T11:37:23Z</time>
      </trkpt>
      <trkpt lat="48.55902" lon="1.9242">
        <ele>176</ele>
        <time>2022-03-27T11:37:24Z</time>
      </trkpt>
      <trkpt lat="48.55901" lon="1.92424">
        <ele>176</ele>
        <time>2022-03-27T11:37:26Z</time>
      </trkpt>
      <trkpt lat="48.55899" lon="1.92428">
        <ele>177</ele>
        <time>2022-03-27T11:37:29Z</time>
      </trkpt>
      <trkpt lat="48.55898" lon="1.92433">
        <ele>177</ele>
        <time>2022-03-27T11:37:31Z</time>
      </trkpt>
      <trkpt lat="48.55897" lon="1.92437">
        <ele>177</ele>
        <time>2022-03-27T11:37:32Z</time>
      </trkpt>
      <trkpt lat="48.55895" lon="1.92441">
        <ele>177</ele>
        <time>2022-03-27T11:37:34Z</time>
      </trkpt>
      <trkpt lat="48.55895" lon="1.92444">
        <ele>177</ele>
        <time>2022-03-27T11:37:36Z</time>
      </trkpt>
      <trkpt lat="48.55893" lon="1.92449">
        <ele>178</ele>
        <time>2022-03-27T11:37:38Z</time>
      </trkpt>
      <trkpt lat="48.5589" lon="1.92452">
        <ele>178</ele>
        <time>2022-03-27T11:37:40Z</time>
      </trkpt>
      <trkpt lat="48.55889" lon="1.92455">
        <ele>178</ele>
        <time>2022-03-27T11:37:42Z</time>
      </trkpt>
      <trkpt lat="48.55887" lon="1.92459">
        <ele>178</ele>
        <time>2022-03-27T11:37:44Z</time>
      </trkpt>
      <trkpt lat="48.55885" lon="1.92463">
        <ele>178</ele>
        <time>2022-03-27T11:37:46Z</time>
      </trkpt>
      <trkpt lat="48.55884" lon="1.92465">
        <ele>178</ele>
        <time>2022-03-27T11:37:47Z</time>
      </trkpt>
      <trkpt lat="48.55882" lon="1.92467">
        <ele>178</ele>
        <time>2022-03-27T11:37:48Z</time>
      </trkpt>
      <trkpt lat="48.55881" lon="1.9247">
        <ele>178</ele>
        <time>2022-03-27T11:37:50Z</time>
      </trkpt>
      <trkpt lat="48.5588" lon="1.92472">
        <ele>178</ele>
        <time>2022-03-27T11:37:50Z</time>
      </trkpt>
      <trkpt lat="48.55879" lon="1.92474">
        <ele>178</ele>
        <time>2022-03-27T11:37:51Z</time>
      </trkpt>
      <trkpt lat="48.55877" lon="1.92476">
        <ele>178</ele>
        <time>2022-03-27T11:37:52Z</time>
      </trkpt>
      <trkpt lat="48.55875" lon="1.9248">
        <ele>178</ele>
        <time>2022-03-27T11:37:55Z</time>
      </trkpt>
      <trkpt lat="48.55874" lon="1.92484">
        <ele>177</ele>
        <time>2022-03-27T11:37:57Z</time>
      </trkpt>
      <trkpt lat="48.55872" lon="1.92488">
        <ele>177</ele>
        <time>2022-03-27T11:37:59Z</time>
      </trkpt>
      <trkpt lat="48.55871" lon="1.92492">
        <ele>177</ele>
        <time>2022-03-27T11:38:01Z</time>
      </trkpt>
      <trkpt lat="48.55869" lon="1.92496">
        <ele>177</ele>
        <time>2022-03-27T11:38:03Z</time>
      </trkpt>
      <trkpt lat="48.55867" lon="1.925">
        <ele>177</ele>
        <time>2022-03-27T11:38:05Z</time>
      </trkpt>
      <trkpt lat="48.55865" lon="1.92502">
        <ele>176</ele>
        <time>2022-03-27T11:38:06Z</time>
      </trkpt>
      <trkpt lat="48.55863" lon="1.92506">
        <ele>177</ele>
        <time>2022-03-27T11:38:08Z</time>
      </trkpt>
      <trkpt lat="48.55862" lon="1.92509">
        <ele>177</ele>
        <time>2022-03-27T11:38:10Z</time>
      </trkpt>
      <trkpt lat="48.5586" lon="1.92512">
        <ele>177</ele>
        <time>2022-03-27T11:38:12Z</time>
      </trkpt>
      <trkpt lat="48.55858" lon="1.92515">
        <ele>177</ele>
        <time>2022-03-27T11:38:14Z</time>
      </trkpt>
      <trkpt lat="48.55857" lon="1.92519">
        <ele>177</ele>
        <time>2022-03-27T11:38:16Z</time>
      </trkpt>
      <trkpt lat="48.55856" lon="1.92523">
        <ele>177</ele>
        <time>2022-03-27T11:38:18Z</time>
      </trkpt>
      <trkpt lat="48.55854" lon="1.92527">
        <ele>176</ele>
        <time>2022-03-27T11:38:20Z</time>
      </trkpt>
      <trkpt lat="48.55853" lon="1.9253">
        <ele>176</ele>
        <time>2022-03-27T11:38:21Z</time>
      </trkpt>
      <trkpt lat="48.55852" lon="1.92532">
        <ele>176</ele>
        <time>2022-03-27T11:38:22Z</time>
      </trkpt>
      <trkpt lat="48.55851" lon="1.92535">
        <ele>176</ele>
        <time>2022-03-27T11:38:23Z</time>
      </trkpt>
      <trkpt lat="48.5585" lon="1.92537">
        <ele>177</ele>
        <time>2022-03-27T11:38:24Z</time>
      </trkpt>
      <trkpt lat="48.55848" lon="1.92541">
        <ele>176</ele>
        <time>2022-03-27T11:38:26Z</time>
      </trkpt>
      <trkpt lat="48.55845" lon="1.92545">
        <ele>176</ele>
        <time>2022-03-27T11:38:28Z</time>
      </trkpt>
      <trkpt lat="48.55844" lon="1.92547">
        <ele>176</ele>
        <time>2022-03-27T11:38:28Z</time>
      </trkpt>
      <trkpt lat="48.55842" lon="1.92551">
        <ele>176</ele>
        <time>2022-03-27T11:38:30Z</time>
      </trkpt>
      <trkpt lat="48.5584" lon="1.92555">
        <ele>176</ele>
        <time>2022-03-27T11:38:32Z</time>
      </trkpt>
      <trkpt lat="48.55839" lon="1.92557">
        <ele>175</ele>
        <time>2022-03-27T11:38:33Z</time>
      </trkpt>
      <trkpt lat="48.55838" lon="1.92559">
        <ele>175</ele>
        <time>2022-03-27T11:38:34Z</time>
      </trkpt>
      <trkpt lat="48.55837" lon="1.92562">
        <ele>175</ele>
        <time>2022-03-27T11:38:35Z</time>
      </trkpt>
      <trkpt lat="48.55835" lon="1.92566">
        <ele>175</ele>
        <time>2022-03-27T11:38:37Z</time>
      </trkpt>
      <trkpt lat="48.55833" lon="1.9257">
        <ele>175</ele>
        <time>2022-03-27T11:38:39Z</time>
      </trkpt>
      <trkpt lat="48.55831" lon="1.92574">
        <ele>176</ele>
        <time>2022-03-27T11:38:41Z</time>
      </trkpt>
      <trkpt lat="48.5583" lon="1.92578">
        <ele>176</ele>
        <time>2022-03-27T11:38:43Z</time>
      </trkpt>
      <trkpt lat="48.55829" lon="1.92582">
        <ele>176</ele>
        <time>2022-03-27T11:38:45Z</time>
      </trkpt>
      <trkpt lat="48.55827" lon="1.92586">
        <ele>176</ele>
        <time>2022-03-27T11:38:47Z</time>
      </trkpt>
      <trkpt lat="48.55826" lon="1.9259">
        <ele>176</ele>
        <time>2022-03-27T11:38:49Z</time>
      </trkpt>
      <trkpt lat="48.55825" lon="1.92594">
        <ele>176</ele>
        <time>2022-03-27T11:38:51Z</time>
      </trkpt>
      <trkpt lat="48.55824" lon="1.92596">
        <ele>176</ele>
        <time>2022-03-27T11:38:52Z</time>
      </trkpt>
      <trkpt lat="48.55823" lon="1.926">
        <ele>176</ele>
        <time>2022-03-27T11:38:54Z</time>
      </trkpt>
      <trkpt lat="48.55821" lon="1.92603">
        <ele>176</ele>
        <time>2022-03-27T11:38:56Z</time>
      </trkpt>
      <trkpt lat="48.55819" lon="1.92607">
        <ele>176</ele>
        <time>2022-03-27T11:38:59Z</time>
      </trkpt>
      <trkpt lat="48.55818" lon="1.9261">
        <ele>176</ele>
        <time>2022-03-27T11:39:01Z</time>
      </trkpt>
      <trkpt lat="48.55816" lon="1.92614">
        <ele>176</ele>
        <time>2022-03-27T11:39:03Z</time>
      </trkpt>
      <trkpt lat="48.55815" lon="1.92617">
        <ele>176</ele>
        <time>2022-03-27T11:39:04Z</time>
      </trkpt>
      <trkpt lat="48.55814" lon="1.92619">
        <ele>176</ele>
        <time>2022-03-27T11:39:05Z</time>
      </trkpt>
      <trkpt lat="48.55812" lon="1.92623">
        <ele>176</ele>
        <time>2022-03-27T11:39:07Z</time>
      </trkpt>
      <trkpt lat="48.5581" lon="1.92628">
        <ele>176</ele>
        <time>2022-03-27T11:39:09Z</time>
      </trkpt>
      <trkpt lat="48.55809" lon="1.92632">
        <ele>175</ele>
        <time>2022-03-27T11:39:11Z</time>
      </trkpt>
      <trkpt lat="48.55807" lon="1.92636">
        <ele>175</ele>
        <time>2022-03-27T11:39:13Z</time>
      </trkpt>
      <trkpt lat="48.55805" lon="1.9264">
        <ele>175</ele>
        <time>2022-03-27T11:39:15Z</time>
      </trkpt>
      <trkpt lat="48.55803" lon="1.92644">
        <ele>175</ele>
        <time>2022-03-27T11:39:17Z</time>
      </trkpt>
      <trkpt lat="48.55802" lon="1.92646">
        <ele>174</ele>
        <time>2022-03-27T11:39:18Z</time>
      </trkpt>
      <trkpt lat="48.558" lon="1.9265">
        <ele>174</ele>
        <time>2022-03-27T11:39:20Z</time>
      </trkpt>
      <trkpt lat="48.55799" lon="1.92652">
        <ele>174</ele>
        <time>2022-03-27T11:39:21Z</time>
      </trkpt>
      <trkpt lat="48.55797" lon="1.92656">
        <ele>174</ele>
        <time>2022-03-27T11:39:23Z</time>
      </trkpt>
      <trkpt lat="48.55796" lon="1.9266">
        <ele>174</ele>
        <time>2022-03-27T11:39:25Z</time>
      </trkpt>
      <trkpt lat="48.55795" lon="1.92664">
        <ele>174</ele>
        <time>2022-03-27T11:39:27Z</time>
      </trkpt>
      <trkpt lat="48.55793" lon="1.92669">
        <ele>174</ele>
        <time>2022-03-27T11:39:28Z</time>
      </trkpt>
      <trkpt lat="48.55791" lon="1.92672">
        <ele>174</ele>
        <time>2022-03-27T11:39:30Z</time>
      </trkpt>
      <trkpt lat="48.5579" lon="1.92677">
        <ele>174</ele>
        <time>2022-03-27T11:39:32Z</time>
      </trkpt>
      <trkpt lat="48.55788" lon="1.9268">
        <ele>174</ele>
        <time>2022-03-27T11:39:34Z</time>
      </trkpt>
      <trkpt lat="48.55787" lon="1.92685">
        <ele>174</ele>
        <time>2022-03-27T11:39:36Z</time>
      </trkpt>
      <trkpt lat="48.55786" lon="1.92689">
        <ele>174</ele>
        <time>2022-03-27T11:39:38Z</time>
      </trkpt>
      <trkpt lat="48.55785" lon="1.92691">
        <ele>175</ele>
        <time>2022-03-27T11:39:39Z</time>
      </trkpt>
      <trkpt lat="48.55783" lon="1.92693">
        <ele>175</ele>
        <time>2022-03-27T11:39:40Z</time>
      </trkpt>
      <trkpt lat="48.55782" lon="1.92698">
        <ele>175</ele>
        <time>2022-03-27T11:39:42Z</time>
      </trkpt>
      <trkpt lat="48.55781" lon="1.927">
        <ele>175</ele>
        <time>2022-03-27T11:39:44Z</time>
      </trkpt>
      <trkpt lat="48.55779" lon="1.92703">
        <ele>175</ele>
        <time>2022-03-27T11:39:45Z</time>
      </trkpt>
      <trkpt lat="48.55777" lon="1.92707">
        <ele>174</ele>
        <time>2022-03-27T11:39:47Z</time>
      </trkpt>
      <trkpt lat="48.55775" lon="1.9271">
        <ele>174</ele>
        <time>2022-03-27T11:39:49Z</time>
      </trkpt>
      <trkpt lat="48.55773" lon="1.92714">
        <ele>174</ele>
        <time>2022-03-27T11:39:51Z</time>
      </trkpt>
      <trkpt lat="48.55771" lon="1.92718">
        <ele>174</ele>
        <time>2022-03-27T11:39:53Z</time>
      </trkpt>
      <trkpt lat="48.5577" lon="1.9272">
        <ele>174</ele>
        <time>2022-03-27T11:39:54Z</time>
      </trkpt>
      <trkpt lat="48.55769" lon="1.92724">
        <ele>174</ele>
        <time>2022-03-27T11:39:56Z</time>
      </trkpt>
      <trkpt lat="48.55767" lon="1.92728">
        <ele>174</ele>
        <time>2022-03-27T11:39:58Z</time>
      </trkpt>
      <trkpt lat="48.55766" lon="1.92731">
        <ele>174</ele>
        <time>2022-03-27T11:40:01Z</time>
      </trkpt>
      <trkpt lat="48.55764" lon="1.92735">
        <ele>174</ele>
        <time>2022-03-27T11:40:03Z</time>
      </trkpt>
      <trkpt lat="48.55763" lon="1.92739">
        <ele>174</ele>
        <time>2022-03-27T11:40:05Z</time>
      </trkpt>
      <trkpt lat="48.55761" lon="1.92744">
        <ele>175</ele>
        <time>2022-03-27T11:40:07Z</time>
      </trkpt>
      <trkpt lat="48.55759" lon="1.92746">
        <ele>175</ele>
        <time>2022-03-27T11:40:08Z</time>
      </trkpt>
      <trkpt lat="48.55757" lon="1.9275">
        <ele>175</ele>
        <time>2022-03-27T11:40:10Z</time>
      </trkpt>
      <trkpt lat="48.55755" lon="1.92754">
        <ele>175</ele>
        <time>2022-03-27T11:40:12Z</time>
      </trkpt>
      <trkpt lat="48.55754" lon="1.92757">
        <ele>174</ele>
        <time>2022-03-27T11:40:14Z</time>
      </trkpt>
      <trkpt lat="48.55753" lon="1.92761">
        <ele>174</ele>
        <time>2022-03-27T11:40:16Z</time>
      </trkpt>
      <trkpt lat="48.55751" lon="1.92764">
        <ele>174</ele>
        <time>2022-03-27T11:40:18Z</time>
      </trkpt>
      <trkpt lat="48.55749" lon="1.92768">
        <ele>173</ele>
        <time>2022-03-27T11:40:20Z</time>
      </trkpt>
      <trkpt lat="48.55747" lon="1.92771">
        <ele>173</ele>
        <time>2022-03-27T11:40:22Z</time>
      </trkpt>
      <trkpt lat="48.55745" lon="1.92776">
        <ele>173</ele>
        <time>2022-03-27T11:40:24Z</time>
      </trkpt>
      <trkpt lat="48.55743" lon="1.92781">
        <ele>173</ele>
        <time>2022-03-27T11:40:26Z</time>
      </trkpt>
      <trkpt lat="48.55742" lon="1.92785">
        <ele>174</ele>
        <time>2022-03-27T11:40:28Z</time>
      </trkpt>
      <trkpt lat="48.5574" lon="1.92788">
        <ele>173</ele>
        <time>2022-03-27T11:40:30Z</time>
      </trkpt>
      <trkpt lat="48.55739" lon="1.92792">
        <ele>173</ele>
        <time>2022-03-27T11:40:32Z</time>
      </trkpt>
      <trkpt lat="48.55737" lon="1.92796">
        <ele>173</ele>
        <time>2022-03-27T11:40:33Z</time>
      </trkpt>
      <trkpt lat="48.55736" lon="1.92798">
        <ele>173</ele>
        <time>2022-03-27T11:40:34Z</time>
      </trkpt>
      <trkpt lat="48.55735" lon="1.92801">
        <ele>172</ele>
        <time>2022-03-27T11:40:35Z</time>
      </trkpt>
      <trkpt lat="48.55733" lon="1.92805">
        <ele>172</ele>
        <time>2022-03-27T11:40:37Z</time>
      </trkpt>
      <trkpt lat="48.55731" lon="1.92809">
        <ele>172</ele>
        <time>2022-03-27T11:40:39Z</time>
      </trkpt>
      <trkpt lat="48.55729" lon="1.92812">
        <ele>172</ele>
        <time>2022-03-27T11:40:41Z</time>
      </trkpt>
      <trkpt lat="48.55727" lon="1.92816">
        <ele>172</ele>
        <time>2022-03-27T11:40:43Z</time>
      </trkpt>
      <trkpt lat="48.55726" lon="1.9282">
        <ele>172</ele>
        <time>2022-03-27T11:40:45Z</time>
      </trkpt>
      <trkpt lat="48.55724" lon="1.92823">
        <ele>172</ele>
        <time>2022-03-27T11:40:47Z</time>
      </trkpt>
      <trkpt lat="48.55722" lon="1.92827">
        <ele>172</ele>
        <time>2022-03-27T11:40:49Z</time>
      </trkpt>
      <trkpt lat="48.5572" lon="1.92831">
        <ele>173</ele>
        <time>2022-03-27T11:40:51Z</time>
      </trkpt>
      <trkpt lat="48.55719" lon="1.92835">
        <ele>173</ele>
        <time>2022-03-27T11:40:53Z</time>
      </trkpt>
      <trkpt lat="48.55717" lon="1.92839">
        <ele>173</ele>
        <time>2022-03-27T11:40:55Z</time>
      </trkpt>
      <trkpt lat="48.55715" lon="1.92843">
        <ele>173</ele>
        <time>2022-03-27T11:40:57Z</time>
      </trkpt>
      <trkpt lat="48.55714" lon="1.92847">
        <ele>173</ele>
        <time>2022-03-27T11:41:00Z</time>
      </trkpt>
      <trkpt lat="48.55712" lon="1.9285">
        <ele>173</ele>
        <time>2022-03-27T11:41:02Z</time>
      </trkpt>
      <trkpt lat="48.55711" lon="1.92854">
        <ele>173</ele>
        <time>2022-03-27T11:41:04Z</time>
      </trkpt>
      <trkpt lat="48.55709" lon="1.92859">
        <ele>173</ele>
        <time>2022-03-27T11:41:05Z</time>
      </trkpt>
      <trkpt lat="48.55707" lon="1.92864">
        <ele>173</ele>
        <time>2022-03-27T11:41:07Z</time>
      </trkpt>
      <trkpt lat="48.55706" lon="1.92866">
        <ele>173</ele>
        <time>2022-03-27T11:41:08Z</time>
      </trkpt>
      <trkpt lat="48.55703" lon="1.92869">
        <ele>173</ele>
        <time>2022-03-27T11:41:10Z</time>
      </trkpt>
      <trkpt lat="48.55701" lon="1.92873">
        <ele>173</ele>
        <time>2022-03-27T11:41:12Z</time>
      </trkpt>
      <trkpt lat="48.55699" lon="1.92877">
        <ele>173</ele>
        <time>2022-03-27T11:41:15Z</time>
      </trkpt>
      <trkpt lat="48.55699" lon="1.92881">
        <ele>173</ele>
        <time>2022-03-27T11:41:17Z</time>
      </trkpt>
      <trkpt lat="48.55697" lon="1.92886">
        <ele>173</ele>
        <time>2022-03-27T11:41:19Z</time>
      </trkpt>
      <trkpt lat="48.55696" lon="1.92889">
        <ele>174</ele>
        <time>2022-03-27T11:41:20Z</time>
      </trkpt>
      <trkpt lat="48.55694" lon="1.92893">
        <ele>174</ele>
        <time>2022-03-27T11:41:22Z</time>
      </trkpt>
      <trkpt lat="48.55692" lon="1.92897">
        <ele>174</ele>
        <time>2022-03-27T11:41:24Z</time>
      </trkpt>
      <trkpt lat="48.5569" lon="1.92899">
        <ele>174</ele>
        <time>2022-03-27T11:41:26Z</time>
      </trkpt>
      <trkpt lat="48.55688" lon="1.92903">
        <ele>175</ele>
        <time>2022-03-27T11:41:28Z</time>
      </trkpt>
      <trkpt lat="48.55686" lon="1.92906">
        <ele>175</ele>
        <time>2022-03-27T11:41:30Z</time>
      </trkpt>
      <trkpt lat="48.55685" lon="1.9291">
        <ele>175</ele>
        <time>2022-03-27T11:41:32Z</time>
      </trkpt>
      <trkpt lat="48.55684" lon="1.92913">
        <ele>175</ele>
        <time>2022-03-27T11:41:33Z</time>
      </trkpt>
      <trkpt lat="48.55683" lon="1.92917">
        <ele>174</ele>
        <time>2022-03-27T11:41:35Z</time>
      </trkpt>
      <trkpt lat="48.55681" lon="1.92921">
        <ele>174</ele>
        <time>2022-03-27T11:41:38Z</time>
      </trkpt>
      <trkpt lat="48.55679" lon="1.92925">
        <ele>174</ele>
        <time>2022-03-27T11:41:39Z</time>
      </trkpt>
      <trkpt lat="48.55677" lon="1.92928">
        <ele>174</ele>
        <time>2022-03-27T11:41:41Z</time>
      </trkpt>
      <trkpt lat="48.55675" lon="1.92932">
        <ele>174</ele>
        <time>2022-03-27T11:41:43Z</time>
      </trkpt>
      <trkpt lat="48.55673" lon="1.92935">
        <ele>173</ele>
        <time>2022-03-27T11:41:45Z</time>
      </trkpt>
      <trkpt lat="48.55672" lon="1.92937">
        <ele>173</ele>
        <time>2022-03-27T11:41:46Z</time>
      </trkpt>
      <trkpt lat="48.5567" lon="1.92942">
        <ele>174</ele>
        <time>2022-03-27T11:41:48Z</time>
      </trkpt>
      <trkpt lat="48.55669" lon="1.92946">
        <ele>174</ele>
        <time>2022-03-27T11:41:50Z</time>
      </trkpt>
      <trkpt lat="48.55667" lon="1.92949">
        <ele>174</ele>
        <time>2022-03-27T11:41:52Z</time>
      </trkpt>
      <trkpt lat="48.55666" lon="1.92953">
        <ele>174</ele>
        <time>2022-03-27T11:41:54Z</time>
      </trkpt>
      <trkpt lat="48.55665" lon="1.92957">
        <ele>174</ele>
        <time>2022-03-27T11:41:57Z</time>
      </trkpt>
      <trkpt lat="48.55664" lon="1.92961">
        <ele>174</ele>
        <time>2022-03-27T11:41:59Z</time>
      </trkpt>
      <trkpt lat="48.55662" lon="1.92965">
        <ele>175</ele>
        <time>2022-03-27T11:42:01Z</time>
      </trkpt>
      <trkpt lat="48.5566" lon="1.92969">
        <ele>175</ele>
        <time>2022-03-27T11:42:03Z</time>
      </trkpt>
      <trkpt lat="48.55657" lon="1.92973">
        <ele>175</ele>
        <time>2022-03-27T11:42:05Z</time>
      </trkpt>
      <trkpt lat="48.55656" lon="1.92975">
        <ele>175</ele>
        <time>2022-03-27T11:42:06Z</time>
      </trkpt>
      <trkpt lat="48.55654" lon="1.9298">
        <ele>175</ele>
        <time>2022-03-27T11:42:07Z</time>
      </trkpt>
      <trkpt lat="48.55653" lon="1.92983">
        <ele>176</ele>
        <time>2022-03-27T11:42:09Z</time>
      </trkpt>
      <trkpt lat="48.55651" lon="1.92987">
        <ele>176</ele>
        <time>2022-03-27T11:42:11Z</time>
      </trkpt>
      <trkpt lat="48.55649" lon="1.92991">
        <ele>176</ele>
        <time>2022-03-27T11:42:13Z</time>
      </trkpt>
      <trkpt lat="48.55647" lon="1.92995">
        <ele>176</ele>
        <time>2022-03-27T11:42:16Z</time>
      </trkpt>
      <trkpt lat="48.55645" lon="1.92999">
        <ele>175</ele>
        <time>2022-03-27T11:42:18Z</time>
      </trkpt>
      <trkpt lat="48.55643" lon="1.93003">
        <ele>175</ele>
        <time>2022-03-27T11:42:20Z</time>
      </trkpt>
      <trkpt lat="48.55641" lon="1.93007">
        <ele>175</ele>
        <time>2022-03-27T11:42:22Z</time>
      </trkpt>
      <trkpt lat="48.5564" lon="1.93009">
        <ele>176</ele>
        <time>2022-03-27T11:42:23Z</time>
      </trkpt>
      <trkpt lat="48.55638" lon="1.93013">
        <ele>175</ele>
        <time>2022-03-27T11:42:25Z</time>
      </trkpt>
      <trkpt lat="48.55636" lon="1.93017">
        <ele>175</ele>
        <time>2022-03-27T11:42:27Z</time>
      </trkpt>
      <trkpt lat="48.55634" lon="1.93021">
        <ele>175</ele>
        <time>2022-03-27T11:42:29Z</time>
      </trkpt>
      <trkpt lat="48.55633" lon="1.93024">
        <ele>175</ele>
        <time>2022-03-27T11:42:31Z</time>
      </trkpt>
      <trkpt lat="48.55631" lon="1.93027">
        <ele>175</ele>
        <time>2022-03-27T11:42:33Z</time>
      </trkpt>
      <trkpt lat="48.5563" lon="1.9303">
        <ele>175</ele>
        <time>2022-03-27T11:42:34Z</time>
      </trkpt>
      <trkpt lat="48.55628" lon="1.93034">
        <ele>175</ele>
        <time>2022-03-27T11:42:36Z</time>
      </trkpt>
      <trkpt lat="48.55627" lon="1.93038">
        <ele>175</ele>
        <time>2022-03-27T11:42:38Z</time>
      </trkpt>
      <trkpt lat="48.55625" lon="1.93042">
        <ele>175</ele>
        <time>2022-03-27T11:42:39Z</time>
      </trkpt>
      <trkpt lat="48.55623" lon="1.93045">
        <ele>175</ele>
        <time>2022-03-27T11:42:41Z</time>
      </trkpt>
      <trkpt lat="48.55622" lon="1.93047">
        <ele>175</ele>
        <time>2022-03-27T11:42:43Z</time>
      </trkpt>
      <trkpt lat="48.5562" lon="1.9305">
        <ele>175</ele>
        <time>2022-03-27T11:42:49Z</time>
      </trkpt>
      <trkpt lat="48.55618" lon="1.93055">
        <ele>175</ele>
        <time>2022-03-27T11:42:51Z</time>
      </trkpt>
      <trkpt lat="48.55616" lon="1.93059">
        <ele>175</ele>
        <time>2022-03-27T11:42:54Z</time>
      </trkpt>
      <trkpt lat="48.55614" lon="1.93063">
        <ele>175</ele>
        <time>2022-03-27T11:42:56Z</time>
      </trkpt>
      <trkpt lat="48.55613" lon="1.93065">
        <ele>175</ele>
        <time>2022-03-27T11:42:57Z</time>
      </trkpt>
      <trkpt lat="48.55612" lon="1.93069">
        <ele>175</ele>
        <time>2022-03-27T11:42:59Z</time>
      </trkpt>
      <trkpt lat="48.55611" lon="1.93073">
        <ele>174</ele>
        <time>2022-03-27T11:43:01Z</time>
      </trkpt>
      <trkpt lat="48.55609" lon="1.93076">
        <ele>174</ele>
        <time>2022-03-27T11:43:03Z</time>
      </trkpt>
      <trkpt lat="48.55607" lon="1.93079">
        <ele>174</ele>
        <time>2022-03-27T11:43:05Z</time>
      </trkpt>
      <trkpt lat="48.55605" lon="1.93083">
        <ele>174</ele>
        <time>2022-03-27T11:43:07Z</time>
      </trkpt>
      <trkpt lat="48.55603" lon="1.93087">
        <ele>174</ele>
        <time>2022-03-27T11:43:09Z</time>
      </trkpt>
      <trkpt lat="48.55602" lon="1.9309">
        <ele>173</ele>
        <time>2022-03-27T11:43:11Z</time>
      </trkpt>
      <trkpt lat="48.55601" lon="1.93092">
        <ele>173</ele>
        <time>2022-03-27T11:43:12Z</time>
      </trkpt>
      <trkpt lat="48.55599" lon="1.93094">
        <ele>173</ele>
        <time>2022-03-27T11:43:13Z</time>
      </trkpt>
      <trkpt lat="48.55597" lon="1.93098">
        <ele>173</ele>
        <time>2022-03-27T11:43:15Z</time>
      </trkpt>
      <trkpt lat="48.55596" lon="1.93102">
        <ele>173</ele>
        <time>2022-03-27T11:43:16Z</time>
      </trkpt>
      <trkpt lat="48.55595" lon="1.93104">
        <ele>173</ele>
        <time>2022-03-27T11:43:17Z</time>
      </trkpt>
      <trkpt lat="48.55593" lon="1.93107">
        <ele>173</ele>
        <time>2022-03-27T11:43:19Z</time>
      </trkpt>
      <trkpt lat="48.55591" lon="1.93111">
        <ele>173</ele>
        <time>2022-03-27T11:43:21Z</time>
      </trkpt>
      <trkpt lat="48.55589" lon="1.93115">
        <ele>173</ele>
        <time>2022-03-27T11:43:23Z</time>
      </trkpt>
      <trkpt lat="48.55588" lon="1.93117">
        <ele>173</ele>
        <time>2022-03-27T11:43:24Z</time>
      </trkpt>
      <trkpt lat="48.55587" lon="1.93122">
        <ele>172</ele>
        <time>2022-03-27T11:43:26Z</time>
      </trkpt>
      <trkpt lat="48.55585" lon="1.93126">
        <ele>173</ele>
        <time>2022-03-27T11:43:28Z</time>
      </trkpt>
      <trkpt lat="48.55583" lon="1.9313">
        <ele>172</ele>
        <time>2022-03-27T11:43:30Z</time>
      </trkpt>
      <trkpt lat="48.55581" lon="1.93133">
        <ele>171</ele>
        <time>2022-03-27T11:43:32Z</time>
      </trkpt>
      <trkpt lat="48.5558" lon="1.93137">
        <ele>171</ele>
        <time>2022-03-27T11:43:34Z</time>
      </trkpt>
      <trkpt lat="48.55581" lon="1.9314">
        <ele>170</ele>
        <time>2022-03-27T11:43:38Z</time>
      </trkpt>
      <trkpt lat="48.55581" lon="1.93144">
        <ele>169</ele>
        <time>2022-03-27T11:43:44Z</time>
      </trkpt>
      <trkpt lat="48.55582" lon="1.93148">
        <ele>169</ele>
        <time>2022-03-27T11:43:46Z</time>
      </trkpt>
      <trkpt lat="48.55582" lon="1.93152">
        <ele>168</ele>
        <time>2022-03-27T11:43:48Z</time>
      </trkpt>
      <trkpt lat="48.55582" lon="1.93155">
        <ele>168</ele>
        <time>2022-03-27T11:43:51Z</time>
      </trkpt>
      <trkpt lat="48.55582" lon="1.9316">
        <ele>168</ele>
        <time>2022-03-27T11:43:52Z</time>
      </trkpt>
      <trkpt lat="48.55581" lon="1.93162">
        <ele>168</ele>
        <time>2022-03-27T11:43:53Z</time>
      </trkpt>
      <trkpt lat="48.5558" lon="1.93165">
        <ele>168</ele>
        <time>2022-03-27T11:43:54Z</time>
      </trkpt>
      <trkpt lat="48.55578" lon="1.93168">
        <ele>167</ele>
        <time>2022-03-27T11:43:57Z</time>
      </trkpt>
      <trkpt lat="48.55576" lon="1.9317">
        <ele>167</ele>
        <time>2022-03-27T11:43:58Z</time>
      </trkpt>
      <trkpt lat="48.55574" lon="1.93174">
        <ele>167</ele>
        <time>2022-03-27T11:44:00Z</time>
      </trkpt>
      <trkpt lat="48.55573" lon="1.93176">
        <ele>167</ele>
        <time>2022-03-27T11:44:01Z</time>
      </trkpt>
      <trkpt lat="48.55571" lon="1.93178">
        <ele>167</ele>
        <time>2022-03-27T11:44:02Z</time>
      </trkpt>
      <trkpt lat="48.5557" lon="1.9318">
        <ele>167</ele>
        <time>2022-03-27T11:44:03Z</time>
      </trkpt>
      <trkpt lat="48.55568" lon="1.93182">
        <ele>166</ele>
        <time>2022-03-27T11:44:04Z</time>
      </trkpt>
      <trkpt lat="48.55566" lon="1.93184">
        <ele>166</ele>
        <time>2022-03-27T11:44:05Z</time>
      </trkpt>
      <trkpt lat="48.55565" lon="1.93189">
        <ele>165</ele>
        <time>2022-03-27T11:44:07Z</time>
      </trkpt>
      <trkpt lat="48.55564" lon="1.93193">
        <ele>165</ele>
        <time>2022-03-27T11:44:09Z</time>
      </trkpt>
      <trkpt lat="48.55564" lon="1.93198">
        <ele>165</ele>
        <time>2022-03-27T11:44:11Z</time>
      </trkpt>
      <trkpt lat="48.55565" lon="1.93202">
        <ele>165</ele>
        <time>2022-03-27T11:44:13Z</time>
      </trkpt>
      <trkpt lat="48.55566" lon="1.93207">
        <ele>165</ele>
        <time>2022-03-27T11:44:15Z</time>
      </trkpt>
      <trkpt lat="48.55566" lon="1.93211">
        <ele>165</ele>
        <time>2022-03-27T11:44:17Z</time>
      </trkpt>
      <trkpt lat="48.55568" lon="1.93215">
        <ele>164</ele>
        <time>2022-03-27T11:44:19Z</time>
      </trkpt>
      <trkpt lat="48.55569" lon="1.93219">
        <ele>164</ele>
        <time>2022-03-27T11:44:21Z</time>
      </trkpt>
      <trkpt lat="48.5557" lon="1.93222">
        <ele>164</ele>
        <time>2022-03-27T11:44:23Z</time>
      </trkpt>
      <trkpt lat="48.55571" lon="1.93226">
        <ele>164</ele>
        <time>2022-03-27T11:44:25Z</time>
      </trkpt>
      <trkpt lat="48.55572" lon="1.93229">
        <ele>164</ele>
        <time>2022-03-27T11:44:27Z</time>
      </trkpt>
      <trkpt lat="48.55573" lon="1.93232">
        <ele>164</ele>
        <time>2022-03-27T11:44:29Z</time>
      </trkpt>
      <trkpt lat="48.55575" lon="1.93235">
        <ele>164</ele>
        <time>2022-03-27T11:44:31Z</time>
      </trkpt>
      <trkpt lat="48.55576" lon="1.93239">
        <ele>164</ele>
        <time>2022-03-27T11:44:33Z</time>
      </trkpt>
      <trkpt lat="48.55578" lon="1.93244">
        <ele>165</ele>
        <time>2022-03-27T11:44:35Z</time>
      </trkpt>
      <trkpt lat="48.5558" lon="1.93248">
        <ele>164</ele>
        <time>2022-03-27T11:44:37Z</time>
      </trkpt>
      <trkpt lat="48.5558" lon="1.93253">
        <ele>164</ele>
        <time>2022-03-27T11:44:39Z</time>
      </trkpt>
      <trkpt lat="48.55579" lon="1.93257">
        <ele>164</ele>
        <time>2022-03-27T11:44:41Z</time>
      </trkpt>
      <trkpt lat="48.5558" lon="1.93261">
        <ele>164</ele>
        <time>2022-03-27T11:44:43Z</time>
      </trkpt>
      <trkpt lat="48.55579" lon="1.93266">
        <ele>164</ele>
        <time>2022-03-27T11:44:45Z</time>
      </trkpt>
      <trkpt lat="48.55579" lon="1.9327">
        <ele>164</ele>
        <time>2022-03-27T11:44:46Z</time>
      </trkpt>
      <trkpt lat="48.55577" lon="1.93273">
        <ele>164</ele>
        <time>2022-03-27T11:44:48Z</time>
      </trkpt>
      <trkpt lat="48.55576" lon="1.93277">
        <ele>163</ele>
        <time>2022-03-27T11:44:49Z</time>
      </trkpt>
      <trkpt lat="48.55576" lon="1.93281">
        <ele>163</ele>
        <time>2022-03-27T11:44:51Z</time>
      </trkpt>
      <trkpt lat="48.55575" lon="1.93284">
        <ele>164</ele>
        <time>2022-03-27T11:44:53Z</time>
      </trkpt>
      <trkpt lat="48.55575" lon="1.93287">
        <ele>164</ele>
        <time>2022-03-27T11:44:55Z</time>
      </trkpt>
      <trkpt lat="48.55575" lon="1.9329">
        <ele>164</ele>
        <time>2022-03-27T11:44:57Z</time>
      </trkpt>
      <trkpt lat="48.55575" lon="1.93295">
        <ele>164</ele>
        <time>2022-03-27T11:44:59Z</time>
      </trkpt>
      <trkpt lat="48.55576" lon="1.93299">
        <ele>165</ele>
        <time>2022-03-27T11:45:02Z</time>
      </trkpt>
      <trkpt lat="48.55577" lon="1.93302">
        <ele>165</ele>
        <time>2022-03-27T11:45:03Z</time>
      </trkpt>
      <trkpt lat="48.55578" lon="1.93306">
        <ele>165</ele>
        <time>2022-03-27T11:45:05Z</time>
      </trkpt>
      <trkpt lat="48.55578" lon="1.9331">
        <ele>165</ele>
        <time>2022-03-27T11:45:07Z</time>
      </trkpt>
      <trkpt lat="48.55579" lon="1.93315">
        <ele>166</ele>
        <time>2022-03-27T11:45:08Z</time>
      </trkpt>
      <trkpt lat="48.5558" lon="1.93319">
        <ele>166</ele>
        <time>2022-03-27T11:45:10Z</time>
      </trkpt>
      <trkpt lat="48.55581" lon="1.93323">
        <ele>166</ele>
        <time>2022-03-27T11:45:12Z</time>
      </trkpt>
      <trkpt lat="48.55582" lon="1.93327">
        <ele>166</ele>
        <time>2022-03-27T11:45:14Z</time>
      </trkpt>
      <trkpt lat="48.55583" lon="1.93331">
        <ele>166</ele>
        <time>2022-03-27T11:45:16Z</time>
      </trkpt>
      <trkpt lat="48.55583" lon="1.93335">
        <ele>166</ele>
        <time>2022-03-27T11:45:18Z</time>
      </trkpt>
      <trkpt lat="48.55584" lon="1.93338">
        <ele>166</ele>
        <time>2022-03-27T11:45:20Z</time>
      </trkpt>
      <trkpt lat="48.55586" lon="1.93341">
        <ele>166</ele>
        <time>2022-03-27T11:45:22Z</time>
      </trkpt>
      <trkpt lat="48.55587" lon="1.93346">
        <ele>166</ele>
        <time>2022-03-27T11:45:24Z</time>
      </trkpt>
      <trkpt lat="48.55588" lon="1.9335">
        <ele>166</ele>
        <time>2022-03-27T11:45:26Z</time>
      </trkpt>
      <trkpt lat="48.55589" lon="1.93356">
        <ele>166</ele>
        <time>2022-03-27T11:45:28Z</time>
      </trkpt>
      <trkpt lat="48.55589" lon="1.9336">
        <ele>166</ele>
        <time>2022-03-27T11:45:30Z</time>
      </trkpt>
      <trkpt lat="48.55589" lon="1.93364">
        <ele>166</ele>
        <time>2022-03-27T11:45:32Z</time>
      </trkpt>
      <trkpt lat="48.5559" lon="1.93368">
        <ele>166</ele>
        <time>2022-03-27T11:45:34Z</time>
      </trkpt>
      <trkpt lat="48.55591" lon="1.93371">
        <ele>166</ele>
        <time>2022-03-27T11:45:37Z</time>
      </trkpt>
      <trkpt lat="48.55593" lon="1.93374">
        <ele>166</ele>
        <time>2022-03-27T11:45:39Z</time>
      </trkpt>
      <trkpt lat="48.55596" lon="1.93377">
        <ele>166</ele>
        <time>2022-03-27T11:45:41Z</time>
      </trkpt>
      <trkpt lat="48.55597" lon="1.93381">
        <ele>166</ele>
        <time>2022-03-27T11:45:43Z</time>
      </trkpt>
      <trkpt lat="48.55599" lon="1.93384">
        <ele>166</ele>
        <time>2022-03-27T11:45:45Z</time>
      </trkpt>
      <trkpt lat="48.55601" lon="1.93388">
        <ele>166</ele>
        <time>2022-03-27T11:45:46Z</time>
      </trkpt>
      <trkpt lat="48.55602" lon="1.93392">
        <ele>166</ele>
        <time>2022-03-27T11:45:48Z</time>
      </trkpt>
      <trkpt lat="48.55604" lon="1.93395">
        <ele>167</ele>
        <time>2022-03-27T11:45:50Z</time>
      </trkpt>
      <trkpt lat="48.55606" lon="1.93399">
        <ele>167</ele>
        <time>2022-03-27T11:45:52Z</time>
      </trkpt>
      <trkpt lat="48.55608" lon="1.93402">
        <ele>167</ele>
        <time>2022-03-27T11:45:54Z</time>
      </trkpt>
      <trkpt lat="48.55609" lon="1.93406">
        <ele>168</ele>
        <time>2022-03-27T11:45:56Z</time>
      </trkpt>
      <trkpt lat="48.55609" lon="1.9341">
        <ele>168</ele>
        <time>2022-03-27T11:45:58Z</time>
      </trkpt>
      <trkpt lat="48.55609" lon="1.93414">
        <ele>168</ele>
        <time>2022-03-27T11:46:00Z</time>
      </trkpt>
      <trkpt lat="48.55609" lon="1.93419">
        <ele>168</ele>
        <time>2022-03-27T11:46:02Z</time>
      </trkpt>
      <trkpt lat="48.55608" lon="1.93424">
        <ele>167</ele>
        <time>2022-03-27T11:46:04Z</time>
      </trkpt>
      <trkpt lat="48.55608" lon="1.93429">
        <ele>167</ele>
        <time>2022-03-27T11:46:06Z</time>
      </trkpt>
      <trkpt lat="48.55608" lon="1.93434">
        <ele>167</ele>
        <time>2022-03-27T11:46:08Z</time>
      </trkpt>
      <trkpt lat="48.55608" lon="1.93438">
        <ele>167</ele>
        <time>2022-03-27T11:46:11Z</time>
      </trkpt>
      <trkpt lat="48.55609" lon="1.93443">
        <ele>166</ele>
        <time>2022-03-27T11:46:13Z</time>
      </trkpt>
      <trkpt lat="48.5561" lon="1.93448">
        <ele>166</ele>
        <time>2022-03-27T11:46:15Z</time>
      </trkpt>
      <trkpt lat="48.55611" lon="1.93453">
        <ele>166</ele>
        <time>2022-03-27T11:46:17Z</time>
      </trkpt>
      <trkpt lat="48.55611" lon="1.93457">
        <ele>166</ele>
        <time>2022-03-27T11:46:19Z</time>
      </trkpt>
      <trkpt lat="48.55611" lon="1.93462">
        <ele>166</ele>
        <time>2022-03-27T11:46:20Z</time>
      </trkpt>
      <trkpt lat="48.55611" lon="1.93466">
        <ele>166</ele>
        <time>2022-03-27T11:46:23Z</time>
      </trkpt>
      <trkpt lat="48.5561" lon="1.9347">
        <ele>166</ele>
        <time>2022-03-27T11:46:24Z</time>
      </trkpt>
      <trkpt lat="48.55609" lon="1.93474">
        <ele>165</ele>
        <time>2022-03-27T11:46:26Z</time>
      </trkpt>
      <trkpt lat="48.55609" lon="1.93478">
        <ele>165</ele>
        <time>2022-03-27T11:46:28Z</time>
      </trkpt>
      <trkpt lat="48.55611" lon="1.93481">
        <ele>165</ele>
        <time>2022-03-27T11:46:30Z</time>
      </trkpt>
      <trkpt lat="48.55612" lon="1.93485">
        <ele>165</ele>
        <time>2022-03-27T11:46:32Z</time>
      </trkpt>
      <trkpt lat="48.55613" lon="1.9349">
        <ele>165</ele>
        <time>2022-03-27T11:46:34Z</time>
      </trkpt>
      <trkpt lat="48.55613" lon="1.93494">
        <ele>166</ele>
        <time>2022-03-27T11:46:36Z</time>
      </trkpt>
      <trkpt lat="48.55612" lon="1.93498">
        <ele>166</ele>
        <time>2022-03-27T11:46:38Z</time>
      </trkpt>
      <trkpt lat="48.55613" lon="1.93501">
        <ele>166</ele>
        <time>2022-03-27T11:46:40Z</time>
      </trkpt>
      <trkpt lat="48.55614" lon="1.93505">
        <ele>166</ele>
        <time>2022-03-27T11:46:42Z</time>
      </trkpt>
      <trkpt lat="48.55615" lon="1.9351">
        <ele>166</ele>
        <time>2022-03-27T11:46:44Z</time>
      </trkpt>
      <trkpt lat="48.55617" lon="1.93514">
        <ele>166</ele>
        <time>2022-03-27T11:46:47Z</time>
      </trkpt>
      <trkpt lat="48.55619" lon="1.93517">
        <ele>166</ele>
        <time>2022-03-27T11:46:49Z</time>
      </trkpt>
      <trkpt lat="48.5562" lon="1.9352">
        <ele>167</ele>
        <time>2022-03-27T11:46:51Z</time>
      </trkpt>
      <trkpt lat="48.55621" lon="1.93523">
        <ele>167</ele>
        <time>2022-03-27T11:46:53Z</time>
      </trkpt>
      <trkpt lat="48.55622" lon="1.93527">
        <ele>167</ele>
        <time>2022-03-27T11:46:55Z</time>
      </trkpt>
      <trkpt lat="48.55623" lon="1.93532">
        <ele>167</ele>
        <time>2022-03-27T11:46:57Z</time>
      </trkpt>
      <trkpt lat="48.55624" lon="1.93536">
        <ele>167</ele>
        <time>2022-03-27T11:46:59Z</time>
      </trkpt>
      <trkpt lat="48.55625" lon="1.9354">
        <ele>167</ele>
        <time>2022-03-27T11:47:01Z</time>
      </trkpt>
      <trkpt lat="48.55627" lon="1.93544">
        <ele>168</ele>
        <time>2022-03-27T11:47:03Z</time>
      </trkpt>
      <trkpt lat="48.55629" lon="1.93548">
        <ele>168</ele>
        <time>2022-03-27T11:47:05Z</time>
      </trkpt>
      <trkpt lat="48.55631" lon="1.93552">
        <ele>168</ele>
        <time>2022-03-27T11:47:07Z</time>
      </trkpt>
      <trkpt lat="48.55632" lon="1.93554">
        <ele>168</ele>
        <time>2022-03-27T11:47:08Z</time>
      </trkpt>
      <trkpt lat="48.55633" lon="1.93558">
        <ele>168</ele>
        <time>2022-03-27T11:47:10Z</time>
      </trkpt>
      <trkpt lat="48.55635" lon="1.93562">
        <ele>168</ele>
        <time>2022-03-27T11:47:12Z</time>
      </trkpt>
      <trkpt lat="48.55636" lon="1.93567">
        <ele>168</ele>
        <time>2022-03-27T11:47:14Z</time>
      </trkpt>
      <trkpt lat="48.55638" lon="1.93571">
        <ele>167</ele>
        <time>2022-03-27T11:47:16Z</time>
      </trkpt>
      <trkpt lat="48.55639" lon="1.93575">
        <ele>167</ele>
        <time>2022-03-27T11:47:17Z</time>
      </trkpt>
      <trkpt lat="48.55639" lon="1.9358">
        <ele>167</ele>
        <time>2022-03-27T11:47:20Z</time>
      </trkpt>
      <trkpt lat="48.55641" lon="1.93584">
        <ele>167</ele>
        <time>2022-03-27T11:47:22Z</time>
      </trkpt>
      <trkpt lat="48.55642" lon="1.93588">
        <ele>167</ele>
        <time>2022-03-27T11:47:24Z</time>
      </trkpt>
      <trkpt lat="48.55643" lon="1.93592">
        <ele>168</ele>
        <time>2022-03-27T11:47:26Z</time>
      </trkpt>
      <trkpt lat="48.55644" lon="1.93596">
        <ele>168</ele>
        <time>2022-03-27T11:47:28Z</time>
      </trkpt>
      <trkpt lat="48.55645" lon="1.93601">
        <ele>168</ele>
        <time>2022-03-27T11:47:30Z</time>
      </trkpt>
      <trkpt lat="48.55647" lon="1.93605">
        <ele>168</ele>
        <time>2022-03-27T11:47:32Z</time>
      </trkpt>
      <trkpt lat="48.55648" lon="1.93609">
        <ele>168</ele>
        <time>2022-03-27T11:47:34Z</time>
      </trkpt>
      <trkpt lat="48.55649" lon="1.93614">
        <ele>168</ele>
        <time>2022-03-27T11:47:36Z</time>
      </trkpt>
      <trkpt lat="48.55651" lon="1.93618">
        <ele>168</ele>
        <time>2022-03-27T11:47:38Z</time>
      </trkpt>
      <trkpt lat="48.55653" lon="1.93621">
        <ele>168</ele>
        <time>2022-03-27T11:47:40Z</time>
      </trkpt>
      <trkpt lat="48.55654" lon="1.93624">
        <ele>168</ele>
        <time>2022-03-27T11:47:42Z</time>
      </trkpt>
      <trkpt lat="48.55655" lon="1.93628">
        <ele>168</ele>
        <time>2022-03-27T11:47:44Z</time>
      </trkpt>
      <trkpt lat="48.55656" lon="1.93632">
        <ele>169</ele>
        <time>2022-03-27T11:47:46Z</time>
      </trkpt>
      <trkpt lat="48.55657" lon="1.93635">
        <ele>169</ele>
        <time>2022-03-27T11:47:48Z</time>
      </trkpt>
      <trkpt lat="48.55659" lon="1.93639">
        <ele>169</ele>
        <time>2022-03-27T11:47:50Z</time>
      </trkpt>
      <trkpt lat="48.55661" lon="1.93642">
        <ele>169</ele>
        <time>2022-03-27T11:47:51Z</time>
      </trkpt>
      <trkpt lat="48.55662" lon="1.93646">
        <ele>169</ele>
        <time>2022-03-27T11:47:53Z</time>
      </trkpt>
      <trkpt lat="48.55662" lon="1.9365">
        <ele>170</ele>
        <time>2022-03-27T11:47:55Z</time>
      </trkpt>
      <trkpt lat="48.55664" lon="1.93654">
        <ele>170</ele>
        <time>2022-03-27T11:47:58Z</time>
      </trkpt>
      <trkpt lat="48.55665" lon="1.93657">
        <ele>170</ele>
        <time>2022-03-27T11:47:59Z</time>
      </trkpt>
      <trkpt lat="48.55667" lon="1.93661">
        <ele>170</ele>
        <time>2022-03-27T11:48:01Z</time>
      </trkpt>
      <trkpt lat="48.55668" lon="1.93665">
        <ele>170</ele>
        <time>2022-03-27T11:48:03Z</time>
      </trkpt>
      <trkpt lat="48.5567" lon="1.93668">
        <ele>169</ele>
        <time>2022-03-27T11:48:05Z</time>
      </trkpt>
      <trkpt lat="48.55672" lon="1.93671">
        <ele>170</ele>
        <time>2022-03-27T11:48:07Z</time>
      </trkpt>
      <trkpt lat="48.55674" lon="1.93673">
        <ele>170</ele>
        <time>2022-03-27T11:48:09Z</time>
      </trkpt>
      <trkpt lat="48.55676" lon="1.93676">
        <ele>170</ele>
        <time>2022-03-27T11:48:11Z</time>
      </trkpt>
      <trkpt lat="48.55678" lon="1.93677">
        <ele>170</ele>
        <time>2022-03-27T11:48:13Z</time>
      </trkpt>
      <trkpt lat="48.55681" lon="1.93676">
        <ele>170</ele>
        <time>2022-03-27T11:48:15Z</time>
      </trkpt>
      <trkpt lat="48.55684" lon="1.93677">
        <ele>170</ele>
        <time>2022-03-27T11:48:17Z</time>
      </trkpt>
      <trkpt lat="48.55687" lon="1.93677">
        <ele>170</ele>
        <time>2022-03-27T11:48:19Z</time>
      </trkpt>
      <trkpt lat="48.5569" lon="1.93677">
        <ele>169</ele>
        <time>2022-03-27T11:48:21Z</time>
      </trkpt>
      <trkpt lat="48.55693" lon="1.93677">
        <ele>169</ele>
        <time>2022-03-27T11:48:23Z</time>
      </trkpt>
      <trkpt lat="48.55695" lon="1.93677">
        <ele>169</ele>
        <time>2022-03-27T11:48:25Z</time>
      </trkpt>
      <trkpt lat="48.55698" lon="1.93677">
        <ele>169</ele>
        <time>2022-03-27T11:48:28Z</time>
      </trkpt>
      <trkpt lat="48.55701" lon="1.93676">
        <ele>170</ele>
        <time>2022-03-27T11:48:30Z</time>
      </trkpt>
      <trkpt lat="48.55704" lon="1.93676">
        <ele>170</ele>
        <time>2022-03-27T11:48:32Z</time>
      </trkpt>
      <trkpt lat="48.55706" lon="1.93676">
        <ele>171</ele>
        <time>2022-03-27T11:48:33Z</time>
      </trkpt>
      <trkpt lat="48.55709" lon="1.93676">
        <ele>171</ele>
        <time>2022-03-27T11:48:35Z</time>
      </trkpt>
      <trkpt lat="48.55712" lon="1.93676">
        <ele>171</ele>
        <time>2022-03-27T11:48:37Z</time>
      </trkpt>
      <trkpt lat="48.55715" lon="1.93676">
        <ele>171</ele>
        <time>2022-03-27T11:48:39Z</time>
      </trkpt>
      <trkpt lat="48.55718" lon="1.93677">
        <ele>171</ele>
        <time>2022-03-27T11:48:41Z</time>
      </trkpt>
      <trkpt lat="48.55721" lon="1.93678">
        <ele>171</ele>
        <time>2022-03-27T11:48:43Z</time>
      </trkpt>
      <trkpt lat="48.55724" lon="1.93678">
        <ele>171</ele>
        <time>2022-03-27T11:48:45Z</time>
      </trkpt>
      <trkpt lat="48.55727" lon="1.93678">
        <ele>171</ele>
        <time>2022-03-27T11:48:47Z</time>
      </trkpt>
      <trkpt lat="48.5573" lon="1.93679">
        <ele>171</ele>
        <time>2022-03-27T11:48:49Z</time>
      </trkpt>
      <trkpt lat="48.55734" lon="1.93679">
        <ele>170</ele>
        <time>2022-03-27T11:48:51Z</time>
      </trkpt>
      <trkpt lat="48.55737" lon="1.9368">
        <ele>170</ele>
        <time>2022-03-27T11:48:53Z</time>
      </trkpt>
      <trkpt lat="48.5574" lon="1.9368">
        <ele>170</ele>
        <time>2022-03-27T11:48:55Z</time>
      </trkpt>
      <trkpt lat="48.55742" lon="1.9368">
        <ele>169</ele>
        <time>2022-03-27T11:48:56Z</time>
      </trkpt>
      <trkpt lat="48.55745" lon="1.9368">
        <ele>170</ele>
        <time>2022-03-27T11:48:58Z</time>
      </trkpt>
      <trkpt lat="48.55748" lon="1.93681">
        <ele>170</ele>
        <time>2022-03-27T11:49:01Z</time>
      </trkpt>
      <trkpt lat="48.55752" lon="1.93681">
        <ele>170</ele>
        <time>2022-03-27T11:49:03Z</time>
      </trkpt>
      <trkpt lat="48.55754" lon="1.93681">
        <ele>169</ele>
        <time>2022-03-27T11:49:04Z</time>
      </trkpt>
      <trkpt lat="48.55757" lon="1.93681">
        <ele>169</ele>
        <time>2022-03-27T11:49:06Z</time>
      </trkpt>
      <trkpt lat="48.5576" lon="1.93681">
        <ele>169</ele>
        <time>2022-03-27T11:49:08Z</time>
      </trkpt>
      <trkpt lat="48.55763" lon="1.9368">
        <ele>169</ele>
        <time>2022-03-27T11:49:10Z</time>
      </trkpt>
      <trkpt lat="48.55766" lon="1.9368">
        <ele>169</ele>
        <time>2022-03-27T11:49:12Z</time>
      </trkpt>
      <trkpt lat="48.55769" lon="1.9368">
        <ele>168</ele>
        <time>2022-03-27T11:49:14Z</time>
      </trkpt>
      <trkpt lat="48.55772" lon="1.9368">
        <ele>168</ele>
        <time>2022-03-27T11:49:16Z</time>
      </trkpt>
      <trkpt lat="48.55775" lon="1.93679">
        <ele>168</ele>
        <time>2022-03-27T11:49:18Z</time>
      </trkpt>
      <trkpt lat="48.55777" lon="1.93678">
        <ele>168</ele>
        <time>2022-03-27T11:49:20Z</time>
      </trkpt>
      <trkpt lat="48.5578" lon="1.93677">
        <ele>168</ele>
        <time>2022-03-27T11:49:22Z</time>
      </trkpt>
      <trkpt lat="48.55783" lon="1.93677">
        <ele>168</ele>
        <time>2022-03-27T11:49:24Z</time>
      </trkpt>
      <trkpt lat="48.55786" lon="1.93676">
        <ele>168</ele>
        <time>2022-03-27T11:49:26Z</time>
      </trkpt>
      <trkpt lat="48.55788" lon="1.93675">
        <ele>168</ele>
        <time>2022-03-27T11:49:28Z</time>
      </trkpt>
      <trkpt lat="48.55791" lon="1.93676">
        <ele>167</ele>
        <time>2022-03-27T11:49:30Z</time>
      </trkpt>
      <trkpt lat="48.55794" lon="1.93676">
        <ele>167</ele>
        <time>2022-03-27T11:49:32Z</time>
      </trkpt>
      <trkpt lat="48.55797" lon="1.93675">
        <ele>167</ele>
        <time>2022-03-27T11:49:34Z</time>
      </trkpt>
      <trkpt lat="48.55801" lon="1.93674">
        <ele>166</ele>
        <time>2022-03-27T11:49:36Z</time>
      </trkpt>
      <trkpt lat="48.55804" lon="1.93673">
        <ele>166</ele>
        <time>2022-03-27T11:49:38Z</time>
      </trkpt>
      <trkpt lat="48.55806" lon="1.93672">
        <ele>166</ele>
        <time>2022-03-27T11:49:40Z</time>
      </trkpt>
      <trkpt lat="48.55809" lon="1.9367">
        <ele>165</ele>
        <time>2022-03-27T11:49:42Z</time>
      </trkpt>
      <trkpt lat="48.55812" lon="1.93669">
        <ele>165</ele>
        <time>2022-03-27T11:49:44Z</time>
      </trkpt>
      <trkpt lat="48.55815" lon="1.93668">
        <ele>165</ele>
        <time>2022-03-27T11:49:46Z</time>
      </trkpt>
      <trkpt lat="48.55818" lon="1.93666">
        <ele>164</ele>
        <time>2022-03-27T11:49:48Z</time>
      </trkpt>
      <trkpt lat="48.55821" lon="1.93665">
        <ele>164</ele>
        <time>2022-03-27T11:49:50Z</time>
      </trkpt>
      <trkpt lat="48.55824" lon="1.93665">
        <ele>163</ele>
        <time>2022-03-27T11:49:52Z</time>
      </trkpt>
      <trkpt lat="48.55827" lon="1.93664">
        <ele>163</ele>
        <time>2022-03-27T11:49:54Z</time>
      </trkpt>
      <trkpt lat="48.5583" lon="1.93663">
        <ele>163</ele>
        <time>2022-03-27T11:49:56Z</time>
      </trkpt>
      <trkpt lat="48.55833" lon="1.93662">
        <ele>162</ele>
        <time>2022-03-27T11:49:58Z</time>
      </trkpt>
      <trkpt lat="48.55835" lon="1.93661">
        <ele>162</ele>
        <time>2022-03-27T11:50:00Z</time>
      </trkpt>
      <trkpt lat="48.55838" lon="1.93659">
        <ele>162</ele>
        <time>2022-03-27T11:50:02Z</time>
      </trkpt>
      <trkpt lat="48.55841" lon="1.93658">
        <ele>162</ele>
        <time>2022-03-27T11:50:04Z</time>
      </trkpt>
      <trkpt lat="48.55844" lon="1.93658">
        <ele>161</ele>
        <time>2022-03-27T11:50:06Z</time>
      </trkpt>
      <trkpt lat="48.55847" lon="1.93658">
        <ele>161</ele>
        <time>2022-03-27T11:50:07Z</time>
      </trkpt>
      <trkpt lat="48.5585" lon="1.93657">
        <ele>161</ele>
        <time>2022-03-27T11:50:09Z</time>
      </trkpt>
      <trkpt lat="48.55853" lon="1.93657">
        <ele>160</ele>
        <time>2022-03-27T11:50:11Z</time>
      </trkpt>
      <trkpt lat="48.55856" lon="1.93657">
        <ele>160</ele>
        <time>2022-03-27T11:50:13Z</time>
      </trkpt>
      <trkpt lat="48.55859" lon="1.93656">
        <ele>159</ele>
        <time>2022-03-27T11:50:15Z</time>
      </trkpt>
      <trkpt lat="48.55861" lon="1.93657">
        <ele>159</ele>
        <time>2022-03-27T11:50:16Z</time>
      </trkpt>
      <trkpt lat="48.55864" lon="1.93656">
        <ele>158</ele>
        <time>2022-03-27T11:50:18Z</time>
      </trkpt>
      <trkpt lat="48.55866" lon="1.93656">
        <ele>158</ele>
        <time>2022-03-27T11:50:20Z</time>
      </trkpt>
      <trkpt lat="48.55869" lon="1.93655">
        <ele>158</ele>
        <time>2022-03-27T11:50:22Z</time>
      </trkpt>
      <trkpt lat="48.55872" lon="1.93655">
        <ele>158</ele>
        <time>2022-03-27T11:50:24Z</time>
      </trkpt>
      <trkpt lat="48.55875" lon="1.93654">
        <ele>157</ele>
        <time>2022-03-27T11:50:26Z</time>
      </trkpt>
      <trkpt lat="48.55878" lon="1.93652">
        <ele>157</ele>
        <time>2022-03-27T11:50:28Z</time>
      </trkpt>
      <trkpt lat="48.55881" lon="1.93651">
        <ele>157</ele>
        <time>2022-03-27T11:50:30Z</time>
      </trkpt>
      <trkpt lat="48.55884" lon="1.9365">
        <ele>157</ele>
        <time>2022-03-27T11:50:32Z</time>
      </trkpt>
      <trkpt lat="48.55887" lon="1.9365">
        <ele>156</ele>
        <time>2022-03-27T11:50:34Z</time>
      </trkpt>
      <trkpt lat="48.55889" lon="1.93649">
        <ele>156</ele>
        <time>2022-03-27T11:50:36Z</time>
      </trkpt>
      <trkpt lat="48.55892" lon="1.93648">
        <ele>156</ele>
        <time>2022-03-27T11:50:38Z</time>
      </trkpt>
      <trkpt lat="48.55895" lon="1.93648">
        <ele>156</ele>
        <time>2022-03-27T11:50:41Z</time>
      </trkpt>
      <trkpt lat="48.55898" lon="1.93647">
        <ele>156</ele>
        <time>2022-03-27T11:50:43Z</time>
      </trkpt>
      <trkpt lat="48.55901" lon="1.93645">
        <ele>156</ele>
        <time>2022-03-27T11:50:45Z</time>
      </trkpt>
      <trkpt lat="48.55904" lon="1.93643">
        <ele>156</ele>
        <time>2022-03-27T11:50:47Z</time>
      </trkpt>
      <trkpt lat="48.55907" lon="1.93641">
        <ele>156</ele>
        <time>2022-03-27T11:50:49Z</time>
      </trkpt>
      <trkpt lat="48.5591" lon="1.9364">
        <ele>156</ele>
        <time>2022-03-27T11:50:50Z</time>
      </trkpt>
      <trkpt lat="48.55913" lon="1.93639">
        <ele>155</ele>
        <time>2022-03-27T11:50:52Z</time>
      </trkpt>
      <trkpt lat="48.55916" lon="1.93637">
        <ele>155</ele>
        <time>2022-03-27T11:50:54Z</time>
      </trkpt>
      <trkpt lat="48.55919" lon="1.93637">
        <ele>155</ele>
        <time>2022-03-27T11:50:56Z</time>
      </trkpt>
      <trkpt lat="48.55921" lon="1.93636">
        <ele>155</ele>
        <time>2022-03-27T11:50:58Z</time>
      </trkpt>
      <trkpt lat="48.55924" lon="1.93635">
        <ele>155</ele>
        <time>2022-03-27T11:51:00Z</time>
      </trkpt>
      <trkpt lat="48.55927" lon="1.93635">
        <ele>155</ele>
        <time>2022-03-27T11:51:02Z</time>
      </trkpt>
      <trkpt lat="48.55928" lon="1.93637">
        <ele>154</ele>
        <time>2022-03-27T11:51:04Z</time>
      </trkpt>
      <trkpt lat="48.5593" lon="1.93641">
        <ele>154</ele>
        <time>2022-03-27T11:51:06Z</time>
      </trkpt>
      <trkpt lat="48.5593" lon="1.93644">
        <ele>153</ele>
        <time>2022-03-27T11:51:08Z</time>
      </trkpt>
      <trkpt lat="48.5593" lon="1.93648">
        <ele>153</ele>
        <time>2022-03-27T11:51:08Z</time>
      </trkpt>
      <trkpt lat="48.55929" lon="1.9365">
        <ele>153</ele>
        <time>2022-03-27T11:51:10Z</time>
      </trkpt>
      <trkpt lat="48.55928" lon="1.93646">
        <ele>151</ele>
        <time>2022-03-27T11:51:18Z</time>
      </trkpt>
      <trkpt lat="48.55928" lon="1.93643">
        <ele>151</ele>
        <time>2022-03-27T11:51:21Z</time>
      </trkpt>
      <trkpt lat="48.55929" lon="1.93641">
        <ele>150</ele>
        <time>2022-03-27T11:51:23Z</time>
      </trkpt>
      <trkpt lat="48.55931" lon="1.93639">
        <ele>150</ele>
        <time>2022-03-27T11:51:26Z</time>
      </trkpt>
      <trkpt lat="48.55933" lon="1.93639">
        <ele>149</ele>
        <time>2022-03-27T11:51:27Z</time>
      </trkpt>
      <trkpt lat="48.55936" lon="1.9364">
        <ele>148</ele>
        <time>2022-03-27T11:51:30Z</time>
      </trkpt>
      <trkpt lat="48.55952" lon="1.93628">
        <ele>142</ele>
        <time>2022-03-27T11:57:19Z</time>
      </trkpt>
      <trkpt lat="48.55952" lon="1.93628">
        <ele>142</ele>
        <time>2022-03-27T11:57:21Z</time>
      </trkpt>
      <trkpt lat="48.5595" lon="1.93628">
        <ele>147</ele>
        <time>2022-03-27T12:56:20Z</time>
      </trkpt>
      <trkpt lat="48.55947" lon="1.93628">
        <ele>147</ele>
        <time>2022-03-27T12:56:22Z</time>
      </trkpt>
      <trkpt lat="48.55945" lon="1.93628">
        <ele>146</ele>
        <time>2022-03-27T12:56:23Z</time>
      </trkpt>
      <trkpt lat="48.55943" lon="1.93628">
        <ele>146</ele>
        <time>2022-03-27T12:56:26Z</time>
      </trkpt>
      <trkpt lat="48.55941" lon="1.9363">
        <ele>146</ele>
        <time>2022-03-27T12:56:28Z</time>
      </trkpt>
      <trkpt lat="48.55939" lon="1.93632">
        <ele>146</ele>
        <time>2022-03-27T12:56:30Z</time>
      </trkpt>
      <trkpt lat="48.55938" lon="1.93634">
        <ele>146</ele>
        <time>2022-03-27T12:56:32Z</time>
      </trkpt>
      <trkpt lat="48.55937" lon="1.93637">
        <ele>146</ele>
        <time>2022-03-27T12:56:34Z</time>
      </trkpt>
      <trkpt lat="48.55936" lon="1.93641">
        <ele>145</ele>
        <time>2022-03-27T12:56:36Z</time>
      </trkpt>
      <trkpt lat="48.55934" lon="1.93643">
        <ele>145</ele>
        <time>2022-03-27T12:56:38Z</time>
      </trkpt>
      <trkpt lat="48.55933" lon="1.93647">
        <ele>145</ele>
        <time>2022-03-27T12:56:41Z</time>
      </trkpt>
      <trkpt lat="48.55934" lon="1.93651">
        <ele>144</ele>
        <time>2022-03-27T12:56:44Z</time>
      </trkpt>
      <trkpt lat="48.55933" lon="1.93654">
        <ele>144</ele>
        <time>2022-03-27T12:56:46Z</time>
      </trkpt>
      <trkpt lat="48.55933" lon="1.93658">
        <ele>144</ele>
        <time>2022-03-27T12:56:49Z</time>
      </trkpt>
      <trkpt lat="48.55933" lon="1.93661">
        <ele>144</ele>
        <time>2022-03-27T12:56:52Z</time>
      </trkpt>
      <trkpt lat="48.55934" lon="1.93664">
        <ele>144</ele>
        <time>2022-03-27T12:56:53Z</time>
      </trkpt>
      <trkpt lat="48.55935" lon="1.93668">
        <ele>144</ele>
        <time>2022-03-27T12:56:56Z</time>
      </trkpt>
      <trkpt lat="48.55936" lon="1.93671">
        <ele>144</ele>
        <time>2022-03-27T12:56:59Z</time>
      </trkpt>
      <trkpt lat="48.55937" lon="1.93673">
        <ele>144</ele>
        <time>2022-03-27T12:57:02Z</time>
      </trkpt>
      <trkpt lat="48.55938" lon="1.93676">
        <ele>145</ele>
        <time>2022-03-27T12:57:04Z</time>
      </trkpt>
      <trkpt lat="48.55939" lon="1.93679">
        <ele>144</ele>
        <time>2022-03-27T12:57:07Z</time>
      </trkpt>
      <trkpt lat="48.55941" lon="1.93681">
        <ele>145</ele>
        <time>2022-03-27T12:57:09Z</time>
      </trkpt>
      <trkpt lat="48.55943" lon="1.93684">
        <ele>145</ele>
        <time>2022-03-27T12:57:11Z</time>
      </trkpt>
      <trkpt lat="48.55944" lon="1.93687">
        <ele>145</ele>
        <time>2022-03-27T12:57:13Z</time>
      </trkpt>
      <trkpt lat="48.55946" lon="1.9369">
        <ele>145</ele>
        <time>2022-03-27T12:57:15Z</time>
      </trkpt>
      <trkpt lat="48.55947" lon="1.93692">
        <ele>145</ele>
        <time>2022-03-27T12:57:17Z</time>
      </trkpt>
      <trkpt lat="48.55948" lon="1.93695">
        <ele>145</ele>
        <time>2022-03-27T12:57:19Z</time>
      </trkpt>
      <trkpt lat="48.5595" lon="1.93699">
        <ele>145</ele>
        <time>2022-03-27T12:57:21Z</time>
      </trkpt>
      <trkpt lat="48.55952" lon="1.93702">
        <ele>145</ele>
        <time>2022-03-27T12:57:23Z</time>
      </trkpt>
      <trkpt lat="48.55953" lon="1.93706">
        <ele>145</ele>
        <time>2022-03-27T12:57:25Z</time>
      </trkpt>
      <trkpt lat="48.55953" lon="1.93709">
        <ele>145</ele>
        <time>2022-03-27T12:57:27Z</time>
      </trkpt>
      <trkpt lat="48.55954" lon="1.93713">
        <ele>145</ele>
        <time>2022-03-27T12:57:29Z</time>
      </trkpt>
      <trkpt lat="48.55954" lon="1.93715">
        <ele>145</ele>
        <time>2022-03-27T12:57:31Z</time>
      </trkpt>
      <trkpt lat="48.55955" lon="1.93718">
        <ele>145</ele>
        <time>2022-03-27T12:57:33Z</time>
      </trkpt>
      <trkpt lat="48.55955" lon="1.93722">
        <ele>145</ele>
        <time>2022-03-27T12:57:35Z</time>
      </trkpt>
      <trkpt lat="48.55956" lon="1.93725">
        <ele>145</ele>
        <time>2022-03-27T12:57:37Z</time>
      </trkpt>
      <trkpt lat="48.55957" lon="1.93728">
        <ele>145</ele>
        <time>2022-03-27T12:57:39Z</time>
      </trkpt>
      <trkpt lat="48.55956" lon="1.93732">
        <ele>145</ele>
        <time>2022-03-27T12:57:41Z</time>
      </trkpt>
      <trkpt lat="48.55956" lon="1.93736">
        <ele>145</ele>
        <time>2022-03-27T12:57:43Z</time>
      </trkpt>
      <trkpt lat="48.55956" lon="1.93739">
        <ele>145</ele>
        <time>2022-03-27T12:57:44Z</time>
      </trkpt>
      <trkpt lat="48.55957" lon="1.93743">
        <ele>146</ele>
        <time>2022-03-27T12:57:46Z</time>
      </trkpt>
      <trkpt lat="48.55957" lon="1.93747">
        <ele>146</ele>
        <time>2022-03-27T12:57:48Z</time>
      </trkpt>
      <trkpt lat="48.55958" lon="1.9375">
        <ele>146</ele>
        <time>2022-03-27T12:57:50Z</time>
      </trkpt>
      <trkpt lat="48.55957" lon="1.93753">
        <ele>146</ele>
        <time>2022-03-27T12:57:52Z</time>
      </trkpt>
      <trkpt lat="48.55958" lon="1.93757">
        <ele>146</ele>
        <time>2022-03-27T12:57:55Z</time>
      </trkpt>
      <trkpt lat="48.55957" lon="1.93759">
        <ele>146</ele>
        <time>2022-03-27T12:57:56Z</time>
      </trkpt>
      <trkpt lat="48.55955" lon="1.93759">
        <ele>146</ele>
        <time>2022-03-27T12:57:57Z</time>
      </trkpt>
      <trkpt lat="48.55953" lon="1.93759">
        <ele>145</ele>
        <time>2022-03-27T12:58:05Z</time>
      </trkpt>
      <trkpt lat="48.55951" lon="1.93758">
        <ele>146</ele>
        <time>2022-03-27T12:58:11Z</time>
      </trkpt>
      <trkpt lat="48.55949" lon="1.93758">
        <ele>147</ele>
        <time>2022-03-27T12:58:24Z</time>
      </trkpt>
      <trkpt lat="48.55951" lon="1.9376">
        <ele>148</ele>
        <time>2022-03-27T12:58:29Z</time>
      </trkpt>
      <trkpt lat="48.55953" lon="1.93764">
        <ele>147</ele>
        <time>2022-03-27T12:58:30Z</time>
      </trkpt>
      <trkpt lat="48.55955" lon="1.93767">
        <ele>147</ele>
        <time>2022-03-27T12:58:31Z</time>
      </trkpt>
      <trkpt lat="48.55956" lon="1.9377">
        <ele>146</ele>
        <time>2022-03-27T12:58:34Z</time>
      </trkpt>
      <trkpt lat="48.55958" lon="1.93773">
        <ele>146</ele>
        <time>2022-03-27T12:58:36Z</time>
      </trkpt>
      <trkpt lat="48.55959" lon="1.93776">
        <ele>146</ele>
        <time>2022-03-27T12:58:38Z</time>
      </trkpt>
      <trkpt lat="48.5596" lon="1.93779">
        <ele>146</ele>
        <time>2022-03-27T12:58:40Z</time>
      </trkpt>
      <trkpt lat="48.55961" lon="1.93782">
        <ele>146</ele>
        <time>2022-03-27T12:58:42Z</time>
      </trkpt>
      <trkpt lat="48.55962" lon="1.93787">
        <ele>146</ele>
        <time>2022-03-27T12:58:44Z</time>
      </trkpt>
      <trkpt lat="48.55964" lon="1.93791">
        <ele>146</ele>
        <time>2022-03-27T12:58:46Z</time>
      </trkpt>
      <trkpt lat="48.55965" lon="1.93794">
        <ele>147</ele>
        <time>2022-03-27T12:58:47Z</time>
      </trkpt>
      <trkpt lat="48.55965" lon="1.93798">
        <ele>147</ele>
        <time>2022-03-27T12:58:49Z</time>
      </trkpt>
      <trkpt lat="48.55967" lon="1.93802">
        <ele>146</ele>
        <time>2022-03-27T12:58:51Z</time>
      </trkpt>
      <trkpt lat="48.55969" lon="1.93805">
        <ele>146</ele>
        <time>2022-03-27T12:58:53Z</time>
      </trkpt>
      <trkpt lat="48.5597" lon="1.93809">
        <ele>146</ele>
        <time>2022-03-27T12:58:55Z</time>
      </trkpt>
      <trkpt lat="48.55972" lon="1.93812">
        <ele>146</ele>
        <time>2022-03-27T12:58:57Z</time>
      </trkpt>
      <trkpt lat="48.55973" lon="1.93815">
        <ele>146</ele>
        <time>2022-03-27T12:58:59Z</time>
      </trkpt>
      <trkpt lat="48.55973" lon="1.93818">
        <ele>146</ele>
        <time>2022-03-27T12:59:02Z</time>
      </trkpt>
      <trkpt lat="48.55972" lon="1.93822">
        <ele>146</ele>
        <time>2022-03-27T12:59:05Z</time>
      </trkpt>
      <trkpt lat="48.55972" lon="1.93827">
        <ele>147</ele>
        <time>2022-03-27T12:59:08Z</time>
      </trkpt>
      <trkpt lat="48.55971" lon="1.9383">
        <ele>147</ele>
        <time>2022-03-27T12:59:10Z</time>
      </trkpt>
      <trkpt lat="48.55971" lon="1.93833">
        <ele>147</ele>
        <time>2022-03-27T12:59:12Z</time>
      </trkpt>
      <trkpt lat="48.55969" lon="1.93836">
        <ele>148</ele>
        <time>2022-03-27T12:59:15Z</time>
      </trkpt>
      <trkpt lat="48.55969" lon="1.93839">
        <ele>148</ele>
        <time>2022-03-27T12:59:17Z</time>
      </trkpt>
      <trkpt lat="48.55971" lon="1.93841">
        <ele>149</ele>
        <time>2022-03-27T12:59:22Z</time>
      </trkpt>
      <trkpt lat="48.55971" lon="1.93844">
        <ele>150</ele>
        <time>2022-03-27T12:59:27Z</time>
      </trkpt>
      <trkpt lat="48.55971" lon="1.93847">
        <ele>150</ele>
        <time>2022-03-27T12:59:31Z</time>
      </trkpt>
      <trkpt lat="48.55969" lon="1.93849">
        <ele>151</ele>
        <time>2022-03-27T12:59:34Z</time>
      </trkpt>
      <trkpt lat="48.5597" lon="1.93851">
        <ele>152</ele>
        <time>2022-03-27T12:59:40Z</time>
      </trkpt>
      <trkpt lat="48.55971" lon="1.93854">
        <ele>152</ele>
        <time>2022-03-27T12:59:42Z</time>
      </trkpt>
      <trkpt lat="48.55972" lon="1.93858">
        <ele>152</ele>
        <time>2022-03-27T12:59:45Z</time>
      </trkpt>
      <trkpt lat="48.55972" lon="1.93862">
        <ele>152</ele>
        <time>2022-03-27T12:59:48Z</time>
      </trkpt>
      <trkpt lat="48.55974" lon="1.93864">
        <ele>153</ele>
        <time>2022-03-27T12:59:54Z</time>
      </trkpt>
      <trkpt lat="48.55976" lon="1.93868">
        <ele>153</ele>
        <time>2022-03-27T12:59:56Z</time>
      </trkpt>
      <trkpt lat="48.55976" lon="1.93871">
        <ele>153</ele>
        <time>2022-03-27T12:59:58Z</time>
      </trkpt>
      <trkpt lat="48.55977" lon="1.93875">
        <ele>153</ele>
        <time>2022-03-27T13:00:00Z</time>
      </trkpt>
      <trkpt lat="48.55979" lon="1.93879">
        <ele>153</ele>
        <time>2022-03-27T13:00:03Z</time>
      </trkpt>
      <trkpt lat="48.55978" lon="1.93882">
        <ele>153</ele>
        <time>2022-03-27T13:00:07Z</time>
      </trkpt>
      <trkpt lat="48.55981" lon="1.93884">
        <ele>153</ele>
        <time>2022-03-27T13:00:10Z</time>
      </trkpt>
      <trkpt lat="48.55983" lon="1.93886">
        <ele>153</ele>
        <time>2022-03-27T13:00:11Z</time>
      </trkpt>
      <trkpt lat="48.55985" lon="1.93888">
        <ele>153</ele>
        <time>2022-03-27T13:00:12Z</time>
      </trkpt>
      <trkpt lat="48.55987" lon="1.93891">
        <ele>153</ele>
        <time>2022-03-27T13:00:14Z</time>
      </trkpt>
      <trkpt lat="48.55988" lon="1.93894">
        <ele>152</ele>
        <time>2022-03-27T13:00:16Z</time>
      </trkpt>
      <trkpt lat="48.55989" lon="1.93896">
        <ele>152</ele>
        <time>2022-03-27T13:00:18Z</time>
      </trkpt>
      <trkpt lat="48.5599" lon="1.93899">
        <ele>152</ele>
        <time>2022-03-27T13:00:20Z</time>
      </trkpt>
      <trkpt lat="48.55989" lon="1.93903">
        <ele>153</ele>
        <time>2022-03-27T13:00:22Z</time>
      </trkpt>
      <trkpt lat="48.5599" lon="1.93906">
        <ele>153</ele>
        <time>2022-03-27T13:00:24Z</time>
      </trkpt>
      <trkpt lat="48.55991" lon="1.9391">
        <ele>153</ele>
        <time>2022-03-27T13:00:27Z</time>
      </trkpt>
      <trkpt lat="48.55993" lon="1.93914">
        <ele>153</ele>
        <time>2022-03-27T13:00:29Z</time>
      </trkpt>
      <trkpt lat="48.55994" lon="1.93916">
        <ele>153</ele>
        <time>2022-03-27T13:00:31Z</time>
      </trkpt>
      <trkpt lat="48.55995" lon="1.93919">
        <ele>153</ele>
        <time>2022-03-27T13:00:34Z</time>
      </trkpt>
      <trkpt lat="48.55996" lon="1.93922">
        <ele>153</ele>
        <time>2022-03-27T13:00:36Z</time>
      </trkpt>
      <trkpt lat="48.55997" lon="1.93925">
        <ele>153</ele>
        <time>2022-03-27T13:00:38Z</time>
      </trkpt>
      <trkpt lat="48.55998" lon="1.93928">
        <ele>153</ele>
        <time>2022-03-27T13:00:40Z</time>
      </trkpt>
      <trkpt lat="48.55999" lon="1.93931">
        <ele>153</ele>
        <time>2022-03-27T13:00:42Z</time>
      </trkpt>
      <trkpt lat="48.55999" lon="1.93935">
        <ele>153</ele>
        <time>2022-03-27T13:00:44Z</time>
      </trkpt>
      <trkpt lat="48.56" lon="1.93938">
        <ele>152</ele>
        <time>2022-03-27T13:00:46Z</time>
      </trkpt>
      <trkpt lat="48.56001" lon="1.93941">
        <ele>152</ele>
        <time>2022-03-27T13:00:47Z</time>
      </trkpt>
      <trkpt lat="48.56002" lon="1.93943">
        <ele>152</ele>
        <time>2022-03-27T13:00:49Z</time>
      </trkpt>
      <trkpt lat="48.56005" lon="1.93946">
        <ele>152</ele>
        <time>2022-03-27T13:00:51Z</time>
      </trkpt>
      <trkpt lat="48.56006" lon="1.9395">
        <ele>152</ele>
        <time>2022-03-27T13:00:53Z</time>
      </trkpt>
      <trkpt lat="48.56007" lon="1.93954">
        <ele>152</ele>
        <time>2022-03-27T13:00:55Z</time>
      </trkpt>
      <trkpt lat="48.56008" lon="1.93957">
        <ele>153</ele>
        <time>2022-03-27T13:00:57Z</time>
      </trkpt>
      <trkpt lat="48.56009" lon="1.9396">
        <ele>153</ele>
        <time>2022-03-27T13:01:00Z</time>
      </trkpt>
      <trkpt lat="48.5601" lon="1.93962">
        <ele>153</ele>
        <time>2022-03-27T13:01:00Z</time>
      </trkpt>
      <trkpt lat="48.56012" lon="1.93967">
        <ele>153</ele>
        <time>2022-03-27T13:01:02Z</time>
      </trkpt>
      <trkpt lat="48.56013" lon="1.9397">
        <ele>153</ele>
        <time>2022-03-27T13:01:04Z</time>
      </trkpt>
      <trkpt lat="48.56014" lon="1.93973">
        <ele>152</ele>
        <time>2022-03-27T13:01:06Z</time>
      </trkpt>
      <trkpt lat="48.56015" lon="1.93977">
        <ele>153</ele>
        <time>2022-03-27T13:01:08Z</time>
      </trkpt>
      <trkpt lat="48.56016" lon="1.9398">
        <ele>153</ele>
        <time>2022-03-27T13:01:10Z</time>
      </trkpt>
      <trkpt lat="48.56016" lon="1.93984">
        <ele>153</ele>
        <time>2022-03-27T13:01:12Z</time>
      </trkpt>
      <trkpt lat="48.56017" lon="1.93988">
        <ele>153</ele>
        <time>2022-03-27T13:01:15Z</time>
      </trkpt>
      <trkpt lat="48.56018" lon="1.93991">
        <ele>153</ele>
        <time>2022-03-27T13:01:17Z</time>
      </trkpt>
      <trkpt lat="48.56018" lon="1.93994">
        <ele>153</ele>
        <time>2022-03-27T13:01:19Z</time>
      </trkpt>
      <trkpt lat="48.56019" lon="1.93998">
        <ele>152</ele>
        <time>2022-03-27T13:01:20Z</time>
      </trkpt>
      <trkpt lat="48.56019" lon="1.94002">
        <ele>152</ele>
        <time>2022-03-27T13:01:22Z</time>
      </trkpt>
      <trkpt lat="48.56019" lon="1.94006">
        <ele>152</ele>
        <time>2022-03-27T13:01:25Z</time>
      </trkpt>
      <trkpt lat="48.56019" lon="1.94009">
        <ele>152</ele>
        <time>2022-03-27T13:01:26Z</time>
      </trkpt>
      <trkpt lat="48.56019" lon="1.94013">
        <ele>152</ele>
        <time>2022-03-27T13:01:28Z</time>
      </trkpt>
      <trkpt lat="48.5602" lon="1.94016">
        <ele>152</ele>
        <time>2022-03-27T13:01:30Z</time>
      </trkpt>
      <trkpt lat="48.56021" lon="1.94019">
        <ele>152</ele>
        <time>2022-03-27T13:01:32Z</time>
      </trkpt>
      <trkpt lat="48.56022" lon="1.94022">
        <ele>152</ele>
        <time>2022-03-27T13:01:34Z</time>
      </trkpt>
      <trkpt lat="48.56024" lon="1.94025">
        <ele>152</ele>
        <time>2022-03-27T13:01:36Z</time>
      </trkpt>
      <trkpt lat="48.56025" lon="1.94028">
        <ele>152</ele>
        <time>2022-03-27T13:01:38Z</time>
      </trkpt>
      <trkpt lat="48.56028" lon="1.9403">
        <ele>151</ele>
        <time>2022-03-27T13:01:41Z</time>
      </trkpt>
      <trkpt lat="48.56029" lon="1.94033">
        <ele>150</ele>
        <time>2022-03-27T13:01:44Z</time>
      </trkpt>
      <trkpt lat="48.5603" lon="1.94036">
        <ele>150</ele>
        <time>2022-03-27T13:01:47Z</time>
      </trkpt>
      <trkpt lat="48.56033" lon="1.94037">
        <ele>150</ele>
        <time>2022-03-27T13:01:51Z</time>
      </trkpt>
      <trkpt lat="48.56035" lon="1.94038">
        <ele>150</ele>
        <time>2022-03-27T13:01:53Z</time>
      </trkpt>
      <trkpt lat="48.56037" lon="1.94039">
        <ele>150</ele>
        <time>2022-03-27T13:01:55Z</time>
      </trkpt>
      <trkpt lat="48.5604" lon="1.94039">
        <ele>150</ele>
        <time>2022-03-27T13:01:58Z</time>
      </trkpt>
      <trkpt lat="48.56042" lon="1.94039">
        <ele>149</ele>
        <time>2022-03-27T13:02:01Z</time>
      </trkpt>
      <trkpt lat="48.56045" lon="1.9404">
        <ele>149</ele>
        <time>2022-03-27T13:02:04Z</time>
      </trkpt>
      <trkpt lat="48.56046" lon="1.94042">
        <ele>149</ele>
        <time>2022-03-27T13:02:08Z</time>
      </trkpt>
      <trkpt lat="48.56049" lon="1.94042">
        <ele>149</ele>
        <time>2022-03-27T13:02:11Z</time>
      </trkpt>
      <trkpt lat="48.56051" lon="1.94042">
        <ele>149</ele>
        <time>2022-03-27T13:02:13Z</time>
      </trkpt>
      <trkpt lat="48.56054" lon="1.94041">
        <ele>149</ele>
        <time>2022-03-27T13:02:16Z</time>
      </trkpt>
      <trkpt lat="48.56056" lon="1.94041">
        <ele>149</ele>
        <time>2022-03-27T13:02:18Z</time>
      </trkpt>
      <trkpt lat="48.56059" lon="1.94042">
        <ele>149</ele>
        <time>2022-03-27T13:02:20Z</time>
      </trkpt>
      <trkpt lat="48.56061" lon="1.94043">
        <ele>149</ele>
        <time>2022-03-27T13:02:22Z</time>
      </trkpt>
      <trkpt lat="48.56064" lon="1.94043">
        <ele>148</ele>
        <time>2022-03-27T13:02:24Z</time>
      </trkpt>
      <trkpt lat="48.56067" lon="1.94044">
        <ele>148</ele>
        <time>2022-03-27T13:02:26Z</time>
      </trkpt>
      <trkpt lat="48.56069" lon="1.94045">
        <ele>148</ele>
        <time>2022-03-27T13:02:28Z</time>
      </trkpt>
      <trkpt lat="48.56072" lon="1.94045">
        <ele>148</ele>
        <time>2022-03-27T13:02:30Z</time>
      </trkpt>
      <trkpt lat="48.56074" lon="1.94045">
        <ele>148</ele>
        <time>2022-03-27T13:02:33Z</time>
      </trkpt>
      <trkpt lat="48.56076" lon="1.94045">
        <ele>148</ele>
        <time>2022-03-27T13:02:37Z</time>
      </trkpt>
      <trkpt lat="48.56079" lon="1.94045">
        <ele>148</ele>
        <time>2022-03-27T13:02:39Z</time>
      </trkpt>
      <trkpt lat="48.56082" lon="1.94046">
        <ele>148</ele>
        <time>2022-03-27T13:02:42Z</time>
      </trkpt>
      <trkpt lat="48.56084" lon="1.94047">
        <ele>147</ele>
        <time>2022-03-27T13:02:43Z</time>
      </trkpt>
      <trkpt lat="48.56087" lon="1.94047">
        <ele>147</ele>
        <time>2022-03-27T13:02:45Z</time>
      </trkpt>
      <trkpt lat="48.5609" lon="1.94048">
        <ele>147</ele>
        <time>2022-03-27T13:02:47Z</time>
      </trkpt>
      <trkpt lat="48.56092" lon="1.94048">
        <ele>147</ele>
        <time>2022-03-27T13:02:50Z</time>
      </trkpt>
      <trkpt lat="48.56094" lon="1.94048">
        <ele>146</ele>
        <time>2022-03-27T13:02:52Z</time>
      </trkpt>
      <trkpt lat="48.56097" lon="1.94049">
        <ele>146</ele>
        <time>2022-03-27T13:02:54Z</time>
      </trkpt>
      <trkpt lat="48.56099" lon="1.94049">
        <ele>146</ele>
        <time>2022-03-27T13:02:57Z</time>
      </trkpt>
      <trkpt lat="48.561" lon="1.94048">
        <ele>146</ele>
        <time>2022-03-27T13:03:00Z</time>
      </trkpt>
      <trkpt lat="48.56103" lon="1.94048">
        <ele>146</ele>
        <time>2022-03-27T13:03:02Z</time>
      </trkpt>
      <trkpt lat="48.56105" lon="1.94048">
        <ele>146</ele>
        <time>2022-03-27T13:03:04Z</time>
      </trkpt>
      <trkpt lat="48.56108" lon="1.94048">
        <ele>145</ele>
        <time>2022-03-27T13:03:09Z</time>
      </trkpt>
      <trkpt lat="48.5611" lon="1.94049">
        <ele>145</ele>
        <time>2022-03-27T13:03:10Z</time>
      </trkpt>
      <trkpt lat="48.56113" lon="1.94051">
        <ele>145</ele>
        <time>2022-03-27T13:03:12Z</time>
      </trkpt>
      <trkpt lat="48.56115" lon="1.94051">
        <ele>145</ele>
        <time>2022-03-27T13:03:13Z</time>
      </trkpt>
      <trkpt lat="48.56117" lon="1.94052">
        <ele>145</ele>
        <time>2022-03-27T13:03:15Z</time>
      </trkpt>
      <trkpt lat="48.5612" lon="1.94053">
        <ele>144</ele>
        <time>2022-03-27T13:03:17Z</time>
      </trkpt>
      <trkpt lat="48.56123" lon="1.94053">
        <ele>144</ele>
        <time>2022-03-27T13:03:19Z</time>
      </trkpt>
      <trkpt lat="48.56126" lon="1.94053">
        <ele>144</ele>
        <time>2022-03-27T13:03:21Z</time>
      </trkpt>
      <trkpt lat="48.56129" lon="1.94054">
        <ele>144</ele>
        <time>2022-03-27T13:03:24Z</time>
      </trkpt>
      <trkpt lat="48.56131" lon="1.94055">
        <ele>144</ele>
        <time>2022-03-27T13:03:26Z</time>
      </trkpt>
      <trkpt lat="48.56134" lon="1.94055">
        <ele>143</ele>
        <time>2022-03-27T13:03:28Z</time>
      </trkpt>
      <trkpt lat="48.56136" lon="1.94056">
        <ele>143</ele>
        <time>2022-03-27T13:03:29Z</time>
      </trkpt>
      <trkpt lat="48.56138" lon="1.94056">
        <ele>143</ele>
        <time>2022-03-27T13:03:34Z</time>
      </trkpt>
      <trkpt lat="48.56141" lon="1.94058">
        <ele>142</ele>
        <time>2022-03-27T13:03:36Z</time>
      </trkpt>
      <trkpt lat="48.56143" lon="1.94058">
        <ele>142</ele>
        <time>2022-03-27T13:03:38Z</time>
      </trkpt>
      <trkpt lat="48.56145" lon="1.94059">
        <ele>142</ele>
        <time>2022-03-27T13:03:38Z</time>
      </trkpt>
      <trkpt lat="48.56147" lon="1.94059">
        <ele>142</ele>
        <time>2022-03-27T13:03:39Z</time>
      </trkpt>
      <trkpt lat="48.56149" lon="1.9406">
        <ele>142</ele>
        <time>2022-03-27T13:03:40Z</time>
      </trkpt>
      <trkpt lat="48.56151" lon="1.94061">
        <ele>142</ele>
        <time>2022-03-27T13:03:41Z</time>
      </trkpt>
      <trkpt lat="48.56154" lon="1.94062">
        <ele>141</ele>
        <time>2022-03-27T13:03:43Z</time>
      </trkpt>
      <trkpt lat="48.56157" lon="1.94063">
        <ele>141</ele>
        <time>2022-03-27T13:03:45Z</time>
      </trkpt>
      <trkpt lat="48.56159" lon="1.94063">
        <ele>141</ele>
        <time>2022-03-27T13:03:48Z</time>
      </trkpt>
      <trkpt lat="48.56162" lon="1.94064">
        <ele>140</ele>
        <time>2022-03-27T13:03:49Z</time>
      </trkpt>
      <trkpt lat="48.56164" lon="1.94064">
        <ele>140</ele>
        <time>2022-03-27T13:03:52Z</time>
      </trkpt>
      <trkpt lat="48.56167" lon="1.94064">
        <ele>140</ele>
        <time>2022-03-27T13:03:54Z</time>
      </trkpt>
      <trkpt lat="48.56166" lon="1.94067">
        <ele>140</ele>
        <time>2022-03-27T13:03:59Z</time>
      </trkpt>
      <trkpt lat="48.56168" lon="1.94068">
        <ele>140</ele>
        <time>2022-03-27T13:04:12Z</time>
      </trkpt>
      <trkpt lat="48.5617" lon="1.94068">
        <ele>140</ele>
        <time>2022-03-27T13:04:14Z</time>
      </trkpt>
      <trkpt lat="48.56172" lon="1.94069">
        <ele>140</ele>
        <time>2022-03-27T13:04:16Z</time>
      </trkpt>
      <trkpt lat="48.56175" lon="1.94071">
        <ele>140</ele>
        <time>2022-03-27T13:04:17Z</time>
      </trkpt>
      <trkpt lat="48.56177" lon="1.94073">
        <ele>140</ele>
        <time>2022-03-27T13:04:19Z</time>
      </trkpt>
      <trkpt lat="48.56178" lon="1.94076">
        <ele>139</ele>
        <time>2022-03-27T13:04:22Z</time>
      </trkpt>
      <trkpt lat="48.56179" lon="1.94078">
        <ele>138</ele>
        <time>2022-03-27T13:04:24Z</time>
      </trkpt>
      <trkpt lat="48.5618" lon="1.94081">
        <ele>138</ele>
        <time>2022-03-27T13:04:26Z</time>
      </trkpt>
      <trkpt lat="48.5618" lon="1.94084">
        <ele>137</ele>
        <time>2022-03-27T13:04:30Z</time>
      </trkpt>
      <trkpt lat="48.5618" lon="1.94088">
        <ele>137</ele>
        <time>2022-03-27T13:04:32Z</time>
      </trkpt>
      <trkpt lat="48.5618" lon="1.94091">
        <ele>137</ele>
        <time>2022-03-27T13:04:34Z</time>
      </trkpt>
      <trkpt lat="48.56179" lon="1.94095">
        <ele>137</ele>
        <time>2022-03-27T13:04:37Z</time>
      </trkpt>
      <trkpt lat="48.56177" lon="1.941">
        <ele>136</ele>
        <time>2022-03-27T13:04:39Z</time>
      </trkpt>
      <trkpt lat="48.56175" lon="1.94103">
        <ele>136</ele>
        <time>2022-03-27T13:04:41Z</time>
      </trkpt>
      <trkpt lat="48.56174" lon="1.94106">
        <ele>135</ele>
        <time>2022-03-27T13:04:43Z</time>
      </trkpt>
      <trkpt lat="48.56173" lon="1.9411">
        <ele>135</ele>
        <time>2022-03-27T13:04:45Z</time>
      </trkpt>
      <trkpt lat="48.56172" lon="1.94113">
        <ele>135</ele>
        <time>2022-03-27T13:04:47Z</time>
      </trkpt>
      <trkpt lat="48.5617" lon="1.94117">
        <ele>135</ele>
        <time>2022-03-27T13:04:49Z</time>
      </trkpt>
      <trkpt lat="48.56169" lon="1.94121">
        <ele>135</ele>
        <time>2022-03-27T13:04:51Z</time>
      </trkpt>
      <trkpt lat="48.56169" lon="1.94126">
        <ele>135</ele>
        <time>2022-03-27T13:04:53Z</time>
      </trkpt>
      <trkpt lat="48.56167" lon="1.9413">
        <ele>136</ele>
        <time>2022-03-27T13:04:55Z</time>
      </trkpt>
      <trkpt lat="48.56167" lon="1.94133">
        <ele>136</ele>
        <time>2022-03-27T13:04:56Z</time>
      </trkpt>
      <trkpt lat="48.56166" lon="1.94136">
        <ele>136</ele>
        <time>2022-03-27T13:04:58Z</time>
      </trkpt>
      <trkpt lat="48.56167" lon="1.94139">
        <ele>136</ele>
        <time>2022-03-27T13:05:00Z</time>
      </trkpt>
      <trkpt lat="48.56166" lon="1.94143">
        <ele>137</ele>
        <time>2022-03-27T13:05:02Z</time>
      </trkpt>
      <trkpt lat="48.56166" lon="1.94146">
        <ele>137</ele>
        <time>2022-03-27T13:05:04Z</time>
      </trkpt>
      <trkpt lat="48.56165" lon="1.94151">
        <ele>137</ele>
        <time>2022-03-27T13:05:06Z</time>
      </trkpt>
      <trkpt lat="48.56164" lon="1.94154">
        <ele>137</ele>
        <time>2022-03-27T13:05:08Z</time>
      </trkpt>
      <trkpt lat="48.56164" lon="1.94158">
        <ele>137</ele>
        <time>2022-03-27T13:05:09Z</time>
      </trkpt>
      <trkpt lat="48.56165" lon="1.94162">
        <ele>137</ele>
        <time>2022-03-27T13:05:12Z</time>
      </trkpt>
      <trkpt lat="48.56165" lon="1.94165">
        <ele>137</ele>
        <time>2022-03-27T13:05:14Z</time>
      </trkpt>
      <trkpt lat="48.56166" lon="1.94169">
        <ele>137</ele>
        <time>2022-03-27T13:05:15Z</time>
      </trkpt>
      <trkpt lat="48.56167" lon="1.94171">
        <ele>137</ele>
        <time>2022-03-27T13:05:18Z</time>
      </trkpt>
      <trkpt lat="48.56168" lon="1.94174">
        <ele>138</ele>
        <time>2022-03-27T13:05:20Z</time>
      </trkpt>
      <trkpt lat="48.56169" lon="1.94177">
        <ele>138</ele>
        <time>2022-03-27T13:05:22Z</time>
      </trkpt>
      <trkpt lat="48.5617" lon="1.9418">
        <ele>138</ele>
        <time>2022-03-27T13:05:24Z</time>
      </trkpt>
      <trkpt lat="48.5617" lon="1.94184">
        <ele>138</ele>
        <time>2022-03-27T13:05:26Z</time>
      </trkpt>
      <trkpt lat="48.5617" lon="1.94188">
        <ele>138</ele>
        <time>2022-03-27T13:05:28Z</time>
      </trkpt>
      <trkpt lat="48.56169" lon="1.94192">
        <ele>137</ele>
        <time>2022-03-27T13:05:31Z</time>
      </trkpt>
      <trkpt lat="48.56167" lon="1.94194">
        <ele>137</ele>
        <time>2022-03-27T13:05:33Z</time>
      </trkpt>
      <trkpt lat="48.56165" lon="1.94194">
        <ele>137</ele>
        <time>2022-03-27T13:05:34Z</time>
      </trkpt>
      <trkpt lat="48.56163" lon="1.94192">
        <ele>137</ele>
        <time>2022-03-27T13:05:46Z</time>
      </trkpt>
      <trkpt lat="48.5616" lon="1.94195">
        <ele>138</ele>
        <time>2022-03-27T13:05:51Z</time>
      </trkpt>
      <trkpt lat="48.5616" lon="1.94192">
        <ele>138</ele>
        <time>2022-03-27T13:06:02Z</time>
      </trkpt>
      <trkpt lat="48.56159" lon="1.94188">
        <ele>138</ele>
        <time>2022-03-27T13:06:05Z</time>
      </trkpt>
      <trkpt lat="48.56158" lon="1.94185">
        <ele>137</ele>
        <time>2022-03-27T13:06:07Z</time>
      </trkpt>
      <trkpt lat="48.56158" lon="1.94182">
        <ele>138</ele>
        <time>2022-03-27T13:06:31Z</time>
      </trkpt>
      <trkpt lat="48.5616" lon="1.94183">
        <ele>138</ele>
        <time>2022-03-27T13:06:36Z</time>
      </trkpt>
      <trkpt lat="48.56162" lon="1.94185">
        <ele>138</ele>
        <time>2022-03-27T13:06:44Z</time>
      </trkpt>
      <trkpt lat="48.56163" lon="1.94189">
        <ele>138</ele>
        <time>2022-03-27T13:06:45Z</time>
      </trkpt>
      <trkpt lat="48.56163" lon="1.94193">
        <ele>138</ele>
        <time>2022-03-27T13:06:48Z</time>
      </trkpt>
      <trkpt lat="48.56163" lon="1.94197">
        <ele>138</ele>
        <time>2022-03-27T13:06:50Z</time>
      </trkpt>
      <trkpt lat="48.56164" lon="1.942">
        <ele>138</ele>
        <time>2022-03-27T13:06:51Z</time>
      </trkpt>
      <trkpt lat="48.56165" lon="1.94203">
        <ele>138</ele>
        <time>2022-03-27T13:06:56Z</time>
      </trkpt>
      <trkpt lat="48.56164" lon="1.94205">
        <ele>138</ele>
        <time>2022-03-27T13:06:58Z</time>
      </trkpt>
      <trkpt lat="48.56162" lon="1.94206">
        <ele>138</ele>
        <time>2022-03-27T13:07:00Z</time>
      </trkpt>
      <trkpt lat="48.5616" lon="1.94208">
        <ele>137</ele>
        <time>2022-03-27T13:07:12Z</time>
      </trkpt>
      <trkpt lat="48.5616" lon="1.94204">
        <ele>136</ele>
        <time>2022-03-27T13:07:17Z</time>
      </trkpt>
      <trkpt lat="48.5616" lon="1.94207">
        <ele>135</ele>
        <time>2022-03-27T13:07:26Z</time>
      </trkpt>
      <trkpt lat="48.5616" lon="1.9421">
        <ele>135</ele>
        <time>2022-03-27T13:07:29Z</time>
      </trkpt>
      <trkpt lat="48.5616" lon="1.94213">
        <ele>135</ele>
        <time>2022-03-27T13:07:38Z</time>
      </trkpt>
      <trkpt lat="48.56158" lon="1.94215">
        <ele>136</ele>
        <time>2022-03-27T13:07:54Z</time>
      </trkpt>
      <trkpt lat="48.56156" lon="1.94216">
        <ele>136</ele>
        <time>2022-03-27T13:08:08Z</time>
      </trkpt>
      <trkpt lat="48.56156" lon="1.94219">
        <ele>137</ele>
        <time>2022-03-27T13:08:12Z</time>
      </trkpt>
      <trkpt lat="48.56155" lon="1.94222">
        <ele>137</ele>
        <time>2022-03-27T13:08:14Z</time>
      </trkpt>
      <trkpt lat="48.56154" lon="1.94224">
        <ele>137</ele>
        <time>2022-03-27T13:08:16Z</time>
      </trkpt>
      <trkpt lat="48.56153" lon="1.94228">
        <ele>137</ele>
        <time>2022-03-27T13:08:18Z</time>
      </trkpt>
      <trkpt lat="48.56151" lon="1.94232">
        <ele>137</ele>
        <time>2022-03-27T13:08:20Z</time>
      </trkpt>
      <trkpt lat="48.56149" lon="1.94235">
        <ele>137</ele>
        <time>2022-03-27T13:08:22Z</time>
      </trkpt>
      <trkpt lat="48.56147" lon="1.94236">
        <ele>137</ele>
        <time>2022-03-27T13:08:24Z</time>
      </trkpt>
      <trkpt lat="48.56145" lon="1.94238">
        <ele>137</ele>
        <time>2022-03-27T13:08:26Z</time>
      </trkpt>
      <trkpt lat="48.56144" lon="1.9424">
        <ele>137</ele>
        <time>2022-03-27T13:08:27Z</time>
      </trkpt>
      <trkpt lat="48.56142" lon="1.94243">
        <ele>137</ele>
        <time>2022-03-27T13:08:29Z</time>
      </trkpt>
      <trkpt lat="48.5614" lon="1.94247">
        <ele>137</ele>
        <time>2022-03-27T13:08:31Z</time>
      </trkpt>
      <trkpt lat="48.56138" lon="1.9425">
        <ele>137</ele>
        <time>2022-03-27T13:08:33Z</time>
      </trkpt>
      <trkpt lat="48.56136" lon="1.94253">
        <ele>137</ele>
        <time>2022-03-27T13:08:35Z</time>
      </trkpt>
      <trkpt lat="48.56133" lon="1.94257">
        <ele>137</ele>
        <time>2022-03-27T13:08:36Z</time>
      </trkpt>
      <trkpt lat="48.56132" lon="1.9426">
        <ele>138</ele>
        <time>2022-03-27T13:08:38Z</time>
      </trkpt>
      <trkpt lat="48.56131" lon="1.94263">
        <ele>138</ele>
        <time>2022-03-27T13:08:41Z</time>
      </trkpt>
      <trkpt lat="48.56131" lon="1.94268">
        <ele>138</ele>
        <time>2022-03-27T13:08:42Z</time>
      </trkpt>
      <trkpt lat="48.5613" lon="1.94272">
        <ele>138</ele>
        <time>2022-03-27T13:08:44Z</time>
      </trkpt>
      <trkpt lat="48.56128" lon="1.94275">
        <ele>138</ele>
        <time>2022-03-27T13:08:46Z</time>
      </trkpt>
      <trkpt lat="48.56126" lon="1.94278">
        <ele>138</ele>
        <time>2022-03-27T13:08:49Z</time>
      </trkpt>
      <trkpt lat="48.56123" lon="1.9428">
        <ele>138</ele>
        <time>2022-03-27T13:08:50Z</time>
      </trkpt>
      <trkpt lat="48.5612" lon="1.94283">
        <ele>138</ele>
        <time>2022-03-27T13:08:53Z</time>
      </trkpt>
      <trkpt lat="48.56119" lon="1.94285">
        <ele>138</ele>
        <time>2022-03-27T13:08:55Z</time>
      </trkpt>
      <trkpt lat="48.56117" lon="1.94288">
        <ele>138</ele>
        <time>2022-03-27T13:08:57Z</time>
      </trkpt>
      <trkpt lat="48.56116" lon="1.94292">
        <ele>139</ele>
        <time>2022-03-27T13:08:58Z</time>
      </trkpt>
      <trkpt lat="48.56115" lon="1.94296">
        <ele>139</ele>
        <time>2022-03-27T13:09:01Z</time>
      </trkpt>
      <trkpt lat="48.56114" lon="1.94299">
        <ele>139</ele>
        <time>2022-03-27T13:09:03Z</time>
      </trkpt>
      <trkpt lat="48.56112" lon="1.94302">
        <ele>139</ele>
        <time>2022-03-27T13:09:05Z</time>
      </trkpt>
      <trkpt lat="48.56109" lon="1.94305">
        <ele>139</ele>
        <time>2022-03-27T13:09:07Z</time>
      </trkpt>
      <trkpt lat="48.56106" lon="1.94308">
        <ele>139</ele>
        <time>2022-03-27T13:09:09Z</time>
      </trkpt>
      <trkpt lat="48.56103" lon="1.9431">
        <ele>139</ele>
        <time>2022-03-27T13:09:11Z</time>
      </trkpt>
      <trkpt lat="48.561" lon="1.9431">
        <ele>139</ele>
        <time>2022-03-27T13:09:13Z</time>
      </trkpt>
      <trkpt lat="48.56097" lon="1.94312">
        <ele>139</ele>
        <time>2022-03-27T13:09:15Z</time>
      </trkpt>
      <trkpt lat="48.56095" lon="1.94314">
        <ele>139</ele>
        <time>2022-03-27T13:09:17Z</time>
      </trkpt>
      <trkpt lat="48.56092" lon="1.94316">
        <ele>139</ele>
        <time>2022-03-27T13:09:19Z</time>
      </trkpt>
      <trkpt lat="48.5609" lon="1.94318">
        <ele>139</ele>
        <time>2022-03-27T13:09:21Z</time>
      </trkpt>
      <trkpt lat="48.56088" lon="1.94322">
        <ele>139</ele>
        <time>2022-03-27T13:09:22Z</time>
      </trkpt>
      <trkpt lat="48.56087" lon="1.94326">
        <ele>139</ele>
        <time>2022-03-27T13:09:24Z</time>
      </trkpt>
      <trkpt lat="48.56087" lon="1.9433">
        <ele>139</ele>
        <time>2022-03-27T13:09:27Z</time>
      </trkpt>
      <trkpt lat="48.56088" lon="1.94334">
        <ele>139</ele>
        <time>2022-03-27T13:09:29Z</time>
      </trkpt>
      <trkpt lat="48.56089" lon="1.94337">
        <ele>140</ele>
        <time>2022-03-27T13:09:31Z</time>
      </trkpt>
      <trkpt lat="48.56091" lon="1.94341">
        <ele>140</ele>
        <time>2022-03-27T13:09:33Z</time>
      </trkpt>
      <trkpt lat="48.56092" lon="1.94344">
        <ele>140</ele>
        <time>2022-03-27T13:09:34Z</time>
      </trkpt>
      <trkpt lat="48.56092" lon="1.94346">
        <ele>140</ele>
        <time>2022-03-27T13:09:36Z</time>
      </trkpt>
      <trkpt lat="48.56092" lon="1.9435">
        <ele>140</ele>
        <time>2022-03-27T13:09:39Z</time>
      </trkpt>
      <trkpt lat="48.56093" lon="1.94354">
        <ele>141</ele>
        <time>2022-03-27T13:09:40Z</time>
      </trkpt>
      <trkpt lat="48.56094" lon="1.94357">
        <ele>141</ele>
        <time>2022-03-27T13:09:41Z</time>
      </trkpt>
      <trkpt lat="48.56095" lon="1.94359">
        <ele>141</ele>
        <time>2022-03-27T13:09:42Z</time>
      </trkpt>
      <trkpt lat="48.56097" lon="1.94364">
        <ele>142</ele>
        <time>2022-03-27T13:09:44Z</time>
      </trkpt>
      <trkpt lat="48.56098" lon="1.94368">
        <ele>142</ele>
        <time>2022-03-27T13:09:47Z</time>
      </trkpt>
      <trkpt lat="48.561" lon="1.94372">
        <ele>142</ele>
        <time>2022-03-27T13:09:48Z</time>
      </trkpt>
      <trkpt lat="48.56101" lon="1.94374">
        <ele>142</ele>
        <time>2022-03-27T13:09:49Z</time>
      </trkpt>
      <trkpt lat="48.56103" lon="1.94379">
        <ele>142</ele>
        <time>2022-03-27T13:09:52Z</time>
      </trkpt>
      <trkpt lat="48.56104" lon="1.94383">
        <ele>142</ele>
        <time>2022-03-27T13:09:54Z</time>
      </trkpt>
      <trkpt lat="48.56105" lon="1.94387">
        <ele>143</ele>
        <time>2022-03-27T13:09:55Z</time>
      </trkpt>
      <trkpt lat="48.56106" lon="1.94392">
        <ele>143</ele>
        <time>2022-03-27T13:09:58Z</time>
      </trkpt>
      <trkpt lat="48.56106" lon="1.94396">
        <ele>144</ele>
        <time>2022-03-27T13:10:00Z</time>
      </trkpt>
      <trkpt lat="48.56107" lon="1.944">
        <ele>144</ele>
        <time>2022-03-27T13:10:02Z</time>
      </trkpt>
      <trkpt lat="48.56108" lon="1.94403">
        <ele>144</ele>
        <time>2022-03-27T13:10:04Z</time>
      </trkpt>
      <trkpt lat="48.56107" lon="1.94408">
        <ele>145</ele>
        <time>2022-03-27T13:10:06Z</time>
      </trkpt>
      <trkpt lat="48.56107" lon="1.94412">
        <ele>145</ele>
        <time>2022-03-27T13:10:08Z</time>
      </trkpt>
      <trkpt lat="48.56108" lon="1.94417">
        <ele>145</ele>
        <time>2022-03-27T13:10:10Z</time>
      </trkpt>
      <trkpt lat="48.56107" lon="1.94422">
        <ele>145</ele>
        <time>2022-03-27T13:10:12Z</time>
      </trkpt>
      <trkpt lat="48.56107" lon="1.94427">
        <ele>146</ele>
        <time>2022-03-27T13:10:13Z</time>
      </trkpt>
      <trkpt lat="48.56106" lon="1.94432">
        <ele>146</ele>
        <time>2022-03-27T13:10:16Z</time>
      </trkpt>
      <trkpt lat="48.56105" lon="1.94436">
        <ele>146</ele>
        <time>2022-03-27T13:10:18Z</time>
      </trkpt>
      <trkpt lat="48.56105" lon="1.9444">
        <ele>146</ele>
        <time>2022-03-27T13:10:20Z</time>
      </trkpt>
      <trkpt lat="48.56106" lon="1.94444">
        <ele>147</ele>
        <time>2022-03-27T13:10:22Z</time>
      </trkpt>
      <trkpt lat="48.56106" lon="1.94448">
        <ele>147</ele>
        <time>2022-03-27T13:10:24Z</time>
      </trkpt>
      <trkpt lat="48.56107" lon="1.94451">
        <ele>148</ele>
        <time>2022-03-27T13:10:25Z</time>
      </trkpt>
      <trkpt lat="48.56108" lon="1.94454">
        <ele>148</ele>
        <time>2022-03-27T13:10:27Z</time>
      </trkpt>
      <trkpt lat="48.56109" lon="1.94456">
        <ele>148</ele>
        <time>2022-03-27T13:10:30Z</time>
      </trkpt>
      <trkpt lat="48.56111" lon="1.94458">
        <ele>148</ele>
        <time>2022-03-27T13:10:32Z</time>
      </trkpt>
      <trkpt lat="48.56112" lon="1.94462">
        <ele>149</ele>
        <time>2022-03-27T13:10:34Z</time>
      </trkpt>
      <trkpt lat="48.56113" lon="1.94464">
        <ele>149</ele>
        <time>2022-03-27T13:10:34Z</time>
      </trkpt>
      <trkpt lat="48.56115" lon="1.94468">
        <ele>149</ele>
        <time>2022-03-27T13:10:36Z</time>
      </trkpt>
      <trkpt lat="48.56117" lon="1.9447">
        <ele>149</ele>
        <time>2022-03-27T13:10:39Z</time>
      </trkpt>
      <trkpt lat="48.56119" lon="1.9447">
        <ele>150</ele>
        <time>2022-03-27T13:10:42Z</time>
      </trkpt>
      <trkpt lat="48.56118" lon="1.94473">
        <ele>150</ele>
        <time>2022-03-27T13:10:45Z</time>
      </trkpt>
      <trkpt lat="48.56116" lon="1.94473">
        <ele>150</ele>
        <time>2022-03-27T13:10:48Z</time>
      </trkpt>
      <trkpt lat="48.56117" lon="1.94475">
        <ele>150</ele>
        <time>2022-03-27T13:10:55Z</time>
      </trkpt>
      <trkpt lat="48.5612" lon="1.94474">
        <ele>150</ele>
        <time>2022-03-27T13:11:02Z</time>
      </trkpt>
      <trkpt lat="48.56122" lon="1.94473">
        <ele>149</ele>
        <time>2022-03-27T13:11:04Z</time>
      </trkpt>
      <trkpt lat="48.56124" lon="1.94471">
        <ele>149</ele>
        <time>2022-03-27T13:11:06Z</time>
      </trkpt>
      <trkpt lat="48.56126" lon="1.9447">
        <ele>148</ele>
        <time>2022-03-27T13:11:08Z</time>
      </trkpt>
      <trkpt lat="48.56129" lon="1.94469">
        <ele>148</ele>
        <time>2022-03-27T13:11:10Z</time>
      </trkpt>
      <trkpt lat="48.56131" lon="1.94469">
        <ele>148</ele>
        <time>2022-03-27T13:11:12Z</time>
      </trkpt>
      <trkpt lat="48.56133" lon="1.9447">
        <ele>149</ele>
        <time>2022-03-27T13:11:14Z</time>
      </trkpt>
      <trkpt lat="48.56135" lon="1.94472">
        <ele>149</ele>
        <time>2022-03-27T13:11:16Z</time>
      </trkpt>
      <trkpt lat="48.56137" lon="1.94476">
        <ele>148</ele>
        <time>2022-03-27T13:11:18Z</time>
      </trkpt>
      <trkpt lat="48.56138" lon="1.94478">
        <ele>148</ele>
        <time>2022-03-27T13:11:19Z</time>
      </trkpt>
      <trkpt lat="48.56139" lon="1.94483">
        <ele>148</ele>
        <time>2022-03-27T13:11:21Z</time>
      </trkpt>
      <trkpt lat="48.56138" lon="1.94486">
        <ele>149</ele>
        <time>2022-03-27T13:11:23Z</time>
      </trkpt>
      <trkpt lat="48.56138" lon="1.94489">
        <ele>149</ele>
        <time>2022-03-27T13:11:25Z</time>
      </trkpt>
      <trkpt lat="48.56138" lon="1.94494">
        <ele>149</ele>
        <time>2022-03-27T13:11:27Z</time>
      </trkpt>
      <trkpt lat="48.56137" lon="1.94499">
        <ele>149</ele>
        <time>2022-03-27T13:11:29Z</time>
      </trkpt>
      <trkpt lat="48.56136" lon="1.94501">
        <ele>149</ele>
        <time>2022-03-27T13:11:30Z</time>
      </trkpt>
      <trkpt lat="48.56134" lon="1.94505">
        <ele>149</ele>
        <time>2022-03-27T13:11:32Z</time>
      </trkpt>
      <trkpt lat="48.56133" lon="1.94509">
        <ele>149</ele>
        <time>2022-03-27T13:11:34Z</time>
      </trkpt>
      <trkpt lat="48.56132" lon="1.94514">
        <ele>149</ele>
        <time>2022-03-27T13:11:36Z</time>
      </trkpt>
      <trkpt lat="48.56131" lon="1.94519">
        <ele>149</ele>
        <time>2022-03-27T13:11:38Z</time>
      </trkpt>
      <trkpt lat="48.5613" lon="1.94523">
        <ele>148</ele>
        <time>2022-03-27T13:11:40Z</time>
      </trkpt>
      <trkpt lat="48.56129" lon="1.94527">
        <ele>148</ele>
        <time>2022-03-27T13:11:42Z</time>
      </trkpt>
      <trkpt lat="48.56128" lon="1.94531">
        <ele>148</ele>
        <time>2022-03-27T13:11:44Z</time>
      </trkpt>
      <trkpt lat="48.56128" lon="1.94535">
        <ele>149</ele>
        <time>2022-03-27T13:11:45Z</time>
      </trkpt>
      <trkpt lat="48.56128" lon="1.94539">
        <ele>149</ele>
        <time>2022-03-27T13:11:47Z</time>
      </trkpt>
      <trkpt lat="48.56128" lon="1.94543">
        <ele>149</ele>
        <time>2022-03-27T13:11:50Z</time>
      </trkpt>
      <trkpt lat="48.56128" lon="1.94548">
        <ele>149</ele>
        <time>2022-03-27T13:11:52Z</time>
      </trkpt>
      <trkpt lat="48.56126" lon="1.94552">
        <ele>149</ele>
        <time>2022-03-27T13:11:54Z</time>
      </trkpt>
      <trkpt lat="48.56125" lon="1.94556">
        <ele>149</ele>
        <time>2022-03-27T13:11:55Z</time>
      </trkpt>
      <trkpt lat="48.56125" lon="1.94561">
        <ele>149</ele>
        <time>2022-03-27T13:11:58Z</time>
      </trkpt>
      <trkpt lat="48.56125" lon="1.94566">
        <ele>149</ele>
        <time>2022-03-27T13:11:59Z</time>
      </trkpt>
      <trkpt lat="48.56126" lon="1.9457">
        <ele>149</ele>
        <time>2022-03-27T13:12:01Z</time>
      </trkpt>
      <trkpt lat="48.56125" lon="1.94575">
        <ele>150</ele>
        <time>2022-03-27T13:12:03Z</time>
      </trkpt>
      <trkpt lat="48.56125" lon="1.9458">
        <ele>150</ele>
        <time>2022-03-27T13:12:05Z</time>
      </trkpt>
      <trkpt lat="48.56125" lon="1.94585">
        <ele>150</ele>
        <time>2022-03-27T13:12:07Z</time>
      </trkpt>
      <trkpt lat="48.56125" lon="1.94588">
        <ele>150</ele>
        <time>2022-03-27T13:12:09Z</time>
      </trkpt>
      <trkpt lat="48.56125" lon="1.94592">
        <ele>150</ele>
        <time>2022-03-27T13:12:12Z</time>
      </trkpt>
      <trkpt lat="48.56124" lon="1.94597">
        <ele>150</ele>
        <time>2022-03-27T13:12:13Z</time>
      </trkpt>
      <trkpt lat="48.56124" lon="1.94601">
        <ele>151</ele>
        <time>2022-03-27T13:12:16Z</time>
      </trkpt>
      <trkpt lat="48.56124" lon="1.94607">
        <ele>151</ele>
        <time>2022-03-27T13:12:17Z</time>
      </trkpt>
      <trkpt lat="48.56123" lon="1.9461">
        <ele>151</ele>
        <time>2022-03-27T13:12:18Z</time>
      </trkpt>
      <trkpt lat="48.56123" lon="1.94613">
        <ele>151</ele>
        <time>2022-03-27T13:12:19Z</time>
      </trkpt>
      <trkpt lat="48.56122" lon="1.94616">
        <ele>151</ele>
        <time>2022-03-27T13:12:20Z</time>
      </trkpt>
      <trkpt lat="48.56122" lon="1.94619">
        <ele>152</ele>
        <time>2022-03-27T13:12:22Z</time>
      </trkpt>
      <trkpt lat="48.56121" lon="1.94624">
        <ele>152</ele>
        <time>2022-03-27T13:12:24Z</time>
      </trkpt>
      <trkpt lat="48.5612" lon="1.94629">
        <ele>152</ele>
        <time>2022-03-27T13:12:26Z</time>
      </trkpt>
      <trkpt lat="48.56119" lon="1.94634">
        <ele>152</ele>
        <time>2022-03-27T13:12:28Z</time>
      </trkpt>
      <trkpt lat="48.56119" lon="1.94638">
        <ele>152</ele>
        <time>2022-03-27T13:12:30Z</time>
      </trkpt>
      <trkpt lat="48.56117" lon="1.94642">
        <ele>152</ele>
        <time>2022-03-27T13:12:32Z</time>
      </trkpt>
      <trkpt lat="48.56117" lon="1.94646">
        <ele>152</ele>
        <time>2022-03-27T13:12:34Z</time>
      </trkpt>
      <trkpt lat="48.56116" lon="1.94649">
        <ele>152</ele>
        <time>2022-03-27T13:12:35Z</time>
      </trkpt>
      <trkpt lat="48.56116" lon="1.94654">
        <ele>152</ele>
        <time>2022-03-27T13:12:37Z</time>
      </trkpt>
      <trkpt lat="48.56116" lon="1.94658">
        <ele>152</ele>
        <time>2022-03-27T13:12:39Z</time>
      </trkpt>
      <trkpt lat="48.56115" lon="1.94661">
        <ele>152</ele>
        <time>2022-03-27T13:12:40Z</time>
      </trkpt>
      <trkpt lat="48.56114" lon="1.94664">
        <ele>152</ele>
        <time>2022-03-27T13:12:42Z</time>
      </trkpt>
      <trkpt lat="48.56113" lon="1.94668">
        <ele>152</ele>
        <time>2022-03-27T13:12:44Z</time>
      </trkpt>
      <trkpt lat="48.56112" lon="1.94671">
        <ele>152</ele>
        <time>2022-03-27T13:12:45Z</time>
      </trkpt>
      <trkpt lat="48.56112" lon="1.94677">
        <ele>152</ele>
        <time>2022-03-27T13:12:48Z</time>
      </trkpt>
      <trkpt lat="48.56112" lon="1.94683">
        <ele>152</ele>
        <time>2022-03-27T13:12:50Z</time>
      </trkpt>
      <trkpt lat="48.56112" lon="1.94685">
        <ele>152</ele>
        <time>2022-03-27T13:12:51Z</time>
      </trkpt>
      <trkpt lat="48.56111" lon="1.94691">
        <ele>152</ele>
        <time>2022-03-27T13:12:53Z</time>
      </trkpt>
      <trkpt lat="48.56111" lon="1.94698">
        <ele>152</ele>
        <time>2022-03-27T13:12:56Z</time>
      </trkpt>
      <trkpt lat="48.5611" lon="1.94703">
        <ele>152</ele>
        <time>2022-03-27T13:12:58Z</time>
      </trkpt>
      <trkpt lat="48.56109" lon="1.94706">
        <ele>152</ele>
        <time>2022-03-27T13:12:59Z</time>
      </trkpt>
      <trkpt lat="48.56108" lon="1.9471">
        <ele>152</ele>
        <time>2022-03-27T13:13:01Z</time>
      </trkpt>
      <trkpt lat="48.56107" lon="1.94713">
        <ele>153</ele>
        <time>2022-03-27T13:13:04Z</time>
      </trkpt>
      <trkpt lat="48.56108" lon="1.94717">
        <ele>153</ele>
        <time>2022-03-27T13:13:06Z</time>
      </trkpt>
      <trkpt lat="48.56108" lon="1.94722">
        <ele>154</ele>
        <time>2022-03-27T13:13:08Z</time>
      </trkpt>
      <trkpt lat="48.56107" lon="1.94725">
        <ele>154</ele>
        <time>2022-03-27T13:13:09Z</time>
      </trkpt>
      <trkpt lat="48.56107" lon="1.94728">
        <ele>154</ele>
        <time>2022-03-27T13:13:10Z</time>
      </trkpt>
      <trkpt lat="48.56107" lon="1.94733">
        <ele>155</ele>
        <time>2022-03-27T13:13:12Z</time>
      </trkpt>
      <trkpt lat="48.56108" lon="1.94737">
        <ele>155</ele>
        <time>2022-03-27T13:13:14Z</time>
      </trkpt>
      <trkpt lat="48.56108" lon="1.9474">
        <ele>156</ele>
        <time>2022-03-27T13:13:15Z</time>
      </trkpt>
      <trkpt lat="48.56109" lon="1.94744">
        <ele>156</ele>
        <time>2022-03-27T13:13:17Z</time>
      </trkpt>
      <trkpt lat="48.56109" lon="1.94749">
        <ele>157</ele>
        <time>2022-03-27T13:13:19Z</time>
      </trkpt>
      <trkpt lat="48.56111" lon="1.94752">
        <ele>157</ele>
        <time>2022-03-27T13:13:21Z</time>
      </trkpt>
      <trkpt lat="48.56113" lon="1.94755">
        <ele>157</ele>
        <time>2022-03-27T13:13:23Z</time>
      </trkpt>
      <trkpt lat="48.56114" lon="1.94759">
        <ele>158</ele>
        <time>2022-03-27T13:13:25Z</time>
      </trkpt>
      <trkpt lat="48.56115" lon="1.94764">
        <ele>159</ele>
        <time>2022-03-27T13:13:27Z</time>
      </trkpt>
      <trkpt lat="48.56116" lon="1.94769">
        <ele>159</ele>
        <time>2022-03-27T13:13:29Z</time>
      </trkpt>
      <trkpt lat="48.56117" lon="1.94773">
        <ele>160</ele>
        <time>2022-03-27T13:13:31Z</time>
      </trkpt>
      <trkpt lat="48.56118" lon="1.94777">
        <ele>160</ele>
        <time>2022-03-27T13:13:34Z</time>
      </trkpt>
      <trkpt lat="48.56119" lon="1.94782">
        <ele>160</ele>
        <time>2022-03-27T13:13:36Z</time>
      </trkpt>
      <trkpt lat="48.5612" lon="1.94785">
        <ele>160</ele>
        <time>2022-03-27T13:13:37Z</time>
      </trkpt>
      <trkpt lat="48.56121" lon="1.94789">
        <ele>160</ele>
        <time>2022-03-27T13:13:40Z</time>
      </trkpt>
      <trkpt lat="48.56122" lon="1.94793">
        <ele>160</ele>
        <time>2022-03-27T13:13:41Z</time>
      </trkpt>
      <trkpt lat="48.56122" lon="1.94797">
        <ele>160</ele>
        <time>2022-03-27T13:13:43Z</time>
      </trkpt>
      <trkpt lat="48.56122" lon="1.94801">
        <ele>160</ele>
        <time>2022-03-27T13:13:46Z</time>
      </trkpt>
      <trkpt lat="48.56123" lon="1.94805">
        <ele>161</ele>
        <time>2022-03-27T13:13:47Z</time>
      </trkpt>
      <trkpt lat="48.56125" lon="1.94808">
        <ele>161</ele>
        <time>2022-03-27T13:13:50Z</time>
      </trkpt>
      <trkpt lat="48.56126" lon="1.94811">
        <ele>161</ele>
        <time>2022-03-27T13:13:52Z</time>
      </trkpt>
      <trkpt lat="48.56128" lon="1.94813">
        <ele>161</ele>
        <time>2022-03-27T13:13:54Z</time>
      </trkpt>
      <trkpt lat="48.5613" lon="1.94815">
        <ele>161</ele>
        <time>2022-03-27T13:13:56Z</time>
      </trkpt>
      <trkpt lat="48.56133" lon="1.94816">
        <ele>161</ele>
        <time>2022-03-27T13:13:58Z</time>
      </trkpt>
      <trkpt lat="48.56135" lon="1.94814">
        <ele>161</ele>
        <time>2022-03-27T13:14:00Z</time>
      </trkpt>
      <trkpt lat="48.56137" lon="1.94812">
        <ele>161</ele>
        <time>2022-03-27T13:14:02Z</time>
      </trkpt>
      <trkpt lat="48.56139" lon="1.94809">
        <ele>161</ele>
        <time>2022-03-27T13:14:04Z</time>
      </trkpt>
      <trkpt lat="48.56141" lon="1.94806">
        <ele>161</ele>
        <time>2022-03-27T13:14:06Z</time>
      </trkpt>
      <trkpt lat="48.56144" lon="1.94803">
        <ele>161</ele>
        <time>2022-03-27T13:14:08Z</time>
      </trkpt>
      <trkpt lat="48.56145" lon="1.948">
        <ele>161</ele>
        <time>2022-03-27T13:14:10Z</time>
      </trkpt>
      <trkpt lat="48.56146" lon="1.94797">
        <ele>161</ele>
        <time>2022-03-27T13:14:12Z</time>
      </trkpt>
      <trkpt lat="48.56148" lon="1.94795">
        <ele>162</ele>
        <time>2022-03-27T13:14:15Z</time>
      </trkpt>
      <trkpt lat="48.56149" lon="1.94796">
        <ele>161</ele>
        <time>2022-03-27T13:14:16Z</time>
      </trkpt>
      <trkpt lat="48.56151" lon="1.94798">
        <ele>161</ele>
        <time>2022-03-27T13:14:17Z</time>
      </trkpt>
      <trkpt lat="48.56152" lon="1.94801">
        <ele>161</ele>
        <time>2022-03-27T13:14:18Z</time>
      </trkpt>
      <trkpt lat="48.56153" lon="1.94802">
        <ele>161</ele>
        <time>2022-03-27T13:14:19Z</time>
      </trkpt>
      <trkpt lat="48.56155" lon="1.94804">
        <ele>161</ele>
        <time>2022-03-27T13:14:20Z</time>
      </trkpt>
      <trkpt lat="48.56157" lon="1.94805">
        <ele>161</ele>
        <time>2022-03-27T13:14:21Z</time>
      </trkpt>
      <trkpt lat="48.56159" lon="1.94806">
        <ele>162</ele>
        <time>2022-03-27T13:14:22Z</time>
      </trkpt>
      <trkpt lat="48.56162" lon="1.94808">
        <ele>162</ele>
        <time>2022-03-27T13:14:24Z</time>
      </trkpt>
      <trkpt lat="48.56165" lon="1.94809">
        <ele>162</ele>
        <time>2022-03-27T13:14:25Z</time>
      </trkpt>
      <trkpt lat="48.56168" lon="1.94811">
        <ele>162</ele>
        <time>2022-03-27T13:14:27Z</time>
      </trkpt>
      <trkpt lat="48.5617" lon="1.94812">
        <ele>162</ele>
        <time>2022-03-27T13:14:29Z</time>
      </trkpt>
      <trkpt lat="48.56173" lon="1.94814">
        <ele>163</ele>
        <time>2022-03-27T13:14:31Z</time>
      </trkpt>
      <trkpt lat="48.56177" lon="1.94817">
        <ele>163</ele>
        <time>2022-03-27T13:14:33Z</time>
      </trkpt>
      <trkpt lat="48.56178" lon="1.94819">
        <ele>163</ele>
        <time>2022-03-27T13:14:34Z</time>
      </trkpt>
      <trkpt lat="48.5618" lon="1.94821">
        <ele>163</ele>
        <time>2022-03-27T13:14:35Z</time>
      </trkpt>
      <trkpt lat="48.56181" lon="1.94823">
        <ele>163</ele>
        <time>2022-03-27T13:14:37Z</time>
      </trkpt>
      <trkpt lat="48.56182" lon="1.94825">
        <ele>163</ele>
        <time>2022-03-27T13:14:37Z</time>
      </trkpt>
      <trkpt lat="48.56184" lon="1.94827">
        <ele>163</ele>
        <time>2022-03-27T13:14:38Z</time>
      </trkpt>
      <trkpt lat="48.56185" lon="1.94829">
        <ele>163</ele>
        <time>2022-03-27T13:14:39Z</time>
      </trkpt>
      <trkpt lat="48.56188" lon="1.94831">
        <ele>162</ele>
        <time>2022-03-27T13:14:41Z</time>
      </trkpt>
      <trkpt lat="48.56191" lon="1.94832">
        <ele>163</ele>
        <time>2022-03-27T13:14:43Z</time>
      </trkpt>
      <trkpt lat="48.56192" lon="1.94834">
        <ele>162</ele>
        <time>2022-03-27T13:14:45Z</time>
      </trkpt>
      <trkpt lat="48.56195" lon="1.94836">
        <ele>162</ele>
        <time>2022-03-27T13:14:48Z</time>
      </trkpt>
      <trkpt lat="48.56196" lon="1.94838">
        <ele>163</ele>
        <time>2022-03-27T13:14:48Z</time>
      </trkpt>
      <trkpt lat="48.56199" lon="1.94841">
        <ele>163</ele>
        <time>2022-03-27T13:14:50Z</time>
      </trkpt>
      <trkpt lat="48.56201" lon="1.94844">
        <ele>163</ele>
        <time>2022-03-27T13:14:53Z</time>
      </trkpt>
      <trkpt lat="48.56203" lon="1.94847">
        <ele>162</ele>
        <time>2022-03-27T13:14:55Z</time>
      </trkpt>
      <trkpt lat="48.56204" lon="1.94851">
        <ele>162</ele>
        <time>2022-03-27T13:14:57Z</time>
      </trkpt>
      <trkpt lat="48.56206" lon="1.94854">
        <ele>162</ele>
        <time>2022-03-27T13:14:58Z</time>
      </trkpt>
      <trkpt lat="48.56208" lon="1.94859">
        <ele>162</ele>
        <time>2022-03-27T13:15:00Z</time>
      </trkpt>
      <trkpt lat="48.56209" lon="1.94864">
        <ele>162</ele>
        <time>2022-03-27T13:15:02Z</time>
      </trkpt>
      <trkpt lat="48.5621" lon="1.94869">
        <ele>161</ele>
        <time>2022-03-27T13:15:04Z</time>
      </trkpt>
      <trkpt lat="48.56211" lon="1.94871">
        <ele>161</ele>
        <time>2022-03-27T13:15:05Z</time>
      </trkpt>
      <trkpt lat="48.56212" lon="1.94876">
        <ele>162</ele>
        <time>2022-03-27T13:15:07Z</time>
      </trkpt>
      <trkpt lat="48.56213" lon="1.9488">
        <ele>161</ele>
        <time>2022-03-27T13:15:10Z</time>
      </trkpt>
      <trkpt lat="48.56216" lon="1.94884">
        <ele>161</ele>
        <time>2022-03-27T13:15:12Z</time>
      </trkpt>
      <trkpt lat="48.56217" lon="1.94886">
        <ele>161</ele>
        <time>2022-03-27T13:15:12Z</time>
      </trkpt>
      <trkpt lat="48.56219" lon="1.94891">
        <ele>162</ele>
        <time>2022-03-27T13:15:15Z</time>
      </trkpt>
      <trkpt lat="48.5622" lon="1.94895">
        <ele>162</ele>
        <time>2022-03-27T13:15:16Z</time>
      </trkpt>
      <trkpt lat="48.56221" lon="1.949">
        <ele>162</ele>
        <time>2022-03-27T13:15:18Z</time>
      </trkpt>
      <trkpt lat="48.56222" lon="1.94905">
        <ele>162</ele>
        <time>2022-03-27T13:15:21Z</time>
      </trkpt>
      <trkpt lat="48.56222" lon="1.9491">
        <ele>162</ele>
        <time>2022-03-27T13:15:22Z</time>
      </trkpt>
      <trkpt lat="48.56223" lon="1.94915">
        <ele>162</ele>
        <time>2022-03-27T13:15:24Z</time>
      </trkpt>
      <trkpt lat="48.56224" lon="1.94919">
        <ele>161</ele>
        <time>2022-03-27T13:15:27Z</time>
      </trkpt>
      <trkpt lat="48.56224" lon="1.94924">
        <ele>161</ele>
        <time>2022-03-27T13:15:29Z</time>
      </trkpt>
      <trkpt lat="48.56225" lon="1.94928">
        <ele>161</ele>
        <time>2022-03-27T13:15:31Z</time>
      </trkpt>
      <trkpt lat="48.56226" lon="1.94933">
        <ele>160</ele>
        <time>2022-03-27T13:15:33Z</time>
      </trkpt>
      <trkpt lat="48.56226" lon="1.94937">
        <ele>160</ele>
        <time>2022-03-27T13:15:35Z</time>
      </trkpt>
      <trkpt lat="48.56227" lon="1.94942">
        <ele>160</ele>
        <time>2022-03-27T13:15:37Z</time>
      </trkpt>
      <trkpt lat="48.56227" lon="1.94946">
        <ele>159</ele>
        <time>2022-03-27T13:15:39Z</time>
      </trkpt>
      <trkpt lat="48.56228" lon="1.94951">
        <ele>159</ele>
        <time>2022-03-27T13:15:41Z</time>
      </trkpt>
      <trkpt lat="48.56229" lon="1.94955">
        <ele>158</ele>
        <time>2022-03-27T13:15:43Z</time>
      </trkpt>
      <trkpt lat="48.5623" lon="1.9496">
        <ele>158</ele>
        <time>2022-03-27T13:15:45Z</time>
      </trkpt>
      <trkpt lat="48.5623" lon="1.94964">
        <ele>158</ele>
        <time>2022-03-27T13:15:47Z</time>
      </trkpt>
      <trkpt lat="48.56231" lon="1.94969">
        <ele>157</ele>
        <time>2022-03-27T13:15:49Z</time>
      </trkpt>
      <trkpt lat="48.56232" lon="1.94973">
        <ele>157</ele>
        <time>2022-03-27T13:15:51Z</time>
      </trkpt>
      <trkpt lat="48.56232" lon="1.94977">
        <ele>157</ele>
        <time>2022-03-27T13:15:53Z</time>
      </trkpt>
      <trkpt lat="48.56233" lon="1.94982">
        <ele>156</ele>
        <time>2022-03-27T13:15:55Z</time>
      </trkpt>
      <trkpt lat="48.56234" lon="1.94986">
        <ele>156</ele>
        <time>2022-03-27T13:15:57Z</time>
      </trkpt>
      <trkpt lat="48.56235" lon="1.94991">
        <ele>156</ele>
        <time>2022-03-27T13:15:59Z</time>
      </trkpt>
      <trkpt lat="48.56236" lon="1.94995">
        <ele>156</ele>
        <time>2022-03-27T13:16:01Z</time>
      </trkpt>
      <trkpt lat="48.56237" lon="1.94999">
        <ele>156</ele>
        <time>2022-03-27T13:16:03Z</time>
      </trkpt>
      <trkpt lat="48.56238" lon="1.95003">
        <ele>156</ele>
        <time>2022-03-27T13:16:04Z</time>
      </trkpt>
      <trkpt lat="48.5624" lon="1.95007">
        <ele>156</ele>
        <time>2022-03-27T13:16:06Z</time>
      </trkpt>
      <trkpt lat="48.56241" lon="1.95012">
        <ele>156</ele>
        <time>2022-03-27T13:16:08Z</time>
      </trkpt>
      <trkpt lat="48.56241" lon="1.95016">
        <ele>156</ele>
        <time>2022-03-27T13:16:11Z</time>
      </trkpt>
      <trkpt lat="48.5624" lon="1.9502">
        <ele>156</ele>
        <time>2022-03-27T13:16:13Z</time>
      </trkpt>
      <trkpt lat="48.56238" lon="1.95021">
        <ele>156</ele>
        <time>2022-03-27T13:16:14Z</time>
      </trkpt>
      <trkpt lat="48.56236" lon="1.95021">
        <ele>156</ele>
        <time>2022-03-27T13:16:16Z</time>
      </trkpt>
      <trkpt lat="48.56233" lon="1.95022">
        <ele>155</ele>
        <time>2022-03-27T13:16:18Z</time>
      </trkpt>
      <trkpt lat="48.56232" lon="1.95024">
        <ele>155</ele>
        <time>2022-03-27T13:16:20Z</time>
      </trkpt>
      <trkpt lat="48.5623" lon="1.95027">
        <ele>155</ele>
        <time>2022-03-27T13:16:23Z</time>
      </trkpt>
      <trkpt lat="48.56229" lon="1.9503">
        <ele>155</ele>
        <time>2022-03-27T13:16:24Z</time>
      </trkpt>
      <trkpt lat="48.56229" lon="1.95033">
        <ele>155</ele>
        <time>2022-03-27T13:16:27Z</time>
      </trkpt>
      <trkpt lat="48.56228" lon="1.95037">
        <ele>155</ele>
        <time>2022-03-27T13:16:27Z</time>
      </trkpt>
      <trkpt lat="48.56228" lon="1.95041">
        <ele>155</ele>
        <time>2022-03-27T13:16:28Z</time>
      </trkpt>
      <trkpt lat="48.56228" lon="1.95044">
        <ele>155</ele>
        <time>2022-03-27T13:16:29Z</time>
      </trkpt>
      <trkpt lat="48.56228" lon="1.95047">
        <ele>155</ele>
        <time>2022-03-27T13:16:30Z</time>
      </trkpt>
      <trkpt lat="48.5623" lon="1.9505">
        <ele>155</ele>
        <time>2022-03-27T13:16:33Z</time>
      </trkpt>
      <trkpt lat="48.56232" lon="1.95051">
        <ele>155</ele>
        <time>2022-03-27T13:16:35Z</time>
      </trkpt>
      <trkpt lat="48.56234" lon="1.95052">
        <ele>155</ele>
        <time>2022-03-27T13:16:37Z</time>
      </trkpt>
      <trkpt lat="48.56236" lon="1.95053">
        <ele>156</ele>
        <time>2022-03-27T13:16:39Z</time>
      </trkpt>
      <trkpt lat="48.5624" lon="1.95053">
        <ele>155</ele>
        <time>2022-03-27T13:16:41Z</time>
      </trkpt>
      <trkpt lat="48.56243" lon="1.95055">
        <ele>155</ele>
        <time>2022-03-27T13:16:43Z</time>
      </trkpt>
      <trkpt lat="48.56244" lon="1.95057">
        <ele>155</ele>
        <time>2022-03-27T13:16:44Z</time>
      </trkpt>
      <trkpt lat="48.56246" lon="1.95059">
        <ele>155</ele>
        <time>2022-03-27T13:16:45Z</time>
      </trkpt>
      <trkpt lat="48.56248" lon="1.95062">
        <ele>155</ele>
        <time>2022-03-27T13:16:47Z</time>
      </trkpt>
      <trkpt lat="48.5625" lon="1.95066">
        <ele>156</ele>
        <time>2022-03-27T13:16:49Z</time>
      </trkpt>
      <trkpt lat="48.56251" lon="1.9507">
        <ele>156</ele>
        <time>2022-03-27T13:16:51Z</time>
      </trkpt>
      <trkpt lat="48.56252" lon="1.95074">
        <ele>156</ele>
        <time>2022-03-27T13:16:53Z</time>
      </trkpt>
      <trkpt lat="48.56253" lon="1.95078">
        <ele>155</ele>
        <time>2022-03-27T13:16:55Z</time>
      </trkpt>
      <trkpt lat="48.56254" lon="1.95082">
        <ele>155</ele>
        <time>2022-03-27T13:16:57Z</time>
      </trkpt>
      <trkpt lat="48.56255" lon="1.95087">
        <ele>155</ele>
        <time>2022-03-27T13:16:59Z</time>
      </trkpt>
      <trkpt lat="48.56256" lon="1.95091">
        <ele>155</ele>
        <time>2022-03-27T13:17:01Z</time>
      </trkpt>
      <trkpt lat="48.56258" lon="1.95095">
        <ele>155</ele>
        <time>2022-03-27T13:17:03Z</time>
      </trkpt>
      <trkpt lat="48.56259" lon="1.95099">
        <ele>156</ele>
        <time>2022-03-27T13:17:05Z</time>
      </trkpt>
      <trkpt lat="48.5626" lon="1.95104">
        <ele>155</ele>
        <time>2022-03-27T13:17:07Z</time>
      </trkpt>
      <trkpt lat="48.5626" lon="1.95108">
        <ele>155</ele>
        <time>2022-03-27T13:17:09Z</time>
      </trkpt>
      <trkpt lat="48.56261" lon="1.95113">
        <ele>155</ele>
        <time>2022-03-27T13:17:11Z</time>
      </trkpt>
      <trkpt lat="48.56261" lon="1.95115">
        <ele>155</ele>
        <time>2022-03-27T13:17:12Z</time>
      </trkpt>
      <trkpt lat="48.56262" lon="1.95118">
        <ele>155</ele>
        <time>2022-03-27T13:17:13Z</time>
      </trkpt>
      <trkpt lat="48.56263" lon="1.9512">
        <ele>155</ele>
        <time>2022-03-27T13:17:14Z</time>
      </trkpt>
      <trkpt lat="48.56264" lon="1.95125">
        <ele>155</ele>
        <time>2022-03-27T13:17:16Z</time>
      </trkpt>
      <trkpt lat="48.56264" lon="1.95129">
        <ele>155</ele>
        <time>2022-03-27T13:17:18Z</time>
      </trkpt>
      <trkpt lat="48.56264" lon="1.95132">
        <ele>155</ele>
        <time>2022-03-27T13:17:20Z</time>
      </trkpt>
      <trkpt lat="48.56266" lon="1.95136">
        <ele>155</ele>
        <time>2022-03-27T13:17:22Z</time>
      </trkpt>
      <trkpt lat="48.56268" lon="1.9514">
        <ele>155</ele>
        <time>2022-03-27T13:17:23Z</time>
      </trkpt>
      <trkpt lat="48.56269" lon="1.95144">
        <ele>155</ele>
        <time>2022-03-27T13:17:26Z</time>
      </trkpt>
      <trkpt lat="48.5627" lon="1.95148">
        <ele>155</ele>
        <time>2022-03-27T13:17:28Z</time>
      </trkpt>
      <trkpt lat="48.56271" lon="1.95152">
        <ele>155</ele>
        <time>2022-03-27T13:17:30Z</time>
      </trkpt>
      <trkpt lat="48.56273" lon="1.95157">
        <ele>155</ele>
        <time>2022-03-27T13:17:32Z</time>
      </trkpt>
      <trkpt lat="48.56273" lon="1.95161">
        <ele>155</ele>
        <time>2022-03-27T13:17:34Z</time>
      </trkpt>
      <trkpt lat="48.56274" lon="1.95164">
        <ele>155</ele>
        <time>2022-03-27T13:17:36Z</time>
      </trkpt>
      <trkpt lat="48.56275" lon="1.95168">
        <ele>155</ele>
        <time>2022-03-27T13:17:38Z</time>
      </trkpt>
      <trkpt lat="48.56276" lon="1.95172">
        <ele>155</ele>
        <time>2022-03-27T13:17:40Z</time>
      </trkpt>
      <trkpt lat="48.56276" lon="1.95176">
        <ele>154</ele>
        <time>2022-03-27T13:17:42Z</time>
      </trkpt>
      <trkpt lat="48.56277" lon="1.95181">
        <ele>154</ele>
        <time>2022-03-27T13:17:44Z</time>
      </trkpt>
      <trkpt lat="48.56278" lon="1.95183">
        <ele>154</ele>
        <time>2022-03-27T13:17:45Z</time>
      </trkpt>
      <trkpt lat="48.56278" lon="1.95188">
        <ele>153</ele>
        <time>2022-03-27T13:17:47Z</time>
      </trkpt>
      <trkpt lat="48.56279" lon="1.95191">
        <ele>153</ele>
        <time>2022-03-27T13:17:49Z</time>
      </trkpt>
      <trkpt lat="48.56279" lon="1.95195">
        <ele>153</ele>
        <time>2022-03-27T13:17:51Z</time>
      </trkpt>
      <trkpt lat="48.56281" lon="1.95199">
        <ele>153</ele>
        <time>2022-03-27T13:17:53Z</time>
      </trkpt>
      <trkpt lat="48.56282" lon="1.95203">
        <ele>154</ele>
        <time>2022-03-27T13:17:55Z</time>
      </trkpt>
      <trkpt lat="48.56283" lon="1.95207">
        <ele>154</ele>
        <time>2022-03-27T13:17:57Z</time>
      </trkpt>
      <trkpt lat="48.56283" lon="1.9521">
        <ele>154</ele>
        <time>2022-03-27T13:17:59Z</time>
      </trkpt>
      <trkpt lat="48.56284" lon="1.95215">
        <ele>154</ele>
        <time>2022-03-27T13:18:01Z</time>
      </trkpt>
      <trkpt lat="48.56285" lon="1.9522">
        <ele>154</ele>
        <time>2022-03-27T13:18:03Z</time>
      </trkpt>
      <trkpt lat="48.56286" lon="1.95224">
        <ele>154</ele>
        <time>2022-03-27T13:18:05Z</time>
      </trkpt>
      <trkpt lat="48.56286" lon="1.95229">
        <ele>154</ele>
        <time>2022-03-27T13:18:07Z</time>
      </trkpt>
      <trkpt lat="48.56286" lon="1.95233">
        <ele>154</ele>
        <time>2022-03-27T13:18:09Z</time>
      </trkpt>
      <trkpt lat="48.56287" lon="1.95237">
        <ele>153</ele>
        <time>2022-03-27T13:18:11Z</time>
      </trkpt>
      <trkpt lat="48.56289" lon="1.9524">
        <ele>153</ele>
        <time>2022-03-27T13:18:13Z</time>
      </trkpt>
      <trkpt lat="48.56289" lon="1.95244">
        <ele>153</ele>
        <time>2022-03-27T13:18:15Z</time>
      </trkpt>
      <trkpt lat="48.5629" lon="1.95248">
        <ele>152</ele>
        <time>2022-03-27T13:18:17Z</time>
      </trkpt>
      <trkpt lat="48.56291" lon="1.95253">
        <ele>152</ele>
        <time>2022-03-27T13:18:19Z</time>
      </trkpt>
      <trkpt lat="48.56291" lon="1.95257">
        <ele>152</ele>
        <time>2022-03-27T13:18:21Z</time>
      </trkpt>
      <trkpt lat="48.56292" lon="1.95261">
        <ele>152</ele>
        <time>2022-03-27T13:18:23Z</time>
      </trkpt>
      <trkpt lat="48.56293" lon="1.95264">
        <ele>152</ele>
        <time>2022-03-27T13:18:24Z</time>
      </trkpt>
      <trkpt lat="48.56293" lon="1.95266">
        <ele>152</ele>
        <time>2022-03-27T13:18:25Z</time>
      </trkpt>
      <trkpt lat="48.56294" lon="1.95269">
        <ele>152</ele>
        <time>2022-03-27T13:18:26Z</time>
      </trkpt>
      <trkpt lat="48.56295" lon="1.95272">
        <ele>152</ele>
        <time>2022-03-27T13:18:27Z</time>
      </trkpt>
      <trkpt lat="48.56295" lon="1.95274">
        <ele>152</ele>
        <time>2022-03-27T13:18:28Z</time>
      </trkpt>
      <trkpt lat="48.56296" lon="1.95279">
        <ele>151</ele>
        <time>2022-03-27T13:18:30Z</time>
      </trkpt>
      <trkpt lat="48.56298" lon="1.95282">
        <ele>151</ele>
        <time>2022-03-27T13:18:32Z</time>
      </trkpt>
      <trkpt lat="48.56299" lon="1.95286">
        <ele>150</ele>
        <time>2022-03-27T13:18:34Z</time>
      </trkpt>
      <trkpt lat="48.56298" lon="1.9529">
        <ele>150</ele>
        <time>2022-03-27T13:18:36Z</time>
      </trkpt>
      <trkpt lat="48.56298" lon="1.95294">
        <ele>150</ele>
        <time>2022-03-27T13:18:38Z</time>
      </trkpt>
      <trkpt lat="48.56299" lon="1.95298">
        <ele>150</ele>
        <time>2022-03-27T13:18:40Z</time>
      </trkpt>
      <trkpt lat="48.56299" lon="1.95301">
        <ele>150</ele>
        <time>2022-03-27T13:18:42Z</time>
      </trkpt>
      <trkpt lat="48.56301" lon="1.95303">
        <ele>150</ele>
        <time>2022-03-27T13:18:44Z</time>
      </trkpt>
      <trkpt lat="48.56304" lon="1.95305">
        <ele>149</ele>
        <time>2022-03-27T13:18:46Z</time>
      </trkpt>
      <trkpt lat="48.56306" lon="1.95308">
        <ele>150</ele>
        <time>2022-03-27T13:18:48Z</time>
      </trkpt>
      <trkpt lat="48.56309" lon="1.9531">
        <ele>150</ele>
        <time>2022-03-27T13:18:50Z</time>
      </trkpt>
      <trkpt lat="48.56311" lon="1.95313">
        <ele>150</ele>
        <time>2022-03-27T13:18:53Z</time>
      </trkpt>
      <trkpt lat="48.56314" lon="1.95316">
        <ele>150</ele>
        <time>2022-03-27T13:18:55Z</time>
      </trkpt>
      <trkpt lat="48.56316" lon="1.95318">
        <ele>150</ele>
        <time>2022-03-27T13:18:57Z</time>
      </trkpt>
      <trkpt lat="48.5632" lon="1.9532">
        <ele>150</ele>
        <time>2022-03-27T13:18:59Z</time>
      </trkpt>
      <trkpt lat="48.56322" lon="1.95322">
        <ele>150</ele>
        <time>2022-03-27T13:19:01Z</time>
      </trkpt>
      <trkpt lat="48.56324" lon="1.95324">
        <ele>150</ele>
        <time>2022-03-27T13:19:02Z</time>
      </trkpt>
      <trkpt lat="48.56327" lon="1.95328">
        <ele>150</ele>
        <time>2022-03-27T13:19:04Z</time>
      </trkpt>
      <trkpt lat="48.56328" lon="1.9533">
        <ele>150</ele>
        <time>2022-03-27T13:19:05Z</time>
      </trkpt>
      <trkpt lat="48.56331" lon="1.95332">
        <ele>150</ele>
        <time>2022-03-27T13:19:07Z</time>
      </trkpt>
      <trkpt lat="48.56333" lon="1.95333">
        <ele>150</ele>
        <time>2022-03-27T13:19:09Z</time>
      </trkpt>
      <trkpt lat="48.56336" lon="1.95336">
        <ele>150</ele>
        <time>2022-03-27T13:19:11Z</time>
      </trkpt>
      <trkpt lat="48.56337" lon="1.95338">
        <ele>150</ele>
        <time>2022-03-27T13:19:12Z</time>
      </trkpt>
      <trkpt lat="48.56338" lon="1.9534">
        <ele>150</ele>
        <time>2022-03-27T13:19:13Z</time>
      </trkpt>
      <trkpt lat="48.5634" lon="1.95343">
        <ele>149</ele>
        <time>2022-03-27T13:19:15Z</time>
      </trkpt>
      <trkpt lat="48.56343" lon="1.95345">
        <ele>149</ele>
        <time>2022-03-27T13:19:17Z</time>
      </trkpt>
      <trkpt lat="48.56345" lon="1.95348">
        <ele>149</ele>
        <time>2022-03-27T13:19:19Z</time>
      </trkpt>
      <trkpt lat="48.56347" lon="1.95351">
        <ele>149</ele>
        <time>2022-03-27T13:19:21Z</time>
      </trkpt>
      <trkpt lat="48.56349" lon="1.95355">
        <ele>148</ele>
        <time>2022-03-27T13:19:23Z</time>
      </trkpt>
      <trkpt lat="48.56351" lon="1.95358">
        <ele>148</ele>
        <time>2022-03-27T13:19:25Z</time>
      </trkpt>
      <trkpt lat="48.56353" lon="1.95361">
        <ele>148</ele>
        <time>2022-03-27T13:19:27Z</time>
      </trkpt>
      <trkpt lat="48.56356" lon="1.95364">
        <ele>147</ele>
        <time>2022-03-27T13:19:29Z</time>
      </trkpt>
      <trkpt lat="48.56358" lon="1.95367">
        <ele>147</ele>
        <time>2022-03-27T13:19:31Z</time>
      </trkpt>
      <trkpt lat="48.5636" lon="1.95369">
        <ele>147</ele>
        <time>2022-03-27T13:19:33Z</time>
      </trkpt>
      <trkpt lat="48.56362" lon="1.95373">
        <ele>147</ele>
        <time>2022-03-27T13:19:35Z</time>
      </trkpt>
      <trkpt lat="48.56364" lon="1.95376">
        <ele>147</ele>
        <time>2022-03-27T13:19:37Z</time>
      </trkpt>
      <trkpt lat="48.56366" lon="1.95379">
        <ele>147</ele>
        <time>2022-03-27T13:19:39Z</time>
      </trkpt>
      <trkpt lat="48.56367" lon="1.95383">
        <ele>147</ele>
        <time>2022-03-27T13:19:41Z</time>
      </trkpt>
      <trkpt lat="48.56369" lon="1.95387">
        <ele>146</ele>
        <time>2022-03-27T13:19:43Z</time>
      </trkpt>
      <trkpt lat="48.56371" lon="1.95391">
        <ele>146</ele>
        <time>2022-03-27T13:19:45Z</time>
      </trkpt>
      <trkpt lat="48.56373" lon="1.95394">
        <ele>146</ele>
        <time>2022-03-27T13:19:47Z</time>
      </trkpt>
      <trkpt lat="48.56375" lon="1.95397">
        <ele>146</ele>
        <time>2022-03-27T13:19:49Z</time>
      </trkpt>
      <trkpt lat="48.56377" lon="1.95399">
        <ele>146</ele>
        <time>2022-03-27T13:19:51Z</time>
      </trkpt>
      <trkpt lat="48.56379" lon="1.95403">
        <ele>145</ele>
        <time>2022-03-27T13:19:53Z</time>
      </trkpt>
      <trkpt lat="48.5638" lon="1.95406">
        <ele>145</ele>
        <time>2022-03-27T13:19:55Z</time>
      </trkpt>
      <trkpt lat="48.56381" lon="1.95409">
        <ele>145</ele>
        <time>2022-03-27T13:19:57Z</time>
      </trkpt>
      <trkpt lat="48.56383" lon="1.95413">
        <ele>145</ele>
        <time>2022-03-27T13:19:59Z</time>
      </trkpt>
      <trkpt lat="48.56384" lon="1.95418">
        <ele>145</ele>
        <time>2022-03-27T13:20:01Z</time>
      </trkpt>
      <trkpt lat="48.56386" lon="1.95421">
        <ele>145</ele>
        <time>2022-03-27T13:20:03Z</time>
      </trkpt>
      <trkpt lat="48.56387" lon="1.95425">
        <ele>146</ele>
        <time>2022-03-27T13:20:05Z</time>
      </trkpt>
      <trkpt lat="48.56388" lon="1.95427">
        <ele>146</ele>
        <time>2022-03-27T13:20:06Z</time>
      </trkpt>
      <trkpt lat="48.56391" lon="1.9543">
        <ele>146</ele>
        <time>2022-03-27T13:20:08Z</time>
      </trkpt>
      <trkpt lat="48.56393" lon="1.95434">
        <ele>145</ele>
        <time>2022-03-27T13:20:10Z</time>
      </trkpt>
      <trkpt lat="48.56394" lon="1.95437">
        <ele>145</ele>
        <time>2022-03-27T13:20:12Z</time>
      </trkpt>
      <trkpt lat="48.56396" lon="1.9544">
        <ele>145</ele>
        <time>2022-03-27T13:20:14Z</time>
      </trkpt>
      <trkpt lat="48.56398" lon="1.95443">
        <ele>145</ele>
        <time>2022-03-27T13:20:16Z</time>
      </trkpt>
      <trkpt lat="48.564" lon="1.95447">
        <ele>145</ele>
        <time>2022-03-27T13:20:18Z</time>
      </trkpt>
      <trkpt lat="48.56402" lon="1.95451">
        <ele>145</ele>
        <time>2022-03-27T13:20:20Z</time>
      </trkpt>
      <trkpt lat="48.56403" lon="1.95455">
        <ele>144</ele>
        <time>2022-03-27T13:20:22Z</time>
      </trkpt>
      <trkpt lat="48.56405" lon="1.95458">
        <ele>144</ele>
        <time>2022-03-27T13:20:24Z</time>
      </trkpt>
      <trkpt lat="48.56407" lon="1.95461">
        <ele>144</ele>
        <time>2022-03-27T13:20:26Z</time>
      </trkpt>
      <trkpt lat="48.56409" lon="1.95464">
        <ele>143</ele>
        <time>2022-03-27T13:20:28Z</time>
      </trkpt>
      <trkpt lat="48.56411" lon="1.95466">
        <ele>143</ele>
        <time>2022-03-27T13:20:30Z</time>
      </trkpt>
      <trkpt lat="48.56413" lon="1.95469">
        <ele>143</ele>
        <time>2022-03-27T13:20:32Z</time>
      </trkpt>
      <trkpt lat="48.56416" lon="1.95471">
        <ele>143</ele>
        <time>2022-03-27T13:20:34Z</time>
      </trkpt>
      <trkpt lat="48.56417" lon="1.95473">
        <ele>143</ele>
        <time>2022-03-27T13:20:36Z</time>
      </trkpt>
      <trkpt lat="48.56419" lon="1.95474">
        <ele>142</ele>
        <time>2022-03-27T13:20:38Z</time>
      </trkpt>
      <trkpt lat="48.56422" lon="1.95476">
        <ele>142</ele>
        <time>2022-03-27T13:20:40Z</time>
      </trkpt>
      <trkpt lat="48.56424" lon="1.95477">
        <ele>142</ele>
        <time>2022-03-27T13:20:42Z</time>
      </trkpt>
      <trkpt lat="48.56426" lon="1.95479">
        <ele>142</ele>
        <time>2022-03-27T13:20:44Z</time>
      </trkpt>
      <trkpt lat="48.56429" lon="1.95481">
        <ele>142</ele>
        <time>2022-03-27T13:20:46Z</time>
      </trkpt>
      <trkpt lat="48.56431" lon="1.95483">
        <ele>142</ele>
        <time>2022-03-27T13:20:48Z</time>
      </trkpt>
      <trkpt lat="48.56434" lon="1.95484">
        <ele>142</ele>
        <time>2022-03-27T13:20:50Z</time>
      </trkpt>
      <trkpt lat="48.56436" lon="1.95486">
        <ele>142</ele>
        <time>2022-03-27T13:20:52Z</time>
      </trkpt>
      <trkpt lat="48.56438" lon="1.95488">
        <ele>141</ele>
        <time>2022-03-27T13:20:54Z</time>
      </trkpt>
      <trkpt lat="48.56441" lon="1.95489">
        <ele>141</ele>
        <time>2022-03-27T13:20:56Z</time>
      </trkpt>
      <trkpt lat="48.56443" lon="1.9549">
        <ele>141</ele>
        <time>2022-03-27T13:20:59Z</time>
      </trkpt>
      <trkpt lat="48.56445" lon="1.95492">
        <ele>141</ele>
        <time>2022-03-27T13:21:01Z</time>
      </trkpt>
      <trkpt lat="48.56448" lon="1.95494">
        <ele>141</ele>
        <time>2022-03-27T13:21:03Z</time>
      </trkpt>
      <trkpt lat="48.56451" lon="1.95496">
        <ele>140</ele>
        <time>2022-03-27T13:21:05Z</time>
      </trkpt>
      <trkpt lat="48.56454" lon="1.95497">
        <ele>140</ele>
        <time>2022-03-27T13:21:07Z</time>
      </trkpt>
      <trkpt lat="48.56457" lon="1.955">
        <ele>140</ele>
        <time>2022-03-27T13:21:09Z</time>
      </trkpt>
      <trkpt lat="48.56459" lon="1.95501">
        <ele>140</ele>
        <time>2022-03-27T13:21:10Z</time>
      </trkpt>
      <trkpt lat="48.56462" lon="1.95505">
        <ele>139</ele>
        <time>2022-03-27T13:21:12Z</time>
      </trkpt>
      <trkpt lat="48.56464" lon="1.95508">
        <ele>138</ele>
        <time>2022-03-27T13:21:14Z</time>
      </trkpt>
      <trkpt lat="48.56466" lon="1.95511">
        <ele>138</ele>
        <time>2022-03-27T13:21:16Z</time>
      </trkpt>
      <trkpt lat="48.56468" lon="1.95513">
        <ele>137</ele>
        <time>2022-03-27T13:21:18Z</time>
      </trkpt>
      <trkpt lat="48.5647" lon="1.95516">
        <ele>137</ele>
        <time>2022-03-27T13:21:20Z</time>
      </trkpt>
      <trkpt lat="48.56472" lon="1.95518">
        <ele>136</ele>
        <time>2022-03-27T13:21:22Z</time>
      </trkpt>
      <trkpt lat="48.56474" lon="1.95519">
        <ele>136</ele>
        <time>2022-03-27T13:21:24Z</time>
      </trkpt>
      <trkpt lat="48.56476" lon="1.95523">
        <ele>136</ele>
        <time>2022-03-27T13:21:26Z</time>
      </trkpt>
      <trkpt lat="48.56478" lon="1.95527">
        <ele>136</ele>
        <time>2022-03-27T13:21:28Z</time>
      </trkpt>
      <trkpt lat="48.56479" lon="1.95531">
        <ele>135</ele>
        <time>2022-03-27T13:21:30Z</time>
      </trkpt>
      <trkpt lat="48.56481" lon="1.95535">
        <ele>135</ele>
        <time>2022-03-27T13:21:32Z</time>
      </trkpt>
      <trkpt lat="48.56483" lon="1.95539">
        <ele>134</ele>
        <time>2022-03-27T13:21:34Z</time>
      </trkpt>
      <trkpt lat="48.56485" lon="1.95542">
        <ele>134</ele>
        <time>2022-03-27T13:21:36Z</time>
      </trkpt>
      <trkpt lat="48.56488" lon="1.95545">
        <ele>134</ele>
        <time>2022-03-27T13:21:38Z</time>
      </trkpt>
      <trkpt lat="48.56489" lon="1.95548">
        <ele>133</ele>
        <time>2022-03-27T13:21:40Z</time>
      </trkpt>
      <trkpt lat="48.56492" lon="1.95551">
        <ele>133</ele>
        <time>2022-03-27T13:21:42Z</time>
      </trkpt>
      <trkpt lat="48.56494" lon="1.95554">
        <ele>132</ele>
        <time>2022-03-27T13:21:44Z</time>
      </trkpt>
      <trkpt lat="48.56496" lon="1.95556">
        <ele>132</ele>
        <time>2022-03-27T13:21:46Z</time>
      </trkpt>
      <trkpt lat="48.56499" lon="1.95559">
        <ele>132</ele>
        <time>2022-03-27T13:21:48Z</time>
      </trkpt>
      <trkpt lat="48.56501" lon="1.95561">
        <ele>132</ele>
        <time>2022-03-27T13:21:50Z</time>
      </trkpt>
      <trkpt lat="48.56503" lon="1.95564">
        <ele>131</ele>
        <time>2022-03-27T13:21:52Z</time>
      </trkpt>
      <trkpt lat="48.56506" lon="1.95567">
        <ele>131</ele>
        <time>2022-03-27T13:21:54Z</time>
      </trkpt>
      <trkpt lat="48.56509" lon="1.9557">
        <ele>131</ele>
        <time>2022-03-27T13:21:56Z</time>
      </trkpt>
      <trkpt lat="48.56512" lon="1.95572">
        <ele>131</ele>
        <time>2022-03-27T13:21:58Z</time>
      </trkpt>
      <trkpt lat="48.56514" lon="1.95574">
        <ele>131</ele>
        <time>2022-03-27T13:22:00Z</time>
      </trkpt>
      <trkpt lat="48.56517" lon="1.95575">
        <ele>131</ele>
        <time>2022-03-27T13:22:02Z</time>
      </trkpt>
      <trkpt lat="48.5652" lon="1.95577">
        <ele>131</ele>
        <time>2022-03-27T13:22:04Z</time>
      </trkpt>
      <trkpt lat="48.56523" lon="1.95579">
        <ele>130</ele>
        <time>2022-03-27T13:22:06Z</time>
      </trkpt>
      <trkpt lat="48.56525" lon="1.9558">
        <ele>130</ele>
        <time>2022-03-27T13:22:08Z</time>
      </trkpt>
      <trkpt lat="48.56528" lon="1.95582">
        <ele>130</ele>
        <time>2022-03-27T13:22:10Z</time>
      </trkpt>
      <trkpt lat="48.56531" lon="1.95583">
        <ele>130</ele>
        <time>2022-03-27T13:22:12Z</time>
      </trkpt>
      <trkpt lat="48.56533" lon="1.95586">
        <ele>129</ele>
        <time>2022-03-27T13:22:14Z</time>
      </trkpt>
      <trkpt lat="48.56536" lon="1.95587">
        <ele>129</ele>
        <time>2022-03-27T13:22:16Z</time>
      </trkpt>
      <trkpt lat="48.56538" lon="1.95589">
        <ele>129</ele>
        <time>2022-03-27T13:22:18Z</time>
      </trkpt>
      <trkpt lat="48.5654" lon="1.95591">
        <ele>129</ele>
        <time>2022-03-27T13:22:20Z</time>
      </trkpt>
      <trkpt lat="48.56543" lon="1.95592">
        <ele>129</ele>
        <time>2022-03-27T13:22:22Z</time>
      </trkpt>
      <trkpt lat="48.56545" lon="1.95594">
        <ele>129</ele>
        <time>2022-03-27T13:22:24Z</time>
      </trkpt>
      <trkpt lat="48.56547" lon="1.95596">
        <ele>129</ele>
        <time>2022-03-27T13:22:26Z</time>
      </trkpt>
      <trkpt lat="48.5655" lon="1.95598">
        <ele>129</ele>
        <time>2022-03-27T13:22:28Z</time>
      </trkpt>
      <trkpt lat="48.56552" lon="1.95599">
        <ele>129</ele>
        <time>2022-03-27T13:22:30Z</time>
      </trkpt>
      <trkpt lat="48.56555" lon="1.956">
        <ele>129</ele>
        <time>2022-03-27T13:22:32Z</time>
      </trkpt>
      <trkpt lat="48.56557" lon="1.956">
        <ele>129</ele>
        <time>2022-03-27T13:22:33Z</time>
      </trkpt>
      <trkpt lat="48.56559" lon="1.95601">
        <ele>129</ele>
        <time>2022-03-27T13:22:34Z</time>
      </trkpt>
      <trkpt lat="48.56562" lon="1.95604">
        <ele>129</ele>
        <time>2022-03-27T13:22:36Z</time>
      </trkpt>
      <trkpt lat="48.56564" lon="1.95606">
        <ele>129</ele>
        <time>2022-03-27T13:22:38Z</time>
      </trkpt>
      <trkpt lat="48.56567" lon="1.95609">
        <ele>128</ele>
        <time>2022-03-27T13:22:40Z</time>
      </trkpt>
      <trkpt lat="48.5657" lon="1.95612">
        <ele>128</ele>
        <time>2022-03-27T13:22:42Z</time>
      </trkpt>
      <trkpt lat="48.56572" lon="1.95615">
        <ele>128</ele>
        <time>2022-03-27T13:22:44Z</time>
      </trkpt>
      <trkpt lat="48.56575" lon="1.95617">
        <ele>129</ele>
        <time>2022-03-27T13:22:46Z</time>
      </trkpt>
      <trkpt lat="48.56577" lon="1.95619">
        <ele>129</ele>
        <time>2022-03-27T13:22:48Z</time>
      </trkpt>
      <trkpt lat="48.56579" lon="1.95622">
        <ele>129</ele>
        <time>2022-03-27T13:22:50Z</time>
      </trkpt>
      <trkpt lat="48.56582" lon="1.95625">
        <ele>129</ele>
        <time>2022-03-27T13:22:52Z</time>
      </trkpt>
      <trkpt lat="48.56584" lon="1.95627">
        <ele>129</ele>
        <time>2022-03-27T13:22:54Z</time>
      </trkpt>
      <trkpt lat="48.56586" lon="1.95631">
        <ele>129</ele>
        <time>2022-03-27T13:22:56Z</time>
      </trkpt>
      <trkpt lat="48.56589" lon="1.95634">
        <ele>128</ele>
        <time>2022-03-27T13:22:58Z</time>
      </trkpt>
      <trkpt lat="48.56591" lon="1.95636">
        <ele>128</ele>
        <time>2022-03-27T13:23:00Z</time>
      </trkpt>
      <trkpt lat="48.56593" lon="1.95639">
        <ele>128</ele>
        <time>2022-03-27T13:23:02Z</time>
      </trkpt>
      <trkpt lat="48.56596" lon="1.95641">
        <ele>129</ele>
        <time>2022-03-27T13:23:04Z</time>
      </trkpt>
      <trkpt lat="48.56598" lon="1.95643">
        <ele>129</ele>
        <time>2022-03-27T13:23:06Z</time>
      </trkpt>
      <trkpt lat="48.566" lon="1.95645">
        <ele>129</ele>
        <time>2022-03-27T13:23:08Z</time>
      </trkpt>
      <trkpt lat="48.56603" lon="1.95648">
        <ele>129</ele>
        <time>2022-03-27T13:23:10Z</time>
      </trkpt>
      <trkpt lat="48.56605" lon="1.9565">
        <ele>129</ele>
        <time>2022-03-27T13:23:12Z</time>
      </trkpt>
      <trkpt lat="48.56607" lon="1.95652">
        <ele>130</ele>
        <time>2022-03-27T13:23:14Z</time>
      </trkpt>
      <trkpt lat="48.5661" lon="1.95654">
        <ele>130</ele>
        <time>2022-03-27T13:23:16Z</time>
      </trkpt>
      <trkpt lat="48.56612" lon="1.95656">
        <ele>130</ele>
        <time>2022-03-27T13:23:18Z</time>
      </trkpt>
      <trkpt lat="48.56615" lon="1.95659">
        <ele>130</ele>
        <time>2022-03-27T13:23:20Z</time>
      </trkpt>
      <trkpt lat="48.56617" lon="1.9566">
        <ele>130</ele>
        <time>2022-03-27T13:23:22Z</time>
      </trkpt>
      <trkpt lat="48.5662" lon="1.95662">
        <ele>130</ele>
        <time>2022-03-27T13:23:24Z</time>
      </trkpt>
      <trkpt lat="48.56622" lon="1.95663">
        <ele>131</ele>
        <time>2022-03-27T13:23:26Z</time>
      </trkpt>
      <trkpt lat="48.56625" lon="1.95662">
        <ele>131</ele>
        <time>2022-03-27T13:23:28Z</time>
      </trkpt>
      <trkpt lat="48.56628" lon="1.95663">
        <ele>131</ele>
        <time>2022-03-27T13:23:30Z</time>
      </trkpt>
      <trkpt lat="48.56631" lon="1.95663">
        <ele>131</ele>
        <time>2022-03-27T13:23:32Z</time>
      </trkpt>
      <trkpt lat="48.56634" lon="1.95663">
        <ele>132</ele>
        <time>2022-03-27T13:23:35Z</time>
      </trkpt>
      <trkpt lat="48.56636" lon="1.95664">
        <ele>132</ele>
        <time>2022-03-27T13:23:37Z</time>
      </trkpt>
      <trkpt lat="48.56639" lon="1.95664">
        <ele>132</ele>
        <time>2022-03-27T13:23:39Z</time>
      </trkpt>
      <trkpt lat="48.56641" lon="1.95665">
        <ele>132</ele>
        <time>2022-03-27T13:23:40Z</time>
      </trkpt>
      <trkpt lat="48.56643" lon="1.95666">
        <ele>133</ele>
        <time>2022-03-27T13:23:41Z</time>
      </trkpt>
      <trkpt lat="48.56645" lon="1.95668">
        <ele>133</ele>
        <time>2022-03-27T13:23:42Z</time>
      </trkpt>
      <trkpt lat="48.56649" lon="1.95669">
        <ele>134</ele>
        <time>2022-03-27T13:23:44Z</time>
      </trkpt>
      <trkpt lat="48.56651" lon="1.9567">
        <ele>134</ele>
        <time>2022-03-27T13:23:45Z</time>
      </trkpt>
      <trkpt lat="48.56654" lon="1.95673">
        <ele>134</ele>
        <time>2022-03-27T13:23:47Z</time>
      </trkpt>
      <trkpt lat="48.56656" lon="1.95675">
        <ele>134</ele>
        <time>2022-03-27T13:23:48Z</time>
      </trkpt>
      <trkpt lat="48.56658" lon="1.95677">
        <ele>135</ele>
        <time>2022-03-27T13:23:50Z</time>
      </trkpt>
      <trkpt lat="48.56661" lon="1.9568">
        <ele>135</ele>
        <time>2022-03-27T13:23:52Z</time>
      </trkpt>
      <trkpt lat="48.56663" lon="1.95683">
        <ele>136</ele>
        <time>2022-03-27T13:23:54Z</time>
      </trkpt>
      <trkpt lat="48.56665" lon="1.95686">
        <ele>136</ele>
        <time>2022-03-27T13:23:56Z</time>
      </trkpt>
      <trkpt lat="48.56667" lon="1.95689">
        <ele>137</ele>
        <time>2022-03-27T13:23:58Z</time>
      </trkpt>
      <trkpt lat="48.5667" lon="1.95691">
        <ele>137</ele>
        <time>2022-03-27T13:24:00Z</time>
      </trkpt>
      <trkpt lat="48.56673" lon="1.95694">
        <ele>138</ele>
        <time>2022-03-27T13:24:02Z</time>
      </trkpt>
      <trkpt lat="48.56675" lon="1.95695">
        <ele>138</ele>
        <time>2022-03-27T13:24:03Z</time>
      </trkpt>
      <trkpt lat="48.56677" lon="1.95698">
        <ele>138</ele>
        <time>2022-03-27T13:24:05Z</time>
      </trkpt>
      <trkpt lat="48.56679" lon="1.95699">
        <ele>138</ele>
        <time>2022-03-27T13:24:07Z</time>
      </trkpt>
      <trkpt lat="48.56682" lon="1.957">
        <ele>139</ele>
        <time>2022-03-27T13:24:09Z</time>
      </trkpt>
      <trkpt lat="48.56685" lon="1.95702">
        <ele>139</ele>
        <time>2022-03-27T13:24:11Z</time>
      </trkpt>
      <trkpt lat="48.56687" lon="1.95704">
        <ele>140</ele>
        <time>2022-03-27T13:24:13Z</time>
      </trkpt>
      <trkpt lat="48.56689" lon="1.95705">
        <ele>140</ele>
        <time>2022-03-27T13:24:15Z</time>
      </trkpt>
      <trkpt lat="48.56691" lon="1.95706">
        <ele>140</ele>
        <time>2022-03-27T13:24:16Z</time>
      </trkpt>
      <trkpt lat="48.56694" lon="1.95709">
        <ele>140</ele>
        <time>2022-03-27T13:24:18Z</time>
      </trkpt>
      <trkpt lat="48.56697" lon="1.95711">
        <ele>140</ele>
        <time>2022-03-27T13:24:20Z</time>
      </trkpt>
      <trkpt lat="48.56699" lon="1.95712">
        <ele>140</ele>
        <time>2022-03-27T13:24:21Z</time>
      </trkpt>
      <trkpt lat="48.56701" lon="1.95713">
        <ele>140</ele>
        <time>2022-03-27T13:24:22Z</time>
      </trkpt>
      <trkpt lat="48.56702" lon="1.95714">
        <ele>140</ele>
        <time>2022-03-27T13:24:23Z</time>
      </trkpt>
      <trkpt lat="48.56705" lon="1.95716">
        <ele>141</ele>
        <time>2022-03-27T13:24:25Z</time>
      </trkpt>
      <trkpt lat="48.56708" lon="1.95717">
        <ele>141</ele>
        <time>2022-03-27T13:24:27Z</time>
      </trkpt>
      <trkpt lat="48.56711" lon="1.95719">
        <ele>141</ele>
        <time>2022-03-27T13:24:29Z</time>
      </trkpt>
      <trkpt lat="48.56714" lon="1.9572">
        <ele>141</ele>
        <time>2022-03-27T13:24:31Z</time>
      </trkpt>
      <trkpt lat="48.56717" lon="1.95722">
        <ele>140</ele>
        <time>2022-03-27T13:24:33Z</time>
      </trkpt>
      <trkpt lat="48.56719" lon="1.95723">
        <ele>140</ele>
        <time>2022-03-27T13:24:34Z</time>
      </trkpt>
      <trkpt lat="48.56722" lon="1.95726">
        <ele>140</ele>
        <time>2022-03-27T13:24:36Z</time>
      </trkpt>
      <trkpt lat="48.56724" lon="1.95727">
        <ele>140</ele>
        <time>2022-03-27T13:24:37Z</time>
      </trkpt>
      <trkpt lat="48.56726" lon="1.95728">
        <ele>140</ele>
        <time>2022-03-27T13:24:38Z</time>
      </trkpt>
      <trkpt lat="48.56728" lon="1.95729">
        <ele>140</ele>
        <time>2022-03-27T13:24:39Z</time>
      </trkpt>
      <trkpt lat="48.56731" lon="1.95732">
        <ele>140</ele>
        <time>2022-03-27T13:24:41Z</time>
      </trkpt>
      <trkpt lat="48.56733" lon="1.95734">
        <ele>140</ele>
        <time>2022-03-27T13:24:43Z</time>
      </trkpt>
      <trkpt lat="48.56736" lon="1.95737">
        <ele>140</ele>
        <time>2022-03-27T13:24:45Z</time>
      </trkpt>
      <trkpt lat="48.56739" lon="1.95739">
        <ele>140</ele>
        <time>2022-03-27T13:24:47Z</time>
      </trkpt>
      <trkpt lat="48.56742" lon="1.9574">
        <ele>139</ele>
        <time>2022-03-27T13:24:49Z</time>
      </trkpt>
      <trkpt lat="48.56745" lon="1.95742">
        <ele>140</ele>
        <time>2022-03-27T13:24:51Z</time>
      </trkpt>
      <trkpt lat="48.56746" lon="1.95744">
        <ele>140</ele>
        <time>2022-03-27T13:24:52Z</time>
      </trkpt>
      <trkpt lat="48.56749" lon="1.95746">
        <ele>140</ele>
        <time>2022-03-27T13:24:54Z</time>
      </trkpt>
      <trkpt lat="48.56753" lon="1.95748">
        <ele>140</ele>
        <time>2022-03-27T13:24:56Z</time>
      </trkpt>
      <trkpt lat="48.56756" lon="1.9575">
        <ele>140</ele>
        <time>2022-03-27T13:24:58Z</time>
      </trkpt>
      <trkpt lat="48.56758" lon="1.95752">
        <ele>139</ele>
        <time>2022-03-27T13:25:00Z</time>
      </trkpt>
      <trkpt lat="48.56759" lon="1.95756">
        <ele>139</ele>
        <time>2022-03-27T13:25:02Z</time>
      </trkpt>
      <trkpt lat="48.56759" lon="1.9576">
        <ele>139</ele>
        <time>2022-03-27T13:25:03Z</time>
      </trkpt>
      <trkpt lat="48.56759" lon="1.95763">
        <ele>139</ele>
        <time>2022-03-27T13:25:04Z</time>
      </trkpt>
      <trkpt lat="48.56759" lon="1.95766">
        <ele>139</ele>
        <time>2022-03-27T13:25:05Z</time>
      </trkpt>
      <trkpt lat="48.56758" lon="1.9577">
        <ele>139</ele>
        <time>2022-03-27T13:25:07Z</time>
      </trkpt>
      <trkpt lat="48.56757" lon="1.95775">
        <ele>139</ele>
        <time>2022-03-27T13:25:09Z</time>
      </trkpt>
      <trkpt lat="48.56756" lon="1.95778">
        <ele>138</ele>
        <time>2022-03-27T13:25:10Z</time>
      </trkpt>
      <trkpt lat="48.56755" lon="1.95783">
        <ele>138</ele>
        <time>2022-03-27T13:25:12Z</time>
      </trkpt>
      <trkpt lat="48.56754" lon="1.95787">
        <ele>138</ele>
        <time>2022-03-27T13:25:14Z</time>
      </trkpt>
      <trkpt lat="48.56753" lon="1.95792">
        <ele>138</ele>
        <time>2022-03-27T13:25:16Z</time>
      </trkpt>
      <trkpt lat="48.56752" lon="1.95794">
        <ele>138</ele>
        <time>2022-03-27T13:25:17Z</time>
      </trkpt>
      <trkpt lat="48.56751" lon="1.95798">
        <ele>138</ele>
        <time>2022-03-27T13:25:19Z</time>
      </trkpt>
      <trkpt lat="48.5675" lon="1.95802">
        <ele>138</ele>
        <time>2022-03-27T13:25:21Z</time>
      </trkpt>
      <trkpt lat="48.56748" lon="1.95807">
        <ele>138</ele>
        <time>2022-03-27T13:25:23Z</time>
      </trkpt>
      <trkpt lat="48.56748" lon="1.95809">
        <ele>138</ele>
        <time>2022-03-27T13:25:24Z</time>
      </trkpt>
      <trkpt lat="48.56747" lon="1.95812">
        <ele>137</ele>
        <time>2022-03-27T13:25:25Z</time>
      </trkpt>
      <trkpt lat="48.56746" lon="1.95814">
        <ele>137</ele>
        <time>2022-03-27T13:25:26Z</time>
      </trkpt>
      <trkpt lat="48.56744" lon="1.95819">
        <ele>137</ele>
        <time>2022-03-27T13:25:28Z</time>
      </trkpt>
      <trkpt lat="48.56743" lon="1.95822">
        <ele>137</ele>
        <time>2022-03-27T13:25:29Z</time>
      </trkpt>
      <trkpt lat="48.56742" lon="1.95825">
        <ele>137</ele>
        <time>2022-03-27T13:25:30Z</time>
      </trkpt>
      <trkpt lat="48.56742" lon="1.95827">
        <ele>137</ele>
        <time>2022-03-27T13:25:31Z</time>
      </trkpt>
      <trkpt lat="48.56741" lon="1.9583">
        <ele>137</ele>
        <time>2022-03-27T13:25:32Z</time>
      </trkpt>
      <trkpt lat="48.5674" lon="1.95833">
        <ele>136</ele>
        <time>2022-03-27T13:25:33Z</time>
      </trkpt>
      <trkpt lat="48.56739" lon="1.95835">
        <ele>136</ele>
        <time>2022-03-27T13:25:34Z</time>
      </trkpt>
      <trkpt lat="48.56738" lon="1.95838">
        <ele>136</ele>
        <time>2022-03-27T13:25:35Z</time>
      </trkpt>
      <trkpt lat="48.56738" lon="1.9584">
        <ele>136</ele>
        <time>2022-03-27T13:25:36Z</time>
      </trkpt>
      <trkpt lat="48.56737" lon="1.95843">
        <ele>136</ele>
        <time>2022-03-27T13:25:37Z</time>
      </trkpt>
      <trkpt lat="48.56735" lon="1.95847">
        <ele>136</ele>
        <time>2022-03-27T13:25:39Z</time>
      </trkpt>
      <trkpt lat="48.56734" lon="1.9585">
        <ele>136</ele>
        <time>2022-03-27T13:25:41Z</time>
      </trkpt>
      <trkpt lat="48.56733" lon="1.95855">
        <ele>136</ele>
        <time>2022-03-27T13:25:43Z</time>
      </trkpt>
      <trkpt lat="48.56731" lon="1.95859">
        <ele>136</ele>
        <time>2022-03-27T13:25:45Z</time>
      </trkpt>
      <trkpt lat="48.5673" lon="1.95864">
        <ele>136</ele>
        <time>2022-03-27T13:25:47Z</time>
      </trkpt>
      <trkpt lat="48.56729" lon="1.95869">
        <ele>136</ele>
        <time>2022-03-27T13:25:49Z</time>
      </trkpt>
      <trkpt lat="48.56727" lon="1.95873">
        <ele>136</ele>
        <time>2022-03-27T13:25:51Z</time>
      </trkpt>
      <trkpt lat="48.56726" lon="1.95877">
        <ele>136</ele>
        <time>2022-03-27T13:25:53Z</time>
      </trkpt>
      <trkpt lat="48.56724" lon="1.95882">
        <ele>135</ele>
        <time>2022-03-27T13:25:55Z</time>
      </trkpt>
      <trkpt lat="48.56723" lon="1.95886">
        <ele>136</ele>
        <time>2022-03-27T13:25:57Z</time>
      </trkpt>
      <trkpt lat="48.56721" lon="1.95891">
        <ele>135</ele>
        <time>2022-03-27T13:25:59Z</time>
      </trkpt>
      <trkpt lat="48.5672" lon="1.95895">
        <ele>135</ele>
        <time>2022-03-27T13:26:01Z</time>
      </trkpt>
      <trkpt lat="48.56719" lon="1.95899">
        <ele>135</ele>
        <time>2022-03-27T13:26:03Z</time>
      </trkpt>
      <trkpt lat="48.56717" lon="1.95903">
        <ele>135</ele>
        <time>2022-03-27T13:26:05Z</time>
      </trkpt>
      <trkpt lat="48.56716" lon="1.95909">
        <ele>135</ele>
        <time>2022-03-27T13:26:07Z</time>
      </trkpt>
      <trkpt lat="48.56715" lon="1.95913">
        <ele>135</ele>
        <time>2022-03-27T13:26:09Z</time>
      </trkpt>
      <trkpt lat="48.56713" lon="1.95917">
        <ele>136</ele>
        <time>2022-03-27T13:26:11Z</time>
      </trkpt>
      <trkpt lat="48.56711" lon="1.95921">
        <ele>136</ele>
        <time>2022-03-27T13:26:13Z</time>
      </trkpt>
      <trkpt lat="48.5671" lon="1.95925">
        <ele>136</ele>
        <time>2022-03-27T13:26:15Z</time>
      </trkpt>
      <trkpt lat="48.56708" lon="1.95928">
        <ele>136</ele>
        <time>2022-03-27T13:26:17Z</time>
      </trkpt>
      <trkpt lat="48.56706" lon="1.95931">
        <ele>136</ele>
        <time>2022-03-27T13:26:19Z</time>
      </trkpt>
      <trkpt lat="48.56704" lon="1.95935">
        <ele>136</ele>
        <time>2022-03-27T13:26:21Z</time>
      </trkpt>
      <trkpt lat="48.56702" lon="1.95938">
        <ele>136</ele>
        <time>2022-03-27T13:26:23Z</time>
      </trkpt>
      <trkpt lat="48.567" lon="1.95941">
        <ele>136</ele>
        <time>2022-03-27T13:26:25Z</time>
      </trkpt>
      <trkpt lat="48.56699" lon="1.95944">
        <ele>136</ele>
        <time>2022-03-27T13:26:27Z</time>
      </trkpt>
      <trkpt lat="48.56697" lon="1.95948">
        <ele>135</ele>
        <time>2022-03-27T13:26:29Z</time>
      </trkpt>
      <trkpt lat="48.56695" lon="1.95952">
        <ele>135</ele>
        <time>2022-03-27T13:26:31Z</time>
      </trkpt>
      <trkpt lat="48.56693" lon="1.95955">
        <ele>135</ele>
        <time>2022-03-27T13:26:33Z</time>
      </trkpt>
      <trkpt lat="48.56691" lon="1.95958">
        <ele>135</ele>
        <time>2022-03-27T13:26:35Z</time>
      </trkpt>
      <trkpt lat="48.56689" lon="1.95962">
        <ele>136</ele>
        <time>2022-03-27T13:26:37Z</time>
      </trkpt>
      <trkpt lat="48.56687" lon="1.95966">
        <ele>136</ele>
        <time>2022-03-27T13:26:39Z</time>
      </trkpt>
      <trkpt lat="48.56685" lon="1.9597">
        <ele>136</ele>
        <time>2022-03-27T13:26:41Z</time>
      </trkpt>
      <trkpt lat="48.56683" lon="1.95974">
        <ele>136</ele>
        <time>2022-03-27T13:26:43Z</time>
      </trkpt>
      <trkpt lat="48.56681" lon="1.95976">
        <ele>136</ele>
        <time>2022-03-27T13:26:44Z</time>
      </trkpt>
      <trkpt lat="48.56679" lon="1.95979">
        <ele>136</ele>
        <time>2022-03-27T13:26:46Z</time>
      </trkpt>
      <trkpt lat="48.56677" lon="1.95983">
        <ele>136</ele>
        <time>2022-03-27T13:26:48Z</time>
      </trkpt>
      <trkpt lat="48.56675" lon="1.95987">
        <ele>136</ele>
        <time>2022-03-27T13:26:50Z</time>
      </trkpt>
      <trkpt lat="48.56673" lon="1.95989">
        <ele>136</ele>
        <time>2022-03-27T13:26:51Z</time>
      </trkpt>
      <trkpt lat="48.56671" lon="1.95992">
        <ele>136</ele>
        <time>2022-03-27T13:26:53Z</time>
      </trkpt>
      <trkpt lat="48.56669" lon="1.95996">
        <ele>136</ele>
        <time>2022-03-27T13:26:55Z</time>
      </trkpt>
      <trkpt lat="48.56667" lon="1.96">
        <ele>136</ele>
        <time>2022-03-27T13:26:57Z</time>
      </trkpt>
      <trkpt lat="48.56665" lon="1.96004">
        <ele>136</ele>
        <time>2022-03-27T13:26:59Z</time>
      </trkpt>
      <trkpt lat="48.56664" lon="1.96006">
        <ele>136</ele>
        <time>2022-03-27T13:27:00Z</time>
      </trkpt>
      <trkpt lat="48.56661" lon="1.9601">
        <ele>136</ele>
        <time>2022-03-27T13:27:02Z</time>
      </trkpt>
      <trkpt lat="48.56659" lon="1.96014">
        <ele>136</ele>
        <time>2022-03-27T13:27:04Z</time>
      </trkpt>
      <trkpt lat="48.56657" lon="1.96018">
        <ele>136</ele>
        <time>2022-03-27T13:27:06Z</time>
      </trkpt>
      <trkpt lat="48.56655" lon="1.96022">
        <ele>136</ele>
        <time>2022-03-27T13:27:08Z</time>
      </trkpt>
      <trkpt lat="48.56653" lon="1.96026">
        <ele>136</ele>
        <time>2022-03-27T13:27:10Z</time>
      </trkpt>
      <trkpt lat="48.5665" lon="1.96029">
        <ele>137</ele>
        <time>2022-03-27T13:27:12Z</time>
      </trkpt>
      <trkpt lat="48.56648" lon="1.96032">
        <ele>137</ele>
        <time>2022-03-27T13:27:14Z</time>
      </trkpt>
      <trkpt lat="48.56646" lon="1.96035">
        <ele>137</ele>
        <time>2022-03-27T13:27:16Z</time>
      </trkpt>
      <trkpt lat="48.56644" lon="1.96038">
        <ele>137</ele>
        <time>2022-03-27T13:27:18Z</time>
      </trkpt>
      <trkpt lat="48.56641" lon="1.96041">
        <ele>137</ele>
        <time>2022-03-27T13:27:20Z</time>
      </trkpt>
      <trkpt lat="48.56639" lon="1.96044">
        <ele>137</ele>
        <time>2022-03-27T13:27:22Z</time>
      </trkpt>
      <trkpt lat="48.56637" lon="1.96048">
        <ele>137</ele>
        <time>2022-03-27T13:27:24Z</time>
      </trkpt>
      <trkpt lat="48.56636" lon="1.96051">
        <ele>137</ele>
        <time>2022-03-27T13:27:26Z</time>
      </trkpt>
      <trkpt lat="48.56634" lon="1.96054">
        <ele>137</ele>
        <time>2022-03-27T13:27:28Z</time>
      </trkpt>
      <trkpt lat="48.56632" lon="1.96057">
        <ele>137</ele>
        <time>2022-03-27T13:27:30Z</time>
      </trkpt>
      <trkpt lat="48.5663" lon="1.9606">
        <ele>138</ele>
        <time>2022-03-27T13:27:32Z</time>
      </trkpt>
      <trkpt lat="48.56629" lon="1.96063">
        <ele>138</ele>
        <time>2022-03-27T13:27:34Z</time>
      </trkpt>
      <trkpt lat="48.56627" lon="1.96067">
        <ele>138</ele>
        <time>2022-03-27T13:27:36Z</time>
      </trkpt>
      <trkpt lat="48.56625" lon="1.9607">
        <ele>138</ele>
        <time>2022-03-27T13:27:38Z</time>
      </trkpt>
      <trkpt lat="48.56623" lon="1.96073">
        <ele>138</ele>
        <time>2022-03-27T13:27:40Z</time>
      </trkpt>
      <trkpt lat="48.56622" lon="1.96077">
        <ele>138</ele>
        <time>2022-03-27T13:27:42Z</time>
      </trkpt>
      <trkpt lat="48.5662" lon="1.96082">
        <ele>138</ele>
        <time>2022-03-27T13:27:44Z</time>
      </trkpt>
      <trkpt lat="48.56618" lon="1.96086">
        <ele>138</ele>
        <time>2022-03-27T13:27:46Z</time>
      </trkpt>
      <trkpt lat="48.56617" lon="1.96089">
        <ele>138</ele>
        <time>2022-03-27T13:27:48Z</time>
      </trkpt>
      <trkpt lat="48.56615" lon="1.96093">
        <ele>138</ele>
        <time>2022-03-27T13:27:50Z</time>
      </trkpt>
      <trkpt lat="48.56613" lon="1.96097">
        <ele>138</ele>
        <time>2022-03-27T13:27:52Z</time>
      </trkpt>
      <trkpt lat="48.56611" lon="1.96101">
        <ele>138</ele>
        <time>2022-03-27T13:27:54Z</time>
      </trkpt>
      <trkpt lat="48.5661" lon="1.96104">
        <ele>139</ele>
        <time>2022-03-27T13:27:56Z</time>
      </trkpt>
      <trkpt lat="48.56608" lon="1.96108">
        <ele>139</ele>
        <time>2022-03-27T13:27:58Z</time>
      </trkpt>
      <trkpt lat="48.56606" lon="1.96112">
        <ele>138</ele>
        <time>2022-03-27T13:28:00Z</time>
      </trkpt>
      <trkpt lat="48.56604" lon="1.96116">
        <ele>139</ele>
        <time>2022-03-27T13:28:02Z</time>
      </trkpt>
      <trkpt lat="48.56602" lon="1.9612">
        <ele>139</ele>
        <time>2022-03-27T13:28:04Z</time>
      </trkpt>
      <trkpt lat="48.56601" lon="1.96123">
        <ele>139</ele>
        <time>2022-03-27T13:28:06Z</time>
      </trkpt>
      <trkpt lat="48.56599" lon="1.96126">
        <ele>139</ele>
        <time>2022-03-27T13:28:08Z</time>
      </trkpt>
      <trkpt lat="48.56597" lon="1.9613">
        <ele>139</ele>
        <time>2022-03-27T13:28:10Z</time>
      </trkpt>
      <trkpt lat="48.56595" lon="1.96134">
        <ele>139</ele>
        <time>2022-03-27T13:28:12Z</time>
      </trkpt>
      <trkpt lat="48.56593" lon="1.96138">
        <ele>139</ele>
        <time>2022-03-27T13:28:14Z</time>
      </trkpt>
      <trkpt lat="48.56592" lon="1.96142">
        <ele>139</ele>
        <time>2022-03-27T13:28:16Z</time>
      </trkpt>
      <trkpt lat="48.5659" lon="1.96146">
        <ele>139</ele>
        <time>2022-03-27T13:28:18Z</time>
      </trkpt>
      <trkpt lat="48.56589" lon="1.9615">
        <ele>139</ele>
        <time>2022-03-27T13:28:20Z</time>
      </trkpt>
      <trkpt lat="48.56587" lon="1.96155">
        <ele>139</ele>
        <time>2022-03-27T13:28:22Z</time>
      </trkpt>
      <trkpt lat="48.56586" lon="1.96159">
        <ele>140</ele>
        <time>2022-03-27T13:28:24Z</time>
      </trkpt>
      <trkpt lat="48.56584" lon="1.96163">
        <ele>140</ele>
        <time>2022-03-27T13:28:26Z</time>
      </trkpt>
      <trkpt lat="48.56582" lon="1.96166">
        <ele>140</ele>
        <time>2022-03-27T13:28:28Z</time>
      </trkpt>
      <trkpt lat="48.56581" lon="1.9617">
        <ele>140</ele>
        <time>2022-03-27T13:28:30Z</time>
      </trkpt>
      <trkpt lat="48.56579" lon="1.96174">
        <ele>140</ele>
        <time>2022-03-27T13:28:32Z</time>
      </trkpt>
      <trkpt lat="48.56578" lon="1.96179">
        <ele>140</ele>
        <time>2022-03-27T13:28:34Z</time>
      </trkpt>
      <trkpt lat="48.56576" lon="1.96182">
        <ele>140</ele>
        <time>2022-03-27T13:28:36Z</time>
      </trkpt>
      <trkpt lat="48.56574" lon="1.96186">
        <ele>140</ele>
        <time>2022-03-27T13:28:38Z</time>
      </trkpt>
      <trkpt lat="48.56573" lon="1.9619">
        <ele>140</ele>
        <time>2022-03-27T13:28:40Z</time>
      </trkpt>
      <trkpt lat="48.56571" lon="1.96194">
        <ele>140</ele>
        <time>2022-03-27T13:28:42Z</time>
      </trkpt>
      <trkpt lat="48.56569" lon="1.96198">
        <ele>140</ele>
        <time>2022-03-27T13:28:44Z</time>
      </trkpt>
      <trkpt lat="48.56567" lon="1.96202">
        <ele>140</ele>
        <time>2022-03-27T13:28:46Z</time>
      </trkpt>
      <trkpt lat="48.56565" lon="1.96206">
        <ele>140</ele>
        <time>2022-03-27T13:28:48Z</time>
      </trkpt>
      <trkpt lat="48.56564" lon="1.9621">
        <ele>140</ele>
        <time>2022-03-27T13:28:50Z</time>
      </trkpt>
      <trkpt lat="48.56562" lon="1.96214">
        <ele>141</ele>
        <time>2022-03-27T13:28:52Z</time>
      </trkpt>
      <trkpt lat="48.56561" lon="1.96218">
        <ele>141</ele>
        <time>2022-03-27T13:28:54Z</time>
      </trkpt>
      <trkpt lat="48.5656" lon="1.96222">
        <ele>141</ele>
        <time>2022-03-27T13:28:56Z</time>
      </trkpt>
      <trkpt lat="48.56561" lon="1.96225">
        <ele>141</ele>
        <time>2022-03-27T13:28:58Z</time>
      </trkpt>
      <trkpt lat="48.56563" lon="1.96226">
        <ele>141</ele>
        <time>2022-03-27T13:29:00Z</time>
      </trkpt>
      <trkpt lat="48.56566" lon="1.96226">
        <ele>141</ele>
        <time>2022-03-27T13:29:02Z</time>
      </trkpt>
      <trkpt lat="48.56569" lon="1.96226">
        <ele>141</ele>
        <time>2022-03-27T13:29:04Z</time>
      </trkpt>
      <trkpt lat="48.56572" lon="1.96225">
        <ele>141</ele>
        <time>2022-03-27T13:29:06Z</time>
      </trkpt>
      <trkpt lat="48.56575" lon="1.96224">
        <ele>141</ele>
        <time>2022-03-27T13:29:08Z</time>
      </trkpt>
      <trkpt lat="48.56578" lon="1.96224">
        <ele>141</ele>
        <time>2022-03-27T13:29:10Z</time>
      </trkpt>
      <trkpt lat="48.56582" lon="1.96223">
        <ele>142</ele>
        <time>2022-03-27T13:29:12Z</time>
      </trkpt>
      <trkpt lat="48.56584" lon="1.96224">
        <ele>142</ele>
        <time>2022-03-27T13:29:13Z</time>
      </trkpt>
      <trkpt lat="48.56587" lon="1.96224">
        <ele>142</ele>
        <time>2022-03-27T13:29:15Z</time>
      </trkpt>
      <trkpt lat="48.5659" lon="1.96224">
        <ele>142</ele>
        <time>2022-03-27T13:29:17Z</time>
      </trkpt>
      <trkpt lat="48.56594" lon="1.96225">
        <ele>142</ele>
        <time>2022-03-27T13:29:19Z</time>
      </trkpt>
      <trkpt lat="48.56597" lon="1.96226">
        <ele>142</ele>
        <time>2022-03-27T13:29:21Z</time>
      </trkpt>
      <trkpt lat="48.566" lon="1.96226">
        <ele>142</ele>
        <time>2022-03-27T13:29:23Z</time>
      </trkpt>
      <trkpt lat="48.56603" lon="1.96227">
        <ele>142</ele>
        <time>2022-03-27T13:29:25Z</time>
      </trkpt>
      <trkpt lat="48.56607" lon="1.96227">
        <ele>141</ele>
        <time>2022-03-27T13:29:27Z</time>
      </trkpt>
      <trkpt lat="48.5661" lon="1.96228">
        <ele>141</ele>
        <time>2022-03-27T13:29:29Z</time>
      </trkpt>
      <trkpt lat="48.56613" lon="1.96228">
        <ele>141</ele>
        <time>2022-03-27T13:29:31Z</time>
      </trkpt>
      <trkpt lat="48.56616" lon="1.96229">
        <ele>141</ele>
        <time>2022-03-27T13:29:33Z</time>
      </trkpt>
      <trkpt lat="48.5662" lon="1.96229">
        <ele>141</ele>
        <time>2022-03-27T13:29:35Z</time>
      </trkpt>
      <trkpt lat="48.56623" lon="1.9623">
        <ele>141</ele>
        <time>2022-03-27T13:29:37Z</time>
      </trkpt>
      <trkpt lat="48.56626" lon="1.9623">
        <ele>141</ele>
        <time>2022-03-27T13:29:39Z</time>
      </trkpt>
      <trkpt lat="48.56629" lon="1.96229">
        <ele>141</ele>
        <time>2022-03-27T13:29:41Z</time>
      </trkpt>
      <trkpt lat="48.56633" lon="1.96229">
        <ele>141</ele>
        <time>2022-03-27T13:29:43Z</time>
      </trkpt>
      <trkpt lat="48.56636" lon="1.96229">
        <ele>141</ele>
        <time>2022-03-27T13:29:45Z</time>
      </trkpt>
      <trkpt lat="48.5664" lon="1.9623">
        <ele>141</ele>
        <time>2022-03-27T13:29:47Z</time>
      </trkpt>
      <trkpt lat="48.56643" lon="1.9623">
        <ele>141</ele>
        <time>2022-03-27T13:29:49Z</time>
      </trkpt>
      <trkpt lat="48.56646" lon="1.96231">
        <ele>141</ele>
        <time>2022-03-27T13:29:51Z</time>
      </trkpt>
      <trkpt lat="48.56649" lon="1.96232">
        <ele>141</ele>
        <time>2022-03-27T13:29:53Z</time>
      </trkpt>
      <trkpt lat="48.56652" lon="1.96232">
        <ele>140</ele>
        <time>2022-03-27T13:29:55Z</time>
      </trkpt>
      <trkpt lat="48.56655" lon="1.96233">
        <ele>140</ele>
        <time>2022-03-27T13:29:57Z</time>
      </trkpt>
      <trkpt lat="48.56658" lon="1.96233">
        <ele>140</ele>
        <time>2022-03-27T13:29:59Z</time>
      </trkpt>
      <trkpt lat="48.56662" lon="1.96233">
        <ele>140</ele>
        <time>2022-03-27T13:30:00Z</time>
      </trkpt>
      <trkpt lat="48.56665" lon="1.96234">
        <ele>140</ele>
        <time>2022-03-27T13:30:03Z</time>
      </trkpt>
      <trkpt lat="48.56668" lon="1.96234">
        <ele>140</ele>
        <time>2022-03-27T13:30:05Z</time>
      </trkpt>
      <trkpt lat="48.56671" lon="1.96235">
        <ele>140</ele>
        <time>2022-03-27T13:30:07Z</time>
      </trkpt>
      <trkpt lat="48.56674" lon="1.96235">
        <ele>140</ele>
        <time>2022-03-27T13:30:09Z</time>
      </trkpt>
      <trkpt lat="48.56677" lon="1.96235">
        <ele>139</ele>
        <time>2022-03-27T13:30:11Z</time>
      </trkpt>
      <trkpt lat="48.5668" lon="1.96236">
        <ele>139</ele>
        <time>2022-03-27T13:30:13Z</time>
      </trkpt>
      <trkpt lat="48.56683" lon="1.96237">
        <ele>139</ele>
        <time>2022-03-27T13:30:15Z</time>
      </trkpt>
      <trkpt lat="48.56686" lon="1.96238">
        <ele>139</ele>
        <time>2022-03-27T13:30:17Z</time>
      </trkpt>
      <trkpt lat="48.56689" lon="1.96238">
        <ele>138</ele>
        <time>2022-03-27T13:30:19Z</time>
      </trkpt>
      <trkpt lat="48.56692" lon="1.96238">
        <ele>138</ele>
        <time>2022-03-27T13:30:21Z</time>
      </trkpt>
      <trkpt lat="48.56695" lon="1.96239">
        <ele>138</ele>
        <time>2022-03-27T13:30:23Z</time>
      </trkpt>
      <trkpt lat="48.56699" lon="1.96239">
        <ele>138</ele>
        <time>2022-03-27T13:30:25Z</time>
      </trkpt>
      <trkpt lat="48.56702" lon="1.96239">
        <ele>138</ele>
        <time>2022-03-27T13:30:27Z</time>
      </trkpt>
      <trkpt lat="48.56705" lon="1.9624">
        <ele>138</ele>
        <time>2022-03-27T13:30:29Z</time>
      </trkpt>
      <trkpt lat="48.56707" lon="1.96239">
        <ele>137</ele>
        <time>2022-03-27T13:30:31Z</time>
      </trkpt>
      <trkpt lat="48.5671" lon="1.96238">
        <ele>137</ele>
        <time>2022-03-27T13:30:33Z</time>
      </trkpt>
      <trkpt lat="48.56712" lon="1.96238">
        <ele>137</ele>
        <time>2022-03-27T13:30:35Z</time>
      </trkpt>
      <trkpt lat="48.56715" lon="1.96239">
        <ele>137</ele>
        <time>2022-03-27T13:30:37Z</time>
      </trkpt>
      <trkpt lat="48.56718" lon="1.96239">
        <ele>137</ele>
        <time>2022-03-27T13:30:39Z</time>
      </trkpt>
      <trkpt lat="48.56721" lon="1.96238">
        <ele>136</ele>
        <time>2022-03-27T13:30:41Z</time>
      </trkpt>
      <trkpt lat="48.56725" lon="1.96238">
        <ele>136</ele>
        <time>2022-03-27T13:30:43Z</time>
      </trkpt>
      <trkpt lat="48.56728" lon="1.96239">
        <ele>136</ele>
        <time>2022-03-27T13:30:45Z</time>
      </trkpt>
      <trkpt lat="48.56732" lon="1.96238">
        <ele>136</ele>
        <time>2022-03-27T13:30:47Z</time>
      </trkpt>
      <trkpt lat="48.56735" lon="1.96239">
        <ele>136</ele>
        <time>2022-03-27T13:30:49Z</time>
      </trkpt>
      <trkpt lat="48.56738" lon="1.96239">
        <ele>135</ele>
        <time>2022-03-27T13:30:51Z</time>
      </trkpt>
      <trkpt lat="48.56741" lon="1.9624">
        <ele>135</ele>
        <time>2022-03-27T13:30:53Z</time>
      </trkpt>
      <trkpt lat="48.56744" lon="1.9624">
        <ele>135</ele>
        <time>2022-03-27T13:30:55Z</time>
      </trkpt>
      <trkpt lat="48.56747" lon="1.9624">
        <ele>135</ele>
        <time>2022-03-27T13:30:57Z</time>
      </trkpt>
      <trkpt lat="48.56749" lon="1.9624">
        <ele>135</ele>
        <time>2022-03-27T13:30:59Z</time>
      </trkpt>
      <trkpt lat="48.56752" lon="1.96241">
        <ele>135</ele>
        <time>2022-03-27T13:31:01Z</time>
      </trkpt>
      <trkpt lat="48.56755" lon="1.96241">
        <ele>135</ele>
        <time>2022-03-27T13:31:03Z</time>
      </trkpt>
      <trkpt lat="48.56759" lon="1.96241">
        <ele>135</ele>
        <time>2022-03-27T13:31:05Z</time>
      </trkpt>
      <trkpt lat="48.56762" lon="1.96241">
        <ele>134</ele>
        <time>2022-03-27T13:31:07Z</time>
      </trkpt>
      <trkpt lat="48.56764" lon="1.96241">
        <ele>134</ele>
        <time>2022-03-27T13:31:08Z</time>
      </trkpt>
      <trkpt lat="48.56767" lon="1.96241">
        <ele>134</ele>
        <time>2022-03-27T13:31:10Z</time>
      </trkpt>
      <trkpt lat="48.5677" lon="1.96241">
        <ele>134</ele>
        <time>2022-03-27T13:31:12Z</time>
      </trkpt>
      <trkpt lat="48.56774" lon="1.96241">
        <ele>134</ele>
        <time>2022-03-27T13:31:14Z</time>
      </trkpt>
      <trkpt lat="48.56777" lon="1.96241">
        <ele>134</ele>
        <time>2022-03-27T13:31:16Z</time>
      </trkpt>
      <trkpt lat="48.5678" lon="1.96241">
        <ele>134</ele>
        <time>2022-03-27T13:31:18Z</time>
      </trkpt>
      <trkpt lat="48.56784" lon="1.9624">
        <ele>134</ele>
        <time>2022-03-27T13:31:20Z</time>
      </trkpt>
      <trkpt lat="48.56787" lon="1.9624">
        <ele>133</ele>
        <time>2022-03-27T13:31:22Z</time>
      </trkpt>
      <trkpt lat="48.5679" lon="1.9624">
        <ele>133</ele>
        <time>2022-03-27T13:31:24Z</time>
      </trkpt>
      <trkpt lat="48.56794" lon="1.9624">
        <ele>133</ele>
        <time>2022-03-27T13:31:26Z</time>
      </trkpt>
      <trkpt lat="48.56797" lon="1.9624">
        <ele>133</ele>
        <time>2022-03-27T13:31:28Z</time>
      </trkpt>
      <trkpt lat="48.56801" lon="1.96241">
        <ele>133</ele>
        <time>2022-03-27T13:31:30Z</time>
      </trkpt>
      <trkpt lat="48.56804" lon="1.96241">
        <ele>133</ele>
        <time>2022-03-27T13:31:32Z</time>
      </trkpt>
      <trkpt lat="48.56807" lon="1.9624">
        <ele>133</ele>
        <time>2022-03-27T13:31:34Z</time>
      </trkpt>
      <trkpt lat="48.5681" lon="1.9624">
        <ele>133</ele>
        <time>2022-03-27T13:31:36Z</time>
      </trkpt>
      <trkpt lat="48.56813" lon="1.9624">
        <ele>133</ele>
        <time>2022-03-27T13:31:38Z</time>
      </trkpt>
      <trkpt lat="48.56816" lon="1.9624">
        <ele>133</ele>
        <time>2022-03-27T13:31:40Z</time>
      </trkpt>
      <trkpt lat="48.5682" lon="1.9624">
        <ele>133</ele>
        <time>2022-03-27T13:31:42Z</time>
      </trkpt>
      <trkpt lat="48.56823" lon="1.9624">
        <ele>133</ele>
        <time>2022-03-27T13:31:44Z</time>
      </trkpt>
      <trkpt lat="48.56826" lon="1.9624">
        <ele>133</ele>
        <time>2022-03-27T13:31:46Z</time>
      </trkpt>
      <trkpt lat="48.56829" lon="1.9624">
        <ele>132</ele>
        <time>2022-03-27T13:31:48Z</time>
      </trkpt>
      <trkpt lat="48.56832" lon="1.9624">
        <ele>132</ele>
        <time>2022-03-27T13:31:50Z</time>
      </trkpt>
      <trkpt lat="48.56835" lon="1.96239">
        <ele>132</ele>
        <time>2022-03-27T13:31:52Z</time>
      </trkpt>
      <trkpt lat="48.56837" lon="1.96238">
        <ele>132</ele>
        <time>2022-03-27T13:31:54Z</time>
      </trkpt>
      <trkpt lat="48.5684" lon="1.96237">
        <ele>132</ele>
        <time>2022-03-27T13:31:56Z</time>
      </trkpt>
      <trkpt lat="48.56842" lon="1.96235">
        <ele>132</ele>
        <time>2022-03-27T13:31:58Z</time>
      </trkpt>
      <trkpt lat="48.56845" lon="1.96234">
        <ele>131</ele>
        <time>2022-03-27T13:32:00Z</time>
      </trkpt>
      <trkpt lat="48.56847" lon="1.96233">
        <ele>131</ele>
        <time>2022-03-27T13:32:02Z</time>
      </trkpt>
      <trkpt lat="48.56849" lon="1.96231">
        <ele>131</ele>
        <time>2022-03-27T13:32:04Z</time>
      </trkpt>
      <trkpt lat="48.56851" lon="1.96229">
        <ele>131</ele>
        <time>2022-03-27T13:32:06Z</time>
      </trkpt>
      <trkpt lat="48.56853" lon="1.96227">
        <ele>130</ele>
        <time>2022-03-27T13:32:08Z</time>
      </trkpt>
      <trkpt lat="48.56855" lon="1.96225">
        <ele>130</ele>
        <time>2022-03-27T13:32:10Z</time>
      </trkpt>
      <trkpt lat="48.56857" lon="1.96222">
        <ele>130</ele>
        <time>2022-03-27T13:32:12Z</time>
      </trkpt>
      <trkpt lat="48.56859" lon="1.9622">
        <ele>130</ele>
        <time>2022-03-27T13:32:14Z</time>
      </trkpt>
      <trkpt lat="48.56861" lon="1.96217">
        <ele>130</ele>
        <time>2022-03-27T13:32:16Z</time>
      </trkpt>
      <trkpt lat="48.56864" lon="1.96215">
        <ele>130</ele>
        <time>2022-03-27T13:32:18Z</time>
      </trkpt>
      <trkpt lat="48.56866" lon="1.96212">
        <ele>130</ele>
        <time>2022-03-27T13:32:20Z</time>
      </trkpt>
      <trkpt lat="48.56869" lon="1.9621">
        <ele>130</ele>
        <time>2022-03-27T13:32:22Z</time>
      </trkpt>
      <trkpt lat="48.56871" lon="1.96208">
        <ele>129</ele>
        <time>2022-03-27T13:32:24Z</time>
      </trkpt>
      <trkpt lat="48.56874" lon="1.96205">
        <ele>129</ele>
        <time>2022-03-27T13:32:26Z</time>
      </trkpt>
      <trkpt lat="48.56876" lon="1.96202">
        <ele>129</ele>
        <time>2022-03-27T13:32:28Z</time>
      </trkpt>
      <trkpt lat="48.56878" lon="1.96198">
        <ele>129</ele>
        <time>2022-03-27T13:32:30Z</time>
      </trkpt>
      <trkpt lat="48.56881" lon="1.96195">
        <ele>129</ele>
        <time>2022-03-27T13:32:32Z</time>
      </trkpt>
      <trkpt lat="48.56883" lon="1.96192">
        <ele>129</ele>
        <time>2022-03-27T13:32:34Z</time>
      </trkpt>
      <trkpt lat="48.56886" lon="1.9619">
        <ele>128</ele>
        <time>2022-03-27T13:32:36Z</time>
      </trkpt>
      <trkpt lat="48.56889" lon="1.96187">
        <ele>128</ele>
        <time>2022-03-27T13:32:37Z</time>
      </trkpt>
      <trkpt lat="48.56892" lon="1.96185">
        <ele>128</ele>
        <time>2022-03-27T13:32:40Z</time>
      </trkpt>
      <trkpt lat="48.56894" lon="1.96182">
        <ele>128</ele>
        <time>2022-03-27T13:32:42Z</time>
      </trkpt>
      <trkpt lat="48.56897" lon="1.9618">
        <ele>128</ele>
        <time>2022-03-27T13:32:44Z</time>
      </trkpt>
      <trkpt lat="48.569" lon="1.96178">
        <ele>128</ele>
        <time>2022-03-27T13:32:46Z</time>
      </trkpt>
      <trkpt lat="48.56903" lon="1.96176">
        <ele>127</ele>
        <time>2022-03-27T13:32:48Z</time>
      </trkpt>
      <trkpt lat="48.56906" lon="1.96175">
        <ele>127</ele>
        <time>2022-03-27T13:32:50Z</time>
      </trkpt>
      <trkpt lat="48.56909" lon="1.96174">
        <ele>127</ele>
        <time>2022-03-27T13:32:52Z</time>
      </trkpt>
      <trkpt lat="48.56912" lon="1.96174">
        <ele>127</ele>
        <time>2022-03-27T13:32:54Z</time>
      </trkpt>
      <trkpt lat="48.56915" lon="1.96173">
        <ele>127</ele>
        <time>2022-03-27T13:32:56Z</time>
      </trkpt>
      <trkpt lat="48.56918" lon="1.96173">
        <ele>127</ele>
        <time>2022-03-27T13:32:58Z</time>
      </trkpt>
      <trkpt lat="48.56921" lon="1.96172">
        <ele>127</ele>
        <time>2022-03-27T13:33:00Z</time>
      </trkpt>
      <trkpt lat="48.56924" lon="1.96172">
        <ele>127</ele>
        <time>2022-03-27T13:33:02Z</time>
      </trkpt>
      <trkpt lat="48.56927" lon="1.96171">
        <ele>127</ele>
        <time>2022-03-27T13:33:04Z</time>
      </trkpt>
      <trkpt lat="48.5693" lon="1.96171">
        <ele>126</ele>
        <time>2022-03-27T13:33:06Z</time>
      </trkpt>
      <trkpt lat="48.56933" lon="1.96171">
        <ele>126</ele>
        <time>2022-03-27T13:33:08Z</time>
      </trkpt>
      <trkpt lat="48.56936" lon="1.96171">
        <ele>126</ele>
        <time>2022-03-27T13:33:10Z</time>
      </trkpt>
      <trkpt lat="48.56939" lon="1.96171">
        <ele>126</ele>
        <time>2022-03-27T13:33:12Z</time>
      </trkpt>
      <trkpt lat="48.56941" lon="1.96171">
        <ele>126</ele>
        <time>2022-03-27T13:33:14Z</time>
      </trkpt>
      <trkpt lat="48.56944" lon="1.9617">
        <ele>126</ele>
        <time>2022-03-27T13:33:17Z</time>
      </trkpt>
      <trkpt lat="48.56946" lon="1.96171">
        <ele>125</ele>
        <time>2022-03-27T13:33:57Z</time>
      </trkpt>
      <trkpt lat="48.56948" lon="1.96172">
        <ele>125</ele>
        <time>2022-03-27T13:33:59Z</time>
      </trkpt>
      <trkpt lat="48.56951" lon="1.96171">
        <ele>125</ele>
        <time>2022-03-27T13:34:01Z</time>
      </trkpt>
      <trkpt lat="48.56953" lon="1.96171">
        <ele>125</ele>
        <time>2022-03-27T13:34:03Z</time>
      </trkpt>
      <trkpt lat="48.56955" lon="1.9617">
        <ele>125</ele>
        <time>2022-03-27T13:34:05Z</time>
      </trkpt>
      <trkpt lat="48.56957" lon="1.9617">
        <ele>125</ele>
        <time>2022-03-27T13:34:07Z</time>
      </trkpt>
      <trkpt lat="48.56959" lon="1.96169">
        <ele>125</ele>
        <time>2022-03-27T13:34:11Z</time>
      </trkpt>
      <trkpt lat="48.56961" lon="1.96169">
        <ele>125</ele>
        <time>2022-03-27T13:34:19Z</time>
      </trkpt>
      <trkpt lat="48.56963" lon="1.96168">
        <ele>125</ele>
        <time>2022-03-27T13:34:35Z</time>
      </trkpt>
      <trkpt lat="48.56966" lon="1.96167">
        <ele>125</ele>
        <time>2022-03-27T13:34:37Z</time>
      </trkpt>
      <trkpt lat="48.56968" lon="1.96167">
        <ele>125</ele>
        <time>2022-03-27T13:34:39Z</time>
      </trkpt>
      <trkpt lat="48.56971" lon="1.96168">
        <ele>125</ele>
        <time>2022-03-27T13:34:41Z</time>
      </trkpt>
      <trkpt lat="48.56973" lon="1.96169">
        <ele>125</ele>
        <time>2022-03-27T13:34:43Z</time>
      </trkpt>
      <trkpt lat="48.56975" lon="1.9617">
        <ele>124</ele>
        <time>2022-03-27T13:34:45Z</time>
      </trkpt>
      <trkpt lat="48.56977" lon="1.9617">
        <ele>124</ele>
        <time>2022-03-27T13:34:47Z</time>
      </trkpt>
      <trkpt lat="48.56976" lon="1.96168">
        <ele>123</ele>
        <time>2022-03-27T13:35:04Z</time>
      </trkpt>
      <trkpt lat="48.56974" lon="1.96169">
        <ele>122</ele>
        <time>2022-03-27T13:35:08Z</time>
      </trkpt>
      <trkpt lat="48.56972" lon="1.96168">
        <ele>122</ele>
        <time>2022-03-27T13:35:24Z</time>
      </trkpt>
      <trkpt lat="48.56974" lon="1.96168">
        <ele>123</ele>
        <time>2022-03-27T13:36:18Z</time>
      </trkpt>
      <trkpt lat="48.56976" lon="1.96168">
        <ele>123</ele>
        <time>2022-03-27T13:36:20Z</time>
      </trkpt>
      <trkpt lat="48.56979" lon="1.96168">
        <ele>122</ele>
        <time>2022-03-27T13:36:22Z</time>
      </trkpt>
      <trkpt lat="48.56981" lon="1.96167">
        <ele>122</ele>
        <time>2022-03-27T13:36:24Z</time>
      </trkpt>
      <trkpt lat="48.56983" lon="1.96164">
        <ele>122</ele>
        <time>2022-03-27T13:36:26Z</time>
      </trkpt>
      <trkpt lat="48.56984" lon="1.96162">
        <ele>122</ele>
        <time>2022-03-27T13:36:28Z</time>
      </trkpt>
      <trkpt lat="48.56985" lon="1.96159">
        <ele>122</ele>
        <time>2022-03-27T13:36:30Z</time>
      </trkpt>
      <trkpt lat="48.56987" lon="1.96156">
        <ele>122</ele>
        <time>2022-03-27T13:36:32Z</time>
      </trkpt>
      <trkpt lat="48.56988" lon="1.96152">
        <ele>122</ele>
        <time>2022-03-27T13:36:34Z</time>
      </trkpt>
      <trkpt lat="48.56989" lon="1.96149">
        <ele>122</ele>
        <time>2022-03-27T13:36:36Z</time>
      </trkpt>
      <trkpt lat="48.5699" lon="1.96145">
        <ele>122</ele>
        <time>2022-03-27T13:36:38Z</time>
      </trkpt>
      <trkpt lat="48.56991" lon="1.96142">
        <ele>122</ele>
        <time>2022-03-27T13:36:40Z</time>
      </trkpt>
      <trkpt lat="48.56992" lon="1.96138">
        <ele>122</ele>
        <time>2022-03-27T13:36:42Z</time>
      </trkpt>
      <trkpt lat="48.56993" lon="1.96134">
        <ele>122</ele>
        <time>2022-03-27T13:36:44Z</time>
      </trkpt>
      <trkpt lat="48.56993" lon="1.96131">
        <ele>122</ele>
        <time>2022-03-27T13:36:46Z</time>
      </trkpt>
      <trkpt lat="48.56994" lon="1.96127">
        <ele>122</ele>
        <time>2022-03-27T13:36:48Z</time>
      </trkpt>
      <trkpt lat="48.56994" lon="1.96123">
        <ele>121</ele>
        <time>2022-03-27T13:36:50Z</time>
      </trkpt>
      <trkpt lat="48.56994" lon="1.96119">
        <ele>121</ele>
        <time>2022-03-27T13:36:52Z</time>
      </trkpt>
      <trkpt lat="48.56994" lon="1.96115">
        <ele>121</ele>
        <time>2022-03-27T13:36:54Z</time>
      </trkpt>
      <trkpt lat="48.56995" lon="1.96111">
        <ele>121</ele>
        <time>2022-03-27T13:36:56Z</time>
      </trkpt>
      <trkpt lat="48.56995" lon="1.96107">
        <ele>121</ele>
        <time>2022-03-27T13:36:58Z</time>
      </trkpt>
      <trkpt lat="48.56995" lon="1.96102">
        <ele>121</ele>
        <time>2022-03-27T13:37:00Z</time>
      </trkpt>
      <trkpt lat="48.56995" lon="1.96098">
        <ele>121</ele>
        <time>2022-03-27T13:37:02Z</time>
      </trkpt>
      <trkpt lat="48.56995" lon="1.96094">
        <ele>121</ele>
        <time>2022-03-27T13:37:04Z</time>
      </trkpt>
      <trkpt lat="48.56995" lon="1.9609">
        <ele>121</ele>
        <time>2022-03-27T13:37:06Z</time>
      </trkpt>
      <trkpt lat="48.56995" lon="1.96086">
        <ele>121</ele>
        <time>2022-03-27T13:37:08Z</time>
      </trkpt>
      <trkpt lat="48.56994" lon="1.96082">
        <ele>121</ele>
        <time>2022-03-27T13:37:10Z</time>
      </trkpt>
      <trkpt lat="48.56994" lon="1.96078">
        <ele>121</ele>
        <time>2022-03-27T13:37:12Z</time>
      </trkpt>
      <trkpt lat="48.56995" lon="1.96073">
        <ele>121</ele>
        <time>2022-03-27T13:37:14Z</time>
      </trkpt>
      <trkpt lat="48.56995" lon="1.96069">
        <ele>121</ele>
        <time>2022-03-27T13:37:16Z</time>
      </trkpt>
      <trkpt lat="48.56996" lon="1.96066">
        <ele>121</ele>
        <time>2022-03-27T13:37:18Z</time>
      </trkpt>
      <trkpt lat="48.56998" lon="1.96063">
        <ele>121</ele>
        <time>2022-03-27T13:37:20Z</time>
      </trkpt>
      <trkpt lat="48.57" lon="1.96061">
        <ele>121</ele>
        <time>2022-03-27T13:37:22Z</time>
      </trkpt>
      <trkpt lat="48.57003" lon="1.96062">
        <ele>121</ele>
        <time>2022-03-27T13:37:24Z</time>
      </trkpt>
      <trkpt lat="48.57005" lon="1.96063">
        <ele>121</ele>
        <time>2022-03-27T13:37:26Z</time>
      </trkpt>
      <trkpt lat="48.57008" lon="1.96065">
        <ele>121</ele>
        <time>2022-03-27T13:37:28Z</time>
      </trkpt>
      <trkpt lat="48.57011" lon="1.96066">
        <ele>121</ele>
        <time>2022-03-27T13:37:30Z</time>
      </trkpt>
      <trkpt lat="48.57014" lon="1.96068">
        <ele>121</ele>
        <time>2022-03-27T13:37:32Z</time>
      </trkpt>
      <trkpt lat="48.57017" lon="1.96071">
        <ele>121</ele>
        <time>2022-03-27T13:37:34Z</time>
      </trkpt>
      <trkpt lat="48.5702" lon="1.96073">
        <ele>121</ele>
        <time>2022-03-27T13:37:36Z</time>
      </trkpt>
      <trkpt lat="48.57023" lon="1.96074">
        <ele>121</ele>
        <time>2022-03-27T13:37:38Z</time>
      </trkpt>
      <trkpt lat="48.57025" lon="1.96076">
        <ele>121</ele>
        <time>2022-03-27T13:37:40Z</time>
      </trkpt>
      <trkpt lat="48.57028" lon="1.96078">
        <ele>121</ele>
        <time>2022-03-27T13:37:42Z</time>
      </trkpt>
      <trkpt lat="48.57032" lon="1.96079">
        <ele>121</ele>
        <time>2022-03-27T13:37:44Z</time>
      </trkpt>
      <trkpt lat="48.57035" lon="1.9608">
        <ele>121</ele>
        <time>2022-03-27T13:37:46Z</time>
      </trkpt>
      <trkpt lat="48.57038" lon="1.96082">
        <ele>121</ele>
        <time>2022-03-27T13:37:48Z</time>
      </trkpt>
      <trkpt lat="48.57041" lon="1.96084">
        <ele>121</ele>
        <time>2022-03-27T13:37:50Z</time>
      </trkpt>
      <trkpt lat="48.57044" lon="1.96085">
        <ele>121</ele>
        <time>2022-03-27T13:37:52Z</time>
      </trkpt>
      <trkpt lat="48.57047" lon="1.96086">
        <ele>120</ele>
        <time>2022-03-27T13:37:54Z</time>
      </trkpt>
      <trkpt lat="48.57049" lon="1.96087">
        <ele>120</ele>
        <time>2022-03-27T13:37:56Z</time>
      </trkpt>
      <trkpt lat="48.57052" lon="1.96088">
        <ele>120</ele>
        <time>2022-03-27T13:37:58Z</time>
      </trkpt>
      <trkpt lat="48.57055" lon="1.96089">
        <ele>120</ele>
        <time>2022-03-27T13:38:00Z</time>
      </trkpt>
      <trkpt lat="48.57057" lon="1.9609">
        <ele>120</ele>
        <time>2022-03-27T13:38:02Z</time>
      </trkpt>
      <trkpt lat="48.5706" lon="1.96091">
        <ele>120</ele>
        <time>2022-03-27T13:38:04Z</time>
      </trkpt>
      <trkpt lat="48.57063" lon="1.96093">
        <ele>119</ele>
        <time>2022-03-27T13:38:06Z</time>
      </trkpt>
      <trkpt lat="48.57066" lon="1.96094">
        <ele>119</ele>
        <time>2022-03-27T13:38:08Z</time>
      </trkpt>
      <trkpt lat="48.57068" lon="1.96095">
        <ele>119</ele>
        <time>2022-03-27T13:38:10Z</time>
      </trkpt>
      <trkpt lat="48.57071" lon="1.96096">
        <ele>119</ele>
        <time>2022-03-27T13:38:12Z</time>
      </trkpt>
      <trkpt lat="48.57074" lon="1.96098">
        <ele>119</ele>
        <time>2022-03-27T13:38:14Z</time>
      </trkpt>
      <trkpt lat="48.57077" lon="1.96099">
        <ele>119</ele>
        <time>2022-03-27T13:38:16Z</time>
      </trkpt>
      <trkpt lat="48.5708" lon="1.96101">
        <ele>119</ele>
        <time>2022-03-27T13:38:18Z</time>
      </trkpt>
      <trkpt lat="48.57083" lon="1.96103">
        <ele>118</ele>
        <time>2022-03-27T13:38:20Z</time>
      </trkpt>
      <trkpt lat="48.57086" lon="1.96104">
        <ele>118</ele>
        <time>2022-03-27T13:38:22Z</time>
      </trkpt>
      <trkpt lat="48.57089" lon="1.96105">
        <ele>117</ele>
        <time>2022-03-27T13:38:24Z</time>
      </trkpt>
      <trkpt lat="48.57092" lon="1.96106">
        <ele>117</ele>
        <time>2022-03-27T13:38:26Z</time>
      </trkpt>
      <trkpt lat="48.57095" lon="1.96108">
        <ele>117</ele>
        <time>2022-03-27T13:38:28Z</time>
      </trkpt>
      <trkpt lat="48.57098" lon="1.96109">
        <ele>116</ele>
        <time>2022-03-27T13:38:29Z</time>
      </trkpt>
      <trkpt lat="48.57101" lon="1.9611">
        <ele>116</ele>
        <time>2022-03-27T13:38:32Z</time>
      </trkpt>
      <trkpt lat="48.57104" lon="1.96111">
        <ele>116</ele>
        <time>2022-03-27T13:38:34Z</time>
      </trkpt>
      <trkpt lat="48.57107" lon="1.96112">
        <ele>116</ele>
        <time>2022-03-27T13:38:36Z</time>
      </trkpt>
      <trkpt lat="48.57109" lon="1.96114">
        <ele>115</ele>
        <time>2022-03-27T13:38:38Z</time>
      </trkpt>
      <trkpt lat="48.57112" lon="1.96115">
        <ele>115</ele>
        <time>2022-03-27T13:38:40Z</time>
      </trkpt>
      <trkpt lat="48.57114" lon="1.96116">
        <ele>115</ele>
        <time>2022-03-27T13:38:42Z</time>
      </trkpt>
      <trkpt lat="48.57116" lon="1.96117">
        <ele>114</ele>
        <time>2022-03-27T13:38:48Z</time>
      </trkpt>
      <trkpt lat="48.57118" lon="1.96118">
        <ele>114</ele>
        <time>2022-03-27T13:38:51Z</time>
      </trkpt>
      <trkpt lat="48.5712" lon="1.96119">
        <ele>114</ele>
        <time>2022-03-27T13:38:53Z</time>
      </trkpt>
      <trkpt lat="48.57123" lon="1.96119">
        <ele>114</ele>
        <time>2022-03-27T13:38:55Z</time>
      </trkpt>
      <trkpt lat="48.57125" lon="1.9612">
        <ele>114</ele>
        <time>2022-03-27T13:38:57Z</time>
      </trkpt>
      <trkpt lat="48.57128" lon="1.96121">
        <ele>114</ele>
        <time>2022-03-27T13:38:59Z</time>
      </trkpt>
      <trkpt lat="48.57131" lon="1.96123">
        <ele>114</ele>
        <time>2022-03-27T13:39:01Z</time>
      </trkpt>
      <trkpt lat="48.57133" lon="1.96124">
        <ele>114</ele>
        <time>2022-03-27T13:39:03Z</time>
      </trkpt>
      <trkpt lat="48.57136" lon="1.96125">
        <ele>114</ele>
        <time>2022-03-27T13:39:05Z</time>
      </trkpt>
      <trkpt lat="48.57139" lon="1.96125">
        <ele>114</ele>
        <time>2022-03-27T13:39:07Z</time>
      </trkpt>
      <trkpt lat="48.57142" lon="1.96126">
        <ele>114</ele>
        <time>2022-03-27T13:39:09Z</time>
      </trkpt>
      <trkpt lat="48.57145" lon="1.96127">
        <ele>114</ele>
        <time>2022-03-27T13:39:11Z</time>
      </trkpt>
      <trkpt lat="48.57148" lon="1.96127">
        <ele>114</ele>
        <time>2022-03-27T13:39:13Z</time>
      </trkpt>
      <trkpt lat="48.5715" lon="1.96128">
        <ele>114</ele>
        <time>2022-03-27T13:39:15Z</time>
      </trkpt>
      <trkpt lat="48.57153" lon="1.96128">
        <ele>114</ele>
        <time>2022-03-27T13:39:17Z</time>
      </trkpt>
      <trkpt lat="48.57156" lon="1.96128">
        <ele>114</ele>
        <time>2022-03-27T13:39:19Z</time>
      </trkpt>
      <trkpt lat="48.57159" lon="1.96129">
        <ele>114</ele>
        <time>2022-03-27T13:39:21Z</time>
      </trkpt>
      <trkpt lat="48.57162" lon="1.96129">
        <ele>114</ele>
        <time>2022-03-27T13:39:23Z</time>
      </trkpt>
      <trkpt lat="48.57164" lon="1.96129">
        <ele>114</ele>
        <time>2022-03-27T13:39:25Z</time>
      </trkpt>
      <trkpt lat="48.57167" lon="1.96129">
        <ele>114</ele>
        <time>2022-03-27T13:39:27Z</time>
      </trkpt>
      <trkpt lat="48.5717" lon="1.96129">
        <ele>114</ele>
        <time>2022-03-27T13:39:29Z</time>
      </trkpt>
      <trkpt lat="48.57173" lon="1.96129">
        <ele>114</ele>
        <time>2022-03-27T13:39:31Z</time>
      </trkpt>
      <trkpt lat="48.57176" lon="1.96129">
        <ele>113</ele>
        <time>2022-03-27T13:39:33Z</time>
      </trkpt>
      <trkpt lat="48.57179" lon="1.96129">
        <ele>113</ele>
        <time>2022-03-27T13:39:35Z</time>
      </trkpt>
      <trkpt lat="48.57182" lon="1.96129">
        <ele>113</ele>
        <time>2022-03-27T13:39:37Z</time>
      </trkpt>
      <trkpt lat="48.57185" lon="1.96129">
        <ele>113</ele>
        <time>2022-03-27T13:39:39Z</time>
      </trkpt>
      <trkpt lat="48.57188" lon="1.9613">
        <ele>113</ele>
        <time>2022-03-27T13:39:41Z</time>
      </trkpt>
      <trkpt lat="48.57191" lon="1.96129">
        <ele>113</ele>
        <time>2022-03-27T13:39:43Z</time>
      </trkpt>
      <trkpt lat="48.57194" lon="1.96129">
        <ele>113</ele>
        <time>2022-03-27T13:39:45Z</time>
      </trkpt>
      <trkpt lat="48.57196" lon="1.96129">
        <ele>113</ele>
        <time>2022-03-27T13:39:47Z</time>
      </trkpt>
      <trkpt lat="48.57199" lon="1.96128">
        <ele>113</ele>
        <time>2022-03-27T13:39:49Z</time>
      </trkpt>
      <trkpt lat="48.57202" lon="1.96128">
        <ele>112</ele>
        <time>2022-03-27T13:39:51Z</time>
      </trkpt>
      <trkpt lat="48.57205" lon="1.96127">
        <ele>112</ele>
        <time>2022-03-27T13:39:53Z</time>
      </trkpt>
      <trkpt lat="48.57207" lon="1.96127">
        <ele>112</ele>
        <time>2022-03-27T13:39:55Z</time>
      </trkpt>
      <trkpt lat="48.5721" lon="1.96126">
        <ele>112</ele>
        <time>2022-03-27T13:39:57Z</time>
      </trkpt>
      <trkpt lat="48.57213" lon="1.96125">
        <ele>112</ele>
        <time>2022-03-27T13:39:59Z</time>
      </trkpt>
      <trkpt lat="48.57216" lon="1.96125">
        <ele>112</ele>
        <time>2022-03-27T13:40:01Z</time>
      </trkpt>
      <trkpt lat="48.57219" lon="1.96125">
        <ele>111</ele>
        <time>2022-03-27T13:40:03Z</time>
      </trkpt>
      <trkpt lat="48.57222" lon="1.96125">
        <ele>111</ele>
        <time>2022-03-27T13:40:05Z</time>
      </trkpt>
      <trkpt lat="48.57225" lon="1.96125">
        <ele>111</ele>
        <time>2022-03-27T13:40:07Z</time>
      </trkpt>
      <trkpt lat="48.57228" lon="1.96124">
        <ele>111</ele>
        <time>2022-03-27T13:40:09Z</time>
      </trkpt>
      <trkpt lat="48.57231" lon="1.96124">
        <ele>111</ele>
        <time>2022-03-27T13:40:11Z</time>
      </trkpt>
      <trkpt lat="48.57234" lon="1.96123">
        <ele>111</ele>
        <time>2022-03-27T13:40:13Z</time>
      </trkpt>
      <trkpt lat="48.57237" lon="1.96122">
        <ele>111</ele>
        <time>2022-03-27T13:40:15Z</time>
      </trkpt>
      <trkpt lat="48.5724" lon="1.96122">
        <ele>111</ele>
        <time>2022-03-27T13:40:17Z</time>
      </trkpt>
      <trkpt lat="48.57243" lon="1.96122">
        <ele>111</ele>
        <time>2022-03-27T13:40:19Z</time>
      </trkpt>
      <trkpt lat="48.57246" lon="1.9612">
        <ele>110</ele>
        <time>2022-03-27T13:40:21Z</time>
      </trkpt>
      <trkpt lat="48.57249" lon="1.9612">
        <ele>111</ele>
        <time>2022-03-27T13:40:23Z</time>
      </trkpt>
      <trkpt lat="48.57252" lon="1.9612">
        <ele>111</ele>
        <time>2022-03-27T13:40:25Z</time>
      </trkpt>
      <trkpt lat="48.57255" lon="1.96121">
        <ele>111</ele>
        <time>2022-03-27T13:40:27Z</time>
      </trkpt>
      <trkpt lat="48.57258" lon="1.96123">
        <ele>111</ele>
        <time>2022-03-27T13:40:29Z</time>
      </trkpt>
      <trkpt lat="48.57261" lon="1.96126">
        <ele>111</ele>
        <time>2022-03-27T13:40:31Z</time>
      </trkpt>
      <trkpt lat="48.57263" lon="1.96129">
        <ele>111</ele>
        <time>2022-03-27T13:40:33Z</time>
      </trkpt>
      <trkpt lat="48.57266" lon="1.96133">
        <ele>111</ele>
        <time>2022-03-27T13:40:35Z</time>
      </trkpt>
      <trkpt lat="48.57268" lon="1.96137">
        <ele>111</ele>
        <time>2022-03-27T13:40:37Z</time>
      </trkpt>
      <trkpt lat="48.57269" lon="1.96141">
        <ele>110</ele>
        <time>2022-03-27T13:40:39Z</time>
      </trkpt>
      <trkpt lat="48.57271" lon="1.96146">
        <ele>110</ele>
        <time>2022-03-27T13:40:41Z</time>
      </trkpt>
      <trkpt lat="48.57272" lon="1.96148">
        <ele>110</ele>
        <time>2022-03-27T13:40:42Z</time>
      </trkpt>
      <trkpt lat="48.57273" lon="1.96153">
        <ele>109</ele>
        <time>2022-03-27T13:40:44Z</time>
      </trkpt>
      <trkpt lat="48.57275" lon="1.96158">
        <ele>109</ele>
        <time>2022-03-27T13:40:46Z</time>
      </trkpt>
      <trkpt lat="48.57276" lon="1.96162">
        <ele>109</ele>
        <time>2022-03-27T13:40:48Z</time>
      </trkpt>
      <trkpt lat="48.57277" lon="1.96167">
        <ele>108</ele>
        <time>2022-03-27T13:40:50Z</time>
      </trkpt>
      <trkpt lat="48.57277" lon="1.96172">
        <ele>108</ele>
        <time>2022-03-27T13:40:52Z</time>
      </trkpt>
      <trkpt lat="48.57278" lon="1.96177">
        <ele>108</ele>
        <time>2022-03-27T13:40:54Z</time>
      </trkpt>
      <trkpt lat="48.57279" lon="1.96181">
        <ele>108</ele>
        <time>2022-03-27T13:40:56Z</time>
      </trkpt>
      <trkpt lat="48.5728" lon="1.96186">
        <ele>108</ele>
        <time>2022-03-27T13:40:58Z</time>
      </trkpt>
      <trkpt lat="48.57281" lon="1.96191">
        <ele>108</ele>
        <time>2022-03-27T13:41:00Z</time>
      </trkpt>
      <trkpt lat="48.57281" lon="1.96196">
        <ele>108</ele>
        <time>2022-03-27T13:41:02Z</time>
      </trkpt>
      <trkpt lat="48.57281" lon="1.96201">
        <ele>108</ele>
        <time>2022-03-27T13:41:03Z</time>
      </trkpt>
      <trkpt lat="48.57282" lon="1.96205">
        <ele>108</ele>
        <time>2022-03-27T13:41:06Z</time>
      </trkpt>
      <trkpt lat="48.57282" lon="1.9621">
        <ele>108</ele>
        <time>2022-03-27T13:41:08Z</time>
      </trkpt>
      <trkpt lat="48.57283" lon="1.96215">
        <ele>108</ele>
        <time>2022-03-27T13:41:10Z</time>
      </trkpt>
      <trkpt lat="48.57283" lon="1.9622">
        <ele>108</ele>
        <time>2022-03-27T13:41:12Z</time>
      </trkpt>
      <trkpt lat="48.57283" lon="1.96225">
        <ele>107</ele>
        <time>2022-03-27T13:41:14Z</time>
      </trkpt>
      <trkpt lat="48.57283" lon="1.9623">
        <ele>107</ele>
        <time>2022-03-27T13:41:16Z</time>
      </trkpt>
      <trkpt lat="48.57284" lon="1.96234">
        <ele>107</ele>
        <time>2022-03-27T13:41:18Z</time>
      </trkpt>
      <trkpt lat="48.57284" lon="1.96239">
        <ele>107</ele>
        <time>2022-03-27T13:41:20Z</time>
      </trkpt>
      <trkpt lat="48.57284" lon="1.96242">
        <ele>107</ele>
        <time>2022-03-27T13:41:21Z</time>
      </trkpt>
      <trkpt lat="48.57285" lon="1.96247">
        <ele>107</ele>
        <time>2022-03-27T13:41:23Z</time>
      </trkpt>
      <trkpt lat="48.57285" lon="1.96249">
        <ele>107</ele>
        <time>2022-03-27T13:41:24Z</time>
      </trkpt>
      <trkpt lat="48.57285" lon="1.96252">
        <ele>107</ele>
        <time>2022-03-27T13:41:25Z</time>
      </trkpt>
      <trkpt lat="48.57286" lon="1.96257">
        <ele>107</ele>
        <time>2022-03-27T13:41:27Z</time>
      </trkpt>
      <trkpt lat="48.57287" lon="1.96263">
        <ele>107</ele>
        <time>2022-03-27T13:41:29Z</time>
      </trkpt>
      <trkpt lat="48.57287" lon="1.96265">
        <ele>107</ele>
        <time>2022-03-27T13:41:30Z</time>
      </trkpt>
      <trkpt lat="48.57287" lon="1.96268">
        <ele>107</ele>
        <time>2022-03-27T13:41:31Z</time>
      </trkpt>
      <trkpt lat="48.57287" lon="1.96271">
        <ele>107</ele>
        <time>2022-03-27T13:41:32Z</time>
      </trkpt>
      <trkpt lat="48.57287" lon="1.96274">
        <ele>107</ele>
        <time>2022-03-27T13:41:33Z</time>
      </trkpt>
      <trkpt lat="48.57288" lon="1.96279">
        <ele>107</ele>
        <time>2022-03-27T13:41:35Z</time>
      </trkpt>
      <trkpt lat="48.57289" lon="1.96284">
        <ele>107</ele>
        <time>2022-03-27T13:41:37Z</time>
      </trkpt>
      <trkpt lat="48.5729" lon="1.96289">
        <ele>107</ele>
        <time>2022-03-27T13:41:39Z</time>
      </trkpt>
      <trkpt lat="48.57291" lon="1.96294">
        <ele>107</ele>
        <time>2022-03-27T13:41:41Z</time>
      </trkpt>
      <trkpt lat="48.57292" lon="1.96299">
        <ele>107</ele>
        <time>2022-03-27T13:41:43Z</time>
      </trkpt>
      <trkpt lat="48.57293" lon="1.96304">
        <ele>106</ele>
        <time>2022-03-27T13:41:45Z</time>
      </trkpt>
      <trkpt lat="48.57294" lon="1.96309">
        <ele>106</ele>
        <time>2022-03-27T13:41:47Z</time>
      </trkpt>
      <trkpt lat="48.57295" lon="1.96313">
        <ele>106</ele>
        <time>2022-03-27T13:41:49Z</time>
      </trkpt>
      <trkpt lat="48.57297" lon="1.96317">
        <ele>106</ele>
        <time>2022-03-27T13:41:51Z</time>
      </trkpt>
      <trkpt lat="48.57298" lon="1.96321">
        <ele>106</ele>
        <time>2022-03-27T13:41:53Z</time>
      </trkpt>
      <trkpt lat="48.57299" lon="1.96325">
        <ele>106</ele>
        <time>2022-03-27T13:41:55Z</time>
      </trkpt>
      <trkpt lat="48.573" lon="1.9633">
        <ele>106</ele>
        <time>2022-03-27T13:41:57Z</time>
      </trkpt>
      <trkpt lat="48.57301" lon="1.96334">
        <ele>106</ele>
        <time>2022-03-27T13:41:59Z</time>
      </trkpt>
      <trkpt lat="48.57302" lon="1.96338">
        <ele>106</ele>
        <time>2022-03-27T13:42:01Z</time>
      </trkpt>
      <trkpt lat="48.57303" lon="1.96342">
        <ele>106</ele>
        <time>2022-03-27T13:42:03Z</time>
      </trkpt>
      <trkpt lat="48.57304" lon="1.96346">
        <ele>106</ele>
        <time>2022-03-27T13:42:05Z</time>
      </trkpt>
      <trkpt lat="48.57305" lon="1.96351">
        <ele>106</ele>
        <time>2022-03-27T13:42:07Z</time>
      </trkpt>
      <trkpt lat="48.57306" lon="1.96355">
        <ele>106</ele>
        <time>2022-03-27T13:42:09Z</time>
      </trkpt>
      <trkpt lat="48.57307" lon="1.96359">
        <ele>106</ele>
        <time>2022-03-27T13:42:11Z</time>
      </trkpt>
      <trkpt lat="48.57307" lon="1.96363">
        <ele>106</ele>
        <time>2022-03-27T13:42:13Z</time>
      </trkpt>
      <trkpt lat="48.57308" lon="1.96367">
        <ele>106</ele>
        <time>2022-03-27T13:42:15Z</time>
      </trkpt>
      <trkpt lat="48.57309" lon="1.96371">
        <ele>106</ele>
        <time>2022-03-27T13:42:17Z</time>
      </trkpt>
      <trkpt lat="48.57311" lon="1.96375">
        <ele>106</ele>
        <time>2022-03-27T13:42:19Z</time>
      </trkpt>
      <trkpt lat="48.57312" lon="1.96379">
        <ele>106</ele>
        <time>2022-03-27T13:42:21Z</time>
      </trkpt>
      <trkpt lat="48.57313" lon="1.96383">
        <ele>105</ele>
        <time>2022-03-27T13:42:23Z</time>
      </trkpt>
      <trkpt lat="48.57314" lon="1.96387">
        <ele>105</ele>
        <time>2022-03-27T13:42:25Z</time>
      </trkpt>
      <trkpt lat="48.57315" lon="1.96391">
        <ele>105</ele>
        <time>2022-03-27T13:42:27Z</time>
      </trkpt>
      <trkpt lat="48.57316" lon="1.96396">
        <ele>105</ele>
        <time>2022-03-27T13:42:29Z</time>
      </trkpt>
      <trkpt lat="48.57317" lon="1.964">
        <ele>104</ele>
        <time>2022-03-27T13:42:31Z</time>
      </trkpt>
      <trkpt lat="48.57318" lon="1.96404">
        <ele>104</ele>
        <time>2022-03-27T13:42:33Z</time>
      </trkpt>
      <trkpt lat="48.57319" lon="1.96408">
        <ele>104</ele>
        <time>2022-03-27T13:42:35Z</time>
      </trkpt>
      <trkpt lat="48.5732" lon="1.96412">
        <ele>104</ele>
        <time>2022-03-27T13:42:37Z</time>
      </trkpt>
      <trkpt lat="48.57321" lon="1.96416">
        <ele>104</ele>
        <time>2022-03-27T13:42:39Z</time>
      </trkpt>
      <trkpt lat="48.57323" lon="1.9642">
        <ele>104</ele>
        <time>2022-03-27T13:42:41Z</time>
      </trkpt>
      <trkpt lat="48.57324" lon="1.96424">
        <ele>104</ele>
        <time>2022-03-27T13:42:43Z</time>
      </trkpt>
      <trkpt lat="48.57326" lon="1.96428">
        <ele>104</ele>
        <time>2022-03-27T13:42:45Z</time>
      </trkpt>
      <trkpt lat="48.57327" lon="1.96432">
        <ele>104</ele>
        <time>2022-03-27T13:42:47Z</time>
      </trkpt>
      <trkpt lat="48.57328" lon="1.96436">
        <ele>104</ele>
        <time>2022-03-27T13:42:49Z</time>
      </trkpt>
      <trkpt lat="48.57329" lon="1.9644">
        <ele>103</ele>
        <time>2022-03-27T13:42:51Z</time>
      </trkpt>
      <trkpt lat="48.57331" lon="1.96445">
        <ele>103</ele>
        <time>2022-03-27T13:42:53Z</time>
      </trkpt>
      <trkpt lat="48.57333" lon="1.96449">
        <ele>103</ele>
        <time>2022-03-27T13:42:55Z</time>
      </trkpt>
      <trkpt lat="48.57335" lon="1.96453">
        <ele>103</ele>
        <time>2022-03-27T13:42:57Z</time>
      </trkpt>
      <trkpt lat="48.57337" lon="1.96456">
        <ele>102</ele>
        <time>2022-03-27T13:42:59Z</time>
      </trkpt>
      <trkpt lat="48.57339" lon="1.96459">
        <ele>102</ele>
        <time>2022-03-27T13:43:01Z</time>
      </trkpt>
      <trkpt lat="48.57342" lon="1.96462">
        <ele>102</ele>
        <time>2022-03-27T13:43:03Z</time>
      </trkpt>
      <trkpt lat="48.57344" lon="1.96464">
        <ele>102</ele>
        <time>2022-03-27T13:43:05Z</time>
      </trkpt>
      <trkpt lat="48.57347" lon="1.96465">
        <ele>102</ele>
        <time>2022-03-27T13:43:07Z</time>
      </trkpt>
      <trkpt lat="48.5735" lon="1.96466">
        <ele>102</ele>
        <time>2022-03-27T13:43:09Z</time>
      </trkpt>
      <trkpt lat="48.57353" lon="1.96467">
        <ele>102</ele>
        <time>2022-03-27T13:43:11Z</time>
      </trkpt>
      <trkpt lat="48.57356" lon="1.96468">
        <ele>102</ele>
        <time>2022-03-27T13:43:13Z</time>
      </trkpt>
      <trkpt lat="48.57359" lon="1.96468">
        <ele>101</ele>
        <time>2022-03-27T13:43:15Z</time>
      </trkpt>
      <trkpt lat="48.57362" lon="1.96468">
        <ele>102</ele>
        <time>2022-03-27T13:43:17Z</time>
      </trkpt>
      <trkpt lat="48.57365" lon="1.96468">
        <ele>102</ele>
        <time>2022-03-27T13:43:19Z</time>
      </trkpt>
      <trkpt lat="48.57367" lon="1.96468">
        <ele>102</ele>
        <time>2022-03-27T13:43:21Z</time>
      </trkpt>
      <trkpt lat="48.5737" lon="1.96467">
        <ele>102</ele>
        <time>2022-03-27T13:43:23Z</time>
      </trkpt>
      <trkpt lat="48.57372" lon="1.96467">
        <ele>102</ele>
        <time>2022-03-27T13:43:25Z</time>
      </trkpt>
      <trkpt lat="48.57374" lon="1.96466">
        <ele>102</ele>
        <time>2022-03-27T13:43:27Z</time>
      </trkpt>
      <trkpt lat="48.57376" lon="1.96464">
        <ele>102</ele>
        <time>2022-03-27T13:43:30Z</time>
      </trkpt>
      <trkpt lat="48.57379" lon="1.96463">
        <ele>102</ele>
        <time>2022-03-27T13:43:32Z</time>
      </trkpt>
      <trkpt lat="48.57382" lon="1.96463">
        <ele>102</ele>
        <time>2022-03-27T13:43:34Z</time>
      </trkpt>
      <trkpt lat="48.57385" lon="1.96462">
        <ele>103</ele>
        <time>2022-03-27T13:43:36Z</time>
      </trkpt>
      <trkpt lat="48.57388" lon="1.96461">
        <ele>103</ele>
        <time>2022-03-27T13:43:38Z</time>
      </trkpt>
      <trkpt lat="48.5739" lon="1.9646">
        <ele>103</ele>
        <time>2022-03-27T13:43:40Z</time>
      </trkpt>
      <trkpt lat="48.57393" lon="1.9646">
        <ele>103</ele>
        <time>2022-03-27T13:43:42Z</time>
      </trkpt>
      <trkpt lat="48.57396" lon="1.96459">
        <ele>103</ele>
        <time>2022-03-27T13:43:44Z</time>
      </trkpt>
      <trkpt lat="48.57398" lon="1.96458">
        <ele>103</ele>
        <time>2022-03-27T13:43:46Z</time>
      </trkpt>
      <trkpt lat="48.57401" lon="1.96458">
        <ele>103</ele>
        <time>2022-03-27T13:43:48Z</time>
      </trkpt>
      <trkpt lat="48.57404" lon="1.96457">
        <ele>104</ele>
        <time>2022-03-27T13:43:50Z</time>
      </trkpt>
      <trkpt lat="48.57407" lon="1.96455">
        <ele>104</ele>
        <time>2022-03-27T13:43:52Z</time>
      </trkpt>
      <trkpt lat="48.5741" lon="1.96454">
        <ele>104</ele>
        <time>2022-03-27T13:43:54Z</time>
      </trkpt>
      <trkpt lat="48.57412" lon="1.96452">
        <ele>104</ele>
        <time>2022-03-27T13:43:56Z</time>
      </trkpt>
      <trkpt lat="48.57415" lon="1.9645">
        <ele>104</ele>
        <time>2022-03-27T13:43:58Z</time>
      </trkpt>
      <trkpt lat="48.57418" lon="1.96449">
        <ele>104</ele>
        <time>2022-03-27T13:44:00Z</time>
      </trkpt>
      <trkpt lat="48.57421" lon="1.96446">
        <ele>104</ele>
        <time>2022-03-27T13:44:02Z</time>
      </trkpt>
      <trkpt lat="48.57424" lon="1.96444">
        <ele>103</ele>
        <time>2022-03-27T13:44:04Z</time>
      </trkpt>
      <trkpt lat="48.57429" lon="1.96438">
        <ele>103</ele>
        <time>2022-03-27T13:44:08Z</time>
      </trkpt>
      <trkpt lat="48.57432" lon="1.96437">
        <ele>103</ele>
        <time>2022-03-27T13:44:10Z</time>
      </trkpt>
      <trkpt lat="48.57434" lon="1.96435">
        <ele>103</ele>
        <time>2022-03-27T13:44:12Z</time>
      </trkpt>
      <trkpt lat="48.57437" lon="1.96434">
        <ele>103</ele>
        <time>2022-03-27T13:44:14Z</time>
      </trkpt>
      <trkpt lat="48.57438" lon="1.96432">
        <ele>104</ele>
        <time>2022-03-27T13:44:16Z</time>
      </trkpt>
      <trkpt lat="48.5744" lon="1.9643">
        <ele>104</ele>
        <time>2022-03-27T13:44:18Z</time>
      </trkpt>
      <trkpt lat="48.57443" lon="1.96428">
        <ele>104</ele>
        <time>2022-03-27T13:44:20Z</time>
      </trkpt>
      <trkpt lat="48.57445" lon="1.96426">
        <ele>103</ele>
        <time>2022-03-27T13:44:22Z</time>
      </trkpt>
      <trkpt lat="48.57447" lon="1.96424">
        <ele>103</ele>
        <time>2022-03-27T13:44:24Z</time>
      </trkpt>
      <trkpt lat="48.57449" lon="1.96422">
        <ele>104</ele>
        <time>2022-03-27T13:44:26Z</time>
      </trkpt>
      <trkpt lat="48.57451" lon="1.96419">
        <ele>104</ele>
        <time>2022-03-27T13:44:28Z</time>
      </trkpt>
      <trkpt lat="48.57453" lon="1.96417">
        <ele>104</ele>
        <time>2022-03-27T13:44:30Z</time>
      </trkpt>
      <trkpt lat="48.57455" lon="1.96414">
        <ele>103</ele>
        <time>2022-03-27T13:44:32Z</time>
      </trkpt>
      <trkpt lat="48.57457" lon="1.96412">
        <ele>103</ele>
        <time>2022-03-27T13:44:34Z</time>
      </trkpt>
      <trkpt lat="48.57459" lon="1.96409">
        <ele>103</ele>
        <time>2022-03-27T13:44:36Z</time>
      </trkpt>
      <trkpt lat="48.57461" lon="1.96407">
        <ele>103</ele>
        <time>2022-03-27T13:44:38Z</time>
      </trkpt>
      <trkpt lat="48.57464" lon="1.96404">
        <ele>103</ele>
        <time>2022-03-27T13:44:40Z</time>
      </trkpt>
      <trkpt lat="48.57466" lon="1.96402">
        <ele>103</ele>
        <time>2022-03-27T13:44:42Z</time>
      </trkpt>
      <trkpt lat="48.57469" lon="1.96401">
        <ele>103</ele>
        <time>2022-03-27T13:44:44Z</time>
      </trkpt>
      <trkpt lat="48.57471" lon="1.96401">
        <ele>103</ele>
        <time>2022-03-27T13:44:46Z</time>
      </trkpt>
      <trkpt lat="48.57474" lon="1.96404">
        <ele>103</ele>
        <time>2022-03-27T13:44:48Z</time>
      </trkpt>
      <trkpt lat="48.57476" lon="1.96405">
        <ele>103</ele>
        <time>2022-03-27T13:44:49Z</time>
      </trkpt>
      <trkpt lat="48.57478" lon="1.9641">
        <ele>103</ele>
        <time>2022-03-27T13:44:51Z</time>
      </trkpt>
      <trkpt lat="48.57479" lon="1.96412">
        <ele>103</ele>
        <time>2022-03-27T13:44:52Z</time>
      </trkpt>
      <trkpt lat="48.57479" lon="1.96415">
        <ele>103</ele>
        <time>2022-03-27T13:44:53Z</time>
      </trkpt>
      <trkpt lat="48.5748" lon="1.96418">
        <ele>103</ele>
        <time>2022-03-27T13:44:54Z</time>
      </trkpt>
      <trkpt lat="48.57481" lon="1.96423">
        <ele>102</ele>
        <time>2022-03-27T13:44:56Z</time>
      </trkpt>
      <trkpt lat="48.57482" lon="1.96428">
        <ele>102</ele>
        <time>2022-03-27T13:44:58Z</time>
      </trkpt>
      <trkpt lat="48.57483" lon="1.96432">
        <ele>101</ele>
        <time>2022-03-27T13:45:00Z</time>
      </trkpt>
      <trkpt lat="48.57483" lon="1.96437">
        <ele>101</ele>
        <time>2022-03-27T13:45:02Z</time>
      </trkpt>
      <trkpt lat="48.57484" lon="1.96442">
        <ele>101</ele>
        <time>2022-03-27T13:45:04Z</time>
      </trkpt>
      <trkpt lat="48.57485" lon="1.96446">
        <ele>101</ele>
        <time>2022-03-27T13:45:06Z</time>
      </trkpt>
      <trkpt lat="48.57487" lon="1.96451">
        <ele>101</ele>
        <time>2022-03-27T13:45:08Z</time>
      </trkpt>
      <trkpt lat="48.57488" lon="1.96455">
        <ele>101</ele>
        <time>2022-03-27T13:45:10Z</time>
      </trkpt>
      <trkpt lat="48.57489" lon="1.96459">
        <ele>101</ele>
        <time>2022-03-27T13:45:12Z</time>
      </trkpt>
      <trkpt lat="48.57491" lon="1.96463">
        <ele>101</ele>
        <time>2022-03-27T13:45:14Z</time>
      </trkpt>
      <trkpt lat="48.57492" lon="1.96467">
        <ele>101</ele>
        <time>2022-03-27T13:45:16Z</time>
      </trkpt>
      <trkpt lat="48.57494" lon="1.96471">
        <ele>101</ele>
        <time>2022-03-27T13:45:18Z</time>
      </trkpt>
      <trkpt lat="48.57496" lon="1.96475">
        <ele>101</ele>
        <time>2022-03-27T13:45:20Z</time>
      </trkpt>
      <trkpt lat="48.57497" lon="1.96478">
        <ele>101</ele>
        <time>2022-03-27T13:45:22Z</time>
      </trkpt>
      <trkpt lat="48.57499" lon="1.96482">
        <ele>101</ele>
        <time>2022-03-27T13:45:24Z</time>
      </trkpt>
      <trkpt lat="48.575" lon="1.96486">
        <ele>101</ele>
        <time>2022-03-27T13:45:26Z</time>
      </trkpt>
      <trkpt lat="48.57502" lon="1.96491">
        <ele>101</ele>
        <time>2022-03-27T13:45:28Z</time>
      </trkpt>
      <trkpt lat="48.57504" lon="1.96495">
        <ele>101</ele>
        <time>2022-03-27T13:45:30Z</time>
      </trkpt>
      <trkpt lat="48.57505" lon="1.96499">
        <ele>100</ele>
        <time>2022-03-27T13:45:32Z</time>
      </trkpt>
      <trkpt lat="48.57507" lon="1.96503">
        <ele>100</ele>
        <time>2022-03-27T13:45:34Z</time>
      </trkpt>
      <trkpt lat="48.57508" lon="1.96507">
        <ele>101</ele>
        <time>2022-03-27T13:45:36Z</time>
      </trkpt>
      <trkpt lat="48.57509" lon="1.9651">
        <ele>101</ele>
        <time>2022-03-27T13:45:38Z</time>
      </trkpt>
      <trkpt lat="48.57511" lon="1.96514">
        <ele>101</ele>
        <time>2022-03-27T13:45:40Z</time>
      </trkpt>
      <trkpt lat="48.57512" lon="1.96518">
        <ele>101</ele>
        <time>2022-03-27T13:45:42Z</time>
      </trkpt>
      <trkpt lat="48.57514" lon="1.96521">
        <ele>101</ele>
        <time>2022-03-27T13:45:44Z</time>
      </trkpt>
      <trkpt lat="48.57515" lon="1.96525">
        <ele>101</ele>
        <time>2022-03-27T13:45:46Z</time>
      </trkpt>
      <trkpt lat="48.57516" lon="1.96529">
        <ele>101</ele>
        <time>2022-03-27T13:45:48Z</time>
      </trkpt>
      <trkpt lat="48.57518" lon="1.96533">
        <ele>101</ele>
        <time>2022-03-27T13:45:50Z</time>
      </trkpt>
      <trkpt lat="48.57519" lon="1.96537">
        <ele>101</ele>
        <time>2022-03-27T13:45:52Z</time>
      </trkpt>
      <trkpt lat="48.5752" lon="1.9654">
        <ele>101</ele>
        <time>2022-03-27T13:45:54Z</time>
      </trkpt>
      <trkpt lat="48.57522" lon="1.96544">
        <ele>101</ele>
        <time>2022-03-27T13:45:56Z</time>
      </trkpt>
      <trkpt lat="48.57523" lon="1.96548">
        <ele>101</ele>
        <time>2022-03-27T13:45:58Z</time>
      </trkpt>
      <trkpt lat="48.57524" lon="1.96552">
        <ele>101</ele>
        <time>2022-03-27T13:46:00Z</time>
      </trkpt>
      <trkpt lat="48.57526" lon="1.96556">
        <ele>101</ele>
        <time>2022-03-27T13:46:02Z</time>
      </trkpt>
      <trkpt lat="48.57527" lon="1.9656">
        <ele>101</ele>
        <time>2022-03-27T13:46:04Z</time>
      </trkpt>
      <trkpt lat="48.57529" lon="1.96563">
        <ele>101</ele>
        <time>2022-03-27T13:46:06Z</time>
      </trkpt>
      <trkpt lat="48.5753" lon="1.96568">
        <ele>101</ele>
        <time>2022-03-27T13:46:08Z</time>
      </trkpt>
      <trkpt lat="48.57532" lon="1.96572">
        <ele>101</ele>
        <time>2022-03-27T13:46:10Z</time>
      </trkpt>
      <trkpt lat="48.57533" lon="1.96576">
        <ele>101</ele>
        <time>2022-03-27T13:46:12Z</time>
      </trkpt>
      <trkpt lat="48.57535" lon="1.9658">
        <ele>101</ele>
        <time>2022-03-27T13:46:14Z</time>
      </trkpt>
      <trkpt lat="48.57536" lon="1.96584">
        <ele>101</ele>
        <time>2022-03-27T13:46:16Z</time>
      </trkpt>
      <trkpt lat="48.57537" lon="1.96588">
        <ele>101</ele>
        <time>2022-03-27T13:46:18Z</time>
      </trkpt>
      <trkpt lat="48.57538" lon="1.96593">
        <ele>101</ele>
        <time>2022-03-27T13:46:20Z</time>
      </trkpt>
      <trkpt lat="48.57539" lon="1.96597">
        <ele>101</ele>
        <time>2022-03-27T13:46:22Z</time>
      </trkpt>
      <trkpt lat="48.5754" lon="1.96602">
        <ele>101</ele>
        <time>2022-03-27T13:46:24Z</time>
      </trkpt>
      <trkpt lat="48.57541" lon="1.96606">
        <ele>101</ele>
        <time>2022-03-27T13:46:26Z</time>
      </trkpt>
      <trkpt lat="48.57543" lon="1.96609">
        <ele>102</ele>
        <time>2022-03-27T13:46:28Z</time>
      </trkpt>
      <trkpt lat="48.57545" lon="1.96612">
        <ele>102</ele>
        <time>2022-03-27T13:46:30Z</time>
      </trkpt>
      <trkpt lat="48.57548" lon="1.96613">
        <ele>102</ele>
        <time>2022-03-27T13:46:32Z</time>
      </trkpt>
      <trkpt lat="48.5755" lon="1.96614">
        <ele>102</ele>
        <time>2022-03-27T13:46:34Z</time>
      </trkpt>
      <trkpt lat="48.57553" lon="1.96614">
        <ele>102</ele>
        <time>2022-03-27T13:46:36Z</time>
      </trkpt>
      <trkpt lat="48.57555" lon="1.96614">
        <ele>102</ele>
        <time>2022-03-27T13:46:38Z</time>
      </trkpt>
      <trkpt lat="48.57558" lon="1.96614">
        <ele>102</ele>
        <time>2022-03-27T13:46:40Z</time>
      </trkpt>
      <trkpt lat="48.57561" lon="1.96613">
        <ele>102</ele>
        <time>2022-03-27T13:46:42Z</time>
      </trkpt>
      <trkpt lat="48.57564" lon="1.96612">
        <ele>102</ele>
        <time>2022-03-27T13:46:44Z</time>
      </trkpt>
      <trkpt lat="48.57567" lon="1.96611">
        <ele>102</ele>
        <time>2022-03-27T13:46:46Z</time>
      </trkpt>
      <trkpt lat="48.5757" lon="1.96611">
        <ele>102</ele>
        <time>2022-03-27T13:46:48Z</time>
      </trkpt>
      <trkpt lat="48.57573" lon="1.9661">
        <ele>103</ele>
        <time>2022-03-27T13:46:50Z</time>
      </trkpt>
      <trkpt lat="48.57576" lon="1.96609">
        <ele>103</ele>
        <time>2022-03-27T13:46:52Z</time>
      </trkpt>
      <trkpt lat="48.57579" lon="1.96608">
        <ele>103</ele>
        <time>2022-03-27T13:46:54Z</time>
      </trkpt>
      <trkpt lat="48.57582" lon="1.96607">
        <ele>103</ele>
        <time>2022-03-27T13:46:56Z</time>
      </trkpt>
      <trkpt lat="48.57585" lon="1.96606">
        <ele>103</ele>
        <time>2022-03-27T13:46:58Z</time>
      </trkpt>
      <trkpt lat="48.57588" lon="1.96606">
        <ele>103</ele>
        <time>2022-03-27T13:47:00Z</time>
      </trkpt>
      <trkpt lat="48.57591" lon="1.96605">
        <ele>104</ele>
        <time>2022-03-27T13:47:02Z</time>
      </trkpt>
      <trkpt lat="48.57593" lon="1.96605">
        <ele>104</ele>
        <time>2022-03-27T13:47:04Z</time>
      </trkpt>
      <trkpt lat="48.57596" lon="1.96604">
        <ele>104</ele>
        <time>2022-03-27T13:47:06Z</time>
      </trkpt>
      <trkpt lat="48.57599" lon="1.96604">
        <ele>104</ele>
        <time>2022-03-27T13:47:08Z</time>
      </trkpt>
      <trkpt lat="48.57602" lon="1.96603">
        <ele>104</ele>
        <time>2022-03-27T13:47:10Z</time>
      </trkpt>
      <trkpt lat="48.57604" lon="1.96603">
        <ele>104</ele>
        <time>2022-03-27T13:47:12Z</time>
      </trkpt>
      <trkpt lat="48.57607" lon="1.96602">
        <ele>105</ele>
        <time>2022-03-27T13:47:14Z</time>
      </trkpt>
      <trkpt lat="48.5761" lon="1.96602">
        <ele>105</ele>
        <time>2022-03-27T13:47:16Z</time>
      </trkpt>
      <trkpt lat="48.57612" lon="1.96601">
        <ele>105</ele>
        <time>2022-03-27T13:47:18Z</time>
      </trkpt>
      <trkpt lat="48.57615" lon="1.96601">
        <ele>105</ele>
        <time>2022-03-27T13:47:20Z</time>
      </trkpt>
      <trkpt lat="48.57617" lon="1.96603">
        <ele>105</ele>
        <time>2022-03-27T13:47:22Z</time>
      </trkpt>
      <trkpt lat="48.57618" lon="1.96606">
        <ele>105</ele>
        <time>2022-03-27T13:47:24Z</time>
      </trkpt>
      <trkpt lat="48.57619" lon="1.96611">
        <ele>105</ele>
        <time>2022-03-27T13:47:26Z</time>
      </trkpt>
      <trkpt lat="48.5762" lon="1.96615">
        <ele>105</ele>
        <time>2022-03-27T13:47:28Z</time>
      </trkpt>
      <trkpt lat="48.57621" lon="1.96619">
        <ele>105</ele>
        <time>2022-03-27T13:47:30Z</time>
      </trkpt>
      <trkpt lat="48.57622" lon="1.96623">
        <ele>105</ele>
        <time>2022-03-27T13:47:32Z</time>
      </trkpt>
      <trkpt lat="48.57624" lon="1.96627">
        <ele>105</ele>
        <time>2022-03-27T13:47:34Z</time>
      </trkpt>
      <trkpt lat="48.57625" lon="1.96631">
        <ele>105</ele>
        <time>2022-03-27T13:47:36Z</time>
      </trkpt>
      <trkpt lat="48.57626" lon="1.96635">
        <ele>105</ele>
        <time>2022-03-27T13:47:38Z</time>
      </trkpt>
      <trkpt lat="48.57627" lon="1.96639">
        <ele>105</ele>
        <time>2022-03-27T13:47:40Z</time>
      </trkpt>
      <trkpt lat="48.57628" lon="1.96644">
        <ele>105</ele>
        <time>2022-03-27T13:47:42Z</time>
      </trkpt>
      <trkpt lat="48.57629" lon="1.96648">
        <ele>105</ele>
        <time>2022-03-27T13:47:44Z</time>
      </trkpt>
      <trkpt lat="48.57629" lon="1.96653">
        <ele>105</ele>
        <time>2022-03-27T13:47:46Z</time>
      </trkpt>
      <trkpt lat="48.5763" lon="1.96657">
        <ele>105</ele>
        <time>2022-03-27T13:47:48Z</time>
      </trkpt>
      <trkpt lat="48.57631" lon="1.96662">
        <ele>105</ele>
        <time>2022-03-27T13:47:50Z</time>
      </trkpt>
      <trkpt lat="48.57631" lon="1.96667">
        <ele>105</ele>
        <time>2022-03-27T13:47:52Z</time>
      </trkpt>
      <trkpt lat="48.57632" lon="1.96672">
        <ele>105</ele>
        <time>2022-03-27T13:47:54Z</time>
      </trkpt>
      <trkpt lat="48.57632" lon="1.96676">
        <ele>105</ele>
        <time>2022-03-27T13:47:56Z</time>
      </trkpt>
      <trkpt lat="48.57633" lon="1.96681">
        <ele>105</ele>
        <time>2022-03-27T13:47:58Z</time>
      </trkpt>
      <trkpt lat="48.57633" lon="1.96686">
        <ele>105</ele>
        <time>2022-03-27T13:48:00Z</time>
      </trkpt>
      <trkpt lat="48.57634" lon="1.96691">
        <ele>105</ele>
        <time>2022-03-27T13:48:02Z</time>
      </trkpt>
      <trkpt lat="48.57634" lon="1.96695">
        <ele>105</ele>
        <time>2022-03-27T13:48:04Z</time>
      </trkpt>
      <trkpt lat="48.57634" lon="1.967">
        <ele>105</ele>
        <time>2022-03-27T13:48:06Z</time>
      </trkpt>
      <trkpt lat="48.57634" lon="1.96704">
        <ele>105</ele>
        <time>2022-03-27T13:48:08Z</time>
      </trkpt>
      <trkpt lat="48.57635" lon="1.96709">
        <ele>105</ele>
        <time>2022-03-27T13:48:10Z</time>
      </trkpt>
      <trkpt lat="48.57635" lon="1.96714">
        <ele>105</ele>
        <time>2022-03-27T13:48:12Z</time>
      </trkpt>
      <trkpt lat="48.57636" lon="1.96719">
        <ele>105</ele>
        <time>2022-03-27T13:48:14Z</time>
      </trkpt>
      <trkpt lat="48.57636" lon="1.96722">
        <ele>105</ele>
        <time>2022-03-27T13:48:15Z</time>
      </trkpt>
      <trkpt lat="48.57636" lon="1.96725">
        <ele>105</ele>
        <time>2022-03-27T13:48:16Z</time>
      </trkpt>
      <trkpt lat="48.57636" lon="1.9673">
        <ele>105</ele>
        <time>2022-03-27T13:48:18Z</time>
      </trkpt>
      <trkpt lat="48.57636" lon="1.96735">
        <ele>104</ele>
        <time>2022-03-27T13:48:20Z</time>
      </trkpt>
      <trkpt lat="48.57637" lon="1.9674">
        <ele>104</ele>
        <time>2022-03-27T13:48:22Z</time>
      </trkpt>
      <trkpt lat="48.57637" lon="1.96745">
        <ele>104</ele>
        <time>2022-03-27T13:48:24Z</time>
      </trkpt>
      <trkpt lat="48.57637" lon="1.9675">
        <ele>104</ele>
        <time>2022-03-27T13:48:26Z</time>
      </trkpt>
      <trkpt lat="48.57637" lon="1.96754">
        <ele>104</ele>
        <time>2022-03-27T13:48:28Z</time>
      </trkpt>
      <trkpt lat="48.57637" lon="1.9676">
        <ele>104</ele>
        <time>2022-03-27T13:48:30Z</time>
      </trkpt>
      <trkpt lat="48.57638" lon="1.96762">
        <ele>104</ele>
        <time>2022-03-27T13:48:31Z</time>
      </trkpt>
      <trkpt lat="48.57638" lon="1.96765">
        <ele>104</ele>
        <time>2022-03-27T13:48:32Z</time>
      </trkpt>
      <trkpt lat="48.57639" lon="1.9677">
        <ele>104</ele>
        <time>2022-03-27T13:48:34Z</time>
      </trkpt>
      <trkpt lat="48.5764" lon="1.96775">
        <ele>104</ele>
        <time>2022-03-27T13:48:36Z</time>
      </trkpt>
      <trkpt lat="48.57641" lon="1.96778">
        <ele>104</ele>
        <time>2022-03-27T13:48:38Z</time>
      </trkpt>
      <trkpt lat="48.57642" lon="1.96783">
        <ele>104</ele>
        <time>2022-03-27T13:48:40Z</time>
      </trkpt>
      <trkpt lat="48.57643" lon="1.96788">
        <ele>104</ele>
        <time>2022-03-27T13:48:42Z</time>
      </trkpt>
      <trkpt lat="48.57643" lon="1.96793">
        <ele>104</ele>
        <time>2022-03-27T13:48:44Z</time>
      </trkpt>
      <trkpt lat="48.57644" lon="1.96797">
        <ele>104</ele>
        <time>2022-03-27T13:48:46Z</time>
      </trkpt>
      <trkpt lat="48.57646" lon="1.96802">
        <ele>104</ele>
        <time>2022-03-27T13:48:48Z</time>
      </trkpt>
      <trkpt lat="48.57647" lon="1.96807">
        <ele>104</ele>
        <time>2022-03-27T13:48:50Z</time>
      </trkpt>
      <trkpt lat="48.57647" lon="1.96811">
        <ele>104</ele>
        <time>2022-03-27T13:48:52Z</time>
      </trkpt>
      <trkpt lat="48.57648" lon="1.96815">
        <ele>104</ele>
        <time>2022-03-27T13:48:54Z</time>
      </trkpt>
      <trkpt lat="48.5765" lon="1.9682">
        <ele>104</ele>
        <time>2022-03-27T13:48:56Z</time>
      </trkpt>
      <trkpt lat="48.57651" lon="1.96824">
        <ele>104</ele>
        <time>2022-03-27T13:48:58Z</time>
      </trkpt>
      <trkpt lat="48.57653" lon="1.96829">
        <ele>104</ele>
        <time>2022-03-27T13:49:00Z</time>
      </trkpt>
      <trkpt lat="48.57654" lon="1.96833">
        <ele>104</ele>
        <time>2022-03-27T13:49:02Z</time>
      </trkpt>
      <trkpt lat="48.57655" lon="1.96837">
        <ele>104</ele>
        <time>2022-03-27T13:49:04Z</time>
      </trkpt>
      <trkpt lat="48.57656" lon="1.96841">
        <ele>104</ele>
        <time>2022-03-27T13:49:06Z</time>
      </trkpt>
      <trkpt lat="48.57658" lon="1.96845">
        <ele>104</ele>
        <time>2022-03-27T13:49:08Z</time>
      </trkpt>
      <trkpt lat="48.57659" lon="1.9685">
        <ele>104</ele>
        <time>2022-03-27T13:49:10Z</time>
      </trkpt>
      <trkpt lat="48.5766" lon="1.96855">
        <ele>104</ele>
        <time>2022-03-27T13:49:12Z</time>
      </trkpt>
      <trkpt lat="48.57661" lon="1.96859">
        <ele>104</ele>
        <time>2022-03-27T13:49:14Z</time>
      </trkpt>
      <trkpt lat="48.57662" lon="1.96864">
        <ele>104</ele>
        <time>2022-03-27T13:49:16Z</time>
      </trkpt>
      <trkpt lat="48.57662" lon="1.96869">
        <ele>104</ele>
        <time>2022-03-27T13:49:18Z</time>
      </trkpt>
      <trkpt lat="48.57663" lon="1.96874">
        <ele>104</ele>
        <time>2022-03-27T13:49:20Z</time>
      </trkpt>
      <trkpt lat="48.57664" lon="1.96879">
        <ele>104</ele>
        <time>2022-03-27T13:49:22Z</time>
      </trkpt>
      <trkpt lat="48.57664" lon="1.96884">
        <ele>104</ele>
        <time>2022-03-27T13:49:24Z</time>
      </trkpt>
      <trkpt lat="48.57665" lon="1.96888">
        <ele>104</ele>
        <time>2022-03-27T13:49:26Z</time>
      </trkpt>
      <trkpt lat="48.57665" lon="1.96893">
        <ele>104</ele>
        <time>2022-03-27T13:49:28Z</time>
      </trkpt>
      <trkpt lat="48.57665" lon="1.96897">
        <ele>104</ele>
        <time>2022-03-27T13:49:30Z</time>
      </trkpt>
      <trkpt lat="48.57666" lon="1.96901">
        <ele>105</ele>
        <time>2022-03-27T13:49:32Z</time>
      </trkpt>
      <trkpt lat="48.57667" lon="1.96906">
        <ele>105</ele>
        <time>2022-03-27T13:49:34Z</time>
      </trkpt>
      <trkpt lat="48.57668" lon="1.9691">
        <ele>105</ele>
        <time>2022-03-27T13:49:36Z</time>
      </trkpt>
      <trkpt lat="48.57669" lon="1.96914">
        <ele>105</ele>
        <time>2022-03-27T13:49:38Z</time>
      </trkpt>
      <trkpt lat="48.5767" lon="1.96918">
        <ele>105</ele>
        <time>2022-03-27T13:49:40Z</time>
      </trkpt>
      <trkpt lat="48.57671" lon="1.96923">
        <ele>105</ele>
        <time>2022-03-27T13:49:42Z</time>
      </trkpt>
      <trkpt lat="48.57672" lon="1.96927">
        <ele>105</ele>
        <time>2022-03-27T13:49:44Z</time>
      </trkpt>
      <trkpt lat="48.57673" lon="1.96931">
        <ele>105</ele>
        <time>2022-03-27T13:49:46Z</time>
      </trkpt>
      <trkpt lat="48.57674" lon="1.96935">
        <ele>105</ele>
        <time>2022-03-27T13:49:48Z</time>
      </trkpt>
      <trkpt lat="48.57675" lon="1.96939">
        <ele>105</ele>
        <time>2022-03-27T13:49:50Z</time>
      </trkpt>
      <trkpt lat="48.57677" lon="1.96943">
        <ele>105</ele>
        <time>2022-03-27T13:49:52Z</time>
      </trkpt>
      <trkpt lat="48.57678" lon="1.96947">
        <ele>105</ele>
        <time>2022-03-27T13:49:54Z</time>
      </trkpt>
      <trkpt lat="48.5768" lon="1.96951">
        <ele>105</ele>
        <time>2022-03-27T13:49:56Z</time>
      </trkpt>
      <trkpt lat="48.57681" lon="1.96955">
        <ele>106</ele>
        <time>2022-03-27T13:49:58Z</time>
      </trkpt>
      <trkpt lat="48.57682" lon="1.96959">
        <ele>106</ele>
        <time>2022-03-27T13:50:00Z</time>
      </trkpt>
      <trkpt lat="48.57684" lon="1.96963">
        <ele>106</ele>
        <time>2022-03-27T13:50:02Z</time>
      </trkpt>
      <trkpt lat="48.57685" lon="1.96967">
        <ele>106</ele>
        <time>2022-03-27T13:50:04Z</time>
      </trkpt>
      <trkpt lat="48.57686" lon="1.96971">
        <ele>106</ele>
        <time>2022-03-27T13:50:06Z</time>
      </trkpt>
      <trkpt lat="48.57688" lon="1.96975">
        <ele>106</ele>
        <time>2022-03-27T13:50:08Z</time>
      </trkpt>
      <trkpt lat="48.57689" lon="1.96978">
        <ele>106</ele>
        <time>2022-03-27T13:50:10Z</time>
      </trkpt>
      <trkpt lat="48.5769" lon="1.96982">
        <ele>106</ele>
        <time>2022-03-27T13:50:12Z</time>
      </trkpt>
      <trkpt lat="48.57691" lon="1.96986">
        <ele>106</ele>
        <time>2022-03-27T13:50:14Z</time>
      </trkpt>
      <trkpt lat="48.57693" lon="1.96991">
        <ele>106</ele>
        <time>2022-03-27T13:50:16Z</time>
      </trkpt>
      <trkpt lat="48.57694" lon="1.96995">
        <ele>106</ele>
        <time>2022-03-27T13:50:18Z</time>
      </trkpt>
      <trkpt lat="48.57696" lon="1.97">
        <ele>106</ele>
        <time>2022-03-27T13:50:20Z</time>
      </trkpt>
      <trkpt lat="48.57697" lon="1.97002">
        <ele>106</ele>
        <time>2022-03-27T13:50:21Z</time>
      </trkpt>
      <trkpt lat="48.57699" lon="1.97007">
        <ele>106</ele>
        <time>2022-03-27T13:50:23Z</time>
      </trkpt>
      <trkpt lat="48.577" lon="1.97011">
        <ele>106</ele>
        <time>2022-03-27T13:50:25Z</time>
      </trkpt>
      <trkpt lat="48.57702" lon="1.97015">
        <ele>106</ele>
        <time>2022-03-27T13:50:27Z</time>
      </trkpt>
      <trkpt lat="48.57703" lon="1.97019">
        <ele>106</ele>
        <time>2022-03-27T13:50:29Z</time>
      </trkpt>
      <trkpt lat="48.57705" lon="1.97022">
        <ele>106</ele>
        <time>2022-03-27T13:50:31Z</time>
      </trkpt>
      <trkpt lat="48.57706" lon="1.97026">
        <ele>106</ele>
        <time>2022-03-27T13:50:33Z</time>
      </trkpt>
      <trkpt lat="48.57708" lon="1.97031">
        <ele>106</ele>
        <time>2022-03-27T13:50:35Z</time>
      </trkpt>
      <trkpt lat="48.57709" lon="1.97035">
        <ele>107</ele>
        <time>2022-03-27T13:50:37Z</time>
      </trkpt>
      <trkpt lat="48.57711" lon="1.97039">
        <ele>107</ele>
        <time>2022-03-27T13:50:39Z</time>
      </trkpt>
      <trkpt lat="48.57712" lon="1.97043">
        <ele>107</ele>
        <time>2022-03-27T13:50:41Z</time>
      </trkpt>
      <trkpt lat="48.57714" lon="1.97048">
        <ele>107</ele>
        <time>2022-03-27T13:50:43Z</time>
      </trkpt>
      <trkpt lat="48.57715" lon="1.97052">
        <ele>107</ele>
        <time>2022-03-27T13:50:45Z</time>
      </trkpt>
      <trkpt lat="48.57717" lon="1.97056">
        <ele>107</ele>
        <time>2022-03-27T13:50:47Z</time>
      </trkpt>
      <trkpt lat="48.57718" lon="1.9706">
        <ele>107</ele>
        <time>2022-03-27T13:50:49Z</time>
      </trkpt>
      <trkpt lat="48.57719" lon="1.97064">
        <ele>107</ele>
        <time>2022-03-27T13:50:51Z</time>
      </trkpt>
      <trkpt lat="48.5772" lon="1.97069">
        <ele>107</ele>
        <time>2022-03-27T13:50:53Z</time>
      </trkpt>
      <trkpt lat="48.57721" lon="1.97072">
        <ele>107</ele>
        <time>2022-03-27T13:50:55Z</time>
      </trkpt>
      <trkpt lat="48.57722" lon="1.97075">
        <ele>107</ele>
        <time>2022-03-27T13:50:57Z</time>
      </trkpt>
      <trkpt lat="48.57723" lon="1.97077">
        <ele>107</ele>
        <time>2022-03-27T13:51:05Z</time>
      </trkpt>
      <trkpt lat="48.57725" lon="1.97081">
        <ele>107</ele>
        <time>2022-03-27T13:51:07Z</time>
      </trkpt>
      <trkpt lat="48.57726" lon="1.97084">
        <ele>107</ele>
        <time>2022-03-27T13:51:09Z</time>
      </trkpt>
      <trkpt lat="48.57727" lon="1.97088">
        <ele>107</ele>
        <time>2022-03-27T13:51:11Z</time>
      </trkpt>
      <trkpt lat="48.57728" lon="1.97092">
        <ele>107</ele>
        <time>2022-03-27T13:51:13Z</time>
      </trkpt>
      <trkpt lat="48.57728" lon="1.97097">
        <ele>107</ele>
        <time>2022-03-27T13:51:15Z</time>
      </trkpt>
      <trkpt lat="48.57729" lon="1.97101">
        <ele>107</ele>
        <time>2022-03-27T13:51:17Z</time>
      </trkpt>
      <trkpt lat="48.5773" lon="1.97106">
        <ele>107</ele>
        <time>2022-03-27T13:51:19Z</time>
      </trkpt>
      <trkpt lat="48.57731" lon="1.9711">
        <ele>107</ele>
        <time>2022-03-27T13:51:21Z</time>
      </trkpt>
      <trkpt lat="48.57732" lon="1.97115">
        <ele>107</ele>
        <time>2022-03-27T13:51:23Z</time>
      </trkpt>
      <trkpt lat="48.57733" lon="1.9712">
        <ele>107</ele>
        <time>2022-03-27T13:51:25Z</time>
      </trkpt>
      <trkpt lat="48.57734" lon="1.97124">
        <ele>107</ele>
        <time>2022-03-27T13:51:27Z</time>
      </trkpt>
      <trkpt lat="48.57735" lon="1.97128">
        <ele>107</ele>
        <time>2022-03-27T13:51:29Z</time>
      </trkpt>
      <trkpt lat="48.57736" lon="1.97132">
        <ele>108</ele>
        <time>2022-03-27T13:51:31Z</time>
      </trkpt>
      <trkpt lat="48.57736" lon="1.97137">
        <ele>108</ele>
        <time>2022-03-27T13:51:33Z</time>
      </trkpt>
      <trkpt lat="48.57737" lon="1.97142">
        <ele>108</ele>
        <time>2022-03-27T13:51:35Z</time>
      </trkpt>
      <trkpt lat="48.57738" lon="1.97147">
        <ele>108</ele>
        <time>2022-03-27T13:51:37Z</time>
      </trkpt>
      <trkpt lat="48.57738" lon="1.97152">
        <ele>108</ele>
        <time>2022-03-27T13:51:39Z</time>
      </trkpt>
      <trkpt lat="48.57739" lon="1.97156">
        <ele>108</ele>
        <time>2022-03-27T13:51:41Z</time>
      </trkpt>
      <trkpt lat="48.5774" lon="1.97161">
        <ele>108</ele>
        <time>2022-03-27T13:51:43Z</time>
      </trkpt>
      <trkpt lat="48.57741" lon="1.97165">
        <ele>108</ele>
        <time>2022-03-27T13:51:45Z</time>
      </trkpt>
      <trkpt lat="48.57742" lon="1.9717">
        <ele>108</ele>
        <time>2022-03-27T13:51:47Z</time>
      </trkpt>
      <trkpt lat="48.57742" lon="1.97173">
        <ele>108</ele>
        <time>2022-03-27T13:51:49Z</time>
      </trkpt>
      <trkpt lat="48.57743" lon="1.97177">
        <ele>108</ele>
        <time>2022-03-27T13:51:51Z</time>
      </trkpt>
      <trkpt lat="48.57743" lon="1.97181">
        <ele>108</ele>
        <time>2022-03-27T13:51:53Z</time>
      </trkpt>
      <trkpt lat="48.57744" lon="1.97185">
        <ele>108</ele>
        <time>2022-03-27T13:51:55Z</time>
      </trkpt>
      <trkpt lat="48.57745" lon="1.9719">
        <ele>108</ele>
        <time>2022-03-27T13:51:57Z</time>
      </trkpt>
      <trkpt lat="48.57745" lon="1.97195">
        <ele>108</ele>
        <time>2022-03-27T13:51:59Z</time>
      </trkpt>
      <trkpt lat="48.57746" lon="1.97199">
        <ele>108</ele>
        <time>2022-03-27T13:52:01Z</time>
      </trkpt>
      <trkpt lat="48.57746" lon="1.97204">
        <ele>108</ele>
        <time>2022-03-27T13:52:03Z</time>
      </trkpt>
      <trkpt lat="48.57747" lon="1.97208">
        <ele>108</ele>
        <time>2022-03-27T13:52:05Z</time>
      </trkpt>
      <trkpt lat="48.57748" lon="1.97213">
        <ele>108</ele>
        <time>2022-03-27T13:52:07Z</time>
      </trkpt>
      <trkpt lat="48.57749" lon="1.97218">
        <ele>108</ele>
        <time>2022-03-27T13:52:09Z</time>
      </trkpt>
      <trkpt lat="48.57749" lon="1.97223">
        <ele>108</ele>
        <time>2022-03-27T13:52:11Z</time>
      </trkpt>
      <trkpt lat="48.5775" lon="1.97227">
        <ele>108</ele>
        <time>2022-03-27T13:52:13Z</time>
      </trkpt>
      <trkpt lat="48.5775" lon="1.97232">
        <ele>108</ele>
        <time>2022-03-27T13:52:15Z</time>
      </trkpt>
      <trkpt lat="48.57751" lon="1.97237">
        <ele>108</ele>
        <time>2022-03-27T13:52:17Z</time>
      </trkpt>
      <trkpt lat="48.57752" lon="1.97242">
        <ele>108</ele>
        <time>2022-03-27T13:52:19Z</time>
      </trkpt>
      <trkpt lat="48.57752" lon="1.97247">
        <ele>108</ele>
        <time>2022-03-27T13:52:21Z</time>
      </trkpt>
      <trkpt lat="48.57753" lon="1.97252">
        <ele>108</ele>
        <time>2022-03-27T13:52:23Z</time>
      </trkpt>
      <trkpt lat="48.57753" lon="1.97256">
        <ele>108</ele>
        <time>2022-03-27T13:52:25Z</time>
      </trkpt>
      <trkpt lat="48.57754" lon="1.97261">
        <ele>108</ele>
        <time>2022-03-27T13:52:27Z</time>
      </trkpt>
      <trkpt lat="48.57755" lon="1.97266">
        <ele>108</ele>
        <time>2022-03-27T13:52:29Z</time>
      </trkpt>
      <trkpt lat="48.57756" lon="1.97271">
        <ele>108</ele>
        <time>2022-03-27T13:52:31Z</time>
      </trkpt>
      <trkpt lat="48.57757" lon="1.97276">
        <ele>108</ele>
        <time>2022-03-27T13:52:33Z</time>
      </trkpt>
      <trkpt lat="48.57758" lon="1.97281">
        <ele>108</ele>
        <time>2022-03-27T13:52:35Z</time>
      </trkpt>
      <trkpt lat="48.57759" lon="1.97286">
        <ele>108</ele>
        <time>2022-03-27T13:52:37Z</time>
      </trkpt>
      <trkpt lat="48.57759" lon="1.97289">
        <ele>108</ele>
        <time>2022-03-27T13:52:38Z</time>
      </trkpt>
      <trkpt lat="48.5776" lon="1.97292">
        <ele>108</ele>
        <time>2022-03-27T13:52:39Z</time>
      </trkpt>
      <trkpt lat="48.57761" lon="1.97297">
        <ele>108</ele>
        <time>2022-03-27T13:52:41Z</time>
      </trkpt>
      <trkpt lat="48.57762" lon="1.97302">
        <ele>108</ele>
        <time>2022-03-27T13:52:43Z</time>
      </trkpt>
      <trkpt lat="48.57762" lon="1.97307">
        <ele>108</ele>
        <time>2022-03-27T13:52:45Z</time>
      </trkpt>
      <trkpt lat="48.57763" lon="1.97312">
        <ele>107</ele>
        <time>2022-03-27T13:52:47Z</time>
      </trkpt>
      <trkpt lat="48.57764" lon="1.97317">
        <ele>107</ele>
        <time>2022-03-27T13:52:49Z</time>
      </trkpt>
      <trkpt lat="48.57765" lon="1.97322">
        <ele>107</ele>
        <time>2022-03-27T13:52:51Z</time>
      </trkpt>
      <trkpt lat="48.57765" lon="1.97327">
        <ele>107</ele>
        <time>2022-03-27T13:52:53Z</time>
      </trkpt>
      <trkpt lat="48.57766" lon="1.97332">
        <ele>107</ele>
        <time>2022-03-27T13:52:55Z</time>
      </trkpt>
      <trkpt lat="48.57766" lon="1.97337">
        <ele>107</ele>
        <time>2022-03-27T13:52:57Z</time>
      </trkpt>
      <trkpt lat="48.57766" lon="1.9734">
        <ele>107</ele>
        <time>2022-03-27T13:52:58Z</time>
      </trkpt>
      <trkpt lat="48.57766" lon="1.97344">
        <ele>107</ele>
        <time>2022-03-27T13:53:00Z</time>
      </trkpt>
      <trkpt lat="48.57767" lon="1.97349">
        <ele>107</ele>
        <time>2022-03-27T13:53:02Z</time>
      </trkpt>
      <trkpt lat="48.57768" lon="1.97354">
        <ele>107</ele>
        <time>2022-03-27T13:53:04Z</time>
      </trkpt>
      <trkpt lat="48.57769" lon="1.97358">
        <ele>108</ele>
        <time>2022-03-27T13:53:06Z</time>
      </trkpt>
      <trkpt lat="48.5777" lon="1.97362">
        <ele>108</ele>
        <time>2022-03-27T13:53:08Z</time>
      </trkpt>
      <trkpt lat="48.57771" lon="1.97366">
        <ele>108</ele>
        <time>2022-03-27T13:53:10Z</time>
      </trkpt>
      <trkpt lat="48.57772" lon="1.97371">
        <ele>108</ele>
        <time>2022-03-27T13:53:12Z</time>
      </trkpt>
      <trkpt lat="48.57773" lon="1.97375">
        <ele>109</ele>
        <time>2022-03-27T13:53:14Z</time>
      </trkpt>
      <trkpt lat="48.57773" lon="1.97378">
        <ele>109</ele>
        <time>2022-03-27T13:53:15Z</time>
      </trkpt>
      <trkpt lat="48.57774" lon="1.97381">
        <ele>109</ele>
        <time>2022-03-27T13:53:16Z</time>
      </trkpt>
      <trkpt lat="48.57775" lon="1.97383">
        <ele>109</ele>
        <time>2022-03-27T13:53:17Z</time>
      </trkpt>
      <trkpt lat="48.57776" lon="1.97386">
        <ele>109</ele>
        <time>2022-03-27T13:53:18Z</time>
      </trkpt>
      <trkpt lat="48.57777" lon="1.97391">
        <ele>109</ele>
        <time>2022-03-27T13:53:20Z</time>
      </trkpt>
      <trkpt lat="48.57778" lon="1.97393">
        <ele>109</ele>
        <time>2022-03-27T13:53:21Z</time>
      </trkpt>
      <trkpt lat="48.57779" lon="1.97396">
        <ele>109</ele>
        <time>2022-03-27T13:53:22Z</time>
      </trkpt>
      <trkpt lat="48.5778" lon="1.97401">
        <ele>109</ele>
        <time>2022-03-27T13:53:24Z</time>
      </trkpt>
      <trkpt lat="48.5778" lon="1.97405">
        <ele>109</ele>
        <time>2022-03-27T13:53:26Z</time>
      </trkpt>
      <trkpt lat="48.5778" lon="1.9741">
        <ele>109</ele>
        <time>2022-03-27T13:53:28Z</time>
      </trkpt>
      <trkpt lat="48.5778" lon="1.97414">
        <ele>109</ele>
        <time>2022-03-27T13:53:30Z</time>
      </trkpt>
      <trkpt lat="48.57781" lon="1.97419">
        <ele>110</ele>
        <time>2022-03-27T13:53:32Z</time>
      </trkpt>
      <trkpt lat="48.57782" lon="1.97422">
        <ele>109</ele>
        <time>2022-03-27T13:53:33Z</time>
      </trkpt>
      <trkpt lat="48.57783" lon="1.97424">
        <ele>109</ele>
        <time>2022-03-27T13:53:34Z</time>
      </trkpt>
      <trkpt lat="48.57783" lon="1.97429">
        <ele>109</ele>
        <time>2022-03-27T13:53:36Z</time>
      </trkpt>
      <trkpt lat="48.57785" lon="1.97434">
        <ele>109</ele>
        <time>2022-03-27T13:53:38Z</time>
      </trkpt>
      <trkpt lat="48.57786" lon="1.97439">
        <ele>109</ele>
        <time>2022-03-27T13:53:40Z</time>
      </trkpt>
      <trkpt lat="48.57787" lon="1.97442">
        <ele>109</ele>
        <time>2022-03-27T13:53:41Z</time>
      </trkpt>
      <trkpt lat="48.57787" lon="1.97445">
        <ele>109</ele>
        <time>2022-03-27T13:53:42Z</time>
      </trkpt>
      <trkpt lat="48.57787" lon="1.97447">
        <ele>109</ele>
        <time>2022-03-27T13:53:43Z</time>
      </trkpt>
      <trkpt lat="48.57789" lon="1.97452">
        <ele>109</ele>
        <time>2022-03-27T13:53:45Z</time>
      </trkpt>
      <trkpt lat="48.5779" lon="1.97455">
        <ele>109</ele>
        <time>2022-03-27T13:53:46Z</time>
      </trkpt>
      <trkpt lat="48.57792" lon="1.97459">
        <ele>110</ele>
        <time>2022-03-27T13:53:48Z</time>
      </trkpt>
      <trkpt lat="48.57792" lon="1.97464">
        <ele>110</ele>
        <time>2022-03-27T13:53:50Z</time>
      </trkpt>
      <trkpt lat="48.57793" lon="1.97467">
        <ele>110</ele>
        <time>2022-03-27T13:53:51Z</time>
      </trkpt>
      <trkpt lat="48.57793" lon="1.9747">
        <ele>110</ele>
        <time>2022-03-27T13:53:52Z</time>
      </trkpt>
      <trkpt lat="48.57793" lon="1.97473">
        <ele>110</ele>
        <time>2022-03-27T13:53:53Z</time>
      </trkpt>
      <trkpt lat="48.57793" lon="1.97475">
        <ele>110</ele>
        <time>2022-03-27T13:53:54Z</time>
      </trkpt>
      <trkpt lat="48.57793" lon="1.97481">
        <ele>110</ele>
        <time>2022-03-27T13:53:56Z</time>
      </trkpt>
      <trkpt lat="48.57793" lon="1.97486">
        <ele>110</ele>
        <time>2022-03-27T13:53:58Z</time>
      </trkpt>
      <trkpt lat="48.57794" lon="1.97489">
        <ele>110</ele>
        <time>2022-03-27T13:53:59Z</time>
      </trkpt>
      <trkpt lat="48.57794" lon="1.97494">
        <ele>111</ele>
        <time>2022-03-27T13:54:01Z</time>
      </trkpt>
      <trkpt lat="48.57794" lon="1.97499">
        <ele>111</ele>
        <time>2022-03-27T13:54:03Z</time>
      </trkpt>
      <trkpt lat="48.57794" lon="1.97504">
        <ele>111</ele>
        <time>2022-03-27T13:54:05Z</time>
      </trkpt>
      <trkpt lat="48.57794" lon="1.97509">
        <ele>111</ele>
        <time>2022-03-27T13:54:07Z</time>
      </trkpt>
      <trkpt lat="48.57794" lon="1.97514">
        <ele>111</ele>
        <time>2022-03-27T13:54:09Z</time>
      </trkpt>
      <trkpt lat="48.57795" lon="1.97519">
        <ele>111</ele>
        <time>2022-03-27T13:54:11Z</time>
      </trkpt>
      <trkpt lat="48.57795" lon="1.97523">
        <ele>111</ele>
        <time>2022-03-27T13:54:13Z</time>
      </trkpt>
      <trkpt lat="48.57796" lon="1.97528">
        <ele>112</ele>
        <time>2022-03-27T13:54:15Z</time>
      </trkpt>
      <trkpt lat="48.57795" lon="1.97533">
        <ele>111</ele>
        <time>2022-03-27T13:54:17Z</time>
      </trkpt>
      <trkpt lat="48.57795" lon="1.97538">
        <ele>111</ele>
        <time>2022-03-27T13:54:19Z</time>
      </trkpt>
      <trkpt lat="48.57796" lon="1.97542">
        <ele>111</ele>
        <time>2022-03-27T13:54:21Z</time>
      </trkpt>
      <trkpt lat="48.57797" lon="1.97546">
        <ele>111</ele>
        <time>2022-03-27T13:54:23Z</time>
      </trkpt>
      <trkpt lat="48.57798" lon="1.97549">
        <ele>111</ele>
        <time>2022-03-27T13:54:24Z</time>
      </trkpt>
      <trkpt lat="48.57799" lon="1.97554">
        <ele>111</ele>
        <time>2022-03-27T13:54:26Z</time>
      </trkpt>
      <trkpt lat="48.57799" lon="1.97559">
        <ele>111</ele>
        <time>2022-03-27T13:54:28Z</time>
      </trkpt>
      <trkpt lat="48.57799" lon="1.97563">
        <ele>111</ele>
        <time>2022-03-27T13:54:30Z</time>
      </trkpt>
      <trkpt lat="48.578" lon="1.97568">
        <ele>111</ele>
        <time>2022-03-27T13:54:32Z</time>
      </trkpt>
      <trkpt lat="48.578" lon="1.97573">
        <ele>111</ele>
        <time>2022-03-27T13:54:34Z</time>
      </trkpt>
      <trkpt lat="48.578" lon="1.97577">
        <ele>110</ele>
        <time>2022-03-27T13:54:36Z</time>
      </trkpt>
      <trkpt lat="48.57801" lon="1.97581">
        <ele>110</ele>
        <time>2022-03-27T13:54:38Z</time>
      </trkpt>
      <trkpt lat="48.57803" lon="1.97586">
        <ele>111</ele>
        <time>2022-03-27T13:54:40Z</time>
      </trkpt>
      <trkpt lat="48.57803" lon="1.9759">
        <ele>111</ele>
        <time>2022-03-27T13:54:42Z</time>
      </trkpt>
      <trkpt lat="48.57804" lon="1.97595">
        <ele>111</ele>
        <time>2022-03-27T13:54:44Z</time>
      </trkpt>
      <trkpt lat="48.57803" lon="1.97599">
        <ele>111</ele>
        <time>2022-03-27T13:54:46Z</time>
      </trkpt>
      <trkpt lat="48.57803" lon="1.97603">
        <ele>110</ele>
        <time>2022-03-27T13:54:48Z</time>
      </trkpt>
      <trkpt lat="48.57803" lon="1.97608">
        <ele>110</ele>
        <time>2022-03-27T13:54:50Z</time>
      </trkpt>
      <trkpt lat="48.57803" lon="1.97613">
        <ele>110</ele>
        <time>2022-03-27T13:54:52Z</time>
      </trkpt>
      <trkpt lat="48.57804" lon="1.97618">
        <ele>110</ele>
        <time>2022-03-27T13:54:54Z</time>
      </trkpt>
      <trkpt lat="48.57803" lon="1.97623">
        <ele>110</ele>
        <time>2022-03-27T13:54:56Z</time>
      </trkpt>
      <trkpt lat="48.57803" lon="1.97628">
        <ele>110</ele>
        <time>2022-03-27T13:54:58Z</time>
      </trkpt>
      <trkpt lat="48.57804" lon="1.97633">
        <ele>110</ele>
        <time>2022-03-27T13:55:00Z</time>
      </trkpt>
      <trkpt lat="48.57805" lon="1.97637">
        <ele>110</ele>
        <time>2022-03-27T13:55:02Z</time>
      </trkpt>
      <trkpt lat="48.57805" lon="1.97642">
        <ele>110</ele>
        <time>2022-03-27T13:55:04Z</time>
      </trkpt>
      <trkpt lat="48.57805" lon="1.97647">
        <ele>110</ele>
        <time>2022-03-27T13:55:06Z</time>
      </trkpt>
      <trkpt lat="48.57805" lon="1.97652">
        <ele>110</ele>
        <time>2022-03-27T13:55:08Z</time>
      </trkpt>
      <trkpt lat="48.57805" lon="1.97657">
        <ele>110</ele>
        <time>2022-03-27T13:55:10Z</time>
      </trkpt>
      <trkpt lat="48.57805" lon="1.97662">
        <ele>110</ele>
        <time>2022-03-27T13:55:12Z</time>
      </trkpt>
      <trkpt lat="48.57804" lon="1.97667">
        <ele>110</ele>
        <time>2022-03-27T13:55:14Z</time>
      </trkpt>
      <trkpt lat="48.57804" lon="1.97672">
        <ele>110</ele>
        <time>2022-03-27T13:55:16Z</time>
      </trkpt>
      <trkpt lat="48.57803" lon="1.97677">
        <ele>109</ele>
        <time>2022-03-27T13:55:18Z</time>
      </trkpt>
      <trkpt lat="48.57803" lon="1.97681">
        <ele>109</ele>
        <time>2022-03-27T13:55:20Z</time>
      </trkpt>
      <trkpt lat="48.57802" lon="1.97686">
        <ele>109</ele>
        <time>2022-03-27T13:55:22Z</time>
      </trkpt>
      <trkpt lat="48.57802" lon="1.97691">
        <ele>109</ele>
        <time>2022-03-27T13:55:24Z</time>
      </trkpt>
      <trkpt lat="48.57802" lon="1.97696">
        <ele>109</ele>
        <time>2022-03-27T13:55:26Z</time>
      </trkpt>
      <trkpt lat="48.57801" lon="1.97701">
        <ele>109</ele>
        <time>2022-03-27T13:55:28Z</time>
      </trkpt>
      <trkpt lat="48.57801" lon="1.97705">
        <ele>108</ele>
        <time>2022-03-27T13:55:30Z</time>
      </trkpt>
      <trkpt lat="48.57801" lon="1.9771">
        <ele>108</ele>
        <time>2022-03-27T13:55:32Z</time>
      </trkpt>
      <trkpt lat="48.57801" lon="1.97715">
        <ele>108</ele>
        <time>2022-03-27T13:55:34Z</time>
      </trkpt>
      <trkpt lat="48.578" lon="1.97719">
        <ele>108</ele>
        <time>2022-03-27T13:55:36Z</time>
      </trkpt>
      <trkpt lat="48.57799" lon="1.97724">
        <ele>108</ele>
        <time>2022-03-27T13:55:38Z</time>
      </trkpt>
      <trkpt lat="48.57798" lon="1.97729">
        <ele>107</ele>
        <time>2022-03-27T13:55:40Z</time>
      </trkpt>
      <trkpt lat="48.57797" lon="1.97731">
        <ele>107</ele>
        <time>2022-03-27T13:55:41Z</time>
      </trkpt>
      <trkpt lat="48.57796" lon="1.97736">
        <ele>107</ele>
        <time>2022-03-27T13:55:43Z</time>
      </trkpt>
      <trkpt lat="48.57796" lon="1.9774">
        <ele>107</ele>
        <time>2022-03-27T13:55:45Z</time>
      </trkpt>
      <trkpt lat="48.57795" lon="1.97744">
        <ele>107</ele>
        <time>2022-03-27T13:55:47Z</time>
      </trkpt>
      <trkpt lat="48.57794" lon="1.97748">
        <ele>107</ele>
        <time>2022-03-27T13:55:49Z</time>
      </trkpt>
      <trkpt lat="48.57794" lon="1.97751">
        <ele>107</ele>
        <time>2022-03-27T13:55:51Z</time>
      </trkpt>
      <trkpt lat="48.57794" lon="1.97756">
        <ele>108</ele>
        <time>2022-03-27T13:55:53Z</time>
      </trkpt>
      <trkpt lat="48.57794" lon="1.9776">
        <ele>108</ele>
        <time>2022-03-27T13:55:55Z</time>
      </trkpt>
      <trkpt lat="48.57794" lon="1.97764">
        <ele>108</ele>
        <time>2022-03-27T13:55:57Z</time>
      </trkpt>
      <trkpt lat="48.57795" lon="1.97769">
        <ele>108</ele>
        <time>2022-03-27T13:55:59Z</time>
      </trkpt>
      <trkpt lat="48.57795" lon="1.97773">
        <ele>108</ele>
        <time>2022-03-27T13:56:01Z</time>
      </trkpt>
      <trkpt lat="48.57794" lon="1.97778">
        <ele>108</ele>
        <time>2022-03-27T13:56:03Z</time>
      </trkpt>
      <trkpt lat="48.57794" lon="1.97781">
        <ele>108</ele>
        <time>2022-03-27T13:56:04Z</time>
      </trkpt>
      <trkpt lat="48.57794" lon="1.97784">
        <ele>108</ele>
        <time>2022-03-27T13:56:05Z</time>
      </trkpt>
      <trkpt lat="48.57794" lon="1.97787">
        <ele>108</ele>
        <time>2022-03-27T13:56:06Z</time>
      </trkpt>
      <trkpt lat="48.57792" lon="1.97791">
        <ele>108</ele>
        <time>2022-03-27T13:56:07Z</time>
      </trkpt>
      <trkpt lat="48.57791" lon="1.97796">
        <ele>109</ele>
        <time>2022-03-27T13:56:09Z</time>
      </trkpt>
      <trkpt lat="48.57792" lon="1.97801">
        <ele>109</ele>
        <time>2022-03-27T13:56:11Z</time>
      </trkpt>
      <trkpt lat="48.57792" lon="1.97804">
        <ele>109</ele>
        <time>2022-03-27T13:56:12Z</time>
      </trkpt>
      <trkpt lat="48.57792" lon="1.97807">
        <ele>109</ele>
        <time>2022-03-27T13:56:13Z</time>
      </trkpt>
      <trkpt lat="48.57792" lon="1.9781">
        <ele>109</ele>
        <time>2022-03-27T13:56:14Z</time>
      </trkpt>
      <trkpt lat="48.57793" lon="1.97812">
        <ele>109</ele>
        <time>2022-03-27T13:56:15Z</time>
      </trkpt>
      <trkpt lat="48.57794" lon="1.97815">
        <ele>109</ele>
        <time>2022-03-27T13:56:16Z</time>
      </trkpt>
      <trkpt lat="48.57795" lon="1.97817">
        <ele>110</ele>
        <time>2022-03-27T13:56:17Z</time>
      </trkpt>
      <trkpt lat="48.57795" lon="1.97822">
        <ele>110</ele>
        <time>2022-03-27T13:56:19Z</time>
      </trkpt>
      <trkpt lat="48.57795" lon="1.97827">
        <ele>110</ele>
        <time>2022-03-27T13:56:20Z</time>
      </trkpt>
      <trkpt lat="48.57793" lon="1.97833">
        <ele>110</ele>
        <time>2022-03-27T13:56:23Z</time>
      </trkpt>
      <trkpt lat="48.57792" lon="1.97836">
        <ele>110</ele>
        <time>2022-03-27T13:56:24Z</time>
      </trkpt>
      <trkpt lat="48.5779" lon="1.97839">
        <ele>110</ele>
        <time>2022-03-27T13:56:25Z</time>
      </trkpt>
      <trkpt lat="48.57789" lon="1.97842">
        <ele>110</ele>
        <time>2022-03-27T13:56:26Z</time>
      </trkpt>
      <trkpt lat="48.57788" lon="1.97845">
        <ele>110</ele>
        <time>2022-03-27T13:56:27Z</time>
      </trkpt>
      <trkpt lat="48.57787" lon="1.97847">
        <ele>110</ele>
        <time>2022-03-27T13:56:28Z</time>
      </trkpt>
      <trkpt lat="48.57786" lon="1.97853">
        <ele>110</ele>
        <time>2022-03-27T13:56:30Z</time>
      </trkpt>
      <trkpt lat="48.57785" lon="1.97857">
        <ele>110</ele>
        <time>2022-03-27T13:56:32Z</time>
      </trkpt>
      <trkpt lat="48.57784" lon="1.97862">
        <ele>110</ele>
        <time>2022-03-27T13:56:34Z</time>
      </trkpt>
      <trkpt lat="48.57783" lon="1.97867">
        <ele>110</ele>
        <time>2022-03-27T13:56:36Z</time>
      </trkpt>
      <trkpt lat="48.57783" lon="1.9787">
        <ele>110</ele>
        <time>2022-03-27T13:56:37Z</time>
      </trkpt>
      <trkpt lat="48.57782" lon="1.97873">
        <ele>110</ele>
        <time>2022-03-27T13:56:38Z</time>
      </trkpt>
      <trkpt lat="48.57781" lon="1.97876">
        <ele>109</ele>
        <time>2022-03-27T13:56:39Z</time>
      </trkpt>
      <trkpt lat="48.57781" lon="1.97879">
        <ele>109</ele>
        <time>2022-03-27T13:56:40Z</time>
      </trkpt>
      <trkpt lat="48.57781" lon="1.97882">
        <ele>109</ele>
        <time>2022-03-27T13:56:41Z</time>
      </trkpt>
      <trkpt lat="48.5778" lon="1.97885">
        <ele>109</ele>
        <time>2022-03-27T13:56:42Z</time>
      </trkpt>
      <trkpt lat="48.57779" lon="1.97888">
        <ele>109</ele>
        <time>2022-03-27T13:56:43Z</time>
      </trkpt>
      <trkpt lat="48.57779" lon="1.9789">
        <ele>109</ele>
        <time>2022-03-27T13:56:44Z</time>
      </trkpt>
      <trkpt lat="48.57778" lon="1.97893">
        <ele>109</ele>
        <time>2022-03-27T13:56:45Z</time>
      </trkpt>
      <trkpt lat="48.57778" lon="1.97896">
        <ele>109</ele>
        <time>2022-03-27T13:56:46Z</time>
      </trkpt>
      <trkpt lat="48.57777" lon="1.97898">
        <ele>108</ele>
        <time>2022-03-27T13:56:47Z</time>
      </trkpt>
      <trkpt lat="48.57777" lon="1.97901">
        <ele>108</ele>
        <time>2022-03-27T13:56:48Z</time>
      </trkpt>
      <trkpt lat="48.57776" lon="1.97904">
        <ele>108</ele>
        <time>2022-03-27T13:56:49Z</time>
      </trkpt>
      <trkpt lat="48.57776" lon="1.97907">
        <ele>108</ele>
        <time>2022-03-27T13:56:50Z</time>
      </trkpt>
      <trkpt lat="48.57775" lon="1.97909">
        <ele>108</ele>
        <time>2022-03-27T13:56:51Z</time>
      </trkpt>
      <trkpt lat="48.57775" lon="1.97912">
        <ele>108</ele>
        <time>2022-03-27T13:56:52Z</time>
      </trkpt>
      <trkpt lat="48.57774" lon="1.97915">
        <ele>108</ele>
        <time>2022-03-27T13:56:53Z</time>
      </trkpt>
      <trkpt lat="48.57773" lon="1.9792">
        <ele>108</ele>
        <time>2022-03-27T13:56:55Z</time>
      </trkpt>
      <trkpt lat="48.57773" lon="1.97923">
        <ele>107</ele>
        <time>2022-03-27T13:56:56Z</time>
      </trkpt>
      <trkpt lat="48.57773" lon="1.97925">
        <ele>107</ele>
        <time>2022-03-27T13:56:57Z</time>
      </trkpt>
      <trkpt lat="48.57772" lon="1.97931">
        <ele>107</ele>
        <time>2022-03-27T13:56:59Z</time>
      </trkpt>
      <trkpt lat="48.57771" lon="1.97936">
        <ele>107</ele>
        <time>2022-03-27T13:57:01Z</time>
      </trkpt>
      <trkpt lat="48.57771" lon="1.97938">
        <ele>107</ele>
        <time>2022-03-27T13:57:02Z</time>
      </trkpt>
      <trkpt lat="48.57771" lon="1.97941">
        <ele>107</ele>
        <time>2022-03-27T13:57:03Z</time>
      </trkpt>
      <trkpt lat="48.5777" lon="1.97944">
        <ele>107</ele>
        <time>2022-03-27T13:57:04Z</time>
      </trkpt>
      <trkpt lat="48.5777" lon="1.97949">
        <ele>107</ele>
        <time>2022-03-27T13:57:06Z</time>
      </trkpt>
      <trkpt lat="48.5777" lon="1.97954">
        <ele>106</ele>
        <time>2022-03-27T13:57:08Z</time>
      </trkpt>
      <trkpt lat="48.57769" lon="1.97959">
        <ele>106</ele>
        <time>2022-03-27T13:57:10Z</time>
      </trkpt>
      <trkpt lat="48.57769" lon="1.97965">
        <ele>106</ele>
        <time>2022-03-27T13:57:12Z</time>
      </trkpt>
      <trkpt lat="48.57769" lon="1.9797">
        <ele>106</ele>
        <time>2022-03-27T13:57:14Z</time>
      </trkpt>
      <trkpt lat="48.57768" lon="1.97973">
        <ele>106</ele>
        <time>2022-03-27T13:57:15Z</time>
      </trkpt>
      <trkpt lat="48.57768" lon="1.97978">
        <ele>106</ele>
        <time>2022-03-27T13:57:17Z</time>
      </trkpt>
      <trkpt lat="48.57768" lon="1.97983">
        <ele>106</ele>
        <time>2022-03-27T13:57:19Z</time>
      </trkpt>
      <trkpt lat="48.57767" lon="1.97988">
        <ele>106</ele>
        <time>2022-03-27T13:57:21Z</time>
      </trkpt>
      <trkpt lat="48.57767" lon="1.97993">
        <ele>106</ele>
        <time>2022-03-27T13:57:23Z</time>
      </trkpt>
      <trkpt lat="48.57766" lon="1.97997">
        <ele>106</ele>
        <time>2022-03-27T13:57:25Z</time>
      </trkpt>
      <trkpt lat="48.57766" lon="1.98002">
        <ele>105</ele>
        <time>2022-03-27T13:57:27Z</time>
      </trkpt>
      <trkpt lat="48.57766" lon="1.98008">
        <ele>105</ele>
        <time>2022-03-27T13:57:29Z</time>
      </trkpt>
      <trkpt lat="48.57766" lon="1.98013">
        <ele>105</ele>
        <time>2022-03-27T13:57:31Z</time>
      </trkpt>
      <trkpt lat="48.57766" lon="1.98018">
        <ele>105</ele>
        <time>2022-03-27T13:57:33Z</time>
      </trkpt>
      <trkpt lat="48.57765" lon="1.98023">
        <ele>105</ele>
        <time>2022-03-27T13:57:35Z</time>
      </trkpt>
      <trkpt lat="48.57765" lon="1.98028">
        <ele>104</ele>
        <time>2022-03-27T13:57:37Z</time>
      </trkpt>
      <trkpt lat="48.57765" lon="1.98033">
        <ele>104</ele>
        <time>2022-03-27T13:57:39Z</time>
      </trkpt>
      <trkpt lat="48.57765" lon="1.98038">
        <ele>104</ele>
        <time>2022-03-27T13:57:41Z</time>
      </trkpt>
      <trkpt lat="48.57765" lon="1.98043">
        <ele>104</ele>
        <time>2022-03-27T13:57:43Z</time>
      </trkpt>
      <trkpt lat="48.57765" lon="1.98048">
        <ele>104</ele>
        <time>2022-03-27T13:57:45Z</time>
      </trkpt>
      <trkpt lat="48.57765" lon="1.98053">
        <ele>104</ele>
        <time>2022-03-27T13:57:47Z</time>
      </trkpt>
      <trkpt lat="48.57766" lon="1.98057">
        <ele>104</ele>
        <time>2022-03-27T13:57:49Z</time>
      </trkpt>
      <trkpt lat="48.57766" lon="1.98063">
        <ele>104</ele>
        <time>2022-03-27T13:57:51Z</time>
      </trkpt>
      <trkpt lat="48.57766" lon="1.98068">
        <ele>104</ele>
        <time>2022-03-27T13:57:53Z</time>
      </trkpt>
      <trkpt lat="48.57767" lon="1.98073">
        <ele>104</ele>
        <time>2022-03-27T13:57:55Z</time>
      </trkpt>
      <trkpt lat="48.57767" lon="1.98078">
        <ele>104</ele>
        <time>2022-03-27T13:57:57Z</time>
      </trkpt>
      <trkpt lat="48.57768" lon="1.98083">
        <ele>104</ele>
        <time>2022-03-27T13:57:59Z</time>
      </trkpt>
      <trkpt lat="48.57768" lon="1.98088">
        <ele>104</ele>
        <time>2022-03-27T13:58:01Z</time>
      </trkpt>
      <trkpt lat="48.57768" lon="1.98093">
        <ele>103</ele>
        <time>2022-03-27T13:58:03Z</time>
      </trkpt>
      <trkpt lat="48.57769" lon="1.98098">
        <ele>103</ele>
        <time>2022-03-27T13:58:05Z</time>
      </trkpt>
      <trkpt lat="48.5777" lon="1.98103">
        <ele>103</ele>
        <time>2022-03-27T13:58:07Z</time>
      </trkpt>
      <trkpt lat="48.5777" lon="1.98108">
        <ele>103</ele>
        <time>2022-03-27T13:58:09Z</time>
      </trkpt>
      <trkpt lat="48.57771" lon="1.98113">
        <ele>103</ele>
        <time>2022-03-27T13:58:11Z</time>
      </trkpt>
      <trkpt lat="48.57772" lon="1.98117">
        <ele>103</ele>
        <time>2022-03-27T13:58:13Z</time>
      </trkpt>
      <trkpt lat="48.57772" lon="1.98122">
        <ele>103</ele>
        <time>2022-03-27T13:58:15Z</time>
      </trkpt>
      <trkpt lat="48.57772" lon="1.98127">
        <ele>103</ele>
        <time>2022-03-27T13:58:17Z</time>
      </trkpt>
      <trkpt lat="48.57772" lon="1.98132">
        <ele>103</ele>
        <time>2022-03-27T13:58:19Z</time>
      </trkpt>
      <trkpt lat="48.57773" lon="1.98137">
        <ele>102</ele>
        <time>2022-03-27T13:58:21Z</time>
      </trkpt>
      <trkpt lat="48.57773" lon="1.98141">
        <ele>102</ele>
        <time>2022-03-27T13:58:23Z</time>
      </trkpt>
      <trkpt lat="48.57774" lon="1.98146">
        <ele>102</ele>
        <time>2022-03-27T13:58:25Z</time>
      </trkpt>
      <trkpt lat="48.57775" lon="1.98151">
        <ele>102</ele>
        <time>2022-03-27T13:58:27Z</time>
      </trkpt>
      <trkpt lat="48.57776" lon="1.98156">
        <ele>102</ele>
        <time>2022-03-27T13:58:29Z</time>
      </trkpt>
      <trkpt lat="48.57776" lon="1.9816">
        <ele>101</ele>
        <time>2022-03-27T13:58:31Z</time>
      </trkpt>
      <trkpt lat="48.57777" lon="1.98165">
        <ele>101</ele>
        <time>2022-03-27T13:58:33Z</time>
      </trkpt>
      <trkpt lat="48.57778" lon="1.98169">
        <ele>101</ele>
        <time>2022-03-27T13:58:35Z</time>
      </trkpt>
      <trkpt lat="48.57778" lon="1.98174">
        <ele>101</ele>
        <time>2022-03-27T13:58:37Z</time>
      </trkpt>
      <trkpt lat="48.57778" lon="1.98178">
        <ele>101</ele>
        <time>2022-03-27T13:58:39Z</time>
      </trkpt>
      <trkpt lat="48.57779" lon="1.98182">
        <ele>101</ele>
        <time>2022-03-27T13:58:41Z</time>
      </trkpt>
      <trkpt lat="48.5778" lon="1.98187">
        <ele>101</ele>
        <time>2022-03-27T13:58:43Z</time>
      </trkpt>
      <trkpt lat="48.57781" lon="1.98191">
        <ele>102</ele>
        <time>2022-03-27T13:58:44Z</time>
      </trkpt>
      <trkpt lat="48.57782" lon="1.98195">
        <ele>102</ele>
        <time>2022-03-27T13:58:47Z</time>
      </trkpt>
      <trkpt lat="48.57782" lon="1.982">
        <ele>102</ele>
        <time>2022-03-27T13:58:49Z</time>
      </trkpt>
      <trkpt lat="48.57783" lon="1.98204">
        <ele>102</ele>
        <time>2022-03-27T13:58:51Z</time>
      </trkpt>
      <trkpt lat="48.57784" lon="1.98208">
        <ele>102</ele>
        <time>2022-03-27T13:58:53Z</time>
      </trkpt>
      <trkpt lat="48.57784" lon="1.98213">
        <ele>102</ele>
        <time>2022-03-27T13:58:55Z</time>
      </trkpt>
      <trkpt lat="48.57785" lon="1.98217">
        <ele>102</ele>
        <time>2022-03-27T13:58:57Z</time>
      </trkpt>
      <trkpt lat="48.57786" lon="1.98221">
        <ele>102</ele>
        <time>2022-03-27T13:58:59Z</time>
      </trkpt>
      <trkpt lat="48.57786" lon="1.98225">
        <ele>102</ele>
        <time>2022-03-27T13:59:01Z</time>
      </trkpt>
      <trkpt lat="48.57787" lon="1.98228">
        <ele>102</ele>
        <time>2022-03-27T13:59:03Z</time>
      </trkpt>
      <trkpt lat="48.57786" lon="1.98232">
        <ele>101</ele>
        <time>2022-03-27T13:59:06Z</time>
      </trkpt>
      <trkpt lat="48.57784" lon="1.98231">
        <ele>100</ele>
        <time>2022-03-27T13:59:27Z</time>
      </trkpt>
      <trkpt lat="48.57786" lon="1.98232">
        <ele>101</ele>
        <time>2022-03-27T13:59:48Z</time>
      </trkpt>
      <trkpt lat="48.57786" lon="1.98235">
        <ele>101</ele>
        <time>2022-03-27T14:00:27Z</time>
      </trkpt>
      <trkpt lat="48.57786" lon="1.98239">
        <ele>101</ele>
        <time>2022-03-27T14:00:29Z</time>
      </trkpt>
      <trkpt lat="48.57786" lon="1.98244">
        <ele>101</ele>
        <time>2022-03-27T14:00:31Z</time>
      </trkpt>
      <trkpt lat="48.57786" lon="1.98249">
        <ele>101</ele>
        <time>2022-03-27T14:00:33Z</time>
      </trkpt>
      <trkpt lat="48.57786" lon="1.98253">
        <ele>101</ele>
        <time>2022-03-27T14:00:35Z</time>
      </trkpt>
      <trkpt lat="48.57786" lon="1.98258">
        <ele>101</ele>
        <time>2022-03-27T14:00:37Z</time>
      </trkpt>
      <trkpt lat="48.57786" lon="1.98263">
        <ele>101</ele>
        <time>2022-03-27T14:00:39Z</time>
      </trkpt>
      <trkpt lat="48.57786" lon="1.98268">
        <ele>101</ele>
        <time>2022-03-27T14:00:41Z</time>
      </trkpt>
      <trkpt lat="48.57787" lon="1.98273">
        <ele>100</ele>
        <time>2022-03-27T14:00:43Z</time>
      </trkpt>
      <trkpt lat="48.57787" lon="1.98278">
        <ele>100</ele>
        <time>2022-03-27T14:00:45Z</time>
      </trkpt>
      <trkpt lat="48.57787" lon="1.98283">
        <ele>100</ele>
        <time>2022-03-27T14:00:47Z</time>
      </trkpt>
      <trkpt lat="48.57787" lon="1.98288">
        <ele>100</ele>
        <time>2022-03-27T14:00:49Z</time>
      </trkpt>
      <trkpt lat="48.57786" lon="1.98293">
        <ele>99</ele>
        <time>2022-03-27T14:00:51Z</time>
      </trkpt>
      <trkpt lat="48.57786" lon="1.98297">
        <ele>99</ele>
        <time>2022-03-27T14:00:53Z</time>
      </trkpt>
      <trkpt lat="48.57786" lon="1.98302">
        <ele>99</ele>
        <time>2022-03-27T14:00:55Z</time>
      </trkpt>
      <trkpt lat="48.57786" lon="1.98306">
        <ele>99</ele>
        <time>2022-03-27T14:00:57Z</time>
      </trkpt>
      <trkpt lat="48.57786" lon="1.98311">
        <ele>99</ele>
        <time>2022-03-27T14:00:59Z</time>
      </trkpt>
      <trkpt lat="48.57785" lon="1.98315">
        <ele>99</ele>
        <time>2022-03-27T14:01:01Z</time>
      </trkpt>
      <trkpt lat="48.57785" lon="1.9832">
        <ele>99</ele>
        <time>2022-03-27T14:01:03Z</time>
      </trkpt>
      <trkpt lat="48.57786" lon="1.98324">
        <ele>99</ele>
        <time>2022-03-27T14:01:05Z</time>
      </trkpt>
      <trkpt lat="48.57786" lon="1.98329">
        <ele>99</ele>
        <time>2022-03-27T14:01:07Z</time>
      </trkpt>
      <trkpt lat="48.57786" lon="1.98334">
        <ele>99</ele>
        <time>2022-03-27T14:01:09Z</time>
      </trkpt>
      <trkpt lat="48.57785" lon="1.98339">
        <ele>99</ele>
        <time>2022-03-27T14:01:11Z</time>
      </trkpt>
      <trkpt lat="48.57785" lon="1.98344">
        <ele>100</ele>
        <time>2022-03-27T14:01:13Z</time>
      </trkpt>
      <trkpt lat="48.57785" lon="1.98349">
        <ele>100</ele>
        <time>2022-03-27T14:01:15Z</time>
      </trkpt>
      <trkpt lat="48.57785" lon="1.98353">
        <ele>100</ele>
        <time>2022-03-27T14:01:17Z</time>
      </trkpt>
      <trkpt lat="48.57785" lon="1.98358">
        <ele>100</ele>
        <time>2022-03-27T14:01:19Z</time>
      </trkpt>
      <trkpt lat="48.57785" lon="1.98363">
        <ele>100</ele>
        <time>2022-03-27T14:01:21Z</time>
      </trkpt>
      <trkpt lat="48.57785" lon="1.98368">
        <ele>99</ele>
        <time>2022-03-27T14:01:23Z</time>
      </trkpt>
      <trkpt lat="48.57784" lon="1.98372">
        <ele>99</ele>
        <time>2022-03-27T14:01:25Z</time>
      </trkpt>
      <trkpt lat="48.57784" lon="1.98377">
        <ele>99</ele>
        <time>2022-03-27T14:01:27Z</time>
      </trkpt>
      <trkpt lat="48.57785" lon="1.98382">
        <ele>99</ele>
        <time>2022-03-27T14:01:29Z</time>
      </trkpt>
      <trkpt lat="48.57785" lon="1.98387">
        <ele>99</ele>
        <time>2022-03-27T14:01:31Z</time>
      </trkpt>
      <trkpt lat="48.57785" lon="1.98391">
        <ele>99</ele>
        <time>2022-03-27T14:01:33Z</time>
      </trkpt>
      <trkpt lat="48.57785" lon="1.98396">
        <ele>99</ele>
        <time>2022-03-27T14:01:35Z</time>
      </trkpt>
      <trkpt lat="48.57785" lon="1.984">
        <ele>99</ele>
        <time>2022-03-27T14:01:37Z</time>
      </trkpt>
      <trkpt lat="48.57786" lon="1.98405">
        <ele>99</ele>
        <time>2022-03-27T14:01:39Z</time>
      </trkpt>
      <trkpt lat="48.57786" lon="1.98409">
        <ele>99</ele>
        <time>2022-03-27T14:01:41Z</time>
      </trkpt>
      <trkpt lat="48.57786" lon="1.98414">
        <ele>99</ele>
        <time>2022-03-27T14:01:43Z</time>
      </trkpt>
      <trkpt lat="48.57786" lon="1.98419">
        <ele>99</ele>
        <time>2022-03-27T14:01:45Z</time>
      </trkpt>
      <trkpt lat="48.57786" lon="1.98424">
        <ele>99</ele>
        <time>2022-03-27T14:01:47Z</time>
      </trkpt>
      <trkpt lat="48.57786" lon="1.98429">
        <ele>99</ele>
        <time>2022-03-27T14:01:49Z</time>
      </trkpt>
      <trkpt lat="48.57786" lon="1.98433">
        <ele>99</ele>
        <time>2022-03-27T14:01:51Z</time>
      </trkpt>
      <trkpt lat="48.57786" lon="1.98438">
        <ele>99</ele>
        <time>2022-03-27T14:01:53Z</time>
      </trkpt>
      <trkpt lat="48.57786" lon="1.98442">
        <ele>99</ele>
        <time>2022-03-27T14:01:55Z</time>
      </trkpt>
      <trkpt lat="48.57787" lon="1.98446">
        <ele>99</ele>
        <time>2022-03-27T14:01:57Z</time>
      </trkpt>
      <trkpt lat="48.57787" lon="1.9845">
        <ele>99</ele>
        <time>2022-03-27T14:01:59Z</time>
      </trkpt>
      <trkpt lat="48.57787" lon="1.98454">
        <ele>99</ele>
        <time>2022-03-27T14:02:01Z</time>
      </trkpt>
      <trkpt lat="48.57788" lon="1.98459">
        <ele>99</ele>
        <time>2022-03-27T14:02:03Z</time>
      </trkpt>
      <trkpt lat="48.57788" lon="1.98463">
        <ele>99</ele>
        <time>2022-03-27T14:02:05Z</time>
      </trkpt>
      <trkpt lat="48.57788" lon="1.98468">
        <ele>99</ele>
        <time>2022-03-27T14:02:07Z</time>
      </trkpt>
      <trkpt lat="48.57788" lon="1.98471">
        <ele>99</ele>
        <time>2022-03-27T14:02:08Z</time>
      </trkpt>
      <trkpt lat="48.57788" lon="1.98477">
        <ele>99</ele>
        <time>2022-03-27T14:02:10Z</time>
      </trkpt>
      <trkpt lat="48.57789" lon="1.98482">
        <ele>99</ele>
        <time>2022-03-27T14:02:12Z</time>
      </trkpt>
      <trkpt lat="48.57789" lon="1.98488">
        <ele>98</ele>
        <time>2022-03-27T14:02:14Z</time>
      </trkpt>
      <trkpt lat="48.57789" lon="1.9849">
        <ele>99</ele>
        <time>2022-03-27T14:02:15Z</time>
      </trkpt>
      <trkpt lat="48.57789" lon="1.98495">
        <ele>99</ele>
        <time>2022-03-27T14:02:17Z</time>
      </trkpt>
      <trkpt lat="48.57789" lon="1.985">
        <ele>99</ele>
        <time>2022-03-27T14:02:19Z</time>
      </trkpt>
      <trkpt lat="48.57789" lon="1.98505">
        <ele>99</ele>
        <time>2022-03-27T14:02:21Z</time>
      </trkpt>
      <trkpt lat="48.5779" lon="1.9851">
        <ele>99</ele>
        <time>2022-03-27T14:02:23Z</time>
      </trkpt>
      <trkpt lat="48.5779" lon="1.98515">
        <ele>99</ele>
        <time>2022-03-27T14:02:25Z</time>
      </trkpt>
      <trkpt lat="48.5779" lon="1.98521">
        <ele>99</ele>
        <time>2022-03-27T14:02:27Z</time>
      </trkpt>
      <trkpt lat="48.57791" lon="1.98526">
        <ele>98</ele>
        <time>2022-03-27T14:02:29Z</time>
      </trkpt>
      <trkpt lat="48.57791" lon="1.98531">
        <ele>99</ele>
        <time>2022-03-27T14:02:31Z</time>
      </trkpt>
      <trkpt lat="48.57792" lon="1.98536">
        <ele>99</ele>
        <time>2022-03-27T14:02:33Z</time>
      </trkpt>
      <trkpt lat="48.57792" lon="1.98541">
        <ele>99</ele>
        <time>2022-03-27T14:02:35Z</time>
      </trkpt>
      <trkpt lat="48.57792" lon="1.98546">
        <ele>99</ele>
        <time>2022-03-27T14:02:37Z</time>
      </trkpt>
      <trkpt lat="48.57793" lon="1.98551">
        <ele>99</ele>
        <time>2022-03-27T14:02:39Z</time>
      </trkpt>
      <trkpt lat="48.57793" lon="1.98555">
        <ele>99</ele>
        <time>2022-03-27T14:02:41Z</time>
      </trkpt>
      <trkpt lat="48.57794" lon="1.9856">
        <ele>99</ele>
        <time>2022-03-27T14:02:43Z</time>
      </trkpt>
      <trkpt lat="48.57794" lon="1.98564">
        <ele>99</ele>
        <time>2022-03-27T14:02:45Z</time>
      </trkpt>
      <trkpt lat="48.57795" lon="1.98569">
        <ele>98</ele>
        <time>2022-03-27T14:02:47Z</time>
      </trkpt>
      <trkpt lat="48.57795" lon="1.98574">
        <ele>98</ele>
        <time>2022-03-27T14:02:49Z</time>
      </trkpt>
      <trkpt lat="48.57795" lon="1.98578">
        <ele>98</ele>
        <time>2022-03-27T14:02:51Z</time>
      </trkpt>
      <trkpt lat="48.57796" lon="1.98583">
        <ele>98</ele>
        <time>2022-03-27T14:02:53Z</time>
      </trkpt>
      <trkpt lat="48.57796" lon="1.98588">
        <ele>98</ele>
        <time>2022-03-27T14:02:55Z</time>
      </trkpt>
      <trkpt lat="48.57796" lon="1.98592">
        <ele>98</ele>
        <time>2022-03-27T14:02:57Z</time>
      </trkpt>
      <trkpt lat="48.57797" lon="1.98597">
        <ele>98</ele>
        <time>2022-03-27T14:02:59Z</time>
      </trkpt>
      <trkpt lat="48.57798" lon="1.98601">
        <ele>99</ele>
        <time>2022-03-27T14:03:01Z</time>
      </trkpt>
      <trkpt lat="48.57798" lon="1.98605">
        <ele>99</ele>
        <time>2022-03-27T14:03:03Z</time>
      </trkpt>
      <trkpt lat="48.57798" lon="1.9861">
        <ele>99</ele>
        <time>2022-03-27T14:03:05Z</time>
      </trkpt>
      <trkpt lat="48.57799" lon="1.98614">
        <ele>99</ele>
        <time>2022-03-27T14:03:07Z</time>
      </trkpt>
      <trkpt lat="48.57799" lon="1.98619">
        <ele>99</ele>
        <time>2022-03-27T14:03:09Z</time>
      </trkpt>
      <trkpt lat="48.57799" lon="1.98623">
        <ele>99</ele>
        <time>2022-03-27T14:03:11Z</time>
      </trkpt>
      <trkpt lat="48.578" lon="1.98628">
        <ele>99</ele>
        <time>2022-03-27T14:03:13Z</time>
      </trkpt>
      <trkpt lat="48.578" lon="1.98632">
        <ele>99</ele>
        <time>2022-03-27T14:03:15Z</time>
      </trkpt>
      <trkpt lat="48.578" lon="1.98637">
        <ele>99</ele>
        <time>2022-03-27T14:03:17Z</time>
      </trkpt>
      <trkpt lat="48.578" lon="1.98641">
        <ele>99</ele>
        <time>2022-03-27T14:03:19Z</time>
      </trkpt>
      <trkpt lat="48.57801" lon="1.98645">
        <ele>98</ele>
        <time>2022-03-27T14:03:21Z</time>
      </trkpt>
      <trkpt lat="48.57801" lon="1.98649">
        <ele>98</ele>
        <time>2022-03-27T14:03:23Z</time>
      </trkpt>
      <trkpt lat="48.57801" lon="1.98654">
        <ele>98</ele>
        <time>2022-03-27T14:03:25Z</time>
      </trkpt>
      <trkpt lat="48.57801" lon="1.98658">
        <ele>98</ele>
        <time>2022-03-27T14:03:27Z</time>
      </trkpt>
      <trkpt lat="48.57802" lon="1.98663">
        <ele>98</ele>
        <time>2022-03-27T14:03:29Z</time>
      </trkpt>
      <trkpt lat="48.57802" lon="1.98668">
        <ele>98</ele>
        <time>2022-03-27T14:03:31Z</time>
      </trkpt>
      <trkpt lat="48.57803" lon="1.98672">
        <ele>98</ele>
        <time>2022-03-27T14:03:33Z</time>
      </trkpt>
      <trkpt lat="48.57804" lon="1.98677">
        <ele>98</ele>
        <time>2022-03-27T14:03:35Z</time>
      </trkpt>
      <trkpt lat="48.57805" lon="1.98682">
        <ele>98</ele>
        <time>2022-03-27T14:03:37Z</time>
      </trkpt>
      <trkpt lat="48.57806" lon="1.98686">
        <ele>98</ele>
        <time>2022-03-27T14:03:39Z</time>
      </trkpt>
      <trkpt lat="48.57807" lon="1.98691">
        <ele>98</ele>
        <time>2022-03-27T14:03:41Z</time>
      </trkpt>
      <trkpt lat="48.57807" lon="1.98696">
        <ele>98</ele>
        <time>2022-03-27T14:03:43Z</time>
      </trkpt>
      <trkpt lat="48.57808" lon="1.987">
        <ele>98</ele>
        <time>2022-03-27T14:03:45Z</time>
      </trkpt>
      <trkpt lat="48.57808" lon="1.98704">
        <ele>98</ele>
        <time>2022-03-27T14:03:47Z</time>
      </trkpt>
      <trkpt lat="48.57809" lon="1.98708">
        <ele>98</ele>
        <time>2022-03-27T14:03:49Z</time>
      </trkpt>
      <trkpt lat="48.5781" lon="1.98713">
        <ele>98</ele>
        <time>2022-03-27T14:03:51Z</time>
      </trkpt>
      <trkpt lat="48.5781" lon="1.98717">
        <ele>98</ele>
        <time>2022-03-27T14:03:53Z</time>
      </trkpt>
      <trkpt lat="48.57811" lon="1.98722">
        <ele>98</ele>
        <time>2022-03-27T14:03:55Z</time>
      </trkpt>
      <trkpt lat="48.57811" lon="1.98726">
        <ele>98</ele>
        <time>2022-03-27T14:03:57Z</time>
      </trkpt>
      <trkpt lat="48.57812" lon="1.9873">
        <ele>98</ele>
        <time>2022-03-27T14:03:59Z</time>
      </trkpt>
      <trkpt lat="48.57813" lon="1.98734">
        <ele>98</ele>
        <time>2022-03-27T14:04:01Z</time>
      </trkpt>
      <trkpt lat="48.57814" lon="1.98739">
        <ele>98</ele>
        <time>2022-03-27T14:04:03Z</time>
      </trkpt>
      <trkpt lat="48.57815" lon="1.98743">
        <ele>98</ele>
        <time>2022-03-27T14:04:05Z</time>
      </trkpt>
      <trkpt lat="48.57816" lon="1.98747">
        <ele>98</ele>
        <time>2022-03-27T14:04:07Z</time>
      </trkpt>
      <trkpt lat="48.57816" lon="1.98752">
        <ele>98</ele>
        <time>2022-03-27T14:04:09Z</time>
      </trkpt>
      <trkpt lat="48.57817" lon="1.98756">
        <ele>98</ele>
        <time>2022-03-27T14:04:11Z</time>
      </trkpt>
      <trkpt lat="48.57818" lon="1.9876">
        <ele>98</ele>
        <time>2022-03-27T14:04:13Z</time>
      </trkpt>
      <trkpt lat="48.57818" lon="1.98765">
        <ele>97</ele>
        <time>2022-03-27T14:04:15Z</time>
      </trkpt>
      <trkpt lat="48.57819" lon="1.98769">
        <ele>98</ele>
        <time>2022-03-27T14:04:17Z</time>
      </trkpt>
      <trkpt lat="48.5782" lon="1.98773">
        <ele>97</ele>
        <time>2022-03-27T14:04:19Z</time>
      </trkpt>
      <trkpt lat="48.5782" lon="1.98777">
        <ele>97</ele>
        <time>2022-03-27T14:04:21Z</time>
      </trkpt>
      <trkpt lat="48.57821" lon="1.98781">
        <ele>97</ele>
        <time>2022-03-27T14:04:23Z</time>
      </trkpt>
      <trkpt lat="48.57821" lon="1.98786">
        <ele>98</ele>
        <time>2022-03-27T14:04:25Z</time>
      </trkpt>
      <trkpt lat="48.57822" lon="1.9879">
        <ele>98</ele>
        <time>2022-03-27T14:04:27Z</time>
      </trkpt>
      <trkpt lat="48.57823" lon="1.98794">
        <ele>97</ele>
        <time>2022-03-27T14:04:29Z</time>
      </trkpt>
      <trkpt lat="48.57824" lon="1.98798">
        <ele>97</ele>
        <time>2022-03-27T14:04:31Z</time>
      </trkpt>
      <trkpt lat="48.57824" lon="1.98802">
        <ele>97</ele>
        <time>2022-03-27T14:04:33Z</time>
      </trkpt>
      <trkpt lat="48.57825" lon="1.98806">
        <ele>97</ele>
        <time>2022-03-27T14:04:35Z</time>
      </trkpt>
      <trkpt lat="48.57826" lon="1.9881">
        <ele>97</ele>
        <time>2022-03-27T14:04:37Z</time>
      </trkpt>
      <trkpt lat="48.57826" lon="1.98814">
        <ele>97</ele>
        <time>2022-03-27T14:04:39Z</time>
      </trkpt>
      <trkpt lat="48.57826" lon="1.98819">
        <ele>97</ele>
        <time>2022-03-27T14:04:41Z</time>
      </trkpt>
      <trkpt lat="48.57827" lon="1.98823">
        <ele>97</ele>
        <time>2022-03-27T14:04:43Z</time>
      </trkpt>
      <trkpt lat="48.57827" lon="1.98827">
        <ele>97</ele>
        <time>2022-03-27T14:04:45Z</time>
      </trkpt>
      <trkpt lat="48.57828" lon="1.98832">
        <ele>97</ele>
        <time>2022-03-27T14:04:47Z</time>
      </trkpt>
      <trkpt lat="48.57828" lon="1.98836">
        <ele>97</ele>
        <time>2022-03-27T14:04:49Z</time>
      </trkpt>
      <trkpt lat="48.57829" lon="1.9884">
        <ele>97</ele>
        <time>2022-03-27T14:04:51Z</time>
      </trkpt>
      <trkpt lat="48.57829" lon="1.98844">
        <ele>97</ele>
        <time>2022-03-27T14:04:53Z</time>
      </trkpt>
      <trkpt lat="48.5783" lon="1.98848">
        <ele>97</ele>
        <time>2022-03-27T14:04:55Z</time>
      </trkpt>
      <trkpt lat="48.5783" lon="1.98853">
        <ele>97</ele>
        <time>2022-03-27T14:04:57Z</time>
      </trkpt>
      <trkpt lat="48.57831" lon="1.98857">
        <ele>97</ele>
        <time>2022-03-27T14:04:59Z</time>
      </trkpt>
      <trkpt lat="48.57832" lon="1.98862">
        <ele>98</ele>
        <time>2022-03-27T14:05:01Z</time>
      </trkpt>
      <trkpt lat="48.57832" lon="1.98867">
        <ele>98</ele>
        <time>2022-03-27T14:05:03Z</time>
      </trkpt>
      <trkpt lat="48.57833" lon="1.98871">
        <ele>98</ele>
        <time>2022-03-27T14:05:05Z</time>
      </trkpt>
      <trkpt lat="48.57833" lon="1.98876">
        <ele>98</ele>
        <time>2022-03-27T14:05:07Z</time>
      </trkpt>
      <trkpt lat="48.57833" lon="1.9888">
        <ele>98</ele>
        <time>2022-03-27T14:05:09Z</time>
      </trkpt>
      <trkpt lat="48.57834" lon="1.98884">
        <ele>98</ele>
        <time>2022-03-27T14:05:11Z</time>
      </trkpt>
      <trkpt lat="48.57834" lon="1.98888">
        <ele>97</ele>
        <time>2022-03-27T14:05:13Z</time>
      </trkpt>
      <trkpt lat="48.57834" lon="1.98892">
        <ele>97</ele>
        <time>2022-03-27T14:05:15Z</time>
      </trkpt>
      <trkpt lat="48.57834" lon="1.98896">
        <ele>97</ele>
        <time>2022-03-27T14:05:17Z</time>
      </trkpt>
      <trkpt lat="48.57834" lon="1.989">
        <ele>97</ele>
        <time>2022-03-27T14:05:19Z</time>
      </trkpt>
      <trkpt lat="48.57834" lon="1.98904">
        <ele>97</ele>
        <time>2022-03-27T14:05:21Z</time>
      </trkpt>
      <trkpt lat="48.57835" lon="1.98907">
        <ele>98</ele>
        <time>2022-03-27T14:05:23Z</time>
      </trkpt>
      <trkpt lat="48.57836" lon="1.9891">
        <ele>98</ele>
        <time>2022-03-27T14:05:25Z</time>
      </trkpt>
      <trkpt lat="48.57837" lon="1.98912">
        <ele>98</ele>
        <time>2022-03-27T14:05:56Z</time>
      </trkpt>
      <trkpt lat="48.57838" lon="1.98914">
        <ele>99</ele>
        <time>2022-03-27T14:07:44Z</time>
      </trkpt>
      <trkpt lat="48.57839" lon="1.98918">
        <ele>99</ele>
        <time>2022-03-27T14:07:46Z</time>
      </trkpt>
      <trkpt lat="48.57839" lon="1.98922">
        <ele>99</ele>
        <time>2022-03-27T14:07:48Z</time>
      </trkpt>
      <trkpt lat="48.57838" lon="1.98926">
        <ele>98</ele>
        <time>2022-03-27T14:07:50Z</time>
      </trkpt>
      <trkpt lat="48.57836" lon="1.9893">
        <ele>98</ele>
        <time>2022-03-27T14:07:52Z</time>
      </trkpt>
      <trkpt lat="48.57836" lon="1.98935">
        <ele>98</ele>
        <time>2022-03-27T14:07:54Z</time>
      </trkpt>
      <trkpt lat="48.57835" lon="1.98939">
        <ele>98</ele>
        <time>2022-03-27T14:07:56Z</time>
      </trkpt>
      <trkpt lat="48.57834" lon="1.98943">
        <ele>98</ele>
        <time>2022-03-27T14:07:58Z</time>
      </trkpt>
      <trkpt lat="48.57833" lon="1.98947">
        <ele>98</ele>
        <time>2022-03-27T14:08:00Z</time>
      </trkpt>
      <trkpt lat="48.57832" lon="1.98952">
        <ele>98</ele>
        <time>2022-03-27T14:08:02Z</time>
      </trkpt>
      <trkpt lat="48.57831" lon="1.98956">
        <ele>98</ele>
        <time>2022-03-27T14:08:04Z</time>
      </trkpt>
      <trkpt lat="48.5783" lon="1.98961">
        <ele>98</ele>
        <time>2022-03-27T14:08:06Z</time>
      </trkpt>
      <trkpt lat="48.57829" lon="1.98965">
        <ele>98</ele>
        <time>2022-03-27T14:08:08Z</time>
      </trkpt>
      <trkpt lat="48.57828" lon="1.9897">
        <ele>98</ele>
        <time>2022-03-27T14:08:10Z</time>
      </trkpt>
      <trkpt lat="48.57828" lon="1.98974">
        <ele>97</ele>
        <time>2022-03-27T14:08:12Z</time>
      </trkpt>
      <trkpt lat="48.57828" lon="1.98979">
        <ele>97</ele>
        <time>2022-03-27T14:08:14Z</time>
      </trkpt>
      <trkpt lat="48.57827" lon="1.98983">
        <ele>97</ele>
        <time>2022-03-27T14:08:16Z</time>
      </trkpt>
      <trkpt lat="48.57826" lon="1.98987">
        <ele>97</ele>
        <time>2022-03-27T14:08:18Z</time>
      </trkpt>
      <trkpt lat="48.57826" lon="1.98992">
        <ele>97</ele>
        <time>2022-03-27T14:08:20Z</time>
      </trkpt>
      <trkpt lat="48.57826" lon="1.98997">
        <ele>97</ele>
        <time>2022-03-27T14:08:22Z</time>
      </trkpt>
      <trkpt lat="48.57827" lon="1.99001">
        <ele>97</ele>
        <time>2022-03-27T14:08:24Z</time>
      </trkpt>
      <trkpt lat="48.57827" lon="1.99006">
        <ele>97</ele>
        <time>2022-03-27T14:08:26Z</time>
      </trkpt>
      <trkpt lat="48.57827" lon="1.9901">
        <ele>97</ele>
        <time>2022-03-27T14:08:28Z</time>
      </trkpt>
      <trkpt lat="48.57828" lon="1.99015">
        <ele>97</ele>
        <time>2022-03-27T14:08:30Z</time>
      </trkpt>
      <trkpt lat="48.57828" lon="1.9902">
        <ele>97</ele>
        <time>2022-03-27T14:08:32Z</time>
      </trkpt>
      <trkpt lat="48.57828" lon="1.99024">
        <ele>98</ele>
        <time>2022-03-27T14:08:34Z</time>
      </trkpt>
      <trkpt lat="48.57829" lon="1.99029">
        <ele>98</ele>
        <time>2022-03-27T14:08:36Z</time>
      </trkpt>
      <trkpt lat="48.57829" lon="1.99033">
        <ele>98</ele>
        <time>2022-03-27T14:08:38Z</time>
      </trkpt>
      <trkpt lat="48.5783" lon="1.99038">
        <ele>98</ele>
        <time>2022-03-27T14:08:40Z</time>
      </trkpt>
      <trkpt lat="48.5783" lon="1.99042">
        <ele>98</ele>
        <time>2022-03-27T14:08:42Z</time>
      </trkpt>
      <trkpt lat="48.5783" lon="1.99046">
        <ele>98</ele>
        <time>2022-03-27T14:08:44Z</time>
      </trkpt>
      <trkpt lat="48.57831" lon="1.9905">
        <ele>98</ele>
        <time>2022-03-27T14:08:46Z</time>
      </trkpt>
      <trkpt lat="48.57831" lon="1.99054">
        <ele>98</ele>
        <time>2022-03-27T14:08:48Z</time>
      </trkpt>
      <trkpt lat="48.57832" lon="1.99059">
        <ele>98</ele>
        <time>2022-03-27T14:08:50Z</time>
      </trkpt>
      <trkpt lat="48.57832" lon="1.99062">
        <ele>98</ele>
        <time>2022-03-27T14:08:52Z</time>
      </trkpt>
      <trkpt lat="48.57833" lon="1.99066">
        <ele>98</ele>
        <time>2022-03-27T14:08:54Z</time>
      </trkpt>
      <trkpt lat="48.57833" lon="1.9907">
        <ele>98</ele>
        <time>2022-03-27T14:08:56Z</time>
      </trkpt>
      <trkpt lat="48.57834" lon="1.99073">
        <ele>98</ele>
        <time>2022-03-27T14:08:58Z</time>
      </trkpt>
      <trkpt lat="48.57835" lon="1.99077">
        <ele>98</ele>
        <time>2022-03-27T14:09:00Z</time>
      </trkpt>
      <trkpt lat="48.57836" lon="1.99081">
        <ele>98</ele>
        <time>2022-03-27T14:09:02Z</time>
      </trkpt>
      <trkpt lat="48.57837" lon="1.99085">
        <ele>98</ele>
        <time>2022-03-27T14:09:04Z</time>
      </trkpt>
      <trkpt lat="48.57838" lon="1.9909">
        <ele>98</ele>
        <time>2022-03-27T14:09:06Z</time>
      </trkpt>
      <trkpt lat="48.57839" lon="1.99094">
        <ele>98</ele>
        <time>2022-03-27T14:09:08Z</time>
      </trkpt>
      <trkpt lat="48.5784" lon="1.99098">
        <ele>98</ele>
        <time>2022-03-27T14:09:10Z</time>
      </trkpt>
      <trkpt lat="48.57842" lon="1.99102">
        <ele>98</ele>
        <time>2022-03-27T14:09:12Z</time>
      </trkpt>
      <trkpt lat="48.57843" lon="1.99105">
        <ele>98</ele>
        <time>2022-03-27T14:09:14Z</time>
      </trkpt>
      <trkpt lat="48.57844" lon="1.99109">
        <ele>98</ele>
        <time>2022-03-27T14:09:16Z</time>
      </trkpt>
      <trkpt lat="48.57845" lon="1.99113">
        <ele>98</ele>
        <time>2022-03-27T14:09:18Z</time>
      </trkpt>
      <trkpt lat="48.57847" lon="1.99118">
        <ele>98</ele>
        <time>2022-03-27T14:09:20Z</time>
      </trkpt>
      <trkpt lat="48.57848" lon="1.99121">
        <ele>98</ele>
        <time>2022-03-27T14:09:22Z</time>
      </trkpt>
      <trkpt lat="48.57849" lon="1.99125">
        <ele>98</ele>
        <time>2022-03-27T14:09:24Z</time>
      </trkpt>
      <trkpt lat="48.57851" lon="1.9913">
        <ele>98</ele>
        <time>2022-03-27T14:09:26Z</time>
      </trkpt>
      <trkpt lat="48.57852" lon="1.99134">
        <ele>98</ele>
        <time>2022-03-27T14:09:28Z</time>
      </trkpt>
      <trkpt lat="48.57853" lon="1.99138">
        <ele>98</ele>
        <time>2022-03-27T14:09:30Z</time>
      </trkpt>
      <trkpt lat="48.57854" lon="1.99141">
        <ele>98</ele>
        <time>2022-03-27T14:09:32Z</time>
      </trkpt>
      <trkpt lat="48.57855" lon="1.99145">
        <ele>97</ele>
        <time>2022-03-27T14:09:34Z</time>
      </trkpt>
      <trkpt lat="48.57856" lon="1.9915">
        <ele>97</ele>
        <time>2022-03-27T14:09:36Z</time>
      </trkpt>
      <trkpt lat="48.57857" lon="1.99154">
        <ele>98</ele>
        <time>2022-03-27T14:09:38Z</time>
      </trkpt>
      <trkpt lat="48.57858" lon="1.99158">
        <ele>97</ele>
        <time>2022-03-27T14:09:40Z</time>
      </trkpt>
      <trkpt lat="48.57858" lon="1.99163">
        <ele>98</ele>
        <time>2022-03-27T14:09:42Z</time>
      </trkpt>
      <trkpt lat="48.57859" lon="1.99167">
        <ele>98</ele>
        <time>2022-03-27T14:09:44Z</time>
      </trkpt>
      <trkpt lat="48.5786" lon="1.99171">
        <ele>98</ele>
        <time>2022-03-27T14:09:46Z</time>
      </trkpt>
      <trkpt lat="48.57859" lon="1.99176">
        <ele>98</ele>
        <time>2022-03-27T14:09:48Z</time>
      </trkpt>
      <trkpt lat="48.5786" lon="1.9918">
        <ele>98</ele>
        <time>2022-03-27T14:09:50Z</time>
      </trkpt>
      <trkpt lat="48.5786" lon="1.99185">
        <ele>98</ele>
        <time>2022-03-27T14:09:52Z</time>
      </trkpt>
      <trkpt lat="48.5786" lon="1.99189">
        <ele>98</ele>
        <time>2022-03-27T14:09:54Z</time>
      </trkpt>
      <trkpt lat="48.57861" lon="1.99194">
        <ele>98</ele>
        <time>2022-03-27T14:09:56Z</time>
      </trkpt>
      <trkpt lat="48.57861" lon="1.99198">
        <ele>98</ele>
        <time>2022-03-27T14:09:58Z</time>
      </trkpt>
      <trkpt lat="48.57862" lon="1.99203">
        <ele>98</ele>
        <time>2022-03-27T14:10:00Z</time>
      </trkpt>
      <trkpt lat="48.57862" lon="1.99207">
        <ele>98</ele>
        <time>2022-03-27T14:10:02Z</time>
      </trkpt>
      <trkpt lat="48.57862" lon="1.99212">
        <ele>98</ele>
        <time>2022-03-27T14:10:04Z</time>
      </trkpt>
      <trkpt lat="48.57862" lon="1.99216">
        <ele>98</ele>
        <time>2022-03-27T14:10:06Z</time>
      </trkpt>
      <trkpt lat="48.57862" lon="1.99221">
        <ele>99</ele>
        <time>2022-03-27T14:10:08Z</time>
      </trkpt>
      <trkpt lat="48.57862" lon="1.99225">
        <ele>98</ele>
        <time>2022-03-27T14:10:10Z</time>
      </trkpt>
      <trkpt lat="48.57861" lon="1.9923">
        <ele>98</ele>
        <time>2022-03-27T14:10:12Z</time>
      </trkpt>
      <trkpt lat="48.57861" lon="1.99234">
        <ele>98</ele>
        <time>2022-03-27T14:10:14Z</time>
      </trkpt>
      <trkpt lat="48.57861" lon="1.99239">
        <ele>98</ele>
        <time>2022-03-27T14:10:16Z</time>
      </trkpt>
      <trkpt lat="48.5786" lon="1.99243">
        <ele>98</ele>
        <time>2022-03-27T14:10:18Z</time>
      </trkpt>
      <trkpt lat="48.57859" lon="1.99248">
        <ele>98</ele>
        <time>2022-03-27T14:10:20Z</time>
      </trkpt>
      <trkpt lat="48.57859" lon="1.99253">
        <ele>98</ele>
        <time>2022-03-27T14:10:22Z</time>
      </trkpt>
      <trkpt lat="48.57859" lon="1.99258">
        <ele>98</ele>
        <time>2022-03-27T14:10:24Z</time>
      </trkpt>
      <trkpt lat="48.57858" lon="1.99262">
        <ele>98</ele>
        <time>2022-03-27T14:10:26Z</time>
      </trkpt>
      <trkpt lat="48.57858" lon="1.99267">
        <ele>98</ele>
        <time>2022-03-27T14:10:28Z</time>
      </trkpt>
      <trkpt lat="48.57858" lon="1.99272">
        <ele>98</ele>
        <time>2022-03-27T14:10:30Z</time>
      </trkpt>
      <trkpt lat="48.57858" lon="1.99276">
        <ele>98</ele>
        <time>2022-03-27T14:10:32Z</time>
      </trkpt>
      <trkpt lat="48.57857" lon="1.99281">
        <ele>98</ele>
        <time>2022-03-27T14:10:34Z</time>
      </trkpt>
      <trkpt lat="48.57857" lon="1.99286">
        <ele>98</ele>
        <time>2022-03-27T14:10:36Z</time>
      </trkpt>
      <trkpt lat="48.57857" lon="1.9929">
        <ele>98</ele>
        <time>2022-03-27T14:10:38Z</time>
      </trkpt>
      <trkpt lat="48.57857" lon="1.99295">
        <ele>98</ele>
        <time>2022-03-27T14:10:40Z</time>
      </trkpt>
      <trkpt lat="48.57857" lon="1.99299">
        <ele>98</ele>
        <time>2022-03-27T14:10:42Z</time>
      </trkpt>
      <trkpt lat="48.57856" lon="1.99304">
        <ele>98</ele>
        <time>2022-03-27T14:10:44Z</time>
      </trkpt>
      <trkpt lat="48.57856" lon="1.99308">
        <ele>98</ele>
        <time>2022-03-27T14:10:46Z</time>
      </trkpt>
      <trkpt lat="48.57856" lon="1.99313">
        <ele>99</ele>
        <time>2022-03-27T14:10:48Z</time>
      </trkpt>
      <trkpt lat="48.57856" lon="1.99317">
        <ele>98</ele>
        <time>2022-03-27T14:10:50Z</time>
      </trkpt>
      <trkpt lat="48.57855" lon="1.99322">
        <ele>98</ele>
        <time>2022-03-27T14:10:52Z</time>
      </trkpt>
      <trkpt lat="48.57855" lon="1.99326">
        <ele>98</ele>
        <time>2022-03-27T14:10:54Z</time>
      </trkpt>
      <trkpt lat="48.57855" lon="1.99331">
        <ele>98</ele>
        <time>2022-03-27T14:10:56Z</time>
      </trkpt>
      <trkpt lat="48.57854" lon="1.99336">
        <ele>99</ele>
        <time>2022-03-27T14:10:58Z</time>
      </trkpt>
      <trkpt lat="48.57854" lon="1.9934">
        <ele>99</ele>
        <time>2022-03-27T14:11:00Z</time>
      </trkpt>
      <trkpt lat="48.57854" lon="1.99345">
        <ele>99</ele>
        <time>2022-03-27T14:11:02Z</time>
      </trkpt>
      <trkpt lat="48.57854" lon="1.99349">
        <ele>99</ele>
        <time>2022-03-27T14:11:04Z</time>
      </trkpt>
      <trkpt lat="48.57854" lon="1.99353">
        <ele>99</ele>
        <time>2022-03-27T14:11:06Z</time>
      </trkpt>
      <trkpt lat="48.57853" lon="1.99358">
        <ele>99</ele>
        <time>2022-03-27T14:11:08Z</time>
      </trkpt>
      <trkpt lat="48.57853" lon="1.99362">
        <ele>99</ele>
        <time>2022-03-27T14:11:10Z</time>
      </trkpt>
      <trkpt lat="48.57853" lon="1.99366">
        <ele>99</ele>
        <time>2022-03-27T14:11:12Z</time>
      </trkpt>
      <trkpt lat="48.57853" lon="1.99371">
        <ele>99</ele>
        <time>2022-03-27T14:11:14Z</time>
      </trkpt>
      <trkpt lat="48.57852" lon="1.99375">
        <ele>99</ele>
        <time>2022-03-27T14:11:16Z</time>
      </trkpt>
      <trkpt lat="48.57852" lon="1.99379">
        <ele>99</ele>
        <time>2022-03-27T14:11:18Z</time>
      </trkpt>
      <trkpt lat="48.57852" lon="1.99384">
        <ele>98</ele>
        <time>2022-03-27T14:11:20Z</time>
      </trkpt>
      <trkpt lat="48.57852" lon="1.99388">
        <ele>98</ele>
        <time>2022-03-27T14:11:22Z</time>
      </trkpt>
      <trkpt lat="48.57852" lon="1.99392">
        <ele>98</ele>
        <time>2022-03-27T14:11:24Z</time>
      </trkpt>
      <trkpt lat="48.57852" lon="1.99397">
        <ele>98</ele>
        <time>2022-03-27T14:11:26Z</time>
      </trkpt>
      <trkpt lat="48.57852" lon="1.99401">
        <ele>98</ele>
        <time>2022-03-27T14:11:28Z</time>
      </trkpt>
      <trkpt lat="48.57851" lon="1.99406">
        <ele>98</ele>
        <time>2022-03-27T14:11:30Z</time>
      </trkpt>
      <trkpt lat="48.57851" lon="1.9941">
        <ele>98</ele>
        <time>2022-03-27T14:11:32Z</time>
      </trkpt>
      <trkpt lat="48.57851" lon="1.99415">
        <ele>98</ele>
        <time>2022-03-27T14:11:34Z</time>
      </trkpt>
      <trkpt lat="48.57851" lon="1.99419">
        <ele>98</ele>
        <time>2022-03-27T14:11:36Z</time>
      </trkpt>
      <trkpt lat="48.57851" lon="1.99424">
        <ele>98</ele>
        <time>2022-03-27T14:11:38Z</time>
      </trkpt>
      <trkpt lat="48.57851" lon="1.99428">
        <ele>98</ele>
        <time>2022-03-27T14:11:40Z</time>
      </trkpt>
      <trkpt lat="48.57851" lon="1.99432">
        <ele>98</ele>
        <time>2022-03-27T14:11:42Z</time>
      </trkpt>
      <trkpt lat="48.57852" lon="1.99437">
        <ele>98</ele>
        <time>2022-03-27T14:11:44Z</time>
      </trkpt>
      <trkpt lat="48.57851" lon="1.99441">
        <ele>98</ele>
        <time>2022-03-27T14:11:46Z</time>
      </trkpt>
      <trkpt lat="48.57851" lon="1.99446">
        <ele>98</ele>
        <time>2022-03-27T14:11:48Z</time>
      </trkpt>
      <trkpt lat="48.57851" lon="1.99451">
        <ele>98</ele>
        <time>2022-03-27T14:11:50Z</time>
      </trkpt>
      <trkpt lat="48.57851" lon="1.99455">
        <ele>98</ele>
        <time>2022-03-27T14:11:52Z</time>
      </trkpt>
      <trkpt lat="48.57851" lon="1.99459">
        <ele>98</ele>
        <time>2022-03-27T14:11:54Z</time>
      </trkpt>
      <trkpt lat="48.5785" lon="1.99464">
        <ele>98</ele>
        <time>2022-03-27T14:11:56Z</time>
      </trkpt>
      <trkpt lat="48.5785" lon="1.99468">
        <ele>98</ele>
        <time>2022-03-27T14:11:58Z</time>
      </trkpt>
      <trkpt lat="48.5785" lon="1.99473">
        <ele>98</ele>
        <time>2022-03-27T14:12:00Z</time>
      </trkpt>
      <trkpt lat="48.5785" lon="1.99477">
        <ele>97</ele>
        <time>2022-03-27T14:12:02Z</time>
      </trkpt>
      <trkpt lat="48.5785" lon="1.99482">
        <ele>97</ele>
        <time>2022-03-27T14:12:04Z</time>
      </trkpt>
      <trkpt lat="48.5785" lon="1.99486">
        <ele>97</ele>
        <time>2022-03-27T14:12:06Z</time>
      </trkpt>
      <trkpt lat="48.57849" lon="1.99491">
        <ele>97</ele>
        <time>2022-03-27T14:12:08Z</time>
      </trkpt>
      <trkpt lat="48.57849" lon="1.99496">
        <ele>97</ele>
        <time>2022-03-27T14:12:10Z</time>
      </trkpt>
      <trkpt lat="48.57849" lon="1.995">
        <ele>97</ele>
        <time>2022-03-27T14:12:12Z</time>
      </trkpt>
      <trkpt lat="48.57849" lon="1.99504">
        <ele>97</ele>
        <time>2022-03-27T14:12:14Z</time>
      </trkpt>
      <trkpt lat="48.57849" lon="1.99509">
        <ele>97</ele>
        <time>2022-03-27T14:12:16Z</time>
      </trkpt>
      <trkpt lat="48.57849" lon="1.99514">
        <ele>97</ele>
        <time>2022-03-27T14:12:18Z</time>
      </trkpt>
      <trkpt lat="48.57849" lon="1.99518">
        <ele>97</ele>
        <time>2022-03-27T14:12:20Z</time>
      </trkpt>
      <trkpt lat="48.57849" lon="1.99523">
        <ele>97</ele>
        <time>2022-03-27T14:12:22Z</time>
      </trkpt>
      <trkpt lat="48.57849" lon="1.99527">
        <ele>97</ele>
        <time>2022-03-27T14:12:24Z</time>
      </trkpt>
      <trkpt lat="48.57849" lon="1.99532">
        <ele>97</ele>
        <time>2022-03-27T14:12:26Z</time>
      </trkpt>
      <trkpt lat="48.57849" lon="1.99536">
        <ele>96</ele>
        <time>2022-03-27T14:12:28Z</time>
      </trkpt>
      <trkpt lat="48.57848" lon="1.99541">
        <ele>96</ele>
        <time>2022-03-27T14:12:30Z</time>
      </trkpt>
      <trkpt lat="48.57848" lon="1.99546">
        <ele>96</ele>
        <time>2022-03-27T14:12:32Z</time>
      </trkpt>
      <trkpt lat="48.57848" lon="1.99551">
        <ele>96</ele>
        <time>2022-03-27T14:12:34Z</time>
      </trkpt>
      <trkpt lat="48.57847" lon="1.99555">
        <ele>96</ele>
        <time>2022-03-27T14:12:36Z</time>
      </trkpt>
      <trkpt lat="48.57847" lon="1.9956">
        <ele>96</ele>
        <time>2022-03-27T14:12:38Z</time>
      </trkpt>
      <trkpt lat="48.57847" lon="1.99565">
        <ele>96</ele>
        <time>2022-03-27T14:12:40Z</time>
      </trkpt>
      <trkpt lat="48.57847" lon="1.99569">
        <ele>96</ele>
        <time>2022-03-27T14:12:42Z</time>
      </trkpt>
      <trkpt lat="48.57848" lon="1.99574">
        <ele>96</ele>
        <time>2022-03-27T14:12:44Z</time>
      </trkpt>
      <trkpt lat="48.57848" lon="1.99579">
        <ele>96</ele>
        <time>2022-03-27T14:12:46Z</time>
      </trkpt>
      <trkpt lat="48.57848" lon="1.99583">
        <ele>96</ele>
        <time>2022-03-27T14:12:47Z</time>
      </trkpt>
      <trkpt lat="48.57848" lon="1.99588">
        <ele>96</ele>
        <time>2022-03-27T14:12:50Z</time>
      </trkpt>
      <trkpt lat="48.57848" lon="1.99592">
        <ele>96</ele>
        <time>2022-03-27T14:12:52Z</time>
      </trkpt>
      <trkpt lat="48.57848" lon="1.99597">
        <ele>96</ele>
        <time>2022-03-27T14:12:54Z</time>
      </trkpt>
      <trkpt lat="48.57848" lon="1.99601">
        <ele>96</ele>
        <time>2022-03-27T14:12:56Z</time>
      </trkpt>
      <trkpt lat="48.57848" lon="1.99606">
        <ele>96</ele>
        <time>2022-03-27T14:12:58Z</time>
      </trkpt>
      <trkpt lat="48.57848" lon="1.9961">
        <ele>96</ele>
        <time>2022-03-27T14:13:00Z</time>
      </trkpt>
      <trkpt lat="48.57848" lon="1.99614">
        <ele>96</ele>
        <time>2022-03-27T14:13:02Z</time>
      </trkpt>
      <trkpt lat="48.57848" lon="1.99619">
        <ele>96</ele>
        <time>2022-03-27T14:13:04Z</time>
      </trkpt>
      <trkpt lat="48.57848" lon="1.99623">
        <ele>96</ele>
        <time>2022-03-27T14:13:06Z</time>
      </trkpt>
      <trkpt lat="48.57848" lon="1.99628">
        <ele>96</ele>
        <time>2022-03-27T14:13:08Z</time>
      </trkpt>
      <trkpt lat="48.57848" lon="1.99632">
        <ele>96</ele>
        <time>2022-03-27T14:13:10Z</time>
      </trkpt>
      <trkpt lat="48.57848" lon="1.99637">
        <ele>95</ele>
        <time>2022-03-27T14:13:12Z</time>
      </trkpt>
      <trkpt lat="48.57848" lon="1.99641">
        <ele>95</ele>
        <time>2022-03-27T14:13:14Z</time>
      </trkpt>
      <trkpt lat="48.57848" lon="1.99646">
        <ele>95</ele>
        <time>2022-03-27T14:13:16Z</time>
      </trkpt>
      <trkpt lat="48.57848" lon="1.99651">
        <ele>95</ele>
        <time>2022-03-27T14:13:18Z</time>
      </trkpt>
      <trkpt lat="48.57848" lon="1.99656">
        <ele>95</ele>
        <time>2022-03-27T14:13:20Z</time>
      </trkpt>
      <trkpt lat="48.57847" lon="1.9966">
        <ele>95</ele>
        <time>2022-03-27T14:13:22Z</time>
      </trkpt>
      <trkpt lat="48.57848" lon="1.99665">
        <ele>95</ele>
        <time>2022-03-27T14:13:24Z</time>
      </trkpt>
      <trkpt lat="48.57848" lon="1.99669">
        <ele>95</ele>
        <time>2022-03-27T14:13:26Z</time>
      </trkpt>
      <trkpt lat="48.57848" lon="1.99674">
        <ele>95</ele>
        <time>2022-03-27T14:13:28Z</time>
      </trkpt>
      <trkpt lat="48.57848" lon="1.99678">
        <ele>95</ele>
        <time>2022-03-27T14:13:30Z</time>
      </trkpt>
      <trkpt lat="48.57848" lon="1.99683">
        <ele>94</ele>
        <time>2022-03-27T14:13:32Z</time>
      </trkpt>
      <trkpt lat="48.57848" lon="1.99687">
        <ele>94</ele>
        <time>2022-03-27T14:13:34Z</time>
      </trkpt>
      <trkpt lat="48.57849" lon="1.99691">
        <ele>94</ele>
        <time>2022-03-27T14:13:36Z</time>
      </trkpt>
      <trkpt lat="48.57849" lon="1.99696">
        <ele>94</ele>
        <time>2022-03-27T14:13:38Z</time>
      </trkpt>
      <trkpt lat="48.57849" lon="1.997">
        <ele>94</ele>
        <time>2022-03-27T14:13:40Z</time>
      </trkpt>
      <trkpt lat="48.5785" lon="1.99704">
        <ele>94</ele>
        <time>2022-03-27T14:13:42Z</time>
      </trkpt>
      <trkpt lat="48.5785" lon="1.99709">
        <ele>94</ele>
        <time>2022-03-27T14:13:44Z</time>
      </trkpt>
      <trkpt lat="48.57851" lon="1.99713">
        <ele>94</ele>
        <time>2022-03-27T14:13:46Z</time>
      </trkpt>
      <trkpt lat="48.57851" lon="1.99717">
        <ele>94</ele>
        <time>2022-03-27T14:13:48Z</time>
      </trkpt>
      <trkpt lat="48.57851" lon="1.99721">
        <ele>94</ele>
        <time>2022-03-27T14:13:50Z</time>
      </trkpt>
      <trkpt lat="48.57852" lon="1.99725">
        <ele>94</ele>
        <time>2022-03-27T14:13:52Z</time>
      </trkpt>
      <trkpt lat="48.57852" lon="1.99729">
        <ele>94</ele>
        <time>2022-03-27T14:13:54Z</time>
      </trkpt>
      <trkpt lat="48.57853" lon="1.99733">
        <ele>94</ele>
        <time>2022-03-27T14:13:56Z</time>
      </trkpt>
      <trkpt lat="48.57854" lon="1.99738">
        <ele>94</ele>
        <time>2022-03-27T14:13:58Z</time>
      </trkpt>
      <trkpt lat="48.57854" lon="1.99742">
        <ele>94</ele>
        <time>2022-03-27T14:14:00Z</time>
      </trkpt>
      <trkpt lat="48.57854" lon="1.99747">
        <ele>94</ele>
        <time>2022-03-27T14:14:02Z</time>
      </trkpt>
      <trkpt lat="48.57855" lon="1.99751">
        <ele>94</ele>
        <time>2022-03-27T14:14:04Z</time>
      </trkpt>
      <trkpt lat="48.57856" lon="1.99756">
        <ele>93</ele>
        <time>2022-03-27T14:14:06Z</time>
      </trkpt>
      <trkpt lat="48.57856" lon="1.99761">
        <ele>94</ele>
        <time>2022-03-27T14:14:08Z</time>
      </trkpt>
      <trkpt lat="48.57857" lon="1.99765">
        <ele>93</ele>
        <time>2022-03-27T14:14:10Z</time>
      </trkpt>
      <trkpt lat="48.57858" lon="1.99769">
        <ele>93</ele>
        <time>2022-03-27T14:14:12Z</time>
      </trkpt>
      <trkpt lat="48.57859" lon="1.99774">
        <ele>93</ele>
        <time>2022-03-27T14:14:14Z</time>
      </trkpt>
      <trkpt lat="48.5786" lon="1.99778">
        <ele>93</ele>
        <time>2022-03-27T14:14:16Z</time>
      </trkpt>
      <trkpt lat="48.57861" lon="1.99782">
        <ele>93</ele>
        <time>2022-03-27T14:14:18Z</time>
      </trkpt>
      <trkpt lat="48.57862" lon="1.99787">
        <ele>93</ele>
        <time>2022-03-27T14:14:20Z</time>
      </trkpt>
      <trkpt lat="48.57864" lon="1.99792">
        <ele>93</ele>
        <time>2022-03-27T14:14:22Z</time>
      </trkpt>
      <trkpt lat="48.57864" lon="1.99796">
        <ele>93</ele>
        <time>2022-03-27T14:14:24Z</time>
      </trkpt>
      <trkpt lat="48.57865" lon="1.998">
        <ele>93</ele>
        <time>2022-03-27T14:14:26Z</time>
      </trkpt>
      <trkpt lat="48.57866" lon="1.99805">
        <ele>93</ele>
        <time>2022-03-27T14:14:28Z</time>
      </trkpt>
      <trkpt lat="48.57867" lon="1.99809">
        <ele>93</ele>
        <time>2022-03-27T14:14:30Z</time>
      </trkpt>
      <trkpt lat="48.57867" lon="1.99813">
        <ele>93</ele>
        <time>2022-03-27T14:14:32Z</time>
      </trkpt>
      <trkpt lat="48.57869" lon="1.99818">
        <ele>93</ele>
        <time>2022-03-27T14:14:34Z</time>
      </trkpt>
      <trkpt lat="48.5787" lon="1.99822">
        <ele>93</ele>
        <time>2022-03-27T14:14:36Z</time>
      </trkpt>
      <trkpt lat="48.57872" lon="1.99825">
        <ele>93</ele>
        <time>2022-03-27T14:14:38Z</time>
      </trkpt>
      <trkpt lat="48.57873" lon="1.99829">
        <ele>93</ele>
        <time>2022-03-27T14:14:40Z</time>
      </trkpt>
      <trkpt lat="48.57874" lon="1.99833">
        <ele>93</ele>
        <time>2022-03-27T14:14:42Z</time>
      </trkpt>
      <trkpt lat="48.57876" lon="1.99838">
        <ele>93</ele>
        <time>2022-03-27T14:14:44Z</time>
      </trkpt>
      <trkpt lat="48.57877" lon="1.99842">
        <ele>93</ele>
        <time>2022-03-27T14:14:46Z</time>
      </trkpt>
      <trkpt lat="48.57879" lon="1.99847">
        <ele>94</ele>
        <time>2022-03-27T14:14:48Z</time>
      </trkpt>
      <trkpt lat="48.57879" lon="1.9985">
        <ele>94</ele>
        <time>2022-03-27T14:14:49Z</time>
      </trkpt>
      <trkpt lat="48.5788" lon="1.99852">
        <ele>94</ele>
        <time>2022-03-27T14:14:50Z</time>
      </trkpt>
      <trkpt lat="48.57881" lon="1.99857">
        <ele>94</ele>
        <time>2022-03-27T14:14:52Z</time>
      </trkpt>
      <trkpt lat="48.57882" lon="1.99861">
        <ele>93</ele>
        <time>2022-03-27T14:14:54Z</time>
      </trkpt>
      <trkpt lat="48.57884" lon="1.99865">
        <ele>94</ele>
        <time>2022-03-27T14:14:56Z</time>
      </trkpt>
      <trkpt lat="48.57886" lon="1.9987">
        <ele>94</ele>
        <time>2022-03-27T14:14:58Z</time>
      </trkpt>
      <trkpt lat="48.57887" lon="1.99876">
        <ele>94</ele>
        <time>2022-03-27T14:15:00Z</time>
      </trkpt>
      <trkpt lat="48.57888" lon="1.99879">
        <ele>93</ele>
        <time>2022-03-27T14:15:01Z</time>
      </trkpt>
      <trkpt lat="48.57888" lon="1.99881">
        <ele>93</ele>
        <time>2022-03-27T14:15:02Z</time>
      </trkpt>
      <trkpt lat="48.57889" lon="1.99885">
        <ele>93</ele>
        <time>2022-03-27T14:15:04Z</time>
      </trkpt>
      <trkpt lat="48.5789" lon="1.99888">
        <ele>93</ele>
        <time>2022-03-27T14:15:06Z</time>
      </trkpt>
      <trkpt lat="48.57888" lon="1.99891">
        <ele>93</ele>
        <time>2022-03-27T14:15:23Z</time>
      </trkpt>
      <trkpt lat="48.5789" lon="1.99894">
        <ele>94</ele>
        <time>2022-03-27T14:15:34Z</time>
      </trkpt>
      <trkpt lat="48.57892" lon="1.99896">
        <ele>94</ele>
        <time>2022-03-27T14:15:36Z</time>
      </trkpt>
      <trkpt lat="48.57894" lon="1.99899">
        <ele>94</ele>
        <time>2022-03-27T14:15:38Z</time>
      </trkpt>
      <trkpt lat="48.57895" lon="1.99902">
        <ele>94</ele>
        <time>2022-03-27T14:15:40Z</time>
      </trkpt>
      <trkpt lat="48.57896" lon="1.99906">
        <ele>94</ele>
        <time>2022-03-27T14:15:42Z</time>
      </trkpt>
      <trkpt lat="48.57898" lon="1.99909">
        <ele>94</ele>
        <time>2022-03-27T14:15:44Z</time>
      </trkpt>
      <trkpt lat="48.57899" lon="1.99912">
        <ele>94</ele>
        <time>2022-03-27T14:15:46Z</time>
      </trkpt>
      <trkpt lat="48.57901" lon="1.99915">
        <ele>94</ele>
        <time>2022-03-27T14:15:48Z</time>
      </trkpt>
      <trkpt lat="48.57902" lon="1.99919">
        <ele>95</ele>
        <time>2022-03-27T14:15:50Z</time>
      </trkpt>
      <trkpt lat="48.57903" lon="1.99922">
        <ele>95</ele>
        <time>2022-03-27T14:15:52Z</time>
      </trkpt>
      <trkpt lat="48.57904" lon="1.99926">
        <ele>95</ele>
        <time>2022-03-27T14:15:54Z</time>
      </trkpt>
      <trkpt lat="48.57905" lon="1.9993">
        <ele>95</ele>
        <time>2022-03-27T14:15:56Z</time>
      </trkpt>
      <trkpt lat="48.57905" lon="1.99933">
        <ele>95</ele>
        <time>2022-03-27T14:15:58Z</time>
      </trkpt>
      <trkpt lat="48.57906" lon="1.99936">
        <ele>95</ele>
        <time>2022-03-27T14:16:00Z</time>
      </trkpt>
      <trkpt lat="48.57907" lon="1.99939">
        <ele>95</ele>
        <time>2022-03-27T14:16:02Z</time>
      </trkpt>
      <trkpt lat="48.57908" lon="1.99943">
        <ele>95</ele>
        <time>2022-03-27T14:16:04Z</time>
      </trkpt>
      <trkpt lat="48.5791" lon="1.99946">
        <ele>96</ele>
        <time>2022-03-27T14:16:06Z</time>
      </trkpt>
      <trkpt lat="48.57912" lon="1.9995">
        <ele>96</ele>
        <time>2022-03-27T14:16:08Z</time>
      </trkpt>
      <trkpt lat="48.57913" lon="1.99953">
        <ele>96</ele>
        <time>2022-03-27T14:16:10Z</time>
      </trkpt>
      <trkpt lat="48.57915" lon="1.99957">
        <ele>96</ele>
        <time>2022-03-27T14:16:12Z</time>
      </trkpt>
      <trkpt lat="48.57916" lon="1.99961">
        <ele>96</ele>
        <time>2022-03-27T14:16:14Z</time>
      </trkpt>
      <trkpt lat="48.57918" lon="1.99964">
        <ele>96</ele>
        <time>2022-03-27T14:16:16Z</time>
      </trkpt>
      <trkpt lat="48.57919" lon="1.99968">
        <ele>96</ele>
        <time>2022-03-27T14:16:18Z</time>
      </trkpt>
      <trkpt lat="48.5792" lon="1.99971">
        <ele>96</ele>
        <time>2022-03-27T14:16:20Z</time>
      </trkpt>
      <trkpt lat="48.57921" lon="1.99975">
        <ele>96</ele>
        <time>2022-03-27T14:16:22Z</time>
      </trkpt>
      <trkpt lat="48.57922" lon="1.99978">
        <ele>95</ele>
        <time>2022-03-27T14:16:24Z</time>
      </trkpt>
      <trkpt lat="48.57923" lon="1.99982">
        <ele>95</ele>
        <time>2022-03-27T14:16:26Z</time>
      </trkpt>
      <trkpt lat="48.57924" lon="1.99985">
        <ele>95</ele>
        <time>2022-03-27T14:16:28Z</time>
      </trkpt>
      <trkpt lat="48.57926" lon="1.99989">
        <ele>95</ele>
        <time>2022-03-27T14:16:30Z</time>
      </trkpt>
      <trkpt lat="48.57927" lon="1.99992">
        <ele>95</ele>
        <time>2022-03-27T14:16:32Z</time>
      </trkpt>
      <trkpt lat="48.57929" lon="1.99996">
        <ele>96</ele>
        <time>2022-03-27T14:16:34Z</time>
      </trkpt>
      <trkpt lat="48.5793" lon="1.99999">
        <ele>95</ele>
        <time>2022-03-27T14:16:36Z</time>
      </trkpt>
      <trkpt lat="48.57932" lon="2.00003">
        <ele>96</ele>
        <time>2022-03-27T14:16:38Z</time>
      </trkpt>
      <trkpt lat="48.57934" lon="2.00006">
        <ele>96</ele>
        <time>2022-03-27T14:16:40Z</time>
      </trkpt>
      <trkpt lat="48.57935" lon="2.0001">
        <ele>96</ele>
        <time>2022-03-27T14:16:42Z</time>
      </trkpt>
      <trkpt lat="48.57937" lon="2.00015">
        <ele>96</ele>
        <time>2022-03-27T14:16:44Z</time>
      </trkpt>
      <trkpt lat="48.57939" lon="2.00018">
        <ele>96</ele>
        <time>2022-03-27T14:16:46Z</time>
      </trkpt>
      <trkpt lat="48.5794" lon="2.00022">
        <ele>97</ele>
        <time>2022-03-27T14:16:48Z</time>
      </trkpt>
      <trkpt lat="48.57942" lon="2.00026">
        <ele>98</ele>
        <time>2022-03-27T14:16:50Z</time>
      </trkpt>
      <trkpt lat="48.57943" lon="2.0003">
        <ele>98</ele>
        <time>2022-03-27T14:16:52Z</time>
      </trkpt>
      <trkpt lat="48.57945" lon="2.00033">
        <ele>98</ele>
        <time>2022-03-27T14:16:54Z</time>
      </trkpt>
      <trkpt lat="48.57946" lon="2.00037">
        <ele>98</ele>
        <time>2022-03-27T14:16:56Z</time>
      </trkpt>
      <trkpt lat="48.57948" lon="2.0004">
        <ele>98</ele>
        <time>2022-03-27T14:16:58Z</time>
      </trkpt>
      <trkpt lat="48.57949" lon="2.00043">
        <ele>98</ele>
        <time>2022-03-27T14:17:00Z</time>
      </trkpt>
      <trkpt lat="48.5795" lon="2.00047">
        <ele>98</ele>
        <time>2022-03-27T14:17:02Z</time>
      </trkpt>
      <trkpt lat="48.57951" lon="2.00051">
        <ele>98</ele>
        <time>2022-03-27T14:17:04Z</time>
      </trkpt>
      <trkpt lat="48.57953" lon="2.00055">
        <ele>98</ele>
        <time>2022-03-27T14:17:06Z</time>
      </trkpt>
      <trkpt lat="48.57954" lon="2.00059">
        <ele>98</ele>
        <time>2022-03-27T14:17:08Z</time>
      </trkpt>
      <trkpt lat="48.57955" lon="2.00062">
        <ele>98</ele>
        <time>2022-03-27T14:17:10Z</time>
      </trkpt>
      <trkpt lat="48.57956" lon="2.00066">
        <ele>99</ele>
        <time>2022-03-27T14:17:12Z</time>
      </trkpt>
      <trkpt lat="48.57956" lon="2.00069">
        <ele>99</ele>
        <time>2022-03-27T14:17:14Z</time>
      </trkpt>
      <trkpt lat="48.57955" lon="2.00073">
        <ele>99</ele>
        <time>2022-03-27T14:17:16Z</time>
      </trkpt>
      <trkpt lat="48.57954" lon="2.00077">
        <ele>99</ele>
        <time>2022-03-27T14:17:18Z</time>
      </trkpt>
      <trkpt lat="48.57954" lon="2.00081">
        <ele>99</ele>
        <time>2022-03-27T14:17:20Z</time>
      </trkpt>
      <trkpt lat="48.57954" lon="2.00086">
        <ele>99</ele>
        <time>2022-03-27T14:17:22Z</time>
      </trkpt>
      <trkpt lat="48.57954" lon="2.0009">
        <ele>100</ele>
        <time>2022-03-27T14:17:24Z</time>
      </trkpt>
      <trkpt lat="48.57954" lon="2.00094">
        <ele>100</ele>
        <time>2022-03-27T14:17:26Z</time>
      </trkpt>
      <trkpt lat="48.57954" lon="2.00098">
        <ele>100</ele>
        <time>2022-03-27T14:17:28Z</time>
      </trkpt>
      <trkpt lat="48.57954" lon="2.00102">
        <ele>100</ele>
        <time>2022-03-27T14:17:30Z</time>
      </trkpt>
      <trkpt lat="48.57953" lon="2.00107">
        <ele>100</ele>
        <time>2022-03-27T14:17:32Z</time>
      </trkpt>
      <trkpt lat="48.57953" lon="2.00112">
        <ele>101</ele>
        <time>2022-03-27T14:17:34Z</time>
      </trkpt>
      <trkpt lat="48.57954" lon="2.00114">
        <ele>101</ele>
        <time>2022-03-27T14:17:35Z</time>
      </trkpt>
      <trkpt lat="48.57954" lon="2.00117">
        <ele>101</ele>
        <time>2022-03-27T14:17:36Z</time>
      </trkpt>
      <trkpt lat="48.57955" lon="2.0012">
        <ele>101</ele>
        <time>2022-03-27T14:17:37Z</time>
      </trkpt>
      <trkpt lat="48.57955" lon="2.00124">
        <ele>102</ele>
        <time>2022-03-27T14:17:39Z</time>
      </trkpt>
      <trkpt lat="48.57954" lon="2.00129">
        <ele>102</ele>
        <time>2022-03-27T14:17:41Z</time>
      </trkpt>
      <trkpt lat="48.57954" lon="2.00133">
        <ele>103</ele>
        <time>2022-03-27T14:17:43Z</time>
      </trkpt>
      <trkpt lat="48.57953" lon="2.00138">
        <ele>103</ele>
        <time>2022-03-27T14:17:45Z</time>
      </trkpt>
      <trkpt lat="48.57953" lon="2.00142">
        <ele>103</ele>
        <time>2022-03-27T14:17:47Z</time>
      </trkpt>
      <trkpt lat="48.57952" lon="2.00146">
        <ele>103</ele>
        <time>2022-03-27T14:17:49Z</time>
      </trkpt>
      <trkpt lat="48.57951" lon="2.0015">
        <ele>104</ele>
        <time>2022-03-27T14:17:51Z</time>
      </trkpt>
      <trkpt lat="48.57951" lon="2.00155">
        <ele>104</ele>
        <time>2022-03-27T14:17:53Z</time>
      </trkpt>
      <trkpt lat="48.57951" lon="2.00158">
        <ele>104</ele>
        <time>2022-03-27T14:17:54Z</time>
      </trkpt>
      <trkpt lat="48.57951" lon="2.00163">
        <ele>104</ele>
        <time>2022-03-27T14:17:56Z</time>
      </trkpt>
      <trkpt lat="48.5795" lon="2.00168">
        <ele>104</ele>
        <time>2022-03-27T14:17:58Z</time>
      </trkpt>
      <trkpt lat="48.5795" lon="2.00171">
        <ele>104</ele>
        <time>2022-03-27T14:17:59Z</time>
      </trkpt>
      <trkpt lat="48.5795" lon="2.00174">
        <ele>104</ele>
        <time>2022-03-27T14:18:00Z</time>
      </trkpt>
      <trkpt lat="48.5795" lon="2.00179">
        <ele>105</ele>
        <time>2022-03-27T14:18:02Z</time>
      </trkpt>
      <trkpt lat="48.57949" lon="2.00184">
        <ele>105</ele>
        <time>2022-03-27T14:18:04Z</time>
      </trkpt>
      <trkpt lat="48.57949" lon="2.00187">
        <ele>105</ele>
        <time>2022-03-27T14:18:05Z</time>
      </trkpt>
      <trkpt lat="48.57948" lon="2.00191">
        <ele>106</ele>
        <time>2022-03-27T14:18:07Z</time>
      </trkpt>
      <trkpt lat="48.57947" lon="2.00196">
        <ele>106</ele>
        <time>2022-03-27T14:18:09Z</time>
      </trkpt>
      <trkpt lat="48.57946" lon="2.002">
        <ele>106</ele>
        <time>2022-03-27T14:18:11Z</time>
      </trkpt>
      <trkpt lat="48.57945" lon="2.00205">
        <ele>106</ele>
        <time>2022-03-27T14:18:13Z</time>
      </trkpt>
      <trkpt lat="48.57944" lon="2.0021">
        <ele>107</ele>
        <time>2022-03-27T14:18:15Z</time>
      </trkpt>
      <trkpt lat="48.57943" lon="2.00212">
        <ele>107</ele>
        <time>2022-03-27T14:18:16Z</time>
      </trkpt>
      <trkpt lat="48.57942" lon="2.00215">
        <ele>107</ele>
        <time>2022-03-27T14:18:17Z</time>
      </trkpt>
      <trkpt lat="48.57942" lon="2.00217">
        <ele>107</ele>
        <time>2022-03-27T14:18:18Z</time>
      </trkpt>
      <trkpt lat="48.5794" lon="2.0022">
        <ele>107</ele>
        <time>2022-03-27T14:18:19Z</time>
      </trkpt>
      <trkpt lat="48.57939" lon="2.00223">
        <ele>108</ele>
        <time>2022-03-27T14:18:21Z</time>
      </trkpt>
      <trkpt lat="48.57937" lon="2.00229">
        <ele>108</ele>
        <time>2022-03-27T14:18:23Z</time>
      </trkpt>
      <trkpt lat="48.57936" lon="2.00231">
        <ele>108</ele>
        <time>2022-03-27T14:18:24Z</time>
      </trkpt>
      <trkpt lat="48.57935" lon="2.00236">
        <ele>108</ele>
        <time>2022-03-27T14:18:26Z</time>
      </trkpt>
      <trkpt lat="48.57933" lon="2.0024">
        <ele>108</ele>
        <time>2022-03-27T14:18:28Z</time>
      </trkpt>
      <trkpt lat="48.57932" lon="2.00242">
        <ele>108</ele>
        <time>2022-03-27T14:18:29Z</time>
      </trkpt>
      <trkpt lat="48.5793" lon="2.00245">
        <ele>107</ele>
        <time>2022-03-27T14:18:31Z</time>
      </trkpt>
      <trkpt lat="48.57929" lon="2.00249">
        <ele>107</ele>
        <time>2022-03-27T14:18:33Z</time>
      </trkpt>
      <trkpt lat="48.57928" lon="2.00253">
        <ele>108</ele>
        <time>2022-03-27T14:18:35Z</time>
      </trkpt>
      <trkpt lat="48.57927" lon="2.00257">
        <ele>108</ele>
        <time>2022-03-27T14:18:37Z</time>
      </trkpt>
      <trkpt lat="48.57925" lon="2.00261">
        <ele>108</ele>
        <time>2022-03-27T14:18:39Z</time>
      </trkpt>
      <trkpt lat="48.57923" lon="2.00264">
        <ele>108</ele>
        <time>2022-03-27T14:18:41Z</time>
      </trkpt>
      <trkpt lat="48.57922" lon="2.00267">
        <ele>108</ele>
        <time>2022-03-27T14:18:43Z</time>
      </trkpt>
      <trkpt lat="48.5792" lon="2.00272">
        <ele>108</ele>
        <time>2022-03-27T14:18:45Z</time>
      </trkpt>
      <trkpt lat="48.57918" lon="2.00276">
        <ele>109</ele>
        <time>2022-03-27T14:18:47Z</time>
      </trkpt>
      <trkpt lat="48.57917" lon="2.0028">
        <ele>109</ele>
        <time>2022-03-27T14:18:49Z</time>
      </trkpt>
      <trkpt lat="48.57917" lon="2.00285">
        <ele>109</ele>
        <time>2022-03-27T14:18:51Z</time>
      </trkpt>
      <trkpt lat="48.57916" lon="2.00289">
        <ele>109</ele>
        <time>2022-03-27T14:18:53Z</time>
      </trkpt>
      <trkpt lat="48.57915" lon="2.00293">
        <ele>109</ele>
        <time>2022-03-27T14:18:55Z</time>
      </trkpt>
      <trkpt lat="48.57914" lon="2.00297">
        <ele>110</ele>
        <time>2022-03-27T14:18:57Z</time>
      </trkpt>
      <trkpt lat="48.57913" lon="2.00301">
        <ele>110</ele>
        <time>2022-03-27T14:18:59Z</time>
      </trkpt>
      <trkpt lat="48.57912" lon="2.00306">
        <ele>110</ele>
        <time>2022-03-27T14:19:01Z</time>
      </trkpt>
      <trkpt lat="48.57911" lon="2.00308">
        <ele>110</ele>
        <time>2022-03-27T14:19:02Z</time>
      </trkpt>
      <trkpt lat="48.57911" lon="2.00313">
        <ele>109</ele>
        <time>2022-03-27T14:19:04Z</time>
      </trkpt>
      <trkpt lat="48.5791" lon="2.00318">
        <ele>109</ele>
        <time>2022-03-27T14:19:06Z</time>
      </trkpt>
      <trkpt lat="48.57909" lon="2.00323">
        <ele>110</ele>
        <time>2022-03-27T14:19:08Z</time>
      </trkpt>
      <trkpt lat="48.57907" lon="2.00327">
        <ele>110</ele>
        <time>2022-03-27T14:19:10Z</time>
      </trkpt>
      <trkpt lat="48.57906" lon="2.00331">
        <ele>109</ele>
        <time>2022-03-27T14:19:12Z</time>
      </trkpt>
      <trkpt lat="48.57906" lon="2.00335">
        <ele>109</ele>
        <time>2022-03-27T14:19:14Z</time>
      </trkpt>
      <trkpt lat="48.57905" lon="2.0034">
        <ele>110</ele>
        <time>2022-03-27T14:19:16Z</time>
      </trkpt>
      <trkpt lat="48.57905" lon="2.00344">
        <ele>110</ele>
        <time>2022-03-27T14:19:18Z</time>
      </trkpt>
      <trkpt lat="48.57904" lon="2.00349">
        <ele>110</ele>
        <time>2022-03-27T14:19:20Z</time>
      </trkpt>
      <trkpt lat="48.57903" lon="2.00353">
        <ele>110</ele>
        <time>2022-03-27T14:19:22Z</time>
      </trkpt>
      <trkpt lat="48.57902" lon="2.00358">
        <ele>110</ele>
        <time>2022-03-27T14:19:24Z</time>
      </trkpt>
      <trkpt lat="48.57901" lon="2.00362">
        <ele>110</ele>
        <time>2022-03-27T14:19:26Z</time>
      </trkpt>
      <trkpt lat="48.57901" lon="2.00366">
        <ele>111</ele>
        <time>2022-03-27T14:19:28Z</time>
      </trkpt>
      <trkpt lat="48.57901" lon="2.0037">
        <ele>111</ele>
        <time>2022-03-27T14:19:30Z</time>
      </trkpt>
      <trkpt lat="48.57901" lon="2.00374">
        <ele>111</ele>
        <time>2022-03-27T14:19:32Z</time>
      </trkpt>
      <trkpt lat="48.579" lon="2.00378">
        <ele>111</ele>
        <time>2022-03-27T14:19:34Z</time>
      </trkpt>
      <trkpt lat="48.579" lon="2.00382">
        <ele>112</ele>
        <time>2022-03-27T14:19:36Z</time>
      </trkpt>
      <trkpt lat="48.579" lon="2.00387">
        <ele>113</ele>
        <time>2022-03-27T14:19:38Z</time>
      </trkpt>
      <trkpt lat="48.579" lon="2.00392">
        <ele>113</ele>
        <time>2022-03-27T14:19:40Z</time>
      </trkpt>
      <trkpt lat="48.579" lon="2.00397">
        <ele>113</ele>
        <time>2022-03-27T14:19:42Z</time>
      </trkpt>
      <trkpt lat="48.57901" lon="2.00401">
        <ele>114</ele>
        <time>2022-03-27T14:19:44Z</time>
      </trkpt>
      <trkpt lat="48.579" lon="2.00405">
        <ele>114</ele>
        <time>2022-03-27T14:19:46Z</time>
      </trkpt>
      <trkpt lat="48.579" lon="2.00409">
        <ele>114</ele>
        <time>2022-03-27T14:19:48Z</time>
      </trkpt>
      <trkpt lat="48.579" lon="2.00414">
        <ele>114</ele>
        <time>2022-03-27T14:19:50Z</time>
      </trkpt>
      <trkpt lat="48.579" lon="2.00418">
        <ele>114</ele>
        <time>2022-03-27T14:19:52Z</time>
      </trkpt>
      <trkpt lat="48.57899" lon="2.00422">
        <ele>114</ele>
        <time>2022-03-27T14:19:54Z</time>
      </trkpt>
      <trkpt lat="48.57899" lon="2.00427">
        <ele>113</ele>
        <time>2022-03-27T14:19:56Z</time>
      </trkpt>
      <trkpt lat="48.57899" lon="2.00432">
        <ele>113</ele>
        <time>2022-03-27T14:19:58Z</time>
      </trkpt>
      <trkpt lat="48.57899" lon="2.00436">
        <ele>113</ele>
        <time>2022-03-27T14:20:00Z</time>
      </trkpt>
      <trkpt lat="48.57899" lon="2.00441">
        <ele>113</ele>
        <time>2022-03-27T14:20:02Z</time>
      </trkpt>
      <trkpt lat="48.57901" lon="2.00446">
        <ele>113</ele>
        <time>2022-03-27T14:20:04Z</time>
      </trkpt>
      <trkpt lat="48.57901" lon="2.00448">
        <ele>114</ele>
        <time>2022-03-27T14:20:05Z</time>
      </trkpt>
      <trkpt lat="48.57902" lon="2.00453">
        <ele>113</ele>
        <time>2022-03-27T14:20:07Z</time>
      </trkpt>
      <trkpt lat="48.57903" lon="2.00458">
        <ele>114</ele>
        <time>2022-03-27T14:20:09Z</time>
      </trkpt>
      <trkpt lat="48.57904" lon="2.0046">
        <ele>114</ele>
        <time>2022-03-27T14:20:10Z</time>
      </trkpt>
      <trkpt lat="48.57906" lon="2.00465">
        <ele>114</ele>
        <time>2022-03-27T14:20:12Z</time>
      </trkpt>
      <trkpt lat="48.57907" lon="2.00469">
        <ele>114</ele>
        <time>2022-03-27T14:20:14Z</time>
      </trkpt>
      <trkpt lat="48.57908" lon="2.00473">
        <ele>114</ele>
        <time>2022-03-27T14:20:16Z</time>
      </trkpt>
      <trkpt lat="48.57909" lon="2.00478">
        <ele>114</ele>
        <time>2022-03-27T14:20:18Z</time>
      </trkpt>
      <trkpt lat="48.5791" lon="2.00482">
        <ele>114</ele>
        <time>2022-03-27T14:20:20Z</time>
      </trkpt>
      <trkpt lat="48.57911" lon="2.00485">
        <ele>114</ele>
        <time>2022-03-27T14:20:22Z</time>
      </trkpt>
      <trkpt lat="48.57912" lon="2.00488">
        <ele>114</ele>
        <time>2022-03-27T14:20:24Z</time>
      </trkpt>
      <trkpt lat="48.57913" lon="2.00491">
        <ele>114</ele>
        <time>2022-03-27T14:20:26Z</time>
      </trkpt>
      <trkpt lat="48.57914" lon="2.00494">
        <ele>114</ele>
        <time>2022-03-27T14:20:28Z</time>
      </trkpt>
      <trkpt lat="48.57916" lon="2.00497">
        <ele>114</ele>
        <time>2022-03-27T14:20:30Z</time>
      </trkpt>
      <trkpt lat="48.57918" lon="2.00499">
        <ele>114</ele>
        <time>2022-03-27T14:20:31Z</time>
      </trkpt>
      <trkpt lat="48.5792" lon="2.00504">
        <ele>114</ele>
        <time>2022-03-27T14:20:35Z</time>
      </trkpt>
      <trkpt lat="48.57921" lon="2.00506">
        <ele>114</ele>
        <time>2022-03-27T14:20:36Z</time>
      </trkpt>
      <trkpt lat="48.57923" lon="2.0051">
        <ele>114</ele>
        <time>2022-03-27T14:20:37Z</time>
      </trkpt>
      <trkpt lat="48.57925" lon="2.00512">
        <ele>113</ele>
        <time>2022-03-27T14:20:38Z</time>
      </trkpt>
      <trkpt lat="48.57926" lon="2.00514">
        <ele>113</ele>
        <time>2022-03-27T14:20:39Z</time>
      </trkpt>
      <trkpt lat="48.57928" lon="2.00516">
        <ele>113</ele>
        <time>2022-03-27T14:20:40Z</time>
      </trkpt>
      <trkpt lat="48.57929" lon="2.00519">
        <ele>114</ele>
        <time>2022-03-27T14:20:42Z</time>
      </trkpt>
      <trkpt lat="48.57931" lon="2.00521">
        <ele>114</ele>
        <time>2022-03-27T14:20:44Z</time>
      </trkpt>
      <trkpt lat="48.57933" lon="2.00524">
        <ele>114</ele>
        <time>2022-03-27T14:20:46Z</time>
      </trkpt>
      <trkpt lat="48.57935" lon="2.00527">
        <ele>115</ele>
        <time>2022-03-27T14:20:48Z</time>
      </trkpt>
      <trkpt lat="48.57937" lon="2.00529">
        <ele>115</ele>
        <time>2022-03-27T14:20:50Z</time>
      </trkpt>
      <trkpt lat="48.57939" lon="2.00531">
        <ele>115</ele>
        <time>2022-03-27T14:20:51Z</time>
      </trkpt>
      <trkpt lat="48.5794" lon="2.00533">
        <ele>114</ele>
        <time>2022-03-27T14:20:52Z</time>
      </trkpt>
      <trkpt lat="48.57942" lon="2.00537">
        <ele>115</ele>
        <time>2022-03-27T14:20:54Z</time>
      </trkpt>
      <trkpt lat="48.57943" lon="2.00539">
        <ele>115</ele>
        <time>2022-03-27T14:20:55Z</time>
      </trkpt>
      <trkpt lat="48.57945" lon="2.00542">
        <ele>114</ele>
        <time>2022-03-27T14:20:57Z</time>
      </trkpt>
      <trkpt lat="48.57947" lon="2.00545">
        <ele>114</ele>
        <time>2022-03-27T14:20:59Z</time>
      </trkpt>
      <trkpt lat="48.57948" lon="2.00548">
        <ele>114</ele>
        <time>2022-03-27T14:21:01Z</time>
      </trkpt>
      <trkpt lat="48.57951" lon="2.00553">
        <ele>114</ele>
        <time>2022-03-27T14:21:03Z</time>
      </trkpt>
      <trkpt lat="48.57953" lon="2.00556">
        <ele>113</ele>
        <time>2022-03-27T14:21:04Z</time>
      </trkpt>
      <trkpt lat="48.57954" lon="2.00559">
        <ele>113</ele>
        <time>2022-03-27T14:21:05Z</time>
      </trkpt>
      <trkpt lat="48.57956" lon="2.00561">
        <ele>112</ele>
        <time>2022-03-27T14:21:06Z</time>
      </trkpt>
      <trkpt lat="48.57958" lon="2.00564">
        <ele>112</ele>
        <time>2022-03-27T14:21:07Z</time>
      </trkpt>
      <trkpt lat="48.57959" lon="2.00566">
        <ele>112</ele>
        <time>2022-03-27T14:21:08Z</time>
      </trkpt>
      <trkpt lat="48.5796" lon="2.00568">
        <ele>112</ele>
        <time>2022-03-27T14:21:09Z</time>
      </trkpt>
      <trkpt lat="48.57962" lon="2.0057">
        <ele>112</ele>
        <time>2022-03-27T14:21:10Z</time>
      </trkpt>
      <trkpt lat="48.57963" lon="2.00573">
        <ele>112</ele>
        <time>2022-03-27T14:21:11Z</time>
      </trkpt>
      <trkpt lat="48.57964" lon="2.00575">
        <ele>112</ele>
        <time>2022-03-27T14:21:12Z</time>
      </trkpt>
      <trkpt lat="48.57966" lon="2.00577">
        <ele>112</ele>
        <time>2022-03-27T14:21:13Z</time>
      </trkpt>
      <trkpt lat="48.57967" lon="2.0058">
        <ele>112</ele>
        <time>2022-03-27T14:21:14Z</time>
      </trkpt>
      <trkpt lat="48.57969" lon="2.00584">
        <ele>111</ele>
        <time>2022-03-27T14:21:16Z</time>
      </trkpt>
      <trkpt lat="48.57972" lon="2.00588">
        <ele>112</ele>
        <time>2022-03-27T14:21:18Z</time>
      </trkpt>
      <trkpt lat="48.57973" lon="2.00593">
        <ele>111</ele>
        <time>2022-03-27T14:21:20Z</time>
      </trkpt>
      <trkpt lat="48.57976" lon="2.00597">
        <ele>111</ele>
        <time>2022-03-27T14:21:22Z</time>
      </trkpt>
      <trkpt lat="48.57977" lon="2.00601">
        <ele>111</ele>
        <time>2022-03-27T14:21:24Z</time>
      </trkpt>
      <trkpt lat="48.57979" lon="2.00605">
        <ele>112</ele>
        <time>2022-03-27T14:21:26Z</time>
      </trkpt>
      <trkpt lat="48.57981" lon="2.00609">
        <ele>112</ele>
        <time>2022-03-27T14:21:28Z</time>
      </trkpt>
      <trkpt lat="48.57982" lon="2.00613">
        <ele>113</ele>
        <time>2022-03-27T14:21:30Z</time>
      </trkpt>
      <trkpt lat="48.57984" lon="2.00616">
        <ele>113</ele>
        <time>2022-03-27T14:21:31Z</time>
      </trkpt>
      <trkpt lat="48.57985" lon="2.0062">
        <ele>113</ele>
        <time>2022-03-27T14:21:33Z</time>
      </trkpt>
      <trkpt lat="48.57987" lon="2.00624">
        <ele>113</ele>
        <time>2022-03-27T14:21:35Z</time>
      </trkpt>
      <trkpt lat="48.57988" lon="2.00628">
        <ele>113</ele>
        <time>2022-03-27T14:21:37Z</time>
      </trkpt>
      <trkpt lat="48.5799" lon="2.00631">
        <ele>113</ele>
        <time>2022-03-27T14:21:39Z</time>
      </trkpt>
      <trkpt lat="48.57991" lon="2.00634">
        <ele>113</ele>
        <time>2022-03-27T14:21:41Z</time>
      </trkpt>
      <trkpt lat="48.57992" lon="2.00637">
        <ele>113</ele>
        <time>2022-03-27T14:21:45Z</time>
      </trkpt>
      <trkpt lat="48.57993" lon="2.00641">
        <ele>113</ele>
        <time>2022-03-27T14:21:47Z</time>
      </trkpt>
      <trkpt lat="48.57994" lon="2.00645">
        <ele>113</ele>
        <time>2022-03-27T14:21:49Z</time>
      </trkpt>
      <trkpt lat="48.57995" lon="2.00651">
        <ele>114</ele>
        <time>2022-03-27T14:21:51Z</time>
      </trkpt>
      <trkpt lat="48.57997" lon="2.00653">
        <ele>114</ele>
        <time>2022-03-27T14:21:52Z</time>
      </trkpt>
      <trkpt lat="48.57998" lon="2.00656">
        <ele>114</ele>
        <time>2022-03-27T14:21:53Z</time>
      </trkpt>
      <trkpt lat="48.58" lon="2.00659">
        <ele>114</ele>
        <time>2022-03-27T14:21:55Z</time>
      </trkpt>
      <trkpt lat="48.58001" lon="2.00661">
        <ele>114</ele>
        <time>2022-03-27T14:21:56Z</time>
      </trkpt>
      <trkpt lat="48.58003" lon="2.00664">
        <ele>115</ele>
        <time>2022-03-27T14:21:57Z</time>
      </trkpt>
      <trkpt lat="48.58004" lon="2.00667">
        <ele>115</ele>
        <time>2022-03-27T14:21:58Z</time>
      </trkpt>
      <trkpt lat="48.58005" lon="2.00669">
        <ele>114</ele>
        <time>2022-03-27T14:21:59Z</time>
      </trkpt>
      <trkpt lat="48.58006" lon="2.00674">
        <ele>114</ele>
        <time>2022-03-27T14:22:01Z</time>
      </trkpt>
      <trkpt lat="48.58007" lon="2.00678">
        <ele>114</ele>
        <time>2022-03-27T14:22:03Z</time>
      </trkpt>
      <trkpt lat="48.58008" lon="2.00682">
        <ele>114</ele>
        <time>2022-03-27T14:22:05Z</time>
      </trkpt>
      <trkpt lat="48.5801" lon="2.00686">
        <ele>114</ele>
        <time>2022-03-27T14:22:07Z</time>
      </trkpt>
      <trkpt lat="48.58011" lon="2.00688">
        <ele>114</ele>
        <time>2022-03-27T14:22:08Z</time>
      </trkpt>
      <trkpt lat="48.58012" lon="2.00691">
        <ele>114</ele>
        <time>2022-03-27T14:22:09Z</time>
      </trkpt>
      <trkpt lat="48.58014" lon="2.00693">
        <ele>114</ele>
        <time>2022-03-27T14:22:10Z</time>
      </trkpt>
      <trkpt lat="48.58015" lon="2.00695">
        <ele>114</ele>
        <time>2022-03-27T14:22:11Z</time>
      </trkpt>
      <trkpt lat="48.58016" lon="2.00698">
        <ele>113</ele>
        <time>2022-03-27T14:22:12Z</time>
      </trkpt>
      <trkpt lat="48.58018" lon="2.00701">
        <ele>113</ele>
        <time>2022-03-27T14:22:14Z</time>
      </trkpt>
      <trkpt lat="48.58019" lon="2.00703">
        <ele>113</ele>
        <time>2022-03-27T14:22:15Z</time>
      </trkpt>
      <trkpt lat="48.58021" lon="2.00707">
        <ele>113</ele>
        <time>2022-03-27T14:22:17Z</time>
      </trkpt>
      <trkpt lat="48.58023" lon="2.00711">
        <ele>113</ele>
        <time>2022-03-27T14:22:19Z</time>
      </trkpt>
      <trkpt lat="48.58024" lon="2.00716">
        <ele>113</ele>
        <time>2022-03-27T14:22:21Z</time>
      </trkpt>
      <trkpt lat="48.58026" lon="2.0072">
        <ele>113</ele>
        <time>2022-03-27T14:22:23Z</time>
      </trkpt>
      <trkpt lat="48.58027" lon="2.00723">
        <ele>113</ele>
        <time>2022-03-27T14:22:24Z</time>
      </trkpt>
      <trkpt lat="48.58029" lon="2.00727">
        <ele>113</ele>
        <time>2022-03-27T14:22:26Z</time>
      </trkpt>
      <trkpt lat="48.58031" lon="2.00731">
        <ele>113</ele>
        <time>2022-03-27T14:22:28Z</time>
      </trkpt>
      <trkpt lat="48.58032" lon="2.00735">
        <ele>113</ele>
        <time>2022-03-27T14:22:31Z</time>
      </trkpt>
      <trkpt lat="48.58033" lon="2.00738">
        <ele>113</ele>
        <time>2022-03-27T14:22:34Z</time>
      </trkpt>
      <trkpt lat="48.58034" lon="2.00741">
        <ele>113</ele>
        <time>2022-03-27T14:22:36Z</time>
      </trkpt>
      <trkpt lat="48.58035" lon="2.00743">
        <ele>113</ele>
        <time>2022-03-27T14:22:37Z</time>
      </trkpt>
      <trkpt lat="48.58037" lon="2.00746">
        <ele>113</ele>
        <time>2022-03-27T14:22:38Z</time>
      </trkpt>
      <trkpt lat="48.58038" lon="2.00749">
        <ele>113</ele>
        <time>2022-03-27T14:22:39Z</time>
      </trkpt>
      <trkpt lat="48.58039" lon="2.00753">
        <ele>113</ele>
        <time>2022-03-27T14:22:40Z</time>
      </trkpt>
      <trkpt lat="48.58041" lon="2.00756">
        <ele>112</ele>
        <time>2022-03-27T14:22:41Z</time>
      </trkpt>
      <trkpt lat="48.58042" lon="2.00758">
        <ele>112</ele>
        <time>2022-03-27T14:22:42Z</time>
      </trkpt>
      <trkpt lat="48.58043" lon="2.0076">
        <ele>112</ele>
        <time>2022-03-27T14:22:43Z</time>
      </trkpt>
      <trkpt lat="48.58045" lon="2.00763">
        <ele>111</ele>
        <time>2022-03-27T14:22:44Z</time>
      </trkpt>
      <trkpt lat="48.58047" lon="2.00766">
        <ele>111</ele>
        <time>2022-03-27T14:22:45Z</time>
      </trkpt>
      <trkpt lat="48.58048" lon="2.00768">
        <ele>111</ele>
        <time>2022-03-27T14:22:46Z</time>
      </trkpt>
      <trkpt lat="48.58051" lon="2.00772">
        <ele>110</ele>
        <time>2022-03-27T14:22:48Z</time>
      </trkpt>
      <trkpt lat="48.58052" lon="2.00774">
        <ele>110</ele>
        <time>2022-03-27T14:22:49Z</time>
      </trkpt>
      <trkpt lat="48.58054" lon="2.00778">
        <ele>110</ele>
        <time>2022-03-27T14:22:51Z</time>
      </trkpt>
      <trkpt lat="48.58055" lon="2.00782">
        <ele>110</ele>
        <time>2022-03-27T14:22:53Z</time>
      </trkpt>
      <trkpt lat="48.58057" lon="2.00786">
        <ele>110</ele>
        <time>2022-03-27T14:22:55Z</time>
      </trkpt>
      <trkpt lat="48.58057" lon="2.00789">
        <ele>109</ele>
        <time>2022-03-27T14:22:57Z</time>
      </trkpt>
      <trkpt lat="48.58057" lon="2.00791">
        <ele>109</ele>
        <time>2022-03-27T14:22:59Z</time>
      </trkpt>
      <trkpt lat="48.58058" lon="2.00795">
        <ele>109</ele>
        <time>2022-03-27T14:23:01Z</time>
      </trkpt>
      <trkpt lat="48.5806" lon="2.008">
        <ele>110</ele>
        <time>2022-03-27T14:23:03Z</time>
      </trkpt>
      <trkpt lat="48.5806" lon="2.00802">
        <ele>110</ele>
        <time>2022-03-27T14:23:04Z</time>
      </trkpt>
      <trkpt lat="48.58061" lon="2.00805">
        <ele>110</ele>
        <time>2022-03-27T14:23:05Z</time>
      </trkpt>
      <trkpt lat="48.58063" lon="2.00807">
        <ele>110</ele>
        <time>2022-03-27T14:23:06Z</time>
      </trkpt>
      <trkpt lat="48.58064" lon="2.00809">
        <ele>110</ele>
        <time>2022-03-27T14:23:07Z</time>
      </trkpt>
      <trkpt lat="48.58066" lon="2.00812">
        <ele>110</ele>
        <time>2022-03-27T14:23:09Z</time>
      </trkpt>
      <trkpt lat="48.58067" lon="2.00815">
        <ele>110</ele>
        <time>2022-03-27T14:23:11Z</time>
      </trkpt>
      <trkpt lat="48.58067" lon="2.00818">
        <ele>110</ele>
        <time>2022-03-27T14:23:14Z</time>
      </trkpt>
      <trkpt lat="48.58067" lon="2.00821">
        <ele>110</ele>
        <time>2022-03-27T14:23:17Z</time>
      </trkpt>
      <trkpt lat="48.58069" lon="2.00826">
        <ele>110</ele>
        <time>2022-03-27T14:23:19Z</time>
      </trkpt>
      <trkpt lat="48.58071" lon="2.0083">
        <ele>110</ele>
        <time>2022-03-27T14:23:20Z</time>
      </trkpt>
      <trkpt lat="48.58072" lon="2.00834">
        <ele>110</ele>
        <time>2022-03-27T14:23:22Z</time>
      </trkpt>
      <trkpt lat="48.58073" lon="2.00837">
        <ele>110</ele>
        <time>2022-03-27T14:23:24Z</time>
      </trkpt>
      <trkpt lat="48.58074" lon="2.0084">
        <ele>110</ele>
        <time>2022-03-27T14:23:26Z</time>
      </trkpt>
      <trkpt lat="48.58075" lon="2.00843">
        <ele>110</ele>
        <time>2022-03-27T14:23:28Z</time>
      </trkpt>
      <trkpt lat="48.58076" lon="2.00847">
        <ele>110</ele>
        <time>2022-03-27T14:23:30Z</time>
      </trkpt>
      <trkpt lat="48.58077" lon="2.00849">
        <ele>110</ele>
        <time>2022-03-27T14:23:31Z</time>
      </trkpt>
      <trkpt lat="48.58078" lon="2.00852">
        <ele>110</ele>
        <time>2022-03-27T14:23:32Z</time>
      </trkpt>
      <trkpt lat="48.58079" lon="2.00856">
        <ele>109</ele>
        <time>2022-03-27T14:23:33Z</time>
      </trkpt>
      <trkpt lat="48.58081" lon="2.00859">
        <ele>109</ele>
        <time>2022-03-27T14:23:34Z</time>
      </trkpt>
      <trkpt lat="48.58082" lon="2.00863">
        <ele>109</ele>
        <time>2022-03-27T14:23:36Z</time>
      </trkpt>
      <trkpt lat="48.58083" lon="2.00866">
        <ele>109</ele>
        <time>2022-03-27T14:23:38Z</time>
      </trkpt>
      <trkpt lat="48.58085" lon="2.00869">
        <ele>108</ele>
        <time>2022-03-27T14:23:40Z</time>
      </trkpt>
      <trkpt lat="48.58086" lon="2.00873">
        <ele>108</ele>
        <time>2022-03-27T14:23:42Z</time>
      </trkpt>
      <trkpt lat="48.58088" lon="2.00876">
        <ele>108</ele>
        <time>2022-03-27T14:23:44Z</time>
      </trkpt>
      <trkpt lat="48.58089" lon="2.0088">
        <ele>108</ele>
        <time>2022-03-27T14:23:46Z</time>
      </trkpt>
      <trkpt lat="48.5809" lon="2.00883">
        <ele>107</ele>
        <time>2022-03-27T14:23:48Z</time>
      </trkpt>
      <trkpt lat="48.5809" lon="2.00887">
        <ele>107</ele>
        <time>2022-03-27T14:23:50Z</time>
      </trkpt>
      <trkpt lat="48.5809" lon="2.00891">
        <ele>107</ele>
        <time>2022-03-27T14:23:52Z</time>
      </trkpt>
      <trkpt lat="48.58089" lon="2.00896">
        <ele>107</ele>
        <time>2022-03-27T14:23:54Z</time>
      </trkpt>
      <trkpt lat="48.58089" lon="2.00901">
        <ele>107</ele>
        <time>2022-03-27T14:23:56Z</time>
      </trkpt>
      <trkpt lat="48.58089" lon="2.00904">
        <ele>107</ele>
        <time>2022-03-27T14:23:57Z</time>
      </trkpt>
      <trkpt lat="48.5809" lon="2.00907">
        <ele>107</ele>
        <time>2022-03-27T14:23:58Z</time>
      </trkpt>
      <trkpt lat="48.5809" lon="2.0091">
        <ele>107</ele>
        <time>2022-03-27T14:23:59Z</time>
      </trkpt>
      <trkpt lat="48.58091" lon="2.00912">
        <ele>107</ele>
        <time>2022-03-27T14:24:00Z</time>
      </trkpt>
      <trkpt lat="48.58092" lon="2.00915">
        <ele>107</ele>
        <time>2022-03-27T14:24:01Z</time>
      </trkpt>
      <trkpt lat="48.58093" lon="2.00918">
        <ele>106</ele>
        <time>2022-03-27T14:24:02Z</time>
      </trkpt>
      <trkpt lat="48.58094" lon="2.00921">
        <ele>106</ele>
        <time>2022-03-27T14:24:03Z</time>
      </trkpt>
      <trkpt lat="48.58094" lon="2.00924">
        <ele>106</ele>
        <time>2022-03-27T14:24:04Z</time>
      </trkpt>
      <trkpt lat="48.58095" lon="2.00928">
        <ele>106</ele>
        <time>2022-03-27T14:24:05Z</time>
      </trkpt>
      <trkpt lat="48.58095" lon="2.0093">
        <ele>106</ele>
        <time>2022-03-27T14:24:06Z</time>
      </trkpt>
      <trkpt lat="48.58096" lon="2.00935">
        <ele>105</ele>
        <time>2022-03-27T14:24:08Z</time>
      </trkpt>
      <trkpt lat="48.58098" lon="2.0094">
        <ele>105</ele>
        <time>2022-03-27T14:24:10Z</time>
      </trkpt>
      <trkpt lat="48.58098" lon="2.00945">
        <ele>104</ele>
        <time>2022-03-27T14:24:12Z</time>
      </trkpt>
      <trkpt lat="48.58099" lon="2.00949">
        <ele>104</ele>
        <time>2022-03-27T14:24:14Z</time>
      </trkpt>
      <trkpt lat="48.581" lon="2.00954">
        <ele>104</ele>
        <time>2022-03-27T14:24:16Z</time>
      </trkpt>
      <trkpt lat="48.58101" lon="2.00958">
        <ele>103</ele>
        <time>2022-03-27T14:24:18Z</time>
      </trkpt>
      <trkpt lat="48.58102" lon="2.00962">
        <ele>103</ele>
        <time>2022-03-27T14:24:20Z</time>
      </trkpt>
      <trkpt lat="48.58103" lon="2.00967">
        <ele>103</ele>
        <time>2022-03-27T14:24:22Z</time>
      </trkpt>
      <trkpt lat="48.58104" lon="2.00971">
        <ele>103</ele>
        <time>2022-03-27T14:24:24Z</time>
      </trkpt>
      <trkpt lat="48.58105" lon="2.00976">
        <ele>103</ele>
        <time>2022-03-27T14:24:26Z</time>
      </trkpt>
      <trkpt lat="48.58105" lon="2.00979">
        <ele>103</ele>
        <time>2022-03-27T14:24:27Z</time>
      </trkpt>
      <trkpt lat="48.58106" lon="2.00982">
        <ele>103</ele>
        <time>2022-03-27T14:24:28Z</time>
      </trkpt>
      <trkpt lat="48.58107" lon="2.00987">
        <ele>102</ele>
        <time>2022-03-27T14:24:30Z</time>
      </trkpt>
      <trkpt lat="48.58108" lon="2.00992">
        <ele>102</ele>
        <time>2022-03-27T14:24:32Z</time>
      </trkpt>
      <trkpt lat="48.58108" lon="2.00995">
        <ele>102</ele>
        <time>2022-03-27T14:24:33Z</time>
      </trkpt>
      <trkpt lat="48.58108" lon="2.00999">
        <ele>102</ele>
        <time>2022-03-27T14:24:35Z</time>
      </trkpt>
      <trkpt lat="48.58109" lon="2.01004">
        <ele>102</ele>
        <time>2022-03-27T14:24:37Z</time>
      </trkpt>
      <trkpt lat="48.5811" lon="2.01009">
        <ele>102</ele>
        <time>2022-03-27T14:24:39Z</time>
      </trkpt>
      <trkpt lat="48.5811" lon="2.01014">
        <ele>102</ele>
        <time>2022-03-27T14:24:41Z</time>
      </trkpt>
      <trkpt lat="48.58111" lon="2.01018">
        <ele>102</ele>
        <time>2022-03-27T14:24:43Z</time>
      </trkpt>
      <trkpt lat="48.58111" lon="2.01022">
        <ele>102</ele>
        <time>2022-03-27T14:24:45Z</time>
      </trkpt>
      <trkpt lat="48.58112" lon="2.01026">
        <ele>102</ele>
        <time>2022-03-27T14:24:47Z</time>
      </trkpt>
      <trkpt lat="48.58112" lon="2.01031">
        <ele>102</ele>
        <time>2022-03-27T14:24:49Z</time>
      </trkpt>
      <trkpt lat="48.58112" lon="2.01036">
        <ele>101</ele>
        <time>2022-03-27T14:24:51Z</time>
      </trkpt>
      <trkpt lat="48.58113" lon="2.0104">
        <ele>101</ele>
        <time>2022-03-27T14:24:53Z</time>
      </trkpt>
      <trkpt lat="48.58114" lon="2.01045">
        <ele>101</ele>
        <time>2022-03-27T14:24:55Z</time>
      </trkpt>
      <trkpt lat="48.58116" lon="2.0105">
        <ele>101</ele>
        <time>2022-03-27T14:24:57Z</time>
      </trkpt>
      <trkpt lat="48.58117" lon="2.01052">
        <ele>101</ele>
        <time>2022-03-27T14:24:58Z</time>
      </trkpt>
      <trkpt lat="48.58119" lon="2.01057">
        <ele>101</ele>
        <time>2022-03-27T14:24:59Z</time>
      </trkpt>
      <trkpt lat="48.58119" lon="2.0106">
        <ele>102</ele>
        <time>2022-03-27T14:25:01Z</time>
      </trkpt>
      <trkpt lat="48.5812" lon="2.01063">
        <ele>102</ele>
        <time>2022-03-27T14:25:02Z</time>
      </trkpt>
      <trkpt lat="48.5812" lon="2.01066">
        <ele>101</ele>
        <time>2022-03-27T14:25:03Z</time>
      </trkpt>
      <trkpt lat="48.58121" lon="2.0107">
        <ele>101</ele>
        <time>2022-03-27T14:25:05Z</time>
      </trkpt>
      <trkpt lat="48.58121" lon="2.01074">
        <ele>101</ele>
        <time>2022-03-27T14:25:07Z</time>
      </trkpt>
      <trkpt lat="48.58121" lon="2.01079">
        <ele>101</ele>
        <time>2022-03-27T14:25:09Z</time>
      </trkpt>
      <trkpt lat="48.58122" lon="2.01084">
        <ele>101</ele>
        <time>2022-03-27T14:25:11Z</time>
      </trkpt>
      <trkpt lat="48.58123" lon="2.01087">
        <ele>100</ele>
        <time>2022-03-27T14:25:12Z</time>
      </trkpt>
      <trkpt lat="48.58123" lon="2.0109">
        <ele>100</ele>
        <time>2022-03-27T14:25:13Z</time>
      </trkpt>
      <trkpt lat="48.58125" lon="2.01095">
        <ele>99</ele>
        <time>2022-03-27T14:25:15Z</time>
      </trkpt>
      <trkpt lat="48.58125" lon="2.01098">
        <ele>99</ele>
        <time>2022-03-27T14:25:16Z</time>
      </trkpt>
      <trkpt lat="48.58126" lon="2.01102">
        <ele>99</ele>
        <time>2022-03-27T14:25:18Z</time>
      </trkpt>
      <trkpt lat="48.58127" lon="2.01106">
        <ele>99</ele>
        <time>2022-03-27T14:25:20Z</time>
      </trkpt>
      <trkpt lat="48.58127" lon="2.01108">
        <ele>99</ele>
        <time>2022-03-27T14:25:21Z</time>
      </trkpt>
      <trkpt lat="48.58128" lon="2.01113">
        <ele>99</ele>
        <time>2022-03-27T14:25:23Z</time>
      </trkpt>
      <trkpt lat="48.58129" lon="2.01117">
        <ele>99</ele>
        <time>2022-03-27T14:25:25Z</time>
      </trkpt>
      <trkpt lat="48.5813" lon="2.01122">
        <ele>99</ele>
        <time>2022-03-27T14:25:27Z</time>
      </trkpt>
      <trkpt lat="48.5813" lon="2.01124">
        <ele>99</ele>
        <time>2022-03-27T14:25:28Z</time>
      </trkpt>
      <trkpt lat="48.58132" lon="2.01129">
        <ele>98</ele>
        <time>2022-03-27T14:25:30Z</time>
      </trkpt>
      <trkpt lat="48.58133" lon="2.01133">
        <ele>98</ele>
        <time>2022-03-27T14:25:32Z</time>
      </trkpt>
      <trkpt lat="48.58134" lon="2.01138">
        <ele>98</ele>
        <time>2022-03-27T14:25:34Z</time>
      </trkpt>
      <trkpt lat="48.58137" lon="2.01142">
        <ele>98</ele>
        <time>2022-03-27T14:25:36Z</time>
      </trkpt>
      <trkpt lat="48.58139" lon="2.01145">
        <ele>98</ele>
        <time>2022-03-27T14:25:38Z</time>
      </trkpt>
      <trkpt lat="48.58142" lon="2.01148">
        <ele>98</ele>
        <time>2022-03-27T14:25:40Z</time>
      </trkpt>
      <trkpt lat="48.58145" lon="2.01149">
        <ele>98</ele>
        <time>2022-03-27T14:25:42Z</time>
      </trkpt>
      <trkpt lat="48.58148" lon="2.01149">
        <ele>98</ele>
        <time>2022-03-27T14:25:44Z</time>
      </trkpt>
      <trkpt lat="48.5815" lon="2.01149">
        <ele>98</ele>
        <time>2022-03-27T14:25:45Z</time>
      </trkpt>
      <trkpt lat="48.58153" lon="2.01148">
        <ele>98</ele>
        <time>2022-03-27T14:25:47Z</time>
      </trkpt>
      <trkpt lat="48.58156" lon="2.01147">
        <ele>98</ele>
        <time>2022-03-27T14:25:49Z</time>
      </trkpt>
      <trkpt lat="48.58159" lon="2.01145">
        <ele>99</ele>
        <time>2022-03-27T14:25:51Z</time>
      </trkpt>
      <trkpt lat="48.58161" lon="2.01143">
        <ele>99</ele>
        <time>2022-03-27T14:25:53Z</time>
      </trkpt>
      <trkpt lat="48.58164" lon="2.01141">
        <ele>99</ele>
        <time>2022-03-27T14:25:55Z</time>
      </trkpt>
      <trkpt lat="48.58167" lon="2.01139">
        <ele>99</ele>
        <time>2022-03-27T14:25:57Z</time>
      </trkpt>
      <trkpt lat="48.5817" lon="2.01137">
        <ele>99</ele>
        <time>2022-03-27T14:25:59Z</time>
      </trkpt>
      <trkpt lat="48.58173" lon="2.01135">
        <ele>99</ele>
        <time>2022-03-27T14:26:01Z</time>
      </trkpt>
      <trkpt lat="48.58176" lon="2.01134">
        <ele>99</ele>
        <time>2022-03-27T14:26:03Z</time>
      </trkpt>
      <trkpt lat="48.58179" lon="2.01132">
        <ele>99</ele>
        <time>2022-03-27T14:26:05Z</time>
      </trkpt>
      <trkpt lat="48.58182" lon="2.01131">
        <ele>99</ele>
        <time>2022-03-27T14:26:07Z</time>
      </trkpt>
      <trkpt lat="48.58183" lon="2.0113">
        <ele>100</ele>
        <time>2022-03-27T14:26:09Z</time>
      </trkpt>
      <trkpt lat="48.58185" lon="2.01128">
        <ele>100</ele>
        <time>2022-03-27T14:26:11Z</time>
      </trkpt>
      <trkpt lat="48.58187" lon="2.01127">
        <ele>100</ele>
        <time>2022-03-27T14:26:14Z</time>
      </trkpt>
      <trkpt lat="48.58189" lon="2.01128">
        <ele>100</ele>
        <time>2022-03-27T14:26:27Z</time>
      </trkpt>
      <trkpt lat="48.58192" lon="2.01126">
        <ele>100</ele>
        <time>2022-03-27T14:26:29Z</time>
      </trkpt>
      <trkpt lat="48.58195" lon="2.01124">
        <ele>100</ele>
        <time>2022-03-27T14:26:31Z</time>
      </trkpt>
      <trkpt lat="48.58196" lon="2.01123">
        <ele>100</ele>
        <time>2022-03-27T14:26:32Z</time>
      </trkpt>
      <trkpt lat="48.58198" lon="2.01122">
        <ele>100</ele>
        <time>2022-03-27T14:26:33Z</time>
      </trkpt>
      <trkpt lat="48.58201" lon="2.0112">
        <ele>100</ele>
        <time>2022-03-27T14:26:34Z</time>
      </trkpt>
      <trkpt lat="48.58204" lon="2.01119">
        <ele>100</ele>
        <time>2022-03-27T14:26:35Z</time>
      </trkpt>
      <trkpt lat="48.58207" lon="2.01117">
        <ele>100</ele>
        <time>2022-03-27T14:26:36Z</time>
      </trkpt>
      <trkpt lat="48.58209" lon="2.01115">
        <ele>100</ele>
        <time>2022-03-27T14:26:37Z</time>
      </trkpt>
      <trkpt lat="48.58212" lon="2.01113">
        <ele>100</ele>
        <time>2022-03-27T14:26:38Z</time>
      </trkpt>
      <trkpt lat="48.58215" lon="2.01111">
        <ele>100</ele>
        <time>2022-03-27T14:26:39Z</time>
      </trkpt>
      <trkpt lat="48.58218" lon="2.0111">
        <ele>100</ele>
        <time>2022-03-27T14:26:40Z</time>
      </trkpt>
      <trkpt lat="48.58222" lon="2.01108">
        <ele>100</ele>
        <time>2022-03-27T14:26:41Z</time>
      </trkpt>
      <trkpt lat="48.58225" lon="2.01106">
        <ele>100</ele>
        <time>2022-03-27T14:26:42Z</time>
      </trkpt>
      <trkpt lat="48.58228" lon="2.01104">
        <ele>100</ele>
        <time>2022-03-27T14:26:43Z</time>
      </trkpt>
      <trkpt lat="48.58232" lon="2.01102">
        <ele>100</ele>
        <time>2022-03-27T14:26:44Z</time>
      </trkpt>
      <trkpt lat="48.58235" lon="2.011">
        <ele>100</ele>
        <time>2022-03-27T14:26:45Z</time>
      </trkpt>
      <trkpt lat="48.58239" lon="2.01098">
        <ele>101</ele>
        <time>2022-03-27T14:26:46Z</time>
      </trkpt>
      <trkpt lat="48.58243" lon="2.01095">
        <ele>101</ele>
        <time>2022-03-27T14:26:47Z</time>
      </trkpt>
      <trkpt lat="48.58246" lon="2.01093">
        <ele>101</ele>
        <time>2022-03-27T14:26:48Z</time>
      </trkpt>
      <trkpt lat="48.58249" lon="2.0109">
        <ele>101</ele>
        <time>2022-03-27T14:26:49Z</time>
      </trkpt>
      <trkpt lat="48.58252" lon="2.01088">
        <ele>101</ele>
        <time>2022-03-27T14:26:50Z</time>
      </trkpt>
      <trkpt lat="48.58256" lon="2.01086">
        <ele>102</ele>
        <time>2022-03-27T14:26:51Z</time>
      </trkpt>
      <trkpt lat="48.58259" lon="2.01083">
        <ele>102</ele>
        <time>2022-03-27T14:26:52Z</time>
      </trkpt>
      <trkpt lat="48.58261" lon="2.01081">
        <ele>102</ele>
        <time>2022-03-27T14:26:53Z</time>
      </trkpt>
      <trkpt lat="48.58264" lon="2.01079">
        <ele>102</ele>
        <time>2022-03-27T14:26:54Z</time>
      </trkpt>
      <trkpt lat="48.58267" lon="2.01076">
        <ele>102</ele>
        <time>2022-03-27T14:26:55Z</time>
      </trkpt>
      <trkpt lat="48.5827" lon="2.01075">
        <ele>102</ele>
        <time>2022-03-27T14:26:56Z</time>
      </trkpt>
      <trkpt lat="48.58273" lon="2.01073">
        <ele>103</ele>
        <time>2022-03-27T14:26:57Z</time>
      </trkpt>
      <trkpt lat="48.58277" lon="2.01071">
        <ele>103</ele>
        <time>2022-03-27T14:26:58Z</time>
      </trkpt>
      <trkpt lat="48.5828" lon="2.01068">
        <ele>103</ele>
        <time>2022-03-27T14:26:59Z</time>
      </trkpt>
      <trkpt lat="48.58283" lon="2.01066">
        <ele>102</ele>
        <time>2022-03-27T14:27:00Z</time>
      </trkpt>
      <trkpt lat="48.58286" lon="2.01063">
        <ele>102</ele>
        <time>2022-03-27T14:27:01Z</time>
      </trkpt>
      <trkpt lat="48.5829" lon="2.01061">
        <ele>102</ele>
        <time>2022-03-27T14:27:02Z</time>
      </trkpt>
      <trkpt lat="48.58293" lon="2.01059">
        <ele>102</ele>
        <time>2022-03-27T14:27:03Z</time>
      </trkpt>
      <trkpt lat="48.58297" lon="2.01057">
        <ele>103</ele>
        <time>2022-03-27T14:27:04Z</time>
      </trkpt>
      <trkpt lat="48.58301" lon="2.01055">
        <ele>103</ele>
        <time>2022-03-27T14:27:05Z</time>
      </trkpt>
      <trkpt lat="48.58305" lon="2.01054">
        <ele>103</ele>
        <time>2022-03-27T14:27:06Z</time>
      </trkpt>
      <trkpt lat="48.58308" lon="2.01053">
        <ele>103</ele>
        <time>2022-03-27T14:27:07Z</time>
      </trkpt>
      <trkpt lat="48.58311" lon="2.01051">
        <ele>103</ele>
        <time>2022-03-27T14:27:08Z</time>
      </trkpt>
      <trkpt lat="48.58315" lon="2.0105">
        <ele>102</ele>
        <time>2022-03-27T14:27:09Z</time>
      </trkpt>
      <trkpt lat="48.58318" lon="2.01048">
        <ele>102</ele>
        <time>2022-03-27T14:27:10Z</time>
      </trkpt>
      <trkpt lat="48.58323" lon="2.01046">
        <ele>102</ele>
        <time>2022-03-27T14:27:11Z</time>
      </trkpt>
      <trkpt lat="48.58327" lon="2.01045">
        <ele>102</ele>
        <time>2022-03-27T14:27:12Z</time>
      </trkpt>
      <trkpt lat="48.58331" lon="2.01044">
        <ele>102</ele>
        <time>2022-03-27T14:27:13Z</time>
      </trkpt>
      <trkpt lat="48.58335" lon="2.01043">
        <ele>102</ele>
        <time>2022-03-27T14:27:14Z</time>
      </trkpt>
      <trkpt lat="48.58338" lon="2.01042">
        <ele>101</ele>
        <time>2022-03-27T14:27:15Z</time>
      </trkpt>
      <trkpt lat="48.58342" lon="2.0104">
        <ele>101</ele>
        <time>2022-03-27T14:27:16Z</time>
      </trkpt>
      <trkpt lat="48.58346" lon="2.01038">
        <ele>101</ele>
        <time>2022-03-27T14:27:17Z</time>
      </trkpt>
      <trkpt lat="48.58349" lon="2.01037">
        <ele>101</ele>
        <time>2022-03-27T14:27:18Z</time>
      </trkpt>
      <trkpt lat="48.58353" lon="2.01035">
        <ele>101</ele>
        <time>2022-03-27T14:27:19Z</time>
      </trkpt>
      <trkpt lat="48.58356" lon="2.01035">
        <ele>101</ele>
        <time>2022-03-27T14:27:20Z</time>
      </trkpt>
      <trkpt lat="48.5836" lon="2.01033">
        <ele>101</ele>
        <time>2022-03-27T14:27:21Z</time>
      </trkpt>
      <trkpt lat="48.58363" lon="2.01031">
        <ele>101</ele>
        <time>2022-03-27T14:27:22Z</time>
      </trkpt>
      <trkpt lat="48.58366" lon="2.0103">
        <ele>101</ele>
        <time>2022-03-27T14:27:23Z</time>
      </trkpt>
      <trkpt lat="48.5837" lon="2.01029">
        <ele>101</ele>
        <time>2022-03-27T14:27:24Z</time>
      </trkpt>
      <trkpt lat="48.58373" lon="2.01028">
        <ele>101</ele>
        <time>2022-03-27T14:27:25Z</time>
      </trkpt>
      <trkpt lat="48.58377" lon="2.01026">
        <ele>101</ele>
        <time>2022-03-27T14:27:26Z</time>
      </trkpt>
      <trkpt lat="48.5838" lon="2.01025">
        <ele>101</ele>
        <time>2022-03-27T14:27:27Z</time>
      </trkpt>
      <trkpt lat="48.58383" lon="2.01024">
        <ele>100</ele>
        <time>2022-03-27T14:27:28Z</time>
      </trkpt>
      <trkpt lat="48.58386" lon="2.01023">
        <ele>100</ele>
        <time>2022-03-27T14:27:29Z</time>
      </trkpt>
      <trkpt lat="48.58388" lon="2.0102">
        <ele>100</ele>
        <time>2022-03-27T14:27:30Z</time>
      </trkpt>
      <trkpt lat="48.58391" lon="2.01016">
        <ele>100</ele>
        <time>2022-03-27T14:27:31Z</time>
      </trkpt>
      <trkpt lat="48.58394" lon="2.01013">
        <ele>100</ele>
        <time>2022-03-27T14:27:32Z</time>
      </trkpt>
      <trkpt lat="48.58396" lon="2.0101">
        <ele>100</ele>
        <time>2022-03-27T14:27:33Z</time>
      </trkpt>
      <trkpt lat="48.58398" lon="2.01006">
        <ele>101</ele>
        <time>2022-03-27T14:27:34Z</time>
      </trkpt>
      <trkpt lat="48.58401" lon="2.01003">
        <ele>101</ele>
        <time>2022-03-27T14:27:35Z</time>
      </trkpt>
      <trkpt lat="48.58404" lon="2.00999">
        <ele>101</ele>
        <time>2022-03-27T14:27:36Z</time>
      </trkpt>
      <trkpt lat="48.58406" lon="2.00995">
        <ele>100</ele>
        <time>2022-03-27T14:27:37Z</time>
      </trkpt>
      <trkpt lat="48.58408" lon="2.00992">
        <ele>101</ele>
        <time>2022-03-27T14:27:38Z</time>
      </trkpt>
      <trkpt lat="48.58411" lon="2.00989">
        <ele>100</ele>
        <time>2022-03-27T14:27:39Z</time>
      </trkpt>
      <trkpt lat="48.58416" lon="2.00987">
        <ele>100</ele>
        <time>2022-03-27T14:27:40Z</time>
      </trkpt>
      <trkpt lat="48.5842" lon="2.00986">
        <ele>100</ele>
        <time>2022-03-27T14:27:41Z</time>
      </trkpt>
      <trkpt lat="48.58424" lon="2.00986">
        <ele>100</ele>
        <time>2022-03-27T14:27:42Z</time>
      </trkpt>
      <trkpt lat="48.58428" lon="2.00987">
        <ele>100</ele>
        <time>2022-03-27T14:27:43Z</time>
      </trkpt>
      <trkpt lat="48.58431" lon="2.0099">
        <ele>100</ele>
        <time>2022-03-27T14:27:44Z</time>
      </trkpt>
      <trkpt lat="48.58434" lon="2.00993">
        <ele>100</ele>
        <time>2022-03-27T14:27:45Z</time>
      </trkpt>
      <trkpt lat="48.58436" lon="2.00996">
        <ele>100</ele>
        <time>2022-03-27T14:27:46Z</time>
      </trkpt>
      <trkpt lat="48.58439" lon="2.01">
        <ele>100</ele>
        <time>2022-03-27T14:27:47Z</time>
      </trkpt>
      <trkpt lat="48.5844" lon="2.01004">
        <ele>100</ele>
        <time>2022-03-27T14:27:48Z</time>
      </trkpt>
      <trkpt lat="48.58442" lon="2.01008">
        <ele>100</ele>
        <time>2022-03-27T14:27:49Z</time>
      </trkpt>
      <trkpt lat="48.58444" lon="2.01012">
        <ele>100</ele>
        <time>2022-03-27T14:27:50Z</time>
      </trkpt>
      <trkpt lat="48.58446" lon="2.01016">
        <ele>100</ele>
        <time>2022-03-27T14:27:51Z</time>
      </trkpt>
      <trkpt lat="48.58449" lon="2.01021">
        <ele>101</ele>
        <time>2022-03-27T14:27:52Z</time>
      </trkpt>
      <trkpt lat="48.58451" lon="2.01025">
        <ele>101</ele>
        <time>2022-03-27T14:27:53Z</time>
      </trkpt>
      <trkpt lat="48.58453" lon="2.0103">
        <ele>101</ele>
        <time>2022-03-27T14:27:54Z</time>
      </trkpt>
      <trkpt lat="48.58455" lon="2.01034">
        <ele>101</ele>
        <time>2022-03-27T14:27:55Z</time>
      </trkpt>
      <trkpt lat="48.58457" lon="2.01038">
        <ele>101</ele>
        <time>2022-03-27T14:27:56Z</time>
      </trkpt>
      <trkpt lat="48.58458" lon="2.01042">
        <ele>101</ele>
        <time>2022-03-27T14:27:57Z</time>
      </trkpt>
      <trkpt lat="48.5846" lon="2.01046">
        <ele>101</ele>
        <time>2022-03-27T14:27:58Z</time>
      </trkpt>
      <trkpt lat="48.58463" lon="2.0105">
        <ele>101</ele>
        <time>2022-03-27T14:27:59Z</time>
      </trkpt>
      <trkpt lat="48.58465" lon="2.01054">
        <ele>102</ele>
        <time>2022-03-27T14:28:00Z</time>
      </trkpt>
      <trkpt lat="48.58467" lon="2.01058">
        <ele>102</ele>
        <time>2022-03-27T14:28:01Z</time>
      </trkpt>
      <trkpt lat="48.58471" lon="2.01066">
        <ele>102</ele>
        <time>2022-03-27T14:28:03Z</time>
      </trkpt>
      <trkpt lat="48.58474" lon="2.01072">
        <ele>102</ele>
        <time>2022-03-27T14:28:04Z</time>
      </trkpt>
      <trkpt lat="48.58476" lon="2.01078">
        <ele>103</ele>
        <time>2022-03-27T14:28:05Z</time>
      </trkpt>
      <trkpt lat="48.58478" lon="2.01083">
        <ele>103</ele>
        <time>2022-03-27T14:28:06Z</time>
      </trkpt>
      <trkpt lat="48.58481" lon="2.01088">
        <ele>103</ele>
        <time>2022-03-27T14:28:07Z</time>
      </trkpt>
      <trkpt lat="48.58484" lon="2.01093">
        <ele>103</ele>
        <time>2022-03-27T14:28:08Z</time>
      </trkpt>
      <trkpt lat="48.58486" lon="2.01099">
        <ele>103</ele>
        <time>2022-03-27T14:28:09Z</time>
      </trkpt>
      <trkpt lat="48.58489" lon="2.01104">
        <ele>103</ele>
        <time>2022-03-27T14:28:10Z</time>
      </trkpt>
      <trkpt lat="48.58491" lon="2.01109">
        <ele>103</ele>
        <time>2022-03-27T14:28:11Z</time>
      </trkpt>
      <trkpt lat="48.58494" lon="2.01114">
        <ele>103</ele>
        <time>2022-03-27T14:28:12Z</time>
      </trkpt>
      <trkpt lat="48.58495" lon="2.01118">
        <ele>103</ele>
        <time>2022-03-27T14:28:13Z</time>
      </trkpt>
      <trkpt lat="48.58498" lon="2.01123">
        <ele>103</ele>
        <time>2022-03-27T14:28:14Z</time>
      </trkpt>
      <trkpt lat="48.585" lon="2.01127">
        <ele>103</ele>
        <time>2022-03-27T14:28:15Z</time>
      </trkpt>
      <trkpt lat="48.58503" lon="2.01131">
        <ele>103</ele>
        <time>2022-03-27T14:28:16Z</time>
      </trkpt>
      <trkpt lat="48.58506" lon="2.01136">
        <ele>103</ele>
        <time>2022-03-27T14:28:17Z</time>
      </trkpt>
      <trkpt lat="48.58508" lon="2.01141">
        <ele>104</ele>
        <time>2022-03-27T14:28:18Z</time>
      </trkpt>
      <trkpt lat="48.58511" lon="2.01145">
        <ele>104</ele>
        <time>2022-03-27T14:28:19Z</time>
      </trkpt>
      <trkpt lat="48.58513" lon="2.01148">
        <ele>104</ele>
        <time>2022-03-27T14:28:20Z</time>
      </trkpt>
      <trkpt lat="48.58516" lon="2.0115">
        <ele>104</ele>
        <time>2022-03-27T14:28:21Z</time>
      </trkpt>
      <trkpt lat="48.58518" lon="2.01153">
        <ele>104</ele>
        <time>2022-03-27T14:28:22Z</time>
      </trkpt>
      <trkpt lat="48.5852" lon="2.01155">
        <ele>104</ele>
        <time>2022-03-27T14:28:23Z</time>
      </trkpt>
      <trkpt lat="48.58522" lon="2.01158">
        <ele>104</ele>
        <time>2022-03-27T14:28:24Z</time>
      </trkpt>
      <trkpt lat="48.58524" lon="2.01161">
        <ele>104</ele>
        <time>2022-03-27T14:28:25Z</time>
      </trkpt>
      <trkpt lat="48.58525" lon="2.01165">
        <ele>104</ele>
        <time>2022-03-27T14:28:26Z</time>
      </trkpt>
      <trkpt lat="48.58527" lon="2.01169">
        <ele>104</ele>
        <time>2022-03-27T14:28:27Z</time>
      </trkpt>
      <trkpt lat="48.58529" lon="2.01173">
        <ele>104</ele>
        <time>2022-03-27T14:28:28Z</time>
      </trkpt>
      <trkpt lat="48.58531" lon="2.01177">
        <ele>104</ele>
        <time>2022-03-27T14:28:29Z</time>
      </trkpt>
      <trkpt lat="48.58532" lon="2.01182">
        <ele>104</ele>
        <time>2022-03-27T14:28:30Z</time>
      </trkpt>
      <trkpt lat="48.58534" lon="2.01187">
        <ele>104</ele>
        <time>2022-03-27T14:28:31Z</time>
      </trkpt>
      <trkpt lat="48.58539" lon="2.01197">
        <ele>104</ele>
        <time>2022-03-27T14:28:33Z</time>
      </trkpt>
      <trkpt lat="48.58541" lon="2.01202">
        <ele>104</ele>
        <time>2022-03-27T14:28:34Z</time>
      </trkpt>
      <trkpt lat="48.58543" lon="2.01207">
        <ele>104</ele>
        <time>2022-03-27T14:28:35Z</time>
      </trkpt>
      <trkpt lat="48.58545" lon="2.01211">
        <ele>104</ele>
        <time>2022-03-27T14:28:36Z</time>
      </trkpt>
      <trkpt lat="48.58548" lon="2.01215">
        <ele>103</ele>
        <time>2022-03-27T14:28:37Z</time>
      </trkpt>
      <trkpt lat="48.58551" lon="2.0122">
        <ele>104</ele>
        <time>2022-03-27T14:28:38Z</time>
      </trkpt>
      <trkpt lat="48.58554" lon="2.01225">
        <ele>104</ele>
        <time>2022-03-27T14:28:39Z</time>
      </trkpt>
      <trkpt lat="48.58556" lon="2.01229">
        <ele>104</ele>
        <time>2022-03-27T14:28:40Z</time>
      </trkpt>
      <trkpt lat="48.58559" lon="2.01234">
        <ele>104</ele>
        <time>2022-03-27T14:28:41Z</time>
      </trkpt>
      <trkpt lat="48.58562" lon="2.01238">
        <ele>103</ele>
        <time>2022-03-27T14:28:42Z</time>
      </trkpt>
      <trkpt lat="48.58564" lon="2.01242">
        <ele>103</ele>
        <time>2022-03-27T14:28:43Z</time>
      </trkpt>
      <trkpt lat="48.58566" lon="2.01247">
        <ele>103</ele>
        <time>2022-03-27T14:28:44Z</time>
      </trkpt>
      <trkpt lat="48.58567" lon="2.01251">
        <ele>103</ele>
        <time>2022-03-27T14:28:45Z</time>
      </trkpt>
      <trkpt lat="48.5857" lon="2.01256">
        <ele>102</ele>
        <time>2022-03-27T14:28:46Z</time>
      </trkpt>
      <trkpt lat="48.58572" lon="2.01259">
        <ele>102</ele>
        <time>2022-03-27T14:28:47Z</time>
      </trkpt>
      <trkpt lat="48.58576" lon="2.01263">
        <ele>102</ele>
        <time>2022-03-27T14:28:48Z</time>
      </trkpt>
      <trkpt lat="48.58579" lon="2.01265">
        <ele>102</ele>
        <time>2022-03-27T14:28:49Z</time>
      </trkpt>
      <trkpt lat="48.58581" lon="2.01266">
        <ele>102</ele>
        <time>2022-03-27T14:28:50Z</time>
      </trkpt>
      <trkpt lat="48.58583" lon="2.01263">
        <ele>102</ele>
        <time>2022-03-27T14:28:52Z</time>
      </trkpt>
      <trkpt lat="48.58585" lon="2.01261">
        <ele>102</ele>
        <time>2022-03-27T14:28:53Z</time>
      </trkpt>
      <trkpt lat="48.58587" lon="2.01257">
        <ele>102</ele>
        <time>2022-03-27T14:28:54Z</time>
      </trkpt>
      <trkpt lat="48.58589" lon="2.01254">
        <ele>102</ele>
        <time>2022-03-27T14:28:55Z</time>
      </trkpt>
      <trkpt lat="48.58591" lon="2.0125">
        <ele>101</ele>
        <time>2022-03-27T14:28:56Z</time>
      </trkpt>
      <trkpt lat="48.58594" lon="2.01246">
        <ele>101</ele>
        <time>2022-03-27T14:28:57Z</time>
      </trkpt>
      <trkpt lat="48.58597" lon="2.01242">
        <ele>101</ele>
        <time>2022-03-27T14:28:58Z</time>
      </trkpt>
      <trkpt lat="48.58599" lon="2.01238">
        <ele>101</ele>
        <time>2022-03-27T14:28:59Z</time>
      </trkpt>
      <trkpt lat="48.58601" lon="2.01234">
        <ele>101</ele>
        <time>2022-03-27T14:29:00Z</time>
      </trkpt>
      <trkpt lat="48.58603" lon="2.0123">
        <ele>101</ele>
        <time>2022-03-27T14:29:01Z</time>
      </trkpt>
      <trkpt lat="48.58605" lon="2.01225">
        <ele>101</ele>
        <time>2022-03-27T14:29:02Z</time>
      </trkpt>
      <trkpt lat="48.58608" lon="2.01223">
        <ele>101</ele>
        <time>2022-03-27T14:29:03Z</time>
      </trkpt>
      <trkpt lat="48.5861" lon="2.0122">
        <ele>101</ele>
        <time>2022-03-27T14:29:04Z</time>
      </trkpt>
      <trkpt lat="48.58613" lon="2.01217">
        <ele>101</ele>
        <time>2022-03-27T14:29:05Z</time>
      </trkpt>
      <trkpt lat="48.58616" lon="2.01215">
        <ele>100</ele>
        <time>2022-03-27T14:29:06Z</time>
      </trkpt>
      <trkpt lat="48.58619" lon="2.01212">
        <ele>100</ele>
        <time>2022-03-27T14:29:07Z</time>
      </trkpt>
      <trkpt lat="48.58622" lon="2.01209">
        <ele>100</ele>
        <time>2022-03-27T14:29:08Z</time>
      </trkpt>
      <trkpt lat="48.58624" lon="2.01206">
        <ele>100</ele>
        <time>2022-03-27T14:29:09Z</time>
      </trkpt>
      <trkpt lat="48.58626" lon="2.01203">
        <ele>99</ele>
        <time>2022-03-27T14:29:10Z</time>
      </trkpt>
      <trkpt lat="48.58629" lon="2.012">
        <ele>99</ele>
        <time>2022-03-27T14:29:11Z</time>
      </trkpt>
      <trkpt lat="48.58633" lon="2.01199">
        <ele>99</ele>
        <time>2022-03-27T14:29:12Z</time>
      </trkpt>
      <trkpt lat="48.58636" lon="2.01195">
        <ele>99</ele>
        <time>2022-03-27T14:29:13Z</time>
      </trkpt>
      <trkpt lat="48.58639" lon="2.01192">
        <ele>98</ele>
        <time>2022-03-27T14:29:14Z</time>
      </trkpt>
      <trkpt lat="48.58641" lon="2.0119">
        <ele>98</ele>
        <time>2022-03-27T14:29:15Z</time>
      </trkpt>
      <trkpt lat="48.58643" lon="2.01186">
        <ele>98</ele>
        <time>2022-03-27T14:29:16Z</time>
      </trkpt>
      <trkpt lat="48.58646" lon="2.01184">
        <ele>97</ele>
        <time>2022-03-27T14:29:17Z</time>
      </trkpt>
      <trkpt lat="48.58648" lon="2.01181">
        <ele>97</ele>
        <time>2022-03-27T14:29:18Z</time>
      </trkpt>
      <trkpt lat="48.5865" lon="2.01178">
        <ele>97</ele>
        <time>2022-03-27T14:29:19Z</time>
      </trkpt>
      <trkpt lat="48.58653" lon="2.01175">
        <ele>97</ele>
        <time>2022-03-27T14:29:20Z</time>
      </trkpt>
      <trkpt lat="48.58656" lon="2.01172">
        <ele>97</ele>
        <time>2022-03-27T14:29:21Z</time>
      </trkpt>
      <trkpt lat="48.58658" lon="2.01169">
        <ele>97</ele>
        <time>2022-03-27T14:29:22Z</time>
      </trkpt>
      <trkpt lat="48.58661" lon="2.01165">
        <ele>97</ele>
        <time>2022-03-27T14:29:23Z</time>
      </trkpt>
      <trkpt lat="48.58663" lon="2.01163">
        <ele>97</ele>
        <time>2022-03-27T14:29:24Z</time>
      </trkpt>
      <trkpt lat="48.58665" lon="2.0116">
        <ele>97</ele>
        <time>2022-03-27T14:29:25Z</time>
      </trkpt>
      <trkpt lat="48.58667" lon="2.01158">
        <ele>97</ele>
        <time>2022-03-27T14:29:26Z</time>
      </trkpt>
      <trkpt lat="48.58669" lon="2.01157">
        <ele>97</ele>
        <time>2022-03-27T14:29:27Z</time>
      </trkpt>
      <trkpt lat="48.58672" lon="2.01154">
        <ele>97</ele>
        <time>2022-03-27T14:29:29Z</time>
      </trkpt>
      <trkpt lat="48.58674" lon="2.01152">
        <ele>97</ele>
        <time>2022-03-27T14:29:30Z</time>
      </trkpt>
      <trkpt lat="48.58675" lon="2.0115">
        <ele>97</ele>
        <time>2022-03-27T14:29:32Z</time>
      </trkpt>
      <trkpt lat="48.58678" lon="2.01148">
        <ele>97</ele>
        <time>2022-03-27T14:29:35Z</time>
      </trkpt>
      <trkpt lat="48.58679" lon="2.01145">
        <ele>97</ele>
        <time>2022-03-27T14:29:36Z</time>
      </trkpt>
      <trkpt lat="48.58682" lon="2.01144">
        <ele>97</ele>
        <time>2022-03-27T14:29:37Z</time>
      </trkpt>
      <trkpt lat="48.58684" lon="2.01142">
        <ele>97</ele>
        <time>2022-03-27T14:29:38Z</time>
      </trkpt>
      <trkpt lat="48.58686" lon="2.0114">
        <ele>96</ele>
        <time>2022-03-27T14:29:39Z</time>
      </trkpt>
      <trkpt lat="48.58688" lon="2.0114">
        <ele>96</ele>
        <time>2022-03-27T14:29:40Z</time>
      </trkpt>
      <trkpt lat="48.58691" lon="2.0114">
        <ele>96</ele>
        <time>2022-03-27T14:29:42Z</time>
      </trkpt>
      <trkpt lat="48.58694" lon="2.01141">
        <ele>96</ele>
        <time>2022-03-27T14:29:43Z</time>
      </trkpt>
      <trkpt lat="48.58695" lon="2.01143">
        <ele>95</ele>
        <time>2022-03-27T14:29:44Z</time>
      </trkpt>
      <trkpt lat="48.58697" lon="2.01144">
        <ele>95</ele>
        <time>2022-03-27T14:29:45Z</time>
      </trkpt>
      <trkpt lat="48.58699" lon="2.01146">
        <ele>95</ele>
        <time>2022-03-27T14:29:46Z</time>
      </trkpt>
      <trkpt lat="48.58701" lon="2.01147">
        <ele>95</ele>
        <time>2022-03-27T14:29:47Z</time>
      </trkpt>
      <trkpt lat="48.58702" lon="2.01149">
        <ele>95</ele>
        <time>2022-03-27T14:29:48Z</time>
      </trkpt>
      <trkpt lat="48.58705" lon="2.01151">
        <ele>94</ele>
        <time>2022-03-27T14:29:50Z</time>
      </trkpt>
      <trkpt lat="48.58708" lon="2.01153">
        <ele>94</ele>
        <time>2022-03-27T14:29:52Z</time>
      </trkpt>
      <trkpt lat="48.58709" lon="2.01154">
        <ele>94</ele>
        <time>2022-03-27T14:29:53Z</time>
      </trkpt>
      <trkpt lat="48.58711" lon="2.01155">
        <ele>94</ele>
        <time>2022-03-27T14:29:54Z</time>
      </trkpt>
      <trkpt lat="48.58713" lon="2.01157">
        <ele>94</ele>
        <time>2022-03-27T14:29:55Z</time>
      </trkpt>
      <trkpt lat="48.58714" lon="2.01158">
        <ele>94</ele>
        <time>2022-03-27T14:29:56Z</time>
      </trkpt>
      <trkpt lat="48.58717" lon="2.0116">
        <ele>94</ele>
        <time>2022-03-27T14:29:58Z</time>
      </trkpt>
      <trkpt lat="48.5872" lon="2.01162">
        <ele>94</ele>
        <time>2022-03-27T14:30:00Z</time>
      </trkpt>
      <trkpt lat="48.58723" lon="2.01165">
        <ele>94</ele>
        <time>2022-03-27T14:30:02Z</time>
      </trkpt>
      <trkpt lat="48.58725" lon="2.01167">
        <ele>94</ele>
        <time>2022-03-27T14:30:04Z</time>
      </trkpt>
      <trkpt lat="48.58728" lon="2.0117">
        <ele>93</ele>
        <time>2022-03-27T14:30:06Z</time>
      </trkpt>
      <trkpt lat="48.5873" lon="2.01171">
        <ele>93</ele>
        <time>2022-03-27T14:30:07Z</time>
      </trkpt>
      <trkpt lat="48.58733" lon="2.01173">
        <ele>93</ele>
        <time>2022-03-27T14:30:09Z</time>
      </trkpt>
      <trkpt lat="48.58736" lon="2.01176">
        <ele>93</ele>
        <time>2022-03-27T14:30:11Z</time>
      </trkpt>
      <trkpt lat="48.58739" lon="2.01178">
        <ele>93</ele>
        <time>2022-03-27T14:30:13Z</time>
      </trkpt>
      <trkpt lat="48.58742" lon="2.0118">
        <ele>93</ele>
        <time>2022-03-27T14:30:15Z</time>
      </trkpt>
      <trkpt lat="48.58745" lon="2.01183">
        <ele>92</ele>
        <time>2022-03-27T14:30:17Z</time>
      </trkpt>
      <trkpt lat="48.58747" lon="2.01185">
        <ele>92</ele>
        <time>2022-03-27T14:30:19Z</time>
      </trkpt>
      <trkpt lat="48.58749" lon="2.01186">
        <ele>92</ele>
        <time>2022-03-27T14:30:20Z</time>
      </trkpt>
      <trkpt lat="48.58751" lon="2.01187">
        <ele>92</ele>
        <time>2022-03-27T14:30:21Z</time>
      </trkpt>
      <trkpt lat="48.58754" lon="2.01189">
        <ele>92</ele>
        <time>2022-03-27T14:30:23Z</time>
      </trkpt>
      <trkpt lat="48.58757" lon="2.01191">
        <ele>92</ele>
        <time>2022-03-27T14:30:25Z</time>
      </trkpt>
      <trkpt lat="48.5876" lon="2.01193">
        <ele>92</ele>
        <time>2022-03-27T14:30:27Z</time>
      </trkpt>
      <trkpt lat="48.58762" lon="2.01195">
        <ele>92</ele>
        <time>2022-03-27T14:30:28Z</time>
      </trkpt>
      <trkpt lat="48.58765" lon="2.01197">
        <ele>92</ele>
        <time>2022-03-27T14:30:30Z</time>
      </trkpt>
      <trkpt lat="48.58768" lon="2.01199">
        <ele>91</ele>
        <time>2022-03-27T14:30:32Z</time>
      </trkpt>
      <trkpt lat="48.58771" lon="2.01202">
        <ele>91</ele>
        <time>2022-03-27T14:30:34Z</time>
      </trkpt>
      <trkpt lat="48.58773" lon="2.01204">
        <ele>91</ele>
        <time>2022-03-27T14:30:36Z</time>
      </trkpt>
      <trkpt lat="48.58776" lon="2.01206">
        <ele>91</ele>
        <time>2022-03-27T14:30:38Z</time>
      </trkpt>
      <trkpt lat="48.58779" lon="2.01208">
        <ele>91</ele>
        <time>2022-03-27T14:30:40Z</time>
      </trkpt>
      <trkpt lat="48.58782" lon="2.0121">
        <ele>91</ele>
        <time>2022-03-27T14:30:42Z</time>
      </trkpt>
      <trkpt lat="48.58784" lon="2.01212">
        <ele>90</ele>
        <time>2022-03-27T14:30:44Z</time>
      </trkpt>
      <trkpt lat="48.58787" lon="2.01215">
        <ele>90</ele>
        <time>2022-03-27T14:30:46Z</time>
      </trkpt>
      <trkpt lat="48.5879" lon="2.01217">
        <ele>90</ele>
        <time>2022-03-27T14:30:48Z</time>
      </trkpt>
      <trkpt lat="48.58793" lon="2.01219">
        <ele>90</ele>
        <time>2022-03-27T14:30:50Z</time>
      </trkpt>
      <trkpt lat="48.58796" lon="2.01221">
        <ele>90</ele>
        <time>2022-03-27T14:30:52Z</time>
      </trkpt>
      <trkpt lat="48.58799" lon="2.01223">
        <ele>90</ele>
        <time>2022-03-27T14:30:54Z</time>
      </trkpt>
      <trkpt lat="48.58802" lon="2.01225">
        <ele>89</ele>
        <time>2022-03-27T14:30:56Z</time>
      </trkpt>
      <trkpt lat="48.58805" lon="2.01228">
        <ele>89</ele>
        <time>2022-03-27T14:30:58Z</time>
      </trkpt>
      <trkpt lat="48.58808" lon="2.0123">
        <ele>89</ele>
        <time>2022-03-27T14:31:00Z</time>
      </trkpt>
      <trkpt lat="48.58811" lon="2.01232">
        <ele>89</ele>
        <time>2022-03-27T14:31:02Z</time>
      </trkpt>
      <trkpt lat="48.58814" lon="2.01234">
        <ele>89</ele>
        <time>2022-03-27T14:31:04Z</time>
      </trkpt>
      <trkpt lat="48.58817" lon="2.01236">
        <ele>88</ele>
        <time>2022-03-27T14:31:06Z</time>
      </trkpt>
      <trkpt lat="48.5882" lon="2.01238">
        <ele>88</ele>
        <time>2022-03-27T14:31:08Z</time>
      </trkpt>
      <trkpt lat="48.58823" lon="2.0124">
        <ele>88</ele>
        <time>2022-03-27T14:31:10Z</time>
      </trkpt>
      <trkpt lat="48.58826" lon="2.01243">
        <ele>88</ele>
        <time>2022-03-27T14:31:12Z</time>
      </trkpt>
      <trkpt lat="48.58829" lon="2.01245">
        <ele>88</ele>
        <time>2022-03-27T14:31:14Z</time>
      </trkpt>
      <trkpt lat="48.58832" lon="2.01248">
        <ele>88</ele>
        <time>2022-03-27T14:31:16Z</time>
      </trkpt>
      <trkpt lat="48.58835" lon="2.0125">
        <ele>87</ele>
        <time>2022-03-27T14:31:18Z</time>
      </trkpt>
      <trkpt lat="48.58838" lon="2.01252">
        <ele>87</ele>
        <time>2022-03-27T14:31:20Z</time>
      </trkpt>
      <trkpt lat="48.58841" lon="2.01254">
        <ele>87</ele>
        <time>2022-03-27T14:31:22Z</time>
      </trkpt>
      <trkpt lat="48.58844" lon="2.01256">
        <ele>87</ele>
        <time>2022-03-27T14:31:24Z</time>
      </trkpt>
      <trkpt lat="48.58847" lon="2.01259">
        <ele>87</ele>
        <time>2022-03-27T14:31:26Z</time>
      </trkpt>
      <trkpt lat="48.5885" lon="2.01261">
        <ele>87</ele>
        <time>2022-03-27T14:31:28Z</time>
      </trkpt>
      <trkpt lat="48.58853" lon="2.01262">
        <ele>87</ele>
        <time>2022-03-27T14:31:30Z</time>
      </trkpt>
      <trkpt lat="48.58856" lon="2.01264">
        <ele>87</ele>
        <time>2022-03-27T14:31:32Z</time>
      </trkpt>
      <trkpt lat="48.58858" lon="2.01267">
        <ele>87</ele>
        <time>2022-03-27T14:31:34Z</time>
      </trkpt>
      <trkpt lat="48.58861" lon="2.01269">
        <ele>87</ele>
        <time>2022-03-27T14:31:36Z</time>
      </trkpt>
      <trkpt lat="48.58864" lon="2.01271">
        <ele>87</ele>
        <time>2022-03-27T14:31:38Z</time>
      </trkpt>
      <trkpt lat="48.58866" lon="2.01273">
        <ele>87</ele>
        <time>2022-03-27T14:31:40Z</time>
      </trkpt>
      <trkpt lat="48.58869" lon="2.01275">
        <ele>87</ele>
        <time>2022-03-27T14:31:42Z</time>
      </trkpt>
      <trkpt lat="48.58871" lon="2.01276">
        <ele>87</ele>
        <time>2022-03-27T14:31:44Z</time>
      </trkpt>
      <trkpt lat="48.58874" lon="2.01278">
        <ele>87</ele>
        <time>2022-03-27T14:31:46Z</time>
      </trkpt>
      <trkpt lat="48.58877" lon="2.0128">
        <ele>87</ele>
        <time>2022-03-27T14:31:48Z</time>
      </trkpt>
      <trkpt lat="48.5888" lon="2.01282">
        <ele>87</ele>
        <time>2022-03-27T14:31:50Z</time>
      </trkpt>
      <trkpt lat="48.58883" lon="2.01283">
        <ele>87</ele>
        <time>2022-03-27T14:31:52Z</time>
      </trkpt>
      <trkpt lat="48.58885" lon="2.01285">
        <ele>87</ele>
        <time>2022-03-27T14:31:54Z</time>
      </trkpt>
      <trkpt lat="48.58888" lon="2.01286">
        <ele>87</ele>
        <time>2022-03-27T14:31:56Z</time>
      </trkpt>
      <trkpt lat="48.58891" lon="2.01288">
        <ele>87</ele>
        <time>2022-03-27T14:31:58Z</time>
      </trkpt>
      <trkpt lat="48.58894" lon="2.01289">
        <ele>87</ele>
        <time>2022-03-27T14:32:00Z</time>
      </trkpt>
      <trkpt lat="48.58897" lon="2.01291">
        <ele>87</ele>
        <time>2022-03-27T14:32:02Z</time>
      </trkpt>
      <trkpt lat="48.589" lon="2.01293">
        <ele>87</ele>
        <time>2022-03-27T14:32:04Z</time>
      </trkpt>
      <trkpt lat="48.58902" lon="2.01294">
        <ele>87</ele>
        <time>2022-03-27T14:32:06Z</time>
      </trkpt>
      <trkpt lat="48.58905" lon="2.01296">
        <ele>87</ele>
        <time>2022-03-27T14:32:08Z</time>
      </trkpt>
      <trkpt lat="48.58907" lon="2.01298">
        <ele>87</ele>
        <time>2022-03-27T14:32:10Z</time>
      </trkpt>
      <trkpt lat="48.5891" lon="2.01301">
        <ele>86</ele>
        <time>2022-03-27T14:32:12Z</time>
      </trkpt>
      <trkpt lat="48.58912" lon="2.01303">
        <ele>86</ele>
        <time>2022-03-27T14:32:14Z</time>
      </trkpt>
      <trkpt lat="48.58915" lon="2.01305">
        <ele>86</ele>
        <time>2022-03-27T14:32:16Z</time>
      </trkpt>
      <trkpt lat="48.58918" lon="2.01306">
        <ele>87</ele>
        <time>2022-03-27T14:32:18Z</time>
      </trkpt>
      <trkpt lat="48.58921" lon="2.01308">
        <ele>87</ele>
        <time>2022-03-27T14:32:20Z</time>
      </trkpt>
      <trkpt lat="48.58924" lon="2.0131">
        <ele>87</ele>
        <time>2022-03-27T14:32:22Z</time>
      </trkpt>
      <trkpt lat="48.58926" lon="2.01312">
        <ele>87</ele>
        <time>2022-03-27T14:32:24Z</time>
      </trkpt>
      <trkpt lat="48.58929" lon="2.01314">
        <ele>87</ele>
        <time>2022-03-27T14:32:26Z</time>
      </trkpt>
      <trkpt lat="48.58932" lon="2.01316">
        <ele>87</ele>
        <time>2022-03-27T14:32:28Z</time>
      </trkpt>
      <trkpt lat="48.58935" lon="2.01318">
        <ele>87</ele>
        <time>2022-03-27T14:32:30Z</time>
      </trkpt>
      <trkpt lat="48.58937" lon="2.0132">
        <ele>87</ele>
        <time>2022-03-27T14:32:32Z</time>
      </trkpt>
      <trkpt lat="48.5894" lon="2.01322">
        <ele>87</ele>
        <time>2022-03-27T14:32:34Z</time>
      </trkpt>
      <trkpt lat="48.58942" lon="2.01325">
        <ele>87</ele>
        <time>2022-03-27T14:32:36Z</time>
      </trkpt>
      <trkpt lat="48.58945" lon="2.01326">
        <ele>87</ele>
        <time>2022-03-27T14:32:38Z</time>
      </trkpt>
      <trkpt lat="48.58948" lon="2.01329">
        <ele>86</ele>
        <time>2022-03-27T14:32:40Z</time>
      </trkpt>
      <trkpt lat="48.5895" lon="2.01331">
        <ele>86</ele>
        <time>2022-03-27T14:32:42Z</time>
      </trkpt>
      <trkpt lat="48.58953" lon="2.01333">
        <ele>86</ele>
        <time>2022-03-27T14:32:44Z</time>
      </trkpt>
      <trkpt lat="48.58955" lon="2.01335">
        <ele>86</ele>
        <time>2022-03-27T14:32:46Z</time>
      </trkpt>
      <trkpt lat="48.58958" lon="2.01338">
        <ele>86</ele>
        <time>2022-03-27T14:32:48Z</time>
      </trkpt>
      <trkpt lat="48.5896" lon="2.0134">
        <ele>86</ele>
        <time>2022-03-27T14:32:50Z</time>
      </trkpt>
      <trkpt lat="48.58963" lon="2.01342">
        <ele>86</ele>
        <time>2022-03-27T14:32:52Z</time>
      </trkpt>
      <trkpt lat="48.58966" lon="2.01343">
        <ele>86</ele>
        <time>2022-03-27T14:32:54Z</time>
      </trkpt>
      <trkpt lat="48.58968" lon="2.01345">
        <ele>86</ele>
        <time>2022-03-27T14:32:56Z</time>
      </trkpt>
      <trkpt lat="48.58971" lon="2.01348">
        <ele>86</ele>
        <time>2022-03-27T14:32:58Z</time>
      </trkpt>
      <trkpt lat="48.58974" lon="2.01349">
        <ele>86</ele>
        <time>2022-03-27T14:33:00Z</time>
      </trkpt>
      <trkpt lat="48.58977" lon="2.01352">
        <ele>85</ele>
        <time>2022-03-27T14:33:02Z</time>
      </trkpt>
      <trkpt lat="48.58979" lon="2.01354">
        <ele>85</ele>
        <time>2022-03-27T14:33:04Z</time>
      </trkpt>
      <trkpt lat="48.58982" lon="2.01356">
        <ele>85</ele>
        <time>2022-03-27T14:33:06Z</time>
      </trkpt>
      <trkpt lat="48.58985" lon="2.01358">
        <ele>85</ele>
        <time>2022-03-27T14:33:08Z</time>
      </trkpt>
      <trkpt lat="48.58987" lon="2.0136">
        <ele>85</ele>
        <time>2022-03-27T14:33:10Z</time>
      </trkpt>
      <trkpt lat="48.5899" lon="2.01363">
        <ele>85</ele>
        <time>2022-03-27T14:33:12Z</time>
      </trkpt>
      <trkpt lat="48.58992" lon="2.01365">
        <ele>85</ele>
        <time>2022-03-27T14:33:14Z</time>
      </trkpt>
      <trkpt lat="48.58995" lon="2.01368">
        <ele>85</ele>
        <time>2022-03-27T14:33:16Z</time>
      </trkpt>
      <trkpt lat="48.58997" lon="2.0137">
        <ele>85</ele>
        <time>2022-03-27T14:33:18Z</time>
      </trkpt>
      <trkpt lat="48.59" lon="2.01373">
        <ele>85</ele>
        <time>2022-03-27T14:33:20Z</time>
      </trkpt>
      <trkpt lat="48.59003" lon="2.01376">
        <ele>84</ele>
        <time>2022-03-27T14:33:22Z</time>
      </trkpt>
      <trkpt lat="48.59005" lon="2.01381">
        <ele>84</ele>
        <time>2022-03-27T14:33:24Z</time>
      </trkpt>
      <trkpt lat="48.59007" lon="2.01385">
        <ele>85</ele>
        <time>2022-03-27T14:33:26Z</time>
      </trkpt>
      <trkpt lat="48.59008" lon="2.01389">
        <ele>85</ele>
        <time>2022-03-27T14:33:28Z</time>
      </trkpt>
      <trkpt lat="48.5901" lon="2.01393">
        <ele>85</ele>
        <time>2022-03-27T14:33:30Z</time>
      </trkpt>
      <trkpt lat="48.5901" lon="2.01398">
        <ele>85</ele>
        <time>2022-03-27T14:33:32Z</time>
      </trkpt>
      <trkpt lat="48.59011" lon="2.01402">
        <ele>85</ele>
        <time>2022-03-27T14:33:34Z</time>
      </trkpt>
      <trkpt lat="48.59012" lon="2.01406">
        <ele>86</ele>
        <time>2022-03-27T14:33:36Z</time>
      </trkpt>
      <trkpt lat="48.59013" lon="2.0141">
        <ele>86</ele>
        <time>2022-03-27T14:33:38Z</time>
      </trkpt>
      <trkpt lat="48.59013" lon="2.01415">
        <ele>86</ele>
        <time>2022-03-27T14:33:40Z</time>
      </trkpt>
      <trkpt lat="48.59014" lon="2.01419">
        <ele>86</ele>
        <time>2022-03-27T14:33:42Z</time>
      </trkpt>
      <trkpt lat="48.59014" lon="2.01423">
        <ele>85</ele>
        <time>2022-03-27T14:33:44Z</time>
      </trkpt>
      <trkpt lat="48.59015" lon="2.01428">
        <ele>85</ele>
        <time>2022-03-27T14:33:46Z</time>
      </trkpt>
      <trkpt lat="48.59015" lon="2.01432">
        <ele>85</ele>
        <time>2022-03-27T14:33:48Z</time>
      </trkpt>
      <trkpt lat="48.59015" lon="2.01436">
        <ele>85</ele>
        <time>2022-03-27T14:33:50Z</time>
      </trkpt>
      <trkpt lat="48.59016" lon="2.0144">
        <ele>86</ele>
        <time>2022-03-27T14:33:52Z</time>
      </trkpt>
      <trkpt lat="48.59017" lon="2.01443">
        <ele>86</ele>
        <time>2022-03-27T14:33:54Z</time>
      </trkpt>
      <trkpt lat="48.59017" lon="2.01447">
        <ele>86</ele>
        <time>2022-03-27T14:33:56Z</time>
      </trkpt>
      <trkpt lat="48.59018" lon="2.0145">
        <ele>86</ele>
        <time>2022-03-27T14:33:58Z</time>
      </trkpt>
      <trkpt lat="48.59019" lon="2.01454">
        <ele>87</ele>
        <time>2022-03-27T14:34:00Z</time>
      </trkpt>
      <trkpt lat="48.59019" lon="2.01458">
        <ele>87</ele>
        <time>2022-03-27T14:34:02Z</time>
      </trkpt>
      <trkpt lat="48.5902" lon="2.01462">
        <ele>87</ele>
        <time>2022-03-27T14:34:04Z</time>
      </trkpt>
      <trkpt lat="48.5902" lon="2.01466">
        <ele>87</ele>
        <time>2022-03-27T14:34:06Z</time>
      </trkpt>
      <trkpt lat="48.5902" lon="2.0147">
        <ele>87</ele>
        <time>2022-03-27T14:34:08Z</time>
      </trkpt>
      <trkpt lat="48.5902" lon="2.01475">
        <ele>87</ele>
        <time>2022-03-27T14:34:10Z</time>
      </trkpt>
      <trkpt lat="48.59021" lon="2.01479">
        <ele>87</ele>
        <time>2022-03-27T14:34:12Z</time>
      </trkpt>
      <trkpt lat="48.59022" lon="2.01483">
        <ele>88</ele>
        <time>2022-03-27T14:34:14Z</time>
      </trkpt>
      <trkpt lat="48.59022" lon="2.01488">
        <ele>88</ele>
        <time>2022-03-27T14:34:16Z</time>
      </trkpt>
      <trkpt lat="48.59022" lon="2.01492">
        <ele>88</ele>
        <time>2022-03-27T14:34:18Z</time>
      </trkpt>
      <trkpt lat="48.59023" lon="2.01496">
        <ele>87</ele>
        <time>2022-03-27T14:34:20Z</time>
      </trkpt>
      <trkpt lat="48.59024" lon="2.01501">
        <ele>87</ele>
        <time>2022-03-27T14:34:22Z</time>
      </trkpt>
      <trkpt lat="48.59025" lon="2.01505">
        <ele>87</ele>
        <time>2022-03-27T14:34:24Z</time>
      </trkpt>
      <trkpt lat="48.59026" lon="2.0151">
        <ele>87</ele>
        <time>2022-03-27T14:34:26Z</time>
      </trkpt>
      <trkpt lat="48.59027" lon="2.01514">
        <ele>87</ele>
        <time>2022-03-27T14:34:28Z</time>
      </trkpt>
      <trkpt lat="48.59029" lon="2.01518">
        <ele>87</ele>
        <time>2022-03-27T14:34:30Z</time>
      </trkpt>
      <trkpt lat="48.5903" lon="2.01522">
        <ele>87</ele>
        <time>2022-03-27T14:34:32Z</time>
      </trkpt>
      <trkpt lat="48.59032" lon="2.01526">
        <ele>87</ele>
        <time>2022-03-27T14:34:34Z</time>
      </trkpt>
      <trkpt lat="48.59033" lon="2.0153">
        <ele>87</ele>
        <time>2022-03-27T14:34:36Z</time>
      </trkpt>
      <trkpt lat="48.59035" lon="2.01534">
        <ele>87</ele>
        <time>2022-03-27T14:34:38Z</time>
      </trkpt>
      <trkpt lat="48.59037" lon="2.01537">
        <ele>87</ele>
        <time>2022-03-27T14:34:40Z</time>
      </trkpt>
      <trkpt lat="48.59038" lon="2.01541">
        <ele>87</ele>
        <time>2022-03-27T14:34:42Z</time>
      </trkpt>
      <trkpt lat="48.5904" lon="2.01545">
        <ele>87</ele>
        <time>2022-03-27T14:34:44Z</time>
      </trkpt>
      <trkpt lat="48.59041" lon="2.01549">
        <ele>87</ele>
        <time>2022-03-27T14:34:45Z</time>
      </trkpt>
      <trkpt lat="48.59043" lon="2.01553">
        <ele>88</ele>
        <time>2022-03-27T14:34:48Z</time>
      </trkpt>
      <trkpt lat="48.59044" lon="2.01557">
        <ele>88</ele>
        <time>2022-03-27T14:34:50Z</time>
      </trkpt>
      <trkpt lat="48.59046" lon="2.01561">
        <ele>88</ele>
        <time>2022-03-27T14:34:52Z</time>
      </trkpt>
      <trkpt lat="48.59048" lon="2.01564">
        <ele>88</ele>
        <time>2022-03-27T14:34:54Z</time>
      </trkpt>
      <trkpt lat="48.59049" lon="2.01568">
        <ele>88</ele>
        <time>2022-03-27T14:34:56Z</time>
      </trkpt>
      <trkpt lat="48.59051" lon="2.01571">
        <ele>88</ele>
        <time>2022-03-27T14:34:58Z</time>
      </trkpt>
      <trkpt lat="48.59053" lon="2.01575">
        <ele>88</ele>
        <time>2022-03-27T14:35:00Z</time>
      </trkpt>
      <trkpt lat="48.59054" lon="2.01579">
        <ele>88</ele>
        <time>2022-03-27T14:35:02Z</time>
      </trkpt>
      <trkpt lat="48.59056" lon="2.01582">
        <ele>88</ele>
        <time>2022-03-27T14:35:04Z</time>
      </trkpt>
      <trkpt lat="48.59058" lon="2.01585">
        <ele>88</ele>
        <time>2022-03-27T14:35:06Z</time>
      </trkpt>
      <trkpt lat="48.5906" lon="2.01589">
        <ele>88</ele>
        <time>2022-03-27T14:35:08Z</time>
      </trkpt>
      <trkpt lat="48.59061" lon="2.01593">
        <ele>89</ele>
        <time>2022-03-27T14:35:10Z</time>
      </trkpt>
      <trkpt lat="48.59063" lon="2.01596">
        <ele>89</ele>
        <time>2022-03-27T14:35:12Z</time>
      </trkpt>
      <trkpt lat="48.59065" lon="2.016">
        <ele>89</ele>
        <time>2022-03-27T14:35:14Z</time>
      </trkpt>
      <trkpt lat="48.59066" lon="2.01603">
        <ele>89</ele>
        <time>2022-03-27T14:35:16Z</time>
      </trkpt>
      <trkpt lat="48.59068" lon="2.01607">
        <ele>89</ele>
        <time>2022-03-27T14:35:18Z</time>
      </trkpt>
      <trkpt lat="48.59069" lon="2.01612">
        <ele>89</ele>
        <time>2022-03-27T14:35:20Z</time>
      </trkpt>
      <trkpt lat="48.5907" lon="2.01616">
        <ele>89</ele>
        <time>2022-03-27T14:35:22Z</time>
      </trkpt>
      <trkpt lat="48.59072" lon="2.0162">
        <ele>90</ele>
        <time>2022-03-27T14:35:24Z</time>
      </trkpt>
      <trkpt lat="48.59073" lon="2.01624">
        <ele>90</ele>
        <time>2022-03-27T14:35:26Z</time>
      </trkpt>
      <trkpt lat="48.59075" lon="2.01628">
        <ele>90</ele>
        <time>2022-03-27T14:35:28Z</time>
      </trkpt>
      <trkpt lat="48.59077" lon="2.01632">
        <ele>91</ele>
        <time>2022-03-27T14:35:30Z</time>
      </trkpt>
      <trkpt lat="48.59078" lon="2.01636">
        <ele>91</ele>
        <time>2022-03-27T14:35:32Z</time>
      </trkpt>
      <trkpt lat="48.59079" lon="2.0164">
        <ele>91</ele>
        <time>2022-03-27T14:35:34Z</time>
      </trkpt>
      <trkpt lat="48.59079" lon="2.01644">
        <ele>91</ele>
        <time>2022-03-27T14:35:36Z</time>
      </trkpt>
      <trkpt lat="48.59078" lon="2.01649">
        <ele>92</ele>
        <time>2022-03-27T14:35:38Z</time>
      </trkpt>
      <trkpt lat="48.59078" lon="2.01653">
        <ele>92</ele>
        <time>2022-03-27T14:35:40Z</time>
      </trkpt>
      <trkpt lat="48.59078" lon="2.01657">
        <ele>92</ele>
        <time>2022-03-27T14:35:42Z</time>
      </trkpt>
      <trkpt lat="48.59077" lon="2.01662">
        <ele>92</ele>
        <time>2022-03-27T14:35:44Z</time>
      </trkpt>
      <trkpt lat="48.59077" lon="2.01667">
        <ele>92</ele>
        <time>2022-03-27T14:35:46Z</time>
      </trkpt>
      <trkpt lat="48.59077" lon="2.01671">
        <ele>93</ele>
        <time>2022-03-27T14:35:48Z</time>
      </trkpt>
      <trkpt lat="48.59077" lon="2.01676">
        <ele>93</ele>
        <time>2022-03-27T14:35:50Z</time>
      </trkpt>
      <trkpt lat="48.59077" lon="2.01681">
        <ele>93</ele>
        <time>2022-03-27T14:35:52Z</time>
      </trkpt>
      <trkpt lat="48.59077" lon="2.01685">
        <ele>94</ele>
        <time>2022-03-27T14:35:54Z</time>
      </trkpt>
      <trkpt lat="48.59077" lon="2.01689">
        <ele>94</ele>
        <time>2022-03-27T14:35:56Z</time>
      </trkpt>
      <trkpt lat="48.59077" lon="2.01694">
        <ele>95</ele>
        <time>2022-03-27T14:35:58Z</time>
      </trkpt>
      <trkpt lat="48.59077" lon="2.01698">
        <ele>95</ele>
        <time>2022-03-27T14:36:00Z</time>
      </trkpt>
      <trkpt lat="48.59077" lon="2.01703">
        <ele>95</ele>
        <time>2022-03-27T14:36:02Z</time>
      </trkpt>
      <trkpt lat="48.59077" lon="2.01707">
        <ele>95</ele>
        <time>2022-03-27T14:36:04Z</time>
      </trkpt>
      <trkpt lat="48.59077" lon="2.01711">
        <ele>96</ele>
        <time>2022-03-27T14:36:06Z</time>
      </trkpt>
      <trkpt lat="48.59077" lon="2.01716">
        <ele>96</ele>
        <time>2022-03-27T14:36:08Z</time>
      </trkpt>
      <trkpt lat="48.59077" lon="2.01721">
        <ele>96</ele>
        <time>2022-03-27T14:36:10Z</time>
      </trkpt>
      <trkpt lat="48.59077" lon="2.01725">
        <ele>96</ele>
        <time>2022-03-27T14:36:12Z</time>
      </trkpt>
      <trkpt lat="48.59077" lon="2.0173">
        <ele>96</ele>
        <time>2022-03-27T14:36:14Z</time>
      </trkpt>
      <trkpt lat="48.59077" lon="2.01735">
        <ele>96</ele>
        <time>2022-03-27T14:36:16Z</time>
      </trkpt>
      <trkpt lat="48.59076" lon="2.01739">
        <ele>97</ele>
        <time>2022-03-27T14:36:18Z</time>
      </trkpt>
      <trkpt lat="48.59076" lon="2.01743">
        <ele>97</ele>
        <time>2022-03-27T14:36:20Z</time>
      </trkpt>
      <trkpt lat="48.59076" lon="2.01748">
        <ele>97</ele>
        <time>2022-03-27T14:36:22Z</time>
      </trkpt>
      <trkpt lat="48.59075" lon="2.01752">
        <ele>97</ele>
        <time>2022-03-27T14:36:24Z</time>
      </trkpt>
      <trkpt lat="48.59075" lon="2.01757">
        <ele>97</ele>
        <time>2022-03-27T14:36:26Z</time>
      </trkpt>
      <trkpt lat="48.59075" lon="2.01762">
        <ele>97</ele>
        <time>2022-03-27T14:36:28Z</time>
      </trkpt>
      <trkpt lat="48.59075" lon="2.01766">
        <ele>97</ele>
        <time>2022-03-27T14:36:30Z</time>
      </trkpt>
      <trkpt lat="48.59075" lon="2.0177">
        <ele>97</ele>
        <time>2022-03-27T14:36:32Z</time>
      </trkpt>
      <trkpt lat="48.59074" lon="2.01775">
        <ele>97</ele>
        <time>2022-03-27T14:36:34Z</time>
      </trkpt>
      <trkpt lat="48.59075" lon="2.01779">
        <ele>97</ele>
        <time>2022-03-27T14:36:36Z</time>
      </trkpt>
      <trkpt lat="48.59076" lon="2.01784">
        <ele>97</ele>
        <time>2022-03-27T14:36:38Z</time>
      </trkpt>
      <trkpt lat="48.59078" lon="2.01787">
        <ele>98</ele>
        <time>2022-03-27T14:36:40Z</time>
      </trkpt>
      <trkpt lat="48.59079" lon="2.01791">
        <ele>98</ele>
        <time>2022-03-27T14:36:42Z</time>
      </trkpt>
      <trkpt lat="48.5908" lon="2.01796">
        <ele>98</ele>
        <time>2022-03-27T14:36:44Z</time>
      </trkpt>
      <trkpt lat="48.59081" lon="2.018">
        <ele>98</ele>
        <time>2022-03-27T14:36:46Z</time>
      </trkpt>
      <trkpt lat="48.59082" lon="2.01804">
        <ele>98</ele>
        <time>2022-03-27T14:36:48Z</time>
      </trkpt>
      <trkpt lat="48.59083" lon="2.01808">
        <ele>99</ele>
        <time>2022-03-27T14:36:50Z</time>
      </trkpt>
      <trkpt lat="48.59084" lon="2.01812">
        <ele>99</ele>
        <time>2022-03-27T14:36:52Z</time>
      </trkpt>
      <trkpt lat="48.59086" lon="2.01816">
        <ele>99</ele>
        <time>2022-03-27T14:36:54Z</time>
      </trkpt>
      <trkpt lat="48.59087" lon="2.01821">
        <ele>99</ele>
        <time>2022-03-27T14:36:56Z</time>
      </trkpt>
      <trkpt lat="48.59088" lon="2.01825">
        <ele>99</ele>
        <time>2022-03-27T14:36:58Z</time>
      </trkpt>
      <trkpt lat="48.59089" lon="2.01829">
        <ele>99</ele>
        <time>2022-03-27T14:37:00Z</time>
      </trkpt>
      <trkpt lat="48.59091" lon="2.01833">
        <ele>99</ele>
        <time>2022-03-27T14:37:02Z</time>
      </trkpt>
      <trkpt lat="48.59093" lon="2.01837">
        <ele>100</ele>
        <time>2022-03-27T14:37:04Z</time>
      </trkpt>
      <trkpt lat="48.59095" lon="2.0184">
        <ele>100</ele>
        <time>2022-03-27T14:37:06Z</time>
      </trkpt>
      <trkpt lat="48.59096" lon="2.01844">
        <ele>100</ele>
        <time>2022-03-27T14:37:08Z</time>
      </trkpt>
      <trkpt lat="48.59098" lon="2.01848">
        <ele>101</ele>
        <time>2022-03-27T14:37:10Z</time>
      </trkpt>
      <trkpt lat="48.59099" lon="2.01852">
        <ele>101</ele>
        <time>2022-03-27T14:37:12Z</time>
      </trkpt>
      <trkpt lat="48.591" lon="2.01856">
        <ele>101</ele>
        <time>2022-03-27T14:37:14Z</time>
      </trkpt>
      <trkpt lat="48.59101" lon="2.0186">
        <ele>101</ele>
        <time>2022-03-27T14:37:16Z</time>
      </trkpt>
      <trkpt lat="48.59103" lon="2.01863">
        <ele>102</ele>
        <time>2022-03-27T14:37:18Z</time>
      </trkpt>
      <trkpt lat="48.59104" lon="2.01867">
        <ele>102</ele>
        <time>2022-03-27T14:37:20Z</time>
      </trkpt>
      <trkpt lat="48.59106" lon="2.01871">
        <ele>102</ele>
        <time>2022-03-27T14:37:22Z</time>
      </trkpt>
      <trkpt lat="48.59107" lon="2.01874">
        <ele>102</ele>
        <time>2022-03-27T14:37:24Z</time>
      </trkpt>
      <trkpt lat="48.59109" lon="2.01877">
        <ele>101</ele>
        <time>2022-03-27T14:37:26Z</time>
      </trkpt>
      <trkpt lat="48.59111" lon="2.01881">
        <ele>102</ele>
        <time>2022-03-27T14:37:28Z</time>
      </trkpt>
      <trkpt lat="48.59113" lon="2.01885">
        <ele>102</ele>
        <time>2022-03-27T14:37:30Z</time>
      </trkpt>
      <trkpt lat="48.59114" lon="2.01889">
        <ele>102</ele>
        <time>2022-03-27T14:37:32Z</time>
      </trkpt>
      <trkpt lat="48.59115" lon="2.01893">
        <ele>102</ele>
        <time>2022-03-27T14:37:34Z</time>
      </trkpt>
      <trkpt lat="48.59117" lon="2.01897">
        <ele>101</ele>
        <time>2022-03-27T14:37:36Z</time>
      </trkpt>
      <trkpt lat="48.59119" lon="2.01901">
        <ele>101</ele>
        <time>2022-03-27T14:37:38Z</time>
      </trkpt>
      <trkpt lat="48.59121" lon="2.01905">
        <ele>102</ele>
        <time>2022-03-27T14:37:40Z</time>
      </trkpt>
      <trkpt lat="48.59123" lon="2.01909">
        <ele>102</ele>
        <time>2022-03-27T14:37:42Z</time>
      </trkpt>
      <trkpt lat="48.59125" lon="2.01913">
        <ele>102</ele>
        <time>2022-03-27T14:37:44Z</time>
      </trkpt>
      <trkpt lat="48.59126" lon="2.01917">
        <ele>102</ele>
        <time>2022-03-27T14:37:46Z</time>
      </trkpt>
      <trkpt lat="48.59128" lon="2.01922">
        <ele>102</ele>
        <time>2022-03-27T14:37:48Z</time>
      </trkpt>
      <trkpt lat="48.5913" lon="2.01926">
        <ele>103</ele>
        <time>2022-03-27T14:37:50Z</time>
      </trkpt>
      <trkpt lat="48.59131" lon="2.01931">
        <ele>103</ele>
        <time>2022-03-27T14:37:52Z</time>
      </trkpt>
      <trkpt lat="48.59133" lon="2.01935">
        <ele>103</ele>
        <time>2022-03-27T14:37:54Z</time>
      </trkpt>
      <trkpt lat="48.59135" lon="2.0194">
        <ele>103</ele>
        <time>2022-03-27T14:37:56Z</time>
      </trkpt>
      <trkpt lat="48.59136" lon="2.01944">
        <ele>103</ele>
        <time>2022-03-27T14:37:58Z</time>
      </trkpt>
      <trkpt lat="48.59137" lon="2.01949">
        <ele>103</ele>
        <time>2022-03-27T14:38:00Z</time>
      </trkpt>
      <trkpt lat="48.59139" lon="2.01953">
        <ele>103</ele>
        <time>2022-03-27T14:38:02Z</time>
      </trkpt>
      <trkpt lat="48.5914" lon="2.01958">
        <ele>103</ele>
        <time>2022-03-27T14:38:04Z</time>
      </trkpt>
      <trkpt lat="48.59141" lon="2.01963">
        <ele>103</ele>
        <time>2022-03-27T14:38:06Z</time>
      </trkpt>
      <trkpt lat="48.59142" lon="2.01968">
        <ele>103</ele>
        <time>2022-03-27T14:38:08Z</time>
      </trkpt>
      <trkpt lat="48.59143" lon="2.01972">
        <ele>103</ele>
        <time>2022-03-27T14:38:10Z</time>
      </trkpt>
      <trkpt lat="48.59144" lon="2.01974">
        <ele>103</ele>
        <time>2022-03-27T14:38:11Z</time>
      </trkpt>
      <trkpt lat="48.59145" lon="2.01977">
        <ele>103</ele>
        <time>2022-03-27T14:38:12Z</time>
      </trkpt>
      <trkpt lat="48.59146" lon="2.01982">
        <ele>104</ele>
        <time>2022-03-27T14:38:14Z</time>
      </trkpt>
      <trkpt lat="48.59147" lon="2.01986">
        <ele>104</ele>
        <time>2022-03-27T14:38:16Z</time>
      </trkpt>
      <trkpt lat="48.59149" lon="2.0199">
        <ele>104</ele>
        <time>2022-03-27T14:38:18Z</time>
      </trkpt>
      <trkpt lat="48.5915" lon="2.01995">
        <ele>104</ele>
        <time>2022-03-27T14:38:20Z</time>
      </trkpt>
      <trkpt lat="48.5915" lon="2.02">
        <ele>105</ele>
        <time>2022-03-27T14:38:22Z</time>
      </trkpt>
      <trkpt lat="48.59151" lon="2.02005">
        <ele>105</ele>
        <time>2022-03-27T14:38:24Z</time>
      </trkpt>
      <trkpt lat="48.59152" lon="2.0201">
        <ele>105</ele>
        <time>2022-03-27T14:38:26Z</time>
      </trkpt>
      <trkpt lat="48.59152" lon="2.02015">
        <ele>105</ele>
        <time>2022-03-27T14:38:28Z</time>
      </trkpt>
      <trkpt lat="48.59153" lon="2.02019">
        <ele>105</ele>
        <time>2022-03-27T14:38:30Z</time>
      </trkpt>
      <trkpt lat="48.59155" lon="2.02024">
        <ele>106</ele>
        <time>2022-03-27T14:38:32Z</time>
      </trkpt>
      <trkpt lat="48.59157" lon="2.02028">
        <ele>106</ele>
        <time>2022-03-27T14:38:34Z</time>
      </trkpt>
      <trkpt lat="48.59158" lon="2.02033">
        <ele>106</ele>
        <time>2022-03-27T14:38:36Z</time>
      </trkpt>
      <trkpt lat="48.59158" lon="2.02037">
        <ele>106</ele>
        <time>2022-03-27T14:38:38Z</time>
      </trkpt>
      <trkpt lat="48.59159" lon="2.02042">
        <ele>106</ele>
        <time>2022-03-27T14:38:40Z</time>
      </trkpt>
      <trkpt lat="48.5916" lon="2.02047">
        <ele>107</ele>
        <time>2022-03-27T14:38:42Z</time>
      </trkpt>
      <trkpt lat="48.59161" lon="2.0205">
        <ele>107</ele>
        <time>2022-03-27T14:38:44Z</time>
      </trkpt>
      <trkpt lat="48.59162" lon="2.02055">
        <ele>107</ele>
        <time>2022-03-27T14:38:46Z</time>
      </trkpt>
      <trkpt lat="48.59162" lon="2.02059">
        <ele>108</ele>
        <time>2022-03-27T14:38:48Z</time>
      </trkpt>
      <trkpt lat="48.59163" lon="2.02064">
        <ele>108</ele>
        <time>2022-03-27T14:38:50Z</time>
      </trkpt>
      <trkpt lat="48.59164" lon="2.02067">
        <ele>108</ele>
        <time>2022-03-27T14:38:51Z</time>
      </trkpt>
      <trkpt lat="48.59165" lon="2.0207">
        <ele>108</ele>
        <time>2022-03-27T14:38:52Z</time>
      </trkpt>
      <trkpt lat="48.59165" lon="2.02072">
        <ele>108</ele>
        <time>2022-03-27T14:38:53Z</time>
      </trkpt>
      <trkpt lat="48.59166" lon="2.02075">
        <ele>108</ele>
        <time>2022-03-27T14:38:54Z</time>
      </trkpt>
      <trkpt lat="48.59166" lon="2.02078">
        <ele>108</ele>
        <time>2022-03-27T14:38:55Z</time>
      </trkpt>
      <trkpt lat="48.59167" lon="2.02081">
        <ele>108</ele>
        <time>2022-03-27T14:38:56Z</time>
      </trkpt>
      <trkpt lat="48.59167" lon="2.02083">
        <ele>108</ele>
        <time>2022-03-27T14:38:57Z</time>
      </trkpt>
      <trkpt lat="48.59168" lon="2.02088">
        <ele>109</ele>
        <time>2022-03-27T14:38:59Z</time>
      </trkpt>
      <trkpt lat="48.59168" lon="2.02093">
        <ele>109</ele>
        <time>2022-03-27T14:39:01Z</time>
      </trkpt>
      <trkpt lat="48.59169" lon="2.02098">
        <ele>109</ele>
        <time>2022-03-27T14:39:03Z</time>
      </trkpt>
      <trkpt lat="48.59169" lon="2.02103">
        <ele>109</ele>
        <time>2022-03-27T14:39:05Z</time>
      </trkpt>
      <trkpt lat="48.5917" lon="2.02108">
        <ele>109</ele>
        <time>2022-03-27T14:39:07Z</time>
      </trkpt>
      <trkpt lat="48.59171" lon="2.02113">
        <ele>110</ele>
        <time>2022-03-27T14:39:09Z</time>
      </trkpt>
      <trkpt lat="48.59171" lon="2.02118">
        <ele>110</ele>
        <time>2022-03-27T14:39:11Z</time>
      </trkpt>
      <trkpt lat="48.59172" lon="2.02122">
        <ele>110</ele>
        <time>2022-03-27T14:39:13Z</time>
      </trkpt>
      <trkpt lat="48.59172" lon="2.02125">
        <ele>111</ele>
        <time>2022-03-27T14:39:14Z</time>
      </trkpt>
      <trkpt lat="48.59173" lon="2.0213">
        <ele>111</ele>
        <time>2022-03-27T14:39:16Z</time>
      </trkpt>
      <trkpt lat="48.59174" lon="2.02133">
        <ele>111</ele>
        <time>2022-03-27T14:39:17Z</time>
      </trkpt>
      <trkpt lat="48.59174" lon="2.02135">
        <ele>111</ele>
        <time>2022-03-27T14:39:18Z</time>
      </trkpt>
      <trkpt lat="48.59174" lon="2.02141">
        <ele>111</ele>
        <time>2022-03-27T14:39:20Z</time>
      </trkpt>
      <trkpt lat="48.59174" lon="2.02146">
        <ele>112</ele>
        <time>2022-03-27T14:39:22Z</time>
      </trkpt>
      <trkpt lat="48.59174" lon="2.02151">
        <ele>112</ele>
        <time>2022-03-27T14:39:24Z</time>
      </trkpt>
      <trkpt lat="48.59174" lon="2.02156">
        <ele>112</ele>
        <time>2022-03-27T14:39:26Z</time>
      </trkpt>
      <trkpt lat="48.59174" lon="2.02161">
        <ele>112</ele>
        <time>2022-03-27T14:39:28Z</time>
      </trkpt>
      <trkpt lat="48.59174" lon="2.02166">
        <ele>112</ele>
        <time>2022-03-27T14:39:30Z</time>
      </trkpt>
      <trkpt lat="48.59173" lon="2.0217">
        <ele>112</ele>
        <time>2022-03-27T14:39:32Z</time>
      </trkpt>
      <trkpt lat="48.59172" lon="2.02175">
        <ele>112</ele>
        <time>2022-03-27T14:39:34Z</time>
      </trkpt>
      <trkpt lat="48.59172" lon="2.02179">
        <ele>113</ele>
        <time>2022-03-27T14:39:36Z</time>
      </trkpt>
      <trkpt lat="48.59171" lon="2.02184">
        <ele>113</ele>
        <time>2022-03-27T14:39:38Z</time>
      </trkpt>
      <trkpt lat="48.59172" lon="2.02187">
        <ele>113</ele>
        <time>2022-03-27T14:39:40Z</time>
      </trkpt>
      <trkpt lat="48.59171" lon="2.02192">
        <ele>114</ele>
        <time>2022-03-27T14:39:47Z</time>
      </trkpt>
      <trkpt lat="48.59172" lon="2.02197">
        <ele>114</ele>
        <time>2022-03-27T14:39:49Z</time>
      </trkpt>
      <trkpt lat="48.59172" lon="2.022">
        <ele>114</ele>
        <time>2022-03-27T14:39:50Z</time>
      </trkpt>
      <trkpt lat="48.59172" lon="2.02205">
        <ele>114</ele>
        <time>2022-03-27T14:39:52Z</time>
      </trkpt>
      <trkpt lat="48.59172" lon="2.02209">
        <ele>115</ele>
        <time>2022-03-27T14:39:54Z</time>
      </trkpt>
      <trkpt lat="48.59173" lon="2.02215">
        <ele>115</ele>
        <time>2022-03-27T14:39:56Z</time>
      </trkpt>
      <trkpt lat="48.59173" lon="2.0222">
        <ele>115</ele>
        <time>2022-03-27T14:39:58Z</time>
      </trkpt>
      <trkpt lat="48.59173" lon="2.02225">
        <ele>115</ele>
        <time>2022-03-27T14:40:00Z</time>
      </trkpt>
      <trkpt lat="48.59174" lon="2.0223">
        <ele>115</ele>
        <time>2022-03-27T14:40:02Z</time>
      </trkpt>
      <trkpt lat="48.59175" lon="2.02234">
        <ele>115</ele>
        <time>2022-03-27T14:40:04Z</time>
      </trkpt>
      <trkpt lat="48.59175" lon="2.02238">
        <ele>115</ele>
        <time>2022-03-27T14:40:06Z</time>
      </trkpt>
      <trkpt lat="48.59174" lon="2.02243">
        <ele>116</ele>
        <time>2022-03-27T14:40:08Z</time>
      </trkpt>
      <trkpt lat="48.59175" lon="2.02255">
        <ele>117</ele>
        <time>2022-03-27T14:40:12Z</time>
      </trkpt>
      <trkpt lat="48.59176" lon="2.02258">
        <ele>117</ele>
        <time>2022-03-27T14:40:13Z</time>
      </trkpt>
      <trkpt lat="48.59176" lon="2.02261">
        <ele>118</ele>
        <time>2022-03-27T14:40:14Z</time>
      </trkpt>
      <trkpt lat="48.59176" lon="2.02264">
        <ele>118</ele>
        <time>2022-03-27T14:40:15Z</time>
      </trkpt>
      <trkpt lat="48.59176" lon="2.02267">
        <ele>118</ele>
        <time>2022-03-27T14:40:16Z</time>
      </trkpt>
      <trkpt lat="48.59176" lon="2.0227">
        <ele>118</ele>
        <time>2022-03-27T14:40:17Z</time>
      </trkpt>
      <trkpt lat="48.59175" lon="2.02273">
        <ele>119</ele>
        <time>2022-03-27T14:40:18Z</time>
      </trkpt>
      <trkpt lat="48.59174" lon="2.02278">
        <ele>119</ele>
        <time>2022-03-27T14:40:20Z</time>
      </trkpt>
      <trkpt lat="48.59175" lon="2.02283">
        <ele>119</ele>
        <time>2022-03-27T14:40:22Z</time>
      </trkpt>
      <trkpt lat="48.59175" lon="2.02286">
        <ele>120</ele>
        <time>2022-03-27T14:40:24Z</time>
      </trkpt>
      <trkpt lat="48.59175" lon="2.02291">
        <ele>120</ele>
        <time>2022-03-27T14:40:26Z</time>
      </trkpt>
      <trkpt lat="48.59175" lon="2.02296">
        <ele>121</ele>
        <time>2022-03-27T14:40:28Z</time>
      </trkpt>
      <trkpt lat="48.59176" lon="2.02301">
        <ele>121</ele>
        <time>2022-03-27T14:40:30Z</time>
      </trkpt>
      <trkpt lat="48.59177" lon="2.02305">
        <ele>122</ele>
        <time>2022-03-27T14:40:32Z</time>
      </trkpt>
      <trkpt lat="48.59178" lon="2.02309">
        <ele>122</ele>
        <time>2022-03-27T14:40:34Z</time>
      </trkpt>
      <trkpt lat="48.59179" lon="2.02313">
        <ele>122</ele>
        <time>2022-03-27T14:40:36Z</time>
      </trkpt>
      <trkpt lat="48.5918" lon="2.02317">
        <ele>122</ele>
        <time>2022-03-27T14:40:37Z</time>
      </trkpt>
      <trkpt lat="48.59181" lon="2.02331">
        <ele>123</ele>
        <time>2022-03-27T14:40:42Z</time>
      </trkpt>
      <trkpt lat="48.59181" lon="2.02346">
        <ele>123</ele>
        <time>2022-03-27T14:40:47Z</time>
      </trkpt>
      <trkpt lat="48.59181" lon="2.02349">
        <ele>124</ele>
        <time>2022-03-27T14:40:48Z</time>
      </trkpt>
      <trkpt lat="48.59181" lon="2.02352">
        <ele>124</ele>
        <time>2022-03-27T14:40:49Z</time>
      </trkpt>
      <trkpt lat="48.5918" lon="2.02355">
        <ele>124</ele>
        <time>2022-03-27T14:40:50Z</time>
      </trkpt>
      <trkpt lat="48.59181" lon="2.02358">
        <ele>124</ele>
        <time>2022-03-27T14:40:51Z</time>
      </trkpt>
      <trkpt lat="48.59181" lon="2.02361">
        <ele>124</ele>
        <time>2022-03-27T14:40:52Z</time>
      </trkpt>
      <trkpt lat="48.59183" lon="2.02374">
        <ele>125</ele>
        <time>2022-03-27T14:40:57Z</time>
      </trkpt>
      <trkpt lat="48.59183" lon="2.02381">
        <ele>124</ele>
        <time>2022-03-27T14:41:00Z</time>
      </trkpt>
      <trkpt lat="48.59182" lon="2.02386">
        <ele>125</ele>
        <time>2022-03-27T14:41:02Z</time>
      </trkpt>
      <trkpt lat="48.59182" lon="2.0239">
        <ele>125</ele>
        <time>2022-03-27T14:41:04Z</time>
      </trkpt>
      <trkpt lat="48.59182" lon="2.02395">
        <ele>125</ele>
        <time>2022-03-27T14:41:06Z</time>
      </trkpt>
      <trkpt lat="48.59182" lon="2.02399">
        <ele>125</ele>
        <time>2022-03-27T14:41:08Z</time>
      </trkpt>
      <trkpt lat="48.59182" lon="2.02404">
        <ele>125</ele>
        <time>2022-03-27T14:41:10Z</time>
      </trkpt>
      <trkpt lat="48.59183" lon="2.02408">
        <ele>126</ele>
        <time>2022-03-27T14:41:12Z</time>
      </trkpt>
      <trkpt lat="48.59184" lon="2.02412">
        <ele>126</ele>
        <time>2022-03-27T14:41:14Z</time>
      </trkpt>
      <trkpt lat="48.59185" lon="2.02418">
        <ele>126</ele>
        <time>2022-03-27T14:41:16Z</time>
      </trkpt>
      <trkpt lat="48.59185" lon="2.02423">
        <ele>126</ele>
        <time>2022-03-27T14:41:18Z</time>
      </trkpt>
      <trkpt lat="48.59185" lon="2.02428">
        <ele>127</ele>
        <time>2022-03-27T14:41:20Z</time>
      </trkpt>
      <trkpt lat="48.59185" lon="2.02432">
        <ele>127</ele>
        <time>2022-03-27T14:41:22Z</time>
      </trkpt>
      <trkpt lat="48.59185" lon="2.02436">
        <ele>128</ele>
        <time>2022-03-27T14:41:24Z</time>
      </trkpt>
      <trkpt lat="48.59185" lon="2.02441">
        <ele>128</ele>
        <time>2022-03-27T14:41:26Z</time>
      </trkpt>
      <trkpt lat="48.59185" lon="2.02444">
        <ele>128</ele>
        <time>2022-03-27T14:41:27Z</time>
      </trkpt>
      <trkpt lat="48.59185" lon="2.02449">
        <ele>129</ele>
        <time>2022-03-27T14:41:29Z</time>
      </trkpt>
      <trkpt lat="48.59184" lon="2.02451">
        <ele>129</ele>
        <time>2022-03-27T14:41:30Z</time>
      </trkpt>
      <trkpt lat="48.59184" lon="2.02457">
        <ele>129</ele>
        <time>2022-03-27T14:41:32Z</time>
      </trkpt>
      <trkpt lat="48.59184" lon="2.02462">
        <ele>129</ele>
        <time>2022-03-27T14:41:34Z</time>
      </trkpt>
      <trkpt lat="48.59184" lon="2.02467">
        <ele>130</ele>
        <time>2022-03-27T14:41:36Z</time>
      </trkpt>
      <trkpt lat="48.59183" lon="2.0247">
        <ele>130</ele>
        <time>2022-03-27T14:41:37Z</time>
      </trkpt>
      <trkpt lat="48.59183" lon="2.02475">
        <ele>131</ele>
        <time>2022-03-27T14:41:39Z</time>
      </trkpt>
      <trkpt lat="48.59183" lon="2.02479">
        <ele>131</ele>
        <time>2022-03-27T14:41:41Z</time>
      </trkpt>
      <trkpt lat="48.59183" lon="2.02485">
        <ele>131</ele>
        <time>2022-03-27T14:41:43Z</time>
      </trkpt>
      <trkpt lat="48.59183" lon="2.0249">
        <ele>132</ele>
        <time>2022-03-27T14:41:45Z</time>
      </trkpt>
      <trkpt lat="48.59183" lon="2.02494">
        <ele>132</ele>
        <time>2022-03-27T14:41:47Z</time>
      </trkpt>
      <trkpt lat="48.59183" lon="2.02499">
        <ele>132</ele>
        <time>2022-03-27T14:41:49Z</time>
      </trkpt>
      <trkpt lat="48.59183" lon="2.02505">
        <ele>133</ele>
        <time>2022-03-27T14:41:51Z</time>
      </trkpt>
      <trkpt lat="48.59183" lon="2.0251">
        <ele>133</ele>
        <time>2022-03-27T14:41:53Z</time>
      </trkpt>
      <trkpt lat="48.59182" lon="2.02515">
        <ele>133</ele>
        <time>2022-03-27T14:41:55Z</time>
      </trkpt>
      <trkpt lat="48.59182" lon="2.02518">
        <ele>133</ele>
        <time>2022-03-27T14:41:56Z</time>
      </trkpt>
      <trkpt lat="48.59182" lon="2.02521">
        <ele>134</ele>
        <time>2022-03-27T14:41:57Z</time>
      </trkpt>
      <trkpt lat="48.59181" lon="2.02523">
        <ele>134</ele>
        <time>2022-03-27T14:41:58Z</time>
      </trkpt>
      <trkpt lat="48.5918" lon="2.02528">
        <ele>134</ele>
        <time>2022-03-27T14:42:00Z</time>
      </trkpt>
      <trkpt lat="48.59179" lon="2.02532">
        <ele>134</ele>
        <time>2022-03-27T14:42:02Z</time>
      </trkpt>
      <trkpt lat="48.59179" lon="2.02537">
        <ele>135</ele>
        <time>2022-03-27T14:42:04Z</time>
      </trkpt>
      <trkpt lat="48.59179" lon="2.02542">
        <ele>135</ele>
        <time>2022-03-27T14:42:06Z</time>
      </trkpt>
      <trkpt lat="48.59178" lon="2.02547">
        <ele>135</ele>
        <time>2022-03-27T14:42:08Z</time>
      </trkpt>
      <trkpt lat="48.59178" lon="2.02549">
        <ele>135</ele>
        <time>2022-03-27T14:42:09Z</time>
      </trkpt>
      <trkpt lat="48.59177" lon="2.02555">
        <ele>135</ele>
        <time>2022-03-27T14:42:11Z</time>
      </trkpt>
      <trkpt lat="48.59177" lon="2.02559">
        <ele>135</ele>
        <time>2022-03-27T14:42:13Z</time>
      </trkpt>
      <trkpt lat="48.59176" lon="2.02563">
        <ele>135</ele>
        <time>2022-03-27T14:42:15Z</time>
      </trkpt>
      <trkpt lat="48.59176" lon="2.02568">
        <ele>135</ele>
        <time>2022-03-27T14:42:17Z</time>
      </trkpt>
      <trkpt lat="48.59175" lon="2.02573">
        <ele>135</ele>
        <time>2022-03-27T14:42:19Z</time>
      </trkpt>
      <trkpt lat="48.59175" lon="2.02578">
        <ele>135</ele>
        <time>2022-03-27T14:42:21Z</time>
      </trkpt>
      <trkpt lat="48.59175" lon="2.02583">
        <ele>135</ele>
        <time>2022-03-27T14:42:23Z</time>
      </trkpt>
      <trkpt lat="48.59175" lon="2.02588">
        <ele>135</ele>
        <time>2022-03-27T14:42:25Z</time>
      </trkpt>
      <trkpt lat="48.59174" lon="2.02593">
        <ele>134</ele>
        <time>2022-03-27T14:42:27Z</time>
      </trkpt>
      <trkpt lat="48.59174" lon="2.02597">
        <ele>135</ele>
        <time>2022-03-27T14:42:29Z</time>
      </trkpt>
      <trkpt lat="48.59173" lon="2.02602">
        <ele>134</ele>
        <time>2022-03-27T14:42:31Z</time>
      </trkpt>
      <trkpt lat="48.59173" lon="2.02606">
        <ele>134</ele>
        <time>2022-03-27T14:42:33Z</time>
      </trkpt>
      <trkpt lat="48.59172" lon="2.02611">
        <ele>134</ele>
        <time>2022-03-27T14:42:35Z</time>
      </trkpt>
      <trkpt lat="48.59172" lon="2.02616">
        <ele>134</ele>
        <time>2022-03-27T14:42:37Z</time>
      </trkpt>
      <trkpt lat="48.59171" lon="2.02621">
        <ele>134</ele>
        <time>2022-03-27T14:42:39Z</time>
      </trkpt>
      <trkpt lat="48.59171" lon="2.02626">
        <ele>134</ele>
        <time>2022-03-27T14:42:41Z</time>
      </trkpt>
      <trkpt lat="48.5917" lon="2.0263">
        <ele>134</ele>
        <time>2022-03-27T14:42:43Z</time>
      </trkpt>
      <trkpt lat="48.59169" lon="2.02635">
        <ele>134</ele>
        <time>2022-03-27T14:42:45Z</time>
      </trkpt>
      <trkpt lat="48.59168" lon="2.0264">
        <ele>134</ele>
        <time>2022-03-27T14:42:47Z</time>
      </trkpt>
      <trkpt lat="48.59168" lon="2.02645">
        <ele>134</ele>
        <time>2022-03-27T14:42:49Z</time>
      </trkpt>
      <trkpt lat="48.59168" lon="2.02649">
        <ele>134</ele>
        <time>2022-03-27T14:42:51Z</time>
      </trkpt>
      <trkpt lat="48.59168" lon="2.02653">
        <ele>134</ele>
        <time>2022-03-27T14:42:53Z</time>
      </trkpt>
      <trkpt lat="48.59168" lon="2.02658">
        <ele>134</ele>
        <time>2022-03-27T14:42:55Z</time>
      </trkpt>
      <trkpt lat="48.59167" lon="2.02663">
        <ele>134</ele>
        <time>2022-03-27T14:42:57Z</time>
      </trkpt>
      <trkpt lat="48.59167" lon="2.02668">
        <ele>134</ele>
        <time>2022-03-27T14:42:59Z</time>
      </trkpt>
      <trkpt lat="48.59166" lon="2.02672">
        <ele>134</ele>
        <time>2022-03-27T14:43:01Z</time>
      </trkpt>
      <trkpt lat="48.59165" lon="2.02676">
        <ele>134</ele>
        <time>2022-03-27T14:43:03Z</time>
      </trkpt>
      <trkpt lat="48.59165" lon="2.0268">
        <ele>134</ele>
        <time>2022-03-27T14:43:05Z</time>
      </trkpt>
      <trkpt lat="48.59164" lon="2.02684">
        <ele>134</ele>
        <time>2022-03-27T14:43:07Z</time>
      </trkpt>
      <trkpt lat="48.59164" lon="2.02688">
        <ele>134</ele>
        <time>2022-03-27T14:43:09Z</time>
      </trkpt>
      <trkpt lat="48.59164" lon="2.02692">
        <ele>134</ele>
        <time>2022-03-27T14:43:11Z</time>
      </trkpt>
      <trkpt lat="48.59164" lon="2.02697">
        <ele>134</ele>
        <time>2022-03-27T14:43:13Z</time>
      </trkpt>
      <trkpt lat="48.59164" lon="2.02702">
        <ele>134</ele>
        <time>2022-03-27T14:43:15Z</time>
      </trkpt>
      <trkpt lat="48.59164" lon="2.02705">
        <ele>134</ele>
        <time>2022-03-27T14:43:16Z</time>
      </trkpt>
      <trkpt lat="48.59163" lon="2.02707">
        <ele>134</ele>
        <time>2022-03-27T14:43:17Z</time>
      </trkpt>
      <trkpt lat="48.59163" lon="2.02713">
        <ele>134</ele>
        <time>2022-03-27T14:43:19Z</time>
      </trkpt>
      <trkpt lat="48.59162" lon="2.02715">
        <ele>134</ele>
        <time>2022-03-27T14:43:20Z</time>
      </trkpt>
      <trkpt lat="48.59162" lon="2.0272">
        <ele>134</ele>
        <time>2022-03-27T14:43:22Z</time>
      </trkpt>
      <trkpt lat="48.59161" lon="2.02723">
        <ele>134</ele>
        <time>2022-03-27T14:43:23Z</time>
      </trkpt>
      <trkpt lat="48.59161" lon="2.02728">
        <ele>134</ele>
        <time>2022-03-27T14:43:25Z</time>
      </trkpt>
      <trkpt lat="48.5916" lon="2.02733">
        <ele>134</ele>
        <time>2022-03-27T14:43:27Z</time>
      </trkpt>
      <trkpt lat="48.5916" lon="2.02738">
        <ele>134</ele>
        <time>2022-03-27T14:43:29Z</time>
      </trkpt>
      <trkpt lat="48.59159" lon="2.02743">
        <ele>134</ele>
        <time>2022-03-27T14:43:31Z</time>
      </trkpt>
      <trkpt lat="48.59159" lon="2.02749">
        <ele>134</ele>
        <time>2022-03-27T14:43:33Z</time>
      </trkpt>
      <trkpt lat="48.59159" lon="2.02751">
        <ele>134</ele>
        <time>2022-03-27T14:43:34Z</time>
      </trkpt>
      <trkpt lat="48.59159" lon="2.02754">
        <ele>135</ele>
        <time>2022-03-27T14:43:35Z</time>
      </trkpt>
      <trkpt lat="48.59158" lon="2.02759">
        <ele>135</ele>
        <time>2022-03-27T14:43:37Z</time>
      </trkpt>
      <trkpt lat="48.59158" lon="2.02764">
        <ele>135</ele>
        <time>2022-03-27T14:43:39Z</time>
      </trkpt>
      <trkpt lat="48.59157" lon="2.02767">
        <ele>135</ele>
        <time>2022-03-27T14:43:40Z</time>
      </trkpt>
      <trkpt lat="48.59157" lon="2.0277">
        <ele>135</ele>
        <time>2022-03-27T14:43:41Z</time>
      </trkpt>
      <trkpt lat="48.59157" lon="2.02772">
        <ele>135</ele>
        <time>2022-03-27T14:43:42Z</time>
      </trkpt>
      <trkpt lat="48.59157" lon="2.02777">
        <ele>135</ele>
        <time>2022-03-27T14:43:44Z</time>
      </trkpt>
      <trkpt lat="48.59157" lon="2.02782">
        <ele>135</ele>
        <time>2022-03-27T14:43:46Z</time>
      </trkpt>
      <trkpt lat="48.59157" lon="2.02786">
        <ele>135</ele>
        <time>2022-03-27T14:43:48Z</time>
      </trkpt>
      <trkpt lat="48.59156" lon="2.02791">
        <ele>136</ele>
        <time>2022-03-27T14:43:50Z</time>
      </trkpt>
      <trkpt lat="48.59156" lon="2.02796">
        <ele>135</ele>
        <time>2022-03-27T14:43:52Z</time>
      </trkpt>
      <trkpt lat="48.59155" lon="2.02799">
        <ele>135</ele>
        <time>2022-03-27T14:43:53Z</time>
      </trkpt>
      <trkpt lat="48.59155" lon="2.02805">
        <ele>135</ele>
        <time>2022-03-27T14:43:55Z</time>
      </trkpt>
      <trkpt lat="48.59155" lon="2.0281">
        <ele>135</ele>
        <time>2022-03-27T14:43:57Z</time>
      </trkpt>
      <trkpt lat="48.59154" lon="2.02813">
        <ele>135</ele>
        <time>2022-03-27T14:43:58Z</time>
      </trkpt>
      <trkpt lat="48.59153" lon="2.02818">
        <ele>135</ele>
        <time>2022-03-27T14:44:00Z</time>
      </trkpt>
      <trkpt lat="48.59153" lon="2.0282">
        <ele>135</ele>
        <time>2022-03-27T14:44:01Z</time>
      </trkpt>
      <trkpt lat="48.59153" lon="2.02825">
        <ele>134</ele>
        <time>2022-03-27T14:44:03Z</time>
      </trkpt>
      <trkpt lat="48.59152" lon="2.0283">
        <ele>134</ele>
        <time>2022-03-27T14:44:05Z</time>
      </trkpt>
      <trkpt lat="48.59152" lon="2.02833">
        <ele>134</ele>
        <time>2022-03-27T14:44:06Z</time>
      </trkpt>
      <trkpt lat="48.59152" lon="2.02838">
        <ele>133</ele>
        <time>2022-03-27T14:44:08Z</time>
      </trkpt>
      <trkpt lat="48.59152" lon="2.02843">
        <ele>133</ele>
        <time>2022-03-27T14:44:10Z</time>
      </trkpt>
      <trkpt lat="48.59152" lon="2.02847">
        <ele>133</ele>
        <time>2022-03-27T14:44:12Z</time>
      </trkpt>
      <trkpt lat="48.59152" lon="2.0285">
        <ele>133</ele>
        <time>2022-03-27T14:44:13Z</time>
      </trkpt>
      <trkpt lat="48.59152" lon="2.02853">
        <ele>133</ele>
        <time>2022-03-27T14:44:14Z</time>
      </trkpt>
      <trkpt lat="48.59152" lon="2.02856">
        <ele>133</ele>
        <time>2022-03-27T14:44:15Z</time>
      </trkpt>
      <trkpt lat="48.59152" lon="2.02859">
        <ele>133</ele>
        <time>2022-03-27T14:44:16Z</time>
      </trkpt>
      <trkpt lat="48.59152" lon="2.02862">
        <ele>133</ele>
        <time>2022-03-27T14:44:17Z</time>
      </trkpt>
      <trkpt lat="48.59152" lon="2.02865">
        <ele>133</ele>
        <time>2022-03-27T14:44:18Z</time>
      </trkpt>
      <trkpt lat="48.59152" lon="2.02867">
        <ele>133</ele>
        <time>2022-03-27T14:44:19Z</time>
      </trkpt>
      <trkpt lat="48.59152" lon="2.0287">
        <ele>133</ele>
        <time>2022-03-27T14:44:20Z</time>
      </trkpt>
      <trkpt lat="48.59152" lon="2.02873">
        <ele>133</ele>
        <time>2022-03-27T14:44:21Z</time>
      </trkpt>
      <trkpt lat="48.59152" lon="2.02876">
        <ele>133</ele>
        <time>2022-03-27T14:44:22Z</time>
      </trkpt>
      <trkpt lat="48.59152" lon="2.02879">
        <ele>133</ele>
        <time>2022-03-27T14:44:23Z</time>
      </trkpt>
      <trkpt lat="48.59153" lon="2.02882">
        <ele>133</ele>
        <time>2022-03-27T14:44:24Z</time>
      </trkpt>
      <trkpt lat="48.59153" lon="2.02885">
        <ele>133</ele>
        <time>2022-03-27T14:44:25Z</time>
      </trkpt>
      <trkpt lat="48.59153" lon="2.02888">
        <ele>133</ele>
        <time>2022-03-27T14:44:26Z</time>
      </trkpt>
      <trkpt lat="48.59153" lon="2.0289">
        <ele>133</ele>
        <time>2022-03-27T14:44:27Z</time>
      </trkpt>
      <trkpt lat="48.59152" lon="2.02895">
        <ele>133</ele>
        <time>2022-03-27T14:44:29Z</time>
      </trkpt>
      <trkpt lat="48.59152" lon="2.029">
        <ele>133</ele>
        <time>2022-03-27T14:44:31Z</time>
      </trkpt>
      <trkpt lat="48.59151" lon="2.02905">
        <ele>132</ele>
        <time>2022-03-27T14:44:33Z</time>
      </trkpt>
      <trkpt lat="48.59151" lon="2.0291">
        <ele>132</ele>
        <time>2022-03-27T14:44:35Z</time>
      </trkpt>
      <trkpt lat="48.59151" lon="2.02915">
        <ele>131</ele>
        <time>2022-03-27T14:44:37Z</time>
      </trkpt>
      <trkpt lat="48.59151" lon="2.02921">
        <ele>131</ele>
        <time>2022-03-27T14:44:39Z</time>
      </trkpt>
      <trkpt lat="48.59151" lon="2.02926">
        <ele>131</ele>
        <time>2022-03-27T14:44:41Z</time>
      </trkpt>
      <trkpt lat="48.59152" lon="2.02931">
        <ele>130</ele>
        <time>2022-03-27T14:44:43Z</time>
      </trkpt>
      <trkpt lat="48.59153" lon="2.02936">
        <ele>130</ele>
        <time>2022-03-27T14:44:45Z</time>
      </trkpt>
      <trkpt lat="48.59153" lon="2.02939">
        <ele>130</ele>
        <time>2022-03-27T14:44:46Z</time>
      </trkpt>
      <trkpt lat="48.59153" lon="2.02942">
        <ele>130</ele>
        <time>2022-03-27T14:44:47Z</time>
      </trkpt>
      <trkpt lat="48.59153" lon="2.02945">
        <ele>130</ele>
        <time>2022-03-27T14:44:48Z</time>
      </trkpt>
      <trkpt lat="48.59154" lon="2.02947">
        <ele>130</ele>
        <time>2022-03-27T14:44:49Z</time>
      </trkpt>
      <trkpt lat="48.59154" lon="2.0295">
        <ele>130</ele>
        <time>2022-03-27T14:44:50Z</time>
      </trkpt>
      <trkpt lat="48.59154" lon="2.02953">
        <ele>130</ele>
        <time>2022-03-27T14:44:51Z</time>
      </trkpt>
      <trkpt lat="48.59153" lon="2.02956">
        <ele>129</ele>
        <time>2022-03-27T14:44:52Z</time>
      </trkpt>
      <trkpt lat="48.59154" lon="2.02961">
        <ele>129</ele>
        <time>2022-03-27T14:44:54Z</time>
      </trkpt>
      <trkpt lat="48.59154" lon="2.02966">
        <ele>128</ele>
        <time>2022-03-27T14:44:56Z</time>
      </trkpt>
      <trkpt lat="48.59154" lon="2.02969">
        <ele>128</ele>
        <time>2022-03-27T14:44:57Z</time>
      </trkpt>
      <trkpt lat="48.59154" lon="2.02974">
        <ele>128</ele>
        <time>2022-03-27T14:44:59Z</time>
      </trkpt>
      <trkpt lat="48.59154" lon="2.02979">
        <ele>127</ele>
        <time>2022-03-27T14:45:00Z</time>
      </trkpt>
      <trkpt lat="48.59154" lon="2.02984">
        <ele>127</ele>
        <time>2022-03-27T14:45:03Z</time>
      </trkpt>
      <trkpt lat="48.59155" lon="2.0299">
        <ele>126</ele>
        <time>2022-03-27T14:45:05Z</time>
      </trkpt>
      <trkpt lat="48.59155" lon="2.02993">
        <ele>126</ele>
        <time>2022-03-27T14:45:06Z</time>
      </trkpt>
      <trkpt lat="48.59155" lon="2.02996">
        <ele>126</ele>
        <time>2022-03-27T14:45:07Z</time>
      </trkpt>
      <trkpt lat="48.59155" lon="2.03001">
        <ele>126</ele>
        <time>2022-03-27T14:45:09Z</time>
      </trkpt>
      <trkpt lat="48.59155" lon="2.03004">
        <ele>126</ele>
        <time>2022-03-27T14:45:10Z</time>
      </trkpt>
      <trkpt lat="48.59155" lon="2.03007">
        <ele>126</ele>
        <time>2022-03-27T14:45:11Z</time>
      </trkpt>
      <trkpt lat="48.59156" lon="2.03012">
        <ele>125</ele>
        <time>2022-03-27T14:45:13Z</time>
      </trkpt>
      <trkpt lat="48.59156" lon="2.03015">
        <ele>125</ele>
        <time>2022-03-27T14:45:14Z</time>
      </trkpt>
      <trkpt lat="48.59156" lon="2.0302">
        <ele>125</ele>
        <time>2022-03-27T14:45:16Z</time>
      </trkpt>
      <trkpt lat="48.59157" lon="2.03025">
        <ele>125</ele>
        <time>2022-03-27T14:45:18Z</time>
      </trkpt>
      <trkpt lat="48.59157" lon="2.03031">
        <ele>125</ele>
        <time>2022-03-27T14:45:20Z</time>
      </trkpt>
      <trkpt lat="48.59157" lon="2.03036">
        <ele>125</ele>
        <time>2022-03-27T14:45:22Z</time>
      </trkpt>
      <trkpt lat="48.59158" lon="2.03041">
        <ele>125</ele>
        <time>2022-03-27T14:45:24Z</time>
      </trkpt>
      <trkpt lat="48.59158" lon="2.03046">
        <ele>125</ele>
        <time>2022-03-27T14:45:26Z</time>
      </trkpt>
      <trkpt lat="48.59158" lon="2.03051">
        <ele>124</ele>
        <time>2022-03-27T14:45:28Z</time>
      </trkpt>
      <trkpt lat="48.59159" lon="2.03056">
        <ele>124</ele>
        <time>2022-03-27T14:45:30Z</time>
      </trkpt>
      <trkpt lat="48.59159" lon="2.03062">
        <ele>124</ele>
        <time>2022-03-27T14:45:32Z</time>
      </trkpt>
      <trkpt lat="48.5916" lon="2.03064">
        <ele>124</ele>
        <time>2022-03-27T14:45:33Z</time>
      </trkpt>
      <trkpt lat="48.59159" lon="2.0307">
        <ele>124</ele>
        <time>2022-03-27T14:45:35Z</time>
      </trkpt>
      <trkpt lat="48.59159" lon="2.03075">
        <ele>123</ele>
        <time>2022-03-27T14:45:37Z</time>
      </trkpt>
      <trkpt lat="48.59159" lon="2.03079">
        <ele>123</ele>
        <time>2022-03-27T14:45:39Z</time>
      </trkpt>
      <trkpt lat="48.59159" lon="2.03084">
        <ele>123</ele>
        <time>2022-03-27T14:45:41Z</time>
      </trkpt>
      <trkpt lat="48.59159" lon="2.03089">
        <ele>123</ele>
        <time>2022-03-27T14:45:43Z</time>
      </trkpt>
      <trkpt lat="48.5916" lon="2.03094">
        <ele>122</ele>
        <time>2022-03-27T14:45:45Z</time>
      </trkpt>
      <trkpt lat="48.5916" lon="2.03099">
        <ele>122</ele>
        <time>2022-03-27T14:45:47Z</time>
      </trkpt>
      <trkpt lat="48.5916" lon="2.03105">
        <ele>122</ele>
        <time>2022-03-27T14:45:49Z</time>
      </trkpt>
      <trkpt lat="48.5916" lon="2.0311">
        <ele>122</ele>
        <time>2022-03-27T14:45:51Z</time>
      </trkpt>
      <trkpt lat="48.5916" lon="2.03115">
        <ele>122</ele>
        <time>2022-03-27T14:45:53Z</time>
      </trkpt>
      <trkpt lat="48.5916" lon="2.0312">
        <ele>122</ele>
        <time>2022-03-27T14:45:55Z</time>
      </trkpt>
      <trkpt lat="48.5916" lon="2.03123">
        <ele>122</ele>
        <time>2022-03-27T14:45:56Z</time>
      </trkpt>
      <trkpt lat="48.5916" lon="2.03126">
        <ele>122</ele>
        <time>2022-03-27T14:45:57Z</time>
      </trkpt>
      <trkpt lat="48.5916" lon="2.03131">
        <ele>122</ele>
        <time>2022-03-27T14:45:59Z</time>
      </trkpt>
      <trkpt lat="48.59159" lon="2.03136">
        <ele>122</ele>
        <time>2022-03-27T14:46:01Z</time>
      </trkpt>
      <trkpt lat="48.5916" lon="2.0314">
        <ele>122</ele>
        <time>2022-03-27T14:46:03Z</time>
      </trkpt>
      <trkpt lat="48.59158" lon="2.0314">
        <ele>121</ele>
        <time>2022-03-27T14:46:20Z</time>
      </trkpt>
      <trkpt lat="48.59156" lon="2.03142">
        <ele>121</ele>
        <time>2022-03-27T14:46:27Z</time>
      </trkpt>
      <trkpt lat="48.59157" lon="2.03145">
        <ele>121</ele>
        <time>2022-03-27T14:46:29Z</time>
      </trkpt>
      <trkpt lat="48.59158" lon="2.03147">
        <ele>120</ele>
        <time>2022-03-27T14:46:31Z</time>
      </trkpt>
      <trkpt lat="48.59159" lon="2.03149">
        <ele>120</ele>
        <time>2022-03-27T14:46:34Z</time>
      </trkpt>
      <trkpt lat="48.59159" lon="2.03153">
        <ele>120</ele>
        <time>2022-03-27T14:46:38Z</time>
      </trkpt>
      <trkpt lat="48.5916" lon="2.03158">
        <ele>120</ele>
        <time>2022-03-27T14:46:40Z</time>
      </trkpt>
      <trkpt lat="48.5916" lon="2.03163">
        <ele>120</ele>
        <time>2022-03-27T14:46:42Z</time>
      </trkpt>
      <trkpt lat="48.5916" lon="2.03168">
        <ele>120</ele>
        <time>2022-03-27T14:46:44Z</time>
      </trkpt>
      <trkpt lat="48.5916" lon="2.03171">
        <ele>120</ele>
        <time>2022-03-27T14:46:45Z</time>
      </trkpt>
      <trkpt lat="48.5916" lon="2.03176">
        <ele>120</ele>
        <time>2022-03-27T14:46:47Z</time>
      </trkpt>
      <trkpt lat="48.5916" lon="2.03181">
        <ele>120</ele>
        <time>2022-03-27T14:46:49Z</time>
      </trkpt>
      <trkpt lat="48.5916" lon="2.03186">
        <ele>120</ele>
        <time>2022-03-27T14:46:51Z</time>
      </trkpt>
      <trkpt lat="48.59161" lon="2.03189">
        <ele>120</ele>
        <time>2022-03-27T14:46:52Z</time>
      </trkpt>
      <trkpt lat="48.59161" lon="2.03192">
        <ele>120</ele>
        <time>2022-03-27T14:46:53Z</time>
      </trkpt>
      <trkpt lat="48.59161" lon="2.03195">
        <ele>120</ele>
        <time>2022-03-27T14:46:54Z</time>
      </trkpt>
      <trkpt lat="48.59161" lon="2.03198">
        <ele>121</ele>
        <time>2022-03-27T14:46:55Z</time>
      </trkpt>
      <trkpt lat="48.59161" lon="2.032">
        <ele>121</ele>
        <time>2022-03-27T14:46:56Z</time>
      </trkpt>
      <trkpt lat="48.59162" lon="2.03205">
        <ele>121</ele>
        <time>2022-03-27T14:46:58Z</time>
      </trkpt>
      <trkpt lat="48.59162" lon="2.0321">
        <ele>121</ele>
        <time>2022-03-27T14:47:00Z</time>
      </trkpt>
      <trkpt lat="48.59163" lon="2.03215">
        <ele>122</ele>
        <time>2022-03-27T14:47:02Z</time>
      </trkpt>
      <trkpt lat="48.59162" lon="2.03219">
        <ele>122</ele>
        <time>2022-03-27T14:47:04Z</time>
      </trkpt>
      <trkpt lat="48.59162" lon="2.03224">
        <ele>122</ele>
        <time>2022-03-27T14:47:06Z</time>
      </trkpt>
      <trkpt lat="48.59162" lon="2.03227">
        <ele>122</ele>
        <time>2022-03-27T14:47:07Z</time>
      </trkpt>
      <trkpt lat="48.59162" lon="2.0323">
        <ele>122</ele>
        <time>2022-03-27T14:47:08Z</time>
      </trkpt>
      <trkpt lat="48.59162" lon="2.03233">
        <ele>122</ele>
        <time>2022-03-27T14:47:09Z</time>
      </trkpt>
      <trkpt lat="48.59162" lon="2.03238">
        <ele>122</ele>
        <time>2022-03-27T14:47:11Z</time>
      </trkpt>
      <trkpt lat="48.59162" lon="2.03242">
        <ele>123</ele>
        <time>2022-03-27T14:47:13Z</time>
      </trkpt>
      <trkpt lat="48.59163" lon="2.03247">
        <ele>123</ele>
        <time>2022-03-27T14:47:15Z</time>
      </trkpt>
      <trkpt lat="48.59163" lon="2.03251">
        <ele>123</ele>
        <time>2022-03-27T14:47:17Z</time>
      </trkpt>
      <trkpt lat="48.59163" lon="2.03256">
        <ele>123</ele>
        <time>2022-03-27T14:47:19Z</time>
      </trkpt>
      <trkpt lat="48.59164" lon="2.03261">
        <ele>123</ele>
        <time>2022-03-27T14:47:21Z</time>
      </trkpt>
      <trkpt lat="48.59164" lon="2.03264">
        <ele>123</ele>
        <time>2022-03-27T14:47:22Z</time>
      </trkpt>
      <trkpt lat="48.59165" lon="2.03267">
        <ele>123</ele>
        <time>2022-03-27T14:47:22Z</time>
      </trkpt>
      <trkpt lat="48.59166" lon="2.0327">
        <ele>123</ele>
        <time>2022-03-27T14:47:24Z</time>
      </trkpt>
      <trkpt lat="48.59166" lon="2.03272">
        <ele>123</ele>
        <time>2022-03-27T14:47:25Z</time>
      </trkpt>
      <trkpt lat="48.59167" lon="2.03275">
        <ele>123</ele>
        <time>2022-03-27T14:47:26Z</time>
      </trkpt>
      <trkpt lat="48.59168" lon="2.0328">
        <ele>124</ele>
        <time>2022-03-27T14:47:28Z</time>
      </trkpt>
      <trkpt lat="48.59167" lon="2.03283">
        <ele>124</ele>
        <time>2022-03-27T14:47:29Z</time>
      </trkpt>
      <trkpt lat="48.59167" lon="2.03286">
        <ele>124</ele>
        <time>2022-03-27T14:47:30Z</time>
      </trkpt>
      <trkpt lat="48.59167" lon="2.03289">
        <ele>124</ele>
        <time>2022-03-27T14:47:31Z</time>
      </trkpt>
      <trkpt lat="48.59167" lon="2.03292">
        <ele>124</ele>
        <time>2022-03-27T14:47:32Z</time>
      </trkpt>
      <trkpt lat="48.59167" lon="2.03297">
        <ele>124</ele>
        <time>2022-03-27T14:47:34Z</time>
      </trkpt>
      <trkpt lat="48.59167" lon="2.03302">
        <ele>124</ele>
        <time>2022-03-27T14:47:36Z</time>
      </trkpt>
      <trkpt lat="48.59168" lon="2.03307">
        <ele>125</ele>
        <time>2022-03-27T14:47:38Z</time>
      </trkpt>
      <trkpt lat="48.59168" lon="2.03312">
        <ele>125</ele>
        <time>2022-03-27T14:47:40Z</time>
      </trkpt>
      <trkpt lat="48.59168" lon="2.03316">
        <ele>125</ele>
        <time>2022-03-27T14:47:42Z</time>
      </trkpt>
      <trkpt lat="48.59168" lon="2.03321">
        <ele>125</ele>
        <time>2022-03-27T14:47:44Z</time>
      </trkpt>
      <trkpt lat="48.59169" lon="2.03326">
        <ele>125</ele>
        <time>2022-03-27T14:47:46Z</time>
      </trkpt>
      <trkpt lat="48.5917" lon="2.0333">
        <ele>125</ele>
        <time>2022-03-27T14:47:48Z</time>
      </trkpt>
      <trkpt lat="48.5917" lon="2.03335">
        <ele>125</ele>
        <time>2022-03-27T14:47:50Z</time>
      </trkpt>
      <trkpt lat="48.59171" lon="2.0334">
        <ele>126</ele>
        <time>2022-03-27T14:47:52Z</time>
      </trkpt>
      <trkpt lat="48.59171" lon="2.03345">
        <ele>125</ele>
        <time>2022-03-27T14:47:54Z</time>
      </trkpt>
      <trkpt lat="48.59171" lon="2.0335">
        <ele>125</ele>
        <time>2022-03-27T14:47:56Z</time>
      </trkpt>
      <trkpt lat="48.59171" lon="2.03356">
        <ele>126</ele>
        <time>2022-03-27T14:47:58Z</time>
      </trkpt>
      <trkpt lat="48.59171" lon="2.0336">
        <ele>126</ele>
        <time>2022-03-27T14:48:00Z</time>
      </trkpt>
      <trkpt lat="48.59172" lon="2.03365">
        <ele>126</ele>
        <time>2022-03-27T14:48:02Z</time>
      </trkpt>
      <trkpt lat="48.59172" lon="2.0337">
        <ele>126</ele>
        <time>2022-03-27T14:48:04Z</time>
      </trkpt>
      <trkpt lat="48.59172" lon="2.03374">
        <ele>126</ele>
        <time>2022-03-27T14:48:06Z</time>
      </trkpt>
      <trkpt lat="48.59173" lon="2.03379">
        <ele>126</ele>
        <time>2022-03-27T14:48:08Z</time>
      </trkpt>
      <trkpt lat="48.59174" lon="2.03384">
        <ele>126</ele>
        <time>2022-03-27T14:48:10Z</time>
      </trkpt>
      <trkpt lat="48.59175" lon="2.03389">
        <ele>126</ele>
        <time>2022-03-27T14:48:12Z</time>
      </trkpt>
      <trkpt lat="48.59175" lon="2.03392">
        <ele>126</ele>
        <time>2022-03-27T14:48:13Z</time>
      </trkpt>
      <trkpt lat="48.59175" lon="2.03397">
        <ele>126</ele>
        <time>2022-03-27T14:48:15Z</time>
      </trkpt>
      <trkpt lat="48.59175" lon="2.03401">
        <ele>126</ele>
        <time>2022-03-27T14:48:17Z</time>
      </trkpt>
      <trkpt lat="48.59175" lon="2.03404">
        <ele>126</ele>
        <time>2022-03-27T14:48:18Z</time>
      </trkpt>
      <trkpt lat="48.59176" lon="2.03409">
        <ele>126</ele>
        <time>2022-03-27T14:48:20Z</time>
      </trkpt>
      <trkpt lat="48.59176" lon="2.03414">
        <ele>126</ele>
        <time>2022-03-27T14:48:22Z</time>
      </trkpt>
      <trkpt lat="48.59177" lon="2.03419">
        <ele>126</ele>
        <time>2022-03-27T14:48:24Z</time>
      </trkpt>
      <trkpt lat="48.59177" lon="2.03422">
        <ele>126</ele>
        <time>2022-03-27T14:48:25Z</time>
      </trkpt>
      <trkpt lat="48.59177" lon="2.03427">
        <ele>126</ele>
        <time>2022-03-27T14:48:27Z</time>
      </trkpt>
      <trkpt lat="48.59178" lon="2.03431">
        <ele>126</ele>
        <time>2022-03-27T14:48:29Z</time>
      </trkpt>
      <trkpt lat="48.59178" lon="2.03436">
        <ele>126</ele>
        <time>2022-03-27T14:48:31Z</time>
      </trkpt>
      <trkpt lat="48.59179" lon="2.03441">
        <ele>126</ele>
        <time>2022-03-27T14:48:33Z</time>
      </trkpt>
      <trkpt lat="48.5918" lon="2.03446">
        <ele>125</ele>
        <time>2022-03-27T14:48:35Z</time>
      </trkpt>
      <trkpt lat="48.5918" lon="2.03451">
        <ele>125</ele>
        <time>2022-03-27T14:48:37Z</time>
      </trkpt>
      <trkpt lat="48.5918" lon="2.03456">
        <ele>125</ele>
        <time>2022-03-27T14:48:39Z</time>
      </trkpt>
      <trkpt lat="48.59181" lon="2.03462">
        <ele>125</ele>
        <time>2022-03-27T14:48:41Z</time>
      </trkpt>
      <trkpt lat="48.59181" lon="2.03467">
        <ele>125</ele>
        <time>2022-03-27T14:48:43Z</time>
      </trkpt>
      <trkpt lat="48.59181" lon="2.03472">
        <ele>125</ele>
        <time>2022-03-27T14:48:45Z</time>
      </trkpt>
      <trkpt lat="48.59182" lon="2.03477">
        <ele>125</ele>
        <time>2022-03-27T14:48:47Z</time>
      </trkpt>
      <trkpt lat="48.59182" lon="2.03482">
        <ele>125</ele>
        <time>2022-03-27T14:48:49Z</time>
      </trkpt>
      <trkpt lat="48.59183" lon="2.03487">
        <ele>125</ele>
        <time>2022-03-27T14:48:51Z</time>
      </trkpt>
      <trkpt lat="48.59183" lon="2.03491">
        <ele>125</ele>
        <time>2022-03-27T14:48:53Z</time>
      </trkpt>
      <trkpt lat="48.59183" lon="2.03496">
        <ele>126</ele>
        <time>2022-03-27T14:48:55Z</time>
      </trkpt>
      <trkpt lat="48.59182" lon="2.035">
        <ele>126</ele>
        <time>2022-03-27T14:48:57Z</time>
      </trkpt>
      <trkpt lat="48.59182" lon="2.03505">
        <ele>126</ele>
        <time>2022-03-27T14:48:59Z</time>
      </trkpt>
      <trkpt lat="48.59182" lon="2.0351">
        <ele>126</ele>
        <time>2022-03-27T14:49:01Z</time>
      </trkpt>
      <trkpt lat="48.59181" lon="2.03515">
        <ele>127</ele>
        <time>2022-03-27T14:49:03Z</time>
      </trkpt>
      <trkpt lat="48.59182" lon="2.03518">
        <ele>127</ele>
        <time>2022-03-27T14:49:04Z</time>
      </trkpt>
      <trkpt lat="48.59182" lon="2.0352">
        <ele>127</ele>
        <time>2022-03-27T14:49:05Z</time>
      </trkpt>
      <trkpt lat="48.59183" lon="2.03524">
        <ele>127</ele>
        <time>2022-03-27T14:49:06Z</time>
      </trkpt>
      <trkpt lat="48.59184" lon="2.03526">
        <ele>127</ele>
        <time>2022-03-27T14:49:07Z</time>
      </trkpt>
      <trkpt lat="48.59185" lon="2.03529">
        <ele>127</ele>
        <time>2022-03-27T14:49:08Z</time>
      </trkpt>
      <trkpt lat="48.59185" lon="2.03532">
        <ele>127</ele>
        <time>2022-03-27T14:49:09Z</time>
      </trkpt>
      <trkpt lat="48.59185" lon="2.03536">
        <ele>127</ele>
        <time>2022-03-27T14:49:10Z</time>
      </trkpt>
      <trkpt lat="48.59186" lon="2.03539">
        <ele>127</ele>
        <time>2022-03-27T14:49:11Z</time>
      </trkpt>
      <trkpt lat="48.59187" lon="2.03543">
        <ele>127</ele>
        <time>2022-03-27T14:49:13Z</time>
      </trkpt>
      <trkpt lat="48.59188" lon="2.03548">
        <ele>128</ele>
        <time>2022-03-27T14:49:15Z</time>
      </trkpt>
      <trkpt lat="48.59188" lon="2.03554">
        <ele>128</ele>
        <time>2022-03-27T14:49:17Z</time>
      </trkpt>
      <trkpt lat="48.59189" lon="2.03559">
        <ele>128</ele>
        <time>2022-03-27T14:49:19Z</time>
      </trkpt>
      <trkpt lat="48.59188" lon="2.03563">
        <ele>128</ele>
        <time>2022-03-27T14:49:21Z</time>
      </trkpt>
      <trkpt lat="48.59188" lon="2.03568">
        <ele>128</ele>
        <time>2022-03-27T14:49:23Z</time>
      </trkpt>
      <trkpt lat="48.59188" lon="2.03572">
        <ele>129</ele>
        <time>2022-03-27T14:49:25Z</time>
      </trkpt>
      <trkpt lat="48.59187" lon="2.03576">
        <ele>129</ele>
        <time>2022-03-27T14:49:27Z</time>
      </trkpt>
      <trkpt lat="48.59186" lon="2.03581">
        <ele>129</ele>
        <time>2022-03-27T14:49:29Z</time>
      </trkpt>
      <trkpt lat="48.59185" lon="2.03586">
        <ele>129</ele>
        <time>2022-03-27T14:49:31Z</time>
      </trkpt>
      <trkpt lat="48.59184" lon="2.0359">
        <ele>130</ele>
        <time>2022-03-27T14:49:33Z</time>
      </trkpt>
      <trkpt lat="48.59183" lon="2.03595">
        <ele>130</ele>
        <time>2022-03-27T14:49:35Z</time>
      </trkpt>
      <trkpt lat="48.59183" lon="2.036">
        <ele>130</ele>
        <time>2022-03-27T14:49:37Z</time>
      </trkpt>
      <trkpt lat="48.59182" lon="2.03604">
        <ele>130</ele>
        <time>2022-03-27T14:49:39Z</time>
      </trkpt>
      <trkpt lat="48.59183" lon="2.03607">
        <ele>130</ele>
        <time>2022-03-27T14:49:41Z</time>
      </trkpt>
      <trkpt lat="48.59184" lon="2.0361">
        <ele>131</ele>
        <time>2022-03-27T14:49:43Z</time>
      </trkpt>
      <trkpt lat="48.59185" lon="2.03614">
        <ele>131</ele>
        <time>2022-03-27T14:49:45Z</time>
      </trkpt>
      <trkpt lat="48.59186" lon="2.03618">
        <ele>132</ele>
        <time>2022-03-27T14:49:47Z</time>
      </trkpt>
      <trkpt lat="48.59187" lon="2.03622">
        <ele>132</ele>
        <time>2022-03-27T14:49:49Z</time>
      </trkpt>
      <trkpt lat="48.59186" lon="2.03626">
        <ele>132</ele>
        <time>2022-03-27T14:49:51Z</time>
      </trkpt>
      <trkpt lat="48.59186" lon="2.03631">
        <ele>132</ele>
        <time>2022-03-27T14:49:53Z</time>
      </trkpt>
      <trkpt lat="48.59186" lon="2.03636">
        <ele>132</ele>
        <time>2022-03-27T14:49:55Z</time>
      </trkpt>
      <trkpt lat="48.59186" lon="2.03641">
        <ele>132</ele>
        <time>2022-03-27T14:49:57Z</time>
      </trkpt>
      <trkpt lat="48.59186" lon="2.03645">
        <ele>132</ele>
        <time>2022-03-27T14:49:59Z</time>
      </trkpt>
      <trkpt lat="48.59186" lon="2.0365">
        <ele>133</ele>
        <time>2022-03-27T14:50:01Z</time>
      </trkpt>
      <trkpt lat="48.59186" lon="2.03655">
        <ele>133</ele>
        <time>2022-03-27T14:50:03Z</time>
      </trkpt>
      <trkpt lat="48.59186" lon="2.03659">
        <ele>133</ele>
        <time>2022-03-27T14:50:05Z</time>
      </trkpt>
      <trkpt lat="48.59187" lon="2.03663">
        <ele>133</ele>
        <time>2022-03-27T14:50:07Z</time>
      </trkpt>
      <trkpt lat="48.59186" lon="2.03667">
        <ele>133</ele>
        <time>2022-03-27T14:50:09Z</time>
      </trkpt>
      <trkpt lat="48.59186" lon="2.03672">
        <ele>133</ele>
        <time>2022-03-27T14:50:11Z</time>
      </trkpt>
      <trkpt lat="48.59187" lon="2.03678">
        <ele>133</ele>
        <time>2022-03-27T14:50:13Z</time>
      </trkpt>
      <trkpt lat="48.59187" lon="2.0368">
        <ele>133</ele>
        <time>2022-03-27T14:50:14Z</time>
      </trkpt>
      <trkpt lat="48.59187" lon="2.03686">
        <ele>133</ele>
        <time>2022-03-27T14:50:16Z</time>
      </trkpt>
      <trkpt lat="48.59186" lon="2.03692">
        <ele>133</ele>
        <time>2022-03-27T14:50:18Z</time>
      </trkpt>
      <trkpt lat="48.59186" lon="2.03695">
        <ele>133</ele>
        <time>2022-03-27T14:50:19Z</time>
      </trkpt>
      <trkpt lat="48.59186" lon="2.03698">
        <ele>133</ele>
        <time>2022-03-27T14:50:20Z</time>
      </trkpt>
      <trkpt lat="48.59185" lon="2.03703">
        <ele>133</ele>
        <time>2022-03-27T14:50:22Z</time>
      </trkpt>
      <trkpt lat="48.59185" lon="2.03706">
        <ele>133</ele>
        <time>2022-03-27T14:50:23Z</time>
      </trkpt>
      <trkpt lat="48.59185" lon="2.03709">
        <ele>133</ele>
        <time>2022-03-27T14:50:24Z</time>
      </trkpt>
      <trkpt lat="48.59184" lon="2.03712">
        <ele>133</ele>
        <time>2022-03-27T14:50:25Z</time>
      </trkpt>
      <trkpt lat="48.59184" lon="2.03716">
        <ele>134</ele>
        <time>2022-03-27T14:50:27Z</time>
      </trkpt>
      <trkpt lat="48.59184" lon="2.03722">
        <ele>133</ele>
        <time>2022-03-27T14:50:29Z</time>
      </trkpt>
      <trkpt lat="48.59184" lon="2.03726">
        <ele>133</ele>
        <time>2022-03-27T14:50:31Z</time>
      </trkpt>
      <trkpt lat="48.59184" lon="2.03731">
        <ele>134</ele>
        <time>2022-03-27T14:50:33Z</time>
      </trkpt>
      <trkpt lat="48.59183" lon="2.03735">
        <ele>134</ele>
        <time>2022-03-27T14:50:35Z</time>
      </trkpt>
      <trkpt lat="48.59183" lon="2.03741">
        <ele>134</ele>
        <time>2022-03-27T14:50:37Z</time>
      </trkpt>
      <trkpt lat="48.59183" lon="2.03744">
        <ele>134</ele>
        <time>2022-03-27T14:50:38Z</time>
      </trkpt>
      <trkpt lat="48.59183" lon="2.0375">
        <ele>134</ele>
        <time>2022-03-27T14:50:40Z</time>
      </trkpt>
      <trkpt lat="48.59183" lon="2.03754">
        <ele>133</ele>
        <time>2022-03-27T14:50:42Z</time>
      </trkpt>
      <trkpt lat="48.59184" lon="2.03759">
        <ele>134</ele>
        <time>2022-03-27T14:50:44Z</time>
      </trkpt>
      <trkpt lat="48.59184" lon="2.03764">
        <ele>134</ele>
        <time>2022-03-27T14:50:46Z</time>
      </trkpt>
      <trkpt lat="48.59184" lon="2.03769">
        <ele>134</ele>
        <time>2022-03-27T14:50:48Z</time>
      </trkpt>
      <trkpt lat="48.59183" lon="2.03773">
        <ele>134</ele>
        <time>2022-03-27T14:50:50Z</time>
      </trkpt>
      <trkpt lat="48.59183" lon="2.03778">
        <ele>134</ele>
        <time>2022-03-27T14:50:52Z</time>
      </trkpt>
      <trkpt lat="48.59182" lon="2.0378">
        <ele>134</ele>
        <time>2022-03-27T14:50:53Z</time>
      </trkpt>
      <trkpt lat="48.59182" lon="2.03784">
        <ele>134</ele>
        <time>2022-03-27T14:50:55Z</time>
      </trkpt>
      <trkpt lat="48.59183" lon="2.03789">
        <ele>134</ele>
        <time>2022-03-27T14:50:57Z</time>
      </trkpt>
      <trkpt lat="48.59183" lon="2.03794">
        <ele>135</ele>
        <time>2022-03-27T14:50:59Z</time>
      </trkpt>
      <trkpt lat="48.59182" lon="2.03798">
        <ele>135</ele>
        <time>2022-03-27T14:51:01Z</time>
      </trkpt>
      <trkpt lat="48.59183" lon="2.03803">
        <ele>135</ele>
        <time>2022-03-27T14:51:03Z</time>
      </trkpt>
      <trkpt lat="48.59183" lon="2.03806">
        <ele>135</ele>
        <time>2022-03-27T14:51:04Z</time>
      </trkpt>
      <trkpt lat="48.59183" lon="2.03809">
        <ele>135</ele>
        <time>2022-03-27T14:51:05Z</time>
      </trkpt>
      <trkpt lat="48.59183" lon="2.03812">
        <ele>135</ele>
        <time>2022-03-27T14:51:06Z</time>
      </trkpt>
      <trkpt lat="48.59183" lon="2.03815">
        <ele>135</ele>
        <time>2022-03-27T14:51:07Z</time>
      </trkpt>
      <trkpt lat="48.59183" lon="2.03828">
        <ele>135</ele>
        <time>2022-03-27T14:51:11Z</time>
      </trkpt>
      <trkpt lat="48.59184" lon="2.03833">
        <ele>135</ele>
        <time>2022-03-27T14:51:13Z</time>
      </trkpt>
      <trkpt lat="48.59182" lon="2.03838">
        <ele>135</ele>
        <time>2022-03-27T14:51:16Z</time>
      </trkpt>
      <trkpt lat="48.59181" lon="2.03841">
        <ele>136</ele>
        <time>2022-03-27T14:51:18Z</time>
      </trkpt>
      <trkpt lat="48.5918" lon="2.03844">
        <ele>136</ele>
        <time>2022-03-27T14:51:19Z</time>
      </trkpt>
      <trkpt lat="48.5918" lon="2.03848">
        <ele>136</ele>
        <time>2022-03-27T14:51:20Z</time>
      </trkpt>
      <trkpt lat="48.59179" lon="2.03852">
        <ele>136</ele>
        <time>2022-03-27T14:51:22Z</time>
      </trkpt>
      <trkpt lat="48.59179" lon="2.03857">
        <ele>136</ele>
        <time>2022-03-27T14:51:24Z</time>
      </trkpt>
      <trkpt lat="48.59178" lon="2.03861">
        <ele>136</ele>
        <time>2022-03-27T14:51:26Z</time>
      </trkpt>
      <trkpt lat="48.59179" lon="2.03868">
        <ele>135</ele>
        <time>2022-03-27T14:51:29Z</time>
      </trkpt>
      <trkpt lat="48.59179" lon="2.03871">
        <ele>135</ele>
        <time>2022-03-27T14:51:30Z</time>
      </trkpt>
      <trkpt lat="48.59179" lon="2.03875">
        <ele>135</ele>
        <time>2022-03-27T14:51:31Z</time>
      </trkpt>
      <trkpt lat="48.5918" lon="2.03878">
        <ele>135</ele>
        <time>2022-03-27T14:51:32Z</time>
      </trkpt>
      <trkpt lat="48.5918" lon="2.03881">
        <ele>135</ele>
        <time>2022-03-27T14:51:33Z</time>
      </trkpt>
      <trkpt lat="48.59181" lon="2.03886">
        <ele>135</ele>
        <time>2022-03-27T14:51:34Z</time>
      </trkpt>
      <trkpt lat="48.59182" lon="2.03889">
        <ele>134</ele>
        <time>2022-03-27T14:51:35Z</time>
      </trkpt>
      <trkpt lat="48.59182" lon="2.03892">
        <ele>134</ele>
        <time>2022-03-27T14:51:36Z</time>
      </trkpt>
      <trkpt lat="48.59182" lon="2.03895">
        <ele>134</ele>
        <time>2022-03-27T14:51:37Z</time>
      </trkpt>
      <trkpt lat="48.59182" lon="2.039">
        <ele>134</ele>
        <time>2022-03-27T14:51:39Z</time>
      </trkpt>
      <trkpt lat="48.59182" lon="2.03905">
        <ele>134</ele>
        <time>2022-03-27T14:51:41Z</time>
      </trkpt>
      <trkpt lat="48.59183" lon="2.03909">
        <ele>134</ele>
        <time>2022-03-27T14:51:43Z</time>
      </trkpt>
      <trkpt lat="48.59184" lon="2.03912">
        <ele>134</ele>
        <time>2022-03-27T14:51:44Z</time>
      </trkpt>
      <trkpt lat="48.59185" lon="2.03916">
        <ele>135</ele>
        <time>2022-03-27T14:51:46Z</time>
      </trkpt>
      <trkpt lat="48.59185" lon="2.03921">
        <ele>135</ele>
        <time>2022-03-27T14:51:48Z</time>
      </trkpt>
      <trkpt lat="48.59186" lon="2.03926">
        <ele>135</ele>
        <time>2022-03-27T14:51:50Z</time>
      </trkpt>
      <trkpt lat="48.59186" lon="2.03931">
        <ele>136</ele>
        <time>2022-03-27T14:51:52Z</time>
      </trkpt>
      <trkpt lat="48.59188" lon="2.03935">
        <ele>135</ele>
        <time>2022-03-27T14:51:54Z</time>
      </trkpt>
      <trkpt lat="48.59188" lon="2.03939">
        <ele>135</ele>
        <time>2022-03-27T14:51:56Z</time>
      </trkpt>
      <trkpt lat="48.59187" lon="2.03943">
        <ele>136</ele>
        <time>2022-03-27T14:51:58Z</time>
      </trkpt>
      <trkpt lat="48.59187" lon="2.03948">
        <ele>136</ele>
        <time>2022-03-27T14:52:00Z</time>
      </trkpt>
      <trkpt lat="48.59188" lon="2.03952">
        <ele>136</ele>
        <time>2022-03-27T14:52:02Z</time>
      </trkpt>
      <trkpt lat="48.59188" lon="2.03957">
        <ele>137</ele>
        <time>2022-03-27T14:52:04Z</time>
      </trkpt>
      <trkpt lat="48.59188" lon="2.0396">
        <ele>137</ele>
        <time>2022-03-27T14:52:05Z</time>
      </trkpt>
      <trkpt lat="48.59189" lon="2.03968">
        <ele>136</ele>
        <time>2022-03-27T14:52:07Z</time>
      </trkpt>
      <trkpt lat="48.59189" lon="2.03971">
        <ele>136</ele>
        <time>2022-03-27T14:52:08Z</time>
      </trkpt>
      <trkpt lat="48.59189" lon="2.03975">
        <ele>135</ele>
        <time>2022-03-27T14:52:09Z</time>
      </trkpt>
      <trkpt lat="48.5919" lon="2.03978">
        <ele>135</ele>
        <time>2022-03-27T14:52:10Z</time>
      </trkpt>
      <trkpt lat="48.5919" lon="2.03981">
        <ele>135</ele>
        <time>2022-03-27T14:52:11Z</time>
      </trkpt>
      <trkpt lat="48.59191" lon="2.03986">
        <ele>135</ele>
        <time>2022-03-27T14:52:13Z</time>
      </trkpt>
      <trkpt lat="48.59191" lon="2.0399">
        <ele>135</ele>
        <time>2022-03-27T14:52:15Z</time>
      </trkpt>
      <trkpt lat="48.59191" lon="2.03994">
        <ele>135</ele>
        <time>2022-03-27T14:52:17Z</time>
      </trkpt>
      <trkpt lat="48.59191" lon="2.03999">
        <ele>135</ele>
        <time>2022-03-27T14:52:20Z</time>
      </trkpt>
      <trkpt lat="48.5919" lon="2.04003">
        <ele>135</ele>
        <time>2022-03-27T14:52:22Z</time>
      </trkpt>
      <trkpt lat="48.5919" lon="2.04008">
        <ele>135</ele>
        <time>2022-03-27T14:52:24Z</time>
      </trkpt>
      <trkpt lat="48.59191" lon="2.04012">
        <ele>135</ele>
        <time>2022-03-27T14:52:26Z</time>
      </trkpt>
      <trkpt lat="48.5919" lon="2.04015">
        <ele>135</ele>
        <time>2022-03-27T14:52:28Z</time>
      </trkpt>
      <trkpt lat="48.5919" lon="2.04018">
        <ele>134</ele>
        <time>2022-03-27T14:52:30Z</time>
      </trkpt>
      <trkpt lat="48.59191" lon="2.04022">
        <ele>134</ele>
        <time>2022-03-27T14:52:32Z</time>
      </trkpt>
      <trkpt lat="48.5919" lon="2.04027">
        <ele>134</ele>
        <time>2022-03-27T14:52:34Z</time>
      </trkpt>
      <trkpt lat="48.59191" lon="2.04031">
        <ele>134</ele>
        <time>2022-03-27T14:52:36Z</time>
      </trkpt>
      <trkpt lat="48.59192" lon="2.04036">
        <ele>135</ele>
        <time>2022-03-27T14:52:38Z</time>
      </trkpt>
      <trkpt lat="48.59193" lon="2.0404">
        <ele>135</ele>
        <time>2022-03-27T14:52:40Z</time>
      </trkpt>
      <trkpt lat="48.59193" lon="2.04044">
        <ele>135</ele>
        <time>2022-03-27T14:52:42Z</time>
      </trkpt>
      <trkpt lat="48.59194" lon="2.04047">
        <ele>135</ele>
        <time>2022-03-27T14:52:44Z</time>
      </trkpt>
      <trkpt lat="48.59195" lon="2.04051">
        <ele>135</ele>
        <time>2022-03-27T14:52:46Z</time>
      </trkpt>
      <trkpt lat="48.59196" lon="2.04054">
        <ele>135</ele>
        <time>2022-03-27T14:52:48Z</time>
      </trkpt>
      <trkpt lat="48.59198" lon="2.04056">
        <ele>136</ele>
        <time>2022-03-27T14:52:51Z</time>
      </trkpt>
      <trkpt lat="48.592" lon="2.04058">
        <ele>136</ele>
        <time>2022-03-27T14:52:53Z</time>
      </trkpt>
      <trkpt lat="48.59201" lon="2.04061">
        <ele>136</ele>
        <time>2022-03-27T14:52:55Z</time>
      </trkpt>
      <trkpt lat="48.59203" lon="2.04064">
        <ele>136</ele>
        <time>2022-03-27T14:52:57Z</time>
      </trkpt>
      <trkpt lat="48.59204" lon="2.04067">
        <ele>137</ele>
        <time>2022-03-27T14:52:59Z</time>
      </trkpt>
      <trkpt lat="48.59206" lon="2.04071">
        <ele>137</ele>
        <time>2022-03-27T14:53:01Z</time>
      </trkpt>
      <trkpt lat="48.59209" lon="2.04074">
        <ele>137</ele>
        <time>2022-03-27T14:53:03Z</time>
      </trkpt>
      <trkpt lat="48.5921" lon="2.04075">
        <ele>137</ele>
        <time>2022-03-27T14:53:04Z</time>
      </trkpt>
      <trkpt lat="48.59212" lon="2.04077">
        <ele>136</ele>
        <time>2022-03-27T14:53:05Z</time>
      </trkpt>
      <trkpt lat="48.59222" lon="2.04089">
        <ele>135</ele>
        <time>2022-03-27T14:53:08Z</time>
      </trkpt>
      <trkpt lat="48.59225" lon="2.04091">
        <ele>135</ele>
        <time>2022-03-27T14:53:10Z</time>
      </trkpt>
      <trkpt lat="48.59227" lon="2.0409">
        <ele>135</ele>
        <time>2022-03-27T14:53:14Z</time>
      </trkpt>
      <trkpt lat="48.59231" lon="2.0409">
        <ele>135</ele>
        <time>2022-03-27T14:53:18Z</time>
      </trkpt>
      <trkpt lat="48.59235" lon="2.04091">
        <ele>136</ele>
        <time>2022-03-27T14:53:20Z</time>
      </trkpt>
      <trkpt lat="48.59236" lon="2.04092">
        <ele>136</ele>
        <time>2022-03-27T14:53:21Z</time>
      </trkpt>
      <trkpt lat="48.59238" lon="2.04092">
        <ele>136</ele>
        <time>2022-03-27T14:53:22Z</time>
      </trkpt>
      <trkpt lat="48.59246" lon="2.04101">
        <ele>137</ele>
        <time>2022-03-27T14:53:27Z</time>
      </trkpt>
      <trkpt lat="48.59253" lon="2.04114">
        <ele>138</ele>
        <time>2022-03-27T14:53:31Z</time>
      </trkpt>
      <trkpt lat="48.59259" lon="2.04126">
        <ele>139</ele>
        <time>2022-03-27T14:53:35Z</time>
      </trkpt>
      <trkpt lat="48.59262" lon="2.04128">
        <ele>140</ele>
        <time>2022-03-27T14:53:38Z</time>
      </trkpt>
      <trkpt lat="48.59264" lon="2.04129">
        <ele>140</ele>
        <time>2022-03-27T14:53:41Z</time>
      </trkpt>
      <trkpt lat="48.59266" lon="2.04132">
        <ele>140</ele>
        <time>2022-03-27T14:53:45Z</time>
      </trkpt>
      <trkpt lat="48.59274" lon="2.04138">
        <ele>140</ele>
        <time>2022-03-27T14:53:54Z</time>
      </trkpt>
      <trkpt lat="48.59279" lon="2.04147">
        <ele>140</ele>
        <time>2022-03-27T14:54:01Z</time>
      </trkpt>
      <trkpt lat="48.59286" lon="2.04158">
        <ele>140</ele>
        <time>2022-03-27T14:54:05Z</time>
      </trkpt>
      <trkpt lat="48.59292" lon="2.04169">
        <ele>140</ele>
        <time>2022-03-27T14:54:12Z</time>
      </trkpt>
      <trkpt lat="48.59298" lon="2.04183">
        <ele>140</ele>
        <time>2022-03-27T14:54:16Z</time>
      </trkpt>
      <trkpt lat="48.59306" lon="2.04194">
        <ele>141</ele>
        <time>2022-03-27T14:54:21Z</time>
      </trkpt>
      <trkpt lat="48.59311" lon="2.04206">
        <ele>141</ele>
        <time>2022-03-27T14:54:24Z</time>
      </trkpt>
      <trkpt lat="48.59313" lon="2.0422">
        <ele>142</ele>
        <time>2022-03-27T14:54:28Z</time>
      </trkpt>
      <trkpt lat="48.59313" lon="2.04223">
        <ele>143</ele>
        <time>2022-03-27T14:54:29Z</time>
      </trkpt>
      <trkpt lat="48.59313" lon="2.04227">
        <ele>143</ele>
        <time>2022-03-27T14:54:31Z</time>
      </trkpt>
      <trkpt lat="48.59314" lon="2.04231">
        <ele>144</ele>
        <time>2022-03-27T14:54:33Z</time>
      </trkpt>
      <trkpt lat="48.59315" lon="2.04233">
        <ele>144</ele>
        <time>2022-03-27T14:54:35Z</time>
      </trkpt>
      <trkpt lat="48.59315" lon="2.04236">
        <ele>144</ele>
        <time>2022-03-27T14:54:38Z</time>
      </trkpt>
      <trkpt lat="48.59316" lon="2.04239">
        <ele>144</ele>
        <time>2022-03-27T14:54:40Z</time>
      </trkpt>
      <trkpt lat="48.59317" lon="2.04243">
        <ele>144</ele>
        <time>2022-03-27T14:54:43Z</time>
      </trkpt>
      <trkpt lat="48.5932" lon="2.04249">
        <ele>145</ele>
        <time>2022-03-27T14:54:46Z</time>
      </trkpt>
      <trkpt lat="48.59322" lon="2.04253">
        <ele>145</ele>
        <time>2022-03-27T14:54:48Z</time>
      </trkpt>
      <trkpt lat="48.59323" lon="2.04256">
        <ele>146</ele>
        <time>2022-03-27T14:54:50Z</time>
      </trkpt>
      <trkpt lat="48.59325" lon="2.0426">
        <ele>146</ele>
        <time>2022-03-27T14:54:55Z</time>
      </trkpt>
      <trkpt lat="48.5933" lon="2.04274">
        <ele>147</ele>
        <time>2022-03-27T14:55:00Z</time>
      </trkpt>
      <trkpt lat="48.59332" lon="2.04289">
        <ele>149</ele>
        <time>2022-03-27T14:55:05Z</time>
      </trkpt>
      <trkpt lat="48.59334" lon="2.04299">
        <ele>151</ele>
        <time>2022-03-27T14:55:09Z</time>
      </trkpt>
      <trkpt lat="48.59335" lon="2.04303">
        <ele>151</ele>
        <time>2022-03-27T14:55:11Z</time>
      </trkpt>
      <trkpt lat="48.59337" lon="2.04307">
        <ele>152</ele>
        <time>2022-03-27T14:55:13Z</time>
      </trkpt>
      <trkpt lat="48.59338" lon="2.04309">
        <ele>152</ele>
        <time>2022-03-27T14:55:14Z</time>
      </trkpt>
      <trkpt lat="48.5934" lon="2.04311">
        <ele>152</ele>
        <time>2022-03-27T14:55:16Z</time>
      </trkpt>
      <trkpt lat="48.59343" lon="2.04318">
        <ele>153</ele>
        <time>2022-03-27T14:55:20Z</time>
      </trkpt>
      <trkpt lat="48.59345" lon="2.04324">
        <ele>154</ele>
        <time>2022-03-27T14:55:23Z</time>
      </trkpt>
      <trkpt lat="48.59348" lon="2.04335">
        <ele>155</ele>
        <time>2022-03-27T14:55:27Z</time>
      </trkpt>
      <trkpt lat="48.59349" lon="2.04337">
        <ele>155</ele>
        <time>2022-03-27T14:55:28Z</time>
      </trkpt>
      <trkpt lat="48.59351" lon="2.0434">
        <ele>155</ele>
        <time>2022-03-27T14:55:30Z</time>
      </trkpt>
      <trkpt lat="48.59353" lon="2.04343">
        <ele>156</ele>
        <time>2022-03-27T14:55:32Z</time>
      </trkpt>
      <trkpt lat="48.59355" lon="2.04346">
        <ele>156</ele>
        <time>2022-03-27T14:55:34Z</time>
      </trkpt>
      <trkpt lat="48.59356" lon="2.04351">
        <ele>156</ele>
        <time>2022-03-27T14:55:36Z</time>
      </trkpt>
      <trkpt lat="48.59357" lon="2.04353">
        <ele>156</ele>
        <time>2022-03-27T14:55:37Z</time>
      </trkpt>
      <trkpt lat="48.59359" lon="2.04358">
        <ele>156</ele>
        <time>2022-03-27T14:55:39Z</time>
      </trkpt>
      <trkpt lat="48.5936" lon="2.04361">
        <ele>156</ele>
        <time>2022-03-27T14:55:41Z</time>
      </trkpt>
      <trkpt lat="48.59361" lon="2.04365">
        <ele>156</ele>
        <time>2022-03-27T14:55:43Z</time>
      </trkpt>
      <trkpt lat="48.59361" lon="2.04368">
        <ele>156</ele>
        <time>2022-03-27T14:55:48Z</time>
      </trkpt>
      <trkpt lat="48.59363" lon="2.04371">
        <ele>157</ele>
        <time>2022-03-27T14:55:52Z</time>
      </trkpt>
      <trkpt lat="48.59364" lon="2.04373">
        <ele>157</ele>
        <time>2022-03-27T14:55:55Z</time>
      </trkpt>
      <trkpt lat="48.59365" lon="2.04376">
        <ele>158</ele>
        <time>2022-03-27T14:55:57Z</time>
      </trkpt>
      <trkpt lat="48.59366" lon="2.04379">
        <ele>158</ele>
        <time>2022-03-27T14:55:58Z</time>
      </trkpt>
      <trkpt lat="48.59368" lon="2.04382">
        <ele>158</ele>
        <time>2022-03-27T14:55:59Z</time>
      </trkpt>
      <trkpt lat="48.59369" lon="2.04385">
        <ele>159</ele>
        <time>2022-03-27T14:56:00Z</time>
      </trkpt>
      <trkpt lat="48.59371" lon="2.04388">
        <ele>159</ele>
        <time>2022-03-27T14:56:01Z</time>
      </trkpt>
      <trkpt lat="48.59372" lon="2.0439">
        <ele>159</ele>
        <time>2022-03-27T14:56:02Z</time>
      </trkpt>
      <trkpt lat="48.59374" lon="2.04394">
        <ele>159</ele>
        <time>2022-03-27T14:56:04Z</time>
      </trkpt>
      <trkpt lat="48.59375" lon="2.04396">
        <ele>160</ele>
        <time>2022-03-27T14:56:06Z</time>
      </trkpt>
      <trkpt lat="48.59378" lon="2.04399">
        <ele>160</ele>
        <time>2022-03-27T14:56:08Z</time>
      </trkpt>
      <trkpt lat="48.59379" lon="2.04401">
        <ele>161</ele>
        <time>2022-03-27T14:56:09Z</time>
      </trkpt>
      <trkpt lat="48.59381" lon="2.04404">
        <ele>161</ele>
        <time>2022-03-27T14:56:10Z</time>
      </trkpt>
      <trkpt lat="48.59382" lon="2.04406">
        <ele>161</ele>
        <time>2022-03-27T14:56:11Z</time>
      </trkpt>
      <trkpt lat="48.59384" lon="2.04409">
        <ele>161</ele>
        <time>2022-03-27T14:56:12Z</time>
      </trkpt>
      <trkpt lat="48.59385" lon="2.04411">
        <ele>161</ele>
        <time>2022-03-27T14:56:13Z</time>
      </trkpt>
      <trkpt lat="48.59387" lon="2.04413">
        <ele>160</ele>
        <time>2022-03-27T14:56:14Z</time>
      </trkpt>
      <trkpt lat="48.59389" lon="2.04415">
        <ele>161</ele>
        <time>2022-03-27T14:56:15Z</time>
      </trkpt>
      <trkpt lat="48.5939" lon="2.04417">
        <ele>161</ele>
        <time>2022-03-27T14:56:16Z</time>
      </trkpt>
      <trkpt lat="48.59392" lon="2.0442">
        <ele>161</ele>
        <time>2022-03-27T14:56:18Z</time>
      </trkpt>
      <trkpt lat="48.59394" lon="2.04423">
        <ele>162</ele>
        <time>2022-03-27T14:56:20Z</time>
      </trkpt>
      <trkpt lat="48.59396" lon="2.04425">
        <ele>162</ele>
        <time>2022-03-27T14:56:22Z</time>
      </trkpt>
      <trkpt lat="48.59399" lon="2.04427">
        <ele>162</ele>
        <time>2022-03-27T14:56:24Z</time>
      </trkpt>
      <trkpt lat="48.594" lon="2.0443">
        <ele>163</ele>
        <time>2022-03-27T14:56:26Z</time>
      </trkpt>
      <trkpt lat="48.59402" lon="2.04433">
        <ele>163</ele>
        <time>2022-03-27T14:56:28Z</time>
      </trkpt>
      <trkpt lat="48.59404" lon="2.04436">
        <ele>164</ele>
        <time>2022-03-27T14:56:30Z</time>
      </trkpt>
      <trkpt lat="48.59406" lon="2.04439">
        <ele>164</ele>
        <time>2022-03-27T14:56:32Z</time>
      </trkpt>
      <trkpt lat="48.59408" lon="2.04442">
        <ele>164</ele>
        <time>2022-03-27T14:56:34Z</time>
      </trkpt>
      <trkpt lat="48.59411" lon="2.04444">
        <ele>165</ele>
        <time>2022-03-27T14:56:36Z</time>
      </trkpt>
      <trkpt lat="48.59413" lon="2.04447">
        <ele>165</ele>
        <time>2022-03-27T14:56:38Z</time>
      </trkpt>
      <trkpt lat="48.59415" lon="2.04451">
        <ele>165</ele>
        <time>2022-03-27T14:56:40Z</time>
      </trkpt>
      <trkpt lat="48.59416" lon="2.04453">
        <ele>165</ele>
        <time>2022-03-27T14:56:42Z</time>
      </trkpt>
      <trkpt lat="48.59419" lon="2.04457">
        <ele>166</ele>
        <time>2022-03-27T14:56:44Z</time>
      </trkpt>
      <trkpt lat="48.59422" lon="2.04461">
        <ele>166</ele>
        <time>2022-03-27T14:56:46Z</time>
      </trkpt>
      <trkpt lat="48.59423" lon="2.04463">
        <ele>165</ele>
        <time>2022-03-27T14:56:47Z</time>
      </trkpt>
      <trkpt lat="48.59426" lon="2.04466">
        <ele>166</ele>
        <time>2022-03-27T14:56:49Z</time>
      </trkpt>
      <trkpt lat="48.59427" lon="2.0447">
        <ele>166</ele>
        <time>2022-03-27T14:56:51Z</time>
      </trkpt>
      <trkpt lat="48.59429" lon="2.04473">
        <ele>166</ele>
        <time>2022-03-27T14:56:53Z</time>
      </trkpt>
      <trkpt lat="48.59431" lon="2.04476">
        <ele>166</ele>
        <time>2022-03-27T14:56:55Z</time>
      </trkpt>
      <trkpt lat="48.59433" lon="2.04478">
        <ele>167</ele>
        <time>2022-03-27T14:56:57Z</time>
      </trkpt>
      <trkpt lat="48.59434" lon="2.04481">
        <ele>167</ele>
        <time>2022-03-27T14:56:59Z</time>
      </trkpt>
      <trkpt lat="48.59436" lon="2.04484">
        <ele>168</ele>
        <time>2022-03-27T14:57:01Z</time>
      </trkpt>
      <trkpt lat="48.59438" lon="2.04487">
        <ele>168</ele>
        <time>2022-03-27T14:57:02Z</time>
      </trkpt>
      <trkpt lat="48.59439" lon="2.04491">
        <ele>168</ele>
        <time>2022-03-27T14:57:04Z</time>
      </trkpt>
      <trkpt lat="48.59442" lon="2.04494">
        <ele>167</ele>
        <time>2022-03-27T14:57:06Z</time>
      </trkpt>
      <trkpt lat="48.59444" lon="2.04497">
        <ele>168</ele>
        <time>2022-03-27T14:57:08Z</time>
      </trkpt>
      <trkpt lat="48.59449" lon="2.04509">
        <ele>169</ele>
        <time>2022-03-27T14:57:13Z</time>
      </trkpt>
      <trkpt lat="48.59456" lon="2.04514">
        <ele>170</ele>
        <time>2022-03-27T14:57:18Z</time>
      </trkpt>
      <trkpt lat="48.59457" lon="2.04516">
        <ele>171</ele>
        <time>2022-03-27T14:57:20Z</time>
      </trkpt>
      <trkpt lat="48.59459" lon="2.0452">
        <ele>171</ele>
        <time>2022-03-27T14:57:25Z</time>
      </trkpt>
      <trkpt lat="48.59461" lon="2.04524">
        <ele>171</ele>
        <time>2022-03-27T14:57:26Z</time>
      </trkpt>
      <trkpt lat="48.59466" lon="2.04534">
        <ele>170</ele>
        <time>2022-03-27T14:57:29Z</time>
      </trkpt>
      <trkpt lat="48.5947" lon="2.04543">
        <ele>170</ele>
        <time>2022-03-27T14:57:32Z</time>
      </trkpt>
      <trkpt lat="48.59471" lon="2.04546">
        <ele>170</ele>
        <time>2022-03-27T14:57:34Z</time>
      </trkpt>
      <trkpt lat="48.59475" lon="2.0455">
        <ele>170</ele>
        <time>2022-03-27T14:57:37Z</time>
      </trkpt>
      <trkpt lat="48.59477" lon="2.04552">
        <ele>171</ele>
        <time>2022-03-27T14:57:38Z</time>
      </trkpt>
      <trkpt lat="48.59479" lon="2.04554">
        <ele>171</ele>
        <time>2022-03-27T14:57:40Z</time>
      </trkpt>
      <trkpt lat="48.59481" lon="2.04557">
        <ele>171</ele>
        <time>2022-03-27T14:57:42Z</time>
      </trkpt>
      <trkpt lat="48.59482" lon="2.04559">
        <ele>171</ele>
        <time>2022-03-27T14:57:43Z</time>
      </trkpt>
      <trkpt lat="48.59484" lon="2.04561">
        <ele>171</ele>
        <time>2022-03-27T14:57:44Z</time>
      </trkpt>
      <trkpt lat="48.59485" lon="2.04563">
        <ele>170</ele>
        <time>2022-03-27T14:57:45Z</time>
      </trkpt>
      <trkpt lat="48.59487" lon="2.04567">
        <ele>170</ele>
        <time>2022-03-27T14:57:47Z</time>
      </trkpt>
      <trkpt lat="48.59488" lon="2.04571">
        <ele>170</ele>
        <time>2022-03-27T14:57:49Z</time>
      </trkpt>
      <trkpt lat="48.59488" lon="2.04574">
        <ele>170</ele>
        <time>2022-03-27T14:57:51Z</time>
      </trkpt>
      <trkpt lat="48.59488" lon="2.04577">
        <ele>170</ele>
        <time>2022-03-27T14:57:55Z</time>
      </trkpt>
      <trkpt lat="48.5949" lon="2.04578">
        <ele>171</ele>
        <time>2022-03-27T14:58:01Z</time>
      </trkpt>
      <trkpt lat="48.59489" lon="2.04575">
        <ele>172</ele>
        <time>2022-03-27T14:58:05Z</time>
      </trkpt>
      <trkpt lat="48.5949" lon="2.04578">
        <ele>172</ele>
        <time>2022-03-27T14:58:08Z</time>
      </trkpt>
      <trkpt lat="48.59491" lon="2.04581">
        <ele>172</ele>
        <time>2022-03-27T14:58:12Z</time>
      </trkpt>
      <trkpt lat="48.5949" lon="2.04589">
        <ele>171</ele>
        <time>2022-03-27T14:58:15Z</time>
      </trkpt>
      <trkpt lat="48.59491" lon="2.04591">
        <ele>170</ele>
        <time>2022-03-27T14:58:17Z</time>
      </trkpt>
      <trkpt lat="48.59494" lon="2.04594">
        <ele>170</ele>
        <time>2022-03-27T14:58:19Z</time>
      </trkpt>
      <trkpt lat="48.59496" lon="2.04595">
        <ele>170</ele>
        <time>2022-03-27T14:58:22Z</time>
      </trkpt>
      <trkpt lat="48.59499" lon="2.04596">
        <ele>170</ele>
        <time>2022-03-27T14:58:26Z</time>
      </trkpt>
      <trkpt lat="48.59501" lon="2.04597">
        <ele>170</ele>
        <time>2022-03-27T14:58:28Z</time>
      </trkpt>
      <trkpt lat="48.59504" lon="2.04599">
        <ele>170</ele>
        <time>2022-03-27T14:58:30Z</time>
      </trkpt>
      <trkpt lat="48.59506" lon="2.046">
        <ele>170</ele>
        <time>2022-03-27T14:58:32Z</time>
      </trkpt>
      <trkpt lat="48.59509" lon="2.04603">
        <ele>170</ele>
        <time>2022-03-27T14:58:34Z</time>
      </trkpt>
      <trkpt lat="48.59512" lon="2.04608">
        <ele>170</ele>
        <time>2022-03-27T14:58:36Z</time>
      </trkpt>
      <trkpt lat="48.59514" lon="2.0461">
        <ele>170</ele>
        <time>2022-03-27T14:58:37Z</time>
      </trkpt>
      <trkpt lat="48.59515" lon="2.04612">
        <ele>170</ele>
        <time>2022-03-27T14:58:38Z</time>
      </trkpt>
      <trkpt lat="48.59517" lon="2.04615">
        <ele>170</ele>
        <time>2022-03-27T14:58:39Z</time>
      </trkpt>
      <trkpt lat="48.59518" lon="2.04616">
        <ele>170</ele>
        <time>2022-03-27T14:58:40Z</time>
      </trkpt>
      <trkpt lat="48.59521" lon="2.0462">
        <ele>170</ele>
        <time>2022-03-27T14:58:42Z</time>
      </trkpt>
      <trkpt lat="48.59521" lon="2.04624">
        <ele>170</ele>
        <time>2022-03-27T14:58:44Z</time>
      </trkpt>
      <trkpt lat="48.59523" lon="2.04628">
        <ele>171</ele>
        <time>2022-03-27T14:58:46Z</time>
      </trkpt>
      <trkpt lat="48.59524" lon="2.0463">
        <ele>171</ele>
        <time>2022-03-27T14:58:47Z</time>
      </trkpt>
      <trkpt lat="48.59525" lon="2.04635">
        <ele>171</ele>
        <time>2022-03-27T14:58:49Z</time>
      </trkpt>
      <trkpt lat="48.59526" lon="2.0464">
        <ele>171</ele>
        <time>2022-03-27T14:58:51Z</time>
      </trkpt>
      <trkpt lat="48.59526" lon="2.04643">
        <ele>171</ele>
        <time>2022-03-27T14:58:53Z</time>
      </trkpt>
      <trkpt lat="48.59528" lon="2.04647">
        <ele>171</ele>
        <time>2022-03-27T14:58:55Z</time>
      </trkpt>
      <trkpt lat="48.5953" lon="2.04651">
        <ele>171</ele>
        <time>2022-03-27T14:58:57Z</time>
      </trkpt>
      <trkpt lat="48.59532" lon="2.04655">
        <ele>171</ele>
        <time>2022-03-27T14:58:59Z</time>
      </trkpt>
      <trkpt lat="48.59534" lon="2.04658">
        <ele>171</ele>
        <time>2022-03-27T14:59:01Z</time>
      </trkpt>
      <trkpt lat="48.59535" lon="2.04662">
        <ele>172</ele>
        <time>2022-03-27T14:59:03Z</time>
      </trkpt>
      <trkpt lat="48.59537" lon="2.04666">
        <ele>172</ele>
        <time>2022-03-27T14:59:05Z</time>
      </trkpt>
      <trkpt lat="48.59538" lon="2.0467">
        <ele>172</ele>
        <time>2022-03-27T14:59:07Z</time>
      </trkpt>
      <trkpt lat="48.5954" lon="2.04674">
        <ele>172</ele>
        <time>2022-03-27T14:59:09Z</time>
      </trkpt>
      <trkpt lat="48.59541" lon="2.04677">
        <ele>172</ele>
        <time>2022-03-27T14:59:11Z</time>
      </trkpt>
      <trkpt lat="48.59542" lon="2.0468">
        <ele>172</ele>
        <time>2022-03-27T14:59:13Z</time>
      </trkpt>
      <trkpt lat="48.59544" lon="2.04683">
        <ele>172</ele>
        <time>2022-03-27T14:59:15Z</time>
      </trkpt>
      <trkpt lat="48.59546" lon="2.04687">
        <ele>172</ele>
        <time>2022-03-27T14:59:17Z</time>
      </trkpt>
      <trkpt lat="48.59548" lon="2.04691">
        <ele>172</ele>
        <time>2022-03-27T14:59:19Z</time>
      </trkpt>
      <trkpt lat="48.59549" lon="2.04694">
        <ele>172</ele>
        <time>2022-03-27T14:59:21Z</time>
      </trkpt>
      <trkpt lat="48.59551" lon="2.04698">
        <ele>172</ele>
        <time>2022-03-27T14:59:23Z</time>
      </trkpt>
      <trkpt lat="48.59553" lon="2.04701">
        <ele>172</ele>
        <time>2022-03-27T14:59:25Z</time>
      </trkpt>
      <trkpt lat="48.59554" lon="2.04704">
        <ele>173</ele>
        <time>2022-03-27T14:59:27Z</time>
      </trkpt>
      <trkpt lat="48.59556" lon="2.04708">
        <ele>173</ele>
        <time>2022-03-27T14:59:29Z</time>
      </trkpt>
      <trkpt lat="48.59558" lon="2.04711">
        <ele>173</ele>
        <time>2022-03-27T14:59:31Z</time>
      </trkpt>
      <trkpt lat="48.59561" lon="2.04714">
        <ele>173</ele>
        <time>2022-03-27T14:59:33Z</time>
      </trkpt>
      <trkpt lat="48.59562" lon="2.04718">
        <ele>173</ele>
        <time>2022-03-27T14:59:35Z</time>
      </trkpt>
      <trkpt lat="48.59564" lon="2.04721">
        <ele>173</ele>
        <time>2022-03-27T14:59:37Z</time>
      </trkpt>
      <trkpt lat="48.59566" lon="2.04723">
        <ele>174</ele>
        <time>2022-03-27T14:59:40Z</time>
      </trkpt>
      <trkpt lat="48.59568" lon="2.04721">
        <ele>173</ele>
        <time>2022-03-27T14:59:43Z</time>
      </trkpt>
      <trkpt lat="48.5957" lon="2.04721">
        <ele>173</ele>
        <time>2022-03-27T14:59:45Z</time>
      </trkpt>
      <trkpt lat="48.59572" lon="2.04722">
        <ele>173</ele>
        <time>2022-03-27T14:59:47Z</time>
      </trkpt>
      <trkpt lat="48.59575" lon="2.04724">
        <ele>172</ele>
        <time>2022-03-27T14:59:49Z</time>
      </trkpt>
      <trkpt lat="48.59577" lon="2.04726">
        <ele>172</ele>
        <time>2022-03-27T14:59:51Z</time>
      </trkpt>
      <trkpt lat="48.59579" lon="2.04727">
        <ele>172</ele>
        <time>2022-03-27T14:59:52Z</time>
      </trkpt>
      <trkpt lat="48.59582" lon="2.04729">
        <ele>172</ele>
        <time>2022-03-27T14:59:54Z</time>
      </trkpt>
      <trkpt lat="48.59586" lon="2.04731">
        <ele>172</ele>
        <time>2022-03-27T14:59:56Z</time>
      </trkpt>
      <trkpt lat="48.59589" lon="2.04735">
        <ele>172</ele>
        <time>2022-03-27T14:59:59Z</time>
      </trkpt>
      <trkpt lat="48.59592" lon="2.04737">
        <ele>171</ele>
        <time>2022-03-27T15:00:00Z</time>
      </trkpt>
      <trkpt lat="48.59595" lon="2.0474">
        <ele>171</ele>
        <time>2022-03-27T15:00:03Z</time>
      </trkpt>
      <trkpt lat="48.59597" lon="2.04742">
        <ele>171</ele>
        <time>2022-03-27T15:00:04Z</time>
      </trkpt>
      <trkpt lat="48.59599" lon="2.04744">
        <ele>171</ele>
        <time>2022-03-27T15:00:05Z</time>
      </trkpt>
      <trkpt lat="48.596" lon="2.04745">
        <ele>171</ele>
        <time>2022-03-27T15:00:06Z</time>
      </trkpt>
      <trkpt lat="48.59604" lon="2.0475">
        <ele>171</ele>
        <time>2022-03-27T15:00:09Z</time>
      </trkpt>
      <trkpt lat="48.59607" lon="2.04753">
        <ele>171</ele>
        <time>2022-03-27T15:00:11Z</time>
      </trkpt>
      <trkpt lat="48.5961" lon="2.04754">
        <ele>171</ele>
        <time>2022-03-27T15:00:13Z</time>
      </trkpt>
      <trkpt lat="48.59614" lon="2.04754">
        <ele>172</ele>
        <time>2022-03-27T15:00:15Z</time>
      </trkpt>
      <trkpt lat="48.59617" lon="2.04755">
        <ele>172</ele>
        <time>2022-03-27T15:00:17Z</time>
      </trkpt>
      <trkpt lat="48.5962" lon="2.04757">
        <ele>172</ele>
        <time>2022-03-27T15:00:19Z</time>
      </trkpt>
      <trkpt lat="48.59623" lon="2.04759">
        <ele>172</ele>
        <time>2022-03-27T15:00:20Z</time>
      </trkpt>
      <trkpt lat="48.59625" lon="2.04761">
        <ele>171</ele>
        <time>2022-03-27T15:00:21Z</time>
      </trkpt>
      <trkpt lat="48.59628" lon="2.04762">
        <ele>170</ele>
        <time>2022-03-27T15:00:23Z</time>
      </trkpt>
      <trkpt lat="48.59631" lon="2.04763">
        <ele>170</ele>
        <time>2022-03-27T15:00:25Z</time>
      </trkpt>
      <trkpt lat="48.59633" lon="2.04763">
        <ele>170</ele>
        <time>2022-03-27T15:00:26Z</time>
      </trkpt>
      <trkpt lat="48.59636" lon="2.04765">
        <ele>170</ele>
        <time>2022-03-27T15:00:28Z</time>
      </trkpt>
      <trkpt lat="48.59638" lon="2.04766">
        <ele>170</ele>
        <time>2022-03-27T15:00:30Z</time>
      </trkpt>
      <trkpt lat="48.59641" lon="2.04768">
        <ele>170</ele>
        <time>2022-03-27T15:00:32Z</time>
      </trkpt>
      <trkpt lat="48.59643" lon="2.0477">
        <ele>169</ele>
        <time>2022-03-27T15:00:34Z</time>
      </trkpt>
      <trkpt lat="48.59645" lon="2.04771">
        <ele>169</ele>
        <time>2022-03-27T15:00:35Z</time>
      </trkpt>
      <trkpt lat="48.59647" lon="2.04773">
        <ele>169</ele>
        <time>2022-03-27T15:00:36Z</time>
      </trkpt>
      <trkpt lat="48.59648" lon="2.04774">
        <ele>169</ele>
        <time>2022-03-27T15:00:37Z</time>
      </trkpt>
      <trkpt lat="48.59651" lon="2.04775">
        <ele>168</ele>
        <time>2022-03-27T15:00:39Z</time>
      </trkpt>
      <trkpt lat="48.59653" lon="2.04776">
        <ele>168</ele>
        <time>2022-03-27T15:00:41Z</time>
      </trkpt>
      <trkpt lat="48.59656" lon="2.04778">
        <ele>169</ele>
        <time>2022-03-27T15:00:43Z</time>
      </trkpt>
      <trkpt lat="48.59658" lon="2.04779">
        <ele>169</ele>
        <time>2022-03-27T15:00:45Z</time>
      </trkpt>
      <trkpt lat="48.59661" lon="2.0478">
        <ele>169</ele>
        <time>2022-03-27T15:00:47Z</time>
      </trkpt>
      <trkpt lat="48.59663" lon="2.04782">
        <ele>168</ele>
        <time>2022-03-27T15:00:49Z</time>
      </trkpt>
      <trkpt lat="48.59666" lon="2.04784">
        <ele>168</ele>
        <time>2022-03-27T15:00:51Z</time>
      </trkpt>
      <trkpt lat="48.59668" lon="2.04786">
        <ele>168</ele>
        <time>2022-03-27T15:00:53Z</time>
      </trkpt>
      <trkpt lat="48.59671" lon="2.04787">
        <ele>168</ele>
        <time>2022-03-27T15:00:55Z</time>
      </trkpt>
      <trkpt lat="48.59673" lon="2.04789">
        <ele>168</ele>
        <time>2022-03-27T15:00:58Z</time>
      </trkpt>
      <trkpt lat="48.59675" lon="2.0479">
        <ele>167</ele>
        <time>2022-03-27T15:01:00Z</time>
      </trkpt>
      <trkpt lat="48.59677" lon="2.04791">
        <ele>167</ele>
        <time>2022-03-27T15:01:02Z</time>
      </trkpt>
      <trkpt lat="48.59679" lon="2.04792">
        <ele>167</ele>
        <time>2022-03-27T15:01:04Z</time>
      </trkpt>
      <trkpt lat="48.59681" lon="2.04794">
        <ele>167</ele>
        <time>2022-03-27T15:01:06Z</time>
      </trkpt>
      <trkpt lat="48.5969" lon="2.04803">
        <ele>167</ele>
        <time>2022-03-27T15:01:11Z</time>
      </trkpt>
      <trkpt lat="48.597" lon="2.04809">
        <ele>166</ele>
        <time>2022-03-27T15:01:17Z</time>
      </trkpt>
      <trkpt lat="48.59709" lon="2.04814">
        <ele>165</ele>
        <time>2022-03-27T15:01:23Z</time>
      </trkpt>
      <trkpt lat="48.59712" lon="2.04817">
        <ele>165</ele>
        <time>2022-03-27T15:01:26Z</time>
      </trkpt>
      <trkpt lat="48.59715" lon="2.04818">
        <ele>165</ele>
        <time>2022-03-27T15:01:28Z</time>
      </trkpt>
      <trkpt lat="48.59717" lon="2.0482">
        <ele>165</ele>
        <time>2022-03-27T15:01:30Z</time>
      </trkpt>
      <trkpt lat="48.5972" lon="2.04821">
        <ele>164</ele>
        <time>2022-03-27T15:01:32Z</time>
      </trkpt>
      <trkpt lat="48.59722" lon="2.04823">
        <ele>164</ele>
        <time>2022-03-27T15:01:34Z</time>
      </trkpt>
      <trkpt lat="48.59725" lon="2.04825">
        <ele>163</ele>
        <time>2022-03-27T15:01:36Z</time>
      </trkpt>
      <trkpt lat="48.59728" lon="2.04827">
        <ele>163</ele>
        <time>2022-03-27T15:01:38Z</time>
      </trkpt>
      <trkpt lat="48.5973" lon="2.04829">
        <ele>163</ele>
        <time>2022-03-27T15:01:40Z</time>
      </trkpt>
      <trkpt lat="48.59739" lon="2.04837">
        <ele>163</ele>
        <time>2022-03-27T15:01:45Z</time>
      </trkpt>
      <trkpt lat="48.59749" lon="2.04846">
        <ele>162</ele>
        <time>2022-03-27T15:01:51Z</time>
      </trkpt>
      <trkpt lat="48.59757" lon="2.04852">
        <ele>162</ele>
        <time>2022-03-27T15:01:57Z</time>
      </trkpt>
      <trkpt lat="48.5976" lon="2.04855">
        <ele>161</ele>
        <time>2022-03-27T15:01:59Z</time>
      </trkpt>
      <trkpt lat="48.59762" lon="2.04857">
        <ele>161</ele>
        <time>2022-03-27T15:02:01Z</time>
      </trkpt>
      <trkpt lat="48.59765" lon="2.04859">
        <ele>160</ele>
        <time>2022-03-27T15:02:03Z</time>
      </trkpt>
      <trkpt lat="48.59767" lon="2.0486">
        <ele>160</ele>
        <time>2022-03-27T15:02:04Z</time>
      </trkpt>
      <trkpt lat="48.59769" lon="2.04862">
        <ele>160</ele>
        <time>2022-03-27T15:02:05Z</time>
      </trkpt>
      <trkpt lat="48.59771" lon="2.04864">
        <ele>159</ele>
        <time>2022-03-27T15:02:06Z</time>
      </trkpt>
      <trkpt lat="48.59773" lon="2.04865">
        <ele>158</ele>
        <time>2022-03-27T15:02:07Z</time>
      </trkpt>
      <trkpt lat="48.59775" lon="2.04867">
        <ele>158</ele>
        <time>2022-03-27T15:02:08Z</time>
      </trkpt>
      <trkpt lat="48.59776" lon="2.04868">
        <ele>158</ele>
        <time>2022-03-27T15:02:09Z</time>
      </trkpt>
      <trkpt lat="48.5978" lon="2.04869">
        <ele>157</ele>
        <time>2022-03-27T15:02:11Z</time>
      </trkpt>
      <trkpt lat="48.59781" lon="2.0487">
        <ele>157</ele>
        <time>2022-03-27T15:02:12Z</time>
      </trkpt>
      <trkpt lat="48.59784" lon="2.04872">
        <ele>157</ele>
        <time>2022-03-27T15:02:14Z</time>
      </trkpt>
      <trkpt lat="48.59788" lon="2.04874">
        <ele>157</ele>
        <time>2022-03-27T15:02:16Z</time>
      </trkpt>
      <trkpt lat="48.59791" lon="2.04876">
        <ele>157</ele>
        <time>2022-03-27T15:02:18Z</time>
      </trkpt>
      <trkpt lat="48.59797" lon="2.0488">
        <ele>156</ele>
        <time>2022-03-27T15:02:22Z</time>
      </trkpt>
      <trkpt lat="48.59806" lon="2.04886">
        <ele>155</ele>
        <time>2022-03-27T15:02:27Z</time>
      </trkpt>
      <trkpt lat="48.59814" lon="2.04893">
        <ele>155</ele>
        <time>2022-03-27T15:02:33Z</time>
      </trkpt>
      <trkpt lat="48.59823" lon="2.049">
        <ele>154</ele>
        <time>2022-03-27T15:02:38Z</time>
      </trkpt>
      <trkpt lat="48.5983" lon="2.04908">
        <ele>154</ele>
        <time>2022-03-27T15:02:41Z</time>
      </trkpt>
      <trkpt lat="48.59836" lon="2.04912">
        <ele>153</ele>
        <time>2022-03-27T15:02:46Z</time>
      </trkpt>
      <trkpt lat="48.59839" lon="2.04912">
        <ele>153</ele>
        <time>2022-03-27T15:02:48Z</time>
      </trkpt>
      <trkpt lat="48.59841" lon="2.04912">
        <ele>153</ele>
        <time>2022-03-27T15:02:50Z</time>
      </trkpt>
      <trkpt lat="48.5985" lon="2.04919">
        <ele>153</ele>
        <time>2022-03-27T15:02:56Z</time>
      </trkpt>
      <trkpt lat="48.59859" lon="2.04925">
        <ele>152</ele>
        <time>2022-03-27T15:03:02Z</time>
      </trkpt>
      <trkpt lat="48.59862" lon="2.04926">
        <ele>152</ele>
        <time>2022-03-27T15:03:04Z</time>
      </trkpt>
      <trkpt lat="48.59865" lon="2.04928">
        <ele>152</ele>
        <time>2022-03-27T15:03:06Z</time>
      </trkpt>
      <trkpt lat="48.59874" lon="2.04934">
        <ele>152</ele>
        <time>2022-03-27T15:03:11Z</time>
      </trkpt>
      <trkpt lat="48.59883" lon="2.04939">
        <ele>152</ele>
        <time>2022-03-27T15:03:16Z</time>
      </trkpt>
      <trkpt lat="48.59892" lon="2.04945">
        <ele>152</ele>
        <time>2022-03-27T15:03:22Z</time>
      </trkpt>
      <trkpt lat="48.59901" lon="2.04952">
        <ele>152</ele>
        <time>2022-03-27T15:03:28Z</time>
      </trkpt>
      <trkpt lat="48.59905" lon="2.04954">
        <ele>151</ele>
        <time>2022-03-27T15:03:30Z</time>
      </trkpt>
      <trkpt lat="48.59907" lon="2.04955">
        <ele>151</ele>
        <time>2022-03-27T15:03:31Z</time>
      </trkpt>
      <trkpt lat="48.59911" lon="2.04956">
        <ele>151</ele>
        <time>2022-03-27T15:03:33Z</time>
      </trkpt>
      <trkpt lat="48.59914" lon="2.04957">
        <ele>151</ele>
        <time>2022-03-27T15:03:35Z</time>
      </trkpt>
      <trkpt lat="48.59916" lon="2.04959">
        <ele>151</ele>
        <time>2022-03-27T15:03:37Z</time>
      </trkpt>
      <trkpt lat="48.59917" lon="2.0496">
        <ele>150</ele>
        <time>2022-03-27T15:03:39Z</time>
      </trkpt>
      <trkpt lat="48.59919" lon="2.04961">
        <ele>150</ele>
        <time>2022-03-27T15:03:41Z</time>
      </trkpt>
      <trkpt lat="48.59926" lon="2.04968">
        <ele>150</ele>
        <time>2022-03-27T15:03:45Z</time>
      </trkpt>
      <trkpt lat="48.59928" lon="2.0497">
        <ele>149</ele>
        <time>2022-03-27T15:03:46Z</time>
      </trkpt>
      <trkpt lat="48.59931" lon="2.04971">
        <ele>149</ele>
        <time>2022-03-27T15:03:48Z</time>
      </trkpt>
      <trkpt lat="48.59934" lon="2.04973">
        <ele>149</ele>
        <time>2022-03-27T15:03:50Z</time>
      </trkpt>
      <trkpt lat="48.59936" lon="2.04974">
        <ele>149</ele>
        <time>2022-03-27T15:03:51Z</time>
      </trkpt>
      <trkpt lat="48.59938" lon="2.04975">
        <ele>149</ele>
        <time>2022-03-27T15:03:52Z</time>
      </trkpt>
      <trkpt lat="48.5994" lon="2.04976">
        <ele>149</ele>
        <time>2022-03-27T15:03:53Z</time>
      </trkpt>
      <trkpt lat="48.59943" lon="2.04978">
        <ele>149</ele>
        <time>2022-03-27T15:03:54Z</time>
      </trkpt>
      <trkpt lat="48.59945" lon="2.04979">
        <ele>149</ele>
        <time>2022-03-27T15:03:55Z</time>
      </trkpt>
      <trkpt lat="48.59947" lon="2.0498">
        <ele>149</ele>
        <time>2022-03-27T15:03:56Z</time>
      </trkpt>
      <trkpt lat="48.59949" lon="2.04981">
        <ele>149</ele>
        <time>2022-03-27T15:03:57Z</time>
      </trkpt>
      <trkpt lat="48.59951" lon="2.04983">
        <ele>149</ele>
        <time>2022-03-27T15:03:58Z</time>
      </trkpt>
      <trkpt lat="48.59954" lon="2.04984">
        <ele>149</ele>
        <time>2022-03-27T15:03:59Z</time>
      </trkpt>
      <trkpt lat="48.59955" lon="2.04986">
        <ele>148</ele>
        <time>2022-03-27T15:04:00Z</time>
      </trkpt>
      <trkpt lat="48.59957" lon="2.04988">
        <ele>149</ele>
        <time>2022-03-27T15:04:02Z</time>
      </trkpt>
      <trkpt lat="48.59959" lon="2.04991">
        <ele>149</ele>
        <time>2022-03-27T15:04:04Z</time>
      </trkpt>
      <trkpt lat="48.59961" lon="2.04994">
        <ele>148</ele>
        <time>2022-03-27T15:04:06Z</time>
      </trkpt>
      <trkpt lat="48.59963" lon="2.04996">
        <ele>147</ele>
        <time>2022-03-27T15:04:08Z</time>
      </trkpt>
      <trkpt lat="48.59965" lon="2.04998">
        <ele>147</ele>
        <time>2022-03-27T15:04:10Z</time>
      </trkpt>
      <trkpt lat="48.59967" lon="2.05001">
        <ele>146</ele>
        <time>2022-03-27T15:04:12Z</time>
      </trkpt>
      <trkpt lat="48.5997" lon="2.05003">
        <ele>145</ele>
        <time>2022-03-27T15:04:14Z</time>
      </trkpt>
      <trkpt lat="48.59972" lon="2.05005">
        <ele>144</ele>
        <time>2022-03-27T15:04:16Z</time>
      </trkpt>
      <trkpt lat="48.59976" lon="2.05007">
        <ele>144</ele>
        <time>2022-03-27T15:04:18Z</time>
      </trkpt>
      <trkpt lat="48.59979" lon="2.0501">
        <ele>143</ele>
        <time>2022-03-27T15:04:20Z</time>
      </trkpt>
      <trkpt lat="48.59981" lon="2.05012">
        <ele>142</ele>
        <time>2022-03-27T15:04:22Z</time>
      </trkpt>
      <trkpt lat="48.59984" lon="2.05014">
        <ele>142</ele>
        <time>2022-03-27T15:04:24Z</time>
      </trkpt>
      <trkpt lat="48.59987" lon="2.05016">
        <ele>142</ele>
        <time>2022-03-27T15:04:26Z</time>
      </trkpt>
      <trkpt lat="48.5999" lon="2.05019">
        <ele>141</ele>
        <time>2022-03-27T15:04:28Z</time>
      </trkpt>
      <trkpt lat="48.59993" lon="2.05021">
        <ele>141</ele>
        <time>2022-03-27T15:04:30Z</time>
      </trkpt>
      <trkpt lat="48.59996" lon="2.05024">
        <ele>140</ele>
        <time>2022-03-27T15:04:32Z</time>
      </trkpt>
      <trkpt lat="48.59999" lon="2.05026">
        <ele>140</ele>
        <time>2022-03-27T15:04:34Z</time>
      </trkpt>
      <trkpt lat="48.60002" lon="2.05028">
        <ele>139</ele>
        <time>2022-03-27T15:04:36Z</time>
      </trkpt>
      <trkpt lat="48.60003" lon="2.05029">
        <ele>139</ele>
        <time>2022-03-27T15:04:37Z</time>
      </trkpt>
      <trkpt lat="48.60005" lon="2.0503">
        <ele>139</ele>
        <time>2022-03-27T15:04:38Z</time>
      </trkpt>
      <trkpt lat="48.60007" lon="2.05032">
        <ele>139</ele>
        <time>2022-03-27T15:04:39Z</time>
      </trkpt>
      <trkpt lat="48.60009" lon="2.05033">
        <ele>139</ele>
        <time>2022-03-27T15:04:40Z</time>
      </trkpt>
      <trkpt lat="48.60012" lon="2.05034">
        <ele>139</ele>
        <time>2022-03-27T15:04:42Z</time>
      </trkpt>
      <trkpt lat="48.60014" lon="2.05035">
        <ele>139</ele>
        <time>2022-03-27T15:04:43Z</time>
      </trkpt>
      <trkpt lat="48.60016" lon="2.05036">
        <ele>139</ele>
        <time>2022-03-27T15:04:44Z</time>
      </trkpt>
      <trkpt lat="48.60018" lon="2.05037">
        <ele>139</ele>
        <time>2022-03-27T15:04:45Z</time>
      </trkpt>
      <trkpt lat="48.60021" lon="2.05038">
        <ele>139</ele>
        <time>2022-03-27T15:04:47Z</time>
      </trkpt>
      <trkpt lat="48.60024" lon="2.0504">
        <ele>139</ele>
        <time>2022-03-27T15:04:49Z</time>
      </trkpt>
      <trkpt lat="48.60026" lon="2.05042">
        <ele>139</ele>
        <time>2022-03-27T15:04:51Z</time>
      </trkpt>
      <trkpt lat="48.60029" lon="2.05044">
        <ele>139</ele>
        <time>2022-03-27T15:04:53Z</time>
      </trkpt>
      <trkpt lat="48.60031" lon="2.05045">
        <ele>139</ele>
        <time>2022-03-27T15:04:55Z</time>
      </trkpt>
      <trkpt lat="48.60034" lon="2.05047">
        <ele>139</ele>
        <time>2022-03-27T15:04:57Z</time>
      </trkpt>
      <trkpt lat="48.60036" lon="2.05048">
        <ele>139</ele>
        <time>2022-03-27T15:04:58Z</time>
      </trkpt>
      <trkpt lat="48.60039" lon="2.0505">
        <ele>139</ele>
        <time>2022-03-27T15:05:00Z</time>
      </trkpt>
      <trkpt lat="48.60042" lon="2.05053">
        <ele>139</ele>
        <time>2022-03-27T15:05:02Z</time>
      </trkpt>
      <trkpt lat="48.60043" lon="2.05055">
        <ele>138</ele>
        <time>2022-03-27T15:05:03Z</time>
      </trkpt>
      <trkpt lat="48.60046" lon="2.05059">
        <ele>138</ele>
        <time>2022-03-27T15:05:05Z</time>
      </trkpt>
      <trkpt lat="48.60047" lon="2.05061">
        <ele>138</ele>
        <time>2022-03-27T15:05:06Z</time>
      </trkpt>
      <trkpt lat="48.60048" lon="2.05063">
        <ele>138</ele>
        <time>2022-03-27T15:05:07Z</time>
      </trkpt>
      <trkpt lat="48.60051" lon="2.05067">
        <ele>138</ele>
        <time>2022-03-27T15:05:09Z</time>
      </trkpt>
      <trkpt lat="48.60053" lon="2.0507">
        <ele>138</ele>
        <time>2022-03-27T15:05:11Z</time>
      </trkpt>
      <trkpt lat="48.60054" lon="2.05073">
        <ele>138</ele>
        <time>2022-03-27T15:05:12Z</time>
      </trkpt>
      <trkpt lat="48.60055" lon="2.05075">
        <ele>138</ele>
        <time>2022-03-27T15:05:13Z</time>
      </trkpt>
      <trkpt lat="48.60057" lon="2.05077">
        <ele>138</ele>
        <time>2022-03-27T15:05:14Z</time>
      </trkpt>
      <trkpt lat="48.60058" lon="2.05082">
        <ele>138</ele>
        <time>2022-03-27T15:05:16Z</time>
      </trkpt>
      <trkpt lat="48.60059" lon="2.05086">
        <ele>138</ele>
        <time>2022-03-27T15:05:18Z</time>
      </trkpt>
      <trkpt lat="48.6006" lon="2.05089">
        <ele>138</ele>
        <time>2022-03-27T15:05:19Z</time>
      </trkpt>
      <trkpt lat="48.60061" lon="2.05094">
        <ele>138</ele>
        <time>2022-03-27T15:05:21Z</time>
      </trkpt>
      <trkpt lat="48.60063" lon="2.05098">
        <ele>138</ele>
        <time>2022-03-27T15:05:23Z</time>
      </trkpt>
      <trkpt lat="48.60064" lon="2.05103">
        <ele>138</ele>
        <time>2022-03-27T15:05:25Z</time>
      </trkpt>
      <trkpt lat="48.60066" lon="2.05108">
        <ele>138</ele>
        <time>2022-03-27T15:05:27Z</time>
      </trkpt>
      <trkpt lat="48.60067" lon="2.05112">
        <ele>138</ele>
        <time>2022-03-27T15:05:29Z</time>
      </trkpt>
      <trkpt lat="48.60068" lon="2.05115">
        <ele>138</ele>
        <time>2022-03-27T15:05:30Z</time>
      </trkpt>
      <trkpt lat="48.60069" lon="2.0512">
        <ele>138</ele>
        <time>2022-03-27T15:05:32Z</time>
      </trkpt>
      <trkpt lat="48.6007" lon="2.05125">
        <ele>138</ele>
        <time>2022-03-27T15:05:34Z</time>
      </trkpt>
      <trkpt lat="48.60072" lon="2.05129">
        <ele>138</ele>
        <time>2022-03-27T15:05:36Z</time>
      </trkpt>
      <trkpt lat="48.60073" lon="2.05134">
        <ele>138</ele>
        <time>2022-03-27T15:05:38Z</time>
      </trkpt>
      <trkpt lat="48.60074" lon="2.05136">
        <ele>138</ele>
        <time>2022-03-27T15:05:39Z</time>
      </trkpt>
      <trkpt lat="48.60075" lon="2.05141">
        <ele>138</ele>
        <time>2022-03-27T15:05:41Z</time>
      </trkpt>
      <trkpt lat="48.60076" lon="2.05146">
        <ele>138</ele>
        <time>2022-03-27T15:05:43Z</time>
      </trkpt>
      <trkpt lat="48.60077" lon="2.05151">
        <ele>137</ele>
        <time>2022-03-27T15:05:45Z</time>
      </trkpt>
      <trkpt lat="48.60078" lon="2.05155">
        <ele>137</ele>
        <time>2022-03-27T15:05:47Z</time>
      </trkpt>
      <trkpt lat="48.60079" lon="2.05159">
        <ele>137</ele>
        <time>2022-03-27T15:05:49Z</time>
      </trkpt>
      <trkpt lat="48.60079" lon="2.05164">
        <ele>137</ele>
        <time>2022-03-27T15:05:51Z</time>
      </trkpt>
      <trkpt lat="48.6008" lon="2.05168">
        <ele>137</ele>
        <time>2022-03-27T15:05:53Z</time>
      </trkpt>
      <trkpt lat="48.60081" lon="2.05172">
        <ele>137</ele>
        <time>2022-03-27T15:05:55Z</time>
      </trkpt>
      <trkpt lat="48.60082" lon="2.05175">
        <ele>137</ele>
        <time>2022-03-27T15:05:56Z</time>
      </trkpt>
      <trkpt lat="48.60083" lon="2.0518">
        <ele>137</ele>
        <time>2022-03-27T15:05:58Z</time>
      </trkpt>
      <trkpt lat="48.60084" lon="2.05185">
        <ele>137</ele>
        <time>2022-03-27T15:06:00Z</time>
      </trkpt>
      <trkpt lat="48.60085" lon="2.05189">
        <ele>136</ele>
        <time>2022-03-27T15:06:02Z</time>
      </trkpt>
      <trkpt lat="48.60087" lon="2.05194">
        <ele>136</ele>
        <time>2022-03-27T15:06:04Z</time>
      </trkpt>
      <trkpt lat="48.60088" lon="2.05199">
        <ele>136</ele>
        <time>2022-03-27T15:06:06Z</time>
      </trkpt>
      <trkpt lat="48.60088" lon="2.05204">
        <ele>136</ele>
        <time>2022-03-27T15:06:08Z</time>
      </trkpt>
      <trkpt lat="48.60089" lon="2.05206">
        <ele>136</ele>
        <time>2022-03-27T15:06:09Z</time>
      </trkpt>
      <trkpt lat="48.6009" lon="2.0521">
        <ele>136</ele>
        <time>2022-03-27T15:06:11Z</time>
      </trkpt>
      <trkpt lat="48.60091" lon="2.05213">
        <ele>136</ele>
        <time>2022-03-27T15:06:12Z</time>
      </trkpt>
      <trkpt lat="48.60092" lon="2.05216">
        <ele>136</ele>
        <time>2022-03-27T15:06:13Z</time>
      </trkpt>
      <trkpt lat="48.60093" lon="2.05221">
        <ele>136</ele>
        <time>2022-03-27T15:06:15Z</time>
      </trkpt>
      <trkpt lat="48.60094" lon="2.05226">
        <ele>136</ele>
        <time>2022-03-27T15:06:17Z</time>
      </trkpt>
      <trkpt lat="48.60094" lon="2.05229">
        <ele>136</ele>
        <time>2022-03-27T15:06:18Z</time>
      </trkpt>
      <trkpt lat="48.60095" lon="2.05232">
        <ele>136</ele>
        <time>2022-03-27T15:06:19Z</time>
      </trkpt>
      <trkpt lat="48.60095" lon="2.05237">
        <ele>135</ele>
        <time>2022-03-27T15:06:21Z</time>
      </trkpt>
      <trkpt lat="48.60097" lon="2.05242">
        <ele>135</ele>
        <time>2022-03-27T15:06:23Z</time>
      </trkpt>
      <trkpt lat="48.60097" lon="2.05244">
        <ele>135</ele>
        <time>2022-03-27T15:06:24Z</time>
      </trkpt>
      <trkpt lat="48.60099" lon="2.05249">
        <ele>135</ele>
        <time>2022-03-27T15:06:26Z</time>
      </trkpt>
      <trkpt lat="48.601" lon="2.05254">
        <ele>135</ele>
        <time>2022-03-27T15:06:28Z</time>
      </trkpt>
      <trkpt lat="48.601" lon="2.05259">
        <ele>134</ele>
        <time>2022-03-27T15:06:30Z</time>
      </trkpt>
      <trkpt lat="48.60101" lon="2.05264">
        <ele>134</ele>
        <time>2022-03-27T15:06:32Z</time>
      </trkpt>
      <trkpt lat="48.60102" lon="2.05268">
        <ele>134</ele>
        <time>2022-03-27T15:06:34Z</time>
      </trkpt>
      <trkpt lat="48.60103" lon="2.05273">
        <ele>134</ele>
        <time>2022-03-27T15:06:36Z</time>
      </trkpt>
      <trkpt lat="48.60104" lon="2.05278">
        <ele>134</ele>
        <time>2022-03-27T15:06:38Z</time>
      </trkpt>
      <trkpt lat="48.60105" lon="2.05283">
        <ele>134</ele>
        <time>2022-03-27T15:06:40Z</time>
      </trkpt>
      <trkpt lat="48.60106" lon="2.05288">
        <ele>134</ele>
        <time>2022-03-27T15:06:42Z</time>
      </trkpt>
      <trkpt lat="48.60107" lon="2.05292">
        <ele>134</ele>
        <time>2022-03-27T15:06:44Z</time>
      </trkpt>
      <trkpt lat="48.60108" lon="2.05295">
        <ele>134</ele>
        <time>2022-03-27T15:06:45Z</time>
      </trkpt>
      <trkpt lat="48.60109" lon="2.05297">
        <ele>134</ele>
        <time>2022-03-27T15:06:46Z</time>
      </trkpt>
      <trkpt lat="48.6011" lon="2.05302">
        <ele>134</ele>
        <time>2022-03-27T15:06:48Z</time>
      </trkpt>
      <trkpt lat="48.60111" lon="2.05306">
        <ele>134</ele>
        <time>2022-03-27T15:06:50Z</time>
      </trkpt>
      <trkpt lat="48.60112" lon="2.05311">
        <ele>134</ele>
        <time>2022-03-27T15:06:52Z</time>
      </trkpt>
      <trkpt lat="48.60113" lon="2.05316">
        <ele>134</ele>
        <time>2022-03-27T15:06:54Z</time>
      </trkpt>
      <trkpt lat="48.60114" lon="2.05321">
        <ele>134</ele>
        <time>2022-03-27T15:06:56Z</time>
      </trkpt>
      <trkpt lat="48.60115" lon="2.05325">
        <ele>134</ele>
        <time>2022-03-27T15:06:58Z</time>
      </trkpt>
      <trkpt lat="48.60116" lon="2.05328">
        <ele>134</ele>
        <time>2022-03-27T15:06:59Z</time>
      </trkpt>
      <trkpt lat="48.60117" lon="2.05331">
        <ele>134</ele>
        <time>2022-03-27T15:07:00Z</time>
      </trkpt>
      <trkpt lat="48.60118" lon="2.05333">
        <ele>134</ele>
        <time>2022-03-27T15:07:01Z</time>
      </trkpt>
      <trkpt lat="48.60119" lon="2.05336">
        <ele>134</ele>
        <time>2022-03-27T15:07:02Z</time>
      </trkpt>
      <trkpt lat="48.6012" lon="2.05339">
        <ele>134</ele>
        <time>2022-03-27T15:07:03Z</time>
      </trkpt>
      <trkpt lat="48.6012" lon="2.05341">
        <ele>134</ele>
        <time>2022-03-27T15:07:04Z</time>
      </trkpt>
      <trkpt lat="48.60121" lon="2.05344">
        <ele>134</ele>
        <time>2022-03-27T15:07:05Z</time>
      </trkpt>
      <trkpt lat="48.60122" lon="2.05346">
        <ele>133</ele>
        <time>2022-03-27T15:07:06Z</time>
      </trkpt>
      <trkpt lat="48.60122" lon="2.05351">
        <ele>133</ele>
        <time>2022-03-27T15:07:08Z</time>
      </trkpt>
      <trkpt lat="48.60123" lon="2.05355">
        <ele>133</ele>
        <time>2022-03-27T15:07:10Z</time>
      </trkpt>
      <trkpt lat="48.60124" lon="2.0536">
        <ele>133</ele>
        <time>2022-03-27T15:07:12Z</time>
      </trkpt>
      <trkpt lat="48.60125" lon="2.05363">
        <ele>133</ele>
        <time>2022-03-27T15:07:13Z</time>
      </trkpt>
      <trkpt lat="48.60125" lon="2.05368">
        <ele>133</ele>
        <time>2022-03-27T15:07:15Z</time>
      </trkpt>
      <trkpt lat="48.60126" lon="2.05373">
        <ele>133</ele>
        <time>2022-03-27T15:07:17Z</time>
      </trkpt>
      <trkpt lat="48.60127" lon="2.05375">
        <ele>133</ele>
        <time>2022-03-27T15:07:18Z</time>
      </trkpt>
      <trkpt lat="48.60127" lon="2.05378">
        <ele>133</ele>
        <time>2022-03-27T15:07:19Z</time>
      </trkpt>
      <trkpt lat="48.60129" lon="2.05383">
        <ele>133</ele>
        <time>2022-03-27T15:07:21Z</time>
      </trkpt>
      <trkpt lat="48.6013" lon="2.05386">
        <ele>133</ele>
        <time>2022-03-27T15:07:22Z</time>
      </trkpt>
      <trkpt lat="48.6013" lon="2.05389">
        <ele>133</ele>
        <time>2022-03-27T15:07:23Z</time>
      </trkpt>
      <trkpt lat="48.60131" lon="2.05392">
        <ele>132</ele>
        <time>2022-03-27T15:07:24Z</time>
      </trkpt>
      <trkpt lat="48.60132" lon="2.05397">
        <ele>132</ele>
        <time>2022-03-27T15:07:26Z</time>
      </trkpt>
      <trkpt lat="48.60132" lon="2.05402">
        <ele>132</ele>
        <time>2022-03-27T15:07:28Z</time>
      </trkpt>
      <trkpt lat="48.60131" lon="2.05405">
        <ele>132</ele>
        <time>2022-03-27T15:07:30Z</time>
      </trkpt>
      <trkpt lat="48.60131" lon="2.05408">
        <ele>132</ele>
        <time>2022-03-27T15:07:31Z</time>
      </trkpt>
      <trkpt lat="48.60132" lon="2.05413">
        <ele>131</ele>
        <time>2022-03-27T15:07:33Z</time>
      </trkpt>
      <trkpt lat="48.60133" lon="2.05417">
        <ele>131</ele>
        <time>2022-03-27T15:07:35Z</time>
      </trkpt>
      <trkpt lat="48.60134" lon="2.05421">
        <ele>131</ele>
        <time>2022-03-27T15:07:37Z</time>
      </trkpt>
      <trkpt lat="48.60135" lon="2.05426">
        <ele>131</ele>
        <time>2022-03-27T15:07:39Z</time>
      </trkpt>
      <trkpt lat="48.60135" lon="2.0543">
        <ele>132</ele>
        <time>2022-03-27T15:07:41Z</time>
      </trkpt>
      <trkpt lat="48.60136" lon="2.05434">
        <ele>132</ele>
        <time>2022-03-27T15:07:43Z</time>
      </trkpt>
      <trkpt lat="48.60137" lon="2.05438">
        <ele>132</ele>
        <time>2022-03-27T15:07:45Z</time>
      </trkpt>
      <trkpt lat="48.60137" lon="2.05442">
        <ele>132</ele>
        <time>2022-03-27T15:07:47Z</time>
      </trkpt>
      <trkpt lat="48.60137" lon="2.05446">
        <ele>132</ele>
        <time>2022-03-27T15:07:49Z</time>
      </trkpt>
      <trkpt lat="48.60139" lon="2.05451">
        <ele>132</ele>
        <time>2022-03-27T15:07:51Z</time>
      </trkpt>
      <trkpt lat="48.60139" lon="2.05454">
        <ele>132</ele>
        <time>2022-03-27T15:07:52Z</time>
      </trkpt>
      <trkpt lat="48.6014" lon="2.05457">
        <ele>132</ele>
        <time>2022-03-27T15:07:53Z</time>
      </trkpt>
      <trkpt lat="48.60142" lon="2.05465">
        <ele>131</ele>
        <time>2022-03-27T15:07:56Z</time>
      </trkpt>
      <trkpt lat="48.60145" lon="2.05479">
        <ele>131</ele>
        <time>2022-03-27T15:08:01Z</time>
      </trkpt>
      <trkpt lat="48.60146" lon="2.05482">
        <ele>131</ele>
        <time>2022-03-27T15:08:02Z</time>
      </trkpt>
      <trkpt lat="48.60147" lon="2.05487">
        <ele>131</ele>
        <time>2022-03-27T15:08:04Z</time>
      </trkpt>
      <trkpt lat="48.60149" lon="2.0549">
        <ele>131</ele>
        <time>2022-03-27T15:08:05Z</time>
      </trkpt>
      <trkpt lat="48.6015" lon="2.05493">
        <ele>131</ele>
        <time>2022-03-27T15:08:06Z</time>
      </trkpt>
      <trkpt lat="48.60151" lon="2.05495">
        <ele>131</ele>
        <time>2022-03-27T15:08:07Z</time>
      </trkpt>
      <trkpt lat="48.60152" lon="2.05498">
        <ele>131</ele>
        <time>2022-03-27T15:08:08Z</time>
      </trkpt>
      <trkpt lat="48.60153" lon="2.055">
        <ele>131</ele>
        <time>2022-03-27T15:08:09Z</time>
      </trkpt>
      <trkpt lat="48.60154" lon="2.05503">
        <ele>131</ele>
        <time>2022-03-27T15:08:10Z</time>
      </trkpt>
      <trkpt lat="48.60155" lon="2.05505">
        <ele>131</ele>
        <time>2022-03-27T15:08:11Z</time>
      </trkpt>
      <trkpt lat="48.60156" lon="2.05508">
        <ele>131</ele>
        <time>2022-03-27T15:08:12Z</time>
      </trkpt>
      <trkpt lat="48.60158" lon="2.05513">
        <ele>131</ele>
        <time>2022-03-27T15:08:14Z</time>
      </trkpt>
      <trkpt lat="48.60159" lon="2.05518">
        <ele>131</ele>
        <time>2022-03-27T15:08:16Z</time>
      </trkpt>
      <trkpt lat="48.60159" lon="2.05523">
        <ele>131</ele>
        <time>2022-03-27T15:08:18Z</time>
      </trkpt>
      <trkpt lat="48.60159" lon="2.05527">
        <ele>131</ele>
        <time>2022-03-27T15:08:20Z</time>
      </trkpt>
      <trkpt lat="48.6016" lon="2.05532">
        <ele>132</ele>
        <time>2022-03-27T15:08:22Z</time>
      </trkpt>
      <trkpt lat="48.6016" lon="2.05536">
        <ele>132</ele>
        <time>2022-03-27T15:08:24Z</time>
      </trkpt>
      <trkpt lat="48.60161" lon="2.0554">
        <ele>132</ele>
        <time>2022-03-27T15:08:26Z</time>
      </trkpt>
      <trkpt lat="48.60162" lon="2.05545">
        <ele>132</ele>
        <time>2022-03-27T15:08:28Z</time>
      </trkpt>
      <trkpt lat="48.60164" lon="2.05548">
        <ele>132</ele>
        <time>2022-03-27T15:08:30Z</time>
      </trkpt>
      <trkpt lat="48.60165" lon="2.05551">
        <ele>131</ele>
        <time>2022-03-27T15:08:32Z</time>
      </trkpt>
      <trkpt lat="48.60165" lon="2.05555">
        <ele>132</ele>
        <time>2022-03-27T15:08:49Z</time>
      </trkpt>
      <trkpt lat="48.60169" lon="2.05558">
        <ele>133</ele>
        <time>2022-03-27T15:08:55Z</time>
      </trkpt>
      <trkpt lat="48.60169" lon="2.0556">
        <ele>133</ele>
        <time>2022-03-27T15:08:57Z</time>
      </trkpt>
      <trkpt lat="48.6017" lon="2.05564">
        <ele>133</ele>
        <time>2022-03-27T15:08:59Z</time>
      </trkpt>
      <trkpt lat="48.60171" lon="2.05567">
        <ele>133</ele>
        <time>2022-03-27T15:09:01Z</time>
      </trkpt>
      <trkpt lat="48.60171" lon="2.0557">
        <ele>134</ele>
        <time>2022-03-27T15:09:03Z</time>
      </trkpt>
      <trkpt lat="48.60172" lon="2.05573">
        <ele>134</ele>
        <time>2022-03-27T15:09:05Z</time>
      </trkpt>
      <trkpt lat="48.60172" lon="2.05577">
        <ele>134</ele>
        <time>2022-03-27T15:09:07Z</time>
      </trkpt>
      <trkpt lat="48.60174" lon="2.05582">
        <ele>134</ele>
        <time>2022-03-27T15:09:09Z</time>
      </trkpt>
      <trkpt lat="48.60175" lon="2.05586">
        <ele>134</ele>
        <time>2022-03-27T15:09:11Z</time>
      </trkpt>
      <trkpt lat="48.60175" lon="2.0559">
        <ele>134</ele>
        <time>2022-03-27T15:09:13Z</time>
      </trkpt>
      <trkpt lat="48.60176" lon="2.05595">
        <ele>134</ele>
        <time>2022-03-27T15:09:15Z</time>
      </trkpt>
      <trkpt lat="48.60177" lon="2.05599">
        <ele>134</ele>
        <time>2022-03-27T15:09:17Z</time>
      </trkpt>
      <trkpt lat="48.60178" lon="2.05603">
        <ele>134</ele>
        <time>2022-03-27T15:09:19Z</time>
      </trkpt>
      <trkpt lat="48.60179" lon="2.05608">
        <ele>134</ele>
        <time>2022-03-27T15:09:21Z</time>
      </trkpt>
      <trkpt lat="48.6018" lon="2.05612">
        <ele>134</ele>
        <time>2022-03-27T15:09:23Z</time>
      </trkpt>
      <trkpt lat="48.6018" lon="2.05617">
        <ele>134</ele>
        <time>2022-03-27T15:09:25Z</time>
      </trkpt>
      <trkpt lat="48.6018" lon="2.05622">
        <ele>134</ele>
        <time>2022-03-27T15:09:27Z</time>
      </trkpt>
      <trkpt lat="48.6018" lon="2.05626">
        <ele>134</ele>
        <time>2022-03-27T15:09:29Z</time>
      </trkpt>
      <trkpt lat="48.60181" lon="2.0563">
        <ele>133</ele>
        <time>2022-03-27T15:09:31Z</time>
      </trkpt>
      <trkpt lat="48.60181" lon="2.05635">
        <ele>133</ele>
        <time>2022-03-27T15:09:33Z</time>
      </trkpt>
      <trkpt lat="48.60182" lon="2.05639">
        <ele>133</ele>
        <time>2022-03-27T15:09:35Z</time>
      </trkpt>
      <trkpt lat="48.60182" lon="2.05644">
        <ele>133</ele>
        <time>2022-03-27T15:09:37Z</time>
      </trkpt>
      <trkpt lat="48.60182" lon="2.05648">
        <ele>133</ele>
        <time>2022-03-27T15:09:39Z</time>
      </trkpt>
      <trkpt lat="48.60183" lon="2.05652">
        <ele>133</ele>
        <time>2022-03-27T15:09:41Z</time>
      </trkpt>
      <trkpt lat="48.60183" lon="2.05657">
        <ele>133</ele>
        <time>2022-03-27T15:09:43Z</time>
      </trkpt>
      <trkpt lat="48.60183" lon="2.05662">
        <ele>133</ele>
        <time>2022-03-27T15:09:45Z</time>
      </trkpt>
      <trkpt lat="48.60184" lon="2.05666">
        <ele>133</ele>
        <time>2022-03-27T15:09:47Z</time>
      </trkpt>
      <trkpt lat="48.60184" lon="2.05671">
        <ele>133</ele>
        <time>2022-03-27T15:09:49Z</time>
      </trkpt>
      <trkpt lat="48.60185" lon="2.05674">
        <ele>133</ele>
        <time>2022-03-27T15:09:50Z</time>
      </trkpt>
      <trkpt lat="48.60186" lon="2.05679">
        <ele>133</ele>
        <time>2022-03-27T15:09:52Z</time>
      </trkpt>
      <trkpt lat="48.60186" lon="2.05683">
        <ele>133</ele>
        <time>2022-03-27T15:09:54Z</time>
      </trkpt>
      <trkpt lat="48.60188" lon="2.0569">
        <ele>133</ele>
        <time>2022-03-27T15:09:57Z</time>
      </trkpt>
      <trkpt lat="48.60188" lon="2.05692">
        <ele>133</ele>
        <time>2022-03-27T15:09:58Z</time>
      </trkpt>
      <trkpt lat="48.60189" lon="2.05695">
        <ele>133</ele>
        <time>2022-03-27T15:09:59Z</time>
      </trkpt>
      <trkpt lat="48.60191" lon="2.05699">
        <ele>133</ele>
        <time>2022-03-27T15:10:01Z</time>
      </trkpt>
      <trkpt lat="48.60192" lon="2.05702">
        <ele>133</ele>
        <time>2022-03-27T15:10:03Z</time>
      </trkpt>
      <trkpt lat="48.60193" lon="2.05705">
        <ele>133</ele>
        <time>2022-03-27T15:10:04Z</time>
      </trkpt>
      <trkpt lat="48.60194" lon="2.05707">
        <ele>133</ele>
        <time>2022-03-27T15:10:05Z</time>
      </trkpt>
      <trkpt lat="48.60195" lon="2.0571">
        <ele>133</ele>
        <time>2022-03-27T15:10:06Z</time>
      </trkpt>
      <trkpt lat="48.60196" lon="2.05714">
        <ele>133</ele>
        <time>2022-03-27T15:10:08Z</time>
      </trkpt>
      <trkpt lat="48.60198" lon="2.05717">
        <ele>133</ele>
        <time>2022-03-27T15:10:10Z</time>
      </trkpt>
      <trkpt lat="48.60199" lon="2.05721">
        <ele>133</ele>
        <time>2022-03-27T15:10:12Z</time>
      </trkpt>
      <trkpt lat="48.602" lon="2.05726">
        <ele>133</ele>
        <time>2022-03-27T15:10:14Z</time>
      </trkpt>
      <trkpt lat="48.60201" lon="2.05731">
        <ele>133</ele>
        <time>2022-03-27T15:10:16Z</time>
      </trkpt>
      <trkpt lat="48.60202" lon="2.05733">
        <ele>133</ele>
        <time>2022-03-27T15:10:17Z</time>
      </trkpt>
      <trkpt lat="48.60203" lon="2.05738">
        <ele>134</ele>
        <time>2022-03-27T15:10:19Z</time>
      </trkpt>
      <trkpt lat="48.60204" lon="2.05742">
        <ele>134</ele>
        <time>2022-03-27T15:10:21Z</time>
      </trkpt>
      <trkpt lat="48.60205" lon="2.05746">
        <ele>134</ele>
        <time>2022-03-27T15:10:23Z</time>
      </trkpt>
      <trkpt lat="48.60205" lon="2.0575">
        <ele>134</ele>
        <time>2022-03-27T15:10:25Z</time>
      </trkpt>
      <trkpt lat="48.60205" lon="2.05754">
        <ele>135</ele>
        <time>2022-03-27T15:10:27Z</time>
      </trkpt>
      <trkpt lat="48.60205" lon="2.05757">
        <ele>135</ele>
        <time>2022-03-27T15:10:29Z</time>
      </trkpt>
      <trkpt lat="48.60205" lon="2.05762">
        <ele>135</ele>
        <time>2022-03-27T15:10:31Z</time>
      </trkpt>
      <trkpt lat="48.60206" lon="2.05766">
        <ele>134</ele>
        <time>2022-03-27T15:10:33Z</time>
      </trkpt>
      <trkpt lat="48.60207" lon="2.05771">
        <ele>134</ele>
        <time>2022-03-27T15:10:35Z</time>
      </trkpt>
      <trkpt lat="48.60207" lon="2.05775">
        <ele>134</ele>
        <time>2022-03-27T15:10:37Z</time>
      </trkpt>
      <trkpt lat="48.60209" lon="2.0578">
        <ele>134</ele>
        <time>2022-03-27T15:10:39Z</time>
      </trkpt>
      <trkpt lat="48.6021" lon="2.05784">
        <ele>134</ele>
        <time>2022-03-27T15:10:41Z</time>
      </trkpt>
      <trkpt lat="48.60211" lon="2.05788">
        <ele>134</ele>
        <time>2022-03-27T15:10:42Z</time>
      </trkpt>
      <trkpt lat="48.60212" lon="2.05791">
        <ele>135</ele>
        <time>2022-03-27T15:10:45Z</time>
      </trkpt>
      <trkpt lat="48.60213" lon="2.05796">
        <ele>135</ele>
        <time>2022-03-27T15:10:47Z</time>
      </trkpt>
      <trkpt lat="48.60215" lon="2.058">
        <ele>135</ele>
        <time>2022-03-27T15:10:49Z</time>
      </trkpt>
      <trkpt lat="48.60216" lon="2.05803">
        <ele>135</ele>
        <time>2022-03-27T15:10:50Z</time>
      </trkpt>
      <trkpt lat="48.60217" lon="2.05805">
        <ele>135</ele>
        <time>2022-03-27T15:10:51Z</time>
      </trkpt>
      <trkpt lat="48.60218" lon="2.0581">
        <ele>135</ele>
        <time>2022-03-27T15:10:53Z</time>
      </trkpt>
      <trkpt lat="48.60219" lon="2.05814">
        <ele>135</ele>
        <time>2022-03-27T15:10:55Z</time>
      </trkpt>
      <trkpt lat="48.6022" lon="2.05818">
        <ele>136</ele>
        <time>2022-03-27T15:10:57Z</time>
      </trkpt>
      <trkpt lat="48.60218" lon="2.05823">
        <ele>136</ele>
        <time>2022-03-27T15:10:59Z</time>
      </trkpt>
      <trkpt lat="48.60216" lon="2.05825">
        <ele>136</ele>
        <time>2022-03-27T15:11:00Z</time>
      </trkpt>
      <trkpt lat="48.60215" lon="2.05826">
        <ele>136</ele>
        <time>2022-03-27T15:11:01Z</time>
      </trkpt>
      <trkpt lat="48.60212" lon="2.05829">
        <ele>136</ele>
        <time>2022-03-27T15:11:03Z</time>
      </trkpt>
      <trkpt lat="48.60209" lon="2.05831">
        <ele>135</ele>
        <time>2022-03-27T15:11:05Z</time>
      </trkpt>
      <trkpt lat="48.60208" lon="2.05832">
        <ele>135</ele>
        <time>2022-03-27T15:11:06Z</time>
      </trkpt>
      <trkpt lat="48.60206" lon="2.05834">
        <ele>135</ele>
        <time>2022-03-27T15:11:07Z</time>
      </trkpt>
      <trkpt lat="48.60203" lon="2.05837">
        <ele>135</ele>
        <time>2022-03-27T15:11:09Z</time>
      </trkpt>
      <trkpt lat="48.602" lon="2.05839">
        <ele>135</ele>
        <time>2022-03-27T15:11:11Z</time>
      </trkpt>
      <trkpt lat="48.60199" lon="2.0584">
        <ele>135</ele>
        <time>2022-03-27T15:11:12Z</time>
      </trkpt>
      <trkpt lat="48.60197" lon="2.05841">
        <ele>135</ele>
        <time>2022-03-27T15:11:13Z</time>
      </trkpt>
      <trkpt lat="48.60195" lon="2.05843">
        <ele>135</ele>
        <time>2022-03-27T15:11:14Z</time>
      </trkpt>
      <trkpt lat="48.60193" lon="2.05845">
        <ele>135</ele>
        <time>2022-03-27T15:11:15Z</time>
      </trkpt>
      <trkpt lat="48.6019" lon="2.05847">
        <ele>135</ele>
        <time>2022-03-27T15:11:17Z</time>
      </trkpt>
      <trkpt lat="48.60188" lon="2.05848">
        <ele>135</ele>
        <time>2022-03-27T15:11:18Z</time>
      </trkpt>
      <trkpt lat="48.60185" lon="2.0585">
        <ele>135</ele>
        <time>2022-03-27T15:11:20Z</time>
      </trkpt>
      <trkpt lat="48.60183" lon="2.05852">
        <ele>135</ele>
        <time>2022-03-27T15:11:21Z</time>
      </trkpt>
      <trkpt lat="48.6018" lon="2.05854">
        <ele>135</ele>
        <time>2022-03-27T15:11:23Z</time>
      </trkpt>
      <trkpt lat="48.60178" lon="2.05856">
        <ele>136</ele>
        <time>2022-03-27T15:11:25Z</time>
      </trkpt>
      <trkpt lat="48.60176" lon="2.05857">
        <ele>136</ele>
        <time>2022-03-27T15:11:26Z</time>
      </trkpt>
      <trkpt lat="48.60174" lon="2.05859">
        <ele>136</ele>
        <time>2022-03-27T15:11:27Z</time>
      </trkpt>
      <trkpt lat="48.60171" lon="2.05861">
        <ele>136</ele>
        <time>2022-03-27T15:11:29Z</time>
      </trkpt>
      <trkpt lat="48.60169" lon="2.05862">
        <ele>136</ele>
        <time>2022-03-27T15:11:30Z</time>
      </trkpt>
      <trkpt lat="48.60166" lon="2.05864">
        <ele>136</ele>
        <time>2022-03-27T15:11:32Z</time>
      </trkpt>
      <trkpt lat="48.60164" lon="2.05866">
        <ele>136</ele>
        <time>2022-03-27T15:11:34Z</time>
      </trkpt>
      <trkpt lat="48.60161" lon="2.05867">
        <ele>137</ele>
        <time>2022-03-27T15:11:36Z</time>
      </trkpt>
      <trkpt lat="48.60159" lon="2.05868">
        <ele>137</ele>
        <time>2022-03-27T15:11:38Z</time>
      </trkpt>
      <trkpt lat="48.60155" lon="2.05869">
        <ele>137</ele>
        <time>2022-03-27T15:11:40Z</time>
      </trkpt>
      <trkpt lat="48.60153" lon="2.05871">
        <ele>137</ele>
        <time>2022-03-27T15:11:42Z</time>
      </trkpt>
      <trkpt lat="48.60151" lon="2.05872">
        <ele>137</ele>
        <time>2022-03-27T15:11:43Z</time>
      </trkpt>
      <trkpt lat="48.60149" lon="2.05873">
        <ele>137</ele>
        <time>2022-03-27T15:11:44Z</time>
      </trkpt>
      <trkpt lat="48.60147" lon="2.05876">
        <ele>137</ele>
        <time>2022-03-27T15:11:46Z</time>
      </trkpt>
      <trkpt lat="48.60145" lon="2.05878">
        <ele>138</ele>
        <time>2022-03-27T15:11:48Z</time>
      </trkpt>
      <trkpt lat="48.60143" lon="2.0588">
        <ele>138</ele>
        <time>2022-03-27T15:11:50Z</time>
      </trkpt>
      <trkpt lat="48.6014" lon="2.05881">
        <ele>138</ele>
        <time>2022-03-27T15:11:52Z</time>
      </trkpt>
      <trkpt lat="48.60137" lon="2.05882">
        <ele>138</ele>
        <time>2022-03-27T15:11:54Z</time>
      </trkpt>
      <trkpt lat="48.60134" lon="2.05884">
        <ele>138</ele>
        <time>2022-03-27T15:11:56Z</time>
      </trkpt>
      <trkpt lat="48.60131" lon="2.05885">
        <ele>138</ele>
        <time>2022-03-27T15:11:58Z</time>
      </trkpt>
      <trkpt lat="48.60129" lon="2.05886">
        <ele>138</ele>
        <time>2022-03-27T15:12:00Z</time>
      </trkpt>
      <trkpt lat="48.60126" lon="2.05888">
        <ele>138</ele>
        <time>2022-03-27T15:12:02Z</time>
      </trkpt>
      <trkpt lat="48.60122" lon="2.0589">
        <ele>138</ele>
        <time>2022-03-27T15:12:04Z</time>
      </trkpt>
      <trkpt lat="48.60116" lon="2.05894">
        <ele>138</ele>
        <time>2022-03-27T15:12:07Z</time>
      </trkpt>
      <trkpt lat="48.60114" lon="2.05895">
        <ele>138</ele>
        <time>2022-03-27T15:12:08Z</time>
      </trkpt>
      <trkpt lat="48.60112" lon="2.05896">
        <ele>138</ele>
        <time>2022-03-27T15:12:09Z</time>
      </trkpt>
      <trkpt lat="48.6011" lon="2.05897">
        <ele>138</ele>
        <time>2022-03-27T15:12:11Z</time>
      </trkpt>
      <trkpt lat="48.60107" lon="2.05899">
        <ele>138</ele>
        <time>2022-03-27T15:12:13Z</time>
      </trkpt>
      <trkpt lat="48.60106" lon="2.05901">
        <ele>138</ele>
        <time>2022-03-27T15:12:14Z</time>
      </trkpt>
      <trkpt lat="48.60104" lon="2.05902">
        <ele>138</ele>
        <time>2022-03-27T15:12:15Z</time>
      </trkpt>
      <trkpt lat="48.60101" lon="2.05904">
        <ele>138</ele>
        <time>2022-03-27T15:12:17Z</time>
      </trkpt>
      <trkpt lat="48.60099" lon="2.05906">
        <ele>138</ele>
        <time>2022-03-27T15:12:19Z</time>
      </trkpt>
      <trkpt lat="48.60096" lon="2.05907">
        <ele>139</ele>
        <time>2022-03-27T15:12:21Z</time>
      </trkpt>
      <trkpt lat="48.60093" lon="2.05907">
        <ele>139</ele>
        <time>2022-03-27T15:12:23Z</time>
      </trkpt>
      <trkpt lat="48.60091" lon="2.05909">
        <ele>139</ele>
        <time>2022-03-27T15:12:24Z</time>
      </trkpt>
      <trkpt lat="48.60089" lon="2.0591">
        <ele>139</ele>
        <time>2022-03-27T15:12:25Z</time>
      </trkpt>
      <trkpt lat="48.60087" lon="2.05911">
        <ele>139</ele>
        <time>2022-03-27T15:12:26Z</time>
      </trkpt>
      <trkpt lat="48.60085" lon="2.05912">
        <ele>139</ele>
        <time>2022-03-27T15:12:27Z</time>
      </trkpt>
      <trkpt lat="48.60083" lon="2.05913">
        <ele>139</ele>
        <time>2022-03-27T15:12:28Z</time>
      </trkpt>
      <trkpt lat="48.60081" lon="2.05914">
        <ele>139</ele>
        <time>2022-03-27T15:12:29Z</time>
      </trkpt>
      <trkpt lat="48.60079" lon="2.05914">
        <ele>139</ele>
        <time>2022-03-27T15:12:31Z</time>
      </trkpt>
      <trkpt lat="48.60076" lon="2.05914">
        <ele>139</ele>
        <time>2022-03-27T15:12:33Z</time>
      </trkpt>
      <trkpt lat="48.60073" lon="2.05915">
        <ele>139</ele>
        <time>2022-03-27T15:12:35Z</time>
      </trkpt>
      <trkpt lat="48.6007" lon="2.05917">
        <ele>139</ele>
        <time>2022-03-27T15:12:37Z</time>
      </trkpt>
      <trkpt lat="48.60066" lon="2.0592">
        <ele>139</ele>
        <time>2022-03-27T15:12:39Z</time>
      </trkpt>
      <trkpt lat="48.60065" lon="2.05921">
        <ele>139</ele>
        <time>2022-03-27T15:12:40Z</time>
      </trkpt>
      <trkpt lat="48.60062" lon="2.05922">
        <ele>139</ele>
        <time>2022-03-27T15:12:41Z</time>
      </trkpt>
      <trkpt lat="48.60061" lon="2.05923">
        <ele>139</ele>
        <time>2022-03-27T15:12:42Z</time>
      </trkpt>
      <trkpt lat="48.60059" lon="2.05924">
        <ele>139</ele>
        <time>2022-03-27T15:12:43Z</time>
      </trkpt>
      <trkpt lat="48.60056" lon="2.05926">
        <ele>139</ele>
        <time>2022-03-27T15:12:45Z</time>
      </trkpt>
      <trkpt lat="48.60053" lon="2.05928">
        <ele>139</ele>
        <time>2022-03-27T15:12:47Z</time>
      </trkpt>
      <trkpt lat="48.6005" lon="2.05928">
        <ele>139</ele>
        <time>2022-03-27T15:12:49Z</time>
      </trkpt>
      <trkpt lat="48.60048" lon="2.05929">
        <ele>139</ele>
        <time>2022-03-27T15:12:51Z</time>
      </trkpt>
      <trkpt lat="48.60046" lon="2.0593">
        <ele>139</ele>
        <time>2022-03-27T15:12:52Z</time>
      </trkpt>
      <trkpt lat="48.60044" lon="2.0593">
        <ele>139</ele>
        <time>2022-03-27T15:12:53Z</time>
      </trkpt>
      <trkpt lat="48.6004" lon="2.05932">
        <ele>139</ele>
        <time>2022-03-27T15:12:55Z</time>
      </trkpt>
      <trkpt lat="48.60039" lon="2.05933">
        <ele>139</ele>
        <time>2022-03-27T15:12:56Z</time>
      </trkpt>
      <trkpt lat="48.60036" lon="2.05936">
        <ele>139</ele>
        <time>2022-03-27T15:12:58Z</time>
      </trkpt>
      <trkpt lat="48.60034" lon="2.05936">
        <ele>139</ele>
        <time>2022-03-27T15:12:59Z</time>
      </trkpt>
      <trkpt lat="48.60031" lon="2.05938">
        <ele>139</ele>
        <time>2022-03-27T15:13:01Z</time>
      </trkpt>
      <trkpt lat="48.60027" lon="2.05938">
        <ele>139</ele>
        <time>2022-03-27T15:13:03Z</time>
      </trkpt>
      <trkpt lat="48.60025" lon="2.05937">
        <ele>139</ele>
        <time>2022-03-27T15:13:04Z</time>
      </trkpt>
      <trkpt lat="48.60023" lon="2.05937">
        <ele>138</ele>
        <time>2022-03-27T15:13:04Z</time>
      </trkpt>
      <trkpt lat="48.60021" lon="2.05937">
        <ele>138</ele>
        <time>2022-03-27T15:13:06Z</time>
      </trkpt>
      <trkpt lat="48.60017" lon="2.05937">
        <ele>137</ele>
        <time>2022-03-27T15:13:08Z</time>
      </trkpt>
      <trkpt lat="48.60015" lon="2.05938">
        <ele>137</ele>
        <time>2022-03-27T15:13:09Z</time>
      </trkpt>
      <trkpt lat="48.60012" lon="2.05939">
        <ele>137</ele>
        <time>2022-03-27T15:13:11Z</time>
      </trkpt>
      <trkpt lat="48.6001" lon="2.05939">
        <ele>137</ele>
        <time>2022-03-27T15:13:13Z</time>
      </trkpt>
      <trkpt lat="48.60008" lon="2.05941">
        <ele>137</ele>
        <time>2022-03-27T15:13:15Z</time>
      </trkpt>
      <trkpt lat="48.60006" lon="2.05944">
        <ele>137</ele>
        <time>2022-03-27T15:13:17Z</time>
      </trkpt>
      <trkpt lat="48.60007" lon="2.05947">
        <ele>137</ele>
        <time>2022-03-27T15:13:19Z</time>
      </trkpt>
      <trkpt lat="48.60007" lon="2.05951">
        <ele>136</ele>
        <time>2022-03-27T15:13:21Z</time>
      </trkpt>
      <trkpt lat="48.60008" lon="2.05955">
        <ele>136</ele>
        <time>2022-03-27T15:13:23Z</time>
      </trkpt>
      <trkpt lat="48.6001" lon="2.05959">
        <ele>136</ele>
        <time>2022-03-27T15:13:25Z</time>
      </trkpt>
      <trkpt lat="48.60011" lon="2.05961">
        <ele>136</ele>
        <time>2022-03-27T15:13:26Z</time>
      </trkpt>
      <trkpt lat="48.60013" lon="2.05964">
        <ele>135</ele>
        <time>2022-03-27T15:13:28Z</time>
      </trkpt>
      <trkpt lat="48.60014" lon="2.05968">
        <ele>135</ele>
        <time>2022-03-27T15:13:30Z</time>
      </trkpt>
      <trkpt lat="48.60015" lon="2.05972">
        <ele>135</ele>
        <time>2022-03-27T15:13:32Z</time>
      </trkpt>
      <trkpt lat="48.60016" lon="2.05975">
        <ele>135</ele>
        <time>2022-03-27T15:13:34Z</time>
      </trkpt>
      <trkpt lat="48.60017" lon="2.05978">
        <ele>135</ele>
        <time>2022-03-27T15:13:36Z</time>
      </trkpt>
      <trkpt lat="48.60019" lon="2.05981">
        <ele>135</ele>
        <time>2022-03-27T15:13:38Z</time>
      </trkpt>
      <trkpt lat="48.60021" lon="2.05985">
        <ele>135</ele>
        <time>2022-03-27T15:13:40Z</time>
      </trkpt>
      <trkpt lat="48.60023" lon="2.05989">
        <ele>135</ele>
        <time>2022-03-27T15:13:42Z</time>
      </trkpt>
      <trkpt lat="48.60025" lon="2.05993">
        <ele>135</ele>
        <time>2022-03-27T15:13:44Z</time>
      </trkpt>
      <trkpt lat="48.60025" lon="2.05997">
        <ele>135</ele>
        <time>2022-03-27T15:13:46Z</time>
      </trkpt>
      <trkpt lat="48.60026" lon="2.06001">
        <ele>135</ele>
        <time>2022-03-27T15:13:48Z</time>
      </trkpt>
      <trkpt lat="48.60027" lon="2.06004">
        <ele>135</ele>
        <time>2022-03-27T15:13:50Z</time>
      </trkpt>
      <trkpt lat="48.60028" lon="2.06009">
        <ele>135</ele>
        <time>2022-03-27T15:13:52Z</time>
      </trkpt>
      <trkpt lat="48.60028" lon="2.06012">
        <ele>135</ele>
        <time>2022-03-27T15:13:53Z</time>
      </trkpt>
      <trkpt lat="48.60029" lon="2.06016">
        <ele>134</ele>
        <time>2022-03-27T15:13:55Z</time>
      </trkpt>
      <trkpt lat="48.6003" lon="2.0602">
        <ele>134</ele>
        <time>2022-03-27T15:13:57Z</time>
      </trkpt>
      <trkpt lat="48.60032" lon="2.06022">
        <ele>134</ele>
        <time>2022-03-27T15:13:58Z</time>
      </trkpt>
      <trkpt lat="48.60032" lon="2.06025">
        <ele>133</ele>
        <time>2022-03-27T15:13:59Z</time>
      </trkpt>
      <trkpt lat="48.60033" lon="2.06029">
        <ele>133</ele>
        <time>2022-03-27T15:14:01Z</time>
      </trkpt>
      <trkpt lat="48.60034" lon="2.06032">
        <ele>132</ele>
        <time>2022-03-27T15:14:03Z</time>
      </trkpt>
      <trkpt lat="48.60034" lon="2.06036">
        <ele>132</ele>
        <time>2022-03-27T15:14:05Z</time>
      </trkpt>
      <trkpt lat="48.60035" lon="2.06041">
        <ele>132</ele>
        <time>2022-03-27T15:14:07Z</time>
      </trkpt>
      <trkpt lat="48.60036" lon="2.06044">
        <ele>132</ele>
        <time>2022-03-27T15:14:09Z</time>
      </trkpt>
      <trkpt lat="48.60037" lon="2.06047">
        <ele>132</ele>
        <time>2022-03-27T15:14:11Z</time>
      </trkpt>
      <trkpt lat="48.60037" lon="2.06051">
        <ele>131</ele>
        <time>2022-03-27T15:14:13Z</time>
      </trkpt>
      <trkpt lat="48.60039" lon="2.06055">
        <ele>131</ele>
        <time>2022-03-27T15:14:15Z</time>
      </trkpt>
      <trkpt lat="48.60042" lon="2.06068">
        <ele>130</ele>
        <time>2022-03-27T15:14:19Z</time>
      </trkpt>
      <trkpt lat="48.60047" lon="2.06082">
        <ele>129</ele>
        <time>2022-03-27T15:14:24Z</time>
      </trkpt>
      <trkpt lat="48.60048" lon="2.06085">
        <ele>129</ele>
        <time>2022-03-27T15:14:25Z</time>
      </trkpt>
      <trkpt lat="48.60049" lon="2.0609">
        <ele>129</ele>
        <time>2022-03-27T15:14:27Z</time>
      </trkpt>
      <trkpt lat="48.60051" lon="2.06092">
        <ele>129</ele>
        <time>2022-03-27T15:14:28Z</time>
      </trkpt>
      <trkpt lat="48.60052" lon="2.06096">
        <ele>128</ele>
        <time>2022-03-27T15:14:30Z</time>
      </trkpt>
      <trkpt lat="48.60054" lon="2.06101">
        <ele>127</ele>
        <time>2022-03-27T15:14:32Z</time>
      </trkpt>
      <trkpt lat="48.60054" lon="2.06104">
        <ele>127</ele>
        <time>2022-03-27T15:14:33Z</time>
      </trkpt>
      <trkpt lat="48.60055" lon="2.06106">
        <ele>127</ele>
        <time>2022-03-27T15:14:34Z</time>
      </trkpt>
      <trkpt lat="48.60056" lon="2.06109">
        <ele>126</ele>
        <time>2022-03-27T15:14:35Z</time>
      </trkpt>
      <trkpt lat="48.60057" lon="2.06114">
        <ele>126</ele>
        <time>2022-03-27T15:14:37Z</time>
      </trkpt>
      <trkpt lat="48.60058" lon="2.06118">
        <ele>126</ele>
        <time>2022-03-27T15:14:39Z</time>
      </trkpt>
      <trkpt lat="48.6006" lon="2.06123">
        <ele>125</ele>
        <time>2022-03-27T15:14:41Z</time>
      </trkpt>
      <trkpt lat="48.60061" lon="2.06127">
        <ele>125</ele>
        <time>2022-03-27T15:14:43Z</time>
      </trkpt>
      <trkpt lat="48.60062" lon="2.0613">
        <ele>125</ele>
        <time>2022-03-27T15:14:45Z</time>
      </trkpt>
      <trkpt lat="48.60063" lon="2.06134">
        <ele>125</ele>
        <time>2022-03-27T15:14:47Z</time>
      </trkpt>
      <trkpt lat="48.60064" lon="2.06138">
        <ele>125</ele>
        <time>2022-03-27T15:14:49Z</time>
      </trkpt>
      <trkpt lat="48.60066" lon="2.06143">
        <ele>125</ele>
        <time>2022-03-27T15:14:51Z</time>
      </trkpt>
      <trkpt lat="48.60066" lon="2.06145">
        <ele>124</ele>
        <time>2022-03-27T15:14:52Z</time>
      </trkpt>
      <trkpt lat="48.60068" lon="2.0615">
        <ele>124</ele>
        <time>2022-03-27T15:14:54Z</time>
      </trkpt>
      <trkpt lat="48.60069" lon="2.06153">
        <ele>124</ele>
        <time>2022-03-27T15:14:57Z</time>
      </trkpt>
      <trkpt lat="48.6007" lon="2.06155">
        <ele>124</ele>
        <time>2022-03-27T15:14:59Z</time>
      </trkpt>
      <trkpt lat="48.6007" lon="2.06158">
        <ele>124</ele>
        <time>2022-03-27T15:15:00Z</time>
      </trkpt>
      <trkpt lat="48.60072" lon="2.06161">
        <ele>124</ele>
        <time>2022-03-27T15:15:03Z</time>
      </trkpt>
      <trkpt lat="48.60074" lon="2.06164">
        <ele>124</ele>
        <time>2022-03-27T15:15:05Z</time>
      </trkpt>
      <trkpt lat="48.60076" lon="2.06167">
        <ele>124</ele>
        <time>2022-03-27T15:15:07Z</time>
      </trkpt>
      <trkpt lat="48.60078" lon="2.06166">
        <ele>124</ele>
        <time>2022-03-27T15:15:09Z</time>
      </trkpt>
      <trkpt lat="48.60081" lon="2.06164">
        <ele>124</ele>
        <time>2022-03-27T15:15:12Z</time>
      </trkpt>
      <trkpt lat="48.60083" lon="2.06162">
        <ele>123</ele>
        <time>2022-03-27T15:15:14Z</time>
      </trkpt>
      <trkpt lat="48.60085" lon="2.06161">
        <ele>123</ele>
        <time>2022-03-27T15:15:16Z</time>
      </trkpt>
      <trkpt lat="48.60088" lon="2.0616">
        <ele>123</ele>
        <time>2022-03-27T15:15:18Z</time>
      </trkpt>
      <trkpt lat="48.6009" lon="2.06159">
        <ele>123</ele>
        <time>2022-03-27T15:15:20Z</time>
      </trkpt>
      <trkpt lat="48.60093" lon="2.06158">
        <ele>123</ele>
        <time>2022-03-27T15:15:22Z</time>
      </trkpt>
      <trkpt lat="48.60095" lon="2.06156">
        <ele>123</ele>
        <time>2022-03-27T15:15:23Z</time>
      </trkpt>
      <trkpt lat="48.60097" lon="2.06155">
        <ele>123</ele>
        <time>2022-03-27T15:15:24Z</time>
      </trkpt>
      <trkpt lat="48.60098" lon="2.06153">
        <ele>123</ele>
        <time>2022-03-27T15:15:25Z</time>
      </trkpt>
      <trkpt lat="48.601" lon="2.06152">
        <ele>124</ele>
        <time>2022-03-27T15:15:26Z</time>
      </trkpt>
      <trkpt lat="48.60103" lon="2.06151">
        <ele>124</ele>
        <time>2022-03-27T15:15:28Z</time>
      </trkpt>
      <trkpt lat="48.60105" lon="2.0615">
        <ele>124</ele>
        <time>2022-03-27T15:15:29Z</time>
      </trkpt>
      <trkpt lat="48.60108" lon="2.06148">
        <ele>125</ele>
        <time>2022-03-27T15:15:31Z</time>
      </trkpt>
      <trkpt lat="48.6011" lon="2.06147">
        <ele>126</ele>
        <time>2022-03-27T15:15:33Z</time>
      </trkpt>
      <trkpt lat="48.60113" lon="2.06145">
        <ele>127</ele>
        <time>2022-03-27T15:15:35Z</time>
      </trkpt>
      <trkpt lat="48.60117" lon="2.06142">
        <ele>127</ele>
        <time>2022-03-27T15:15:37Z</time>
      </trkpt>
      <trkpt lat="48.60119" lon="2.06139">
        <ele>127</ele>
        <time>2022-03-27T15:15:39Z</time>
      </trkpt>
      <trkpt lat="48.60123" lon="2.06138">
        <ele>128</ele>
        <time>2022-03-27T15:15:41Z</time>
      </trkpt>
      <trkpt lat="48.60125" lon="2.06136">
        <ele>128</ele>
        <time>2022-03-27T15:15:43Z</time>
      </trkpt>
      <trkpt lat="48.60128" lon="2.06134">
        <ele>129</ele>
        <time>2022-03-27T15:15:45Z</time>
      </trkpt>
      <trkpt lat="48.6013" lon="2.06132">
        <ele>129</ele>
        <time>2022-03-27T15:15:47Z</time>
      </trkpt>
      <trkpt lat="48.60133" lon="2.06131">
        <ele>129</ele>
        <time>2022-03-27T15:15:49Z</time>
      </trkpt>
      <trkpt lat="48.60135" lon="2.0613">
        <ele>129</ele>
        <time>2022-03-27T15:15:50Z</time>
      </trkpt>
      <trkpt lat="48.60137" lon="2.06128">
        <ele>129</ele>
        <time>2022-03-27T15:15:52Z</time>
      </trkpt>
      <trkpt lat="48.60141" lon="2.06126">
        <ele>130</ele>
        <time>2022-03-27T15:15:54Z</time>
      </trkpt>
      <trkpt lat="48.60143" lon="2.06125">
        <ele>130</ele>
        <time>2022-03-27T15:15:55Z</time>
      </trkpt>
      <trkpt lat="48.60145" lon="2.06124">
        <ele>130</ele>
        <time>2022-03-27T15:15:56Z</time>
      </trkpt>
      <trkpt lat="48.60146" lon="2.06123">
        <ele>130</ele>
        <time>2022-03-27T15:15:57Z</time>
      </trkpt>
      <trkpt lat="48.60148" lon="2.06122">
        <ele>130</ele>
        <time>2022-03-27T15:15:58Z</time>
      </trkpt>
      <trkpt lat="48.6015" lon="2.06121">
        <ele>131</ele>
        <time>2022-03-27T15:15:59Z</time>
      </trkpt>
      <trkpt lat="48.60153" lon="2.06119">
        <ele>131</ele>
        <time>2022-03-27T15:16:01Z</time>
      </trkpt>
      <trkpt lat="48.60156" lon="2.06117">
        <ele>131</ele>
        <time>2022-03-27T15:16:03Z</time>
      </trkpt>
      <trkpt lat="48.60159" lon="2.06116">
        <ele>131</ele>
        <time>2022-03-27T15:16:05Z</time>
      </trkpt>
      <trkpt lat="48.60163" lon="2.06116">
        <ele>131</ele>
        <time>2022-03-27T15:16:07Z</time>
      </trkpt>
      <trkpt lat="48.60166" lon="2.06115">
        <ele>132</ele>
        <time>2022-03-27T15:16:09Z</time>
      </trkpt>
      <trkpt lat="48.6017" lon="2.06114">
        <ele>132</ele>
        <time>2022-03-27T15:16:11Z</time>
      </trkpt>
      <trkpt lat="48.60173" lon="2.06113">
        <ele>132</ele>
        <time>2022-03-27T15:16:13Z</time>
      </trkpt>
      <trkpt lat="48.60175" lon="2.06112">
        <ele>132</ele>
        <time>2022-03-27T15:16:14Z</time>
      </trkpt>
      <trkpt lat="48.60178" lon="2.06111">
        <ele>132</ele>
        <time>2022-03-27T15:16:16Z</time>
      </trkpt>
      <trkpt lat="48.60181" lon="2.0611">
        <ele>131</ele>
        <time>2022-03-27T15:16:18Z</time>
      </trkpt>
      <trkpt lat="48.60184" lon="2.06109">
        <ele>132</ele>
        <time>2022-03-27T15:16:20Z</time>
      </trkpt>
      <trkpt lat="48.60187" lon="2.06108">
        <ele>132</ele>
        <time>2022-03-27T15:16:22Z</time>
      </trkpt>
      <trkpt lat="48.6019" lon="2.06107">
        <ele>132</ele>
        <time>2022-03-27T15:16:24Z</time>
      </trkpt>
      <trkpt lat="48.60193" lon="2.06104">
        <ele>132</ele>
        <time>2022-03-27T15:16:26Z</time>
      </trkpt>
      <trkpt lat="48.60195" lon="2.06104">
        <ele>132</ele>
        <time>2022-03-27T15:16:27Z</time>
      </trkpt>
      <trkpt lat="48.60197" lon="2.06103">
        <ele>132</ele>
        <time>2022-03-27T15:16:28Z</time>
      </trkpt>
      <trkpt lat="48.60199" lon="2.06102">
        <ele>132</ele>
        <time>2022-03-27T15:16:29Z</time>
      </trkpt>
      <trkpt lat="48.60201" lon="2.06101">
        <ele>132</ele>
        <time>2022-03-27T15:16:30Z</time>
      </trkpt>
      <trkpt lat="48.60204" lon="2.06099">
        <ele>132</ele>
        <time>2022-03-27T15:16:32Z</time>
      </trkpt>
      <trkpt lat="48.60207" lon="2.06098">
        <ele>132</ele>
        <time>2022-03-27T15:16:34Z</time>
      </trkpt>
      <trkpt lat="48.60211" lon="2.06096">
        <ele>132</ele>
        <time>2022-03-27T15:16:36Z</time>
      </trkpt>
      <trkpt lat="48.60212" lon="2.06096">
        <ele>132</ele>
        <time>2022-03-27T15:16:37Z</time>
      </trkpt>
      <trkpt lat="48.60215" lon="2.06095">
        <ele>132</ele>
        <time>2022-03-27T15:16:39Z</time>
      </trkpt>
      <trkpt lat="48.60218" lon="2.06095">
        <ele>132</ele>
        <time>2022-03-27T15:16:41Z</time>
      </trkpt>
      <trkpt lat="48.60221" lon="2.06095">
        <ele>133</ele>
        <time>2022-03-27T15:16:43Z</time>
      </trkpt>
      <trkpt lat="48.60224" lon="2.06095">
        <ele>132</ele>
        <time>2022-03-27T15:16:45Z</time>
      </trkpt>
      <trkpt lat="48.60228" lon="2.06095">
        <ele>132</ele>
        <time>2022-03-27T15:16:47Z</time>
      </trkpt>
      <trkpt lat="48.6023" lon="2.06095">
        <ele>132</ele>
        <time>2022-03-27T15:16:48Z</time>
      </trkpt>
      <trkpt lat="48.60233" lon="2.06094">
        <ele>132</ele>
        <time>2022-03-27T15:16:50Z</time>
      </trkpt>
      <trkpt lat="48.60236" lon="2.06093">
        <ele>132</ele>
        <time>2022-03-27T15:16:52Z</time>
      </trkpt>
      <trkpt lat="48.60238" lon="2.06092">
        <ele>132</ele>
        <time>2022-03-27T15:16:54Z</time>
      </trkpt>
      <trkpt lat="48.60241" lon="2.0609">
        <ele>132</ele>
        <time>2022-03-27T15:16:56Z</time>
      </trkpt>
      <trkpt lat="48.60244" lon="2.06089">
        <ele>132</ele>
        <time>2022-03-27T15:16:58Z</time>
      </trkpt>
      <trkpt lat="48.60247" lon="2.06089">
        <ele>132</ele>
        <time>2022-03-27T15:17:00Z</time>
      </trkpt>
      <trkpt lat="48.60251" lon="2.06089">
        <ele>132</ele>
        <time>2022-03-27T15:17:02Z</time>
      </trkpt>
      <trkpt lat="48.60254" lon="2.06089">
        <ele>132</ele>
        <time>2022-03-27T15:17:04Z</time>
      </trkpt>
      <trkpt lat="48.60256" lon="2.0609">
        <ele>132</ele>
        <time>2022-03-27T15:17:06Z</time>
      </trkpt>
      <trkpt lat="48.60259" lon="2.0609">
        <ele>132</ele>
        <time>2022-03-27T15:17:08Z</time>
      </trkpt>
      <trkpt lat="48.60261" lon="2.0609">
        <ele>132</ele>
        <time>2022-03-27T15:17:09Z</time>
      </trkpt>
      <trkpt lat="48.60263" lon="2.06091">
        <ele>131</ele>
        <time>2022-03-27T15:17:10Z</time>
      </trkpt>
      <trkpt lat="48.60265" lon="2.06091">
        <ele>131</ele>
        <time>2022-03-27T15:17:11Z</time>
      </trkpt>
      <trkpt lat="48.60268" lon="2.06091">
        <ele>131</ele>
        <time>2022-03-27T15:17:13Z</time>
      </trkpt>
      <trkpt lat="48.60271" lon="2.06091">
        <ele>131</ele>
        <time>2022-03-27T15:17:15Z</time>
      </trkpt>
      <trkpt lat="48.60276" lon="2.06091">
        <ele>131</ele>
        <time>2022-03-27T15:17:18Z</time>
      </trkpt>
      <trkpt lat="48.60279" lon="2.06089">
        <ele>131</ele>
        <time>2022-03-27T15:17:20Z</time>
      </trkpt>
      <trkpt lat="48.60282" lon="2.06088">
        <ele>131</ele>
        <time>2022-03-27T15:17:22Z</time>
      </trkpt>
      <trkpt lat="48.60285" lon="2.06085">
        <ele>131</ele>
        <time>2022-03-27T15:17:24Z</time>
      </trkpt>
      <trkpt lat="48.60287" lon="2.06084">
        <ele>131</ele>
        <time>2022-03-27T15:17:25Z</time>
      </trkpt>
      <trkpt lat="48.60291" lon="2.06079">
        <ele>131</ele>
        <time>2022-03-27T15:17:27Z</time>
      </trkpt>
      <trkpt lat="48.60292" lon="2.06078">
        <ele>131</ele>
        <time>2022-03-27T15:17:28Z</time>
      </trkpt>
      <trkpt lat="48.60302" lon="2.06071">
        <ele>133</ele>
        <time>2022-03-27T15:17:33Z</time>
      </trkpt>
      <trkpt lat="48.60306" lon="2.06069">
        <ele>133</ele>
        <time>2022-03-27T15:17:35Z</time>
      </trkpt>
      <trkpt lat="48.60308" lon="2.06069">
        <ele>134</ele>
        <time>2022-03-27T15:17:36Z</time>
      </trkpt>
      <trkpt lat="48.60312" lon="2.0607">
        <ele>134</ele>
        <time>2022-03-27T15:17:38Z</time>
      </trkpt>
      <trkpt lat="48.60314" lon="2.06071">
        <ele>135</ele>
        <time>2022-03-27T15:17:40Z</time>
      </trkpt>
      <trkpt lat="48.60318" lon="2.06072">
        <ele>135</ele>
        <time>2022-03-27T15:17:42Z</time>
      </trkpt>
      <trkpt lat="48.60321" lon="2.06074">
        <ele>136</ele>
        <time>2022-03-27T15:17:44Z</time>
      </trkpt>
      <trkpt lat="48.60323" lon="2.06075">
        <ele>136</ele>
        <time>2022-03-27T15:17:45Z</time>
      </trkpt>
      <trkpt lat="48.60324" lon="2.06077">
        <ele>136</ele>
        <time>2022-03-27T15:17:46Z</time>
      </trkpt>
      <trkpt lat="48.60326" lon="2.0608">
        <ele>136</ele>
        <time>2022-03-27T15:17:48Z</time>
      </trkpt>
      <trkpt lat="48.60329" lon="2.06083">
        <ele>136</ele>
        <time>2022-03-27T15:17:50Z</time>
      </trkpt>
      <trkpt lat="48.60331" lon="2.06086">
        <ele>136</ele>
        <time>2022-03-27T15:17:52Z</time>
      </trkpt>
      <trkpt lat="48.60333" lon="2.0609">
        <ele>136</ele>
        <time>2022-03-27T15:17:54Z</time>
      </trkpt>
      <trkpt lat="48.60334" lon="2.06092">
        <ele>136</ele>
        <time>2022-03-27T15:17:55Z</time>
      </trkpt>
      <trkpt lat="48.60339" lon="2.06104">
        <ele>136</ele>
        <time>2022-03-27T15:17:59Z</time>
      </trkpt>
      <trkpt lat="48.60344" lon="2.06116">
        <ele>135</ele>
        <time>2022-03-27T15:18:04Z</time>
      </trkpt>
      <trkpt lat="48.60351" lon="2.06126">
        <ele>135</ele>
        <time>2022-03-27T15:18:08Z</time>
      </trkpt>
      <trkpt lat="48.60353" lon="2.06131">
        <ele>135</ele>
        <time>2022-03-27T15:18:10Z</time>
      </trkpt>
      <trkpt lat="48.60355" lon="2.06135">
        <ele>135</ele>
        <time>2022-03-27T15:18:12Z</time>
      </trkpt>
      <trkpt lat="48.60356" lon="2.06139">
        <ele>135</ele>
        <time>2022-03-27T15:18:14Z</time>
      </trkpt>
      <trkpt lat="48.60359" lon="2.0614">
        <ele>135</ele>
        <time>2022-03-27T15:18:17Z</time>
      </trkpt>
      <trkpt lat="48.60362" lon="2.06142">
        <ele>135</ele>
        <time>2022-03-27T15:18:19Z</time>
      </trkpt>
      <trkpt lat="48.60364" lon="2.06145">
        <ele>134</ele>
        <time>2022-03-27T15:18:21Z</time>
      </trkpt>
      <trkpt lat="48.60366" lon="2.06147">
        <ele>134</ele>
        <time>2022-03-27T15:18:23Z</time>
      </trkpt>
      <trkpt lat="48.60368" lon="2.06149">
        <ele>134</ele>
        <time>2022-03-27T15:18:25Z</time>
      </trkpt>
      <trkpt lat="48.60371" lon="2.06153">
        <ele>134</ele>
        <time>2022-03-27T15:18:27Z</time>
      </trkpt>
      <trkpt lat="48.60373" lon="2.06156">
        <ele>135</ele>
        <time>2022-03-27T15:18:29Z</time>
      </trkpt>
      <trkpt lat="48.60375" lon="2.06158">
        <ele>135</ele>
        <time>2022-03-27T15:18:30Z</time>
      </trkpt>
      <trkpt lat="48.60377" lon="2.06161">
        <ele>135</ele>
        <time>2022-03-27T15:18:32Z</time>
      </trkpt>
      <trkpt lat="48.6038" lon="2.06164">
        <ele>136</ele>
        <time>2022-03-27T15:18:34Z</time>
      </trkpt>
      <trkpt lat="48.60382" lon="2.06165">
        <ele>136</ele>
        <time>2022-03-27T15:18:35Z</time>
      </trkpt>
      <trkpt lat="48.60384" lon="2.06169">
        <ele>136</ele>
        <time>2022-03-27T15:18:37Z</time>
      </trkpt>
      <trkpt lat="48.60386" lon="2.06171">
        <ele>135</ele>
        <time>2022-03-27T15:18:38Z</time>
      </trkpt>
      <trkpt lat="48.60388" lon="2.06173">
        <ele>135</ele>
        <time>2022-03-27T15:18:39Z</time>
      </trkpt>
      <trkpt lat="48.60389" lon="2.06175">
        <ele>135</ele>
        <time>2022-03-27T15:18:40Z</time>
      </trkpt>
      <trkpt lat="48.60391" lon="2.06178">
        <ele>135</ele>
        <time>2022-03-27T15:18:42Z</time>
      </trkpt>
      <trkpt lat="48.60393" lon="2.06181">
        <ele>134</ele>
        <time>2022-03-27T15:18:44Z</time>
      </trkpt>
      <trkpt lat="48.60395" lon="2.06183">
        <ele>135</ele>
        <time>2022-03-27T15:18:47Z</time>
      </trkpt>
      <trkpt lat="48.60397" lon="2.06182">
        <ele>135</ele>
        <time>2022-03-27T15:18:49Z</time>
      </trkpt>
      <trkpt lat="48.604" lon="2.06182">
        <ele>135</ele>
        <time>2022-03-27T15:18:51Z</time>
      </trkpt>
      <trkpt lat="48.60403" lon="2.06182">
        <ele>135</ele>
        <time>2022-03-27T15:18:53Z</time>
      </trkpt>
      <trkpt lat="48.60405" lon="2.06182">
        <ele>135</ele>
        <time>2022-03-27T15:18:55Z</time>
      </trkpt>
      <trkpt lat="48.60407" lon="2.0618">
        <ele>135</ele>
        <time>2022-03-27T15:18:57Z</time>
      </trkpt>
      <trkpt lat="48.60411" lon="2.0618">
        <ele>135</ele>
        <time>2022-03-27T15:18:59Z</time>
      </trkpt>
      <trkpt lat="48.60413" lon="2.06178">
        <ele>135</ele>
        <time>2022-03-27T15:19:01Z</time>
      </trkpt>
      <trkpt lat="48.60416" lon="2.06177">
        <ele>135</ele>
        <time>2022-03-27T15:19:03Z</time>
      </trkpt>
      <trkpt lat="48.60418" lon="2.06175">
        <ele>135</ele>
        <time>2022-03-27T15:19:05Z</time>
      </trkpt>
      <trkpt lat="48.6042" lon="2.06173">
        <ele>135</ele>
        <time>2022-03-27T15:19:07Z</time>
      </trkpt>
      <trkpt lat="48.60423" lon="2.06171">
        <ele>135</ele>
        <time>2022-03-27T15:19:09Z</time>
      </trkpt>
      <trkpt lat="48.60425" lon="2.06169">
        <ele>135</ele>
        <time>2022-03-27T15:19:11Z</time>
      </trkpt>
      <trkpt lat="48.60427" lon="2.06166">
        <ele>134</ele>
        <time>2022-03-27T15:19:13Z</time>
      </trkpt>
      <trkpt lat="48.6043" lon="2.06164">
        <ele>134</ele>
        <time>2022-03-27T15:19:15Z</time>
      </trkpt>
      <trkpt lat="48.60433" lon="2.06162">
        <ele>135</ele>
        <time>2022-03-27T15:19:17Z</time>
      </trkpt>
      <trkpt lat="48.60435" lon="2.06161">
        <ele>135</ele>
        <time>2022-03-27T15:19:19Z</time>
      </trkpt>
      <trkpt lat="48.60438" lon="2.06159">
        <ele>135</ele>
        <time>2022-03-27T15:19:21Z</time>
      </trkpt>
      <trkpt lat="48.60441" lon="2.06158">
        <ele>135</ele>
        <time>2022-03-27T15:19:23Z</time>
      </trkpt>
      <trkpt lat="48.60444" lon="2.06157">
        <ele>135</ele>
        <time>2022-03-27T15:19:25Z</time>
      </trkpt>
      <trkpt lat="48.60447" lon="2.06155">
        <ele>135</ele>
        <time>2022-03-27T15:19:27Z</time>
      </trkpt>
      <trkpt lat="48.60449" lon="2.06153">
        <ele>135</ele>
        <time>2022-03-27T15:19:29Z</time>
      </trkpt>
      <trkpt lat="48.60451" lon="2.06152">
        <ele>134</ele>
        <time>2022-03-27T15:19:32Z</time>
      </trkpt>
      <trkpt lat="48.60454" lon="2.0615">
        <ele>134</ele>
        <time>2022-03-27T15:19:34Z</time>
      </trkpt>
      <trkpt lat="48.60456" lon="2.0615">
        <ele>134</ele>
        <time>2022-03-27T15:19:35Z</time>
      </trkpt>
      <trkpt lat="48.60458" lon="2.06149">
        <ele>134</ele>
        <time>2022-03-27T15:19:36Z</time>
      </trkpt>
      <trkpt lat="48.60461" lon="2.06148">
        <ele>134</ele>
        <time>2022-03-27T15:19:38Z</time>
      </trkpt>
      <trkpt lat="48.60463" lon="2.06147">
        <ele>135</ele>
        <time>2022-03-27T15:19:39Z</time>
      </trkpt>
      <trkpt lat="48.60465" lon="2.06147">
        <ele>135</ele>
        <time>2022-03-27T15:19:40Z</time>
      </trkpt>
      <trkpt lat="48.60467" lon="2.06148">
        <ele>135</ele>
        <time>2022-03-27T15:19:41Z</time>
      </trkpt>
      <trkpt lat="48.60469" lon="2.06148">
        <ele>135</ele>
        <time>2022-03-27T15:19:42Z</time>
      </trkpt>
      <trkpt lat="48.60471" lon="2.06149">
        <ele>135</ele>
        <time>2022-03-27T15:19:43Z</time>
      </trkpt>
      <trkpt lat="48.60474" lon="2.06149">
        <ele>135</ele>
        <time>2022-03-27T15:19:45Z</time>
      </trkpt>
      <trkpt lat="48.60478" lon="2.0615">
        <ele>135</ele>
        <time>2022-03-27T15:19:47Z</time>
      </trkpt>
      <trkpt lat="48.60481" lon="2.06151">
        <ele>135</ele>
        <time>2022-03-27T15:19:49Z</time>
      </trkpt>
      <trkpt lat="48.60484" lon="2.06153">
        <ele>135</ele>
        <time>2022-03-27T15:19:51Z</time>
      </trkpt>
      <trkpt lat="48.60486" lon="2.06154">
        <ele>135</ele>
        <time>2022-03-27T15:19:52Z</time>
      </trkpt>
      <trkpt lat="48.60489" lon="2.06156">
        <ele>135</ele>
        <time>2022-03-27T15:19:54Z</time>
      </trkpt>
      <trkpt lat="48.60492" lon="2.06157">
        <ele>135</ele>
        <time>2022-03-27T15:19:56Z</time>
      </trkpt>
      <trkpt lat="48.60496" lon="2.06158">
        <ele>134</ele>
        <time>2022-03-27T15:19:58Z</time>
      </trkpt>
      <trkpt lat="48.60498" lon="2.06159">
        <ele>134</ele>
        <time>2022-03-27T15:19:59Z</time>
      </trkpt>
      <trkpt lat="48.60501" lon="2.06159">
        <ele>134</ele>
        <time>2022-03-27T15:20:01Z</time>
      </trkpt>
      <trkpt lat="48.60503" lon="2.0616">
        <ele>134</ele>
        <time>2022-03-27T15:20:02Z</time>
      </trkpt>
      <trkpt lat="48.60506" lon="2.06161">
        <ele>133</ele>
        <time>2022-03-27T15:20:04Z</time>
      </trkpt>
      <trkpt lat="48.60508" lon="2.06161">
        <ele>133</ele>
        <time>2022-03-27T15:20:05Z</time>
      </trkpt>
      <trkpt lat="48.6051" lon="2.06162">
        <ele>133</ele>
        <time>2022-03-27T15:20:06Z</time>
      </trkpt>
      <trkpt lat="48.60512" lon="2.06163">
        <ele>133</ele>
        <time>2022-03-27T15:20:07Z</time>
      </trkpt>
      <trkpt lat="48.60515" lon="2.06164">
        <ele>133</ele>
        <time>2022-03-27T15:20:09Z</time>
      </trkpt>
      <trkpt lat="48.60518" lon="2.06166">
        <ele>132</ele>
        <time>2022-03-27T15:20:11Z</time>
      </trkpt>
      <trkpt lat="48.60521" lon="2.06167">
        <ele>132</ele>
        <time>2022-03-27T15:20:13Z</time>
      </trkpt>
      <trkpt lat="48.60523" lon="2.06168">
        <ele>132</ele>
        <time>2022-03-27T15:20:15Z</time>
      </trkpt>
      <trkpt lat="48.60526" lon="2.0617">
        <ele>131</ele>
        <time>2022-03-27T15:20:17Z</time>
      </trkpt>
      <trkpt lat="48.60528" lon="2.06171">
        <ele>131</ele>
        <time>2022-03-27T15:20:18Z</time>
      </trkpt>
      <trkpt lat="48.60531" lon="2.06173">
        <ele>131</ele>
        <time>2022-03-27T15:20:20Z</time>
      </trkpt>
      <trkpt lat="48.60534" lon="2.06175">
        <ele>131</ele>
        <time>2022-03-27T15:20:22Z</time>
      </trkpt>
      <trkpt lat="48.60536" lon="2.06176">
        <ele>130</ele>
        <time>2022-03-27T15:20:23Z</time>
      </trkpt>
      <trkpt lat="48.6054" lon="2.06177">
        <ele>130</ele>
        <time>2022-03-27T15:20:25Z</time>
      </trkpt>
      <trkpt lat="48.60542" lon="2.06178">
        <ele>130</ele>
        <time>2022-03-27T15:20:26Z</time>
      </trkpt>
      <trkpt lat="48.60544" lon="2.06179">
        <ele>129</ele>
        <time>2022-03-27T15:20:27Z</time>
      </trkpt>
      <trkpt lat="48.60547" lon="2.06181">
        <ele>129</ele>
        <time>2022-03-27T15:20:29Z</time>
      </trkpt>
      <trkpt lat="48.60549" lon="2.06181">
        <ele>128</ele>
        <time>2022-03-27T15:20:30Z</time>
      </trkpt>
      <trkpt lat="48.60553" lon="2.06181">
        <ele>128</ele>
        <time>2022-03-27T15:20:32Z</time>
      </trkpt>
      <trkpt lat="48.60555" lon="2.06181">
        <ele>127</ele>
        <time>2022-03-27T15:20:34Z</time>
      </trkpt>
      <trkpt lat="48.60557" lon="2.06181">
        <ele>127</ele>
        <time>2022-03-27T15:20:36Z</time>
      </trkpt>
      <trkpt lat="48.60559" lon="2.06182">
        <ele>126</ele>
        <time>2022-03-27T15:20:37Z</time>
      </trkpt>
      <trkpt lat="48.60562" lon="2.06183">
        <ele>126</ele>
        <time>2022-03-27T15:20:40Z</time>
      </trkpt>
      <trkpt lat="48.60564" lon="2.06184">
        <ele>125</ele>
        <time>2022-03-27T15:20:42Z</time>
      </trkpt>
      <trkpt lat="48.60566" lon="2.06185">
        <ele>125</ele>
        <time>2022-03-27T15:20:44Z</time>
      </trkpt>
      <trkpt lat="48.60569" lon="2.06184">
        <ele>125</ele>
        <time>2022-03-27T15:20:47Z</time>
      </trkpt>
      <trkpt lat="48.60567" lon="2.06184">
        <ele>125</ele>
        <time>2022-03-27T15:20:52Z</time>
      </trkpt>
      <trkpt lat="48.60568" lon="2.06183">
        <ele>123</ele>
        <time>2022-03-27T15:22:00Z</time>
      </trkpt>
      <trkpt lat="48.6057" lon="2.06185">
        <ele>123</ele>
        <time>2022-03-27T15:22:02Z</time>
      </trkpt>
      <trkpt lat="48.60569" lon="2.06188">
        <ele>122</ele>
        <time>2022-03-27T15:22:04Z</time>
      </trkpt>
      <trkpt lat="48.60567" lon="2.06189">
        <ele>122</ele>
        <time>2022-03-27T15:22:07Z</time>
      </trkpt>
      <trkpt lat="48.60565" lon="2.06191">
        <ele>122</ele>
        <time>2022-03-27T15:22:13Z</time>
      </trkpt>
      <trkpt lat="48.60562" lon="2.06191">
        <ele>122</ele>
        <time>2022-03-27T15:22:16Z</time>
      </trkpt>
      <trkpt lat="48.6056" lon="2.06191">
        <ele>122</ele>
        <time>2022-03-27T15:22:18Z</time>
      </trkpt>
      <trkpt lat="48.60559" lon="2.06188">
        <ele>122</ele>
        <time>2022-03-27T15:22:24Z</time>
      </trkpt>
      <trkpt lat="48.6056" lon="2.06185">
        <ele>122</ele>
        <time>2022-03-27T15:22:29Z</time>
      </trkpt>
      <trkpt lat="48.60559" lon="2.06182">
        <ele>123</ele>
        <time>2022-03-27T15:22:38Z</time>
      </trkpt>
      <trkpt lat="48.60558" lon="2.06179">
        <ele>123</ele>
        <time>2022-03-27T15:22:47Z</time>
      </trkpt>
      <trkpt lat="48.60559" lon="2.06176">
        <ele>124</ele>
        <time>2022-03-27T15:22:52Z</time>
      </trkpt>
      <trkpt lat="48.60557" lon="2.06174">
        <ele>125</ele>
        <time>2022-03-27T15:23:00Z</time>
      </trkpt>
      <trkpt lat="48.60555" lon="2.06171">
        <ele>126</ele>
        <time>2022-03-27T15:23:37Z</time>
      </trkpt>
      <trkpt lat="48.60552" lon="2.06171">
        <ele>126</ele>
        <time>2022-03-27T15:23:49Z</time>
      </trkpt>
      <trkpt lat="48.60552" lon="2.06174">
        <ele>126</ele>
        <time>2022-03-27T15:24:58Z</time>
      </trkpt>
      <trkpt lat="48.60554" lon="2.06177">
        <ele>126</ele>
        <time>2022-03-27T15:25:00Z</time>
      </trkpt>
      <trkpt lat="48.60556" lon="2.0618">
        <ele>125</ele>
        <time>2022-03-27T15:25:02Z</time>
      </trkpt>
      <trkpt lat="48.60558" lon="2.06182">
        <ele>125</ele>
        <time>2022-03-27T15:25:04Z</time>
      </trkpt>
      <trkpt lat="48.6056" lon="2.06184">
        <ele>124</ele>
        <time>2022-03-27T15:25:06Z</time>
      </trkpt>
      <trkpt lat="48.60561" lon="2.06186">
        <ele>123</ele>
        <time>2022-03-27T15:25:08Z</time>
      </trkpt>
      <trkpt lat="48.60563" lon="2.06187">
        <ele>123</ele>
        <time>2022-03-27T15:25:10Z</time>
      </trkpt>
      <trkpt lat="48.60566" lon="2.06187">
        <ele>123</ele>
        <time>2022-03-27T15:25:13Z</time>
      </trkpt>
      <trkpt lat="48.60568" lon="2.06187">
        <ele>123</ele>
        <time>2022-03-27T15:25:24Z</time>
      </trkpt>
      <trkpt lat="48.6057" lon="2.06188">
        <ele>123</ele>
        <time>2022-03-27T15:25:26Z</time>
      </trkpt>
      <trkpt lat="48.60573" lon="2.06189">
        <ele>123</ele>
        <time>2022-03-27T15:25:28Z</time>
      </trkpt>
      <trkpt lat="48.60575" lon="2.0619">
        <ele>123</ele>
        <time>2022-03-27T15:25:30Z</time>
      </trkpt>
      <trkpt lat="48.60577" lon="2.0619">
        <ele>122</ele>
        <time>2022-03-27T15:25:32Z</time>
      </trkpt>
      <trkpt lat="48.6058" lon="2.06192">
        <ele>122</ele>
        <time>2022-03-27T15:25:34Z</time>
      </trkpt>
      <trkpt lat="48.60583" lon="2.06193">
        <ele>122</ele>
        <time>2022-03-27T15:25:36Z</time>
      </trkpt>
      <trkpt lat="48.60586" lon="2.06193">
        <ele>122</ele>
        <time>2022-03-27T15:25:38Z</time>
      </trkpt>
      <trkpt lat="48.60589" lon="2.06194">
        <ele>122</ele>
        <time>2022-03-27T15:25:40Z</time>
      </trkpt>
      <trkpt lat="48.60591" lon="2.06195">
        <ele>122</ele>
        <time>2022-03-27T15:25:42Z</time>
      </trkpt>
      <trkpt lat="48.60594" lon="2.06195">
        <ele>122</ele>
        <time>2022-03-27T15:25:44Z</time>
      </trkpt>
      <trkpt lat="48.60597" lon="2.06196">
        <ele>122</ele>
        <time>2022-03-27T15:25:46Z</time>
      </trkpt>
      <trkpt lat="48.60599" lon="2.06197">
        <ele>122</ele>
        <time>2022-03-27T15:25:48Z</time>
      </trkpt>
      <trkpt lat="48.60601" lon="2.06198">
        <ele>122</ele>
        <time>2022-03-27T15:25:50Z</time>
      </trkpt>
      <trkpt lat="48.60604" lon="2.06198">
        <ele>122</ele>
        <time>2022-03-27T15:25:52Z</time>
      </trkpt>
      <trkpt lat="48.60607" lon="2.06199">
        <ele>122</ele>
        <time>2022-03-27T15:25:54Z</time>
      </trkpt>
      <trkpt lat="48.6061" lon="2.06199">
        <ele>122</ele>
        <time>2022-03-27T15:25:56Z</time>
      </trkpt>
      <trkpt lat="48.60613" lon="2.06201">
        <ele>122</ele>
        <time>2022-03-27T15:25:58Z</time>
      </trkpt>
      <trkpt lat="48.60615" lon="2.06202">
        <ele>122</ele>
        <time>2022-03-27T15:26:00Z</time>
      </trkpt>
      <trkpt lat="48.60618" lon="2.06203">
        <ele>122</ele>
        <time>2022-03-27T15:26:02Z</time>
      </trkpt>
      <trkpt lat="48.6062" lon="2.06204">
        <ele>122</ele>
        <time>2022-03-27T15:26:03Z</time>
      </trkpt>
      <trkpt lat="48.60623" lon="2.06204">
        <ele>122</ele>
        <time>2022-03-27T15:26:05Z</time>
      </trkpt>
      <trkpt lat="48.60626" lon="2.06205">
        <ele>122</ele>
        <time>2022-03-27T15:26:07Z</time>
      </trkpt>
      <trkpt lat="48.60629" lon="2.06206">
        <ele>122</ele>
        <time>2022-03-27T15:26:09Z</time>
      </trkpt>
      <trkpt lat="48.60632" lon="2.06206">
        <ele>122</ele>
        <time>2022-03-27T15:26:11Z</time>
      </trkpt>
      <trkpt lat="48.60635" lon="2.06206">
        <ele>122</ele>
        <time>2022-03-27T15:26:13Z</time>
      </trkpt>
      <trkpt lat="48.60637" lon="2.06207">
        <ele>122</ele>
        <time>2022-03-27T15:26:14Z</time>
      </trkpt>
      <trkpt lat="48.6064" lon="2.06208">
        <ele>122</ele>
        <time>2022-03-27T15:26:16Z</time>
      </trkpt>
      <trkpt lat="48.60642" lon="2.06209">
        <ele>122</ele>
        <time>2022-03-27T15:26:17Z</time>
      </trkpt>
      <trkpt lat="48.60645" lon="2.0621">
        <ele>122</ele>
        <time>2022-03-27T15:26:19Z</time>
      </trkpt>
      <trkpt lat="48.60648" lon="2.06211">
        <ele>122</ele>
        <time>2022-03-27T15:26:21Z</time>
      </trkpt>
      <trkpt lat="48.60651" lon="2.06212">
        <ele>122</ele>
        <time>2022-03-27T15:26:23Z</time>
      </trkpt>
      <trkpt lat="48.60654" lon="2.06214">
        <ele>122</ele>
        <time>2022-03-27T15:26:25Z</time>
      </trkpt>
      <trkpt lat="48.60656" lon="2.06215">
        <ele>122</ele>
        <time>2022-03-27T15:26:26Z</time>
      </trkpt>
      <trkpt lat="48.60658" lon="2.06216">
        <ele>122</ele>
        <time>2022-03-27T15:26:27Z</time>
      </trkpt>
      <trkpt lat="48.60661" lon="2.06217">
        <ele>122</ele>
        <time>2022-03-27T15:26:29Z</time>
      </trkpt>
      <trkpt lat="48.60664" lon="2.06217">
        <ele>123</ele>
        <time>2022-03-27T15:26:31Z</time>
      </trkpt>
      <trkpt lat="48.60667" lon="2.06218">
        <ele>122</ele>
        <time>2022-03-27T15:26:33Z</time>
      </trkpt>
      <trkpt lat="48.6067" lon="2.06218">
        <ele>122</ele>
        <time>2022-03-27T15:26:35Z</time>
      </trkpt>
      <trkpt lat="48.60672" lon="2.06219">
        <ele>122</ele>
        <time>2022-03-27T15:26:37Z</time>
      </trkpt>
      <trkpt lat="48.60675" lon="2.0622">
        <ele>122</ele>
        <time>2022-03-27T15:26:39Z</time>
      </trkpt>
      <trkpt lat="48.60677" lon="2.06221">
        <ele>122</ele>
        <time>2022-03-27T15:26:40Z</time>
      </trkpt>
      <trkpt lat="48.6068" lon="2.06222">
        <ele>122</ele>
        <time>2022-03-27T15:26:42Z</time>
      </trkpt>
      <trkpt lat="48.60683" lon="2.06222">
        <ele>122</ele>
        <time>2022-03-27T15:26:44Z</time>
      </trkpt>
      <trkpt lat="48.60685" lon="2.06223">
        <ele>122</ele>
        <time>2022-03-27T15:26:46Z</time>
      </trkpt>
      <trkpt lat="48.60687" lon="2.06221">
        <ele>123</ele>
        <time>2022-03-27T15:27:02Z</time>
      </trkpt>
      <trkpt lat="48.60689" lon="2.06219">
        <ele>122</ele>
        <time>2022-03-27T15:27:15Z</time>
      </trkpt>
      <trkpt lat="48.60691" lon="2.0622">
        <ele>122</ele>
        <time>2022-03-27T15:27:17Z</time>
      </trkpt>
      <trkpt lat="48.60693" lon="2.06221">
        <ele>122</ele>
        <time>2022-03-27T15:27:19Z</time>
      </trkpt>
      <trkpt lat="48.60695" lon="2.06221">
        <ele>122</ele>
        <time>2022-03-27T15:27:21Z</time>
      </trkpt>
      <trkpt lat="48.60697" lon="2.06221">
        <ele>123</ele>
        <time>2022-03-27T15:27:23Z</time>
      </trkpt>
      <trkpt lat="48.60699" lon="2.06221">
        <ele>123</ele>
        <time>2022-03-27T15:27:25Z</time>
      </trkpt>
      <trkpt lat="48.60702" lon="2.06222">
        <ele>123</ele>
        <time>2022-03-27T15:27:27Z</time>
      </trkpt>
      <trkpt lat="48.60704" lon="2.06222">
        <ele>123</ele>
        <time>2022-03-27T15:27:28Z</time>
      </trkpt>
      <trkpt lat="48.60706" lon="2.06224">
        <ele>123</ele>
        <time>2022-03-27T15:27:29Z</time>
      </trkpt>
      <trkpt lat="48.60709" lon="2.06226">
        <ele>123</ele>
        <time>2022-03-27T15:27:31Z</time>
      </trkpt>
      <trkpt lat="48.6071" lon="2.06227">
        <ele>123</ele>
        <time>2022-03-27T15:27:32Z</time>
      </trkpt>
      <trkpt lat="48.60713" lon="2.06228">
        <ele>123</ele>
        <time>2022-03-27T15:27:34Z</time>
      </trkpt>
      <trkpt lat="48.60717" lon="2.0623">
        <ele>123</ele>
        <time>2022-03-27T15:27:36Z</time>
      </trkpt>
      <trkpt lat="48.6072" lon="2.06231">
        <ele>123</ele>
        <time>2022-03-27T15:27:38Z</time>
      </trkpt>
      <trkpt lat="48.60723" lon="2.06232">
        <ele>123</ele>
        <time>2022-03-27T15:27:40Z</time>
      </trkpt>
      <trkpt lat="48.60726" lon="2.06235">
        <ele>124</ele>
        <time>2022-03-27T15:27:42Z</time>
      </trkpt>
      <trkpt lat="48.60728" lon="2.06238">
        <ele>124</ele>
        <time>2022-03-27T15:27:44Z</time>
      </trkpt>
      <trkpt lat="48.60729" lon="2.0624">
        <ele>124</ele>
        <time>2022-03-27T15:27:45Z</time>
      </trkpt>
      <trkpt lat="48.60731" lon="2.06242">
        <ele>124</ele>
        <time>2022-03-27T15:27:46Z</time>
      </trkpt>
      <trkpt lat="48.60732" lon="2.06244">
        <ele>124</ele>
        <time>2022-03-27T15:27:47Z</time>
      </trkpt>
      <trkpt lat="48.60734" lon="2.06246">
        <ele>125</ele>
        <time>2022-03-27T15:27:48Z</time>
      </trkpt>
      <trkpt lat="48.60735" lon="2.06249">
        <ele>125</ele>
        <time>2022-03-27T15:27:50Z</time>
      </trkpt>
      <trkpt lat="48.60735" lon="2.06252">
        <ele>125</ele>
        <time>2022-03-27T15:27:52Z</time>
      </trkpt>
      <trkpt lat="48.60736" lon="2.06255">
        <ele>125</ele>
        <time>2022-03-27T15:27:54Z</time>
      </trkpt>
      <trkpt lat="48.60736" lon="2.06259">
        <ele>126</ele>
        <time>2022-03-27T15:27:56Z</time>
      </trkpt>
      <trkpt lat="48.60735" lon="2.06262">
        <ele>126</ele>
        <time>2022-03-27T15:27:58Z</time>
      </trkpt>
      <trkpt lat="48.60736" lon="2.06265">
        <ele>127</ele>
        <time>2022-03-27T15:28:01Z</time>
      </trkpt>
      <trkpt lat="48.60737" lon="2.0627">
        <ele>126</ele>
        <time>2022-03-27T15:28:03Z</time>
      </trkpt>
      <trkpt lat="48.60736" lon="2.06275">
        <ele>126</ele>
        <time>2022-03-27T15:28:05Z</time>
      </trkpt>
      <trkpt lat="48.60735" lon="2.06278">
        <ele>126</ele>
        <time>2022-03-27T15:28:06Z</time>
      </trkpt>
      <trkpt lat="48.60734" lon="2.06282">
        <ele>126</ele>
        <time>2022-03-27T15:28:07Z</time>
      </trkpt>
      <trkpt lat="48.60733" lon="2.06285">
        <ele>126</ele>
        <time>2022-03-27T15:28:08Z</time>
      </trkpt>
      <trkpt lat="48.60731" lon="2.06288">
        <ele>127</ele>
        <time>2022-03-27T15:28:09Z</time>
      </trkpt>
      <trkpt lat="48.6073" lon="2.0629">
        <ele>127</ele>
        <time>2022-03-27T15:28:10Z</time>
      </trkpt>
      <trkpt lat="48.60728" lon="2.06293">
        <ele>127</ele>
        <time>2022-03-27T15:28:11Z</time>
      </trkpt>
      <trkpt lat="48.60727" lon="2.06296">
        <ele>127</ele>
        <time>2022-03-27T15:28:12Z</time>
      </trkpt>
      <trkpt lat="48.60726" lon="2.06299">
        <ele>127</ele>
        <time>2022-03-27T15:28:13Z</time>
      </trkpt>
      <trkpt lat="48.60725" lon="2.06301">
        <ele>127</ele>
        <time>2022-03-27T15:28:14Z</time>
      </trkpt>
      <trkpt lat="48.60723" lon="2.06306">
        <ele>127</ele>
        <time>2022-03-27T15:28:16Z</time>
      </trkpt>
      <trkpt lat="48.60722" lon="2.06308">
        <ele>127</ele>
        <time>2022-03-27T15:28:17Z</time>
      </trkpt>
      <trkpt lat="48.60721" lon="2.0631">
        <ele>128</ele>
        <time>2022-03-27T15:28:18Z</time>
      </trkpt>
      <trkpt lat="48.6072" lon="2.06312">
        <ele>128</ele>
        <time>2022-03-27T15:28:19Z</time>
      </trkpt>
      <trkpt lat="48.60719" lon="2.06315">
        <ele>128</ele>
        <time>2022-03-27T15:28:20Z</time>
      </trkpt>
      <trkpt lat="48.60717" lon="2.06318">
        <ele>128</ele>
        <time>2022-03-27T15:28:21Z</time>
      </trkpt>
      <trkpt lat="48.60716" lon="2.06321">
        <ele>128</ele>
        <time>2022-03-27T15:28:22Z</time>
      </trkpt>
      <trkpt lat="48.60715" lon="2.06325">
        <ele>128</ele>
        <time>2022-03-27T15:28:24Z</time>
      </trkpt>
      <trkpt lat="48.60714" lon="2.06328">
        <ele>128</ele>
        <time>2022-03-27T15:28:25Z</time>
      </trkpt>
      <trkpt lat="48.60712" lon="2.06332">
        <ele>128</ele>
        <time>2022-03-27T15:28:27Z</time>
      </trkpt>
      <trkpt lat="48.60711" lon="2.06334">
        <ele>128</ele>
        <time>2022-03-27T15:28:28Z</time>
      </trkpt>
      <trkpt lat="48.60708" lon="2.06338">
        <ele>128</ele>
        <time>2022-03-27T15:28:30Z</time>
      </trkpt>
      <trkpt lat="48.60706" lon="2.06341">
        <ele>128</ele>
        <time>2022-03-27T15:28:32Z</time>
      </trkpt>
      <trkpt lat="48.60704" lon="2.06345">
        <ele>127</ele>
        <time>2022-03-27T15:28:34Z</time>
      </trkpt>
      <trkpt lat="48.60703" lon="2.06348">
        <ele>127</ele>
        <time>2022-03-27T15:28:35Z</time>
      </trkpt>
      <trkpt lat="48.60701" lon="2.06352">
        <ele>128</ele>
        <time>2022-03-27T15:28:37Z</time>
      </trkpt>
      <trkpt lat="48.607" lon="2.06354">
        <ele>128</ele>
        <time>2022-03-27T15:28:38Z</time>
      </trkpt>
      <trkpt lat="48.60699" lon="2.06359">
        <ele>128</ele>
        <time>2022-03-27T15:28:40Z</time>
      </trkpt>
      <trkpt lat="48.60698" lon="2.06362">
        <ele>128</ele>
        <time>2022-03-27T15:28:42Z</time>
      </trkpt>
      <trkpt lat="48.60697" lon="2.06365">
        <ele>128</ele>
        <time>2022-03-27T15:28:44Z</time>
      </trkpt>
      <trkpt lat="48.60696" lon="2.06367">
        <ele>128</ele>
        <time>2022-03-27T15:28:46Z</time>
      </trkpt>
      <trkpt lat="48.60695" lon="2.06371">
        <ele>128</ele>
        <time>2022-03-27T15:28:48Z</time>
      </trkpt>
      <trkpt lat="48.60694" lon="2.06375">
        <ele>128</ele>
        <time>2022-03-27T15:28:50Z</time>
      </trkpt>
      <trkpt lat="48.60692" lon="2.06379">
        <ele>127</ele>
        <time>2022-03-27T15:28:52Z</time>
      </trkpt>
      <trkpt lat="48.6069" lon="2.06383">
        <ele>127</ele>
        <time>2022-03-27T15:28:54Z</time>
      </trkpt>
      <trkpt lat="48.60688" lon="2.06386">
        <ele>128</ele>
        <time>2022-03-27T15:28:55Z</time>
      </trkpt>
      <trkpt lat="48.60687" lon="2.06389">
        <ele>128</ele>
        <time>2022-03-27T15:28:56Z</time>
      </trkpt>
      <trkpt lat="48.60684" lon="2.06392">
        <ele>128</ele>
        <time>2022-03-27T15:28:58Z</time>
      </trkpt>
      <trkpt lat="48.60683" lon="2.06394">
        <ele>128</ele>
        <time>2022-03-27T15:28:59Z</time>
      </trkpt>
      <trkpt lat="48.60681" lon="2.06396">
        <ele>128</ele>
        <time>2022-03-27T15:29:00Z</time>
      </trkpt>
      <trkpt lat="48.60679" lon="2.06398">
        <ele>128</ele>
        <time>2022-03-27T15:29:01Z</time>
      </trkpt>
      <trkpt lat="48.60678" lon="2.064">
        <ele>128</ele>
        <time>2022-03-27T15:29:02Z</time>
      </trkpt>
      <trkpt lat="48.60677" lon="2.06402">
        <ele>128</ele>
        <time>2022-03-27T15:29:03Z</time>
      </trkpt>
      <trkpt lat="48.60675" lon="2.06406">
        <ele>128</ele>
        <time>2022-03-27T15:29:05Z</time>
      </trkpt>
      <trkpt lat="48.60674" lon="2.0641">
        <ele>128</ele>
        <time>2022-03-27T15:29:07Z</time>
      </trkpt>
      <trkpt lat="48.60672" lon="2.06413">
        <ele>129</ele>
        <time>2022-03-27T15:29:09Z</time>
      </trkpt>
      <trkpt lat="48.6067" lon="2.06417">
        <ele>129</ele>
        <time>2022-03-27T15:29:11Z</time>
      </trkpt>
      <trkpt lat="48.60668" lon="2.06422">
        <ele>129</ele>
        <time>2022-03-27T15:29:13Z</time>
      </trkpt>
      <trkpt lat="48.60666" lon="2.06426">
        <ele>130</ele>
        <time>2022-03-27T15:29:15Z</time>
      </trkpt>
      <trkpt lat="48.60664" lon="2.0643">
        <ele>130</ele>
        <time>2022-03-27T15:29:17Z</time>
      </trkpt>
      <trkpt lat="48.60663" lon="2.06432">
        <ele>129</ele>
        <time>2022-03-27T15:29:18Z</time>
      </trkpt>
      <trkpt lat="48.60662" lon="2.06435">
        <ele>129</ele>
        <time>2022-03-27T15:29:19Z</time>
      </trkpt>
      <trkpt lat="48.6066" lon="2.06439">
        <ele>129</ele>
        <time>2022-03-27T15:29:21Z</time>
      </trkpt>
      <trkpt lat="48.60658" lon="2.06443">
        <ele>129</ele>
        <time>2022-03-27T15:29:23Z</time>
      </trkpt>
      <trkpt lat="48.60655" lon="2.06446">
        <ele>130</ele>
        <time>2022-03-27T15:29:25Z</time>
      </trkpt>
      <trkpt lat="48.60654" lon="2.06449">
        <ele>130</ele>
        <time>2022-03-27T15:29:27Z</time>
      </trkpt>
      <trkpt lat="48.60654" lon="2.06453">
        <ele>130</ele>
        <time>2022-03-27T15:29:28Z</time>
      </trkpt>
      <trkpt lat="48.60653" lon="2.06457">
        <ele>130</ele>
        <time>2022-03-27T15:29:31Z</time>
      </trkpt>
      <trkpt lat="48.6065" lon="2.06461">
        <ele>130</ele>
        <time>2022-03-27T15:29:33Z</time>
      </trkpt>
      <trkpt lat="48.60648" lon="2.06463">
        <ele>130</ele>
        <time>2022-03-27T15:29:35Z</time>
      </trkpt>
      <trkpt lat="48.60647" lon="2.06467">
        <ele>130</ele>
        <time>2022-03-27T15:29:37Z</time>
      </trkpt>
      <trkpt lat="48.60645" lon="2.0647">
        <ele>130</ele>
        <time>2022-03-27T15:29:39Z</time>
      </trkpt>
      <trkpt lat="48.60643" lon="2.06474">
        <ele>130</ele>
        <time>2022-03-27T15:29:41Z</time>
      </trkpt>
      <trkpt lat="48.60641" lon="2.06478">
        <ele>130</ele>
        <time>2022-03-27T15:29:43Z</time>
      </trkpt>
      <trkpt lat="48.6064" lon="2.06481">
        <ele>130</ele>
        <time>2022-03-27T15:29:44Z</time>
      </trkpt>
      <trkpt lat="48.60639" lon="2.06483">
        <ele>130</ele>
        <time>2022-03-27T15:29:45Z</time>
      </trkpt>
      <trkpt lat="48.60638" lon="2.06485">
        <ele>130</ele>
        <time>2022-03-27T15:29:46Z</time>
      </trkpt>
      <trkpt lat="48.60637" lon="2.06488">
        <ele>129</ele>
        <time>2022-03-27T15:29:48Z</time>
      </trkpt>
      <trkpt lat="48.60635" lon="2.06491">
        <ele>129</ele>
        <time>2022-03-27T15:29:50Z</time>
      </trkpt>
      <trkpt lat="48.60634" lon="2.06495">
        <ele>130</ele>
        <time>2022-03-27T15:29:52Z</time>
      </trkpt>
      <trkpt lat="48.60632" lon="2.06498">
        <ele>130</ele>
        <time>2022-03-27T15:29:53Z</time>
      </trkpt>
      <trkpt lat="48.60631" lon="2.065">
        <ele>129</ele>
        <time>2022-03-27T15:29:54Z</time>
      </trkpt>
      <trkpt lat="48.60629" lon="2.06504">
        <ele>129</ele>
        <time>2022-03-27T15:29:56Z</time>
      </trkpt>
      <trkpt lat="48.60628" lon="2.06507">
        <ele>130</ele>
        <time>2022-03-27T15:29:58Z</time>
      </trkpt>
      <trkpt lat="48.60626" lon="2.06511">
        <ele>130</ele>
        <time>2022-03-27T15:30:00Z</time>
      </trkpt>
      <trkpt lat="48.60625" lon="2.06514">
        <ele>130</ele>
        <time>2022-03-27T15:30:02Z</time>
      </trkpt>
      <trkpt lat="48.60624" lon="2.06517">
        <ele>130</ele>
        <time>2022-03-27T15:30:04Z</time>
      </trkpt>
      <trkpt lat="48.60624" lon="2.0652">
        <ele>130</ele>
        <time>2022-03-27T15:30:06Z</time>
      </trkpt>
      <trkpt lat="48.60623" lon="2.06524">
        <ele>130</ele>
        <time>2022-03-27T15:30:08Z</time>
      </trkpt>
      <trkpt lat="48.60622" lon="2.06528">
        <ele>130</ele>
        <time>2022-03-27T15:30:10Z</time>
      </trkpt>
      <trkpt lat="48.6062" lon="2.06532">
        <ele>130</ele>
        <time>2022-03-27T15:30:12Z</time>
      </trkpt>
      <trkpt lat="48.60619" lon="2.06535">
        <ele>130</ele>
        <time>2022-03-27T15:30:14Z</time>
      </trkpt>
      <trkpt lat="48.60618" lon="2.06539">
        <ele>131</ele>
        <time>2022-03-27T15:30:16Z</time>
      </trkpt>
      <trkpt lat="48.60616" lon="2.06544">
        <ele>131</ele>
        <time>2022-03-27T15:30:18Z</time>
      </trkpt>
      <trkpt lat="48.60615" lon="2.06547">
        <ele>131</ele>
        <time>2022-03-27T15:30:20Z</time>
      </trkpt>
      <trkpt lat="48.60614" lon="2.06551">
        <ele>131</ele>
        <time>2022-03-27T15:30:22Z</time>
      </trkpt>
      <trkpt lat="48.60612" lon="2.06555">
        <ele>131</ele>
        <time>2022-03-27T15:30:24Z</time>
      </trkpt>
      <trkpt lat="48.60611" lon="2.06559">
        <ele>131</ele>
        <time>2022-03-27T15:30:26Z</time>
      </trkpt>
      <trkpt lat="48.6061" lon="2.06563">
        <ele>131</ele>
        <time>2022-03-27T15:30:28Z</time>
      </trkpt>
      <trkpt lat="48.60609" lon="2.06566">
        <ele>131</ele>
        <time>2022-03-27T15:30:29Z</time>
      </trkpt>
      <trkpt lat="48.60608" lon="2.06569">
        <ele>131</ele>
        <time>2022-03-27T15:30:30Z</time>
      </trkpt>
      <trkpt lat="48.60608" lon="2.06573">
        <ele>131</ele>
        <time>2022-03-27T15:30:32Z</time>
      </trkpt>
      <trkpt lat="48.60607" lon="2.06577">
        <ele>131</ele>
        <time>2022-03-27T15:30:34Z</time>
      </trkpt>
      <trkpt lat="48.60607" lon="2.06582">
        <ele>131</ele>
        <time>2022-03-27T15:30:36Z</time>
      </trkpt>
      <trkpt lat="48.60605" lon="2.06587">
        <ele>131</ele>
        <time>2022-03-27T15:30:38Z</time>
      </trkpt>
      <trkpt lat="48.60604" lon="2.06589">
        <ele>131</ele>
        <time>2022-03-27T15:30:39Z</time>
      </trkpt>
      <trkpt lat="48.60603" lon="2.06593">
        <ele>130</ele>
        <time>2022-03-27T15:30:41Z</time>
      </trkpt>
      <trkpt lat="48.60603" lon="2.06597">
        <ele>130</ele>
        <time>2022-03-27T15:30:43Z</time>
      </trkpt>
      <trkpt lat="48.60602" lon="2.06601">
        <ele>130</ele>
        <time>2022-03-27T15:30:45Z</time>
      </trkpt>
      <trkpt lat="48.60602" lon="2.06604">
        <ele>130</ele>
        <time>2022-03-27T15:30:47Z</time>
      </trkpt>
      <trkpt lat="48.60602" lon="2.06608">
        <ele>130</ele>
        <time>2022-03-27T15:30:49Z</time>
      </trkpt>
      <trkpt lat="48.606" lon="2.06612">
        <ele>130</ele>
        <time>2022-03-27T15:30:51Z</time>
      </trkpt>
      <trkpt lat="48.606" lon="2.06616">
        <ele>129</ele>
        <time>2022-03-27T15:30:53Z</time>
      </trkpt>
      <trkpt lat="48.60599" lon="2.0662">
        <ele>130</ele>
        <time>2022-03-27T15:30:55Z</time>
      </trkpt>
      <trkpt lat="48.60599" lon="2.06623">
        <ele>130</ele>
        <time>2022-03-27T15:30:57Z</time>
      </trkpt>
      <trkpt lat="48.60599" lon="2.06628">
        <ele>130</ele>
        <time>2022-03-27T15:30:59Z</time>
      </trkpt>
      <trkpt lat="48.60598" lon="2.06632">
        <ele>130</ele>
        <time>2022-03-27T15:31:01Z</time>
      </trkpt>
      <trkpt lat="48.60598" lon="2.06635">
        <ele>131</ele>
        <time>2022-03-27T15:31:03Z</time>
      </trkpt>
      <trkpt lat="48.60598" lon="2.0664">
        <ele>131</ele>
        <time>2022-03-27T15:31:05Z</time>
      </trkpt>
      <trkpt lat="48.60597" lon="2.06645">
        <ele>130</ele>
        <time>2022-03-27T15:31:07Z</time>
      </trkpt>
      <trkpt lat="48.60596" lon="2.0665">
        <ele>131</ele>
        <time>2022-03-27T15:31:09Z</time>
      </trkpt>
      <trkpt lat="48.60595" lon="2.06655">
        <ele>130</ele>
        <time>2022-03-27T15:31:11Z</time>
      </trkpt>
      <trkpt lat="48.60594" lon="2.0666">
        <ele>129</ele>
        <time>2022-03-27T15:31:13Z</time>
      </trkpt>
      <trkpt lat="48.60594" lon="2.06663">
        <ele>129</ele>
        <time>2022-03-27T15:31:14Z</time>
      </trkpt>
      <trkpt lat="48.60593" lon="2.06666">
        <ele>129</ele>
        <time>2022-03-27T15:31:15Z</time>
      </trkpt>
      <trkpt lat="48.60592" lon="2.06669">
        <ele>129</ele>
        <time>2022-03-27T15:31:16Z</time>
      </trkpt>
      <trkpt lat="48.60591" lon="2.06672">
        <ele>128</ele>
        <time>2022-03-27T15:31:17Z</time>
      </trkpt>
      <trkpt lat="48.6059" lon="2.06675">
        <ele>128</ele>
        <time>2022-03-27T15:31:18Z</time>
      </trkpt>
      <trkpt lat="48.60589" lon="2.0668">
        <ele>128</ele>
        <time>2022-03-27T15:31:20Z</time>
      </trkpt>
      <trkpt lat="48.60588" lon="2.06684">
        <ele>128</ele>
        <time>2022-03-27T15:31:22Z</time>
      </trkpt>
      <trkpt lat="48.60587" lon="2.06688">
        <ele>128</ele>
        <time>2022-03-27T15:31:24Z</time>
      </trkpt>
      <trkpt lat="48.60586" lon="2.06693">
        <ele>128</ele>
        <time>2022-03-27T15:31:26Z</time>
      </trkpt>
      <trkpt lat="48.60585" lon="2.06696">
        <ele>128</ele>
        <time>2022-03-27T15:31:27Z</time>
      </trkpt>
      <trkpt lat="48.60584" lon="2.067">
        <ele>128</ele>
        <time>2022-03-27T15:31:29Z</time>
      </trkpt>
      <trkpt lat="48.60583" lon="2.06703">
        <ele>128</ele>
        <time>2022-03-27T15:31:30Z</time>
      </trkpt>
      <trkpt lat="48.60582" lon="2.06705">
        <ele>128</ele>
        <time>2022-03-27T15:31:31Z</time>
      </trkpt>
      <trkpt lat="48.60581" lon="2.06711">
        <ele>128</ele>
        <time>2022-03-27T15:31:33Z</time>
      </trkpt>
      <trkpt lat="48.6058" lon="2.06713">
        <ele>127</ele>
        <time>2022-03-27T15:31:34Z</time>
      </trkpt>
      <trkpt lat="48.60578" lon="2.06716">
        <ele>127</ele>
        <time>2022-03-27T15:31:35Z</time>
      </trkpt>
      <trkpt lat="48.60577" lon="2.06718">
        <ele>127</ele>
        <time>2022-03-27T15:31:36Z</time>
      </trkpt>
      <trkpt lat="48.60576" lon="2.06721">
        <ele>126</ele>
        <time>2022-03-27T15:31:37Z</time>
      </trkpt>
      <trkpt lat="48.60575" lon="2.06723">
        <ele>126</ele>
        <time>2022-03-27T15:31:38Z</time>
      </trkpt>
      <trkpt lat="48.60573" lon="2.06727">
        <ele>126</ele>
        <time>2022-03-27T15:31:40Z</time>
      </trkpt>
      <trkpt lat="48.60572" lon="2.06731">
        <ele>126</ele>
        <time>2022-03-27T15:31:42Z</time>
      </trkpt>
      <trkpt lat="48.6057" lon="2.06734">
        <ele>126</ele>
        <time>2022-03-27T15:31:44Z</time>
      </trkpt>
      <trkpt lat="48.60568" lon="2.06738">
        <ele>126</ele>
        <time>2022-03-27T15:31:46Z</time>
      </trkpt>
      <trkpt lat="48.60566" lon="2.06743">
        <ele>126</ele>
        <time>2022-03-27T15:31:48Z</time>
      </trkpt>
      <trkpt lat="48.60565" lon="2.06747">
        <ele>125</ele>
        <time>2022-03-27T15:31:50Z</time>
      </trkpt>
      <trkpt lat="48.60564" lon="2.06752">
        <ele>125</ele>
        <time>2022-03-27T15:31:52Z</time>
      </trkpt>
      <trkpt lat="48.60562" lon="2.06755">
        <ele>125</ele>
        <time>2022-03-27T15:31:54Z</time>
      </trkpt>
      <trkpt lat="48.60562" lon="2.06758">
        <ele>125</ele>
        <time>2022-03-27T15:31:56Z</time>
      </trkpt>
      <trkpt lat="48.60561" lon="2.06763">
        <ele>125</ele>
        <time>2022-03-27T15:31:58Z</time>
      </trkpt>
      <trkpt lat="48.6056" lon="2.06767">
        <ele>125</ele>
        <time>2022-03-27T15:32:00Z</time>
      </trkpt>
      <trkpt lat="48.60558" lon="2.06772">
        <ele>125</ele>
        <time>2022-03-27T15:32:02Z</time>
      </trkpt>
      <trkpt lat="48.60557" lon="2.06774">
        <ele>125</ele>
        <time>2022-03-27T15:32:03Z</time>
      </trkpt>
      <trkpt lat="48.60556" lon="2.06779">
        <ele>124</ele>
        <time>2022-03-27T15:32:05Z</time>
      </trkpt>
      <trkpt lat="48.60555" lon="2.06784">
        <ele>124</ele>
        <time>2022-03-27T15:32:07Z</time>
      </trkpt>
      <trkpt lat="48.60553" lon="2.06789">
        <ele>123</ele>
        <time>2022-03-27T15:32:09Z</time>
      </trkpt>
      <trkpt lat="48.60551" lon="2.06794">
        <ele>123</ele>
        <time>2022-03-27T15:32:11Z</time>
      </trkpt>
      <trkpt lat="48.60549" lon="2.06797">
        <ele>123</ele>
        <time>2022-03-27T15:32:13Z</time>
      </trkpt>
      <trkpt lat="48.60547" lon="2.06801">
        <ele>122</ele>
        <time>2022-03-27T15:32:15Z</time>
      </trkpt>
      <trkpt lat="48.60545" lon="2.06805">
        <ele>122</ele>
        <time>2022-03-27T15:32:17Z</time>
      </trkpt>
      <trkpt lat="48.60544" lon="2.0681">
        <ele>122</ele>
        <time>2022-03-27T15:32:19Z</time>
      </trkpt>
      <trkpt lat="48.60543" lon="2.06812">
        <ele>122</ele>
        <time>2022-03-27T15:32:20Z</time>
      </trkpt>
      <trkpt lat="48.60542" lon="2.06817">
        <ele>121</ele>
        <time>2022-03-27T15:32:22Z</time>
      </trkpt>
      <trkpt lat="48.6054" lon="2.06821">
        <ele>121</ele>
        <time>2022-03-27T15:32:24Z</time>
      </trkpt>
      <trkpt lat="48.60538" lon="2.06825">
        <ele>121</ele>
        <time>2022-03-27T15:32:26Z</time>
      </trkpt>
      <trkpt lat="48.60537" lon="2.0683">
        <ele>120</ele>
        <time>2022-03-27T15:32:28Z</time>
      </trkpt>
      <trkpt lat="48.60535" lon="2.06834">
        <ele>120</ele>
        <time>2022-03-27T15:32:30Z</time>
      </trkpt>
      <trkpt lat="48.60533" lon="2.06837">
        <ele>119</ele>
        <time>2022-03-27T15:32:32Z</time>
      </trkpt>
      <trkpt lat="48.60531" lon="2.06842">
        <ele>118</ele>
        <time>2022-03-27T15:32:34Z</time>
      </trkpt>
      <trkpt lat="48.6053" lon="2.06846">
        <ele>118</ele>
        <time>2022-03-27T15:32:36Z</time>
      </trkpt>
      <trkpt lat="48.60529" lon="2.0685">
        <ele>118</ele>
        <time>2022-03-27T15:32:38Z</time>
      </trkpt>
      <trkpt lat="48.60527" lon="2.06854">
        <ele>118</ele>
        <time>2022-03-27T15:32:40Z</time>
      </trkpt>
      <trkpt lat="48.60526" lon="2.06858">
        <ele>117</ele>
        <time>2022-03-27T15:32:42Z</time>
      </trkpt>
      <trkpt lat="48.60525" lon="2.06861">
        <ele>117</ele>
        <time>2022-03-27T15:32:44Z</time>
      </trkpt>
      <trkpt lat="48.60524" lon="2.06866">
        <ele>117</ele>
        <time>2022-03-27T15:32:46Z</time>
      </trkpt>
      <trkpt lat="48.60523" lon="2.0687">
        <ele>117</ele>
        <time>2022-03-27T15:32:48Z</time>
      </trkpt>
      <trkpt lat="48.60522" lon="2.06874">
        <ele>118</ele>
        <time>2022-03-27T15:32:50Z</time>
      </trkpt>
      <trkpt lat="48.60521" lon="2.06879">
        <ele>118</ele>
        <time>2022-03-27T15:32:52Z</time>
      </trkpt>
      <trkpt lat="48.6052" lon="2.06882">
        <ele>118</ele>
        <time>2022-03-27T15:32:53Z</time>
      </trkpt>
      <trkpt lat="48.6052" lon="2.06885">
        <ele>117</ele>
        <time>2022-03-27T15:32:54Z</time>
      </trkpt>
      <trkpt lat="48.60518" lon="2.0689">
        <ele>117</ele>
        <time>2022-03-27T15:32:56Z</time>
      </trkpt>
      <trkpt lat="48.60518" lon="2.06893">
        <ele>117</ele>
        <time>2022-03-27T15:32:57Z</time>
      </trkpt>
      <trkpt lat="48.60517" lon="2.06895">
        <ele>117</ele>
        <time>2022-03-27T15:32:58Z</time>
      </trkpt>
      <trkpt lat="48.60516" lon="2.069">
        <ele>117</ele>
        <time>2022-03-27T15:33:00Z</time>
      </trkpt>
      <trkpt lat="48.60516" lon="2.06905">
        <ele>116</ele>
        <time>2022-03-27T15:33:02Z</time>
      </trkpt>
      <trkpt lat="48.60515" lon="2.0691">
        <ele>116</ele>
        <time>2022-03-27T15:33:04Z</time>
      </trkpt>
      <trkpt lat="48.60514" lon="2.06915">
        <ele>115</ele>
        <time>2022-03-27T15:33:06Z</time>
      </trkpt>
      <trkpt lat="48.60513" lon="2.06919">
        <ele>115</ele>
        <time>2022-03-27T15:33:08Z</time>
      </trkpt>
      <trkpt lat="48.60511" lon="2.06924">
        <ele>115</ele>
        <time>2022-03-27T15:33:10Z</time>
      </trkpt>
      <trkpt lat="48.6051" lon="2.06928">
        <ele>114</ele>
        <time>2022-03-27T15:33:12Z</time>
      </trkpt>
      <trkpt lat="48.60509" lon="2.06933">
        <ele>114</ele>
        <time>2022-03-27T15:33:14Z</time>
      </trkpt>
      <trkpt lat="48.60509" lon="2.06938">
        <ele>115</ele>
        <time>2022-03-27T15:33:16Z</time>
      </trkpt>
      <trkpt lat="48.60508" lon="2.06942">
        <ele>114</ele>
        <time>2022-03-27T15:33:18Z</time>
      </trkpt>
      <trkpt lat="48.60507" lon="2.06946">
        <ele>114</ele>
        <time>2022-03-27T15:33:20Z</time>
      </trkpt>
      <trkpt lat="48.60506" lon="2.0695">
        <ele>114</ele>
        <time>2022-03-27T15:33:22Z</time>
      </trkpt>
      <trkpt lat="48.60505" lon="2.06953">
        <ele>113</ele>
        <time>2022-03-27T15:33:24Z</time>
      </trkpt>
      <trkpt lat="48.60504" lon="2.06958">
        <ele>113</ele>
        <time>2022-03-27T15:33:26Z</time>
      </trkpt>
      <trkpt lat="48.60502" lon="2.06962">
        <ele>112</ele>
        <time>2022-03-27T15:33:28Z</time>
      </trkpt>
      <trkpt lat="48.60501" lon="2.06966">
        <ele>112</ele>
        <time>2022-03-27T15:33:30Z</time>
      </trkpt>
      <trkpt lat="48.605" lon="2.0697">
        <ele>113</ele>
        <time>2022-03-27T15:33:32Z</time>
      </trkpt>
      <trkpt lat="48.605" lon="2.06973">
        <ele>113</ele>
        <time>2022-03-27T15:33:34Z</time>
      </trkpt>
      <trkpt lat="48.60499" lon="2.06977">
        <ele>113</ele>
        <time>2022-03-27T15:33:37Z</time>
      </trkpt>
      <trkpt lat="48.60499" lon="2.0698">
        <ele>113</ele>
        <time>2022-03-27T15:33:40Z</time>
      </trkpt>
      <trkpt lat="48.60498" lon="2.06982">
        <ele>113</ele>
        <time>2022-03-27T15:33:44Z</time>
      </trkpt>
      <trkpt lat="48.60498" lon="2.06985">
        <ele>113</ele>
        <time>2022-03-27T15:33:57Z</time>
      </trkpt>
      <trkpt lat="48.60496" lon="2.06989">
        <ele>114</ele>
        <time>2022-03-27T15:34:00Z</time>
      </trkpt>
      <trkpt lat="48.60495" lon="2.06992">
        <ele>114</ele>
        <time>2022-03-27T15:34:02Z</time>
      </trkpt>
      <trkpt lat="48.60493" lon="2.06996">
        <ele>114</ele>
        <time>2022-03-27T15:34:04Z</time>
      </trkpt>
      <trkpt lat="48.60492" lon="2.07">
        <ele>114</ele>
        <time>2022-03-27T15:34:06Z</time>
      </trkpt>
      <trkpt lat="48.6049" lon="2.07004">
        <ele>114</ele>
        <time>2022-03-27T15:34:08Z</time>
      </trkpt>
      <trkpt lat="48.60489" lon="2.07008">
        <ele>114</ele>
        <time>2022-03-27T15:34:10Z</time>
      </trkpt>
      <trkpt lat="48.60487" lon="2.07012">
        <ele>114</ele>
        <time>2022-03-27T15:34:12Z</time>
      </trkpt>
      <trkpt lat="48.60485" lon="2.07016">
        <ele>114</ele>
        <time>2022-03-27T15:34:14Z</time>
      </trkpt>
      <trkpt lat="48.60484" lon="2.07019">
        <ele>114</ele>
        <time>2022-03-27T15:34:16Z</time>
      </trkpt>
      <trkpt lat="48.60482" lon="2.07023">
        <ele>114</ele>
        <time>2022-03-27T15:34:18Z</time>
      </trkpt>
      <trkpt lat="48.6048" lon="2.07027">
        <ele>114</ele>
        <time>2022-03-27T15:34:20Z</time>
      </trkpt>
      <trkpt lat="48.60478" lon="2.07031">
        <ele>114</ele>
        <time>2022-03-27T15:34:22Z</time>
      </trkpt>
      <trkpt lat="48.60476" lon="2.07035">
        <ele>114</ele>
        <time>2022-03-27T15:34:24Z</time>
      </trkpt>
      <trkpt lat="48.60474" lon="2.07039">
        <ele>114</ele>
        <time>2022-03-27T15:34:26Z</time>
      </trkpt>
      <trkpt lat="48.60472" lon="2.07043">
        <ele>114</ele>
        <time>2022-03-27T15:34:28Z</time>
      </trkpt>
      <trkpt lat="48.60471" lon="2.07047">
        <ele>114</ele>
        <time>2022-03-27T15:34:30Z</time>
      </trkpt>
      <trkpt lat="48.60469" lon="2.07051">
        <ele>114</ele>
        <time>2022-03-27T15:34:32Z</time>
      </trkpt>
      <trkpt lat="48.60468" lon="2.07056">
        <ele>114</ele>
        <time>2022-03-27T15:34:34Z</time>
      </trkpt>
      <trkpt lat="48.60467" lon="2.07061">
        <ele>114</ele>
        <time>2022-03-27T15:34:36Z</time>
      </trkpt>
      <trkpt lat="48.60467" lon="2.07065">
        <ele>115</ele>
        <time>2022-03-27T15:34:38Z</time>
      </trkpt>
      <trkpt lat="48.60467" lon="2.0707">
        <ele>114</ele>
        <time>2022-03-27T15:34:40Z</time>
      </trkpt>
      <trkpt lat="48.60467" lon="2.07074">
        <ele>114</ele>
        <time>2022-03-27T15:34:42Z</time>
      </trkpt>
      <trkpt lat="48.60467" lon="2.07078">
        <ele>114</ele>
        <time>2022-03-27T15:34:44Z</time>
      </trkpt>
      <trkpt lat="48.60468" lon="2.07082">
        <ele>113</ele>
        <time>2022-03-27T15:34:46Z</time>
      </trkpt>
      <trkpt lat="48.60468" lon="2.07087">
        <ele>113</ele>
        <time>2022-03-27T15:34:48Z</time>
      </trkpt>
      <trkpt lat="48.60468" lon="2.07091">
        <ele>113</ele>
        <time>2022-03-27T15:34:50Z</time>
      </trkpt>
      <trkpt lat="48.60468" lon="2.07096">
        <ele>113</ele>
        <time>2022-03-27T15:34:52Z</time>
      </trkpt>
      <trkpt lat="48.60468" lon="2.071">
        <ele>113</ele>
        <time>2022-03-27T15:34:54Z</time>
      </trkpt>
      <trkpt lat="48.60468" lon="2.07105">
        <ele>113</ele>
        <time>2022-03-27T15:34:56Z</time>
      </trkpt>
      <trkpt lat="48.60468" lon="2.07109">
        <ele>112</ele>
        <time>2022-03-27T15:34:58Z</time>
      </trkpt>
      <trkpt lat="48.60469" lon="2.07111">
        <ele>112</ele>
        <time>2022-03-27T15:34:59Z</time>
      </trkpt>
      <trkpt lat="48.60469" lon="2.07116">
        <ele>113</ele>
        <time>2022-03-27T15:35:01Z</time>
      </trkpt>
      <trkpt lat="48.60468" lon="2.07121">
        <ele>113</ele>
        <time>2022-03-27T15:35:03Z</time>
      </trkpt>
      <trkpt lat="48.60468" lon="2.07126">
        <ele>113</ele>
        <time>2022-03-27T15:35:05Z</time>
      </trkpt>
      <trkpt lat="48.60468" lon="2.0713">
        <ele>113</ele>
        <time>2022-03-27T15:35:07Z</time>
      </trkpt>
      <trkpt lat="48.60468" lon="2.07135">
        <ele>112</ele>
        <time>2022-03-27T15:35:09Z</time>
      </trkpt>
      <trkpt lat="48.60468" lon="2.0714">
        <ele>112</ele>
        <time>2022-03-27T15:35:11Z</time>
      </trkpt>
      <trkpt lat="48.60468" lon="2.07144">
        <ele>112</ele>
        <time>2022-03-27T15:35:13Z</time>
      </trkpt>
      <trkpt lat="48.60468" lon="2.07149">
        <ele>112</ele>
        <time>2022-03-27T15:35:15Z</time>
      </trkpt>
      <trkpt lat="48.60468" lon="2.07153">
        <ele>112</ele>
        <time>2022-03-27T15:35:17Z</time>
      </trkpt>
      <trkpt lat="48.60467" lon="2.07158">
        <ele>112</ele>
        <time>2022-03-27T15:35:19Z</time>
      </trkpt>
      <trkpt lat="48.60467" lon="2.07163">
        <ele>112</ele>
        <time>2022-03-27T15:35:21Z</time>
      </trkpt>
      <trkpt lat="48.60467" lon="2.07167">
        <ele>112</ele>
        <time>2022-03-27T15:35:23Z</time>
      </trkpt>
      <trkpt lat="48.60467" lon="2.07172">
        <ele>112</ele>
        <time>2022-03-27T15:35:25Z</time>
      </trkpt>
      <trkpt lat="48.60467" lon="2.07176">
        <ele>112</ele>
        <time>2022-03-27T15:35:27Z</time>
      </trkpt>
      <trkpt lat="48.60467" lon="2.07181">
        <ele>113</ele>
        <time>2022-03-27T15:35:29Z</time>
      </trkpt>
      <trkpt lat="48.60466" lon="2.07186">
        <ele>113</ele>
        <time>2022-03-27T15:35:31Z</time>
      </trkpt>
      <trkpt lat="48.60466" lon="2.07191">
        <ele>113</ele>
        <time>2022-03-27T15:35:33Z</time>
      </trkpt>
      <trkpt lat="48.60467" lon="2.07196">
        <ele>113</ele>
        <time>2022-03-27T15:35:35Z</time>
      </trkpt>
      <trkpt lat="48.60467" lon="2.072">
        <ele>113</ele>
        <time>2022-03-27T15:35:37Z</time>
      </trkpt>
      <trkpt lat="48.60468" lon="2.07205">
        <ele>113</ele>
        <time>2022-03-27T15:35:39Z</time>
      </trkpt>
      <trkpt lat="48.60468" lon="2.07209">
        <ele>113</ele>
        <time>2022-03-27T15:35:41Z</time>
      </trkpt>
      <trkpt lat="48.60468" lon="2.07214">
        <ele>113</ele>
        <time>2022-03-27T15:35:43Z</time>
      </trkpt>
      <trkpt lat="48.60469" lon="2.07219">
        <ele>112</ele>
        <time>2022-03-27T15:35:45Z</time>
      </trkpt>
      <trkpt lat="48.6047" lon="2.07223">
        <ele>113</ele>
        <time>2022-03-27T15:35:47Z</time>
      </trkpt>
      <trkpt lat="48.60471" lon="2.07226">
        <ele>113</ele>
        <time>2022-03-27T15:35:48Z</time>
      </trkpt>
      <trkpt lat="48.60472" lon="2.07231">
        <ele>113</ele>
        <time>2022-03-27T15:35:50Z</time>
      </trkpt>
      <trkpt lat="48.60473" lon="2.07235">
        <ele>113</ele>
        <time>2022-03-27T15:35:52Z</time>
      </trkpt>
      <trkpt lat="48.60475" lon="2.0724">
        <ele>113</ele>
        <time>2022-03-27T15:35:54Z</time>
      </trkpt>
      <trkpt lat="48.60476" lon="2.07245">
        <ele>113</ele>
        <time>2022-03-27T15:35:56Z</time>
      </trkpt>
      <trkpt lat="48.60476" lon="2.07249">
        <ele>113</ele>
        <time>2022-03-27T15:35:58Z</time>
      </trkpt>
      <trkpt lat="48.60476" lon="2.07254">
        <ele>113</ele>
        <time>2022-03-27T15:36:00Z</time>
      </trkpt>
      <trkpt lat="48.60476" lon="2.07259">
        <ele>113</ele>
        <time>2022-03-27T15:36:02Z</time>
      </trkpt>
      <trkpt lat="48.60476" lon="2.07264">
        <ele>113</ele>
        <time>2022-03-27T15:36:04Z</time>
      </trkpt>
      <trkpt lat="48.60476" lon="2.07269">
        <ele>113</ele>
        <time>2022-03-27T15:36:06Z</time>
      </trkpt>
      <trkpt lat="48.60477" lon="2.07274">
        <ele>113</ele>
        <time>2022-03-27T15:36:08Z</time>
      </trkpt>
      <trkpt lat="48.60477" lon="2.07279">
        <ele>113</ele>
        <time>2022-03-27T15:36:10Z</time>
      </trkpt>
      <trkpt lat="48.60478" lon="2.07284">
        <ele>113</ele>
        <time>2022-03-27T15:36:12Z</time>
      </trkpt>
      <trkpt lat="48.60478" lon="2.07289">
        <ele>113</ele>
        <time>2022-03-27T15:36:14Z</time>
      </trkpt>
      <trkpt lat="48.60479" lon="2.07294">
        <ele>113</ele>
        <time>2022-03-27T15:36:16Z</time>
      </trkpt>
      <trkpt lat="48.60479" lon="2.07298">
        <ele>114</ele>
        <time>2022-03-27T15:36:18Z</time>
      </trkpt>
      <trkpt lat="48.60479" lon="2.07304">
        <ele>114</ele>
        <time>2022-03-27T15:36:20Z</time>
      </trkpt>
      <trkpt lat="48.60479" lon="2.07309">
        <ele>114</ele>
        <time>2022-03-27T15:36:22Z</time>
      </trkpt>
      <trkpt lat="48.6048" lon="2.07313">
        <ele>114</ele>
        <time>2022-03-27T15:36:24Z</time>
      </trkpt>
      <trkpt lat="48.6048" lon="2.07318">
        <ele>114</ele>
        <time>2022-03-27T15:36:26Z</time>
      </trkpt>
      <trkpt lat="48.60479" lon="2.07323">
        <ele>114</ele>
        <time>2022-03-27T15:36:28Z</time>
      </trkpt>
      <trkpt lat="48.60479" lon="2.07328">
        <ele>114</ele>
        <time>2022-03-27T15:36:30Z</time>
      </trkpt>
      <trkpt lat="48.60479" lon="2.07333">
        <ele>114</ele>
        <time>2022-03-27T15:36:32Z</time>
      </trkpt>
      <trkpt lat="48.60479" lon="2.07337">
        <ele>114</ele>
        <time>2022-03-27T15:36:34Z</time>
      </trkpt>
      <trkpt lat="48.60479" lon="2.07343">
        <ele>114</ele>
        <time>2022-03-27T15:36:36Z</time>
      </trkpt>
      <trkpt lat="48.6048" lon="2.07348">
        <ele>114</ele>
        <time>2022-03-27T15:36:38Z</time>
      </trkpt>
      <trkpt lat="48.6048" lon="2.07353">
        <ele>114</ele>
        <time>2022-03-27T15:36:40Z</time>
      </trkpt>
      <trkpt lat="48.6048" lon="2.07358">
        <ele>114</ele>
        <time>2022-03-27T15:36:42Z</time>
      </trkpt>
      <trkpt lat="48.6048" lon="2.07363">
        <ele>114</ele>
        <time>2022-03-27T15:36:44Z</time>
      </trkpt>
      <trkpt lat="48.6048" lon="2.07368">
        <ele>114</ele>
        <time>2022-03-27T15:36:46Z</time>
      </trkpt>
      <trkpt lat="48.6048" lon="2.07373">
        <ele>114</ele>
        <time>2022-03-27T15:36:48Z</time>
      </trkpt>
      <trkpt lat="48.60481" lon="2.07377">
        <ele>115</ele>
        <time>2022-03-27T15:36:50Z</time>
      </trkpt>
      <trkpt lat="48.60481" lon="2.07382">
        <ele>115</ele>
        <time>2022-03-27T15:36:52Z</time>
      </trkpt>
      <trkpt lat="48.60481" lon="2.07386">
        <ele>115</ele>
        <time>2022-03-27T15:36:54Z</time>
      </trkpt>
      <trkpt lat="48.60481" lon="2.07391">
        <ele>115</ele>
        <time>2022-03-27T15:36:56Z</time>
      </trkpt>
      <trkpt lat="48.60481" lon="2.07396">
        <ele>115</ele>
        <time>2022-03-27T15:36:58Z</time>
      </trkpt>
      <trkpt lat="48.6048" lon="2.07401">
        <ele>115</ele>
        <time>2022-03-27T15:37:00Z</time>
      </trkpt>
      <trkpt lat="48.6048" lon="2.07406">
        <ele>115</ele>
        <time>2022-03-27T15:37:02Z</time>
      </trkpt>
      <trkpt lat="48.60481" lon="2.0741">
        <ele>115</ele>
        <time>2022-03-27T15:37:04Z</time>
      </trkpt>
      <trkpt lat="48.60481" lon="2.07414">
        <ele>115</ele>
        <time>2022-03-27T15:37:06Z</time>
      </trkpt>
      <trkpt lat="48.60482" lon="2.07418">
        <ele>115</ele>
        <time>2022-03-27T15:37:08Z</time>
      </trkpt>
      <trkpt lat="48.60482" lon="2.07422">
        <ele>116</ele>
        <time>2022-03-27T15:37:10Z</time>
      </trkpt>
      <trkpt lat="48.60482" lon="2.07426">
        <ele>116</ele>
        <time>2022-03-27T15:37:12Z</time>
      </trkpt>
      <trkpt lat="48.60483" lon="2.0743">
        <ele>116</ele>
        <time>2022-03-27T15:37:14Z</time>
      </trkpt>
      <trkpt lat="48.60484" lon="2.07434">
        <ele>116</ele>
        <time>2022-03-27T15:37:16Z</time>
      </trkpt>
      <trkpt lat="48.60485" lon="2.07438">
        <ele>116</ele>
        <time>2022-03-27T15:37:18Z</time>
      </trkpt>
      <trkpt lat="48.60487" lon="2.0744">
        <ele>117</ele>
        <time>2022-03-27T15:37:20Z</time>
      </trkpt>
      <trkpt lat="48.6049" lon="2.07441">
        <ele>117</ele>
        <time>2022-03-27T15:37:22Z</time>
      </trkpt>
      <trkpt lat="48.60493" lon="2.07442">
        <ele>118</ele>
        <time>2022-03-27T15:37:24Z</time>
      </trkpt>
      <trkpt lat="48.60495" lon="2.07442">
        <ele>118</ele>
        <time>2022-03-27T15:37:26Z</time>
      </trkpt>
      <trkpt lat="48.60498" lon="2.07443">
        <ele>118</ele>
        <time>2022-03-27T15:37:28Z</time>
      </trkpt>
      <trkpt lat="48.60501" lon="2.07444">
        <ele>118</ele>
        <time>2022-03-27T15:37:30Z</time>
      </trkpt>
      <trkpt lat="48.60504" lon="2.07445">
        <ele>118</ele>
        <time>2022-03-27T15:37:32Z</time>
      </trkpt>
      <trkpt lat="48.60507" lon="2.07446">
        <ele>118</ele>
        <time>2022-03-27T15:37:34Z</time>
      </trkpt>
      <trkpt lat="48.60511" lon="2.07447">
        <ele>118</ele>
        <time>2022-03-27T15:37:36Z</time>
      </trkpt>
      <trkpt lat="48.60514" lon="2.07448">
        <ele>118</ele>
        <time>2022-03-27T15:37:38Z</time>
      </trkpt>
      <trkpt lat="48.60517" lon="2.07448">
        <ele>118</ele>
        <time>2022-03-27T15:37:40Z</time>
      </trkpt>
      <trkpt lat="48.6052" lon="2.07449">
        <ele>119</ele>
        <time>2022-03-27T15:37:42Z</time>
      </trkpt>
      <trkpt lat="48.60523" lon="2.0745">
        <ele>119</ele>
        <time>2022-03-27T15:37:44Z</time>
      </trkpt>
      <trkpt lat="48.60526" lon="2.07451">
        <ele>119</ele>
        <time>2022-03-27T15:37:46Z</time>
      </trkpt>
      <trkpt lat="48.60529" lon="2.07453">
        <ele>119</ele>
        <time>2022-03-27T15:37:48Z</time>
      </trkpt>
      <trkpt lat="48.60531" lon="2.07454">
        <ele>119</ele>
        <time>2022-03-27T15:37:49Z</time>
      </trkpt>
      <trkpt lat="48.60534" lon="2.07455">
        <ele>120</ele>
        <time>2022-03-27T15:37:51Z</time>
      </trkpt>
      <trkpt lat="48.60537" lon="2.07456">
        <ele>120</ele>
        <time>2022-03-27T15:37:53Z</time>
      </trkpt>
      <trkpt lat="48.6054" lon="2.07457">
        <ele>120</ele>
        <time>2022-03-27T15:37:55Z</time>
      </trkpt>
      <trkpt lat="48.60543" lon="2.07458">
        <ele>120</ele>
        <time>2022-03-27T15:37:57Z</time>
      </trkpt>
      <trkpt lat="48.60545" lon="2.07459">
        <ele>120</ele>
        <time>2022-03-27T15:37:58Z</time>
      </trkpt>
      <trkpt lat="48.60549" lon="2.0746">
        <ele>120</ele>
        <time>2022-03-27T15:38:00Z</time>
      </trkpt>
      <trkpt lat="48.60551" lon="2.07461">
        <ele>120</ele>
        <time>2022-03-27T15:38:01Z</time>
      </trkpt>
      <trkpt lat="48.60553" lon="2.07462">
        <ele>120</ele>
        <time>2022-03-27T15:38:02Z</time>
      </trkpt>
      <trkpt lat="48.60555" lon="2.07462">
        <ele>120</ele>
        <time>2022-03-27T15:38:03Z</time>
      </trkpt>
      <trkpt lat="48.60558" lon="2.07463">
        <ele>120</ele>
        <time>2022-03-27T15:38:04Z</time>
      </trkpt>
      <trkpt lat="48.60561" lon="2.07465">
        <ele>120</ele>
        <time>2022-03-27T15:38:05Z</time>
      </trkpt>
      <trkpt lat="48.60564" lon="2.07466">
        <ele>120</ele>
        <time>2022-03-27T15:38:06Z</time>
      </trkpt>
      <trkpt lat="48.60568" lon="2.07467">
        <ele>119</ele>
        <time>2022-03-27T15:38:07Z</time>
      </trkpt>
      <trkpt lat="48.60571" lon="2.07469">
        <ele>119</ele>
        <time>2022-03-27T15:38:08Z</time>
      </trkpt>
      <trkpt lat="48.60575" lon="2.0747">
        <ele>119</ele>
        <time>2022-03-27T15:38:09Z</time>
      </trkpt>
      <trkpt lat="48.60579" lon="2.07472">
        <ele>119</ele>
        <time>2022-03-27T15:38:10Z</time>
      </trkpt>
      <trkpt lat="48.60583" lon="2.07473">
        <ele>119</ele>
        <time>2022-03-27T15:38:11Z</time>
      </trkpt>
      <trkpt lat="48.60587" lon="2.07474">
        <ele>119</ele>
        <time>2022-03-27T15:38:12Z</time>
      </trkpt>
      <trkpt lat="48.6059" lon="2.07475">
        <ele>119</ele>
        <time>2022-03-27T15:38:13Z</time>
      </trkpt>
      <trkpt lat="48.60594" lon="2.07477">
        <ele>118</ele>
        <time>2022-03-27T15:38:14Z</time>
      </trkpt>
      <trkpt lat="48.60598" lon="2.07478">
        <ele>118</ele>
        <time>2022-03-27T15:38:15Z</time>
      </trkpt>
      <trkpt lat="48.60601" lon="2.07479">
        <ele>118</ele>
        <time>2022-03-27T15:38:16Z</time>
      </trkpt>
      <trkpt lat="48.60605" lon="2.0748">
        <ele>118</ele>
        <time>2022-03-27T15:38:17Z</time>
      </trkpt>
      <trkpt lat="48.60608" lon="2.07482">
        <ele>118</ele>
        <time>2022-03-27T15:38:18Z</time>
      </trkpt>
      <trkpt lat="48.60612" lon="2.07483">
        <ele>118</ele>
        <time>2022-03-27T15:38:19Z</time>
      </trkpt>
      <trkpt lat="48.60616" lon="2.07484">
        <ele>118</ele>
        <time>2022-03-27T15:38:20Z</time>
      </trkpt>
      <trkpt lat="48.60619" lon="2.07486">
        <ele>118</ele>
        <time>2022-03-27T15:38:21Z</time>
      </trkpt>
      <trkpt lat="48.60623" lon="2.07487">
        <ele>117</ele>
        <time>2022-03-27T15:38:22Z</time>
      </trkpt>
      <trkpt lat="48.60627" lon="2.07488">
        <ele>117</ele>
        <time>2022-03-27T15:38:23Z</time>
      </trkpt>
      <trkpt lat="48.60631" lon="2.07489">
        <ele>117</ele>
        <time>2022-03-27T15:38:24Z</time>
      </trkpt>
      <trkpt lat="48.60635" lon="2.0749">
        <ele>117</ele>
        <time>2022-03-27T15:38:25Z</time>
      </trkpt>
      <trkpt lat="48.60638" lon="2.07492">
        <ele>117</ele>
        <time>2022-03-27T15:38:26Z</time>
      </trkpt>
      <trkpt lat="48.60642" lon="2.07493">
        <ele>117</ele>
        <time>2022-03-27T15:38:27Z</time>
      </trkpt>
      <trkpt lat="48.60646" lon="2.07494">
        <ele>117</ele>
        <time>2022-03-27T15:38:28Z</time>
      </trkpt>
      <trkpt lat="48.60649" lon="2.07495">
        <ele>117</ele>
        <time>2022-03-27T15:38:29Z</time>
      </trkpt>
      <trkpt lat="48.60653" lon="2.07497">
        <ele>117</ele>
        <time>2022-03-27T15:38:30Z</time>
      </trkpt>
      <trkpt lat="48.60656" lon="2.07499">
        <ele>117</ele>
        <time>2022-03-27T15:38:31Z</time>
      </trkpt>
      <trkpt lat="48.6066" lon="2.075">
        <ele>117</ele>
        <time>2022-03-27T15:38:32Z</time>
      </trkpt>
      <trkpt lat="48.60664" lon="2.07501">
        <ele>117</ele>
        <time>2022-03-27T15:38:33Z</time>
      </trkpt>
      <trkpt lat="48.60668" lon="2.07502">
        <ele>116</ele>
        <time>2022-03-27T15:38:34Z</time>
      </trkpt>
      <trkpt lat="48.60672" lon="2.07504">
        <ele>116</ele>
        <time>2022-03-27T15:38:35Z</time>
      </trkpt>
      <trkpt lat="48.60676" lon="2.07505">
        <ele>116</ele>
        <time>2022-03-27T15:38:36Z</time>
      </trkpt>
      <trkpt lat="48.60679" lon="2.07507">
        <ele>116</ele>
        <time>2022-03-27T15:38:37Z</time>
      </trkpt>
      <trkpt lat="48.60683" lon="2.07508">
        <ele>116</ele>
        <time>2022-03-27T15:38:38Z</time>
      </trkpt>
      <trkpt lat="48.60688" lon="2.0751">
        <ele>116</ele>
        <time>2022-03-27T15:38:39Z</time>
      </trkpt>
      <trkpt lat="48.60692" lon="2.07511">
        <ele>116</ele>
        <time>2022-03-27T15:38:40Z</time>
      </trkpt>
      <trkpt lat="48.60696" lon="2.07512">
        <ele>116</ele>
        <time>2022-03-27T15:38:41Z</time>
      </trkpt>
      <trkpt lat="48.607" lon="2.07514">
        <ele>116</ele>
        <time>2022-03-27T15:38:42Z</time>
      </trkpt>
      <trkpt lat="48.60704" lon="2.07515">
        <ele>116</ele>
        <time>2022-03-27T15:38:43Z</time>
      </trkpt>
      <trkpt lat="48.60708" lon="2.07517">
        <ele>116</ele>
        <time>2022-03-27T15:38:44Z</time>
      </trkpt>
      <trkpt lat="48.60712" lon="2.07518">
        <ele>116</ele>
        <time>2022-03-27T15:38:45Z</time>
      </trkpt>
      <trkpt lat="48.60716" lon="2.0752">
        <ele>116</ele>
        <time>2022-03-27T15:38:46Z</time>
      </trkpt>
      <trkpt lat="48.6072" lon="2.07521">
        <ele>116</ele>
        <time>2022-03-27T15:38:47Z</time>
      </trkpt>
      <trkpt lat="48.60724" lon="2.07523">
        <ele>116</ele>
        <time>2022-03-27T15:38:48Z</time>
      </trkpt>
      <trkpt lat="48.60728" lon="2.07524">
        <ele>116</ele>
        <time>2022-03-27T15:38:49Z</time>
      </trkpt>
      <trkpt lat="48.60732" lon="2.07526">
        <ele>116</ele>
        <time>2022-03-27T15:38:50Z</time>
      </trkpt>
      <trkpt lat="48.60735" lon="2.07527">
        <ele>116</ele>
        <time>2022-03-27T15:38:51Z</time>
      </trkpt>
      <trkpt lat="48.6074" lon="2.07529">
        <ele>116</ele>
        <time>2022-03-27T15:38:52Z</time>
      </trkpt>
      <trkpt lat="48.60744" lon="2.0753">
        <ele>116</ele>
        <time>2022-03-27T15:38:53Z</time>
      </trkpt>
      <trkpt lat="48.60748" lon="2.07532">
        <ele>116</ele>
        <time>2022-03-27T15:38:54Z</time>
      </trkpt>
      <trkpt lat="48.60752" lon="2.07533">
        <ele>117</ele>
        <time>2022-03-27T15:38:55Z</time>
      </trkpt>
      <trkpt lat="48.60756" lon="2.07535">
        <ele>117</ele>
        <time>2022-03-27T15:38:56Z</time>
      </trkpt>
      <trkpt lat="48.6076" lon="2.07537">
        <ele>117</ele>
        <time>2022-03-27T15:38:57Z</time>
      </trkpt>
      <trkpt lat="48.60764" lon="2.07538">
        <ele>117</ele>
        <time>2022-03-27T15:38:58Z</time>
      </trkpt>
      <trkpt lat="48.60768" lon="2.0754">
        <ele>117</ele>
        <time>2022-03-27T15:38:59Z</time>
      </trkpt>
      <trkpt lat="48.60772" lon="2.07541">
        <ele>117</ele>
        <time>2022-03-27T15:39:00Z</time>
      </trkpt>
      <trkpt lat="48.60776" lon="2.07543">
        <ele>117</ele>
        <time>2022-03-27T15:39:01Z</time>
      </trkpt>
      <trkpt lat="48.6078" lon="2.07544">
        <ele>117</ele>
        <time>2022-03-27T15:39:02Z</time>
      </trkpt>
      <trkpt lat="48.60784" lon="2.07546">
        <ele>117</ele>
        <time>2022-03-27T15:39:03Z</time>
      </trkpt>
      <trkpt lat="48.60787" lon="2.07548">
        <ele>117</ele>
        <time>2022-03-27T15:39:04Z</time>
      </trkpt>
      <trkpt lat="48.60791" lon="2.07549">
        <ele>117</ele>
        <time>2022-03-27T15:39:05Z</time>
      </trkpt>
      <trkpt lat="48.60795" lon="2.07551">
        <ele>117</ele>
        <time>2022-03-27T15:39:06Z</time>
      </trkpt>
      <trkpt lat="48.60799" lon="2.07553">
        <ele>117</ele>
        <time>2022-03-27T15:39:07Z</time>
      </trkpt>
      <trkpt lat="48.60803" lon="2.07554">
        <ele>117</ele>
        <time>2022-03-27T15:39:08Z</time>
      </trkpt>
      <trkpt lat="48.60807" lon="2.07556">
        <ele>117</ele>
        <time>2022-03-27T15:39:09Z</time>
      </trkpt>
      <trkpt lat="48.60811" lon="2.07558">
        <ele>117</ele>
        <time>2022-03-27T15:39:10Z</time>
      </trkpt>
      <trkpt lat="48.60815" lon="2.07559">
        <ele>117</ele>
        <time>2022-03-27T15:39:11Z</time>
      </trkpt>
      <trkpt lat="48.60818" lon="2.07561">
        <ele>117</ele>
        <time>2022-03-27T15:39:12Z</time>
      </trkpt>
      <trkpt lat="48.60822" lon="2.07563">
        <ele>117</ele>
        <time>2022-03-27T15:39:13Z</time>
      </trkpt>
      <trkpt lat="48.60826" lon="2.07565">
        <ele>117</ele>
        <time>2022-03-27T15:39:14Z</time>
      </trkpt>
      <trkpt lat="48.60831" lon="2.07566">
        <ele>117</ele>
        <time>2022-03-27T15:39:15Z</time>
      </trkpt>
      <trkpt lat="48.60835" lon="2.07568">
        <ele>117</ele>
        <time>2022-03-27T15:39:16Z</time>
      </trkpt>
      <trkpt lat="48.60838" lon="2.0757">
        <ele>117</ele>
        <time>2022-03-27T15:39:17Z</time>
      </trkpt>
      <trkpt lat="48.60842" lon="2.07572">
        <ele>117</ele>
        <time>2022-03-27T15:39:17Z</time>
      </trkpt>
      <trkpt lat="48.60846" lon="2.07573">
        <ele>117</ele>
        <time>2022-03-27T15:39:19Z</time>
      </trkpt>
      <trkpt lat="48.6085" lon="2.07575">
        <ele>117</ele>
        <time>2022-03-27T15:39:20Z</time>
      </trkpt>
      <trkpt lat="48.60855" lon="2.07576">
        <ele>117</ele>
        <time>2022-03-27T15:39:21Z</time>
      </trkpt>
      <trkpt lat="48.60859" lon="2.07578">
        <ele>116</ele>
        <time>2022-03-27T15:39:22Z</time>
      </trkpt>
      <trkpt lat="48.60863" lon="2.07579">
        <ele>116</ele>
        <time>2022-03-27T15:39:23Z</time>
      </trkpt>
      <trkpt lat="48.60867" lon="2.07581">
        <ele>116</ele>
        <time>2022-03-27T15:39:24Z</time>
      </trkpt>
      <trkpt lat="48.60871" lon="2.07583">
        <ele>116</ele>
        <time>2022-03-27T15:39:25Z</time>
      </trkpt>
      <trkpt lat="48.60875" lon="2.07584">
        <ele>116</ele>
        <time>2022-03-27T15:39:26Z</time>
      </trkpt>
      <trkpt lat="48.60879" lon="2.07586">
        <ele>116</ele>
        <time>2022-03-27T15:39:27Z</time>
      </trkpt>
      <trkpt lat="48.60883" lon="2.07587">
        <ele>116</ele>
        <time>2022-03-27T15:39:28Z</time>
      </trkpt>
      <trkpt lat="48.60887" lon="2.07589">
        <ele>116</ele>
        <time>2022-03-27T15:39:29Z</time>
      </trkpt>
      <trkpt lat="48.60891" lon="2.07591">
        <ele>116</ele>
        <time>2022-03-27T15:39:30Z</time>
      </trkpt>
      <trkpt lat="48.60895" lon="2.07592">
        <ele>116</ele>
        <time>2022-03-27T15:39:31Z</time>
      </trkpt>
      <trkpt lat="48.60899" lon="2.07594">
        <ele>116</ele>
        <time>2022-03-27T15:39:32Z</time>
      </trkpt>
      <trkpt lat="48.60903" lon="2.07595">
        <ele>116</ele>
        <time>2022-03-27T15:39:33Z</time>
      </trkpt>
      <trkpt lat="48.60907" lon="2.07597">
        <ele>116</ele>
        <time>2022-03-27T15:39:34Z</time>
      </trkpt>
      <trkpt lat="48.60911" lon="2.07599">
        <ele>116</ele>
        <time>2022-03-27T15:39:35Z</time>
      </trkpt>
      <trkpt lat="48.60915" lon="2.076">
        <ele>116</ele>
        <time>2022-03-27T15:39:36Z</time>
      </trkpt>
      <trkpt lat="48.60919" lon="2.07602">
        <ele>116</ele>
        <time>2022-03-27T15:39:37Z</time>
      </trkpt>
      <trkpt lat="48.60923" lon="2.07603">
        <ele>116</ele>
        <time>2022-03-27T15:39:38Z</time>
      </trkpt>
      <trkpt lat="48.60927" lon="2.07605">
        <ele>116</ele>
        <time>2022-03-27T15:39:39Z</time>
      </trkpt>
      <trkpt lat="48.60931" lon="2.07607">
        <ele>116</ele>
        <time>2022-03-27T15:39:40Z</time>
      </trkpt>
      <trkpt lat="48.60935" lon="2.07609">
        <ele>116</ele>
        <time>2022-03-27T15:39:41Z</time>
      </trkpt>
      <trkpt lat="48.60939" lon="2.07611">
        <ele>116</ele>
        <time>2022-03-27T15:39:42Z</time>
      </trkpt>
      <trkpt lat="48.60943" lon="2.07614">
        <ele>116</ele>
        <time>2022-03-27T15:39:43Z</time>
      </trkpt>
      <trkpt lat="48.60946" lon="2.07618">
        <ele>116</ele>
        <time>2022-03-27T15:39:44Z</time>
      </trkpt>
      <trkpt lat="48.6095" lon="2.07622">
        <ele>116</ele>
        <time>2022-03-27T15:39:45Z</time>
      </trkpt>
      <trkpt lat="48.60953" lon="2.07626">
        <ele>116</ele>
        <time>2022-03-27T15:39:46Z</time>
      </trkpt>
      <trkpt lat="48.60957" lon="2.07631">
        <ele>116</ele>
        <time>2022-03-27T15:39:47Z</time>
      </trkpt>
      <trkpt lat="48.6096" lon="2.07635">
        <ele>116</ele>
        <time>2022-03-27T15:39:48Z</time>
      </trkpt>
      <trkpt lat="48.60964" lon="2.0764">
        <ele>116</ele>
        <time>2022-03-27T15:39:49Z</time>
      </trkpt>
      <trkpt lat="48.60968" lon="2.07644">
        <ele>116</ele>
        <time>2022-03-27T15:39:50Z</time>
      </trkpt>
      <trkpt lat="48.60971" lon="2.07649">
        <ele>116</ele>
        <time>2022-03-27T15:39:51Z</time>
      </trkpt>
      <trkpt lat="48.60974" lon="2.07653">
        <ele>116</ele>
        <time>2022-03-27T15:39:52Z</time>
      </trkpt>
      <trkpt lat="48.60978" lon="2.07657">
        <ele>116</ele>
        <time>2022-03-27T15:39:53Z</time>
      </trkpt>
      <trkpt lat="48.60981" lon="2.07662">
        <ele>116</ele>
        <time>2022-03-27T15:39:54Z</time>
      </trkpt>
      <trkpt lat="48.60984" lon="2.07666">
        <ele>116</ele>
        <time>2022-03-27T15:39:55Z</time>
      </trkpt>
      <trkpt lat="48.60987" lon="2.0767">
        <ele>117</ele>
        <time>2022-03-27T15:39:56Z</time>
      </trkpt>
      <trkpt lat="48.6099" lon="2.07674">
        <ele>117</ele>
        <time>2022-03-27T15:39:57Z</time>
      </trkpt>
      <trkpt lat="48.60993" lon="2.07678">
        <ele>117</ele>
        <time>2022-03-27T15:39:58Z</time>
      </trkpt>
      <trkpt lat="48.60996" lon="2.07682">
        <ele>117</ele>
        <time>2022-03-27T15:39:59Z</time>
      </trkpt>
      <trkpt lat="48.60999" lon="2.07686">
        <ele>116</ele>
        <time>2022-03-27T15:40:00Z</time>
      </trkpt>
      <trkpt lat="48.61002" lon="2.0769">
        <ele>116</ele>
        <time>2022-03-27T15:40:01Z</time>
      </trkpt>
      <trkpt lat="48.61004" lon="2.07693">
        <ele>116</ele>
        <time>2022-03-27T15:40:02Z</time>
      </trkpt>
      <trkpt lat="48.61006" lon="2.07697">
        <ele>116</ele>
        <time>2022-03-27T15:40:03Z</time>
      </trkpt>
      <trkpt lat="48.61008" lon="2.07699">
        <ele>116</ele>
        <time>2022-03-27T15:40:04Z</time>
      </trkpt>
      <trkpt lat="48.6101" lon="2.07702">
        <ele>116</ele>
        <time>2022-03-27T15:40:05Z</time>
      </trkpt>
      <trkpt lat="48.61011" lon="2.07704">
        <ele>116</ele>
        <time>2022-03-27T15:40:06Z</time>
      </trkpt>
      <trkpt lat="48.61014" lon="2.07707">
        <ele>116</ele>
        <time>2022-03-27T15:40:08Z</time>
      </trkpt>
      <trkpt lat="48.61016" lon="2.0771">
        <ele>117</ele>
        <time>2022-03-27T15:40:10Z</time>
      </trkpt>
      <trkpt lat="48.61017" lon="2.07712">
        <ele>116</ele>
        <time>2022-03-27T15:40:26Z</time>
      </trkpt>
      <trkpt lat="48.61018" lon="2.07714">
        <ele>117</ele>
        <time>2022-03-27T15:40:29Z</time>
      </trkpt>
      <trkpt lat="48.6102" lon="2.07716">
        <ele>117</ele>
        <time>2022-03-27T15:40:31Z</time>
      </trkpt>
      <trkpt lat="48.61022" lon="2.07718">
        <ele>117</ele>
        <time>2022-03-27T15:40:33Z</time>
      </trkpt>
      <trkpt lat="48.61024" lon="2.07719">
        <ele>117</ele>
        <time>2022-03-27T15:40:35Z</time>
      </trkpt>
      <trkpt lat="48.61027" lon="2.0772">
        <ele>117</ele>
        <time>2022-03-27T15:40:37Z</time>
      </trkpt>
      <trkpt lat="48.61029" lon="2.07721">
        <ele>117</ele>
        <time>2022-03-27T15:40:39Z</time>
      </trkpt>
      <trkpt lat="48.61031" lon="2.07724">
        <ele>117</ele>
        <time>2022-03-27T15:40:41Z</time>
      </trkpt>
      <trkpt lat="48.61034" lon="2.07727">
        <ele>117</ele>
        <time>2022-03-27T15:40:43Z</time>
      </trkpt>
      <trkpt lat="48.61035" lon="2.07729">
        <ele>117</ele>
        <time>2022-03-27T15:40:44Z</time>
      </trkpt>
      <trkpt lat="48.61037" lon="2.07733">
        <ele>117</ele>
        <time>2022-03-27T15:40:46Z</time>
      </trkpt>
      <trkpt lat="48.61039" lon="2.07737">
        <ele>118</ele>
        <time>2022-03-27T15:40:48Z</time>
      </trkpt>
      <trkpt lat="48.61041" lon="2.0774">
        <ele>118</ele>
        <time>2022-03-27T15:40:50Z</time>
      </trkpt>
      <trkpt lat="48.61043" lon="2.07743">
        <ele>118</ele>
        <time>2022-03-27T15:40:52Z</time>
      </trkpt>
      <trkpt lat="48.61045" lon="2.07746">
        <ele>118</ele>
        <time>2022-03-27T15:40:54Z</time>
      </trkpt>
      <trkpt lat="48.61046" lon="2.07749">
        <ele>118</ele>
        <time>2022-03-27T15:40:56Z</time>
      </trkpt>
      <trkpt lat="48.61048" lon="2.07751">
        <ele>118</ele>
        <time>2022-03-27T15:40:58Z</time>
      </trkpt>
      <trkpt lat="48.6105" lon="2.07753">
        <ele>118</ele>
        <time>2022-03-27T15:41:00Z</time>
      </trkpt>
      <trkpt lat="48.61052" lon="2.07755">
        <ele>118</ele>
        <time>2022-03-27T15:41:02Z</time>
      </trkpt>
      <trkpt lat="48.61054" lon="2.07756">
        <ele>118</ele>
        <time>2022-03-27T15:41:03Z</time>
      </trkpt>
      <trkpt lat="48.61056" lon="2.07759">
        <ele>118</ele>
        <time>2022-03-27T15:41:05Z</time>
      </trkpt>
      <trkpt lat="48.61059" lon="2.07761">
        <ele>119</ele>
        <time>2022-03-27T15:41:07Z</time>
      </trkpt>
      <trkpt lat="48.61062" lon="2.07763">
        <ele>119</ele>
        <time>2022-03-27T15:41:09Z</time>
      </trkpt>
      <trkpt lat="48.61064" lon="2.07765">
        <ele>119</ele>
        <time>2022-03-27T15:41:10Z</time>
      </trkpt>
      <trkpt lat="48.61067" lon="2.07767">
        <ele>119</ele>
        <time>2022-03-27T15:41:12Z</time>
      </trkpt>
      <trkpt lat="48.61069" lon="2.07769">
        <ele>119</ele>
        <time>2022-03-27T15:41:13Z</time>
      </trkpt>
      <trkpt lat="48.61072" lon="2.07771">
        <ele>119</ele>
        <time>2022-03-27T15:41:15Z</time>
      </trkpt>
      <trkpt lat="48.61075" lon="2.07774">
        <ele>119</ele>
        <time>2022-03-27T15:41:17Z</time>
      </trkpt>
      <trkpt lat="48.61078" lon="2.07776">
        <ele>119</ele>
        <time>2022-03-27T15:41:19Z</time>
      </trkpt>
      <trkpt lat="48.61081" lon="2.07779">
        <ele>119</ele>
        <time>2022-03-27T15:41:21Z</time>
      </trkpt>
      <trkpt lat="48.61084" lon="2.07781">
        <ele>119</ele>
        <time>2022-03-27T15:41:23Z</time>
      </trkpt>
      <trkpt lat="48.61085" lon="2.07782">
        <ele>119</ele>
        <time>2022-03-27T15:41:24Z</time>
      </trkpt>
      <trkpt lat="48.61087" lon="2.07784">
        <ele>119</ele>
        <time>2022-03-27T15:41:25Z</time>
      </trkpt>
      <trkpt lat="48.61089" lon="2.07785">
        <ele>119</ele>
        <time>2022-03-27T15:41:26Z</time>
      </trkpt>
      <trkpt lat="48.61092" lon="2.07787">
        <ele>119</ele>
        <time>2022-03-27T15:41:28Z</time>
      </trkpt>
      <trkpt lat="48.61094" lon="2.07789">
        <ele>120</ele>
        <time>2022-03-27T15:41:29Z</time>
      </trkpt>
      <trkpt lat="48.61096" lon="2.07791">
        <ele>120</ele>
        <time>2022-03-27T15:41:31Z</time>
      </trkpt>
      <trkpt lat="48.61099" lon="2.07793">
        <ele>120</ele>
        <time>2022-03-27T15:41:33Z</time>
      </trkpt>
      <trkpt lat="48.61101" lon="2.07794">
        <ele>120</ele>
        <time>2022-03-27T15:41:34Z</time>
      </trkpt>
      <trkpt lat="48.61103" lon="2.07796">
        <ele>120</ele>
        <time>2022-03-27T15:41:35Z</time>
      </trkpt>
      <trkpt lat="48.61106" lon="2.07798">
        <ele>120</ele>
        <time>2022-03-27T15:41:37Z</time>
      </trkpt>
      <trkpt lat="48.61109" lon="2.07801">
        <ele>120</ele>
        <time>2022-03-27T15:41:39Z</time>
      </trkpt>
      <trkpt lat="48.61111" lon="2.07804">
        <ele>120</ele>
        <time>2022-03-27T15:41:40Z</time>
      </trkpt>
      <trkpt lat="48.61113" lon="2.07805">
        <ele>120</ele>
        <time>2022-03-27T15:41:42Z</time>
      </trkpt>
      <trkpt lat="48.61115" lon="2.07807">
        <ele>120</ele>
        <time>2022-03-27T15:41:44Z</time>
      </trkpt>
      <trkpt lat="48.61118" lon="2.07809">
        <ele>120</ele>
        <time>2022-03-27T15:41:46Z</time>
      </trkpt>
      <trkpt lat="48.61121" lon="2.07811">
        <ele>120</ele>
        <time>2022-03-27T15:41:48Z</time>
      </trkpt>
      <trkpt lat="48.61124" lon="2.07813">
        <ele>120</ele>
        <time>2022-03-27T15:41:50Z</time>
      </trkpt>
      <trkpt lat="48.61126" lon="2.07816">
        <ele>120</ele>
        <time>2022-03-27T15:41:52Z</time>
      </trkpt>
      <trkpt lat="48.61129" lon="2.07819">
        <ele>120</ele>
        <time>2022-03-27T15:41:54Z</time>
      </trkpt>
      <trkpt lat="48.61132" lon="2.07822">
        <ele>120</ele>
        <time>2022-03-27T15:41:56Z</time>
      </trkpt>
      <trkpt lat="48.61134" lon="2.07825">
        <ele>120</ele>
        <time>2022-03-27T15:41:58Z</time>
      </trkpt>
      <trkpt lat="48.61136" lon="2.07828">
        <ele>120</ele>
        <time>2022-03-27T15:42:00Z</time>
      </trkpt>
      <trkpt lat="48.61138" lon="2.07831">
        <ele>120</ele>
        <time>2022-03-27T15:42:02Z</time>
      </trkpt>
      <trkpt lat="48.6114" lon="2.07832">
        <ele>120</ele>
        <time>2022-03-27T15:42:03Z</time>
      </trkpt>
      <trkpt lat="48.61143" lon="2.07836">
        <ele>120</ele>
        <time>2022-03-27T15:42:05Z</time>
      </trkpt>
      <trkpt lat="48.61144" lon="2.07838">
        <ele>120</ele>
        <time>2022-03-27T15:42:06Z</time>
      </trkpt>
      <trkpt lat="48.61145" lon="2.0784">
        <ele>120</ele>
        <time>2022-03-27T15:42:07Z</time>
      </trkpt>
      <trkpt lat="48.61148" lon="2.07844">
        <ele>120</ele>
        <time>2022-03-27T15:42:09Z</time>
      </trkpt>
      <trkpt lat="48.61149" lon="2.07849">
        <ele>120</ele>
        <time>2022-03-27T15:42:11Z</time>
      </trkpt>
      <trkpt lat="48.61151" lon="2.07853">
        <ele>120</ele>
        <time>2022-03-27T15:42:13Z</time>
      </trkpt>
      <trkpt lat="48.61153" lon="2.07857">
        <ele>120</ele>
        <time>2022-03-27T15:42:15Z</time>
      </trkpt>
      <trkpt lat="48.61154" lon="2.07862">
        <ele>120</ele>
        <time>2022-03-27T15:42:17Z</time>
      </trkpt>
      <trkpt lat="48.61156" lon="2.07866">
        <ele>121</ele>
        <time>2022-03-27T15:42:19Z</time>
      </trkpt>
      <trkpt lat="48.61158" lon="2.0787">
        <ele>121</ele>
        <time>2022-03-27T15:42:21Z</time>
      </trkpt>
      <trkpt lat="48.61164" lon="2.07883">
        <ele>121</ele>
        <time>2022-03-27T15:42:27Z</time>
      </trkpt>
      <trkpt lat="48.61171" lon="2.07893">
        <ele>122</ele>
        <time>2022-03-27T15:42:32Z</time>
      </trkpt>
      <trkpt lat="48.61179" lon="2.07901">
        <ele>122</ele>
        <time>2022-03-27T15:42:37Z</time>
      </trkpt>
      <trkpt lat="48.61182" lon="2.07915">
        <ele>125</ele>
        <time>2022-03-27T15:42:45Z</time>
      </trkpt>
      <trkpt lat="48.61184" lon="2.07921">
        <ele>125</ele>
        <time>2022-03-27T15:42:47Z</time>
      </trkpt>
      <trkpt lat="48.61186" lon="2.07925">
        <ele>125</ele>
        <time>2022-03-27T15:42:49Z</time>
      </trkpt>
      <trkpt lat="48.61192" lon="2.07936">
        <ele>126</ele>
        <time>2022-03-27T15:42:55Z</time>
      </trkpt>
      <trkpt lat="48.61197" lon="2.07949">
        <ele>127</ele>
        <time>2022-03-27T15:43:02Z</time>
      </trkpt>
      <trkpt lat="48.61201" lon="2.07962">
        <ele>127</ele>
        <time>2022-03-27T15:43:08Z</time>
      </trkpt>
      <trkpt lat="48.61205" lon="2.07977">
        <ele>129</ele>
        <time>2022-03-27T15:43:16Z</time>
      </trkpt>
      <trkpt lat="48.61205" lon="2.07992">
        <ele>131</ele>
        <time>2022-03-27T15:43:20Z</time>
      </trkpt>
      <trkpt lat="48.61211" lon="2.08007">
        <ele>132</ele>
        <time>2022-03-27T15:43:26Z</time>
      </trkpt>
      <trkpt lat="48.61214" lon="2.08022">
        <ele>134</ele>
        <time>2022-03-27T15:43:33Z</time>
      </trkpt>
      <trkpt lat="48.61217" lon="2.08035">
        <ele>135</ele>
        <time>2022-03-27T15:43:39Z</time>
      </trkpt>
      <trkpt lat="48.61218" lon="2.0805">
        <ele>136</ele>
        <time>2022-03-27T15:43:45Z</time>
      </trkpt>
      <trkpt lat="48.61221" lon="2.08063">
        <ele>137</ele>
        <time>2022-03-27T15:43:51Z</time>
      </trkpt>
      <trkpt lat="48.6122" lon="2.08077">
        <ele>138</ele>
        <time>2022-03-27T15:43:57Z</time>
      </trkpt>
      <trkpt lat="48.6122" lon="2.0808">
        <ele>138</ele>
        <time>2022-03-27T15:43:58Z</time>
      </trkpt>
      <trkpt lat="48.6122" lon="2.08086">
        <ele>138</ele>
        <time>2022-03-27T15:44:00Z</time>
      </trkpt>
      <trkpt lat="48.61221" lon="2.08089">
        <ele>137</ele>
        <time>2022-03-27T15:44:01Z</time>
      </trkpt>
      <trkpt lat="48.61222" lon="2.08091">
        <ele>138</ele>
        <time>2022-03-27T15:44:02Z</time>
      </trkpt>
      <trkpt lat="48.61223" lon="2.08094">
        <ele>138</ele>
        <time>2022-03-27T15:44:03Z</time>
      </trkpt>
      <trkpt lat="48.61225" lon="2.08097">
        <ele>138</ele>
        <time>2022-03-27T15:44:04Z</time>
      </trkpt>
      <trkpt lat="48.61226" lon="2.081">
        <ele>138</ele>
        <time>2022-03-27T15:44:05Z</time>
      </trkpt>
      <trkpt lat="48.61227" lon="2.08103">
        <ele>138</ele>
        <time>2022-03-27T15:44:06Z</time>
      </trkpt>
      <trkpt lat="48.61229" lon="2.08105">
        <ele>138</ele>
        <time>2022-03-27T15:44:07Z</time>
      </trkpt>
      <trkpt lat="48.61234" lon="2.08116">
        <ele>138</ele>
        <time>2022-03-27T15:44:12Z</time>
      </trkpt>
      <trkpt lat="48.61237" lon="2.08127">
        <ele>139</ele>
        <time>2022-03-27T15:44:17Z</time>
      </trkpt>
      <trkpt lat="48.61237" lon="2.08131">
        <ele>139</ele>
        <time>2022-03-27T15:44:19Z</time>
      </trkpt>
      <trkpt lat="48.61238" lon="2.08135">
        <ele>140</ele>
        <time>2022-03-27T15:44:21Z</time>
      </trkpt>
      <trkpt lat="48.61241" lon="2.08149">
        <ele>140</ele>
        <time>2022-03-27T15:44:29Z</time>
      </trkpt>
      <trkpt lat="48.61245" lon="2.08156">
        <ele>140</ele>
        <time>2022-03-27T15:44:31Z</time>
      </trkpt>
      <trkpt lat="48.61246" lon="2.08159">
        <ele>140</ele>
        <time>2022-03-27T15:44:32Z</time>
      </trkpt>
      <trkpt lat="48.61247" lon="2.08162">
        <ele>140</ele>
        <time>2022-03-27T15:44:33Z</time>
      </trkpt>
      <trkpt lat="48.61248" lon="2.08165">
        <ele>141</ele>
        <time>2022-03-27T15:44:34Z</time>
      </trkpt>
      <trkpt lat="48.61249" lon="2.08168">
        <ele>141</ele>
        <time>2022-03-27T15:44:35Z</time>
      </trkpt>
      <trkpt lat="48.61249" lon="2.08173">
        <ele>141</ele>
        <time>2022-03-27T15:44:37Z</time>
      </trkpt>
      <trkpt lat="48.61248" lon="2.08188">
        <ele>141</ele>
        <time>2022-03-27T15:44:43Z</time>
      </trkpt>
      <trkpt lat="48.61247" lon="2.08193">
        <ele>140</ele>
        <time>2022-03-27T15:44:45Z</time>
      </trkpt>
      <trkpt lat="48.61247" lon="2.08198">
        <ele>140</ele>
        <time>2022-03-27T15:44:47Z</time>
      </trkpt>
      <trkpt lat="48.61245" lon="2.08209">
        <ele>140</ele>
        <time>2022-03-27T15:44:51Z</time>
      </trkpt>
      <trkpt lat="48.61244" lon="2.08212">
        <ele>140</ele>
        <time>2022-03-27T15:44:52Z</time>
      </trkpt>
      <trkpt lat="48.61242" lon="2.08215">
        <ele>140</ele>
        <time>2022-03-27T15:44:53Z</time>
      </trkpt>
      <trkpt lat="48.61242" lon="2.08218">
        <ele>140</ele>
        <time>2022-03-27T15:44:54Z</time>
      </trkpt>
      <trkpt lat="48.61241" lon="2.0822">
        <ele>140</ele>
        <time>2022-03-27T15:44:55Z</time>
      </trkpt>
      <trkpt lat="48.61239" lon="2.08223">
        <ele>140</ele>
        <time>2022-03-27T15:44:56Z</time>
      </trkpt>
      <trkpt lat="48.61239" lon="2.08226">
        <ele>140</ele>
        <time>2022-03-27T15:44:57Z</time>
      </trkpt>
      <trkpt lat="48.61238" lon="2.08228">
        <ele>140</ele>
        <time>2022-03-27T15:44:58Z</time>
      </trkpt>
      <trkpt lat="48.61236" lon="2.08233">
        <ele>140</ele>
        <time>2022-03-27T15:45:00Z</time>
      </trkpt>
      <trkpt lat="48.61235" lon="2.08235">
        <ele>140</ele>
        <time>2022-03-27T15:45:01Z</time>
      </trkpt>
      <trkpt lat="48.61234" lon="2.08238">
        <ele>140</ele>
        <time>2022-03-27T15:45:02Z</time>
      </trkpt>
      <trkpt lat="48.61232" lon="2.08241">
        <ele>140</ele>
        <time>2022-03-27T15:45:04Z</time>
      </trkpt>
      <trkpt lat="48.6123" lon="2.08246">
        <ele>141</ele>
        <time>2022-03-27T15:45:06Z</time>
      </trkpt>
      <trkpt lat="48.61228" lon="2.08251">
        <ele>141</ele>
        <time>2022-03-27T15:45:08Z</time>
      </trkpt>
      <trkpt lat="48.61226" lon="2.08254">
        <ele>141</ele>
        <time>2022-03-27T15:45:10Z</time>
      </trkpt>
      <trkpt lat="48.61224" lon="2.08259">
        <ele>141</ele>
        <time>2022-03-27T15:45:12Z</time>
      </trkpt>
      <trkpt lat="48.61222" lon="2.08261">
        <ele>141</ele>
        <time>2022-03-27T15:45:14Z</time>
      </trkpt>
      <trkpt lat="48.61221" lon="2.08267">
        <ele>140</ele>
        <time>2022-03-27T15:45:16Z</time>
      </trkpt>
      <trkpt lat="48.61221" lon="2.08271">
        <ele>141</ele>
        <time>2022-03-27T15:45:18Z</time>
      </trkpt>
      <trkpt lat="48.6122" lon="2.08274">
        <ele>141</ele>
        <time>2022-03-27T15:45:20Z</time>
      </trkpt>
      <trkpt lat="48.61219" lon="2.08277">
        <ele>141</ele>
        <time>2022-03-27T15:45:22Z</time>
      </trkpt>
      <trkpt lat="48.61218" lon="2.08285">
        <ele>142</ele>
        <time>2022-03-27T15:45:25Z</time>
      </trkpt>
      <trkpt lat="48.61215" lon="2.08291">
        <ele>142</ele>
        <time>2022-03-27T15:45:27Z</time>
      </trkpt>
      <trkpt lat="48.61214" lon="2.08295">
        <ele>142</ele>
        <time>2022-03-27T15:45:28Z</time>
      </trkpt>
      <trkpt lat="48.61213" lon="2.08297">
        <ele>142</ele>
        <time>2022-03-27T15:45:29Z</time>
      </trkpt>
      <trkpt lat="48.61213" lon="2.083">
        <ele>143</ele>
        <time>2022-03-27T15:45:30Z</time>
      </trkpt>
      <trkpt lat="48.61211" lon="2.08304">
        <ele>143</ele>
        <time>2022-03-27T15:45:32Z</time>
      </trkpt>
      <trkpt lat="48.6121" lon="2.08307">
        <ele>143</ele>
        <time>2022-03-27T15:45:33Z</time>
      </trkpt>
      <trkpt lat="48.61209" lon="2.08312">
        <ele>143</ele>
        <time>2022-03-27T15:45:35Z</time>
      </trkpt>
      <trkpt lat="48.61209" lon="2.08317">
        <ele>143</ele>
        <time>2022-03-27T15:45:37Z</time>
      </trkpt>
      <trkpt lat="48.61207" lon="2.08321">
        <ele>143</ele>
        <time>2022-03-27T15:45:39Z</time>
      </trkpt>
      <trkpt lat="48.61205" lon="2.08325">
        <ele>143</ele>
        <time>2022-03-27T15:45:41Z</time>
      </trkpt>
      <trkpt lat="48.61203" lon="2.08327">
        <ele>143</ele>
        <time>2022-03-27T15:45:42Z</time>
      </trkpt>
      <trkpt lat="48.61202" lon="2.0833">
        <ele>144</ele>
        <time>2022-03-27T15:45:44Z</time>
      </trkpt>
      <trkpt lat="48.61202" lon="2.08334">
        <ele>144</ele>
        <time>2022-03-27T15:45:46Z</time>
      </trkpt>
      <trkpt lat="48.61199" lon="2.08338">
        <ele>145</ele>
        <time>2022-03-27T15:45:48Z</time>
      </trkpt>
      <trkpt lat="48.61197" lon="2.08342">
        <ele>145</ele>
        <time>2022-03-27T15:45:50Z</time>
      </trkpt>
      <trkpt lat="48.61195" lon="2.08346">
        <ele>145</ele>
        <time>2022-03-27T15:45:52Z</time>
      </trkpt>
      <trkpt lat="48.61193" lon="2.0835">
        <ele>145</ele>
        <time>2022-03-27T15:45:54Z</time>
      </trkpt>
      <trkpt lat="48.61191" lon="2.08353">
        <ele>145</ele>
        <time>2022-03-27T15:45:56Z</time>
      </trkpt>
      <trkpt lat="48.61191" lon="2.08357">
        <ele>145</ele>
        <time>2022-03-27T15:45:58Z</time>
      </trkpt>
      <trkpt lat="48.6119" lon="2.08361">
        <ele>145</ele>
        <time>2022-03-27T15:46:00Z</time>
      </trkpt>
      <trkpt lat="48.61189" lon="2.08366">
        <ele>145</ele>
        <time>2022-03-27T15:46:02Z</time>
      </trkpt>
      <trkpt lat="48.6119" lon="2.08369">
        <ele>146</ele>
        <time>2022-03-27T15:46:04Z</time>
      </trkpt>
      <trkpt lat="48.6119" lon="2.08373">
        <ele>146</ele>
        <time>2022-03-27T15:46:06Z</time>
      </trkpt>
      <trkpt lat="48.6119" lon="2.08378">
        <ele>146</ele>
        <time>2022-03-27T15:46:08Z</time>
      </trkpt>
      <trkpt lat="48.61191" lon="2.08382">
        <ele>146</ele>
        <time>2022-03-27T15:46:10Z</time>
      </trkpt>
      <trkpt lat="48.61191" lon="2.08386">
        <ele>146</ele>
        <time>2022-03-27T15:46:12Z</time>
      </trkpt>
      <trkpt lat="48.61192" lon="2.0839">
        <ele>146</ele>
        <time>2022-03-27T15:46:14Z</time>
      </trkpt>
      <trkpt lat="48.61193" lon="2.08394">
        <ele>146</ele>
        <time>2022-03-27T15:46:16Z</time>
      </trkpt>
      <trkpt lat="48.61193" lon="2.08398">
        <ele>146</ele>
        <time>2022-03-27T15:46:18Z</time>
      </trkpt>
      <trkpt lat="48.61193" lon="2.08401">
        <ele>147</ele>
        <time>2022-03-27T15:46:20Z</time>
      </trkpt>
      <trkpt lat="48.61192" lon="2.08405">
        <ele>147</ele>
        <time>2022-03-27T15:46:22Z</time>
      </trkpt>
      <trkpt lat="48.61191" lon="2.08409">
        <ele>147</ele>
        <time>2022-03-27T15:46:24Z</time>
      </trkpt>
      <trkpt lat="48.61192" lon="2.08413">
        <ele>147</ele>
        <time>2022-03-27T15:46:26Z</time>
      </trkpt>
      <trkpt lat="48.61194" lon="2.08417">
        <ele>147</ele>
        <time>2022-03-27T15:46:28Z</time>
      </trkpt>
      <trkpt lat="48.61195" lon="2.08421">
        <ele>148</ele>
        <time>2022-03-27T15:46:30Z</time>
      </trkpt>
      <trkpt lat="48.61196" lon="2.08425">
        <ele>148</ele>
        <time>2022-03-27T15:46:32Z</time>
      </trkpt>
      <trkpt lat="48.61198" lon="2.08428">
        <ele>148</ele>
        <time>2022-03-27T15:46:34Z</time>
      </trkpt>
      <trkpt lat="48.61199" lon="2.08432">
        <ele>149</ele>
        <time>2022-03-27T15:46:36Z</time>
      </trkpt>
      <trkpt lat="48.61199" lon="2.08436">
        <ele>149</ele>
        <time>2022-03-27T15:46:38Z</time>
      </trkpt>
      <trkpt lat="48.612" lon="2.08439">
        <ele>149</ele>
        <time>2022-03-27T15:46:40Z</time>
      </trkpt>
      <trkpt lat="48.61201" lon="2.08443">
        <ele>149</ele>
        <time>2022-03-27T15:46:42Z</time>
      </trkpt>
      <trkpt lat="48.61202" lon="2.08447">
        <ele>149</ele>
        <time>2022-03-27T15:46:44Z</time>
      </trkpt>
      <trkpt lat="48.61203" lon="2.08451">
        <ele>148</ele>
        <time>2022-03-27T15:46:46Z</time>
      </trkpt>
      <trkpt lat="48.61203" lon="2.08455">
        <ele>148</ele>
        <time>2022-03-27T15:46:48Z</time>
      </trkpt>
      <trkpt lat="48.61204" lon="2.0846">
        <ele>148</ele>
        <time>2022-03-27T15:46:50Z</time>
      </trkpt>
      <trkpt lat="48.61206" lon="2.08461">
        <ele>148</ele>
        <time>2022-03-27T15:46:51Z</time>
      </trkpt>
      <trkpt lat="48.61208" lon="2.08465">
        <ele>148</ele>
        <time>2022-03-27T15:46:53Z</time>
      </trkpt>
      <trkpt lat="48.6121" lon="2.08468">
        <ele>149</ele>
        <time>2022-03-27T15:46:54Z</time>
      </trkpt>
      <trkpt lat="48.61212" lon="2.08472">
        <ele>148</ele>
        <time>2022-03-27T15:46:56Z</time>
      </trkpt>
      <trkpt lat="48.61215" lon="2.08475">
        <ele>148</ele>
        <time>2022-03-27T15:46:58Z</time>
      </trkpt>
      <trkpt lat="48.61217" lon="2.08478">
        <ele>148</ele>
        <time>2022-03-27T15:47:00Z</time>
      </trkpt>
      <trkpt lat="48.61219" lon="2.08481">
        <ele>148</ele>
        <time>2022-03-27T15:47:01Z</time>
      </trkpt>
      <trkpt lat="48.6122" lon="2.08483">
        <ele>149</ele>
        <time>2022-03-27T15:47:02Z</time>
      </trkpt>
      <trkpt lat="48.61222" lon="2.08484">
        <ele>149</ele>
        <time>2022-03-27T15:47:03Z</time>
      </trkpt>
      <trkpt lat="48.61223" lon="2.08486">
        <ele>149</ele>
        <time>2022-03-27T15:47:04Z</time>
      </trkpt>
      <trkpt lat="48.61226" lon="2.08489">
        <ele>148</ele>
        <time>2022-03-27T15:47:06Z</time>
      </trkpt>
      <trkpt lat="48.61227" lon="2.08493">
        <ele>148</ele>
        <time>2022-03-27T15:47:08Z</time>
      </trkpt>
      <trkpt lat="48.6123" lon="2.08496">
        <ele>148</ele>
        <time>2022-03-27T15:47:10Z</time>
      </trkpt>
      <trkpt lat="48.61231" lon="2.085">
        <ele>148</ele>
        <time>2022-03-27T15:47:12Z</time>
      </trkpt>
      <trkpt lat="48.61232" lon="2.08503">
        <ele>148</ele>
        <time>2022-03-27T15:47:14Z</time>
      </trkpt>
      <trkpt lat="48.61235" lon="2.08507">
        <ele>148</ele>
        <time>2022-03-27T15:47:16Z</time>
      </trkpt>
      <trkpt lat="48.61236" lon="2.08509">
        <ele>148</ele>
        <time>2022-03-27T15:47:18Z</time>
      </trkpt>
      <trkpt lat="48.61238" lon="2.08513">
        <ele>148</ele>
        <time>2022-03-27T15:47:20Z</time>
      </trkpt>
      <trkpt lat="48.61239" lon="2.08516">
        <ele>149</ele>
        <time>2022-03-27T15:47:22Z</time>
      </trkpt>
      <trkpt lat="48.6124" lon="2.0852">
        <ele>149</ele>
        <time>2022-03-27T15:47:24Z</time>
      </trkpt>
      <trkpt lat="48.61241" lon="2.08522">
        <ele>149</ele>
        <time>2022-03-27T15:47:26Z</time>
      </trkpt>
      <trkpt lat="48.61242" lon="2.08526">
        <ele>149</ele>
        <time>2022-03-27T15:47:28Z</time>
      </trkpt>
      <trkpt lat="48.61244" lon="2.08528">
        <ele>149</ele>
        <time>2022-03-27T15:47:30Z</time>
      </trkpt>
      <trkpt lat="48.61245" lon="2.0853">
        <ele>149</ele>
        <time>2022-03-27T15:47:32Z</time>
      </trkpt>
      <trkpt lat="48.61247" lon="2.08533">
        <ele>150</ele>
        <time>2022-03-27T15:47:34Z</time>
      </trkpt>
      <trkpt lat="48.61249" lon="2.08536">
        <ele>150</ele>
        <time>2022-03-27T15:47:36Z</time>
      </trkpt>
      <trkpt lat="48.61251" lon="2.08539">
        <ele>150</ele>
        <time>2022-03-27T15:47:38Z</time>
      </trkpt>
      <trkpt lat="48.61252" lon="2.08541">
        <ele>150</ele>
        <time>2022-03-27T15:47:40Z</time>
      </trkpt>
      <trkpt lat="48.61254" lon="2.08542">
        <ele>151</ele>
        <time>2022-03-27T15:47:42Z</time>
      </trkpt>
      <trkpt lat="48.61256" lon="2.08544">
        <ele>151</ele>
        <time>2022-03-27T15:47:45Z</time>
      </trkpt>
      <trkpt lat="48.61259" lon="2.08547">
        <ele>152</ele>
        <time>2022-03-27T15:47:47Z</time>
      </trkpt>
      <trkpt lat="48.61261" lon="2.08549">
        <ele>152</ele>
        <time>2022-03-27T15:47:49Z</time>
      </trkpt>
      <trkpt lat="48.61265" lon="2.08551">
        <ele>152</ele>
        <time>2022-03-27T15:47:51Z</time>
      </trkpt>
      <trkpt lat="48.61268" lon="2.08553">
        <ele>152</ele>
        <time>2022-03-27T15:47:52Z</time>
      </trkpt>
      <trkpt lat="48.6127" lon="2.08555">
        <ele>153</ele>
        <time>2022-03-27T15:47:53Z</time>
      </trkpt>
      <trkpt lat="48.61272" lon="2.08556">
        <ele>153</ele>
        <time>2022-03-27T15:47:54Z</time>
      </trkpt>
      <trkpt lat="48.61274" lon="2.08559">
        <ele>153</ele>
        <time>2022-03-27T15:47:56Z</time>
      </trkpt>
      <trkpt lat="48.61276" lon="2.08561">
        <ele>154</ele>
        <time>2022-03-27T15:47:58Z</time>
      </trkpt>
      <trkpt lat="48.61279" lon="2.08564">
        <ele>155</ele>
        <time>2022-03-27T15:48:03Z</time>
      </trkpt>
      <trkpt lat="48.61281" lon="2.08565">
        <ele>155</ele>
        <time>2022-03-27T15:48:04Z</time>
      </trkpt>
      <trkpt lat="48.61283" lon="2.08566">
        <ele>155</ele>
        <time>2022-03-27T15:48:05Z</time>
      </trkpt>
      <trkpt lat="48.61285" lon="2.08567">
        <ele>155</ele>
        <time>2022-03-27T15:48:06Z</time>
      </trkpt>
      <trkpt lat="48.61288" lon="2.08568">
        <ele>155</ele>
        <time>2022-03-27T15:48:08Z</time>
      </trkpt>
      <trkpt lat="48.6129" lon="2.08569">
        <ele>156</ele>
        <time>2022-03-27T15:48:09Z</time>
      </trkpt>
      <trkpt lat="48.61292" lon="2.0857">
        <ele>156</ele>
        <time>2022-03-27T15:48:10Z</time>
      </trkpt>
      <trkpt lat="48.61296" lon="2.08572">
        <ele>156</ele>
        <time>2022-03-27T15:48:12Z</time>
      </trkpt>
      <trkpt lat="48.61298" lon="2.08573">
        <ele>157</ele>
        <time>2022-03-27T15:48:14Z</time>
      </trkpt>
      <trkpt lat="48.61301" lon="2.08574">
        <ele>157</ele>
        <time>2022-03-27T15:48:16Z</time>
      </trkpt>
      <trkpt lat="48.61304" lon="2.08576">
        <ele>158</ele>
        <time>2022-03-27T15:48:20Z</time>
      </trkpt>
      <trkpt lat="48.61306" lon="2.08577">
        <ele>158</ele>
        <time>2022-03-27T15:48:21Z</time>
      </trkpt>
      <trkpt lat="48.61309" lon="2.08579">
        <ele>158</ele>
        <time>2022-03-27T15:48:23Z</time>
      </trkpt>
      <trkpt lat="48.61311" lon="2.08581">
        <ele>158</ele>
        <time>2022-03-27T15:48:24Z</time>
      </trkpt>
      <trkpt lat="48.61313" lon="2.08582">
        <ele>158</ele>
        <time>2022-03-27T15:48:25Z</time>
      </trkpt>
      <trkpt lat="48.61315" lon="2.08584">
        <ele>158</ele>
        <time>2022-03-27T15:48:26Z</time>
      </trkpt>
      <trkpt lat="48.61317" lon="2.08586">
        <ele>158</ele>
        <time>2022-03-27T15:48:27Z</time>
      </trkpt>
      <trkpt lat="48.61318" lon="2.08587">
        <ele>158</ele>
        <time>2022-03-27T15:48:28Z</time>
      </trkpt>
      <trkpt lat="48.6132" lon="2.08589">
        <ele>158</ele>
        <time>2022-03-27T15:48:29Z</time>
      </trkpt>
      <trkpt lat="48.61323" lon="2.08592">
        <ele>158</ele>
        <time>2022-03-27T15:48:31Z</time>
      </trkpt>
      <trkpt lat="48.61325" lon="2.08594">
        <ele>157</ele>
        <time>2022-03-27T15:48:33Z</time>
      </trkpt>
      <trkpt lat="48.61327" lon="2.08596">
        <ele>157</ele>
        <time>2022-03-27T15:48:35Z</time>
      </trkpt>
      <trkpt lat="48.6133" lon="2.08598">
        <ele>158</ele>
        <time>2022-03-27T15:48:37Z</time>
      </trkpt>
      <trkpt lat="48.61332" lon="2.086">
        <ele>158</ele>
        <time>2022-03-27T15:48:39Z</time>
      </trkpt>
      <trkpt lat="48.61335" lon="2.08602">
        <ele>158</ele>
        <time>2022-03-27T15:48:41Z</time>
      </trkpt>
      <trkpt lat="48.61336" lon="2.08602">
        <ele>158</ele>
        <time>2022-03-27T15:48:43Z</time>
      </trkpt>
      <trkpt lat="48.61338" lon="2.08603">
        <ele>158</ele>
        <time>2022-03-27T15:48:44Z</time>
      </trkpt>
      <trkpt lat="48.61341" lon="2.08605">
        <ele>158</ele>
        <time>2022-03-27T15:48:46Z</time>
      </trkpt>
      <trkpt lat="48.61344" lon="2.08606">
        <ele>158</ele>
        <time>2022-03-27T15:48:48Z</time>
      </trkpt>
      <trkpt lat="48.61347" lon="2.08607">
        <ele>158</ele>
        <time>2022-03-27T15:48:50Z</time>
      </trkpt>
      <trkpt lat="48.61349" lon="2.08608">
        <ele>158</ele>
        <time>2022-03-27T15:48:52Z</time>
      </trkpt>
      <trkpt lat="48.6135" lon="2.08609">
        <ele>158</ele>
        <time>2022-03-27T15:48:53Z</time>
      </trkpt>
      <trkpt lat="48.61352" lon="2.08611">
        <ele>158</ele>
        <time>2022-03-27T15:48:54Z</time>
      </trkpt>
      <trkpt lat="48.61354" lon="2.08612">
        <ele>157</ele>
        <time>2022-03-27T15:48:55Z</time>
      </trkpt>
      <trkpt lat="48.61356" lon="2.08614">
        <ele>157</ele>
        <time>2022-03-27T15:48:56Z</time>
      </trkpt>
      <trkpt lat="48.61359" lon="2.08614">
        <ele>157</ele>
        <time>2022-03-27T15:48:58Z</time>
      </trkpt>
      <trkpt lat="48.61361" lon="2.08614">
        <ele>157</ele>
        <time>2022-03-27T15:49:00Z</time>
      </trkpt>
      <trkpt lat="48.61364" lon="2.08614">
        <ele>157</ele>
        <time>2022-03-27T15:49:02Z</time>
      </trkpt>
      <trkpt lat="48.61366" lon="2.08613">
        <ele>156</ele>
        <time>2022-03-27T15:49:04Z</time>
      </trkpt>
      <trkpt lat="48.61368" lon="2.08613">
        <ele>156</ele>
        <time>2022-03-27T15:49:06Z</time>
      </trkpt>
      <trkpt lat="48.61371" lon="2.08614">
        <ele>157</ele>
        <time>2022-03-27T15:49:08Z</time>
      </trkpt>
      <trkpt lat="48.61374" lon="2.08615">
        <ele>157</ele>
        <time>2022-03-27T15:49:10Z</time>
      </trkpt>
      <trkpt lat="48.61376" lon="2.08617">
        <ele>157</ele>
        <time>2022-03-27T15:49:11Z</time>
      </trkpt>
      <trkpt lat="48.61378" lon="2.08618">
        <ele>158</ele>
        <time>2022-03-27T15:49:12Z</time>
      </trkpt>
      <trkpt lat="48.61381" lon="2.0862">
        <ele>158</ele>
        <time>2022-03-27T15:49:14Z</time>
      </trkpt>
      <trkpt lat="48.61384" lon="2.08619">
        <ele>158</ele>
        <time>2022-03-27T15:49:16Z</time>
      </trkpt>
      <trkpt lat="48.61386" lon="2.08619">
        <ele>158</ele>
        <time>2022-03-27T15:49:18Z</time>
      </trkpt>
      <trkpt lat="48.61388" lon="2.08619">
        <ele>158</ele>
        <time>2022-03-27T15:49:20Z</time>
      </trkpt>
      <trkpt lat="48.6139" lon="2.08618">
        <ele>158</ele>
        <time>2022-03-27T15:49:22Z</time>
      </trkpt>
      <trkpt lat="48.61392" lon="2.08618">
        <ele>158</ele>
        <time>2022-03-27T15:49:24Z</time>
      </trkpt>
      <trkpt lat="48.61396" lon="2.08618">
        <ele>158</ele>
        <time>2022-03-27T15:49:26Z</time>
      </trkpt>
      <trkpt lat="48.61398" lon="2.08619">
        <ele>158</ele>
        <time>2022-03-27T15:49:27Z</time>
      </trkpt>
      <trkpt lat="48.61401" lon="2.0862">
        <ele>158</ele>
        <time>2022-03-27T15:49:29Z</time>
      </trkpt>
      <trkpt lat="48.61404" lon="2.08621">
        <ele>157</ele>
        <time>2022-03-27T15:49:30Z</time>
      </trkpt>
      <trkpt lat="48.61405" lon="2.08623">
        <ele>157</ele>
        <time>2022-03-27T15:49:31Z</time>
      </trkpt>
      <trkpt lat="48.61408" lon="2.08626">
        <ele>157</ele>
        <time>2022-03-27T15:49:31Z</time>
      </trkpt>
      <trkpt lat="48.61409" lon="2.08629">
        <ele>157</ele>
        <time>2022-03-27T15:49:33Z</time>
      </trkpt>
      <trkpt lat="48.61411" lon="2.08632">
        <ele>156</ele>
        <time>2022-03-27T15:49:34Z</time>
      </trkpt>
      <trkpt lat="48.61412" lon="2.08636">
        <ele>156</ele>
        <time>2022-03-27T15:49:35Z</time>
      </trkpt>
      <trkpt lat="48.61412" lon="2.0864">
        <ele>156</ele>
        <time>2022-03-27T15:49:36Z</time>
      </trkpt>
      <trkpt lat="48.61412" lon="2.08644">
        <ele>155</ele>
        <time>2022-03-27T15:49:37Z</time>
      </trkpt>
      <trkpt lat="48.61411" lon="2.08647">
        <ele>155</ele>
        <time>2022-03-27T15:49:38Z</time>
      </trkpt>
      <trkpt lat="48.61411" lon="2.0865">
        <ele>155</ele>
        <time>2022-03-27T15:49:39Z</time>
      </trkpt>
      <trkpt lat="48.61411" lon="2.08653">
        <ele>155</ele>
        <time>2022-03-27T15:49:40Z</time>
      </trkpt>
      <trkpt lat="48.6141" lon="2.08656">
        <ele>154</ele>
        <time>2022-03-27T15:49:41Z</time>
      </trkpt>
      <trkpt lat="48.61409" lon="2.08659">
        <ele>154</ele>
        <time>2022-03-27T15:49:42Z</time>
      </trkpt>
      <trkpt lat="48.61408" lon="2.08662">
        <ele>153</ele>
        <time>2022-03-27T15:49:43Z</time>
      </trkpt>
      <trkpt lat="48.61406" lon="2.08666">
        <ele>153</ele>
        <time>2022-03-27T15:49:45Z</time>
      </trkpt>
      <trkpt lat="48.61405" lon="2.08669">
        <ele>153</ele>
        <time>2022-03-27T15:49:46Z</time>
      </trkpt>
      <trkpt lat="48.61404" lon="2.08671">
        <ele>153</ele>
        <time>2022-03-27T15:49:47Z</time>
      </trkpt>
      <trkpt lat="48.61403" lon="2.08673">
        <ele>152</ele>
        <time>2022-03-27T15:49:48Z</time>
      </trkpt>
      <trkpt lat="48.61402" lon="2.08676">
        <ele>152</ele>
        <time>2022-03-27T15:49:49Z</time>
      </trkpt>
      <trkpt lat="48.61399" lon="2.08679">
        <ele>152</ele>
        <time>2022-03-27T15:49:51Z</time>
      </trkpt>
      <trkpt lat="48.61397" lon="2.08683">
        <ele>152</ele>
        <time>2022-03-27T15:49:53Z</time>
      </trkpt>
      <trkpt lat="48.61395" lon="2.08684">
        <ele>152</ele>
        <time>2022-03-27T15:49:55Z</time>
      </trkpt>
      <trkpt lat="48.61393" lon="2.08685">
        <ele>150</ele>
        <time>2022-03-27T15:50:08Z</time>
      </trkpt>
      <trkpt lat="48.61391" lon="2.08686">
        <ele>149</ele>
        <time>2022-03-27T15:50:20Z</time>
      </trkpt>
      <trkpt lat="48.61391" lon="2.08691">
        <ele>149</ele>
        <time>2022-03-27T15:50:24Z</time>
      </trkpt>
      <trkpt lat="48.6139" lon="2.08695">
        <ele>149</ele>
        <time>2022-03-27T15:50:26Z</time>
      </trkpt>
      <trkpt lat="48.61389" lon="2.087">
        <ele>148</ele>
        <time>2022-03-27T15:50:28Z</time>
      </trkpt>
      <trkpt lat="48.61388" lon="2.08705">
        <ele>148</ele>
        <time>2022-03-27T15:50:30Z</time>
      </trkpt>
      <trkpt lat="48.61386" lon="2.08709">
        <ele>148</ele>
        <time>2022-03-27T15:50:32Z</time>
      </trkpt>
      <trkpt lat="48.61384" lon="2.08714">
        <ele>148</ele>
        <time>2022-03-27T15:50:34Z</time>
      </trkpt>
      <trkpt lat="48.61383" lon="2.08719">
        <ele>148</ele>
        <time>2022-03-27T15:50:36Z</time>
      </trkpt>
      <trkpt lat="48.61381" lon="2.08723">
        <ele>148</ele>
        <time>2022-03-27T15:50:38Z</time>
      </trkpt>
      <trkpt lat="48.61379" lon="2.08727">
        <ele>148</ele>
        <time>2022-03-27T15:50:40Z</time>
      </trkpt>
      <trkpt lat="48.61378" lon="2.08731">
        <ele>148</ele>
        <time>2022-03-27T15:50:42Z</time>
      </trkpt>
      <trkpt lat="48.61377" lon="2.08735">
        <ele>148</ele>
        <time>2022-03-27T15:50:44Z</time>
      </trkpt>
      <trkpt lat="48.61375" lon="2.08739">
        <ele>147</ele>
        <time>2022-03-27T15:50:46Z</time>
      </trkpt>
      <trkpt lat="48.61374" lon="2.08743">
        <ele>147</ele>
        <time>2022-03-27T15:50:48Z</time>
      </trkpt>
      <trkpt lat="48.61373" lon="2.08747">
        <ele>147</ele>
        <time>2022-03-27T15:50:50Z</time>
      </trkpt>
      <trkpt lat="48.61372" lon="2.08752">
        <ele>147</ele>
        <time>2022-03-27T15:50:52Z</time>
      </trkpt>
      <trkpt lat="48.61371" lon="2.08756">
        <ele>146</ele>
        <time>2022-03-27T15:50:54Z</time>
      </trkpt>
      <trkpt lat="48.6137" lon="2.0876">
        <ele>146</ele>
        <time>2022-03-27T15:50:56Z</time>
      </trkpt>
      <trkpt lat="48.61369" lon="2.08764">
        <ele>146</ele>
        <time>2022-03-27T15:50:58Z</time>
      </trkpt>
      <trkpt lat="48.61368" lon="2.08769">
        <ele>145</ele>
        <time>2022-03-27T15:51:00Z</time>
      </trkpt>
      <trkpt lat="48.61367" lon="2.08773">
        <ele>145</ele>
        <time>2022-03-27T15:51:02Z</time>
      </trkpt>
      <trkpt lat="48.61366" lon="2.08778">
        <ele>144</ele>
        <time>2022-03-27T15:51:04Z</time>
      </trkpt>
      <trkpt lat="48.61365" lon="2.08782">
        <ele>144</ele>
        <time>2022-03-27T15:51:06Z</time>
      </trkpt>
      <trkpt lat="48.61364" lon="2.08787">
        <ele>144</ele>
        <time>2022-03-27T15:51:08Z</time>
      </trkpt>
      <trkpt lat="48.61363" lon="2.08792">
        <ele>143</ele>
        <time>2022-03-27T15:51:10Z</time>
      </trkpt>
      <trkpt lat="48.61363" lon="2.08796">
        <ele>143</ele>
        <time>2022-03-27T15:51:12Z</time>
      </trkpt>
      <trkpt lat="48.61362" lon="2.08801">
        <ele>143</ele>
        <time>2022-03-27T15:51:14Z</time>
      </trkpt>
      <trkpt lat="48.61362" lon="2.08806">
        <ele>143</ele>
        <time>2022-03-27T15:51:16Z</time>
      </trkpt>
      <trkpt lat="48.61361" lon="2.0881">
        <ele>143</ele>
        <time>2022-03-27T15:51:18Z</time>
      </trkpt>
      <trkpt lat="48.61361" lon="2.08815">
        <ele>143</ele>
        <time>2022-03-27T15:51:20Z</time>
      </trkpt>
      <trkpt lat="48.61361" lon="2.0882">
        <ele>142</ele>
        <time>2022-03-27T15:51:22Z</time>
      </trkpt>
      <trkpt lat="48.6136" lon="2.08824">
        <ele>142</ele>
        <time>2022-03-27T15:51:24Z</time>
      </trkpt>
      <trkpt lat="48.6136" lon="2.08829">
        <ele>142</ele>
        <time>2022-03-27T15:51:26Z</time>
      </trkpt>
      <trkpt lat="48.61361" lon="2.08834">
        <ele>142</ele>
        <time>2022-03-27T15:51:28Z</time>
      </trkpt>
      <trkpt lat="48.61361" lon="2.08838">
        <ele>141</ele>
        <time>2022-03-27T15:51:30Z</time>
      </trkpt>
      <trkpt lat="48.61362" lon="2.08843">
        <ele>141</ele>
        <time>2022-03-27T15:51:32Z</time>
      </trkpt>
      <trkpt lat="48.61363" lon="2.08848">
        <ele>141</ele>
        <time>2022-03-27T15:51:34Z</time>
      </trkpt>
      <trkpt lat="48.61363" lon="2.08852">
        <ele>141</ele>
        <time>2022-03-27T15:51:36Z</time>
      </trkpt>
      <trkpt lat="48.61364" lon="2.08857">
        <ele>141</ele>
        <time>2022-03-27T15:51:38Z</time>
      </trkpt>
      <trkpt lat="48.61364" lon="2.08862">
        <ele>140</ele>
        <time>2022-03-27T15:51:40Z</time>
      </trkpt>
      <trkpt lat="48.61365" lon="2.08866">
        <ele>140</ele>
        <time>2022-03-27T15:51:42Z</time>
      </trkpt>
      <trkpt lat="48.61366" lon="2.08871">
        <ele>140</ele>
        <time>2022-03-27T15:51:44Z</time>
      </trkpt>
      <trkpt lat="48.61366" lon="2.08875">
        <ele>140</ele>
        <time>2022-03-27T15:51:46Z</time>
      </trkpt>
      <trkpt lat="48.61367" lon="2.0888">
        <ele>140</ele>
        <time>2022-03-27T15:51:48Z</time>
      </trkpt>
      <trkpt lat="48.61368" lon="2.08885">
        <ele>139</ele>
        <time>2022-03-27T15:51:50Z</time>
      </trkpt>
      <trkpt lat="48.61368" lon="2.0889">
        <ele>139</ele>
        <time>2022-03-27T15:51:52Z</time>
      </trkpt>
      <trkpt lat="48.61369" lon="2.08895">
        <ele>139</ele>
        <time>2022-03-27T15:51:54Z</time>
      </trkpt>
      <trkpt lat="48.6137" lon="2.089">
        <ele>139</ele>
        <time>2022-03-27T15:51:56Z</time>
      </trkpt>
      <trkpt lat="48.61371" lon="2.08903">
        <ele>139</ele>
        <time>2022-03-27T15:51:57Z</time>
      </trkpt>
      <trkpt lat="48.61371" lon="2.08906">
        <ele>139</ele>
        <time>2022-03-27T15:51:58Z</time>
      </trkpt>
      <trkpt lat="48.61371" lon="2.08908">
        <ele>139</ele>
        <time>2022-03-27T15:51:59Z</time>
      </trkpt>
      <trkpt lat="48.61372" lon="2.08914">
        <ele>139</ele>
        <time>2022-03-27T15:52:01Z</time>
      </trkpt>
      <trkpt lat="48.61373" lon="2.08919">
        <ele>138</ele>
        <time>2022-03-27T15:52:03Z</time>
      </trkpt>
      <trkpt lat="48.61374" lon="2.08924">
        <ele>138</ele>
        <time>2022-03-27T15:52:05Z</time>
      </trkpt>
      <trkpt lat="48.61374" lon="2.08929">
        <ele>138</ele>
        <time>2022-03-27T15:52:07Z</time>
      </trkpt>
      <trkpt lat="48.61374" lon="2.08934">
        <ele>138</ele>
        <time>2022-03-27T15:52:09Z</time>
      </trkpt>
      <trkpt lat="48.61374" lon="2.08939">
        <ele>138</ele>
        <time>2022-03-27T15:52:11Z</time>
      </trkpt>
      <trkpt lat="48.61374" lon="2.08944">
        <ele>138</ele>
        <time>2022-03-27T15:52:13Z</time>
      </trkpt>
      <trkpt lat="48.61373" lon="2.08949">
        <ele>138</ele>
        <time>2022-03-27T15:52:15Z</time>
      </trkpt>
      <trkpt lat="48.61372" lon="2.08954">
        <ele>137</ele>
        <time>2022-03-27T15:52:17Z</time>
      </trkpt>
      <trkpt lat="48.6137" lon="2.08958">
        <ele>137</ele>
        <time>2022-03-27T15:52:19Z</time>
      </trkpt>
      <trkpt lat="48.61369" lon="2.08963">
        <ele>137</ele>
        <time>2022-03-27T15:52:21Z</time>
      </trkpt>
      <trkpt lat="48.61367" lon="2.08967">
        <ele>137</ele>
        <time>2022-03-27T15:52:23Z</time>
      </trkpt>
      <trkpt lat="48.61365" lon="2.08971">
        <ele>137</ele>
        <time>2022-03-27T15:52:25Z</time>
      </trkpt>
      <trkpt lat="48.61364" lon="2.08975">
        <ele>137</ele>
        <time>2022-03-27T15:52:27Z</time>
      </trkpt>
      <trkpt lat="48.61362" lon="2.08979">
        <ele>137</ele>
        <time>2022-03-27T15:52:29Z</time>
      </trkpt>
      <trkpt lat="48.61361" lon="2.08984">
        <ele>137</ele>
        <time>2022-03-27T15:52:31Z</time>
      </trkpt>
      <trkpt lat="48.61359" lon="2.08988">
        <ele>137</ele>
        <time>2022-03-27T15:52:33Z</time>
      </trkpt>
      <trkpt lat="48.61358" lon="2.08993">
        <ele>137</ele>
        <time>2022-03-27T15:52:35Z</time>
      </trkpt>
      <trkpt lat="48.61356" lon="2.08998">
        <ele>136</ele>
        <time>2022-03-27T15:52:37Z</time>
      </trkpt>
      <trkpt lat="48.61355" lon="2.09002">
        <ele>136</ele>
        <time>2022-03-27T15:52:39Z</time>
      </trkpt>
      <trkpt lat="48.61354" lon="2.09007">
        <ele>136</ele>
        <time>2022-03-27T15:52:41Z</time>
      </trkpt>
      <trkpt lat="48.61354" lon="2.09012">
        <ele>136</ele>
        <time>2022-03-27T15:52:43Z</time>
      </trkpt>
      <trkpt lat="48.61353" lon="2.09016">
        <ele>136</ele>
        <time>2022-03-27T15:52:45Z</time>
      </trkpt>
      <trkpt lat="48.61353" lon="2.09021">
        <ele>136</ele>
        <time>2022-03-27T15:52:47Z</time>
      </trkpt>
      <trkpt lat="48.61353" lon="2.09026">
        <ele>136</ele>
        <time>2022-03-27T15:52:49Z</time>
      </trkpt>
      <trkpt lat="48.61353" lon="2.09031">
        <ele>136</ele>
        <time>2022-03-27T15:52:51Z</time>
      </trkpt>
      <trkpt lat="48.61354" lon="2.09036">
        <ele>136</ele>
        <time>2022-03-27T15:52:53Z</time>
      </trkpt>
      <trkpt lat="48.61354" lon="2.0904">
        <ele>136</ele>
        <time>2022-03-27T15:52:55Z</time>
      </trkpt>
      <trkpt lat="48.61355" lon="2.09045">
        <ele>136</ele>
        <time>2022-03-27T15:52:57Z</time>
      </trkpt>
      <trkpt lat="48.61355" lon="2.09049">
        <ele>136</ele>
        <time>2022-03-27T15:52:59Z</time>
      </trkpt>
      <trkpt lat="48.61356" lon="2.09054">
        <ele>135</ele>
        <time>2022-03-27T15:53:01Z</time>
      </trkpt>
      <trkpt lat="48.61356" lon="2.09059">
        <ele>135</ele>
        <time>2022-03-27T15:53:03Z</time>
      </trkpt>
      <trkpt lat="48.61357" lon="2.09064">
        <ele>135</ele>
        <time>2022-03-27T15:53:05Z</time>
      </trkpt>
      <trkpt lat="48.61357" lon="2.09069">
        <ele>135</ele>
        <time>2022-03-27T15:53:07Z</time>
      </trkpt>
      <trkpt lat="48.61358" lon="2.09074">
        <ele>135</ele>
        <time>2022-03-27T15:53:09Z</time>
      </trkpt>
      <trkpt lat="48.61359" lon="2.09079">
        <ele>135</ele>
        <time>2022-03-27T15:53:11Z</time>
      </trkpt>
      <trkpt lat="48.6136" lon="2.09085">
        <ele>135</ele>
        <time>2022-03-27T15:53:13Z</time>
      </trkpt>
      <trkpt lat="48.6136" lon="2.09087">
        <ele>135</ele>
        <time>2022-03-27T15:53:14Z</time>
      </trkpt>
      <trkpt lat="48.61361" lon="2.09092">
        <ele>135</ele>
        <time>2022-03-27T15:53:16Z</time>
      </trkpt>
      <trkpt lat="48.61361" lon="2.09098">
        <ele>135</ele>
        <time>2022-03-27T15:53:18Z</time>
      </trkpt>
      <trkpt lat="48.61362" lon="2.09103">
        <ele>135</ele>
        <time>2022-03-27T15:53:20Z</time>
      </trkpt>
      <trkpt lat="48.61363" lon="2.09108">
        <ele>135</ele>
        <time>2022-03-27T15:53:22Z</time>
      </trkpt>
      <trkpt lat="48.61364" lon="2.09113">
        <ele>135</ele>
        <time>2022-03-27T15:53:24Z</time>
      </trkpt>
      <trkpt lat="48.61364" lon="2.09118">
        <ele>135</ele>
        <time>2022-03-27T15:53:26Z</time>
      </trkpt>
      <trkpt lat="48.61365" lon="2.09123">
        <ele>134</ele>
        <time>2022-03-27T15:53:28Z</time>
      </trkpt>
      <trkpt lat="48.61365" lon="2.09128">
        <ele>134</ele>
        <time>2022-03-27T15:53:30Z</time>
      </trkpt>
      <trkpt lat="48.61366" lon="2.09133">
        <ele>134</ele>
        <time>2022-03-27T15:53:32Z</time>
      </trkpt>
      <trkpt lat="48.61366" lon="2.09138">
        <ele>134</ele>
        <time>2022-03-27T15:53:34Z</time>
      </trkpt>
      <trkpt lat="48.61367" lon="2.09143">
        <ele>134</ele>
        <time>2022-03-27T15:53:36Z</time>
      </trkpt>
      <trkpt lat="48.61367" lon="2.09147">
        <ele>134</ele>
        <time>2022-03-27T15:53:38Z</time>
      </trkpt>
      <trkpt lat="48.61368" lon="2.09152">
        <ele>134</ele>
        <time>2022-03-27T15:53:40Z</time>
      </trkpt>
      <trkpt lat="48.61368" lon="2.09157">
        <ele>134</ele>
        <time>2022-03-27T15:53:42Z</time>
      </trkpt>
      <trkpt lat="48.61369" lon="2.09162">
        <ele>134</ele>
        <time>2022-03-27T15:53:44Z</time>
      </trkpt>
      <trkpt lat="48.6137" lon="2.09167">
        <ele>134</ele>
        <time>2022-03-27T15:53:46Z</time>
      </trkpt>
      <trkpt lat="48.6137" lon="2.09172">
        <ele>134</ele>
        <time>2022-03-27T15:53:48Z</time>
      </trkpt>
      <trkpt lat="48.61371" lon="2.09176">
        <ele>133</ele>
        <time>2022-03-27T15:53:50Z</time>
      </trkpt>
      <trkpt lat="48.61372" lon="2.09181">
        <ele>133</ele>
        <time>2022-03-27T15:53:52Z</time>
      </trkpt>
      <trkpt lat="48.61373" lon="2.09186">
        <ele>133</ele>
        <time>2022-03-27T15:53:54Z</time>
      </trkpt>
      <trkpt lat="48.61374" lon="2.0919">
        <ele>133</ele>
        <time>2022-03-27T15:53:56Z</time>
      </trkpt>
      <trkpt lat="48.61376" lon="2.09194">
        <ele>133</ele>
        <time>2022-03-27T15:53:58Z</time>
      </trkpt>
      <trkpt lat="48.61378" lon="2.09198">
        <ele>133</ele>
        <time>2022-03-27T15:54:00Z</time>
      </trkpt>
      <trkpt lat="48.6138" lon="2.09202">
        <ele>133</ele>
        <time>2022-03-27T15:54:02Z</time>
      </trkpt>
      <trkpt lat="48.61383" lon="2.09205">
        <ele>133</ele>
        <time>2022-03-27T15:54:04Z</time>
      </trkpt>
      <trkpt lat="48.61386" lon="2.09206">
        <ele>133</ele>
        <time>2022-03-27T15:54:06Z</time>
      </trkpt>
      <trkpt lat="48.61389" lon="2.09205">
        <ele>132</ele>
        <time>2022-03-27T15:54:08Z</time>
      </trkpt>
      <trkpt lat="48.61393" lon="2.09205">
        <ele>132</ele>
        <time>2022-03-27T15:54:10Z</time>
      </trkpt>
      <trkpt lat="48.61395" lon="2.09204">
        <ele>132</ele>
        <time>2022-03-27T15:54:12Z</time>
      </trkpt>
      <trkpt lat="48.61398" lon="2.09202">
        <ele>132</ele>
        <time>2022-03-27T15:54:14Z</time>
      </trkpt>
      <trkpt lat="48.61401" lon="2.09201">
        <ele>132</ele>
        <time>2022-03-27T15:54:16Z</time>
      </trkpt>
      <trkpt lat="48.61404" lon="2.092">
        <ele>132</ele>
        <time>2022-03-27T15:54:18Z</time>
      </trkpt>
      <trkpt lat="48.61407" lon="2.09199">
        <ele>132</ele>
        <time>2022-03-27T15:54:20Z</time>
      </trkpt>
      <trkpt lat="48.6141" lon="2.09198">
        <ele>132</ele>
        <time>2022-03-27T15:54:22Z</time>
      </trkpt>
      <trkpt lat="48.61413" lon="2.09196">
        <ele>131</ele>
        <time>2022-03-27T15:54:24Z</time>
      </trkpt>
      <trkpt lat="48.61416" lon="2.09195">
        <ele>131</ele>
        <time>2022-03-27T15:54:26Z</time>
      </trkpt>
      <trkpt lat="48.61419" lon="2.09194">
        <ele>131</ele>
        <time>2022-03-27T15:54:28Z</time>
      </trkpt>
      <trkpt lat="48.61422" lon="2.09193">
        <ele>131</ele>
        <time>2022-03-27T15:54:30Z</time>
      </trkpt>
      <trkpt lat="48.61425" lon="2.09192">
        <ele>132</ele>
        <time>2022-03-27T15:54:32Z</time>
      </trkpt>
      <trkpt lat="48.61428" lon="2.09192">
        <ele>132</ele>
        <time>2022-03-27T15:54:34Z</time>
      </trkpt>
      <trkpt lat="48.61431" lon="2.09191">
        <ele>132</ele>
        <time>2022-03-27T15:54:36Z</time>
      </trkpt>
      <trkpt lat="48.61434" lon="2.0919">
        <ele>132</ele>
        <time>2022-03-27T15:54:38Z</time>
      </trkpt>
      <trkpt lat="48.61437" lon="2.0919">
        <ele>132</ele>
        <time>2022-03-27T15:54:40Z</time>
      </trkpt>
      <trkpt lat="48.6144" lon="2.09189">
        <ele>132</ele>
        <time>2022-03-27T15:54:42Z</time>
      </trkpt>
      <trkpt lat="48.61443" lon="2.09188">
        <ele>132</ele>
        <time>2022-03-27T15:54:44Z</time>
      </trkpt>
      <trkpt lat="48.61446" lon="2.09188">
        <ele>132</ele>
        <time>2022-03-27T15:54:46Z</time>
      </trkpt>
      <trkpt lat="48.61449" lon="2.09188">
        <ele>132</ele>
        <time>2022-03-27T15:54:48Z</time>
      </trkpt>
      <trkpt lat="48.61451" lon="2.09189">
        <ele>132</ele>
        <time>2022-03-27T15:54:49Z</time>
      </trkpt>
      <trkpt lat="48.61454" lon="2.0919">
        <ele>133</ele>
        <time>2022-03-27T15:54:51Z</time>
      </trkpt>
      <trkpt lat="48.61457" lon="2.09192">
        <ele>132</ele>
        <time>2022-03-27T15:54:53Z</time>
      </trkpt>
      <trkpt lat="48.61459" lon="2.09195">
        <ele>132</ele>
        <time>2022-03-27T15:54:55Z</time>
      </trkpt>
      <trkpt lat="48.61462" lon="2.09197">
        <ele>132</ele>
        <time>2022-03-27T15:54:57Z</time>
      </trkpt>
      <trkpt lat="48.61463" lon="2.09198">
        <ele>133</ele>
        <time>2022-03-27T15:55:00Z</time>
      </trkpt>
      <trkpt lat="48.61462" lon="2.09197">
        <ele>132</ele>
        <time>2022-03-27T15:55:17Z</time>
      </trkpt>
      <trkpt lat="48.61462" lon="2.092">
        <ele>132</ele>
        <time>2022-03-27T15:55:43Z</time>
      </trkpt>
      <trkpt lat="48.61463" lon="2.09201">
        <ele>132</ele>
        <time>2022-03-27T15:55:59Z</time>
      </trkpt>
      <trkpt lat="48.61463" lon="2.09204">
        <ele>130</ele>
        <time>2022-03-27T15:56:19Z</time>
      </trkpt>
      <trkpt lat="48.61463" lon="2.09206">
        <ele>130</ele>
        <time>2022-03-27T15:56:22Z</time>
      </trkpt>
      <trkpt lat="48.61463" lon="2.09209">
        <ele>130</ele>
        <time>2022-03-27T15:56:24Z</time>
      </trkpt>
      <trkpt lat="48.61464" lon="2.09213">
        <ele>130</ele>
        <time>2022-03-27T15:56:27Z</time>
      </trkpt>
      <trkpt lat="48.61465" lon="2.09216">
        <ele>130</ele>
        <time>2022-03-27T15:56:29Z</time>
      </trkpt>
      <trkpt lat="48.61466" lon="2.09219">
        <ele>130</ele>
        <time>2022-03-27T15:56:31Z</time>
      </trkpt>
      <trkpt lat="48.61466" lon="2.09222">
        <ele>130</ele>
        <time>2022-03-27T15:56:34Z</time>
      </trkpt>
      <trkpt lat="48.61467" lon="2.09225">
        <ele>130</ele>
        <time>2022-03-27T15:56:36Z</time>
      </trkpt>
      <trkpt lat="48.61468" lon="2.09227">
        <ele>130</ele>
        <time>2022-03-27T15:56:38Z</time>
      </trkpt>
      <trkpt lat="48.61469" lon="2.09231">
        <ele>130</ele>
        <time>2022-03-27T15:56:41Z</time>
      </trkpt>
      <trkpt lat="48.6147" lon="2.09234">
        <ele>130</ele>
        <time>2022-03-27T15:56:44Z</time>
      </trkpt>
      <trkpt lat="48.6147" lon="2.09237">
        <ele>130</ele>
        <time>2022-03-27T15:56:46Z</time>
      </trkpt>
      <trkpt lat="48.61471" lon="2.09241">
        <ele>130</ele>
        <time>2022-03-27T15:56:48Z</time>
      </trkpt>
      <trkpt lat="48.61471" lon="2.09244">
        <ele>129</ele>
        <time>2022-03-27T15:56:50Z</time>
      </trkpt>
      <trkpt lat="48.61471" lon="2.09248">
        <ele>129</ele>
        <time>2022-03-27T15:56:52Z</time>
      </trkpt>
      <trkpt lat="48.61472" lon="2.0925">
        <ele>129</ele>
        <time>2022-03-27T15:56:53Z</time>
      </trkpt>
      <trkpt lat="48.61473" lon="2.09253">
        <ele>129</ele>
        <time>2022-03-27T15:56:55Z</time>
      </trkpt>
      <trkpt lat="48.61473" lon="2.09257">
        <ele>130</ele>
        <time>2022-03-27T15:56:58Z</time>
      </trkpt>
      <trkpt lat="48.61473" lon="2.09261">
        <ele>130</ele>
        <time>2022-03-27T15:57:01Z</time>
      </trkpt>
      <trkpt lat="48.61474" lon="2.09264">
        <ele>130</ele>
        <time>2022-03-27T15:57:03Z</time>
      </trkpt>
      <trkpt lat="48.61474" lon="2.09268">
        <ele>129</ele>
        <time>2022-03-27T15:57:05Z</time>
      </trkpt>
      <trkpt lat="48.61476" lon="2.09271">
        <ele>129</ele>
        <time>2022-03-27T15:57:08Z</time>
      </trkpt>
      <trkpt lat="48.61477" lon="2.09274">
        <ele>129</ele>
        <time>2022-03-27T15:57:10Z</time>
      </trkpt>
      <trkpt lat="48.61476" lon="2.09277">
        <ele>129</ele>
        <time>2022-03-27T15:57:12Z</time>
      </trkpt>
      <trkpt lat="48.61476" lon="2.09281">
        <ele>129</ele>
        <time>2022-03-27T15:57:14Z</time>
      </trkpt>
      <trkpt lat="48.61477" lon="2.09285">
        <ele>129</ele>
        <time>2022-03-27T15:57:17Z</time>
      </trkpt>
      <trkpt lat="48.61478" lon="2.09288">
        <ele>129</ele>
        <time>2022-03-27T15:57:19Z</time>
      </trkpt>
      <trkpt lat="48.61479" lon="2.09291">
        <ele>129</ele>
        <time>2022-03-27T15:57:21Z</time>
      </trkpt>
      <trkpt lat="48.6148" lon="2.09295">
        <ele>128</ele>
        <time>2022-03-27T15:57:23Z</time>
      </trkpt>
      <trkpt lat="48.61481" lon="2.09298">
        <ele>128</ele>
        <time>2022-03-27T15:57:25Z</time>
      </trkpt>
      <trkpt lat="48.61482" lon="2.09302">
        <ele>128</ele>
        <time>2022-03-27T15:57:27Z</time>
      </trkpt>
      <trkpt lat="48.61483" lon="2.09306">
        <ele>128</ele>
        <time>2022-03-27T15:57:29Z</time>
      </trkpt>
      <trkpt lat="48.61485" lon="2.0931">
        <ele>128</ele>
        <time>2022-03-27T15:57:31Z</time>
      </trkpt>
      <trkpt lat="48.61485" lon="2.09314">
        <ele>128</ele>
        <time>2022-03-27T15:57:33Z</time>
      </trkpt>
      <trkpt lat="48.61486" lon="2.09317">
        <ele>128</ele>
        <time>2022-03-27T15:57:35Z</time>
      </trkpt>
      <trkpt lat="48.61487" lon="2.0932">
        <ele>128</ele>
        <time>2022-03-27T15:57:37Z</time>
      </trkpt>
      <trkpt lat="48.61487" lon="2.09323">
        <ele>129</ele>
        <time>2022-03-27T15:57:39Z</time>
      </trkpt>
      <trkpt lat="48.61488" lon="2.09327">
        <ele>129</ele>
        <time>2022-03-27T15:57:40Z</time>
      </trkpt>
      <trkpt lat="48.61489" lon="2.09329">
        <ele>129</ele>
        <time>2022-03-27T15:57:43Z</time>
      </trkpt>
      <trkpt lat="48.61489" lon="2.09332">
        <ele>129</ele>
        <time>2022-03-27T15:57:45Z</time>
      </trkpt>
      <trkpt lat="48.6149" lon="2.09336">
        <ele>129</ele>
        <time>2022-03-27T15:57:47Z</time>
      </trkpt>
      <trkpt lat="48.61492" lon="2.09339">
        <ele>129</ele>
        <time>2022-03-27T15:57:49Z</time>
      </trkpt>
      <trkpt lat="48.61492" lon="2.09342">
        <ele>129</ele>
        <time>2022-03-27T15:57:51Z</time>
      </trkpt>
      <trkpt lat="48.61492" lon="2.09345">
        <ele>129</ele>
        <time>2022-03-27T15:57:53Z</time>
      </trkpt>
      <trkpt lat="48.61493" lon="2.09348">
        <ele>129</ele>
        <time>2022-03-27T15:57:55Z</time>
      </trkpt>
      <trkpt lat="48.61492" lon="2.09351">
        <ele>129</ele>
        <time>2022-03-27T15:58:05Z</time>
      </trkpt>
      <trkpt lat="48.61493" lon="2.09354">
        <ele>129</ele>
        <time>2022-03-27T15:58:07Z</time>
      </trkpt>
      <trkpt lat="48.61494" lon="2.09357">
        <ele>128</ele>
        <time>2022-03-27T15:58:10Z</time>
      </trkpt>
      <trkpt lat="48.61495" lon="2.0936">
        <ele>128</ele>
        <time>2022-03-27T15:58:16Z</time>
      </trkpt>
      <trkpt lat="48.61496" lon="2.09363">
        <ele>128</ele>
        <time>2022-03-27T15:58:18Z</time>
      </trkpt>
      <trkpt lat="48.61496" lon="2.09367">
        <ele>128</ele>
        <time>2022-03-27T15:58:20Z</time>
      </trkpt>
      <trkpt lat="48.61497" lon="2.0937">
        <ele>128</ele>
        <time>2022-03-27T15:58:22Z</time>
      </trkpt>
      <trkpt lat="48.61498" lon="2.09374">
        <ele>128</ele>
        <time>2022-03-27T15:58:24Z</time>
      </trkpt>
      <trkpt lat="48.61499" lon="2.09378">
        <ele>128</ele>
        <time>2022-03-27T15:58:26Z</time>
      </trkpt>
      <trkpt lat="48.615" lon="2.09382">
        <ele>128</ele>
        <time>2022-03-27T15:58:28Z</time>
      </trkpt>
      <trkpt lat="48.61501" lon="2.09386">
        <ele>128</ele>
        <time>2022-03-27T15:58:30Z</time>
      </trkpt>
      <trkpt lat="48.61502" lon="2.09389">
        <ele>127</ele>
        <time>2022-03-27T15:58:32Z</time>
      </trkpt>
      <trkpt lat="48.61502" lon="2.09392">
        <ele>127</ele>
        <time>2022-03-27T15:58:34Z</time>
      </trkpt>
      <trkpt lat="48.61503" lon="2.09395">
        <ele>127</ele>
        <time>2022-03-27T15:58:36Z</time>
      </trkpt>
      <trkpt lat="48.61504" lon="2.09399">
        <ele>127</ele>
        <time>2022-03-27T15:58:38Z</time>
      </trkpt>
      <trkpt lat="48.61505" lon="2.09402">
        <ele>127</ele>
        <time>2022-03-27T15:58:40Z</time>
      </trkpt>
      <trkpt lat="48.61505" lon="2.09406">
        <ele>127</ele>
        <time>2022-03-27T15:58:42Z</time>
      </trkpt>
      <trkpt lat="48.61506" lon="2.09409">
        <ele>127</ele>
        <time>2022-03-27T15:58:44Z</time>
      </trkpt>
      <trkpt lat="48.61506" lon="2.09412">
        <ele>127</ele>
        <time>2022-03-27T15:58:46Z</time>
      </trkpt>
      <trkpt lat="48.61506" lon="2.09416">
        <ele>127</ele>
        <time>2022-03-27T15:58:48Z</time>
      </trkpt>
      <trkpt lat="48.61507" lon="2.09419">
        <ele>127</ele>
        <time>2022-03-27T15:58:50Z</time>
      </trkpt>
      <trkpt lat="48.61507" lon="2.09423">
        <ele>127</ele>
        <time>2022-03-27T15:58:52Z</time>
      </trkpt>
      <trkpt lat="48.61508" lon="2.09427">
        <ele>126</ele>
        <time>2022-03-27T15:58:54Z</time>
      </trkpt>
      <trkpt lat="48.61509" lon="2.0943">
        <ele>126</ele>
        <time>2022-03-27T15:58:56Z</time>
      </trkpt>
      <trkpt lat="48.6151" lon="2.09434">
        <ele>126</ele>
        <time>2022-03-27T15:58:58Z</time>
      </trkpt>
      <trkpt lat="48.61511" lon="2.09438">
        <ele>126</ele>
        <time>2022-03-27T15:59:00Z</time>
      </trkpt>
      <trkpt lat="48.61512" lon="2.09442">
        <ele>126</ele>
        <time>2022-03-27T15:59:02Z</time>
      </trkpt>
      <trkpt lat="48.61513" lon="2.09445">
        <ele>126</ele>
        <time>2022-03-27T15:59:04Z</time>
      </trkpt>
      <trkpt lat="48.61514" lon="2.09449">
        <ele>126</ele>
        <time>2022-03-27T15:59:06Z</time>
      </trkpt>
      <trkpt lat="48.61515" lon="2.09452">
        <ele>126</ele>
        <time>2022-03-27T15:59:08Z</time>
      </trkpt>
      <trkpt lat="48.61516" lon="2.09456">
        <ele>126</ele>
        <time>2022-03-27T15:59:10Z</time>
      </trkpt>
      <trkpt lat="48.61517" lon="2.0946">
        <ele>126</ele>
        <time>2022-03-27T15:59:12Z</time>
      </trkpt>
      <trkpt lat="48.61518" lon="2.09463">
        <ele>126</ele>
        <time>2022-03-27T15:59:14Z</time>
      </trkpt>
      <trkpt lat="48.61519" lon="2.09467">
        <ele>126</ele>
        <time>2022-03-27T15:59:16Z</time>
      </trkpt>
      <trkpt lat="48.6152" lon="2.09471">
        <ele>126</ele>
        <time>2022-03-27T15:59:18Z</time>
      </trkpt>
      <trkpt lat="48.61521" lon="2.09474">
        <ele>126</ele>
        <time>2022-03-27T15:59:20Z</time>
      </trkpt>
      <trkpt lat="48.61522" lon="2.09478">
        <ele>126</ele>
        <time>2022-03-27T15:59:22Z</time>
      </trkpt>
      <trkpt lat="48.61522" lon="2.09481">
        <ele>125</ele>
        <time>2022-03-27T15:59:24Z</time>
      </trkpt>
      <trkpt lat="48.61523" lon="2.09485">
        <ele>125</ele>
        <time>2022-03-27T15:59:26Z</time>
      </trkpt>
      <trkpt lat="48.61525" lon="2.09489">
        <ele>125</ele>
        <time>2022-03-27T15:59:28Z</time>
      </trkpt>
      <trkpt lat="48.61526" lon="2.09492">
        <ele>125</ele>
        <time>2022-03-27T15:59:30Z</time>
      </trkpt>
      <trkpt lat="48.61526" lon="2.09496">
        <ele>125</ele>
        <time>2022-03-27T15:59:32Z</time>
      </trkpt>
      <trkpt lat="48.61527" lon="2.09499">
        <ele>125</ele>
        <time>2022-03-27T15:59:34Z</time>
      </trkpt>
      <trkpt lat="48.61528" lon="2.09503">
        <ele>125</ele>
        <time>2022-03-27T15:59:36Z</time>
      </trkpt>
      <trkpt lat="48.61529" lon="2.09507">
        <ele>125</ele>
        <time>2022-03-27T15:59:38Z</time>
      </trkpt>
      <trkpt lat="48.6153" lon="2.0951">
        <ele>125</ele>
        <time>2022-03-27T15:59:40Z</time>
      </trkpt>
      <trkpt lat="48.61531" lon="2.09514">
        <ele>125</ele>
        <time>2022-03-27T15:59:42Z</time>
      </trkpt>
      <trkpt lat="48.61531" lon="2.09517">
        <ele>125</ele>
        <time>2022-03-27T15:59:44Z</time>
      </trkpt>
      <trkpt lat="48.61532" lon="2.09521">
        <ele>125</ele>
        <time>2022-03-27T15:59:46Z</time>
      </trkpt>
      <trkpt lat="48.61533" lon="2.09525">
        <ele>125</ele>
        <time>2022-03-27T15:59:48Z</time>
      </trkpt>
      <trkpt lat="48.61534" lon="2.09529">
        <ele>125</ele>
        <time>2022-03-27T15:59:50Z</time>
      </trkpt>
      <trkpt lat="48.61535" lon="2.09533">
        <ele>125</ele>
        <time>2022-03-27T15:59:52Z</time>
      </trkpt>
      <trkpt lat="48.61536" lon="2.09537">
        <ele>125</ele>
        <time>2022-03-27T15:59:54Z</time>
      </trkpt>
      <trkpt lat="48.61537" lon="2.09541">
        <ele>125</ele>
        <time>2022-03-27T15:59:56Z</time>
      </trkpt>
      <trkpt lat="48.61538" lon="2.09545">
        <ele>125</ele>
        <time>2022-03-27T15:59:58Z</time>
      </trkpt>
      <trkpt lat="48.61539" lon="2.09548">
        <ele>125</ele>
        <time>2022-03-27T16:00:00Z</time>
      </trkpt>
      <trkpt lat="48.6154" lon="2.09552">
        <ele>125</ele>
        <time>2022-03-27T16:00:02Z</time>
      </trkpt>
      <trkpt lat="48.61541" lon="2.09555">
        <ele>125</ele>
        <time>2022-03-27T16:00:04Z</time>
      </trkpt>
      <trkpt lat="48.61541" lon="2.09558">
        <ele>125</ele>
        <time>2022-03-27T16:00:06Z</time>
      </trkpt>
      <trkpt lat="48.61542" lon="2.09561">
        <ele>125</ele>
        <time>2022-03-27T16:00:08Z</time>
      </trkpt>
      <trkpt lat="48.61542" lon="2.09565">
        <ele>125</ele>
        <time>2022-03-27T16:00:10Z</time>
      </trkpt>
      <trkpt lat="48.61543" lon="2.09569">
        <ele>125</ele>
        <time>2022-03-27T16:00:12Z</time>
      </trkpt>
      <trkpt lat="48.61544" lon="2.09572">
        <ele>125</ele>
        <time>2022-03-27T16:00:14Z</time>
      </trkpt>
      <trkpt lat="48.61544" lon="2.09576">
        <ele>124</ele>
        <time>2022-03-27T16:00:19Z</time>
      </trkpt>
      <trkpt lat="48.61545" lon="2.09579">
        <ele>124</ele>
        <time>2022-03-27T16:00:21Z</time>
      </trkpt>
      <trkpt lat="48.61546" lon="2.09584">
        <ele>124</ele>
        <time>2022-03-27T16:00:23Z</time>
      </trkpt>
      <trkpt lat="48.61547" lon="2.09588">
        <ele>125</ele>
        <time>2022-03-27T16:00:25Z</time>
      </trkpt>
      <trkpt lat="48.61547" lon="2.09592">
        <ele>125</ele>
        <time>2022-03-27T16:00:27Z</time>
      </trkpt>
      <trkpt lat="48.61548" lon="2.09596">
        <ele>125</ele>
        <time>2022-03-27T16:00:29Z</time>
      </trkpt>
      <trkpt lat="48.61549" lon="2.096">
        <ele>125</ele>
        <time>2022-03-27T16:00:31Z</time>
      </trkpt>
      <trkpt lat="48.6155" lon="2.09604">
        <ele>125</ele>
        <time>2022-03-27T16:00:33Z</time>
      </trkpt>
      <trkpt lat="48.61551" lon="2.09608">
        <ele>125</ele>
        <time>2022-03-27T16:00:35Z</time>
      </trkpt>
      <trkpt lat="48.61552" lon="2.09611">
        <ele>125</ele>
        <time>2022-03-27T16:00:37Z</time>
      </trkpt>
      <trkpt lat="48.61553" lon="2.09615">
        <ele>125</ele>
        <time>2022-03-27T16:00:39Z</time>
      </trkpt>
      <trkpt lat="48.61554" lon="2.09619">
        <ele>125</ele>
        <time>2022-03-27T16:00:41Z</time>
      </trkpt>
      <trkpt lat="48.61554" lon="2.09622">
        <ele>124</ele>
        <time>2022-03-27T16:00:43Z</time>
      </trkpt>
      <trkpt lat="48.61556" lon="2.09626">
        <ele>124</ele>
        <time>2022-03-27T16:00:45Z</time>
      </trkpt>
      <trkpt lat="48.61557" lon="2.0963">
        <ele>124</ele>
        <time>2022-03-27T16:00:47Z</time>
      </trkpt>
      <trkpt lat="48.61557" lon="2.09634">
        <ele>124</ele>
        <time>2022-03-27T16:00:49Z</time>
      </trkpt>
      <trkpt lat="48.61558" lon="2.09637">
        <ele>124</ele>
        <time>2022-03-27T16:00:51Z</time>
      </trkpt>
      <trkpt lat="48.6156" lon="2.09641">
        <ele>124</ele>
        <time>2022-03-27T16:00:53Z</time>
      </trkpt>
      <trkpt lat="48.61561" lon="2.09646">
        <ele>124</ele>
        <time>2022-03-27T16:00:55Z</time>
      </trkpt>
      <trkpt lat="48.61562" lon="2.09649">
        <ele>124</ele>
        <time>2022-03-27T16:00:57Z</time>
      </trkpt>
      <trkpt lat="48.61563" lon="2.09653">
        <ele>124</ele>
        <time>2022-03-27T16:00:59Z</time>
      </trkpt>
      <trkpt lat="48.61564" lon="2.09658">
        <ele>124</ele>
        <time>2022-03-27T16:01:01Z</time>
      </trkpt>
      <trkpt lat="48.61564" lon="2.09661">
        <ele>124</ele>
        <time>2022-03-27T16:01:03Z</time>
      </trkpt>
      <trkpt lat="48.61564" lon="2.09665">
        <ele>124</ele>
        <time>2022-03-27T16:01:05Z</time>
      </trkpt>
      <trkpt lat="48.61565" lon="2.09669">
        <ele>124</ele>
        <time>2022-03-27T16:01:07Z</time>
      </trkpt>
      <trkpt lat="48.61567" lon="2.09673">
        <ele>124</ele>
        <time>2022-03-27T16:01:09Z</time>
      </trkpt>
      <trkpt lat="48.61567" lon="2.09677">
        <ele>124</ele>
        <time>2022-03-27T16:01:11Z</time>
      </trkpt>
      <trkpt lat="48.61568" lon="2.0968">
        <ele>124</ele>
        <time>2022-03-27T16:01:13Z</time>
      </trkpt>
      <trkpt lat="48.61567" lon="2.09684">
        <ele>124</ele>
        <time>2022-03-27T16:01:22Z</time>
      </trkpt>
      <trkpt lat="48.61568" lon="2.09687">
        <ele>124</ele>
        <time>2022-03-27T16:01:24Z</time>
      </trkpt>
      <trkpt lat="48.61569" lon="2.09691">
        <ele>124</ele>
        <time>2022-03-27T16:01:26Z</time>
      </trkpt>
      <trkpt lat="48.6157" lon="2.09694">
        <ele>124</ele>
        <time>2022-03-27T16:01:28Z</time>
      </trkpt>
      <trkpt lat="48.61571" lon="2.09698">
        <ele>124</ele>
        <time>2022-03-27T16:01:30Z</time>
      </trkpt>
      <trkpt lat="48.61571" lon="2.09702">
        <ele>125</ele>
        <time>2022-03-27T16:01:32Z</time>
      </trkpt>
      <trkpt lat="48.61572" lon="2.09706">
        <ele>125</ele>
        <time>2022-03-27T16:01:34Z</time>
      </trkpt>
      <trkpt lat="48.61572" lon="2.0971">
        <ele>125</ele>
        <time>2022-03-27T16:01:36Z</time>
      </trkpt>
      <trkpt lat="48.61573" lon="2.09714">
        <ele>124</ele>
        <time>2022-03-27T16:01:38Z</time>
      </trkpt>
      <trkpt lat="48.61574" lon="2.09718">
        <ele>124</ele>
        <time>2022-03-27T16:01:40Z</time>
      </trkpt>
      <trkpt lat="48.61574" lon="2.09723">
        <ele>124</ele>
        <time>2022-03-27T16:01:42Z</time>
      </trkpt>
      <trkpt lat="48.61575" lon="2.09727">
        <ele>124</ele>
        <time>2022-03-27T16:01:44Z</time>
      </trkpt>
      <trkpt lat="48.61575" lon="2.09731">
        <ele>124</ele>
        <time>2022-03-27T16:01:46Z</time>
      </trkpt>
      <trkpt lat="48.61576" lon="2.09735">
        <ele>124</ele>
        <time>2022-03-27T16:01:48Z</time>
      </trkpt>
      <trkpt lat="48.61576" lon="2.09739">
        <ele>124</ele>
        <time>2022-03-27T16:01:50Z</time>
      </trkpt>
      <trkpt lat="48.61576" lon="2.09742">
        <ele>123</ele>
        <time>2022-03-27T16:01:52Z</time>
      </trkpt>
      <trkpt lat="48.61577" lon="2.09747">
        <ele>123</ele>
        <time>2022-03-27T16:01:54Z</time>
      </trkpt>
      <trkpt lat="48.61577" lon="2.09751">
        <ele>123</ele>
        <time>2022-03-27T16:01:56Z</time>
      </trkpt>
      <trkpt lat="48.61577" lon="2.09755">
        <ele>123</ele>
        <time>2022-03-27T16:01:58Z</time>
      </trkpt>
      <trkpt lat="48.61578" lon="2.09759">
        <ele>123</ele>
        <time>2022-03-27T16:02:00Z</time>
      </trkpt>
      <trkpt lat="48.61577" lon="2.09763">
        <ele>123</ele>
        <time>2022-03-27T16:02:02Z</time>
      </trkpt>
      <trkpt lat="48.61578" lon="2.09766">
        <ele>123</ele>
        <time>2022-03-27T16:02:04Z</time>
      </trkpt>
      <trkpt lat="48.61579" lon="2.0977">
        <ele>123</ele>
        <time>2022-03-27T16:02:06Z</time>
      </trkpt>
      <trkpt lat="48.61579" lon="2.09773">
        <ele>123</ele>
        <time>2022-03-27T16:02:08Z</time>
      </trkpt>
      <trkpt lat="48.6158" lon="2.09777">
        <ele>123</ele>
        <time>2022-03-27T16:02:10Z</time>
      </trkpt>
      <trkpt lat="48.6158" lon="2.09781">
        <ele>123</ele>
        <time>2022-03-27T16:02:12Z</time>
      </trkpt>
      <trkpt lat="48.6158" lon="2.09785">
        <ele>123</ele>
        <time>2022-03-27T16:02:14Z</time>
      </trkpt>
      <trkpt lat="48.61581" lon="2.09789">
        <ele>123</ele>
        <time>2022-03-27T16:02:16Z</time>
      </trkpt>
      <trkpt lat="48.61582" lon="2.09794">
        <ele>123</ele>
        <time>2022-03-27T16:02:18Z</time>
      </trkpt>
      <trkpt lat="48.61582" lon="2.09798">
        <ele>123</ele>
        <time>2022-03-27T16:02:20Z</time>
      </trkpt>
      <trkpt lat="48.61582" lon="2.09803">
        <ele>123</ele>
        <time>2022-03-27T16:02:22Z</time>
      </trkpt>
      <trkpt lat="48.61582" lon="2.09807">
        <ele>123</ele>
        <time>2022-03-27T16:02:24Z</time>
      </trkpt>
      <trkpt lat="48.61582" lon="2.09811">
        <ele>123</ele>
        <time>2022-03-27T16:02:26Z</time>
      </trkpt>
      <trkpt lat="48.61582" lon="2.09815">
        <ele>123</ele>
        <time>2022-03-27T16:02:28Z</time>
      </trkpt>
      <trkpt lat="48.61583" lon="2.09819">
        <ele>123</ele>
        <time>2022-03-27T16:02:30Z</time>
      </trkpt>
      <trkpt lat="48.61583" lon="2.09824">
        <ele>123</ele>
        <time>2022-03-27T16:02:32Z</time>
      </trkpt>
      <trkpt lat="48.61584" lon="2.09828">
        <ele>124</ele>
        <time>2022-03-27T16:02:34Z</time>
      </trkpt>
      <trkpt lat="48.61584" lon="2.09832">
        <ele>124</ele>
        <time>2022-03-27T16:02:36Z</time>
      </trkpt>
      <trkpt lat="48.61584" lon="2.09835">
        <ele>123</ele>
        <time>2022-03-27T16:02:38Z</time>
      </trkpt>
      <trkpt lat="48.61585" lon="2.0984">
        <ele>123</ele>
        <time>2022-03-27T16:02:41Z</time>
      </trkpt>
      <trkpt lat="48.61584" lon="2.09843">
        <ele>123</ele>
        <time>2022-03-27T16:02:43Z</time>
      </trkpt>
      <trkpt lat="48.61584" lon="2.09847">
        <ele>123</ele>
        <time>2022-03-27T16:02:45Z</time>
      </trkpt>
      <trkpt lat="48.61584" lon="2.09851">
        <ele>123</ele>
        <time>2022-03-27T16:02:47Z</time>
      </trkpt>
      <trkpt lat="48.61584" lon="2.09855">
        <ele>122</ele>
        <time>2022-03-27T16:02:49Z</time>
      </trkpt>
      <trkpt lat="48.61584" lon="2.0986">
        <ele>122</ele>
        <time>2022-03-27T16:02:51Z</time>
      </trkpt>
      <trkpt lat="48.61584" lon="2.09864">
        <ele>122</ele>
        <time>2022-03-27T16:02:53Z</time>
      </trkpt>
      <trkpt lat="48.61584" lon="2.09868">
        <ele>122</ele>
        <time>2022-03-27T16:02:55Z</time>
      </trkpt>
      <trkpt lat="48.61583" lon="2.09871">
        <ele>122</ele>
        <time>2022-03-27T16:02:57Z</time>
      </trkpt>
      <trkpt lat="48.61583" lon="2.09875">
        <ele>121</ele>
        <time>2022-03-27T16:02:59Z</time>
      </trkpt>
      <trkpt lat="48.61583" lon="2.09879">
        <ele>121</ele>
        <time>2022-03-27T16:03:01Z</time>
      </trkpt>
      <trkpt lat="48.61583" lon="2.09883">
        <ele>121</ele>
        <time>2022-03-27T16:03:03Z</time>
      </trkpt>
      <trkpt lat="48.61583" lon="2.09887">
        <ele>120</ele>
        <time>2022-03-27T16:03:05Z</time>
      </trkpt>
      <trkpt lat="48.61583" lon="2.09891">
        <ele>120</ele>
        <time>2022-03-27T16:03:08Z</time>
      </trkpt>
      <trkpt lat="48.61583" lon="2.09894">
        <ele>119</ele>
        <time>2022-03-27T16:03:10Z</time>
      </trkpt>
      <trkpt lat="48.61583" lon="2.09898">
        <ele>119</ele>
        <time>2022-03-27T16:03:12Z</time>
      </trkpt>
      <trkpt lat="48.61583" lon="2.09902">
        <ele>119</ele>
        <time>2022-03-27T16:03:14Z</time>
      </trkpt>
      <trkpt lat="48.61583" lon="2.09906">
        <ele>119</ele>
        <time>2022-03-27T16:03:16Z</time>
      </trkpt>
      <trkpt lat="48.61583" lon="2.0991">
        <ele>119</ele>
        <time>2022-03-27T16:03:18Z</time>
      </trkpt>
      <trkpt lat="48.61583" lon="2.09914">
        <ele>118</ele>
        <time>2022-03-27T16:03:20Z</time>
      </trkpt>
      <trkpt lat="48.61583" lon="2.09918">
        <ele>118</ele>
        <time>2022-03-27T16:03:22Z</time>
      </trkpt>
      <trkpt lat="48.61583" lon="2.09922">
        <ele>118</ele>
        <time>2022-03-27T16:03:24Z</time>
      </trkpt>
      <trkpt lat="48.61583" lon="2.09925">
        <ele>118</ele>
        <time>2022-03-27T16:03:26Z</time>
      </trkpt>
      <trkpt lat="48.61583" lon="2.09929">
        <ele>117</ele>
        <time>2022-03-27T16:03:28Z</time>
      </trkpt>
      <trkpt lat="48.61582" lon="2.09933">
        <ele>117</ele>
        <time>2022-03-27T16:03:30Z</time>
      </trkpt>
      <trkpt lat="48.61582" lon="2.09937">
        <ele>117</ele>
        <time>2022-03-27T16:03:32Z</time>
      </trkpt>
      <trkpt lat="48.61582" lon="2.09941">
        <ele>117</ele>
        <time>2022-03-27T16:03:34Z</time>
      </trkpt>
      <trkpt lat="48.61582" lon="2.09945">
        <ele>117</ele>
        <time>2022-03-27T16:03:36Z</time>
      </trkpt>
      <trkpt lat="48.61581" lon="2.09949">
        <ele>117</ele>
        <time>2022-03-27T16:03:38Z</time>
      </trkpt>
      <trkpt lat="48.61581" lon="2.09953">
        <ele>117</ele>
        <time>2022-03-27T16:03:40Z</time>
      </trkpt>
      <trkpt lat="48.61581" lon="2.09957">
        <ele>117</ele>
        <time>2022-03-27T16:03:42Z</time>
      </trkpt>
      <trkpt lat="48.61581" lon="2.0996">
        <ele>117</ele>
        <time>2022-03-27T16:03:45Z</time>
      </trkpt>
      <trkpt lat="48.61579" lon="2.09963">
        <ele>117</ele>
        <time>2022-03-27T16:03:52Z</time>
      </trkpt>
      <trkpt lat="48.61579" lon="2.09966">
        <ele>117</ele>
        <time>2022-03-27T16:03:55Z</time>
      </trkpt>
      <trkpt lat="48.61579" lon="2.09969">
        <ele>117</ele>
        <time>2022-03-27T16:03:57Z</time>
      </trkpt>
      <trkpt lat="48.61579" lon="2.09973">
        <ele>117</ele>
        <time>2022-03-27T16:03:59Z</time>
      </trkpt>
      <trkpt lat="48.61579" lon="2.09976">
        <ele>117</ele>
        <time>2022-03-27T16:04:01Z</time>
      </trkpt>
      <trkpt lat="48.61579" lon="2.0998">
        <ele>117</ele>
        <time>2022-03-27T16:04:03Z</time>
      </trkpt>
      <trkpt lat="48.61579" lon="2.09984">
        <ele>117</ele>
        <time>2022-03-27T16:04:05Z</time>
      </trkpt>
      <trkpt lat="48.6158" lon="2.09988">
        <ele>117</ele>
        <time>2022-03-27T16:04:07Z</time>
      </trkpt>
      <trkpt lat="48.6158" lon="2.09991">
        <ele>117</ele>
        <time>2022-03-27T16:04:09Z</time>
      </trkpt>
      <trkpt lat="48.61579" lon="2.09994">
        <ele>117</ele>
        <time>2022-03-27T16:04:12Z</time>
      </trkpt>
      <trkpt lat="48.61578" lon="2.09997">
        <ele>117</ele>
        <time>2022-03-27T16:04:24Z</time>
      </trkpt>
      <trkpt lat="48.61578" lon="2.10001">
        <ele>117</ele>
        <time>2022-03-27T16:04:26Z</time>
      </trkpt>
      <trkpt lat="48.61578" lon="2.10006">
        <ele>117</ele>
        <time>2022-03-27T16:04:28Z</time>
      </trkpt>
      <trkpt lat="48.61578" lon="2.10011">
        <ele>117</ele>
        <time>2022-03-27T16:04:30Z</time>
      </trkpt>
      <trkpt lat="48.61578" lon="2.10015">
        <ele>117</ele>
        <time>2022-03-27T16:04:32Z</time>
      </trkpt>
      <trkpt lat="48.61579" lon="2.10019">
        <ele>117</ele>
        <time>2022-03-27T16:04:34Z</time>
      </trkpt>
      <trkpt lat="48.61579" lon="2.10023">
        <ele>117</ele>
        <time>2022-03-27T16:04:36Z</time>
      </trkpt>
      <trkpt lat="48.61579" lon="2.10027">
        <ele>117</ele>
        <time>2022-03-27T16:04:38Z</time>
      </trkpt>
      <trkpt lat="48.61578" lon="2.1003">
        <ele>117</ele>
        <time>2022-03-27T16:04:40Z</time>
      </trkpt>
      <trkpt lat="48.61578" lon="2.10035">
        <ele>117</ele>
        <time>2022-03-27T16:04:42Z</time>
      </trkpt>
      <trkpt lat="48.61578" lon="2.10038">
        <ele>118</ele>
        <time>2022-03-27T16:04:44Z</time>
      </trkpt>
      <trkpt lat="48.61577" lon="2.10042">
        <ele>118</ele>
        <time>2022-03-27T16:04:46Z</time>
      </trkpt>
      <trkpt lat="48.61576" lon="2.10046">
        <ele>117</ele>
        <time>2022-03-27T16:04:48Z</time>
      </trkpt>
      <trkpt lat="48.61576" lon="2.1005">
        <ele>117</ele>
        <time>2022-03-27T16:04:50Z</time>
      </trkpt>
      <trkpt lat="48.61576" lon="2.10054">
        <ele>117</ele>
        <time>2022-03-27T16:04:52Z</time>
      </trkpt>
      <trkpt lat="48.61575" lon="2.10057">
        <ele>117</ele>
        <time>2022-03-27T16:04:54Z</time>
      </trkpt>
      <trkpt lat="48.61575" lon="2.10061">
        <ele>117</ele>
        <time>2022-03-27T16:04:56Z</time>
      </trkpt>
      <trkpt lat="48.61574" lon="2.10065">
        <ele>117</ele>
        <time>2022-03-27T16:04:58Z</time>
      </trkpt>
      <trkpt lat="48.61574" lon="2.10068">
        <ele>117</ele>
        <time>2022-03-27T16:05:00Z</time>
      </trkpt>
      <trkpt lat="48.61574" lon="2.10072">
        <ele>117</ele>
        <time>2022-03-27T16:05:02Z</time>
      </trkpt>
      <trkpt lat="48.61574" lon="2.10075">
        <ele>116</ele>
        <time>2022-03-27T16:05:04Z</time>
      </trkpt>
      <trkpt lat="48.61574" lon="2.10079">
        <ele>116</ele>
        <time>2022-03-27T16:05:06Z</time>
      </trkpt>
      <trkpt lat="48.61573" lon="2.10083">
        <ele>116</ele>
        <time>2022-03-27T16:05:08Z</time>
      </trkpt>
      <trkpt lat="48.61572" lon="2.10086">
        <ele>116</ele>
        <time>2022-03-27T16:05:10Z</time>
      </trkpt>
      <trkpt lat="48.61572" lon="2.1009">
        <ele>116</ele>
        <time>2022-03-27T16:05:12Z</time>
      </trkpt>
      <trkpt lat="48.61571" lon="2.10094">
        <ele>115</ele>
        <time>2022-03-27T16:05:14Z</time>
      </trkpt>
      <trkpt lat="48.61571" lon="2.10098">
        <ele>115</ele>
        <time>2022-03-27T16:05:16Z</time>
      </trkpt>
      <trkpt lat="48.61571" lon="2.10101">
        <ele>115</ele>
        <time>2022-03-27T16:05:18Z</time>
      </trkpt>
      <trkpt lat="48.6157" lon="2.10105">
        <ele>115</ele>
        <time>2022-03-27T16:05:20Z</time>
      </trkpt>
      <trkpt lat="48.6157" lon="2.10108">
        <ele>115</ele>
        <time>2022-03-27T16:05:22Z</time>
      </trkpt>
      <trkpt lat="48.6157" lon="2.10112">
        <ele>115</ele>
        <time>2022-03-27T16:05:24Z</time>
      </trkpt>
      <trkpt lat="48.61569" lon="2.10116">
        <ele>115</ele>
        <time>2022-03-27T16:05:26Z</time>
      </trkpt>
      <trkpt lat="48.61569" lon="2.1012">
        <ele>115</ele>
        <time>2022-03-27T16:05:28Z</time>
      </trkpt>
      <trkpt lat="48.61568" lon="2.10123">
        <ele>115</ele>
        <time>2022-03-27T16:05:30Z</time>
      </trkpt>
      <trkpt lat="48.61568" lon="2.10127">
        <ele>115</ele>
        <time>2022-03-27T16:05:32Z</time>
      </trkpt>
      <trkpt lat="48.61567" lon="2.1013">
        <ele>114</ele>
        <time>2022-03-27T16:05:34Z</time>
      </trkpt>
      <trkpt lat="48.61567" lon="2.10134">
        <ele>114</ele>
        <time>2022-03-27T16:05:36Z</time>
      </trkpt>
      <trkpt lat="48.61566" lon="2.10138">
        <ele>114</ele>
        <time>2022-03-27T16:05:37Z</time>
      </trkpt>
      <trkpt lat="48.61565" lon="2.10142">
        <ele>114</ele>
        <time>2022-03-27T16:05:40Z</time>
      </trkpt>
      <trkpt lat="48.61565" lon="2.10145">
        <ele>114</ele>
        <time>2022-03-27T16:05:42Z</time>
      </trkpt>
      <trkpt lat="48.61564" lon="2.10149">
        <ele>114</ele>
        <time>2022-03-27T16:05:44Z</time>
      </trkpt>
      <trkpt lat="48.61564" lon="2.10153">
        <ele>114</ele>
        <time>2022-03-27T16:05:46Z</time>
      </trkpt>
      <trkpt lat="48.61563" lon="2.10156">
        <ele>114</ele>
        <time>2022-03-27T16:05:48Z</time>
      </trkpt>
      <trkpt lat="48.61563" lon="2.10159">
        <ele>114</ele>
        <time>2022-03-27T16:05:50Z</time>
      </trkpt>
      <trkpt lat="48.61562" lon="2.10162">
        <ele>114</ele>
        <time>2022-03-27T16:05:52Z</time>
      </trkpt>
      <trkpt lat="48.61561" lon="2.10166">
        <ele>114</ele>
        <time>2022-03-27T16:05:54Z</time>
      </trkpt>
      <trkpt lat="48.61561" lon="2.10169">
        <ele>114</ele>
        <time>2022-03-27T16:05:56Z</time>
      </trkpt>
      <trkpt lat="48.61561" lon="2.10172">
        <ele>114</ele>
        <time>2022-03-27T16:05:58Z</time>
      </trkpt>
      <trkpt lat="48.6156" lon="2.10175">
        <ele>114</ele>
        <time>2022-03-27T16:06:00Z</time>
      </trkpt>
      <trkpt lat="48.61559" lon="2.10179">
        <ele>114</ele>
        <time>2022-03-27T16:06:02Z</time>
      </trkpt>
      <trkpt lat="48.61559" lon="2.10182">
        <ele>114</ele>
        <time>2022-03-27T16:06:04Z</time>
      </trkpt>
      <trkpt lat="48.61558" lon="2.10185">
        <ele>114</ele>
        <time>2022-03-27T16:06:06Z</time>
      </trkpt>
      <trkpt lat="48.61557" lon="2.10188">
        <ele>114</ele>
        <time>2022-03-27T16:06:09Z</time>
      </trkpt>
      <trkpt lat="48.61557" lon="2.10191">
        <ele>114</ele>
        <time>2022-03-27T16:06:16Z</time>
      </trkpt>
      <trkpt lat="48.61555" lon="2.10193">
        <ele>114</ele>
        <time>2022-03-27T16:06:22Z</time>
      </trkpt>
      <trkpt lat="48.61555" lon="2.10196">
        <ele>114</ele>
        <time>2022-03-27T16:06:26Z</time>
      </trkpt>
      <trkpt lat="48.61553" lon="2.10199">
        <ele>114</ele>
        <time>2022-03-27T16:06:29Z</time>
      </trkpt>
      <trkpt lat="48.61551" lon="2.102">
        <ele>114</ele>
        <time>2022-03-27T16:06:31Z</time>
      </trkpt>
      <trkpt lat="48.6155" lon="2.10202">
        <ele>114</ele>
        <time>2022-03-27T16:06:33Z</time>
      </trkpt>
      <trkpt lat="48.61549" lon="2.10205">
        <ele>114</ele>
        <time>2022-03-27T16:06:35Z</time>
      </trkpt>
      <trkpt lat="48.61548" lon="2.10209">
        <ele>114</ele>
        <time>2022-03-27T16:06:38Z</time>
      </trkpt>
      <trkpt lat="48.61548" lon="2.10213">
        <ele>114</ele>
        <time>2022-03-27T16:06:40Z</time>
      </trkpt>
      <trkpt lat="48.61548" lon="2.10218">
        <ele>114</ele>
        <time>2022-03-27T16:06:42Z</time>
      </trkpt>
      <trkpt lat="48.61547" lon="2.10221">
        <ele>114</ele>
        <time>2022-03-27T16:06:44Z</time>
      </trkpt>
      <trkpt lat="48.61547" lon="2.10225">
        <ele>114</ele>
        <time>2022-03-27T16:06:46Z</time>
      </trkpt>
      <trkpt lat="48.61546" lon="2.10229">
        <ele>114</ele>
        <time>2022-03-27T16:06:48Z</time>
      </trkpt>
      <trkpt lat="48.61546" lon="2.10233">
        <ele>114</ele>
        <time>2022-03-27T16:06:50Z</time>
      </trkpt>
      <trkpt lat="48.61545" lon="2.10237">
        <ele>114</ele>
        <time>2022-03-27T16:06:52Z</time>
      </trkpt>
      <trkpt lat="48.61544" lon="2.10241">
        <ele>114</ele>
        <time>2022-03-27T16:06:54Z</time>
      </trkpt>
      <trkpt lat="48.61543" lon="2.10244">
        <ele>114</ele>
        <time>2022-03-27T16:06:56Z</time>
      </trkpt>
      <trkpt lat="48.61543" lon="2.10247">
        <ele>114</ele>
        <time>2022-03-27T16:06:58Z</time>
      </trkpt>
      <trkpt lat="48.61541" lon="2.10251">
        <ele>114</ele>
        <time>2022-03-27T16:07:00Z</time>
      </trkpt>
      <trkpt lat="48.6154" lon="2.10255">
        <ele>114</ele>
        <time>2022-03-27T16:07:02Z</time>
      </trkpt>
      <trkpt lat="48.61539" lon="2.10258">
        <ele>114</ele>
        <time>2022-03-27T16:07:04Z</time>
      </trkpt>
      <trkpt lat="48.61538" lon="2.10261">
        <ele>114</ele>
        <time>2022-03-27T16:07:06Z</time>
      </trkpt>
      <trkpt lat="48.61536" lon="2.10264">
        <ele>114</ele>
        <time>2022-03-27T16:07:08Z</time>
      </trkpt>
      <trkpt lat="48.61534" lon="2.10267">
        <ele>113</ele>
        <time>2022-03-27T16:07:10Z</time>
      </trkpt>
      <trkpt lat="48.61532" lon="2.1027">
        <ele>113</ele>
        <time>2022-03-27T16:07:12Z</time>
      </trkpt>
      <trkpt lat="48.61531" lon="2.10274">
        <ele>113</ele>
        <time>2022-03-27T16:07:14Z</time>
      </trkpt>
      <trkpt lat="48.6153" lon="2.10277">
        <ele>113</ele>
        <time>2022-03-27T16:07:16Z</time>
      </trkpt>
      <trkpt lat="48.61529" lon="2.1028">
        <ele>113</ele>
        <time>2022-03-27T16:07:18Z</time>
      </trkpt>
      <trkpt lat="48.61527" lon="2.10284">
        <ele>113</ele>
        <time>2022-03-27T16:07:20Z</time>
      </trkpt>
      <trkpt lat="48.61525" lon="2.10287">
        <ele>113</ele>
        <time>2022-03-27T16:07:22Z</time>
      </trkpt>
      <trkpt lat="48.61524" lon="2.1029">
        <ele>113</ele>
        <time>2022-03-27T16:07:24Z</time>
      </trkpt>
      <trkpt lat="48.61523" lon="2.10293">
        <ele>113</ele>
        <time>2022-03-27T16:07:26Z</time>
      </trkpt>
      <trkpt lat="48.61521" lon="2.10297">
        <ele>113</ele>
        <time>2022-03-27T16:07:28Z</time>
      </trkpt>
      <trkpt lat="48.6152" lon="2.10301">
        <ele>113</ele>
        <time>2022-03-27T16:07:30Z</time>
      </trkpt>
      <trkpt lat="48.61519" lon="2.10304">
        <ele>113</ele>
        <time>2022-03-27T16:07:32Z</time>
      </trkpt>
      <trkpt lat="48.61518" lon="2.10308">
        <ele>113</ele>
        <time>2022-03-27T16:07:34Z</time>
      </trkpt>
      <trkpt lat="48.61517" lon="2.10311">
        <ele>112</ele>
        <time>2022-03-27T16:07:36Z</time>
      </trkpt>
      <trkpt lat="48.61516" lon="2.10314">
        <ele>112</ele>
        <time>2022-03-27T16:07:38Z</time>
      </trkpt>
      <trkpt lat="48.61515" lon="2.10317">
        <ele>112</ele>
        <time>2022-03-27T16:07:40Z</time>
      </trkpt>
      <trkpt lat="48.61514" lon="2.10321">
        <ele>112</ele>
        <time>2022-03-27T16:07:42Z</time>
      </trkpt>
      <trkpt lat="48.61514" lon="2.10324">
        <ele>112</ele>
        <time>2022-03-27T16:07:44Z</time>
      </trkpt>
      <trkpt lat="48.61514" lon="2.10327">
        <ele>112</ele>
        <time>2022-03-27T16:07:50Z</time>
      </trkpt>
      <trkpt lat="48.61512" lon="2.10331">
        <ele>112</ele>
        <time>2022-03-27T16:07:54Z</time>
      </trkpt>
      <trkpt lat="48.6151" lon="2.10333">
        <ele>112</ele>
        <time>2022-03-27T16:07:56Z</time>
      </trkpt>
      <trkpt lat="48.61509" lon="2.10336">
        <ele>112</ele>
        <time>2022-03-27T16:07:58Z</time>
      </trkpt>
      <trkpt lat="48.61507" lon="2.1034">
        <ele>112</ele>
        <time>2022-03-27T16:08:00Z</time>
      </trkpt>
      <trkpt lat="48.61507" lon="2.10342">
        <ele>112</ele>
        <time>2022-03-27T16:08:02Z</time>
      </trkpt>
      <trkpt lat="48.61505" lon="2.10344">
        <ele>112</ele>
        <time>2022-03-27T16:08:04Z</time>
      </trkpt>
      <trkpt lat="48.61504" lon="2.10346">
        <ele>112</ele>
        <time>2022-03-27T16:08:06Z</time>
      </trkpt>
      <trkpt lat="48.61502" lon="2.1035">
        <ele>112</ele>
        <time>2022-03-27T16:08:08Z</time>
      </trkpt>
      <trkpt lat="48.61501" lon="2.10352">
        <ele>112</ele>
        <time>2022-03-27T16:08:10Z</time>
      </trkpt>
      <trkpt lat="48.615" lon="2.10356">
        <ele>111</ele>
        <time>2022-03-27T16:08:13Z</time>
      </trkpt>
      <trkpt lat="48.61498" lon="2.10359">
        <ele>111</ele>
        <time>2022-03-27T16:08:16Z</time>
      </trkpt>
      <trkpt lat="48.61498" lon="2.10362">
        <ele>111</ele>
        <time>2022-03-27T16:08:17Z</time>
      </trkpt>
      <trkpt lat="48.61496" lon="2.10365">
        <ele>111</ele>
        <time>2022-03-27T16:08:20Z</time>
      </trkpt>
      <trkpt lat="48.61494" lon="2.10367">
        <ele>111</ele>
        <time>2022-03-27T16:08:22Z</time>
      </trkpt>
      <trkpt lat="48.61492" lon="2.1037">
        <ele>111</ele>
        <time>2022-03-27T16:08:24Z</time>
      </trkpt>
      <trkpt lat="48.6149" lon="2.10373">
        <ele>111</ele>
        <time>2022-03-27T16:08:26Z</time>
      </trkpt>
      <trkpt lat="48.61489" lon="2.10377">
        <ele>111</ele>
        <time>2022-03-27T16:08:28Z</time>
      </trkpt>
      <trkpt lat="48.61487" lon="2.10379">
        <ele>111</ele>
        <time>2022-03-27T16:08:30Z</time>
      </trkpt>
      <trkpt lat="48.61486" lon="2.10382">
        <ele>111</ele>
        <time>2022-03-27T16:08:32Z</time>
      </trkpt>
      <trkpt lat="48.61484" lon="2.10385">
        <ele>110</ele>
        <time>2022-03-27T16:08:34Z</time>
      </trkpt>
      <trkpt lat="48.61483" lon="2.10388">
        <ele>110</ele>
        <time>2022-03-27T16:08:36Z</time>
      </trkpt>
      <trkpt lat="48.61481" lon="2.1039">
        <ele>110</ele>
        <time>2022-03-27T16:08:38Z</time>
      </trkpt>
      <trkpt lat="48.61479" lon="2.10393">
        <ele>110</ele>
        <time>2022-03-27T16:08:40Z</time>
      </trkpt>
      <trkpt lat="48.61477" lon="2.10396">
        <ele>110</ele>
        <time>2022-03-27T16:08:42Z</time>
      </trkpt>
      <trkpt lat="48.61476" lon="2.10399">
        <ele>110</ele>
        <time>2022-03-27T16:08:45Z</time>
      </trkpt>
      <trkpt lat="48.61474" lon="2.10401">
        <ele>110</ele>
        <time>2022-03-27T16:08:47Z</time>
      </trkpt>
      <trkpt lat="48.61471" lon="2.10404">
        <ele>110</ele>
        <time>2022-03-27T16:08:49Z</time>
      </trkpt>
      <trkpt lat="48.61469" lon="2.10406">
        <ele>110</ele>
        <time>2022-03-27T16:08:51Z</time>
      </trkpt>
      <trkpt lat="48.61467" lon="2.10409">
        <ele>110</ele>
        <time>2022-03-27T16:08:53Z</time>
      </trkpt>
      <trkpt lat="48.61466" lon="2.10412">
        <ele>110</ele>
        <time>2022-03-27T16:08:55Z</time>
      </trkpt>
      <trkpt lat="48.61464" lon="2.10414">
        <ele>110</ele>
        <time>2022-03-27T16:08:57Z</time>
      </trkpt>
      <trkpt lat="48.61462" lon="2.10417">
        <ele>109</ele>
        <time>2022-03-27T16:08:59Z</time>
      </trkpt>
      <trkpt lat="48.6146" lon="2.1042">
        <ele>109</ele>
        <time>2022-03-27T16:09:01Z</time>
      </trkpt>
      <trkpt lat="48.61458" lon="2.10423">
        <ele>109</ele>
        <time>2022-03-27T16:09:03Z</time>
      </trkpt>
      <trkpt lat="48.61456" lon="2.10426">
        <ele>109</ele>
        <time>2022-03-27T16:09:05Z</time>
      </trkpt>
      <trkpt lat="48.61454" lon="2.10429">
        <ele>109</ele>
        <time>2022-03-27T16:09:07Z</time>
      </trkpt>
      <trkpt lat="48.61453" lon="2.10432">
        <ele>108</ele>
        <time>2022-03-27T16:09:09Z</time>
      </trkpt>
      <trkpt lat="48.61451" lon="2.10435">
        <ele>108</ele>
        <time>2022-03-27T16:09:11Z</time>
      </trkpt>
      <trkpt lat="48.61449" lon="2.10438">
        <ele>108</ele>
        <time>2022-03-27T16:09:13Z</time>
      </trkpt>
      <trkpt lat="48.61447" lon="2.10441">
        <ele>108</ele>
        <time>2022-03-27T16:09:15Z</time>
      </trkpt>
      <trkpt lat="48.61446" lon="2.10444">
        <ele>108</ele>
        <time>2022-03-27T16:09:17Z</time>
      </trkpt>
      <trkpt lat="48.61444" lon="2.10447">
        <ele>108</ele>
        <time>2022-03-27T16:09:19Z</time>
      </trkpt>
      <trkpt lat="48.61443" lon="2.1045">
        <ele>108</ele>
        <time>2022-03-27T16:09:21Z</time>
      </trkpt>
      <trkpt lat="48.61441" lon="2.10454">
        <ele>108</ele>
        <time>2022-03-27T16:09:23Z</time>
      </trkpt>
      <trkpt lat="48.6144" lon="2.10457">
        <ele>108</ele>
        <time>2022-03-27T16:09:25Z</time>
      </trkpt>
      <trkpt lat="48.61438" lon="2.1046">
        <ele>108</ele>
        <time>2022-03-27T16:09:27Z</time>
      </trkpt>
      <trkpt lat="48.61437" lon="2.10463">
        <ele>108</ele>
        <time>2022-03-27T16:09:29Z</time>
      </trkpt>
      <trkpt lat="48.61436" lon="2.10466">
        <ele>108</ele>
        <time>2022-03-27T16:09:31Z</time>
      </trkpt>
      <trkpt lat="48.61434" lon="2.10469">
        <ele>108</ele>
        <time>2022-03-27T16:09:33Z</time>
      </trkpt>
      <trkpt lat="48.61433" lon="2.10472">
        <ele>108</ele>
        <time>2022-03-27T16:09:35Z</time>
      </trkpt>
      <trkpt lat="48.61432" lon="2.10475">
        <ele>108</ele>
        <time>2022-03-27T16:09:37Z</time>
      </trkpt>
      <trkpt lat="48.6143" lon="2.10479">
        <ele>108</ele>
        <time>2022-03-27T16:09:39Z</time>
      </trkpt>
      <trkpt lat="48.61429" lon="2.10483">
        <ele>108</ele>
        <time>2022-03-27T16:09:41Z</time>
      </trkpt>
      <trkpt lat="48.61428" lon="2.10486">
        <ele>108</ele>
        <time>2022-03-27T16:09:43Z</time>
      </trkpt>
      <trkpt lat="48.61427" lon="2.10489">
        <ele>107</ele>
        <time>2022-03-27T16:09:45Z</time>
      </trkpt>
      <trkpt lat="48.61425" lon="2.10493">
        <ele>107</ele>
        <time>2022-03-27T16:09:47Z</time>
      </trkpt>
      <trkpt lat="48.61424" lon="2.10496">
        <ele>107</ele>
        <time>2022-03-27T16:09:49Z</time>
      </trkpt>
      <trkpt lat="48.61423" lon="2.10499">
        <ele>107</ele>
        <time>2022-03-27T16:09:51Z</time>
      </trkpt>
      <trkpt lat="48.61422" lon="2.10502">
        <ele>107</ele>
        <time>2022-03-27T16:09:53Z</time>
      </trkpt>
      <trkpt lat="48.61421" lon="2.10506">
        <ele>107</ele>
        <time>2022-03-27T16:09:55Z</time>
      </trkpt>
      <trkpt lat="48.6142" lon="2.10509">
        <ele>107</ele>
        <time>2022-03-27T16:09:57Z</time>
      </trkpt>
      <trkpt lat="48.61419" lon="2.10513">
        <ele>107</ele>
        <time>2022-03-27T16:09:59Z</time>
      </trkpt>
      <trkpt lat="48.61418" lon="2.10516">
        <ele>106</ele>
        <time>2022-03-27T16:10:01Z</time>
      </trkpt>
      <trkpt lat="48.61417" lon="2.1052">
        <ele>106</ele>
        <time>2022-03-27T16:10:03Z</time>
      </trkpt>
      <trkpt lat="48.61416" lon="2.10524">
        <ele>106</ele>
        <time>2022-03-27T16:10:05Z</time>
      </trkpt>
      <trkpt lat="48.61415" lon="2.10527">
        <ele>106</ele>
        <time>2022-03-27T16:10:07Z</time>
      </trkpt>
      <trkpt lat="48.61415" lon="2.10531">
        <ele>106</ele>
        <time>2022-03-27T16:10:09Z</time>
      </trkpt>
      <trkpt lat="48.61414" lon="2.10535">
        <ele>106</ele>
        <time>2022-03-27T16:10:11Z</time>
      </trkpt>
      <trkpt lat="48.61413" lon="2.10539">
        <ele>106</ele>
        <time>2022-03-27T16:10:13Z</time>
      </trkpt>
      <trkpt lat="48.61413" lon="2.10542">
        <ele>106</ele>
        <time>2022-03-27T16:10:15Z</time>
      </trkpt>
      <trkpt lat="48.61412" lon="2.10546">
        <ele>105</ele>
        <time>2022-03-27T16:10:17Z</time>
      </trkpt>
      <trkpt lat="48.61412" lon="2.1055">
        <ele>105</ele>
        <time>2022-03-27T16:10:19Z</time>
      </trkpt>
      <trkpt lat="48.61412" lon="2.10554">
        <ele>105</ele>
        <time>2022-03-27T16:10:21Z</time>
      </trkpt>
      <trkpt lat="48.61412" lon="2.10558">
        <ele>105</ele>
        <time>2022-03-27T16:10:23Z</time>
      </trkpt>
      <trkpt lat="48.61411" lon="2.10562">
        <ele>105</ele>
        <time>2022-03-27T16:10:25Z</time>
      </trkpt>
      <trkpt lat="48.61411" lon="2.10566">
        <ele>105</ele>
        <time>2022-03-27T16:10:27Z</time>
      </trkpt>
      <trkpt lat="48.61411" lon="2.1057">
        <ele>105</ele>
        <time>2022-03-27T16:10:29Z</time>
      </trkpt>
      <trkpt lat="48.61411" lon="2.10574">
        <ele>105</ele>
        <time>2022-03-27T16:10:31Z</time>
      </trkpt>
      <trkpt lat="48.6141" lon="2.10578">
        <ele>105</ele>
        <time>2022-03-27T16:10:33Z</time>
      </trkpt>
      <trkpt lat="48.6141" lon="2.10582">
        <ele>105</ele>
        <time>2022-03-27T16:10:35Z</time>
      </trkpt>
      <trkpt lat="48.61409" lon="2.10586">
        <ele>105</ele>
        <time>2022-03-27T16:10:37Z</time>
      </trkpt>
      <trkpt lat="48.6141" lon="2.1059">
        <ele>105</ele>
        <time>2022-03-27T16:10:39Z</time>
      </trkpt>
      <trkpt lat="48.6141" lon="2.10593">
        <ele>105</ele>
        <time>2022-03-27T16:10:41Z</time>
      </trkpt>
      <trkpt lat="48.61412" lon="2.10595">
        <ele>105</ele>
        <time>2022-03-27T16:10:43Z</time>
      </trkpt>
      <trkpt lat="48.61413" lon="2.10597">
        <ele>105</ele>
        <time>2022-03-27T16:10:45Z</time>
      </trkpt>
      <trkpt lat="48.61415" lon="2.106">
        <ele>105</ele>
        <time>2022-03-27T16:10:47Z</time>
      </trkpt>
      <trkpt lat="48.61416" lon="2.10602">
        <ele>105</ele>
        <time>2022-03-27T16:10:49Z</time>
      </trkpt>
      <trkpt lat="48.61418" lon="2.10604">
        <ele>105</ele>
        <time>2022-03-27T16:10:51Z</time>
      </trkpt>
      <trkpt lat="48.6142" lon="2.10607">
        <ele>105</ele>
        <time>2022-03-27T16:10:53Z</time>
      </trkpt>
      <trkpt lat="48.61421" lon="2.10609">
        <ele>105</ele>
        <time>2022-03-27T16:10:54Z</time>
      </trkpt>
      <trkpt lat="48.61423" lon="2.10612">
        <ele>105</ele>
        <time>2022-03-27T16:10:57Z</time>
      </trkpt>
      <trkpt lat="48.61425" lon="2.10614">
        <ele>105</ele>
        <time>2022-03-27T16:10:59Z</time>
      </trkpt>
      <trkpt lat="48.61427" lon="2.10617">
        <ele>105</ele>
        <time>2022-03-27T16:11:01Z</time>
      </trkpt>
      <trkpt lat="48.61429" lon="2.1062">
        <ele>105</ele>
        <time>2022-03-27T16:11:03Z</time>
      </trkpt>
      <trkpt lat="48.6143" lon="2.10623">
        <ele>105</ele>
        <time>2022-03-27T16:11:05Z</time>
      </trkpt>
      <trkpt lat="48.61432" lon="2.10625">
        <ele>105</ele>
        <time>2022-03-27T16:11:07Z</time>
      </trkpt>
      <trkpt lat="48.61434" lon="2.10628">
        <ele>105</ele>
        <time>2022-03-27T16:11:09Z</time>
      </trkpt>
      <trkpt lat="48.61436" lon="2.10631">
        <ele>105</ele>
        <time>2022-03-27T16:11:11Z</time>
      </trkpt>
      <trkpt lat="48.61437" lon="2.10633">
        <ele>105</ele>
        <time>2022-03-27T16:11:13Z</time>
      </trkpt>
      <trkpt lat="48.61438" lon="2.10636">
        <ele>104</ele>
        <time>2022-03-27T16:11:15Z</time>
      </trkpt>
      <trkpt lat="48.6144" lon="2.10638">
        <ele>104</ele>
        <time>2022-03-27T16:11:18Z</time>
      </trkpt>
      <trkpt lat="48.61441" lon="2.10641">
        <ele>104</ele>
        <time>2022-03-27T16:11:20Z</time>
      </trkpt>
      <trkpt lat="48.61443" lon="2.10643">
        <ele>104</ele>
        <time>2022-03-27T16:11:22Z</time>
      </trkpt>
      <trkpt lat="48.61445" lon="2.10646">
        <ele>104</ele>
        <time>2022-03-27T16:11:24Z</time>
      </trkpt>
      <trkpt lat="48.61446" lon="2.10648">
        <ele>104</ele>
        <time>2022-03-27T16:11:26Z</time>
      </trkpt>
      <trkpt lat="48.61448" lon="2.1065">
        <ele>104</ele>
        <time>2022-03-27T16:11:28Z</time>
      </trkpt>
      <trkpt lat="48.61449" lon="2.10653">
        <ele>104</ele>
        <time>2022-03-27T16:11:30Z</time>
      </trkpt>
      <trkpt lat="48.61451" lon="2.10655">
        <ele>104</ele>
        <time>2022-03-27T16:11:32Z</time>
      </trkpt>
      <trkpt lat="48.61453" lon="2.10658">
        <ele>104</ele>
        <time>2022-03-27T16:11:34Z</time>
      </trkpt>
      <trkpt lat="48.61454" lon="2.1066">
        <ele>104</ele>
        <time>2022-03-27T16:11:36Z</time>
      </trkpt>
      <trkpt lat="48.61456" lon="2.10662">
        <ele>104</ele>
        <time>2022-03-27T16:11:38Z</time>
      </trkpt>
      <trkpt lat="48.61458" lon="2.10665">
        <ele>104</ele>
        <time>2022-03-27T16:11:40Z</time>
      </trkpt>
      <trkpt lat="48.61459" lon="2.10668">
        <ele>104</ele>
        <time>2022-03-27T16:11:42Z</time>
      </trkpt>
      <trkpt lat="48.61461" lon="2.1067">
        <ele>104</ele>
        <time>2022-03-27T16:11:44Z</time>
      </trkpt>
      <trkpt lat="48.61463" lon="2.10673">
        <ele>104</ele>
        <time>2022-03-27T16:11:46Z</time>
      </trkpt>
      <trkpt lat="48.61465" lon="2.10676">
        <ele>104</ele>
        <time>2022-03-27T16:11:48Z</time>
      </trkpt>
      <trkpt lat="48.61467" lon="2.10678">
        <ele>104</ele>
        <time>2022-03-27T16:11:50Z</time>
      </trkpt>
      <trkpt lat="48.61469" lon="2.10681">
        <ele>104</ele>
        <time>2022-03-27T16:11:52Z</time>
      </trkpt>
      <trkpt lat="48.61471" lon="2.10683">
        <ele>104</ele>
        <time>2022-03-27T16:11:54Z</time>
      </trkpt>
      <trkpt lat="48.61473" lon="2.10685">
        <ele>104</ele>
        <time>2022-03-27T16:11:56Z</time>
      </trkpt>
      <trkpt lat="48.61475" lon="2.10687">
        <ele>104</ele>
        <time>2022-03-27T16:11:58Z</time>
      </trkpt>
      <trkpt lat="48.61477" lon="2.10689">
        <ele>104</ele>
        <time>2022-03-27T16:12:00Z</time>
      </trkpt>
      <trkpt lat="48.6148" lon="2.10691">
        <ele>104</ele>
        <time>2022-03-27T16:12:02Z</time>
      </trkpt>
      <trkpt lat="48.61482" lon="2.10693">
        <ele>104</ele>
        <time>2022-03-27T16:12:04Z</time>
      </trkpt>
      <trkpt lat="48.61484" lon="2.10694">
        <ele>104</ele>
        <time>2022-03-27T16:12:06Z</time>
      </trkpt>
      <trkpt lat="48.61486" lon="2.10696">
        <ele>104</ele>
        <time>2022-03-27T16:12:08Z</time>
      </trkpt>
      <trkpt lat="48.61488" lon="2.10697">
        <ele>104</ele>
        <time>2022-03-27T16:12:10Z</time>
      </trkpt>
      <trkpt lat="48.61491" lon="2.10699">
        <ele>104</ele>
        <time>2022-03-27T16:12:12Z</time>
      </trkpt>
      <trkpt lat="48.61492" lon="2.10701">
        <ele>104</ele>
        <time>2022-03-27T16:12:14Z</time>
      </trkpt>
      <trkpt lat="48.61495" lon="2.10702">
        <ele>103</ele>
        <time>2022-03-27T16:12:16Z</time>
      </trkpt>
      <trkpt lat="48.61497" lon="2.10703">
        <ele>103</ele>
        <time>2022-03-27T16:12:18Z</time>
      </trkpt>
      <trkpt lat="48.61499" lon="2.10703">
        <ele>103</ele>
        <time>2022-03-27T16:12:20Z</time>
      </trkpt>
      <trkpt lat="48.61501" lon="2.10704">
        <ele>103</ele>
        <time>2022-03-27T16:12:22Z</time>
      </trkpt>
      <trkpt lat="48.61503" lon="2.10706">
        <ele>103</ele>
        <time>2022-03-27T16:12:25Z</time>
      </trkpt>
      <trkpt lat="48.61505" lon="2.10708">
        <ele>103</ele>
        <time>2022-03-27T16:12:28Z</time>
      </trkpt>
      <trkpt lat="48.61506" lon="2.10711">
        <ele>103</ele>
        <time>2022-03-27T16:12:30Z</time>
      </trkpt>
      <trkpt lat="48.61507" lon="2.10713">
        <ele>104</ele>
        <time>2022-03-27T16:12:32Z</time>
      </trkpt>
    </trkseg>
  </trk>
</gpx>